<?xml version='1.0' encoding='UTF-8'?><gpx version="1.1" creator="JPX - https://github.com/jenetics/jpx" xmlns="http://www.topografix.com/GPX/1/1"><trk><trkseg><trkpt lat="42.2079259" lon="14.2215925"><ele>417.0</ele><time>2026-05-01T12:53:36.286Z</time></trkpt><trkpt lat="42.2079672" lon="14.2214824"><ele>417.0</ele><time>2026-05-01T12:53:40.279Z</time></trkpt><trkpt lat="42.2079901" lon="14.2213537"><ele>417.0</ele><time>2026-05-01T12:53:42.281Z</time></trkpt><trkpt lat="42.2079912" lon="14.2212017"><ele>417.0</ele><time>2026-05-01T12:53:44.294Z</time></trkpt><trkpt lat="42.2079866" lon="14.2211117"><ele>417.0</ele><time>2026-05-01T12:53:45.299Z</time></trkpt><trkpt lat="42.2079735" lon="14.2210172"><ele>417.0</ele><time>2026-05-01T12:53:46.281Z</time></trkpt><trkpt lat="42.2079643" lon="14.2209181"><ele>417.1666666666667</ele><time>2026-05-01T12:53:47.291Z</time></trkpt><trkpt lat="42.2079544" lon="14.2208236"><ele>417.33333333333337</ele><time>2026-05-01T12:53:48.261Z</time></trkpt><trkpt lat="42.2079485" lon="14.2207287"><ele>417.5</ele><time>2026-05-01T12:53:49.276Z</time></trkpt><trkpt lat="42.2079447" lon="14.2206387"><ele>417.6666666666667</ele><time>2026-05-01T12:53:50.262Z</time></trkpt><trkpt lat="42.2079424" lon="14.2205504"><ele>417.83333333333337</ele><time>2026-05-01T12:53:51.279Z</time></trkpt><trkpt lat="42.2079205" lon="14.2204072"><ele>418.0</ele><time>2026-05-01T12:53:53.284Z</time></trkpt><trkpt lat="42.2078683" lon="14.2202626"><ele>418.00000000000006</ele><time>2026-05-01T12:53:55.293Z</time></trkpt><trkpt lat="42.2078381" lon="14.2201845"><ele>418.0</ele><time>2026-05-01T12:53:56.281Z</time></trkpt><trkpt lat="42.2077969" lon="14.2200604"><ele>418.0</ele><time>2026-05-01T12:53:58.27Z</time></trkpt><trkpt lat="42.207778" lon="14.2199635"><ele>418.0</ele><time>2026-05-01T12:54:01.271Z</time></trkpt><trkpt lat="42.2077806" lon="14.220054"><ele>418.00000000000006</ele><time>2026-05-01T12:54:07.286Z</time></trkpt><trkpt lat="42.2078216" lon="14.2201776"><ele>418.0</ele><time>2026-05-01T12:54:09.27Z</time></trkpt><trkpt lat="42.2078692" lon="14.2202412"><ele>418.0</ele><time>2026-05-01T12:54:11.293Z</time></trkpt><trkpt lat="42.2079949" lon="14.2202018"><ele>418.0</ele><time>2026-05-01T12:54:14.27Z</time></trkpt><trkpt lat="42.2080744" lon="14.2202557"><ele>418.0</ele><time>2026-05-01T12:54:16.268Z</time></trkpt><trkpt lat="42.2081398" lon="14.2203605"><ele>418.0</ele><time>2026-05-01T12:54:18.299Z</time></trkpt><trkpt lat="42.2082062" lon="14.2203992"><ele>418.0</ele><time>2026-05-01T12:54:21.275Z</time></trkpt><trkpt lat="42.2082826" lon="14.2203685"><ele>416.0</ele><time>2026-05-01T12:54:23.29Z</time></trkpt><trkpt lat="42.2084342" lon="14.2202757"><ele>414.0</ele><time>2026-05-01T12:54:26.272Z</time></trkpt><trkpt lat="42.2084959" lon="14.2202208"><ele>412.0</ele><time>2026-05-01T12:54:27.271Z</time></trkpt><trkpt lat="42.2085603" lon="14.220158"><ele>410.0</ele><time>2026-05-01T12:54:28.273Z</time></trkpt><trkpt lat="42.2086213" lon="14.2200993"><ele>408.0</ele><time>2026-05-01T12:54:29.294Z</time></trkpt><trkpt lat="42.2086836" lon="14.2200422"><ele>408.0</ele><time>2026-05-01T12:54:30.274Z</time></trkpt><trkpt lat="42.2087378" lon="14.2199927"><ele>408.0</ele><time>2026-05-01T12:54:31.272Z</time></trkpt><trkpt lat="42.2088341" lon="14.2199183"><ele>408.0</ele><time>2026-05-01T12:54:33.268Z</time></trkpt><trkpt lat="42.2089264" lon="14.2198992"><ele>408.0</ele><time>2026-05-01T12:54:35.288Z</time></trkpt><trkpt lat="42.209009" lon="14.2199235"><ele>408.0</ele><time>2026-05-01T12:54:37.277Z</time></trkpt><trkpt lat="42.2091014" lon="14.2199577"><ele>405.79999999999995</ele><time>2026-05-01T12:54:39.28Z</time></trkpt><trkpt lat="42.2092089" lon="14.2200086"><ele>403.6</ele><time>2026-05-01T12:54:41.276Z</time></trkpt><trkpt lat="42.2093165" lon="14.2200385"><ele>401.4</ele><time>2026-05-01T12:54:43.27Z</time></trkpt><trkpt lat="42.2094131" lon="14.2200609"><ele>399.20000000000005</ele><time>2026-05-01T12:54:45.273Z</time></trkpt><trkpt lat="42.2095045" lon="14.2200731"><ele>397.0</ele><time>2026-05-01T12:54:47.289Z</time></trkpt><trkpt lat="42.2095909" lon="14.219995"><ele>397.0</ele><time>2026-05-01T12:54:49.276Z</time></trkpt><trkpt lat="42.2096615" lon="14.219881"><ele>397.0</ele><time>2026-05-01T12:54:51.275Z</time></trkpt><trkpt lat="42.2097185" lon="14.2197659"><ele>397.0</ele><time>2026-05-01T12:54:53.294Z</time></trkpt><trkpt lat="42.2097594" lon="14.2196365"><ele>397.0</ele><time>2026-05-01T12:54:55.285Z</time></trkpt><trkpt lat="42.2097705" lon="14.2195033"><ele>397.0</ele><time>2026-05-01T12:54:57.276Z</time></trkpt><trkpt lat="42.2097727" lon="14.2193961"><ele>394.6</ele><time>2026-05-01T12:54:59.276Z</time></trkpt><trkpt lat="42.2098375" lon="14.2194091"><ele>392.20000000000005</ele><time>2026-05-01T12:55:03.276Z</time></trkpt><trkpt lat="42.2098555" lon="14.2195711"><ele>389.8</ele><time>2026-05-01T12:55:05.288Z</time></trkpt><trkpt lat="42.2098531" lon="14.2196899"><ele>387.4</ele><time>2026-05-01T12:55:06.275Z</time></trkpt><trkpt lat="42.2098478" lon="14.2198207"><ele>385.0</ele><time>2026-05-01T12:55:07.347Z</time></trkpt><trkpt lat="42.2098376" lon="14.2199675"><ele>385.0</ele><time>2026-05-01T12:55:08.265Z</time></trkpt><trkpt lat="42.2098224" lon="14.2201161"><ele>385.0</ele><time>2026-05-01T12:55:09.28Z</time></trkpt><trkpt lat="42.2098112" lon="14.2202649"><ele>385.0</ele><time>2026-05-01T12:55:10.277Z</time></trkpt><trkpt lat="42.209809" lon="14.220404"><ele>385.0</ele><time>2026-05-01T12:55:11.293Z</time></trkpt><trkpt lat="42.2098136" lon="14.2205169"><ele>385.0</ele><time>2026-05-01T12:55:12.267Z</time></trkpt><trkpt lat="42.2098255" lon="14.2206144"><ele>385.83333333333337</ele><time>2026-05-01T12:55:13.28Z</time></trkpt><trkpt lat="42.2098656" lon="14.2207146"><ele>386.6666666666667</ele><time>2026-05-01T12:55:15.267Z</time></trkpt><trkpt lat="42.20993" lon="14.2207694"><ele>387.5</ele><time>2026-05-01T12:55:17.276Z</time></trkpt><trkpt lat="42.2100093" lon="14.2207813"><ele>388.33333333333337</ele><time>2026-05-01T12:55:19.275Z</time></trkpt><trkpt lat="42.2101031" lon="14.2207622"><ele>389.1666666666667</ele><time>2026-05-01T12:55:21.284Z</time></trkpt><trkpt lat="42.2101861" lon="14.2207388"><ele>390.0</ele><time>2026-05-01T12:55:23.299Z</time></trkpt><trkpt lat="42.2102774" lon="14.2207312"><ele>390.0</ele><time>2026-05-01T12:55:25.292Z</time></trkpt><trkpt lat="42.2103477" lon="14.220773"><ele>390.0</ele><time>2026-05-01T12:55:27.297Z</time></trkpt><trkpt lat="42.2104105" lon="14.2208878"><ele>390.0</ele><time>2026-05-01T12:55:29.287Z</time></trkpt><trkpt lat="42.2104851" lon="14.2209005"><ele>390.0</ele><time>2026-05-01T12:55:31.292Z</time></trkpt><trkpt lat="42.21055" lon="14.2208893"><ele>390.0</ele><time>2026-05-01T12:55:32.298Z</time></trkpt><trkpt lat="42.2106238" lon="14.2208647"><ele>390.0</ele><time>2026-05-01T12:55:33.284Z</time></trkpt><trkpt lat="42.2107558" lon="14.2208168"><ele>389.0</ele><time>2026-05-01T12:55:35.296Z</time></trkpt><trkpt lat="42.2108346" lon="14.2208026"><ele>388.0</ele><time>2026-05-01T12:55:36.283Z</time></trkpt><trkpt lat="42.2109161" lon="14.2207842"><ele>387.0</ele><time>2026-05-01T12:55:37.299Z</time></trkpt><trkpt lat="42.2109938" lon="14.2207698"><ele>386.0</ele><time>2026-05-01T12:55:38.291Z</time></trkpt><trkpt lat="42.2110759" lon="14.2207559"><ele>385.0</ele><time>2026-05-01T12:55:39.297Z</time></trkpt><trkpt lat="42.2111556" lon="14.2207369"><ele>384.0</ele><time>2026-05-01T12:55:40.287Z</time></trkpt><trkpt lat="42.2112277" lon="14.2207187"><ele>384.0</ele><time>2026-05-01T12:55:41.297Z</time></trkpt><trkpt lat="42.2112942" lon="14.2207045"><ele>384.0</ele><time>2026-05-01T12:55:42.296Z</time></trkpt><trkpt lat="42.2114131" lon="14.2206751"><ele>384.0</ele><time>2026-05-01T12:55:44.316Z</time></trkpt><trkpt lat="42.2114778" lon="14.2206467"><ele>384.0</ele><time>2026-05-01T12:55:45.306Z</time></trkpt><trkpt lat="42.2115942" lon="14.2206044"><ele>384.0</ele><time>2026-05-01T12:55:47.285Z</time></trkpt><trkpt lat="42.2116581" lon="14.2205991"><ele>384.0</ele><time>2026-05-01T12:55:48.27Z</time></trkpt><trkpt lat="42.2117247" lon="14.2205947"><ele>381.6666666666667</ele><time>2026-05-01T12:55:49.317Z</time></trkpt><trkpt lat="42.2117865" lon="14.220575"><ele>379.3333333333333</ele><time>2026-05-01T12:55:50.292Z</time></trkpt><trkpt lat="42.2118738" lon="14.2205329"><ele>377.0</ele><time>2026-05-01T12:55:52.285Z</time></trkpt><trkpt lat="42.2119557" lon="14.2204712"><ele>374.66666666666663</ele><time>2026-05-01T12:55:55.277Z</time></trkpt><trkpt lat="42.2120045" lon="14.2203863"><ele>372.3333333333333</ele><time>2026-05-01T12:55:57.287Z</time></trkpt><trkpt lat="42.2120534" lon="14.2202953"><ele>370.0</ele><time>2026-05-01T12:56:00.272Z</time></trkpt><trkpt lat="42.2120924" lon="14.220223"><ele>370.0</ele><time>2026-05-01T12:56:03.285Z</time></trkpt><trkpt lat="42.2121465" lon="14.2201661"><ele>370.0</ele><time>2026-05-01T12:56:07.28Z</time></trkpt><trkpt lat="42.2122383" lon="14.220184"><ele>370.0</ele><time>2026-05-01T12:56:10.271Z</time></trkpt><trkpt lat="42.2122879" lon="14.2202809"><ele>370.0</ele><time>2026-05-01T12:56:12.289Z</time></trkpt><trkpt lat="42.2122912" lon="14.2203674"><ele>370.0</ele><time>2026-05-01T12:56:13.305Z</time></trkpt><trkpt lat="42.2122928" lon="14.2204693"><ele>370.0</ele><time>2026-05-01T12:56:14.31Z</time></trkpt><trkpt lat="42.2122968" lon="14.2205571"><ele>372.5</ele><time>2026-05-01T12:56:15.308Z</time></trkpt><trkpt lat="42.2123253" lon="14.2206915"><ele>375.0</ele><time>2026-05-01T12:56:17.295Z</time></trkpt><trkpt lat="42.212377" lon="14.2208108"><ele>377.5</ele><time>2026-05-01T12:56:19.296Z</time></trkpt><trkpt lat="42.2124542" lon="14.2207984"><ele>380.0</ele><time>2026-05-01T12:56:21.305Z</time></trkpt><trkpt lat="42.2125128" lon="14.220757"><ele>382.50000000000006</ele><time>2026-05-01T12:56:36.266Z</time></trkpt><trkpt lat="42.2125886" lon="14.2207233"><ele>385.0</ele><time>2026-05-01T12:56:38.268Z</time></trkpt><trkpt lat="42.2126821" lon="14.2206668"><ele>382.4</ele><time>2026-05-01T12:56:40.278Z</time></trkpt><trkpt lat="42.2127768" lon="14.2206133"><ele>379.8</ele><time>2026-05-01T12:56:42.294Z</time></trkpt><trkpt lat="42.2128483" lon="14.2205808"><ele>377.20000000000005</ele><time>2026-05-01T12:56:44.278Z</time></trkpt><trkpt lat="42.2129434" lon="14.2205236"><ele>374.6</ele><time>2026-05-01T12:56:47.274Z</time></trkpt><trkpt lat="42.213023" lon="14.2204459"><ele>372.0</ele><time>2026-05-01T12:56:49.279Z</time></trkpt><trkpt lat="42.2130912" lon="14.2203975"><ele>372.8</ele><time>2026-05-01T12:56:51.294Z</time></trkpt><trkpt lat="42.2131668" lon="14.2203214"><ele>373.6</ele><time>2026-05-01T12:56:53.298Z</time></trkpt><trkpt lat="42.213244" lon="14.2202309"><ele>374.40000000000003</ele><time>2026-05-01T12:56:55.29Z</time></trkpt><trkpt lat="42.213357" lon="14.2201603"><ele>375.20000000000005</ele><time>2026-05-01T12:56:57.29Z</time></trkpt><trkpt lat="42.2134242" lon="14.2201205"><ele>376.0</ele><time>2026-05-01T12:56:58.282Z</time></trkpt><trkpt lat="42.2134748" lon="14.2200661"><ele>376.0</ele><time>2026-05-01T12:56:59.274Z</time></trkpt><trkpt lat="42.2135196" lon="14.2200037"><ele>376.0</ele><time>2026-05-01T12:57:00.275Z</time></trkpt><trkpt lat="42.2135643" lon="14.219941"><ele>376.0</ele><time>2026-05-01T12:57:01.277Z</time></trkpt><trkpt lat="42.2136166" lon="14.2198881"><ele>376.0</ele><time>2026-05-01T12:57:02.283Z</time></trkpt><trkpt lat="42.2136736" lon="14.2198464"><ele>376.0</ele><time>2026-05-01T12:57:03.271Z</time></trkpt><trkpt lat="42.2137275" lon="14.2197927"><ele>376.0</ele><time>2026-05-01T12:57:04.302Z</time></trkpt><trkpt lat="42.2137847" lon="14.2197301"><ele>376.0</ele><time>2026-05-01T12:57:05.271Z</time></trkpt><trkpt lat="42.2138382" lon="14.2196746"><ele>374.20000000000005</ele><time>2026-05-01T12:57:06.267Z</time></trkpt><trkpt lat="42.213918" lon="14.2195907"><ele>372.40000000000003</ele><time>2026-05-01T12:57:08.268Z</time></trkpt><trkpt lat="42.2140025" lon="14.2195181"><ele>370.6</ele><time>2026-05-01T12:57:10.288Z</time></trkpt><trkpt lat="42.2140706" lon="14.2194211"><ele>368.8</ele><time>2026-05-01T12:57:12.283Z</time></trkpt><trkpt lat="42.2141364" lon="14.219304"><ele>367.0</ele><time>2026-05-01T12:57:14.272Z</time></trkpt><trkpt lat="42.2142038" lon="14.2191623"><ele>367.0</ele><time>2026-05-01T12:57:16.272Z</time></trkpt><trkpt lat="42.2142426" lon="14.2190828"><ele>367.0</ele><time>2026-05-01T12:57:17.283Z</time></trkpt><trkpt lat="42.2143023" lon="14.2189486"><ele>367.0</ele><time>2026-05-01T12:57:19.28Z</time></trkpt><trkpt lat="42.2143847" lon="14.2188384"><ele>367.0</ele><time>2026-05-01T12:57:21.292Z</time></trkpt><trkpt lat="42.2144422" lon="14.2187859"><ele>367.0</ele><time>2026-05-01T12:57:22.291Z</time></trkpt><trkpt lat="42.2145046" lon="14.2187374"><ele>367.0</ele><time>2026-05-01T12:57:23.298Z</time></trkpt><trkpt lat="42.2145702" lon="14.2186814"><ele>366.1428571428571</ele><time>2026-05-01T12:57:24.295Z</time></trkpt><trkpt lat="42.214631" lon="14.2186211"><ele>365.28571428571433</ele><time>2026-05-01T12:57:25.298Z</time></trkpt><trkpt lat="42.214682" lon="14.2185662"><ele>364.42857142857144</ele><time>2026-05-01T12:57:26.299Z</time></trkpt><trkpt lat="42.214733" lon="14.2185062"><ele>363.57142857142856</ele><time>2026-05-01T12:57:27.293Z</time></trkpt><trkpt lat="42.2147929" lon="14.2184394"><ele>362.71428571428567</ele><time>2026-05-01T12:57:28.282Z</time></trkpt><trkpt lat="42.2148496" lon="14.2183616"><ele>361.8571428571429</ele><time>2026-05-01T12:57:29.28Z</time></trkpt><trkpt lat="42.2149103" lon="14.2182887"><ele>361.0</ele><time>2026-05-01T12:57:30.3Z</time></trkpt><trkpt lat="42.2149725" lon="14.2182094"><ele>358.8333333333333</ele><time>2026-05-01T12:57:31.287Z</time></trkpt><trkpt lat="42.2150377" lon="14.2181303"><ele>356.66666666666663</ele><time>2026-05-01T12:57:32.287Z</time></trkpt><trkpt lat="42.2151019" lon="14.2180571"><ele>354.5</ele><time>2026-05-01T12:57:33.312Z</time></trkpt><trkpt lat="42.2151655" lon="14.2180022"><ele>352.3333333333333</ele><time>2026-05-01T12:57:34.282Z</time></trkpt><trkpt lat="42.2152243" lon="14.2179524"><ele>350.1666666666667</ele><time>2026-05-01T12:57:35.303Z</time></trkpt><trkpt lat="42.2152871" lon="14.2179085"><ele>348.0</ele><time>2026-05-01T12:57:36.302Z</time></trkpt><trkpt lat="42.2153588" lon="14.2178574"><ele>348.0</ele><time>2026-05-01T12:57:37.29Z</time></trkpt><trkpt lat="42.215434" lon="14.2178025"><ele>348.0</ele><time>2026-05-01T12:57:38.305Z</time></trkpt><trkpt lat="42.2155084" lon="14.217747"><ele>348.0</ele><time>2026-05-01T12:57:39.295Z</time></trkpt><trkpt lat="42.2155802" lon="14.2176846"><ele>348.0</ele><time>2026-05-01T12:57:40.284Z</time></trkpt><trkpt lat="42.2156615" lon="14.2176197"><ele>348.0</ele><time>2026-05-01T12:57:41.295Z</time></trkpt><trkpt lat="42.2157428" lon="14.2175477"><ele>348.0</ele><time>2026-05-01T12:57:42.292Z</time></trkpt><trkpt lat="42.2158205" lon="14.2174743"><ele>348.57142857142856</ele><time>2026-05-01T12:57:43.298Z</time></trkpt><trkpt lat="42.2158879" lon="14.2174006"><ele>349.14285714285717</ele><time>2026-05-01T12:57:44.284Z</time></trkpt><trkpt lat="42.21595" lon="14.2173412"><ele>349.7142857142857</ele><time>2026-05-01T12:57:45.295Z</time></trkpt><trkpt lat="42.2159985" lon="14.2172796"><ele>350.2857142857143</ele><time>2026-05-01T12:57:46.278Z</time></trkpt><trkpt lat="42.2160535" lon="14.2172251"><ele>350.85714285714283</ele><time>2026-05-01T12:57:47.295Z</time></trkpt><trkpt lat="42.2161077" lon="14.2171799"><ele>351.42857142857144</ele><time>2026-05-01T12:57:48.28Z</time></trkpt><trkpt lat="42.2161635" lon="14.2171253"><ele>352.0</ele><time>2026-05-01T12:57:49.29Z</time></trkpt><trkpt lat="42.2162143" lon="14.2170731"><ele>350.0</ele><time>2026-05-01T12:57:50.292Z</time></trkpt><trkpt lat="42.2162651" lon="14.2170221"><ele>348.0</ele><time>2026-05-01T12:57:51.289Z</time></trkpt><trkpt lat="42.2163556" lon="14.2169386"><ele>346.0</ele><time>2026-05-01T12:57:53.295Z</time></trkpt><trkpt lat="42.2164604" lon="14.2168637"><ele>344.0</ele><time>2026-05-01T12:57:55.301Z</time></trkpt><trkpt lat="42.2165599" lon="14.2168053"><ele>342.0</ele><time>2026-05-01T12:57:57.285Z</time></trkpt><trkpt lat="42.2166502" lon="14.2167765"><ele>342.0</ele><time>2026-05-01T12:57:59.297Z</time></trkpt><trkpt lat="42.2167541" lon="14.2167118"><ele>342.0</ele><time>2026-05-01T12:58:01.291Z</time></trkpt><trkpt lat="42.2168189" lon="14.2166668"><ele>342.0</ele><time>2026-05-01T12:58:02.287Z</time></trkpt><trkpt lat="42.2168807" lon="14.2166209"><ele>342.0</ele><time>2026-05-01T12:58:03.288Z</time></trkpt><trkpt lat="42.2169417" lon="14.2165636"><ele>342.0</ele><time>2026-05-01T12:58:04.267Z</time></trkpt><trkpt lat="42.217002" lon="14.2165145"><ele>342.0</ele><time>2026-05-01T12:58:05.294Z</time></trkpt><trkpt lat="42.2170654" lon="14.216472"><ele>341.3333333333333</ele><time>2026-05-01T12:58:06.29Z</time></trkpt><trkpt lat="42.2171327" lon="14.2164269"><ele>340.6666666666667</ele><time>2026-05-01T12:58:07.297Z</time></trkpt><trkpt lat="42.2172104" lon="14.216387"><ele>340.0</ele><time>2026-05-01T12:58:08.296Z</time></trkpt><trkpt lat="42.2172752" lon="14.2163513"><ele>339.33333333333337</ele><time>2026-05-01T12:58:09.298Z</time></trkpt><trkpt lat="42.2173409" lon="14.2163171"><ele>338.6666666666667</ele><time>2026-05-01T12:58:10.287Z</time></trkpt><trkpt lat="42.2174053" lon="14.2162803"><ele>338.0</ele><time>2026-05-01T12:58:11.289Z</time></trkpt><trkpt lat="42.2175038" lon="14.2162438"><ele>337.79999999999995</ele><time>2026-05-01T12:58:13.294Z</time></trkpt><trkpt lat="42.2175844" lon="14.2163058"><ele>337.6</ele><time>2026-05-01T12:58:15.293Z</time></trkpt><trkpt lat="42.2176288" lon="14.2163715"><ele>337.4</ele><time>2026-05-01T12:58:16.287Z</time></trkpt><trkpt lat="42.2176779" lon="14.2164866"><ele>337.20000000000005</ele><time>2026-05-01T12:58:18.301Z</time></trkpt><trkpt lat="42.2177385" lon="14.2165919"><ele>337.0</ele><time>2026-05-01T12:58:20.271Z</time></trkpt><trkpt lat="42.2177118" lon="14.2167219"><ele>338.16666666666663</ele><time>2026-05-01T12:58:23.283Z</time></trkpt><trkpt lat="42.2176217" lon="14.2167883"><ele>339.3333333333333</ele><time>2026-05-01T12:58:25.286Z</time></trkpt><trkpt lat="42.2175189" lon="14.2168403"><ele>340.5</ele><time>2026-05-01T12:58:27.281Z</time></trkpt><trkpt lat="42.2175573" lon="14.2169366"><ele>341.6666666666667</ele><time>2026-05-01T12:58:31.283Z</time></trkpt><trkpt lat="42.2176262" lon="14.2169477"><ele>342.83333333333337</ele><time>2026-05-01T12:58:33.284Z</time></trkpt><trkpt lat="42.2176963" lon="14.2169468"><ele>344.0</ele><time>2026-05-01T12:58:36.289Z</time></trkpt><trkpt lat="42.2177575" lon="14.2169169"><ele>344.0</ele><time>2026-05-01T12:58:43.291Z</time></trkpt><trkpt lat="42.2178598" lon="14.2168965"><ele>344.0</ele><time>2026-05-01T12:58:45.295Z</time></trkpt><trkpt lat="42.2179787" lon="14.2169201"><ele>344.0</ele><time>2026-05-01T12:58:47.286Z</time></trkpt><trkpt lat="42.2180869" lon="14.2170008"><ele>344.0</ele><time>2026-05-01T12:58:49.305Z</time></trkpt><trkpt lat="42.2181419" lon="14.2170596"><ele>344.0</ele><time>2026-05-01T12:58:50.298Z</time></trkpt><trkpt lat="42.2181926" lon="14.2171174"><ele>344.5</ele><time>2026-05-01T12:58:51.286Z</time></trkpt><trkpt lat="42.2182854" lon="14.2172007"><ele>345.0</ele><time>2026-05-01T12:58:53.293Z</time></trkpt><trkpt lat="42.2183403" lon="14.2172561"><ele>345.5</ele><time>2026-05-01T12:58:55.29Z</time></trkpt><trkpt lat="42.2184059" lon="14.2173033"><ele>346.0</ele><time>2026-05-01T12:58:57.297Z</time></trkpt><trkpt lat="42.2185146" lon="14.2173777"><ele>346.5</ele><time>2026-05-01T12:58:59.299Z</time></trkpt><trkpt lat="42.2185794" lon="14.2174178"><ele>347.0</ele><time>2026-05-01T12:59:00.306Z</time></trkpt><trkpt lat="42.2186465" lon="14.217466"><ele>350.20000000000005</ele><time>2026-05-01T12:59:01.295Z</time></trkpt><trkpt lat="42.2187337" lon="14.2175535"><ele>353.4</ele><time>2026-05-01T12:59:03.291Z</time></trkpt><trkpt lat="42.2187997" lon="14.2175992"><ele>356.6</ele><time>2026-05-01T12:59:06.284Z</time></trkpt><trkpt lat="42.2187694" lon="14.2175071"><ele>359.79999999999995</ele><time>2026-05-01T12:59:14.286Z</time></trkpt><trkpt lat="42.2186611" lon="14.2174431"><ele>363.0</ele><time>2026-05-01T12:59:16.281Z</time></trkpt><trkpt lat="42.2185525" lon="14.217366"><ele>363.0</ele><time>2026-05-01T12:59:18.291Z</time></trkpt><trkpt lat="42.2184976" lon="14.2173226"><ele>363.0</ele><time>2026-05-01T12:59:19.291Z</time></trkpt><trkpt lat="42.2184195" lon="14.2172309"><ele>363.0</ele><time>2026-05-01T12:59:21.306Z</time></trkpt><trkpt lat="42.2184174" lon="14.2170522"><ele>363.0</ele><time>2026-05-01T12:59:23.286Z</time></trkpt><trkpt lat="42.2184686" lon="14.2169508"><ele>363.0</ele><time>2026-05-01T12:59:24.285Z</time></trkpt><trkpt lat="42.2185396" lon="14.2168574"><ele>359.0</ele><time>2026-05-01T12:59:25.288Z</time></trkpt><trkpt lat="42.218632" lon="14.2167679"><ele>355.0</ele><time>2026-05-01T12:59:26.281Z</time></trkpt><trkpt lat="42.2187258" lon="14.2166751"><ele>351.0</ele><time>2026-05-01T12:59:27.292Z</time></trkpt><trkpt lat="42.2188216" lon="14.2165826"><ele>347.0</ele><time>2026-05-01T12:59:28.291Z</time></trkpt><trkpt lat="42.2189214" lon="14.2164893"><ele>345.5</ele><time>2026-05-01T12:59:29.295Z</time></trkpt><trkpt lat="42.2190119" lon="14.2163817"><ele>344.0</ele><time>2026-05-01T12:59:30.285Z</time></trkpt><trkpt lat="42.2190958" lon="14.2162745"><ele>342.5</ele><time>2026-05-01T12:59:31.294Z</time></trkpt><trkpt lat="42.2191795" lon="14.2161634"><ele>341.0</ele><time>2026-05-01T12:59:32.287Z</time></trkpt><trkpt lat="42.2192512" lon="14.2160511"><ele>341.0</ele><time>2026-05-01T12:59:33.288Z</time></trkpt><trkpt lat="42.219316" lon="14.2159281"><ele>341.0</ele><time>2026-05-01T12:59:34.277Z</time></trkpt><trkpt lat="42.2193769" lon="14.2157894"><ele>341.0</ele><time>2026-05-01T12:59:35.286Z</time></trkpt><trkpt lat="42.2194339" lon="14.2156339"><ele>341.0</ele><time>2026-05-01T12:59:36.295Z</time></trkpt><trkpt lat="42.2194931" lon="14.2154775"><ele>338.5</ele><time>2026-05-01T12:59:37.284Z</time></trkpt><trkpt lat="42.219555" lon="14.2153094"><ele>336.0</ele><time>2026-05-01T12:59:38.277Z</time></trkpt><trkpt lat="42.2196218" lon="14.2151482"><ele>333.5</ele><time>2026-05-01T12:59:39.302Z</time></trkpt><trkpt lat="42.2196904" lon="14.2149926"><ele>331.0</ele><time>2026-05-01T12:59:40.315Z</time></trkpt><trkpt lat="42.2197642" lon="14.2148496"><ele>330.0</ele><time>2026-05-01T12:59:41.285Z</time></trkpt><trkpt lat="42.2198368" lon="14.2147016"><ele>329.0</ele><time>2026-05-01T12:59:42.296Z</time></trkpt><trkpt lat="42.2199064" lon="14.2145459"><ele>328.0</ele><time>2026-05-01T12:59:43.292Z</time></trkpt><trkpt lat="42.2199663" lon="14.2143962"><ele>327.0</ele><time>2026-05-01T12:59:44.291Z</time></trkpt><trkpt lat="42.2200124" lon="14.214251"><ele>327.0</ele><time>2026-05-01T12:59:45.299Z</time></trkpt><trkpt lat="42.220049" lon="14.2141285"><ele>327.0</ele><time>2026-05-01T12:59:46.31Z</time></trkpt><trkpt lat="42.2200819" lon="14.2140195"><ele>327.0</ele><time>2026-05-01T12:59:47.291Z</time></trkpt><trkpt lat="42.2201152" lon="14.2139238"><ele>327.0</ele><time>2026-05-01T12:59:48.29Z</time></trkpt><trkpt lat="42.2201393" lon="14.213839"><ele>327.0</ele><time>2026-05-01T12:59:49.294Z</time></trkpt><trkpt lat="42.2201101" lon="14.2137151"><ele>327.0</ele><time>2026-05-01T12:59:51.279Z</time></trkpt><trkpt lat="42.2200473" lon="14.2136823"><ele>326.0</ele><time>2026-05-01T12:59:52.279Z</time></trkpt><trkpt lat="42.2199823" lon="14.21365"><ele>325.0</ele><time>2026-05-01T12:59:53.288Z</time></trkpt><trkpt lat="42.2199258" lon="14.2136123"><ele>324.0</ele><time>2026-05-01T12:59:54.271Z</time></trkpt><trkpt lat="42.2198811" lon="14.2134815"><ele>323.0</ele><time>2026-05-01T12:59:56.287Z</time></trkpt><trkpt lat="42.2199037" lon="14.2133867"><ele>322.0</ele><time>2026-05-01T12:59:57.29Z</time></trkpt><trkpt lat="42.2199429" lon="14.21329"><ele>321.0</ele><time>2026-05-01T12:59:58.282Z</time></trkpt><trkpt lat="42.2200047" lon="14.2131889"><ele>321.25</ele><time>2026-05-01T12:59:59.274Z</time></trkpt><trkpt lat="42.2200735" lon="14.2130736"><ele>321.5</ele><time>2026-05-01T13:00:00.277Z</time></trkpt><trkpt lat="42.2201446" lon="14.2129641"><ele>321.75</ele><time>2026-05-01T13:00:01.3Z</time></trkpt><trkpt lat="42.2202351" lon="14.2128589"><ele>322.0</ele><time>2026-05-01T13:00:02.286Z</time></trkpt><trkpt lat="42.2203314" lon="14.2127534"><ele>322.0</ele><time>2026-05-01T13:00:03.284Z</time></trkpt><trkpt lat="42.2204325" lon="14.2126462"><ele>322.0</ele><time>2026-05-01T13:00:04.268Z</time></trkpt><trkpt lat="42.2205344" lon="14.2125289"><ele>322.0</ele><time>2026-05-01T13:00:05.281Z</time></trkpt><trkpt lat="42.220628" lon="14.2124078"><ele>322.0</ele><time>2026-05-01T13:00:06.3Z</time></trkpt><trkpt lat="42.2207246" lon="14.2122857"><ele>321.5</ele><time>2026-05-01T13:00:07.304Z</time></trkpt><trkpt lat="42.2208212" lon="14.2121522"><ele>321.0</ele><time>2026-05-01T13:00:08.275Z</time></trkpt><trkpt lat="42.220917" lon="14.2120294"><ele>320.5</ele><time>2026-05-01T13:00:09.281Z</time></trkpt><trkpt lat="42.2210177" lon="14.211919"><ele>320.0</ele><time>2026-05-01T13:00:10.289Z</time></trkpt><trkpt lat="42.2211179" lon="14.2118272"><ele>320.0</ele><time>2026-05-01T13:00:11.273Z</time></trkpt><trkpt lat="42.2212269" lon="14.2117353"><ele>320.0</ele><time>2026-05-01T13:00:12.297Z</time></trkpt><trkpt lat="42.221348" lon="14.2116524"><ele>320.0</ele><time>2026-05-01T13:00:13.293Z</time></trkpt><trkpt lat="42.2214743" lon="14.2115693"><ele>320.0</ele><time>2026-05-01T13:00:14.288Z</time></trkpt><trkpt lat="42.2216071" lon="14.211495"><ele>318.5</ele><time>2026-05-01T13:00:15.29Z</time></trkpt><trkpt lat="42.2217311" lon="14.2114278"><ele>317.0</ele><time>2026-05-01T13:00:16.283Z</time></trkpt><trkpt lat="42.2218387" lon="14.2113586"><ele>315.5</ele><time>2026-05-01T13:00:17.274Z</time></trkpt><trkpt lat="42.2219436" lon="14.2112977"><ele>314.0</ele><time>2026-05-01T13:00:18.287Z</time></trkpt><trkpt lat="42.2220519" lon="14.2112442"><ele>314.0</ele><time>2026-05-01T13:00:19.289Z</time></trkpt><trkpt lat="42.2221725" lon="14.2112033"><ele>314.0</ele><time>2026-05-01T13:00:20.293Z</time></trkpt><trkpt lat="42.2222948" lon="14.2111641"><ele>314.0</ele><time>2026-05-01T13:00:21.313Z</time></trkpt><trkpt lat="42.2224193" lon="14.2111102"><ele>314.0</ele><time>2026-05-01T13:00:22.289Z</time></trkpt><trkpt lat="42.2225392" lon="14.2110493"><ele>313.0</ele><time>2026-05-01T13:00:23.287Z</time></trkpt><trkpt lat="42.2226577" lon="14.2109786"><ele>312.0</ele><time>2026-05-01T13:00:24.292Z</time></trkpt><trkpt lat="42.2227733" lon="14.2108941"><ele>311.0</ele><time>2026-05-01T13:00:25.288Z</time></trkpt><trkpt lat="42.2228787" lon="14.2108065"><ele>310.0</ele><time>2026-05-01T13:00:26.289Z</time></trkpt><trkpt lat="42.2229827" lon="14.2107266"><ele>310.25</ele><time>2026-05-01T13:00:27.287Z</time></trkpt><trkpt lat="42.2230831" lon="14.2106309"><ele>310.5</ele><time>2026-05-01T13:00:28.283Z</time></trkpt><trkpt lat="42.2231901" lon="14.210527"><ele>310.75</ele><time>2026-05-01T13:00:29.288Z</time></trkpt><trkpt lat="42.2232897" lon="14.2104185"><ele>311.0</ele><time>2026-05-01T13:00:30.287Z</time></trkpt><trkpt lat="42.223389" lon="14.2102996"><ele>310.5</ele><time>2026-05-01T13:00:31.29Z</time></trkpt><trkpt lat="42.223483" lon="14.2101803"><ele>310.0</ele><time>2026-05-01T13:00:32.288Z</time></trkpt><trkpt lat="42.2235708" lon="14.2100756"><ele>309.5</ele><time>2026-05-01T13:00:33.285Z</time></trkpt><trkpt lat="42.2236581" lon="14.2099767"><ele>309.0</ele><time>2026-05-01T13:00:34.268Z</time></trkpt><trkpt lat="42.2237404" lon="14.2099053"><ele>309.0</ele><time>2026-05-01T13:00:35.277Z</time></trkpt><trkpt lat="42.2238121" lon="14.209856"><ele>309.0</ele><time>2026-05-01T13:00:36.271Z</time></trkpt><trkpt lat="42.223895" lon="14.2098308"><ele>309.0</ele><time>2026-05-01T13:00:37.271Z</time></trkpt><trkpt lat="42.2239995" lon="14.2098546"><ele>309.0</ele><time>2026-05-01T13:00:38.284Z</time></trkpt><trkpt lat="42.2241023" lon="14.2098915"><ele>309.0</ele><time>2026-05-01T13:00:39.279Z</time></trkpt><trkpt lat="42.2242014" lon="14.2099221"><ele>309.0</ele><time>2026-05-01T13:00:40.275Z</time></trkpt><trkpt lat="42.224296" lon="14.2098867"><ele>309.0</ele><time>2026-05-01T13:00:41.295Z</time></trkpt><trkpt lat="42.2243681" lon="14.2098466"><ele>309.0</ele><time>2026-05-01T13:00:42.303Z</time></trkpt><trkpt lat="42.2244371" lon="14.2097812"><ele>309.0</ele><time>2026-05-01T13:00:43.281Z</time></trkpt><trkpt lat="42.2245077" lon="14.2096872"><ele>309.0</ele><time>2026-05-01T13:00:44.297Z</time></trkpt><trkpt lat="42.224581" lon="14.2095849"><ele>309.4</ele><time>2026-05-01T13:00:45.286Z</time></trkpt><trkpt lat="42.2246639" lon="14.2094703"><ele>309.79999999999995</ele><time>2026-05-01T13:00:46.259Z</time></trkpt><trkpt lat="42.224749" lon="14.2093603"><ele>310.20000000000005</ele><time>2026-05-01T13:00:47.273Z</time></trkpt><trkpt lat="42.2248363" lon="14.2092821"><ele>310.6</ele><time>2026-05-01T13:00:48.285Z</time></trkpt><trkpt lat="42.2249221" lon="14.2092145"><ele>311.0</ele><time>2026-05-01T13:00:49.298Z</time></trkpt><trkpt lat="42.2250236" lon="14.2091581"><ele>310.0</ele><time>2026-05-01T13:00:50.287Z</time></trkpt><trkpt lat="42.2251321" lon="14.2091153"><ele>309.0</ele><time>2026-05-01T13:00:51.294Z</time></trkpt><trkpt lat="42.2252489" lon="14.2090767"><ele>308.0</ele><time>2026-05-01T13:00:52.282Z</time></trkpt><trkpt lat="42.2253714" lon="14.2090195"><ele>307.0</ele><time>2026-05-01T13:00:53.31Z</time></trkpt><trkpt lat="42.2254917" lon="14.2089409"><ele>306.5</ele><time>2026-05-01T13:00:54.29Z</time></trkpt><trkpt lat="42.225617" lon="14.2088726"><ele>306.0</ele><time>2026-05-01T13:00:55.289Z</time></trkpt><trkpt lat="42.2257468" lon="14.2088186"><ele>305.5</ele><time>2026-05-01T13:00:56.293Z</time></trkpt><trkpt lat="42.2258635" lon="14.2087793"><ele>305.0</ele><time>2026-05-01T13:00:57.294Z</time></trkpt><trkpt lat="42.2259728" lon="14.2087416"><ele>304.6</ele><time>2026-05-01T13:00:58.293Z</time></trkpt><trkpt lat="42.2260701" lon="14.2087164"><ele>304.2</ele><time>2026-05-01T13:00:59.296Z</time></trkpt><trkpt lat="42.2261517" lon="14.2086829"><ele>303.8</ele><time>2026-05-01T13:01:00.29Z</time></trkpt><trkpt lat="42.2262169" lon="14.2086129"><ele>303.4</ele><time>2026-05-01T13:01:01.309Z</time></trkpt><trkpt lat="42.2262637" lon="14.2085128"><ele>303.0</ele><time>2026-05-01T13:01:02.289Z</time></trkpt><trkpt lat="42.2263013" lon="14.2083845"><ele>303.0</ele><time>2026-05-01T13:01:03.29Z</time></trkpt><trkpt lat="42.2263422" lon="14.2082492"><ele>303.0</ele><time>2026-05-01T13:01:04.279Z</time></trkpt><trkpt lat="42.2264007" lon="14.2081112"><ele>303.0</ele><time>2026-05-01T13:01:05.307Z</time></trkpt><trkpt lat="42.2264565" lon="14.2079651"><ele>303.0</ele><time>2026-05-01T13:01:06.284Z</time></trkpt><trkpt lat="42.2265044" lon="14.2078193"><ele>302.2</ele><time>2026-05-01T13:01:07.296Z</time></trkpt><trkpt lat="42.2265545" lon="14.2076858"><ele>301.4</ele><time>2026-05-01T13:01:08.292Z</time></trkpt><trkpt lat="42.2266167" lon="14.2075794"><ele>300.59999999999997</ele><time>2026-05-01T13:01:09.293Z</time></trkpt><trkpt lat="42.226698" lon="14.2074761"><ele>299.8</ele><time>2026-05-01T13:01:10.279Z</time></trkpt><trkpt lat="42.2267949" lon="14.2073863"><ele>299.0</ele><time>2026-05-01T13:01:11.306Z</time></trkpt><trkpt lat="42.2269056" lon="14.2073077"><ele>298.75</ele><time>2026-05-01T13:01:12.279Z</time></trkpt><trkpt lat="42.2270433" lon="14.2072319"><ele>298.5</ele><time>2026-05-01T13:01:13.276Z</time></trkpt><trkpt lat="42.2271831" lon="14.2071585"><ele>298.25</ele><time>2026-05-01T13:01:14.279Z</time></trkpt><trkpt lat="42.2273043" lon="14.2070761"><ele>298.0</ele><time>2026-05-01T13:01:15.284Z</time></trkpt><trkpt lat="42.2274093" lon="14.2070071"><ele>297.2</ele><time>2026-05-01T13:01:16.279Z</time></trkpt><trkpt lat="42.2274961" lon="14.2069432"><ele>296.4</ele><time>2026-05-01T13:01:17.295Z</time></trkpt><trkpt lat="42.2275727" lon="14.2068661"><ele>295.59999999999997</ele><time>2026-05-01T13:01:18.282Z</time></trkpt><trkpt lat="42.2276357" lon="14.2067546"><ele>294.8</ele><time>2026-05-01T13:01:19.288Z</time></trkpt><trkpt lat="42.2276861" lon="14.2066142"><ele>294.0</ele><time>2026-05-01T13:01:20.292Z</time></trkpt><trkpt lat="42.2277202" lon="14.2064573"><ele>293.4</ele><time>2026-05-01T13:01:21.285Z</time></trkpt><trkpt lat="42.2277584" lon="14.2063015"><ele>292.79999999999995</ele><time>2026-05-01T13:01:22.311Z</time></trkpt><trkpt lat="42.2278065" lon="14.2061553"><ele>292.20000000000005</ele><time>2026-05-01T13:01:23.295Z</time></trkpt><trkpt lat="42.227839" lon="14.2060331"><ele>291.6</ele><time>2026-05-01T13:01:24.296Z</time></trkpt><trkpt lat="42.2278524" lon="14.2059186"><ele>291.0</ele><time>2026-05-01T13:01:25.296Z</time></trkpt><trkpt lat="42.227838" lon="14.2058088"><ele>291.0</ele><time>2026-05-01T13:01:26.284Z</time></trkpt><trkpt lat="42.227786" lon="14.2056913"><ele>291.0</ele><time>2026-05-01T13:01:27.298Z</time></trkpt><trkpt lat="42.2277362" lon="14.205574"><ele>291.0</ele><time>2026-05-01T13:01:28.279Z</time></trkpt><trkpt lat="42.2277174" lon="14.2054791"><ele>291.0</ele><time>2026-05-01T13:01:29.293Z</time></trkpt><trkpt lat="42.2277086" lon="14.2053691"><ele>291.0</ele><time>2026-05-01T13:01:30.287Z</time></trkpt><trkpt lat="42.2277235" lon="14.2052588"><ele>291.0</ele><time>2026-05-01T13:01:31.298Z</time></trkpt><trkpt lat="42.2277426" lon="14.2051555"><ele>291.0</ele><time>2026-05-01T13:01:32.287Z</time></trkpt><trkpt lat="42.2277851" lon="14.205057"><ele>291.0</ele><time>2026-05-01T13:01:33.314Z</time></trkpt><trkpt lat="42.2278521" lon="14.2049866"><ele>291.0</ele><time>2026-05-01T13:01:34.293Z</time></trkpt><trkpt lat="42.2279278" lon="14.2049294"><ele>291.0</ele><time>2026-05-01T13:01:35.293Z</time></trkpt><trkpt lat="42.2280237" lon="14.204878"><ele>291.0</ele><time>2026-05-01T13:01:36.289Z</time></trkpt><trkpt lat="42.2281324" lon="14.204816"><ele>290.75</ele><time>2026-05-01T13:01:37.288Z</time></trkpt><trkpt lat="42.2282264" lon="14.2047297"><ele>290.5</ele><time>2026-05-01T13:01:38.29Z</time></trkpt><trkpt lat="42.2283033" lon="14.2046264"><ele>290.25</ele><time>2026-05-01T13:01:39.292Z</time></trkpt><trkpt lat="42.2283723" lon="14.204495"><ele>290.0</ele><time>2026-05-01T13:01:40.299Z</time></trkpt><trkpt lat="42.2284205" lon="14.2043492"><ele>290.0</ele><time>2026-05-01T13:01:41.287Z</time></trkpt><trkpt lat="42.2284678" lon="14.2042199"><ele>290.0</ele><time>2026-05-01T13:01:42.295Z</time></trkpt><trkpt lat="42.2285261" lon="14.204116"><ele>290.0</ele><time>2026-05-01T13:01:43.291Z</time></trkpt><trkpt lat="42.2286121" lon="14.2040384"><ele>290.0</ele><time>2026-05-01T13:01:44.283Z</time></trkpt><trkpt lat="42.22871" lon="14.2039792"><ele>290.0</ele><time>2026-05-01T13:01:45.294Z</time></trkpt><trkpt lat="42.2288005" lon="14.2039269"><ele>289.6</ele><time>2026-05-01T13:01:46.288Z</time></trkpt><trkpt lat="42.2288783" lon="14.2038794"><ele>289.2</ele><time>2026-05-01T13:01:47.28Z</time></trkpt><trkpt lat="42.2289594" lon="14.2038367"><ele>288.8</ele><time>2026-05-01T13:01:48.286Z</time></trkpt><trkpt lat="42.2290611" lon="14.2037825"><ele>288.4</ele><time>2026-05-01T13:01:49.299Z</time></trkpt><trkpt lat="42.2291751" lon="14.203703"><ele>288.0</ele><time>2026-05-01T13:01:50.296Z</time></trkpt><trkpt lat="42.2292841" lon="14.203618"><ele>288.0</ele><time>2026-05-01T13:01:51.296Z</time></trkpt><trkpt lat="42.2293848" lon="14.2035335"><ele>288.0</ele><time>2026-05-01T13:01:52.301Z</time></trkpt><trkpt lat="42.2294686" lon="14.2034496"><ele>288.0</ele><time>2026-05-01T13:01:53.302Z</time></trkpt><trkpt lat="42.2295295" lon="14.2033452"><ele>288.0</ele><time>2026-05-01T13:01:54.286Z</time></trkpt><trkpt lat="42.2295681" lon="14.2032265"><ele>288.0</ele><time>2026-05-01T13:01:55.292Z</time></trkpt><trkpt lat="42.2295843" lon="14.2030851"><ele>287.0</ele><time>2026-05-01T13:01:56.284Z</time></trkpt><trkpt lat="42.2295914" lon="14.2029192"><ele>286.0</ele><time>2026-05-01T13:01:57.305Z</time></trkpt><trkpt lat="42.2295984" lon="14.2027535"><ele>285.0</ele><time>2026-05-01T13:01:58.289Z</time></trkpt><trkpt lat="42.2296237" lon="14.2025963"><ele>284.0</ele><time>2026-05-01T13:01:59.299Z</time></trkpt><trkpt lat="42.2296689" lon="14.2024507"><ele>283.75</ele><time>2026-05-01T13:02:00.294Z</time></trkpt><trkpt lat="42.2297279" lon="14.2023031"><ele>283.5</ele><time>2026-05-01T13:02:01.323Z</time></trkpt><trkpt lat="42.229805" lon="14.2021616"><ele>283.25</ele><time>2026-05-01T13:02:02.285Z</time></trkpt><trkpt lat="42.2298892" lon="14.2020319"><ele>283.0</ele><time>2026-05-01T13:02:03.298Z</time></trkpt><trkpt lat="42.2299774" lon="14.2019303"><ele>283.0</ele><time>2026-05-01T13:02:04.288Z</time></trkpt><trkpt lat="42.2300727" lon="14.2018402"><ele>283.0</ele><time>2026-05-01T13:02:05.303Z</time></trkpt><trkpt lat="42.2301783" lon="14.2017596"><ele>283.0</ele><time>2026-05-01T13:02:06.285Z</time></trkpt><trkpt lat="42.2302858" lon="14.2016811"><ele>283.0</ele><time>2026-05-01T13:02:07.293Z</time></trkpt><trkpt lat="42.2303975" lon="14.2016074"><ele>283.0</ele><time>2026-05-01T13:02:08.288Z</time></trkpt><trkpt lat="42.2305072" lon="14.2015223"><ele>283.0</ele><time>2026-05-01T13:02:09.302Z</time></trkpt><trkpt lat="42.2306121" lon="14.2014067"><ele>283.0</ele><time>2026-05-01T13:02:10.292Z</time></trkpt><trkpt lat="42.2307028" lon="14.2012761"><ele>283.0</ele><time>2026-05-01T13:02:11.291Z</time></trkpt><trkpt lat="42.2307864" lon="14.2011432"><ele>282.75</ele><time>2026-05-01T13:02:12.276Z</time></trkpt><trkpt lat="42.2308548" lon="14.2009949"><ele>282.5</ele><time>2026-05-01T13:02:13.298Z</time></trkpt><trkpt lat="42.2309207" lon="14.2008413"><ele>282.25</ele><time>2026-05-01T13:02:14.286Z</time></trkpt><trkpt lat="42.2309976" lon="14.2006905"><ele>282.0</ele><time>2026-05-01T13:02:15.305Z</time></trkpt><trkpt lat="42.2310956" lon="14.2005708"><ele>281.25</ele><time>2026-05-01T13:02:16.285Z</time></trkpt><trkpt lat="42.2312091" lon="14.20045"><ele>280.5</ele><time>2026-05-01T13:02:17.313Z</time></trkpt><trkpt lat="42.2313212" lon="14.2003182"><ele>279.75</ele><time>2026-05-01T13:02:18.288Z</time></trkpt><trkpt lat="42.2314274" lon="14.2001674"><ele>279.0</ele><time>2026-05-01T13:02:19.303Z</time></trkpt><trkpt lat="42.2315363" lon="14.2000237"><ele>279.0</ele><time>2026-05-01T13:02:20.311Z</time></trkpt><trkpt lat="42.2316378" lon="14.1998851"><ele>279.0</ele><time>2026-05-01T13:02:21.288Z</time></trkpt><trkpt lat="42.2317372" lon="14.1997613"><ele>279.0</ele><time>2026-05-01T13:02:22.279Z</time></trkpt><trkpt lat="42.2318232" lon="14.1996719"><ele>279.0</ele><time>2026-05-01T13:02:23.288Z</time></trkpt><trkpt lat="42.2318835" lon="14.1996054"><ele>278.4</ele><time>2026-05-01T13:02:24.287Z</time></trkpt><trkpt lat="42.2319317" lon="14.1995356"><ele>277.79999999999995</ele><time>2026-05-01T13:02:25.295Z</time></trkpt><trkpt lat="42.2319777" lon="14.1994506"><ele>277.20000000000005</ele><time>2026-05-01T13:02:26.303Z</time></trkpt><trkpt lat="42.2320268" lon="14.1993469"><ele>276.6</ele><time>2026-05-01T13:02:27.289Z</time></trkpt><trkpt lat="42.2320778" lon="14.1992271"><ele>276.0</ele><time>2026-05-01T13:02:28.29Z</time></trkpt><trkpt lat="42.2321478" lon="14.1991046"><ele>275.0</ele><time>2026-05-01T13:02:29.288Z</time></trkpt><trkpt lat="42.2322278" lon="14.1989914"><ele>274.0</ele><time>2026-05-01T13:02:30.295Z</time></trkpt><trkpt lat="42.2323041" lon="14.1988714"><ele>273.0</ele><time>2026-05-01T13:02:31.288Z</time></trkpt><trkpt lat="42.232381" lon="14.1987509"><ele>272.0</ele><time>2026-05-01T13:02:32.29Z</time></trkpt><trkpt lat="42.2324579" lon="14.1986314"><ele>272.0</ele><time>2026-05-01T13:02:33.292Z</time></trkpt><trkpt lat="42.2325382" lon="14.198518"><ele>272.0</ele><time>2026-05-01T13:02:34.289Z</time></trkpt><trkpt lat="42.2326177" lon="14.1984074"><ele>272.0</ele><time>2026-05-01T13:02:35.303Z</time></trkpt><trkpt lat="42.2326848" lon="14.1983023"><ele>272.0</ele><time>2026-05-01T13:02:36.287Z</time></trkpt><trkpt lat="42.2327507" lon="14.1982035"><ele>272.0</ele><time>2026-05-01T13:02:37.287Z</time></trkpt><trkpt lat="42.2328093" lon="14.1980999"><ele>271.0</ele><time>2026-05-01T13:02:38.282Z</time></trkpt><trkpt lat="42.2328556" lon="14.1980019"><ele>270.0</ele><time>2026-05-01T13:02:39.287Z</time></trkpt><trkpt lat="42.2328881" lon="14.1979231"><ele>269.0</ele><time>2026-05-01T13:02:40.287Z</time></trkpt><trkpt lat="42.232922" lon="14.197774"><ele>268.0</ele><time>2026-05-01T13:02:42.282Z</time></trkpt><trkpt lat="42.2329419" lon="14.1976113"><ele>267.0</ele><time>2026-05-01T13:02:44.284Z</time></trkpt><trkpt lat="42.232954" lon="14.1974779"><ele>267.0</ele><time>2026-05-01T13:02:46.285Z</time></trkpt><trkpt lat="42.2329633" lon="14.197374"><ele>267.0</ele><time>2026-05-01T13:02:48.283Z</time></trkpt><trkpt lat="42.2329524" lon="14.1972881"><ele>267.0</ele><time>2026-05-01T13:02:50.269Z</time></trkpt><trkpt lat="42.2329383" lon="14.1971766"><ele>267.0</ele><time>2026-05-01T13:02:52.276Z</time></trkpt><trkpt lat="42.2329467" lon="14.1973"><ele>267.0</ele><time>2026-05-01T13:03:17.265Z</time></trkpt><trkpt lat="42.2329604" lon="14.1973879"><ele>267.0</ele><time>2026-05-01T13:03:19.274Z</time></trkpt><trkpt lat="42.2329526" lon="14.1975309"><ele>267.0</ele><time>2026-05-01T13:03:21.288Z</time></trkpt><trkpt lat="42.2329279" lon="14.1976454"><ele>267.0</ele><time>2026-05-01T13:03:23.266Z</time></trkpt><trkpt lat="42.2329246" lon="14.1977386"><ele>267.0</ele><time>2026-05-01T13:03:25.266Z</time></trkpt><trkpt lat="42.2330246" lon="14.1978036"><ele>267.0</ele><time>2026-05-01T13:03:30.265Z</time></trkpt><trkpt lat="42.2331176" lon="14.1977698"><ele>267.0</ele><time>2026-05-01T13:03:32.272Z</time></trkpt><trkpt lat="42.2332036" lon="14.1977079"><ele>267.0</ele><time>2026-05-01T13:03:34.262Z</time></trkpt><trkpt lat="42.2332609" lon="14.1976622"><ele>267.0</ele><time>2026-05-01T13:03:35.314Z</time></trkpt><trkpt lat="42.2333291" lon="14.1976044"><ele>267.0</ele><time>2026-05-01T13:03:36.277Z</time></trkpt><trkpt lat="42.2333996" lon="14.1975455"><ele>267.0</ele><time>2026-05-01T13:03:37.27Z</time></trkpt><trkpt lat="42.2334768" lon="14.1974927"><ele>267.0</ele><time>2026-05-01T13:03:38.262Z</time></trkpt><trkpt lat="42.2335506" lon="14.1974406"><ele>267.0</ele><time>2026-05-01T13:03:39.277Z</time></trkpt><trkpt lat="42.2336178" lon="14.1973729"><ele>267.0</ele><time>2026-05-01T13:03:40.264Z</time></trkpt><trkpt lat="42.233685" lon="14.1972824"><ele>267.0</ele><time>2026-05-01T13:03:41.288Z</time></trkpt><trkpt lat="42.2337385" lon="14.1971718"><ele>267.0</ele><time>2026-05-01T13:03:42.273Z</time></trkpt><trkpt lat="42.2337839" lon="14.1970456"><ele>267.0</ele><time>2026-05-01T13:03:43.275Z</time></trkpt><trkpt lat="42.2338393" lon="14.1969226"><ele>267.0</ele><time>2026-05-01T13:03:44.283Z</time></trkpt><trkpt lat="42.2338885" lon="14.1968053"><ele>267.0</ele><time>2026-05-01T13:03:45.307Z</time></trkpt><trkpt lat="42.2339388" lon="14.1966885"><ele>267.0</ele><time>2026-05-01T13:03:46.26Z</time></trkpt><trkpt lat="42.2339849" lon="14.1965574"><ele>267.0</ele><time>2026-05-01T13:03:47.274Z</time></trkpt><trkpt lat="42.2340292" lon="14.1964202"><ele>267.0</ele><time>2026-05-01T13:03:48.273Z</time></trkpt><trkpt lat="42.2340782" lon="14.1962817"><ele>267.0</ele><time>2026-05-01T13:03:49.288Z</time></trkpt><trkpt lat="42.2341361" lon="14.1961405"><ele>266.8</ele><time>2026-05-01T13:03:50.28Z</time></trkpt><trkpt lat="42.2342001" lon="14.1960017"><ele>266.6</ele><time>2026-05-01T13:03:51.285Z</time></trkpt><trkpt lat="42.234255" lon="14.1958811"><ele>266.40000000000003</ele><time>2026-05-01T13:03:52.268Z</time></trkpt><trkpt lat="42.2343013" lon="14.195772"><ele>266.2</ele><time>2026-05-01T13:03:53.302Z</time></trkpt><trkpt lat="42.2343601" lon="14.1956624"><ele>266.0</ele><time>2026-05-01T13:03:54.266Z</time></trkpt><trkpt lat="42.2344446" lon="14.195544"><ele>266.0</ele><time>2026-05-01T13:03:55.294Z</time></trkpt><trkpt lat="42.2345321" lon="14.1954375"><ele>266.0</ele><time>2026-05-01T13:03:56.27Z</time></trkpt><trkpt lat="42.2346169" lon="14.1953402"><ele>266.0</ele><time>2026-05-01T13:03:57.269Z</time></trkpt><trkpt lat="42.2346921" lon="14.1952517"><ele>266.0</ele><time>2026-05-01T13:03:58.273Z</time></trkpt><trkpt lat="42.2347688" lon="14.1951698"><ele>266.0</ele><time>2026-05-01T13:03:59.279Z</time></trkpt><trkpt lat="42.2348608" lon="14.1950936"><ele>266.0</ele><time>2026-05-01T13:04:00.262Z</time></trkpt><trkpt lat="42.2349713" lon="14.194987"><ele>266.0</ele><time>2026-05-01T13:04:01.266Z</time></trkpt><trkpt lat="42.2350757" lon="14.1948719"><ele>266.0</ele><time>2026-05-01T13:04:02.265Z</time></trkpt><trkpt lat="42.2351867" lon="14.1947606"><ele>266.0</ele><time>2026-05-01T13:04:03.269Z</time></trkpt><trkpt lat="42.2352918" lon="14.1946531"><ele>265.8</ele><time>2026-05-01T13:04:04.257Z</time></trkpt><trkpt lat="42.2353861" lon="14.1945576"><ele>265.6</ele><time>2026-05-01T13:04:05.269Z</time></trkpt><trkpt lat="42.2354634" lon="14.1944716"><ele>265.4</ele><time>2026-05-01T13:04:06.306Z</time></trkpt><trkpt lat="42.2355424" lon="14.1944105"><ele>265.2</ele><time>2026-05-01T13:04:07.264Z</time></trkpt><trkpt lat="42.2356236" lon="14.1943563"><ele>265.0</ele><time>2026-05-01T13:04:08.276Z</time></trkpt><trkpt lat="42.235713" lon="14.1943095"><ele>265.0</ele><time>2026-05-01T13:04:09.271Z</time></trkpt><trkpt lat="42.235815" lon="14.1942642"><ele>265.0</ele><time>2026-05-01T13:04:10.269Z</time></trkpt><trkpt lat="42.2359124" lon="14.1941961"><ele>265.0</ele><time>2026-05-01T13:04:11.269Z</time></trkpt><trkpt lat="42.2359934" lon="14.1941017"><ele>265.0</ele><time>2026-05-01T13:04:12.274Z</time></trkpt><trkpt lat="42.2360681" lon="14.1939722"><ele>265.0</ele><time>2026-05-01T13:04:13.277Z</time></trkpt><trkpt lat="42.2361418" lon="14.1938293"><ele>264.25</ele><time>2026-05-01T13:04:14.302Z</time></trkpt><trkpt lat="42.2362073" lon="14.1936582"><ele>263.5</ele><time>2026-05-01T13:04:15.293Z</time></trkpt><trkpt lat="42.2362658" lon="14.1934651"><ele>262.75</ele><time>2026-05-01T13:04:16.285Z</time></trkpt><trkpt lat="42.2363188" lon="14.1932833"><ele>262.0</ele><time>2026-05-01T13:04:17.291Z</time></trkpt><trkpt lat="42.2363624" lon="14.1931125"><ele>262.25</ele><time>2026-05-01T13:04:18.286Z</time></trkpt><trkpt lat="42.2363964" lon="14.1929492"><ele>262.5</ele><time>2026-05-01T13:04:19.285Z</time></trkpt><trkpt lat="42.236431" lon="14.1927923"><ele>262.75</ele><time>2026-05-01T13:04:20.276Z</time></trkpt><trkpt lat="42.2364672" lon="14.192647"><ele>263.0</ele><time>2026-05-01T13:04:21.298Z</time></trkpt><trkpt lat="42.2365102" lon="14.1925058"><ele>263.0</ele><time>2026-05-01T13:04:22.279Z</time></trkpt><trkpt lat="42.236561" lon="14.1923573"><ele>263.0</ele><time>2026-05-01T13:04:23.286Z</time></trkpt><trkpt lat="42.236601" lon="14.1922105"><ele>263.0</ele><time>2026-05-01T13:04:24.285Z</time></trkpt><trkpt lat="42.2366459" lon="14.1920592"><ele>263.0</ele><time>2026-05-01T13:04:25.287Z</time></trkpt><trkpt lat="42.2366977" lon="14.1919111"><ele>261.5</ele><time>2026-05-01T13:04:26.287Z</time></trkpt><trkpt lat="42.2367549" lon="14.191764"><ele>260.0</ele><time>2026-05-01T13:04:27.292Z</time></trkpt><trkpt lat="42.2368281" lon="14.191623"><ele>258.5</ele><time>2026-05-01T13:04:28.29Z</time></trkpt><trkpt lat="42.2369132" lon="14.1914848"><ele>257.0</ele><time>2026-05-01T13:04:29.294Z</time></trkpt><trkpt lat="42.2370015" lon="14.1913633"><ele>256.0</ele><time>2026-05-01T13:04:30.291Z</time></trkpt><trkpt lat="42.2370767" lon="14.1912626"><ele>255.0</ele><time>2026-05-01T13:04:31.29Z</time></trkpt><trkpt lat="42.237131" lon="14.1911572"><ele>254.0</ele><time>2026-05-01T13:04:32.283Z</time></trkpt><trkpt lat="42.2371676" lon="14.1910241"><ele>253.0</ele><time>2026-05-01T13:04:33.289Z</time></trkpt><trkpt lat="42.2372061" lon="14.1908788"><ele>252.0</ele><time>2026-05-01T13:04:34.287Z</time></trkpt><trkpt lat="42.2372549" lon="14.1907222"><ele>252.2</ele><time>2026-05-01T13:04:35.288Z</time></trkpt><trkpt lat="42.2373065" lon="14.1905842"><ele>252.39999999999998</ele><time>2026-05-01T13:04:36.28Z</time></trkpt><trkpt lat="42.2373657" lon="14.1904672"><ele>252.60000000000002</ele><time>2026-05-01T13:04:37.281Z</time></trkpt><trkpt lat="42.2374357" lon="14.1903632"><ele>252.8</ele><time>2026-05-01T13:04:38.295Z</time></trkpt><trkpt lat="42.2375231" lon="14.1902689"><ele>253.0</ele><time>2026-05-01T13:04:39.29Z</time></trkpt><trkpt lat="42.237619" lon="14.190178"><ele>253.0</ele><time>2026-05-01T13:04:40.298Z</time></trkpt><trkpt lat="42.2377207" lon="14.1900622"><ele>253.0</ele><time>2026-05-01T13:04:41.295Z</time></trkpt><trkpt lat="42.2378083" lon="14.1899172"><ele>253.0</ele><time>2026-05-01T13:04:42.284Z</time></trkpt><trkpt lat="42.2378739" lon="14.1897713"><ele>253.0</ele><time>2026-05-01T13:04:43.283Z</time></trkpt><trkpt lat="42.2379187" lon="14.1896309"><ele>251.75</ele><time>2026-05-01T13:04:44.285Z</time></trkpt><trkpt lat="42.2379449" lon="14.189465"><ele>250.5</ele><time>2026-05-01T13:04:45.292Z</time></trkpt><trkpt lat="42.2379662" lon="14.1892986"><ele>249.25</ele><time>2026-05-01T13:04:46.289Z</time></trkpt><trkpt lat="42.2379804" lon="14.1891376"><ele>248.0</ele><time>2026-05-01T13:04:47.291Z</time></trkpt><trkpt lat="42.2379815" lon="14.1889874"><ele>247.4</ele><time>2026-05-01T13:04:48.285Z</time></trkpt><trkpt lat="42.237974" lon="14.1888515"><ele>246.8</ele><time>2026-05-01T13:04:49.291Z</time></trkpt><trkpt lat="42.2379676" lon="14.1887254"><ele>246.2</ele><time>2026-05-01T13:04:50.291Z</time></trkpt><trkpt lat="42.2379863" lon="14.1885794"><ele>245.6</ele><time>2026-05-01T13:04:51.291Z</time></trkpt><trkpt lat="42.2380308" lon="14.1884331"><ele>245.0</ele><time>2026-05-01T13:04:52.284Z</time></trkpt><trkpt lat="42.2380996" lon="14.1882997"><ele>244.66666666666669</ele><time>2026-05-01T13:04:53.285Z</time></trkpt><trkpt lat="42.2381764" lon="14.1881919"><ele>244.33333333333334</ele><time>2026-05-01T13:04:54.287Z</time></trkpt><trkpt lat="42.2382516" lon="14.1881009"><ele>244.0</ele><time>2026-05-01T13:04:55.29Z</time></trkpt><trkpt lat="42.2383126" lon="14.1880194"><ele>243.66666666666669</ele><time>2026-05-01T13:04:56.282Z</time></trkpt><trkpt lat="42.2383572" lon="14.1879405"><ele>243.33333333333334</ele><time>2026-05-01T13:04:57.29Z</time></trkpt><trkpt lat="42.238372" lon="14.1878553"><ele>243.0</ele><time>2026-05-01T13:04:58.278Z</time></trkpt><trkpt lat="42.2383708" lon="14.187746"><ele>243.0</ele><time>2026-05-01T13:04:59.284Z</time></trkpt><trkpt lat="42.2383707" lon="14.1876258"><ele>243.0</ele><time>2026-05-01T13:05:00.295Z</time></trkpt><trkpt lat="42.2383829" lon="14.1875148"><ele>243.0</ele><time>2026-05-01T13:05:01.29Z</time></trkpt><trkpt lat="42.2384107" lon="14.1874268"><ele>243.0</ele><time>2026-05-01T13:05:02.286Z</time></trkpt><trkpt lat="42.2384626" lon="14.187359"><ele>243.0</ele><time>2026-05-01T13:05:03.271Z</time></trkpt><trkpt lat="42.2385447" lon="14.1873174"><ele>243.0</ele><time>2026-05-01T13:05:04.291Z</time></trkpt><trkpt lat="42.2386407" lon="14.1872856"><ele>243.8</ele><time>2026-05-01T13:05:05.289Z</time></trkpt><trkpt lat="42.2387365" lon="14.1872582"><ele>244.60000000000002</ele><time>2026-05-01T13:05:06.307Z</time></trkpt><trkpt lat="42.2388319" lon="14.1872495"><ele>245.39999999999998</ele><time>2026-05-01T13:05:07.306Z</time></trkpt><trkpt lat="42.2389169" lon="14.1872169"><ele>246.2</ele><time>2026-05-01T13:05:08.279Z</time></trkpt><trkpt lat="42.2389935" lon="14.1871537"><ele>247.0</ele><time>2026-05-01T13:05:09.27Z</time></trkpt><trkpt lat="42.2390431" lon="14.1870639"><ele>247.39999999999998</ele><time>2026-05-01T13:05:10.272Z</time></trkpt><trkpt lat="42.239092" lon="14.1869526"><ele>247.79999999999998</ele><time>2026-05-01T13:05:11.302Z</time></trkpt><trkpt lat="42.2391453" lon="14.18684"><ele>248.2</ele><time>2026-05-01T13:05:12.275Z</time></trkpt><trkpt lat="42.2392005" lon="14.186724"><ele>248.6</ele><time>2026-05-01T13:05:13.282Z</time></trkpt><trkpt lat="42.2392502" lon="14.1866049"><ele>249.0</ele><time>2026-05-01T13:05:14.289Z</time></trkpt><trkpt lat="42.2392981" lon="14.1864908"><ele>250.2</ele><time>2026-05-01T13:05:15.298Z</time></trkpt><trkpt lat="42.2393349" lon="14.1863999"><ele>251.39999999999998</ele><time>2026-05-01T13:05:16.28Z</time></trkpt><trkpt lat="42.2394084" lon="14.1862622"><ele>252.6</ele><time>2026-05-01T13:05:18.28Z</time></trkpt><trkpt lat="42.2394632" lon="14.1861952"><ele>253.8</ele><time>2026-05-01T13:05:19.303Z</time></trkpt><trkpt lat="42.2395413" lon="14.1861218"><ele>255.0</ele><time>2026-05-01T13:05:20.278Z</time></trkpt><trkpt lat="42.2396095" lon="14.1860353"><ele>255.0</ele><time>2026-05-01T13:05:21.288Z</time></trkpt><trkpt lat="42.2396833" lon="14.1859466"><ele>255.0</ele><time>2026-05-01T13:05:22.267Z</time></trkpt><trkpt lat="42.2397527" lon="14.1858496"><ele>255.0</ele><time>2026-05-01T13:05:23.266Z</time></trkpt><trkpt lat="42.2398138" lon="14.1857514"><ele>255.0</ele><time>2026-05-01T13:05:24.287Z</time></trkpt><trkpt lat="42.2398587" lon="14.1856525"><ele>255.0</ele><time>2026-05-01T13:05:25.285Z</time></trkpt><trkpt lat="42.2398985" lon="14.1855576"><ele>254.6</ele><time>2026-05-01T13:05:26.285Z</time></trkpt><trkpt lat="42.2399369" lon="14.1854722"><ele>254.2</ele><time>2026-05-01T13:05:27.279Z</time></trkpt><trkpt lat="42.2399918" lon="14.1853668"><ele>253.8</ele><time>2026-05-01T13:05:29.292Z</time></trkpt><trkpt lat="42.24006" lon="14.1852765"><ele>253.4</ele><time>2026-05-01T13:05:31.292Z</time></trkpt><trkpt lat="42.2401449" lon="14.1851843"><ele>253.0</ele><time>2026-05-01T13:05:33.269Z</time></trkpt><trkpt lat="42.2402417" lon="14.1850721"><ele>253.00000000000003</ele><time>2026-05-01T13:05:35.288Z</time></trkpt><trkpt lat="42.2402938" lon="14.18501"><ele>253.0</ele><time>2026-05-01T13:05:36.279Z</time></trkpt><trkpt lat="42.2403451" lon="14.184946"><ele>253.00000000000003</ele><time>2026-05-01T13:05:37.297Z</time></trkpt><trkpt lat="42.2403952" lon="14.1848808"><ele>253.00000000000003</ele><time>2026-05-01T13:05:38.293Z</time></trkpt><trkpt lat="42.2404433" lon="14.1848204"><ele>253.0</ele><time>2026-05-01T13:05:39.304Z</time></trkpt><trkpt lat="42.2405006" lon="14.1847528"><ele>253.00000000000003</ele><time>2026-05-01T13:05:41.292Z</time></trkpt><trkpt lat="42.2405771" lon="14.1847118"><ele>253.00000000000003</ele><time>2026-05-01T13:05:45.29Z</time></trkpt><trkpt lat="42.2406489" lon="14.1846848"><ele>252.99999999999997</ele><time>2026-05-01T13:05:49.297Z</time></trkpt><trkpt lat="42.2407208" lon="14.1846488"><ele>253.0</ele><time>2026-05-01T13:05:52.292Z</time></trkpt><trkpt lat="42.2407849" lon="14.1846403"><ele>253.0</ele><time>2026-05-01T13:05:54.3Z</time></trkpt><trkpt lat="42.2408701" lon="14.1846741"><ele>253.0</ele><time>2026-05-01T13:05:57.293Z</time></trkpt><trkpt lat="42.2409504" lon="14.1846941"><ele>252.99999999999997</ele><time>2026-05-01T13:05:59.291Z</time></trkpt><trkpt lat="42.2410594" lon="14.1847382"><ele>253.0</ele><time>2026-05-01T13:06:01.287Z</time></trkpt><trkpt lat="42.2411317" lon="14.1847844"><ele>252.99999999999997</ele><time>2026-05-01T13:06:02.302Z</time></trkpt><trkpt lat="42.241198" lon="14.1848271"><ele>253.0</ele><time>2026-05-01T13:06:03.291Z</time></trkpt><trkpt lat="42.2412552" lon="14.1848663"><ele>253.0</ele><time>2026-05-01T13:06:04.292Z</time></trkpt><trkpt lat="42.2413485" lon="14.1849015"><ele>253.0</ele><time>2026-05-01T13:06:06.298Z</time></trkpt><trkpt lat="42.2414278" lon="14.18492"><ele>252.99999999999997</ele><time>2026-05-01T13:06:09.319Z</time></trkpt><trkpt lat="42.2413215" lon="14.1848962"><ele>253.0</ele><time>2026-05-01T13:06:39.302Z</time></trkpt><trkpt lat="42.2412139" lon="14.184861"><ele>252.99999999999997</ele><time>2026-05-01T13:06:41.294Z</time></trkpt><trkpt lat="42.2411519" lon="14.1848105"><ele>253.0</ele><time>2026-05-01T13:06:42.287Z</time></trkpt><trkpt lat="42.241079" lon="14.1847511"><ele>253.0</ele><time>2026-05-01T13:06:43.287Z</time></trkpt><trkpt lat="42.2409989" lon="14.1847019"><ele>253.0</ele><time>2026-05-01T13:06:44.276Z</time></trkpt><trkpt lat="42.2409151" lon="14.1846727"><ele>252.99999999999997</ele><time>2026-05-01T13:06:45.284Z</time></trkpt><trkpt lat="42.24083" lon="14.1846592"><ele>253.0</ele><time>2026-05-01T13:06:46.303Z</time></trkpt><trkpt lat="42.2407586" lon="14.1846449"><ele>252.99999999999997</ele><time>2026-05-01T13:06:47.279Z</time></trkpt><trkpt lat="42.240685" lon="14.184659"><ele>253.0</ele><time>2026-05-01T13:06:49.284Z</time></trkpt><trkpt lat="42.2407089" lon="14.1847506"><ele>253.0</ele><time>2026-05-01T13:06:52.292Z</time></trkpt><trkpt lat="42.2408229" lon="14.184819"><ele>253.0</ele><time>2026-05-01T13:06:54.297Z</time></trkpt><trkpt lat="42.2408955" lon="14.1848615"><ele>252.99999999999997</ele><time>2026-05-01T13:06:55.294Z</time></trkpt><trkpt lat="42.2409741" lon="14.184908"><ele>253.0</ele><time>2026-05-01T13:06:56.295Z</time></trkpt><trkpt lat="42.2410567" lon="14.1849568"><ele>252.33333333333331</ele><time>2026-05-01T13:06:57.287Z</time></trkpt><trkpt lat="42.2411378" lon="14.1850056"><ele>251.66666666666666</ele><time>2026-05-01T13:06:58.297Z</time></trkpt><trkpt lat="42.2412232" lon="14.1850618"><ele>251.0</ele><time>2026-05-01T13:06:59.304Z</time></trkpt><trkpt lat="42.2413116" lon="14.1851176"><ele>250.33333333333331</ele><time>2026-05-01T13:07:00.316Z</time></trkpt><trkpt lat="42.2413896" lon="14.1851541"><ele>249.66666666666666</ele><time>2026-05-01T13:07:01.294Z</time></trkpt><trkpt lat="42.2414598" lon="14.1851731"><ele>249.0</ele><time>2026-05-01T13:07:02.286Z</time></trkpt><trkpt lat="42.2415232" lon="14.1851609"><ele>248.5</ele><time>2026-05-01T13:07:03.281Z</time></trkpt><trkpt lat="42.2416335" lon="14.1850656"><ele>248.0</ele><time>2026-05-01T13:07:05.286Z</time></trkpt><trkpt lat="42.2416953" lon="14.1850138"><ele>247.5</ele><time>2026-05-01T13:07:06.272Z</time></trkpt><trkpt lat="42.2417524" lon="14.1849511"><ele>247.0</ele><time>2026-05-01T13:07:07.288Z</time></trkpt><trkpt lat="42.2418112" lon="14.1848909"><ele>246.5</ele><time>2026-05-01T13:07:08.274Z</time></trkpt><trkpt lat="42.2418742" lon="14.1848184"><ele>246.0</ele><time>2026-05-01T13:07:09.299Z</time></trkpt><trkpt lat="42.2419377" lon="14.1847365"><ele>246.0</ele><time>2026-05-01T13:07:10.296Z</time></trkpt><trkpt lat="42.2419931" lon="14.1846308"><ele>246.00000000000003</ele><time>2026-05-01T13:07:11.29Z</time></trkpt><trkpt lat="42.2420305" lon="14.1845009"><ele>246.00000000000003</ele><time>2026-05-01T13:07:12.303Z</time></trkpt><trkpt lat="42.2420483" lon="14.1843643"><ele>246.0</ele><time>2026-05-01T13:07:13.288Z</time></trkpt><trkpt lat="42.2420548" lon="14.1842254"><ele>246.0</ele><time>2026-05-01T13:07:14.277Z</time></trkpt><trkpt lat="42.2420594" lon="14.184099"><ele>246.0</ele><time>2026-05-01T13:07:15.28Z</time></trkpt><trkpt lat="42.2420713" lon="14.1839909"><ele>246.0</ele><time>2026-05-01T13:07:16.284Z</time></trkpt><trkpt lat="42.2420964" lon="14.1838866"><ele>246.0</ele><time>2026-05-01T13:07:17.3Z</time></trkpt><trkpt lat="42.2421478" lon="14.1837778"><ele>246.0</ele><time>2026-05-01T13:07:18.288Z</time></trkpt><trkpt lat="42.2422065" lon="14.1836701"><ele>246.0</ele><time>2026-05-01T13:07:19.281Z</time></trkpt><trkpt lat="42.24225" lon="14.1835835"><ele>246.0</ele><time>2026-05-01T13:07:20.283Z</time></trkpt><trkpt lat="42.2422821" lon="14.1835043"><ele>246.20000000000002</ele><time>2026-05-01T13:07:21.295Z</time></trkpt><trkpt lat="42.2423328" lon="14.1834318"><ele>246.40000000000003</ele><time>2026-05-01T13:07:22.298Z</time></trkpt><trkpt lat="42.2424017" lon="14.1833589"><ele>246.6</ele><time>2026-05-01T13:07:23.285Z</time></trkpt><trkpt lat="42.2425015" lon="14.1833065"><ele>246.8</ele><time>2026-05-01T13:07:24.283Z</time></trkpt><trkpt lat="42.2426068" lon="14.1832827"><ele>247.0</ele><time>2026-05-01T13:07:25.281Z</time></trkpt><trkpt lat="42.2427056" lon="14.1832814"><ele>246.99999999999997</ele><time>2026-05-01T13:07:26.282Z</time></trkpt><trkpt lat="42.2428017" lon="14.1833017"><ele>247.0</ele><time>2026-05-01T13:07:27.274Z</time></trkpt><trkpt lat="42.2428885" lon="14.1833322"><ele>247.0</ele><time>2026-05-01T13:07:28.283Z</time></trkpt><trkpt lat="42.2429686" lon="14.1833508"><ele>247.0</ele><time>2026-05-01T13:07:29.282Z</time></trkpt><trkpt lat="42.2430461" lon="14.1833661"><ele>246.99999999999997</ele><time>2026-05-01T13:07:30.284Z</time></trkpt><trkpt lat="42.2431236" lon="14.1833823"><ele>247.0</ele><time>2026-05-01T13:07:31.301Z</time></trkpt><trkpt lat="42.2431897" lon="14.1834064"><ele>247.0</ele><time>2026-05-01T13:07:32.287Z</time></trkpt><trkpt lat="42.2432969" lon="14.1833784"><ele>247.0</ele><time>2026-05-01T13:07:34.29Z</time></trkpt><trkpt lat="42.2433438" lon="14.1832853"><ele>247.0</ele><time>2026-05-01T13:07:36.282Z</time></trkpt><trkpt lat="42.2433277" lon="14.1831854"><ele>247.0</ele><time>2026-05-01T13:07:41.296Z</time></trkpt><trkpt lat="42.2432258" lon="14.1831065"><ele>247.0</ele><time>2026-05-01T13:07:43.279Z</time></trkpt><trkpt lat="42.2431589" lon="14.1830745"><ele>247.39999999999998</ele><time>2026-05-01T13:07:44.276Z</time></trkpt><trkpt lat="42.2430796" lon="14.1830448"><ele>247.79999999999998</ele><time>2026-05-01T13:07:45.289Z</time></trkpt><trkpt lat="42.2429919" lon="14.1830072"><ele>248.2</ele><time>2026-05-01T13:07:46.283Z</time></trkpt><trkpt lat="42.242903" lon="14.1829647"><ele>248.6</ele><time>2026-05-01T13:07:47.294Z</time></trkpt><trkpt lat="42.2428046" lon="14.1829064"><ele>249.0</ele><time>2026-05-01T13:07:48.279Z</time></trkpt><trkpt lat="42.2427016" lon="14.1828331"><ele>249.0</ele><time>2026-05-01T13:07:49.288Z</time></trkpt><trkpt lat="42.2425999" lon="14.1827453"><ele>248.99999999999997</ele><time>2026-05-01T13:07:50.278Z</time></trkpt><trkpt lat="42.2425101" lon="14.1826439"><ele>248.99999999999997</ele><time>2026-05-01T13:07:51.282Z</time></trkpt><trkpt lat="42.2424339" lon="14.1825452"><ele>249.0</ele><time>2026-05-01T13:07:52.296Z</time></trkpt><trkpt lat="42.2423799" lon="14.1824653"><ele>249.0</ele><time>2026-05-01T13:07:53.28Z</time></trkpt><trkpt lat="42.2423616" lon="14.1823833"><ele>249.33333333333334</ele><time>2026-05-01T13:07:55.29Z</time></trkpt><trkpt lat="42.2424142" lon="14.1823147"><ele>249.66666666666669</ele><time>2026-05-01T13:07:58.284Z</time></trkpt><trkpt lat="42.2424883" lon="14.1822761"><ele>250.0</ele><time>2026-05-01T13:08:01.31Z</time></trkpt><trkpt lat="42.2425523" lon="14.1822553"><ele>250.33333333333334</ele><time>2026-05-01T13:08:03.293Z</time></trkpt><trkpt lat="42.2426634" lon="14.1822093"><ele>250.66666666666669</ele><time>2026-05-01T13:08:05.311Z</time></trkpt><trkpt lat="42.2427343" lon="14.1821674"><ele>251.0</ele><time>2026-05-01T13:08:06.283Z</time></trkpt><trkpt lat="42.2428092" lon="14.1821203"><ele>251.0</ele><time>2026-05-01T13:08:07.284Z</time></trkpt><trkpt lat="42.242889" lon="14.1820675"><ele>251.00000000000003</ele><time>2026-05-01T13:08:08.279Z</time></trkpt><trkpt lat="42.2429796" lon="14.1820142"><ele>251.00000000000003</ele><time>2026-05-01T13:08:09.316Z</time></trkpt><trkpt lat="42.2430781" lon="14.1819699"><ele>251.0</ele><time>2026-05-01T13:08:10.298Z</time></trkpt><trkpt lat="42.2431784" lon="14.1819252"><ele>251.0</ele><time>2026-05-01T13:08:11.304Z</time></trkpt><trkpt lat="42.2432736" lon="14.1818793"><ele>249.75</ele><time>2026-05-01T13:08:12.276Z</time></trkpt><trkpt lat="42.2433757" lon="14.1818194"><ele>248.5</ele><time>2026-05-01T13:08:13.312Z</time></trkpt><trkpt lat="42.2434826" lon="14.1817534"><ele>247.25</ele><time>2026-05-01T13:08:14.288Z</time></trkpt><trkpt lat="42.2435952" lon="14.1816871"><ele>246.0</ele><time>2026-05-01T13:08:15.29Z</time></trkpt><trkpt lat="42.2437193" lon="14.181626"><ele>246.0</ele><time>2026-05-01T13:08:16.288Z</time></trkpt><trkpt lat="42.2438416" lon="14.1815646"><ele>246.0</ele><time>2026-05-01T13:08:17.284Z</time></trkpt><trkpt lat="42.2439692" lon="14.1815017"><ele>246.0</ele><time>2026-05-01T13:08:18.287Z</time></trkpt><trkpt lat="42.2440962" lon="14.1814312"><ele>246.0</ele><time>2026-05-01T13:08:19.285Z</time></trkpt><trkpt lat="42.244215" lon="14.1813583"><ele>244.75</ele><time>2026-05-01T13:08:20.289Z</time></trkpt><trkpt lat="42.2443287" lon="14.1812831"><ele>243.5</ele><time>2026-05-01T13:08:21.284Z</time></trkpt><trkpt lat="42.2444372" lon="14.1812135"><ele>242.25</ele><time>2026-05-01T13:08:22.287Z</time></trkpt><trkpt lat="42.2445376" lon="14.1811437"><ele>241.0</ele><time>2026-05-01T13:08:23.283Z</time></trkpt><trkpt lat="42.2446336" lon="14.181084"><ele>241.0</ele><time>2026-05-01T13:08:24.29Z</time></trkpt><trkpt lat="42.2447225" lon="14.1810405"><ele>241.00000000000003</ele><time>2026-05-01T13:08:25.284Z</time></trkpt><trkpt lat="42.2447993" lon="14.1810243"><ele>241.00000000000003</ele><time>2026-05-01T13:08:26.284Z</time></trkpt><trkpt lat="42.2449191" lon="14.1810459"><ele>241.0</ele><time>2026-05-01T13:08:28.287Z</time></trkpt><trkpt lat="42.245028" lon="14.181109"><ele>241.0</ele><time>2026-05-01T13:08:30.283Z</time></trkpt><trkpt lat="42.2450853" lon="14.1811523"><ele>240.49999999999997</ele><time>2026-05-01T13:08:31.289Z</time></trkpt><trkpt lat="42.2451461" lon="14.1812063"><ele>240.0</ele><time>2026-05-01T13:08:32.288Z</time></trkpt><trkpt lat="42.2452112" lon="14.181264"><ele>239.5</ele><time>2026-05-01T13:08:33.285Z</time></trkpt><trkpt lat="42.2452813" lon="14.1813238"><ele>239.0</ele><time>2026-05-01T13:08:34.298Z</time></trkpt><trkpt lat="42.2453698" lon="14.1813821"><ele>238.49999999999997</ele><time>2026-05-01T13:08:35.292Z</time></trkpt><trkpt lat="42.2454672" lon="14.1814451"><ele>238.0</ele><time>2026-05-01T13:08:36.289Z</time></trkpt><trkpt lat="42.2455679" lon="14.1814915"><ele>237.75</ele><time>2026-05-01T13:08:37.286Z</time></trkpt><trkpt lat="42.2456779" lon="14.18153"><ele>237.5</ele><time>2026-05-01T13:08:38.287Z</time></trkpt><trkpt lat="42.245788" lon="14.1815947"><ele>237.25</ele><time>2026-05-01T13:08:39.294Z</time></trkpt><trkpt lat="42.2458863" lon="14.1816763"><ele>237.0</ele><time>2026-05-01T13:08:40.284Z</time></trkpt><trkpt lat="42.2459795" lon="14.1817637"><ele>237.0</ele><time>2026-05-01T13:08:41.295Z</time></trkpt><trkpt lat="42.246085" lon="14.1818419"><ele>237.0</ele><time>2026-05-01T13:08:42.287Z</time></trkpt><trkpt lat="42.246197" lon="14.1818849"><ele>237.0</ele><time>2026-05-01T13:08:43.293Z</time></trkpt><trkpt lat="42.246327" lon="14.1819063"><ele>237.0</ele><time>2026-05-01T13:08:44.287Z</time></trkpt><trkpt lat="42.2464471" lon="14.1819047"><ele>235.75</ele><time>2026-05-01T13:08:45.294Z</time></trkpt><trkpt lat="42.2465671" lon="14.1818981"><ele>234.5</ele><time>2026-05-01T13:08:46.288Z</time></trkpt><trkpt lat="42.2466811" lon="14.1819011"><ele>233.25</ele><time>2026-05-01T13:08:47.291Z</time></trkpt><trkpt lat="42.2467975" lon="14.181913"><ele>232.0</ele><time>2026-05-01T13:08:48.285Z</time></trkpt><trkpt lat="42.2469124" lon="14.1819588"><ele>232.0</ele><time>2026-05-01T13:08:49.295Z</time></trkpt><trkpt lat="42.2470291" lon="14.1820248"><ele>232.0</ele><time>2026-05-01T13:08:50.298Z</time></trkpt><trkpt lat="42.2471274" lon="14.1820965"><ele>232.0</ele><time>2026-05-01T13:08:51.288Z</time></trkpt><trkpt lat="42.247209" lon="14.182168"><ele>232.0</ele><time>2026-05-01T13:08:52.285Z</time></trkpt><trkpt lat="42.24727" lon="14.1822436"><ele>232.0</ele><time>2026-05-01T13:08:53.287Z</time></trkpt><trkpt lat="42.2473272" lon="14.1823235"><ele>231.99999999999997</ele><time>2026-05-01T13:08:54.304Z</time></trkpt><trkpt lat="42.247376" lon="14.1824193"><ele>232.0</ele><time>2026-05-01T13:08:55.286Z</time></trkpt><trkpt lat="42.2474115" lon="14.1825148"><ele>232.0</ele><time>2026-05-01T13:08:56.284Z</time></trkpt><trkpt lat="42.2474341" lon="14.1826044"><ele>232.0</ele><time>2026-05-01T13:08:57.29Z</time></trkpt><trkpt lat="42.2474647" lon="14.1827293"><ele>231.99999999999997</ele><time>2026-05-01T13:08:59.296Z</time></trkpt><trkpt lat="42.2475043" lon="14.1827977"><ele>232.0</ele><time>2026-05-01T13:09:00.299Z</time></trkpt><trkpt lat="42.2475611" lon="14.1828583"><ele>231.99999999999997</ele><time>2026-05-01T13:09:01.292Z</time></trkpt><trkpt lat="42.2476286" lon="14.1829139"><ele>232.0</ele><time>2026-05-01T13:09:02.291Z</time></trkpt><trkpt lat="42.2477054" lon="14.182967"><ele>232.0</ele><time>2026-05-01T13:09:03.299Z</time></trkpt><trkpt lat="42.2477826" lon="14.1830194"><ele>232.0</ele><time>2026-05-01T13:09:04.288Z</time></trkpt><trkpt lat="42.2478495" lon="14.1830718"><ele>231.99999999999997</ele><time>2026-05-01T13:09:05.289Z</time></trkpt><trkpt lat="42.2479095" lon="14.1831398"><ele>232.0</ele><time>2026-05-01T13:09:06.303Z</time></trkpt><trkpt lat="42.2479548" lon="14.1832253"><ele>232.28571428571433</ele><time>2026-05-01T13:09:07.294Z</time></trkpt><trkpt lat="42.2479974" lon="14.18332"><ele>232.57142857142858</ele><time>2026-05-01T13:09:08.275Z</time></trkpt><trkpt lat="42.2480313" lon="14.1834119"><ele>232.8571428571429</ele><time>2026-05-01T13:09:09.307Z</time></trkpt><trkpt lat="42.2480584" lon="14.1835068"><ele>233.14285714285717</ele><time>2026-05-01T13:09:10.296Z</time></trkpt><trkpt lat="42.2480788" lon="14.1835965"><ele>233.42857142857144</ele><time>2026-05-01T13:09:11.289Z</time></trkpt><trkpt lat="42.248091" lon="14.1836951"><ele>233.71428571428572</ele><time>2026-05-01T13:09:12.284Z</time></trkpt><trkpt lat="42.2480836" lon="14.1837902"><ele>234.0</ele><time>2026-05-01T13:09:13.297Z</time></trkpt><trkpt lat="42.2480621" lon="14.1838772"><ele>233.0</ele><time>2026-05-01T13:09:14.279Z</time></trkpt><trkpt lat="42.2480225" lon="14.1840158"><ele>232.0</ele><time>2026-05-01T13:09:16.282Z</time></trkpt><trkpt lat="42.247979" lon="14.1841427"><ele>231.0</ele><time>2026-05-01T13:09:18.285Z</time></trkpt><trkpt lat="42.2479433" lon="14.1842236"><ele>230.0</ele><time>2026-05-01T13:09:19.292Z</time></trkpt><trkpt lat="42.2478861" lon="14.1842855"><ele>229.0</ele><time>2026-05-01T13:09:20.293Z</time></trkpt><trkpt lat="42.2478059" lon="14.1843341"><ele>228.0</ele><time>2026-05-01T13:09:21.293Z</time></trkpt><trkpt lat="42.2477152" lon="14.1843652"><ele>228.0</ele><time>2026-05-01T13:09:22.278Z</time></trkpt><trkpt lat="42.2476162" lon="14.1843755"><ele>228.0</ele><time>2026-05-01T13:09:23.289Z</time></trkpt><trkpt lat="42.2475099" lon="14.1843737"><ele>228.0</ele><time>2026-05-01T13:09:24.281Z</time></trkpt><trkpt lat="42.2474076" lon="14.1843349"><ele>228.0</ele><time>2026-05-01T13:09:25.286Z</time></trkpt><trkpt lat="42.2473295" lon="14.1842547"><ele>228.0</ele><time>2026-05-01T13:09:26.28Z</time></trkpt><trkpt lat="42.2472609" lon="14.1841554"><ele>227.8</ele><time>2026-05-01T13:09:27.286Z</time></trkpt><trkpt lat="42.2471853" lon="14.1840378"><ele>227.60000000000002</ele><time>2026-05-01T13:09:28.293Z</time></trkpt><trkpt lat="42.2470983" lon="14.1839313"><ele>227.39999999999998</ele><time>2026-05-01T13:09:29.289Z</time></trkpt><trkpt lat="42.2470065" lon="14.1838368"><ele>227.2</ele><time>2026-05-01T13:09:30.282Z</time></trkpt><trkpt lat="42.2469177" lon="14.1837734"><ele>227.0</ele><time>2026-05-01T13:09:31.304Z</time></trkpt><trkpt lat="42.2468365" lon="14.1837296"><ele>228.50000000000003</ele><time>2026-05-01T13:09:32.288Z</time></trkpt><trkpt lat="42.2467676" lon="14.183704"><ele>230.0</ele><time>2026-05-01T13:09:33.296Z</time></trkpt><trkpt lat="42.2467039" lon="14.1837016"><ele>231.5</ele><time>2026-05-01T13:09:34.296Z</time></trkpt><trkpt lat="42.2466034" lon="14.1837074"><ele>233.0</ele><time>2026-05-01T13:09:36.273Z</time></trkpt><trkpt lat="42.2465211" lon="14.1837278"><ele>234.50000000000003</ele><time>2026-05-01T13:09:38.296Z</time></trkpt><trkpt lat="42.246454" lon="14.1837345"><ele>236.0</ele><time>2026-05-01T13:09:40.284Z</time></trkpt><trkpt lat="42.2464958" lon="14.1838011"><ele>236.0</ele><time>2026-05-01T13:09:45.287Z</time></trkpt><trkpt lat="42.2466344" lon="14.1837802"><ele>236.00000000000003</ele><time>2026-05-01T13:09:47.287Z</time></trkpt><trkpt lat="42.2467243" lon="14.1837642"><ele>236.00000000000003</ele><time>2026-05-01T13:09:48.297Z</time></trkpt><trkpt lat="42.2468203" lon="14.183773"><ele>236.0</ele><time>2026-05-01T13:09:49.286Z</time></trkpt><trkpt lat="42.2469198" lon="14.1838121"><ele>236.0</ele><time>2026-05-01T13:09:50.281Z</time></trkpt><trkpt lat="42.2470129" lon="14.1838805"><ele>236.0</ele><time>2026-05-01T13:09:51.298Z</time></trkpt><trkpt lat="42.2470922" lon="14.1839599"><ele>236.00000000000003</ele><time>2026-05-01T13:09:52.285Z</time></trkpt><trkpt lat="42.2471552" lon="14.1840418"><ele>236.00000000000003</ele><time>2026-05-01T13:09:53.29Z</time></trkpt><trkpt lat="42.2472043" lon="14.1841206"><ele>236.0</ele><time>2026-05-01T13:09:54.282Z</time></trkpt><trkpt lat="42.2472734" lon="14.1842375"><ele>236.0</ele><time>2026-05-01T13:09:56.281Z</time></trkpt><trkpt lat="42.2473331" lon="14.1843281"><ele>234.4</ele><time>2026-05-01T13:09:58.288Z</time></trkpt><trkpt lat="42.2473857" lon="14.1844054"><ele>232.8</ele><time>2026-05-01T13:10:00.197Z</time></trkpt><trkpt lat="42.2474362" lon="14.1845103"><ele>231.20000000000002</ele><time>2026-05-01T13:10:02.29Z</time></trkpt><trkpt lat="42.2475042" lon="14.1846118"><ele>229.60000000000002</ele><time>2026-05-01T13:10:04.294Z</time></trkpt><trkpt lat="42.2475858" lon="14.1847242"><ele>228.0</ele><time>2026-05-01T13:10:06.278Z</time></trkpt><trkpt lat="42.2476302" lon="14.1847903"><ele>226.83333333333334</ele><time>2026-05-01T13:10:07.282Z</time></trkpt><trkpt lat="42.2476707" lon="14.1848563"><ele>225.66666666666669</ele><time>2026-05-01T13:10:08.293Z</time></trkpt><trkpt lat="42.2477199" lon="14.1850048"><ele>224.5</ele><time>2026-05-01T13:10:10.287Z</time></trkpt><trkpt lat="42.2477325" lon="14.1850961"><ele>223.33333333333334</ele><time>2026-05-01T13:10:11.277Z</time></trkpt><trkpt lat="42.2477469" lon="14.1851983"><ele>222.16666666666669</ele><time>2026-05-01T13:10:12.288Z</time></trkpt><trkpt lat="42.2477554" lon="14.1853"><ele>221.0</ele><time>2026-05-01T13:10:13.282Z</time></trkpt><trkpt lat="42.2477787" lon="14.1854007"><ele>221.0</ele><time>2026-05-01T13:10:14.282Z</time></trkpt><trkpt lat="42.2478145" lon="14.1854988"><ele>221.00000000000003</ele><time>2026-05-01T13:10:15.285Z</time></trkpt><trkpt lat="42.2478557" lon="14.1856025"><ele>221.00000000000003</ele><time>2026-05-01T13:10:16.282Z</time></trkpt><trkpt lat="42.2479037" lon="14.1857078"><ele>221.0</ele><time>2026-05-01T13:10:17.287Z</time></trkpt><trkpt lat="42.2479577" lon="14.1858208"><ele>221.0</ele><time>2026-05-01T13:10:18.284Z</time></trkpt><trkpt lat="42.24801" lon="14.1859334"><ele>221.0</ele><time>2026-05-01T13:10:19.274Z</time></trkpt><trkpt lat="42.2480613" lon="14.1860391"><ele>221.00000000000003</ele><time>2026-05-01T13:10:20.272Z</time></trkpt><trkpt lat="42.2481181" lon="14.1861432"><ele>221.00000000000003</ele><time>2026-05-01T13:10:21.289Z</time></trkpt><trkpt lat="42.2481752" lon="14.1862306"><ele>221.0</ele><time>2026-05-01T13:10:22.292Z</time></trkpt><trkpt lat="42.2482424" lon="14.1862988"><ele>221.0</ele><time>2026-05-01T13:10:23.294Z</time></trkpt><trkpt lat="42.2483321" lon="14.1863453"><ele>221.0</ele><time>2026-05-01T13:10:24.282Z</time></trkpt><trkpt lat="42.2484299" lon="14.1863773"><ele>221.00000000000003</ele><time>2026-05-01T13:10:25.301Z</time></trkpt><trkpt lat="42.2485268" lon="14.1864225"><ele>221.00000000000003</ele><time>2026-05-01T13:10:26.276Z</time></trkpt><trkpt lat="42.2486151" lon="14.1864633"><ele>221.0</ele><time>2026-05-01T13:10:27.279Z</time></trkpt><trkpt lat="42.2486985" lon="14.1865113"><ele>221.0</ele><time>2026-05-01T13:10:28.292Z</time></trkpt><trkpt lat="42.2487733" lon="14.1865521"><ele>221.00000000000003</ele><time>2026-05-01T13:10:29.277Z</time></trkpt><trkpt lat="42.2488417" lon="14.1865758"><ele>221.0</ele><time>2026-05-01T13:10:30.286Z</time></trkpt><trkpt lat="42.2489084" lon="14.1865734"><ele>221.0</ele><time>2026-05-01T13:10:31.292Z</time></trkpt><trkpt lat="42.2489746" lon="14.1865737"><ele>221.0</ele><time>2026-05-01T13:10:32.277Z</time></trkpt><trkpt lat="42.2490869" lon="14.1865724"><ele>221.00000000000003</ele><time>2026-05-01T13:10:34.266Z</time></trkpt><trkpt lat="42.24917" lon="14.1865843"><ele>221.0</ele><time>2026-05-01T13:10:36.283Z</time></trkpt><trkpt lat="42.2491916" lon="14.1866673"><ele>221.0</ele><time>2026-05-01T13:10:38.291Z</time></trkpt><trkpt lat="42.2491825" lon="14.1868254"><ele>221.00000000000003</ele><time>2026-05-01T13:10:40.287Z</time></trkpt><trkpt lat="42.2491742" lon="14.1869171"><ele>221.00000000000003</ele><time>2026-05-01T13:10:41.287Z</time></trkpt><trkpt lat="42.2491668" lon="14.1870272"><ele>221.0</ele><time>2026-05-01T13:10:42.277Z</time></trkpt><trkpt lat="42.2491573" lon="14.18715"><ele>221.0</ele><time>2026-05-01T13:10:43.293Z</time></trkpt><trkpt lat="42.2491474" lon="14.1872895"><ele>220.60000000000002</ele><time>2026-05-01T13:10:44.287Z</time></trkpt><trkpt lat="42.2491401" lon="14.1874351"><ele>220.20000000000002</ele><time>2026-05-01T13:10:45.275Z</time></trkpt><trkpt lat="42.2491326" lon="14.1875859"><ele>219.79999999999998</ele><time>2026-05-01T13:10:46.29Z</time></trkpt><trkpt lat="42.2491234" lon="14.1877287"><ele>219.39999999999998</ele><time>2026-05-01T13:10:47.3Z</time></trkpt><trkpt lat="42.2491117" lon="14.1878575"><ele>219.0</ele><time>2026-05-01T13:10:48.276Z</time></trkpt><trkpt lat="42.2490914" lon="14.1879772"><ele>219.0</ele><time>2026-05-01T13:10:49.293Z</time></trkpt><trkpt lat="42.2490567" lon="14.1880931"><ele>218.99999999999997</ele><time>2026-05-01T13:10:50.284Z</time></trkpt><trkpt lat="42.2490182" lon="14.188196"><ele>218.99999999999997</ele><time>2026-05-01T13:10:51.29Z</time></trkpt><trkpt lat="42.2489826" lon="14.1882898"><ele>219.0</ele><time>2026-05-01T13:10:52.285Z</time></trkpt><trkpt lat="42.2489691" lon="14.1884316"><ele>219.0</ele><time>2026-05-01T13:10:54.293Z</time></trkpt><trkpt lat="42.2490652" lon="14.1885572"><ele>219.6</ele><time>2026-05-01T13:10:56.288Z</time></trkpt><trkpt lat="42.2491423" lon="14.1885901"><ele>220.2</ele><time>2026-05-01T13:10:57.292Z</time></trkpt><trkpt lat="42.2492273" lon="14.1885994"><ele>220.79999999999998</ele><time>2026-05-01T13:10:58.288Z</time></trkpt><trkpt lat="42.2493232" lon="14.18861"><ele>221.39999999999998</ele><time>2026-05-01T13:10:59.284Z</time></trkpt><trkpt lat="42.2494246" lon="14.1886309"><ele>222.0</ele><time>2026-05-01T13:11:00.287Z</time></trkpt><trkpt lat="42.2495356" lon="14.1886583"><ele>222.0</ele><time>2026-05-01T13:11:01.291Z</time></trkpt><trkpt lat="42.2496529" lon="14.1886972"><ele>222.0</ele><time>2026-05-01T13:11:02.289Z</time></trkpt><trkpt lat="42.2497691" lon="14.1887449"><ele>222.0</ele><time>2026-05-01T13:11:03.303Z</time></trkpt><trkpt lat="42.2498928" lon="14.1888093"><ele>222.0</ele><time>2026-05-01T13:11:04.291Z</time></trkpt><trkpt lat="42.2500189" lon="14.188899"><ele>221.5</ele><time>2026-05-01T13:11:05.279Z</time></trkpt><trkpt lat="42.2501496" lon="14.1889967"><ele>221.0</ele><time>2026-05-01T13:11:06.28Z</time></trkpt><trkpt lat="42.2502804" lon="14.1890982"><ele>220.5</ele><time>2026-05-01T13:11:07.288Z</time></trkpt><trkpt lat="42.2504071" lon="14.1891866"><ele>220.0</ele><time>2026-05-01T13:11:08.292Z</time></trkpt><trkpt lat="42.2505389" lon="14.189257"><ele>221.25</ele><time>2026-05-01T13:11:09.293Z</time></trkpt><trkpt lat="42.2506742" lon="14.1892916"><ele>222.5</ele><time>2026-05-01T13:11:10.286Z</time></trkpt><trkpt lat="42.2508068" lon="14.1892816"><ele>223.75</ele><time>2026-05-01T13:11:11.286Z</time></trkpt><trkpt lat="42.2509413" lon="14.1892243"><ele>225.0</ele><time>2026-05-01T13:11:12.292Z</time></trkpt><trkpt lat="42.2510608" lon="14.1891272"><ele>225.0</ele><time>2026-05-01T13:11:13.286Z</time></trkpt><trkpt lat="42.251175" lon="14.1890207"><ele>225.0</ele><time>2026-05-01T13:11:14.287Z</time></trkpt><trkpt lat="42.2512931" lon="14.1889034"><ele>225.0</ele><time>2026-05-01T13:11:15.281Z</time></trkpt><trkpt lat="42.2514118" lon="14.1888057"><ele>225.0</ele><time>2026-05-01T13:11:16.282Z</time></trkpt><trkpt lat="42.2515281" lon="14.1887179"><ele>224.75</ele><time>2026-05-01T13:11:17.291Z</time></trkpt><trkpt lat="42.2516338" lon="14.1886417"><ele>224.5</ele><time>2026-05-01T13:11:18.278Z</time></trkpt><trkpt lat="42.2517386" lon="14.1885804"><ele>224.25</ele><time>2026-05-01T13:11:19.286Z</time></trkpt><trkpt lat="42.2518473" lon="14.1885322"><ele>224.0</ele><time>2026-05-01T13:11:20.288Z</time></trkpt><trkpt lat="42.2519648" lon="14.188497"><ele>224.0</ele><time>2026-05-01T13:11:21.298Z</time></trkpt><trkpt lat="42.2520877" lon="14.1884837"><ele>224.0</ele><time>2026-05-01T13:11:22.294Z</time></trkpt><trkpt lat="42.2522118" lon="14.1884928"><ele>224.0</ele><time>2026-05-01T13:11:23.281Z</time></trkpt><trkpt lat="42.2523262" lon="14.1885166"><ele>224.0</ele><time>2026-05-01T13:11:24.285Z</time></trkpt><trkpt lat="42.2524206" lon="14.1885436"><ele>223.83333333333334</ele><time>2026-05-01T13:11:25.288Z</time></trkpt><trkpt lat="42.2525036" lon="14.1885667"><ele>223.66666666666669</ele><time>2026-05-01T13:11:26.286Z</time></trkpt><trkpt lat="42.2525788" lon="14.1885836"><ele>223.5</ele><time>2026-05-01T13:11:27.284Z</time></trkpt><trkpt lat="42.2526426" lon="14.1885964"><ele>223.33333333333331</ele><time>2026-05-01T13:11:28.286Z</time></trkpt><trkpt lat="42.2527458" lon="14.1886113"><ele>223.16666666666666</ele><time>2026-05-01T13:11:30.297Z</time></trkpt><trkpt lat="42.2528139" lon="14.1886262"><ele>223.0</ele><time>2026-05-01T13:11:32.275Z</time></trkpt><trkpt lat="42.2528797" lon="14.1886159"><ele>222.99999999999997</ele><time>2026-05-01T13:11:47.287Z</time></trkpt><trkpt lat="42.2528112" lon="14.1885517"><ele>223.0</ele><time>2026-05-01T13:11:51.295Z</time></trkpt><trkpt lat="42.2527058" lon="14.1885233"><ele>223.0</ele><time>2026-05-01T13:11:53.286Z</time></trkpt><trkpt lat="42.2526408" lon="14.1885095"><ele>223.0</ele><time>2026-05-01T13:11:54.285Z</time></trkpt><trkpt lat="42.252569" lon="14.1884984"><ele>222.99999999999997</ele><time>2026-05-01T13:11:55.293Z</time></trkpt><trkpt lat="42.2524951" lon="14.1884854"><ele>223.0</ele><time>2026-05-01T13:11:56.288Z</time></trkpt><trkpt lat="42.2524163" lon="14.1884704"><ele>222.99999999999997</ele><time>2026-05-01T13:11:57.299Z</time></trkpt><trkpt lat="42.2523353" lon="14.1884509"><ele>223.0</ele><time>2026-05-01T13:11:58.281Z</time></trkpt><trkpt lat="42.2522522" lon="14.1884365"><ele>223.0</ele><time>2026-05-01T13:11:59.273Z</time></trkpt><trkpt lat="42.2521726" lon="14.1884304"><ele>223.0</ele><time>2026-05-01T13:12:00.267Z</time></trkpt><trkpt lat="42.2521011" lon="14.1884344"><ele>222.99999999999997</ele><time>2026-05-01T13:12:01.288Z</time></trkpt><trkpt lat="42.2519742" lon="14.1884433"><ele>223.0</ele><time>2026-05-01T13:12:03.264Z</time></trkpt><trkpt lat="42.2519024" lon="14.1884566"><ele>223.2</ele><time>2026-05-01T13:12:04.267Z</time></trkpt><trkpt lat="42.2518369" lon="14.1884683"><ele>223.4</ele><time>2026-05-01T13:12:05.267Z</time></trkpt><trkpt lat="42.251763" lon="14.188454"><ele>223.59999999999997</ele><time>2026-05-01T13:12:07.28Z</time></trkpt><trkpt lat="42.2517216" lon="14.1883297"><ele>223.79999999999998</ele><time>2026-05-01T13:12:11.281Z</time></trkpt><trkpt lat="42.2517328" lon="14.1881919"><ele>224.0</ele><time>2026-05-01T13:12:13.294Z</time></trkpt><trkpt lat="42.2517659" lon="14.1880286"><ele>223.50000000000003</ele><time>2026-05-01T13:12:15.296Z</time></trkpt><trkpt lat="42.2518151" lon="14.1879454"><ele>223.0</ele><time>2026-05-01T13:12:16.285Z</time></trkpt><trkpt lat="42.2518719" lon="14.1878748"><ele>222.5</ele><time>2026-05-01T13:12:17.286Z</time></trkpt><trkpt lat="42.2519244" lon="14.187811"><ele>222.0</ele><time>2026-05-01T13:12:18.293Z</time></trkpt><trkpt lat="42.2519777" lon="14.1877561"><ele>221.50000000000003</ele><time>2026-05-01T13:12:19.295Z</time></trkpt><trkpt lat="42.2520712" lon="14.1876618"><ele>221.0</ele><time>2026-05-01T13:12:21.295Z</time></trkpt><trkpt lat="42.2521512" lon="14.1875453"><ele>221.00000000000003</ele><time>2026-05-01T13:12:23.298Z</time></trkpt><trkpt lat="42.2521894" lon="14.1874671"><ele>221.0</ele><time>2026-05-01T13:12:24.283Z</time></trkpt><trkpt lat="42.2522229" lon="14.1873801"><ele>221.0</ele><time>2026-05-01T13:12:25.282Z</time></trkpt><trkpt lat="42.2522414" lon="14.1872821"><ele>221.0</ele><time>2026-05-01T13:12:26.287Z</time></trkpt><trkpt lat="42.2522478" lon="14.1871832"><ele>221.00000000000003</ele><time>2026-05-01T13:12:27.29Z</time></trkpt><trkpt lat="42.2522598" lon="14.1870731"><ele>221.0</ele><time>2026-05-01T13:12:29.298Z</time></trkpt><trkpt lat="42.2522221" lon="14.1869468"><ele>220.33333333333334</ele><time>2026-05-01T13:12:35.293Z</time></trkpt><trkpt lat="42.2521258" lon="14.1868743"><ele>219.66666666666669</ele><time>2026-05-01T13:12:37.289Z</time></trkpt><trkpt lat="42.2520997" lon="14.1867806"><ele>219.0</ele><time>2026-05-01T13:12:39.289Z</time></trkpt><trkpt lat="42.25212" lon="14.1866994"><ele>218.33333333333331</ele><time>2026-05-01T13:12:41.304Z</time></trkpt><trkpt lat="42.2520948" lon="14.1868041"><ele>217.66666666666666</ele><time>2026-05-01T13:12:55.298Z</time></trkpt><trkpt lat="42.2521373" lon="14.1868783"><ele>217.0</ele><time>2026-05-01T13:12:57.29Z</time></trkpt><trkpt lat="42.2522165" lon="14.1869584"><ele>217.49999999999997</ele><time>2026-05-01T13:12:59.301Z</time></trkpt><trkpt lat="42.2523233" lon="14.1870211"><ele>218.0</ele><time>2026-05-01T13:13:01.288Z</time></trkpt><trkpt lat="42.2523879" lon="14.1870409"><ele>218.5</ele><time>2026-05-01T13:13:02.277Z</time></trkpt><trkpt lat="42.2524548" lon="14.1870753"><ele>219.0</ele><time>2026-05-01T13:13:03.282Z</time></trkpt><trkpt lat="42.2525271" lon="14.1871196"><ele>219.49999999999997</ele><time>2026-05-01T13:13:04.288Z</time></trkpt><trkpt lat="42.2525922" lon="14.1871816"><ele>220.0</ele><time>2026-05-01T13:13:05.285Z</time></trkpt><trkpt lat="42.2526589" lon="14.1872567"><ele>219.99999999999997</ele><time>2026-05-01T13:13:06.285Z</time></trkpt><trkpt lat="42.2527206" lon="14.1873381"><ele>220.0</ele><time>2026-05-01T13:13:07.288Z</time></trkpt><trkpt lat="42.2527602" lon="14.1874054"><ele>220.0</ele><time>2026-05-01T13:13:08.282Z</time></trkpt><trkpt lat="42.2527944" lon="14.1875034"><ele>220.0</ele><time>2026-05-01T13:13:10.295Z</time></trkpt><trkpt lat="42.2527591" lon="14.1873917"><ele>219.99999999999997</ele><time>2026-05-01T13:13:29.262Z</time></trkpt><trkpt lat="42.2527017" lon="14.1873165"><ele>220.0</ele><time>2026-05-01T13:13:31.274Z</time></trkpt><trkpt lat="42.2526447" lon="14.1872545"><ele>219.99999999999997</ele><time>2026-05-01T13:13:36.264Z</time></trkpt><trkpt lat="42.2525835" lon="14.1871834"><ele>220.0</ele><time>2026-05-01T13:13:56.272Z</time></trkpt><trkpt lat="42.2525206" lon="14.1871223"><ele>220.0</ele><time>2026-05-01T13:13:58.272Z</time></trkpt><trkpt lat="42.2524527" lon="14.1870742"><ele>220.0</ele><time>2026-05-01T13:14:00.275Z</time></trkpt><trkpt lat="42.2523923" lon="14.1870247"><ele>219.99999999999997</ele><time>2026-05-01T13:14:08.281Z</time></trkpt><trkpt lat="42.2524047" lon="14.1869392"><ele>220.0</ele><time>2026-05-01T13:14:11.286Z</time></trkpt><trkpt lat="42.2524554" lon="14.1868515"><ele>220.0</ele><time>2026-05-01T13:14:13.301Z</time></trkpt><trkpt lat="42.2525161" lon="14.1867464"><ele>220.0</ele><time>2026-05-01T13:14:15.293Z</time></trkpt><trkpt lat="42.2525776" lon="14.1866165"><ele>220.0</ele><time>2026-05-01T13:14:17.292Z</time></trkpt><trkpt lat="42.2526089" lon="14.1865389"><ele>220.0</ele><time>2026-05-01T13:14:18.309Z</time></trkpt><trkpt lat="42.2526703" lon="14.1863984"><ele>220.0</ele><time>2026-05-01T13:14:20.287Z</time></trkpt><trkpt lat="42.2527235" lon="14.1862791"><ele>218.8</ele><time>2026-05-01T13:14:22.294Z</time></trkpt><trkpt lat="42.2527682" lon="14.1861517"><ele>217.6</ele><time>2026-05-01T13:14:24.31Z</time></trkpt><trkpt lat="42.252827" lon="14.1860186"><ele>216.39999999999998</ele><time>2026-05-01T13:14:26.3Z</time></trkpt><trkpt lat="42.2528858" lon="14.1859071"><ele>215.2</ele><time>2026-05-01T13:14:28.296Z</time></trkpt><trkpt lat="42.2529409" lon="14.1857926"><ele>214.0</ele><time>2026-05-01T13:14:30.292Z</time></trkpt><trkpt lat="42.2529945" lon="14.1856782"><ele>213.16666666666666</ele><time>2026-05-01T13:14:32.279Z</time></trkpt><trkpt lat="42.2530309" lon="14.1855879"><ele>212.33333333333331</ele><time>2026-05-01T13:14:34.289Z</time></trkpt><trkpt lat="42.2530587" lon="14.1854852"><ele>211.5</ele><time>2026-05-01T13:14:36.286Z</time></trkpt><trkpt lat="42.2531187" lon="14.185416"><ele>210.66666666666669</ele><time>2026-05-01T13:14:39.265Z</time></trkpt><trkpt lat="42.2532049" lon="14.1854615"><ele>209.83333333333334</ele><time>2026-05-01T13:14:42.288Z</time></trkpt><trkpt lat="42.2532953" lon="14.1855366"><ele>209.0</ele><time>2026-05-01T13:14:44.288Z</time></trkpt><trkpt lat="42.2533907" lon="14.1855908"><ele>209.0</ele><time>2026-05-01T13:14:46.279Z</time></trkpt><trkpt lat="42.2534884" lon="14.1856448"><ele>209.0</ele><time>2026-05-01T13:14:48.285Z</time></trkpt><trkpt lat="42.2535884" lon="14.1857331"><ele>209.0</ele><time>2026-05-01T13:14:50.293Z</time></trkpt><trkpt lat="42.2536599" lon="14.1857946"><ele>209.0</ele><time>2026-05-01T13:14:52.285Z</time></trkpt><trkpt lat="42.2537124" lon="14.1858522"><ele>209.0</ele><time>2026-05-01T13:14:54.289Z</time></trkpt><trkpt lat="42.2537091" lon="14.185985"><ele>210.2</ele><time>2026-05-01T13:14:56.294Z</time></trkpt><trkpt lat="42.2537083" lon="14.1861057"><ele>211.39999999999998</ele><time>2026-05-01T13:14:58.281Z</time></trkpt><trkpt lat="42.2537085" lon="14.1862445"><ele>212.6</ele><time>2026-05-01T13:15:01.276Z</time></trkpt><trkpt lat="42.2537022" lon="14.1864214"><ele>213.8</ele><time>2026-05-01T13:15:03.264Z</time></trkpt><trkpt lat="42.2536909" lon="14.1865188"><ele>215.0</ele><time>2026-05-01T13:15:04.272Z</time></trkpt><trkpt lat="42.2536607" lon="14.1866063"><ele>215.33333333333334</ele><time>2026-05-01T13:15:05.289Z</time></trkpt><trkpt lat="42.2536216" lon="14.1866747"><ele>215.66666666666669</ele><time>2026-05-01T13:15:06.263Z</time></trkpt><trkpt lat="42.2535432" lon="14.1867254"><ele>216.0</ele><time>2026-05-01T13:15:08.276Z</time></trkpt><trkpt lat="42.2534811" lon="14.1866916"><ele>216.33333333333331</ele><time>2026-05-01T13:15:15.268Z</time></trkpt><trkpt lat="42.2535597" lon="14.1867249"><ele>216.66666666666666</ele><time>2026-05-01T13:15:28.281Z</time></trkpt><trkpt lat="42.2536396" lon="14.1866478"><ele>217.0</ele><time>2026-05-01T13:15:31.3Z</time></trkpt><trkpt lat="42.2536875" lon="14.1865343"><ele>216.66666666666666</ele><time>2026-05-01T13:15:33.284Z</time></trkpt><trkpt lat="42.2537086" lon="14.1863971"><ele>216.33333333333331</ele><time>2026-05-01T13:15:35.269Z</time></trkpt><trkpt lat="42.2537077" lon="14.1862703"><ele>216.0</ele><time>2026-05-01T13:15:37.268Z</time></trkpt><trkpt lat="42.2537172" lon="14.1861825"><ele>215.66666666666669</ele><time>2026-05-01T13:15:39.268Z</time></trkpt><trkpt lat="42.2537188" lon="14.1860624"><ele>215.33333333333334</ele><time>2026-05-01T13:15:41.303Z</time></trkpt><trkpt lat="42.2537159" lon="14.1859737"><ele>215.0</ele><time>2026-05-01T13:15:43.267Z</time></trkpt><trkpt lat="42.2537349" lon="14.1860675"><ele>215.00000000000003</ele><time>2026-05-01T13:16:00.28Z</time></trkpt><trkpt lat="42.2537686" lon="14.1861475"><ele>215.0</ele><time>2026-05-01T13:16:02.273Z</time></trkpt><trkpt lat="42.2538434" lon="14.1861605"><ele>215.0</ele><time>2026-05-01T13:16:04.275Z</time></trkpt><trkpt lat="42.2539258" lon="14.1861709"><ele>215.0</ele><time>2026-05-01T13:16:06.302Z</time></trkpt><trkpt lat="42.2540032" lon="14.1862279"><ele>215.00000000000003</ele><time>2026-05-01T13:16:08.286Z</time></trkpt><trkpt lat="42.2540875" lon="14.1863142"><ele>215.0</ele><time>2026-05-01T13:16:10.266Z</time></trkpt><trkpt lat="42.2541687" lon="14.1863373"><ele>213.2</ele><time>2026-05-01T13:16:12.291Z</time></trkpt><trkpt lat="42.2541902" lon="14.1862523"><ele>211.4</ele><time>2026-05-01T13:16:15.294Z</time></trkpt><trkpt lat="42.2541785" lon="14.1861327"><ele>209.60000000000002</ele><time>2026-05-01T13:16:18.284Z</time></trkpt><trkpt lat="42.2542371" lon="14.1860203"><ele>207.8</ele><time>2026-05-01T13:16:20.293Z</time></trkpt><trkpt lat="42.2543075" lon="14.185969"><ele>206.0</ele><time>2026-05-01T13:16:22.284Z</time></trkpt><trkpt lat="42.2544172" lon="14.1860185"><ele>206.0</ele><time>2026-05-01T13:16:24.288Z</time></trkpt><trkpt lat="42.2544858" lon="14.1860741"><ele>206.0</ele><time>2026-05-01T13:16:25.272Z</time></trkpt><trkpt lat="42.2545609" lon="14.1861218"><ele>206.0</ele><time>2026-05-01T13:16:26.275Z</time></trkpt><trkpt lat="42.2546441" lon="14.1861725"><ele>206.0</ele><time>2026-05-01T13:16:27.29Z</time></trkpt><trkpt lat="42.2547367" lon="14.186232"><ele>206.0</ele><time>2026-05-01T13:16:28.273Z</time></trkpt><trkpt lat="42.2548244" lon="14.1863021"><ele>205.66666666666669</ele><time>2026-05-01T13:16:29.29Z</time></trkpt><trkpt lat="42.2548908" lon="14.1863621"><ele>205.33333333333334</ele><time>2026-05-01T13:16:30.298Z</time></trkpt><trkpt lat="42.2549755" lon="14.1864362"><ele>205.0</ele><time>2026-05-01T13:16:32.29Z</time></trkpt><trkpt lat="42.255068" lon="14.1864384"><ele>204.66666666666669</ele><time>2026-05-01T13:16:45.295Z</time></trkpt><trkpt lat="42.2551427" lon="14.1864439"><ele>204.33333333333334</ele><time>2026-05-01T13:16:47.296Z</time></trkpt><trkpt lat="42.2552061" lon="14.1864605"><ele>204.0</ele><time>2026-05-01T13:16:51.299Z</time></trkpt><trkpt lat="42.2552657" lon="14.1865061"><ele>204.0</ele><time>2026-05-01T13:16:55.276Z</time></trkpt><trkpt lat="42.2553124" lon="14.1865658"><ele>204.0</ele><time>2026-05-01T13:17:16.289Z</time></trkpt><trkpt lat="42.255388" lon="14.1866167"><ele>204.0</ele><time>2026-05-01T13:17:19.294Z</time></trkpt><trkpt lat="42.2554347" lon="14.1865439"><ele>204.0</ele><time>2026-05-01T13:20:07.292Z</time></trkpt><trkpt lat="42.2554844" lon="14.1864735"><ele>204.0</ele><time>2026-05-01T13:20:27.264Z</time></trkpt><trkpt lat="42.2555411" lon="14.1864264"><ele>204.0</ele><time>2026-05-01T13:20:29.299Z</time></trkpt><trkpt lat="42.255639" lon="14.1863694"><ele>204.2</ele><time>2026-05-01T13:20:31.274Z</time></trkpt><trkpt lat="42.2557375" lon="14.1863205"><ele>204.39999999999998</ele><time>2026-05-01T13:20:33.267Z</time></trkpt><trkpt lat="42.2557947" lon="14.186238"><ele>204.6</ele><time>2026-05-01T13:20:35.3Z</time></trkpt><trkpt lat="42.2558211" lon="14.1860852"><ele>204.8</ele><time>2026-05-01T13:20:39.271Z</time></trkpt><trkpt lat="42.2558486" lon="14.1859664"><ele>205.0</ele><time>2026-05-01T13:20:42.265Z</time></trkpt><trkpt lat="42.2558768" lon="14.185884"><ele>204.99999999999997</ele><time>2026-05-01T13:20:44.266Z</time></trkpt><trkpt lat="42.2559056" lon="14.1857966"><ele>205.0</ele><time>2026-05-01T13:20:47.288Z</time></trkpt><trkpt lat="42.2559645" lon="14.1857335"><ele>205.0</ele><time>2026-05-01T13:27:49.292Z</time></trkpt><trkpt lat="42.256011" lon="14.1856581"><ele>205.0</ele><time>2026-05-01T13:27:51.28Z</time></trkpt><trkpt lat="42.2560707" lon="14.1855686"><ele>204.99999999999997</ele><time>2026-05-01T13:27:53.298Z</time></trkpt><trkpt lat="42.25614" lon="14.1854602"><ele>205.0</ele><time>2026-05-01T13:27:55.291Z</time></trkpt><trkpt lat="42.2561788" lon="14.1853897"><ele>205.99999999999997</ele><time>2026-05-01T13:27:56.276Z</time></trkpt><trkpt lat="42.2562269" lon="14.1853062"><ele>207.0</ele><time>2026-05-01T13:27:57.278Z</time></trkpt><trkpt lat="42.2562723" lon="14.1852304"><ele>208.0</ele><time>2026-05-01T13:27:58.263Z</time></trkpt><trkpt lat="42.2563461" lon="14.1851406"><ele>209.0</ele><time>2026-05-01T13:28:00.29Z</time></trkpt><trkpt lat="42.2564135" lon="14.1851077"><ele>209.99999999999997</ele><time>2026-05-01T13:28:02.284Z</time></trkpt><trkpt lat="42.2565069" lon="14.1851023"><ele>211.0</ele><time>2026-05-01T13:28:04.257Z</time></trkpt><trkpt lat="42.2565877" lon="14.1851402"><ele>212.66666666666666</ele><time>2026-05-01T13:28:06.257Z</time></trkpt><trkpt lat="42.2566466" lon="14.1852073"><ele>214.33333333333331</ele><time>2026-05-01T13:28:08.255Z</time></trkpt><trkpt lat="42.2566685" lon="14.1851163"><ele>216.0</ele><time>2026-05-01T13:33:20.283Z</time></trkpt><trkpt lat="42.2566999" lon="14.1850306"><ele>217.66666666666669</ele><time>2026-05-01T13:33:22.267Z</time></trkpt><trkpt lat="42.2567577" lon="14.1849359"><ele>219.33333333333334</ele><time>2026-05-01T13:33:24.275Z</time></trkpt><trkpt lat="42.2568121" lon="14.1848524"><ele>221.0</ele><time>2026-05-01T13:33:26.269Z</time></trkpt><trkpt lat="42.2568852" lon="14.1847716"><ele>222.20000000000002</ele><time>2026-05-01T13:33:28.259Z</time></trkpt><trkpt lat="42.2569511" lon="14.1846872"><ele>223.40000000000003</ele><time>2026-05-01T13:33:30.281Z</time></trkpt><trkpt lat="42.2570345" lon="14.184619"><ele>224.6</ele><time>2026-05-01T13:33:32.266Z</time></trkpt><trkpt lat="42.2571294" lon="14.1845443"><ele>225.8</ele><time>2026-05-01T13:33:34.279Z</time></trkpt><trkpt lat="42.2572306" lon="14.1844684"><ele>227.0</ele><time>2026-05-01T13:33:36.277Z</time></trkpt><trkpt lat="42.2573284" lon="14.1843804"><ele>227.39999999999998</ele><time>2026-05-01T13:33:38.289Z</time></trkpt><trkpt lat="42.2574161" lon="14.1842931"><ele>227.79999999999998</ele><time>2026-05-01T13:33:40.27Z</time></trkpt><trkpt lat="42.2574951" lon="14.1842083"><ele>228.2</ele><time>2026-05-01T13:33:42.26Z</time></trkpt><trkpt lat="42.2575531" lon="14.1841106"><ele>228.6</ele><time>2026-05-01T13:33:44.267Z</time></trkpt><trkpt lat="42.2575807" lon="14.1840119"><ele>229.0</ele><time>2026-05-01T13:33:46.27Z</time></trkpt><trkpt lat="42.257593" lon="14.1839135"><ele>230.2</ele><time>2026-05-01T13:33:48.262Z</time></trkpt><trkpt lat="42.2576067" lon="14.1837977"><ele>231.39999999999998</ele><time>2026-05-01T13:33:50.264Z</time></trkpt><trkpt lat="42.2575958" lon="14.1836677"><ele>232.6</ele><time>2026-05-01T13:33:52.261Z</time></trkpt><trkpt lat="42.2575666" lon="14.1834884"><ele>233.8</ele><time>2026-05-01T13:33:54.263Z</time></trkpt><trkpt lat="42.2575399" lon="14.1833904"><ele>235.0</ele><time>2026-05-01T13:33:55.261Z</time></trkpt><trkpt lat="42.2575158" lon="14.1832922"><ele>237.2</ele><time>2026-05-01T13:33:56.257Z</time></trkpt><trkpt lat="42.2574888" lon="14.1830975"><ele>239.4</ele><time>2026-05-01T13:33:58.268Z</time></trkpt><trkpt lat="42.2574811" lon="14.1830125"><ele>241.60000000000002</ele><time>2026-05-01T13:33:59.267Z</time></trkpt><trkpt lat="42.2574368" lon="14.1828783"><ele>243.8</ele><time>2026-05-01T13:34:01.261Z</time></trkpt><trkpt lat="42.2573343" lon="14.1827886"><ele>246.0</ele><time>2026-05-01T13:34:03.269Z</time></trkpt><trkpt lat="42.2572768" lon="14.1827486"><ele>246.4</ele><time>2026-05-01T13:34:04.259Z</time></trkpt><trkpt lat="42.257213" lon="14.1827199"><ele>246.8</ele><time>2026-05-01T13:34:05.262Z</time></trkpt><trkpt lat="42.2571536" lon="14.1826915"><ele>247.20000000000002</ele><time>2026-05-01T13:34:06.279Z</time></trkpt><trkpt lat="42.2570625" lon="14.1826187"><ele>247.60000000000002</ele><time>2026-05-01T13:34:08.257Z</time></trkpt><trkpt lat="42.2570821" lon="14.1824892"><ele>248.0</ele><time>2026-05-01T13:34:10.276Z</time></trkpt><trkpt lat="42.257097" lon="14.1823287"><ele>249.4</ele><time>2026-05-01T13:34:12.265Z</time></trkpt><trkpt lat="42.257103" lon="14.1821826"><ele>250.8</ele><time>2026-05-01T13:34:14.307Z</time></trkpt><trkpt lat="42.2571831" lon="14.1820822"><ele>252.2</ele><time>2026-05-01T13:34:16.259Z</time></trkpt><trkpt lat="42.2572449" lon="14.1820152"><ele>253.6</ele><time>2026-05-01T13:34:17.301Z</time></trkpt><trkpt lat="42.2573029" lon="14.181913"><ele>255.0</ele><time>2026-05-01T13:34:18.262Z</time></trkpt><trkpt lat="42.2573373" lon="14.1818123"><ele>255.0</ele><time>2026-05-01T13:34:19.267Z</time></trkpt><trkpt lat="42.2573674" lon="14.1816987"><ele>255.0</ele><time>2026-05-01T13:34:20.254Z</time></trkpt><trkpt lat="42.2573988" lon="14.1815824"><ele>255.0</ele><time>2026-05-01T13:34:21.261Z</time></trkpt><trkpt lat="42.2574307" lon="14.181466"><ele>255.0</ele><time>2026-05-01T13:34:22.269Z</time></trkpt><trkpt lat="42.2574636" lon="14.1813588"><ele>255.0</ele><time>2026-05-01T13:34:23.284Z</time></trkpt><trkpt lat="42.2574968" lon="14.1812703"><ele>255.0</ele><time>2026-05-01T13:34:24.281Z</time></trkpt><trkpt lat="42.2575359" lon="14.1812035"><ele>256.5</ele><time>2026-05-01T13:34:25.284Z</time></trkpt><trkpt lat="42.2575861" lon="14.1811346"><ele>258.0</ele><time>2026-05-01T13:34:26.281Z</time></trkpt><trkpt lat="42.2576333" lon="14.1810546"><ele>259.5</ele><time>2026-05-01T13:34:27.277Z</time></trkpt><trkpt lat="42.2576839" lon="14.1809578"><ele>261.0</ele><time>2026-05-01T13:34:28.27Z</time></trkpt><trkpt lat="42.2577309" lon="14.18085"><ele>262.5</ele><time>2026-05-01T13:34:29.277Z</time></trkpt><trkpt lat="42.2577811" lon="14.1807542"><ele>264.0</ele><time>2026-05-01T13:34:30.275Z</time></trkpt><trkpt lat="42.2578193" lon="14.1806472"><ele>266.59999999999997</ele><time>2026-05-01T13:34:31.286Z</time></trkpt><trkpt lat="42.257852" lon="14.1805312"><ele>269.2</ele><time>2026-05-01T13:34:32.284Z</time></trkpt><trkpt lat="42.2578767" lon="14.1804022"><ele>271.79999999999995</ele><time>2026-05-01T13:34:33.283Z</time></trkpt><trkpt lat="42.2578906" lon="14.1802706"><ele>274.4</ele><time>2026-05-01T13:34:34.28Z</time></trkpt><trkpt lat="42.2579001" lon="14.1801326"><ele>277.0</ele><time>2026-05-01T13:34:35.291Z</time></trkpt><trkpt lat="42.2579106" lon="14.1799994"><ele>277.0</ele><time>2026-05-01T13:34:36.278Z</time></trkpt><trkpt lat="42.2579183" lon="14.1798654"><ele>277.0</ele><time>2026-05-01T13:34:37.275Z</time></trkpt><trkpt lat="42.2579246" lon="14.1797267"><ele>277.0</ele><time>2026-05-01T13:34:38.269Z</time></trkpt><trkpt lat="42.257928" lon="14.179602"><ele>277.0</ele><time>2026-05-01T13:34:39.28Z</time></trkpt><trkpt lat="42.2579246" lon="14.1794967"><ele>277.0</ele><time>2026-05-01T13:34:40.274Z</time></trkpt><trkpt lat="42.257922" lon="14.1794094"><ele>277.0</ele><time>2026-05-01T13:34:41.277Z</time></trkpt><trkpt lat="42.2579479" lon="14.1792457"><ele>278.8333333333333</ele><time>2026-05-01T13:34:43.279Z</time></trkpt><trkpt lat="42.2579764" lon="14.1791509"><ele>280.66666666666663</ele><time>2026-05-01T13:34:44.288Z</time></trkpt><trkpt lat="42.2579903" lon="14.1790518"><ele>282.5</ele><time>2026-05-01T13:34:45.269Z</time></trkpt><trkpt lat="42.258011" lon="14.1789265"><ele>284.3333333333333</ele><time>2026-05-01T13:34:46.268Z</time></trkpt><trkpt lat="42.2580353" lon="14.17881"><ele>286.1666666666667</ele><time>2026-05-01T13:34:47.278Z</time></trkpt><trkpt lat="42.2580532" lon="14.1786957"><ele>288.0</ele><time>2026-05-01T13:34:48.268Z</time></trkpt><trkpt lat="42.2580642" lon="14.178576"><ele>290.0</ele><time>2026-05-01T13:34:49.276Z</time></trkpt><trkpt lat="42.2580739" lon="14.178454"><ele>292.0</ele><time>2026-05-01T13:34:50.281Z</time></trkpt><trkpt lat="42.2580845" lon="14.1783472"><ele>294.0</ele><time>2026-05-01T13:34:51.28Z</time></trkpt><trkpt lat="42.2581089" lon="14.1782213"><ele>296.0</ele><time>2026-05-01T13:34:53.309Z</time></trkpt><trkpt lat="42.2581055" lon="14.1780689"><ele>298.0</ele><time>2026-05-01T13:34:55.268Z</time></trkpt><trkpt lat="42.2581032" lon="14.1779704"><ele>299.16666666666663</ele><time>2026-05-01T13:34:56.281Z</time></trkpt><trkpt lat="42.2580771" lon="14.1778929"><ele>300.3333333333333</ele><time>2026-05-01T13:34:57.29Z</time></trkpt><trkpt lat="42.2579751" lon="14.1777976"><ele>301.5</ele><time>2026-05-01T13:34:59.279Z</time></trkpt><trkpt lat="42.2579232" lon="14.1777456"><ele>302.6666666666667</ele><time>2026-05-01T13:35:00.276Z</time></trkpt><trkpt lat="42.2578717" lon="14.1776941"><ele>303.83333333333337</ele><time>2026-05-01T13:35:01.285Z</time></trkpt><trkpt lat="42.2577467" lon="14.1777036"><ele>305.0</ele><time>2026-05-01T13:35:03.278Z</time></trkpt><trkpt lat="42.2576299" lon="14.1777373"><ele>305.0</ele><time>2026-05-01T13:35:05.279Z</time></trkpt><trkpt lat="42.2575141" lon="14.17771"><ele>305.0</ele><time>2026-05-01T13:35:07.28Z</time></trkpt><trkpt lat="42.2574048" lon="14.1777202"><ele>305.0</ele><time>2026-05-01T13:35:09.281Z</time></trkpt><trkpt lat="42.2573004" lon="14.177758"><ele>305.0</ele><time>2026-05-01T13:35:11.294Z</time></trkpt><trkpt lat="42.2572298" lon="14.1778042"><ele>305.0</ele><time>2026-05-01T13:35:13.304Z</time></trkpt><trkpt lat="42.2571955" lon="14.1778833"><ele>306.83333333333337</ele><time>2026-05-01T13:35:15.291Z</time></trkpt><trkpt lat="42.2571471" lon="14.177944"><ele>308.6666666666667</ele><time>2026-05-01T13:35:17.282Z</time></trkpt><trkpt lat="42.2570749" lon="14.1779326"><ele>310.5</ele><time>2026-05-01T13:35:20.285Z</time></trkpt><trkpt lat="42.2570623" lon="14.1778196"><ele>312.3333333333333</ele><time>2026-05-01T13:35:23.293Z</time></trkpt><trkpt lat="42.2570765" lon="14.1776674"><ele>314.16666666666663</ele><time>2026-05-01T13:35:25.29Z</time></trkpt><trkpt lat="42.2570904" lon="14.1775774"><ele>316.0</ele><time>2026-05-01T13:35:26.298Z</time></trkpt><trkpt lat="42.2571191" lon="14.1774721"><ele>316.0</ele><time>2026-05-01T13:35:27.279Z</time></trkpt><trkpt lat="42.257165" lon="14.1773823"><ele>316.0</ele><time>2026-05-01T13:35:28.286Z</time></trkpt><trkpt lat="42.2572147" lon="14.1772904"><ele>316.0</ele><time>2026-05-01T13:35:29.285Z</time></trkpt><trkpt lat="42.2572695" lon="14.1771945"><ele>316.0</ele><time>2026-05-01T13:35:30.276Z</time></trkpt><trkpt lat="42.2573194" lon="14.1771001"><ele>316.0</ele><time>2026-05-01T13:35:31.284Z</time></trkpt><trkpt lat="42.2573635" lon="14.1770079"><ele>316.0</ele><time>2026-05-01T13:35:32.282Z</time></trkpt><trkpt lat="42.2573997" lon="14.1769058"><ele>315.8333333333333</ele><time>2026-05-01T13:35:33.287Z</time></trkpt><trkpt lat="42.257431" lon="14.1767951"><ele>315.66666666666663</ele><time>2026-05-01T13:35:34.285Z</time></trkpt><trkpt lat="42.2574614" lon="14.17669"><ele>315.5</ele><time>2026-05-01T13:35:35.294Z</time></trkpt><trkpt lat="42.257491" lon="14.1765855"><ele>315.3333333333333</ele><time>2026-05-01T13:35:36.274Z</time></trkpt><trkpt lat="42.2575179" lon="14.1764934"><ele>315.1666666666667</ele><time>2026-05-01T13:35:37.291Z</time></trkpt><trkpt lat="42.2575396" lon="14.176406"><ele>315.0</ele><time>2026-05-01T13:35:38.285Z</time></trkpt><trkpt lat="42.2575676" lon="14.1762848"><ele>316.5</ele><time>2026-05-01T13:35:40.282Z</time></trkpt><trkpt lat="42.2575564" lon="14.1761664"><ele>318.0</ele><time>2026-05-01T13:35:42.276Z</time></trkpt><trkpt lat="42.2574697" lon="14.1761047"><ele>319.5</ele><time>2026-05-01T13:35:44.297Z</time></trkpt><trkpt lat="42.2574179" lon="14.1760531"><ele>321.0</ele><time>2026-05-01T13:35:45.289Z</time></trkpt><trkpt lat="42.257349" lon="14.1759921"><ele>322.5</ele><time>2026-05-01T13:35:46.279Z</time></trkpt><trkpt lat="42.2572907" lon="14.1759272"><ele>324.0</ele><time>2026-05-01T13:35:47.285Z</time></trkpt><trkpt lat="42.257234" lon="14.1758042"><ele>325.0</ele><time>2026-05-01T13:35:49.283Z</time></trkpt><trkpt lat="42.2572122" lon="14.1756643"><ele>326.0</ele><time>2026-05-01T13:35:51.279Z</time></trkpt><trkpt lat="42.2571857" lon="14.1755251"><ele>327.0</ele><time>2026-05-01T13:35:53.295Z</time></trkpt><trkpt lat="42.257175" lon="14.1754192"><ele>328.0</ele><time>2026-05-01T13:35:56.295Z</time></trkpt><trkpt lat="42.2571909" lon="14.1753225"><ele>329.0</ele><time>2026-05-01T13:35:58.279Z</time></trkpt><trkpt lat="42.2572224" lon="14.1752006"><ele>329.0</ele><time>2026-05-01T13:36:00.281Z</time></trkpt><trkpt lat="42.2572436" lon="14.1751127"><ele>329.0</ele><time>2026-05-01T13:36:01.266Z</time></trkpt><trkpt lat="42.2572758" lon="14.1750152"><ele>329.0</ele><time>2026-05-01T13:36:02.272Z</time></trkpt><trkpt lat="42.2573132" lon="14.1749108"><ele>329.0</ele><time>2026-05-01T13:36:03.285Z</time></trkpt><trkpt lat="42.2573575" lon="14.1747988"><ele>329.0</ele><time>2026-05-01T13:36:04.283Z</time></trkpt><trkpt lat="42.2574078" lon="14.1746782"><ele>329.0</ele><time>2026-05-01T13:36:05.286Z</time></trkpt><trkpt lat="42.257463" lon="14.1745531"><ele>331.5</ele><time>2026-05-01T13:36:06.272Z</time></trkpt><trkpt lat="42.257517" lon="14.1744211"><ele>334.0</ele><time>2026-05-01T13:36:07.28Z</time></trkpt><trkpt lat="42.2575732" lon="14.1742878"><ele>336.5</ele><time>2026-05-01T13:36:08.276Z</time></trkpt><trkpt lat="42.2576311" lon="14.1741509"><ele>339.0</ele><time>2026-05-01T13:36:09.296Z</time></trkpt><trkpt lat="42.2576896" lon="14.1740158"><ele>340.75</ele><time>2026-05-01T13:36:10.277Z</time></trkpt><trkpt lat="42.2577527" lon="14.1738853"><ele>342.5</ele><time>2026-05-01T13:36:11.283Z</time></trkpt><trkpt lat="42.2578244" lon="14.1737604"><ele>344.25</ele><time>2026-05-01T13:36:12.28Z</time></trkpt><trkpt lat="42.2579022" lon="14.1736328"><ele>346.0</ele><time>2026-05-01T13:36:13.289Z</time></trkpt><trkpt lat="42.2579861" lon="14.1735139"><ele>346.0</ele><time>2026-05-01T13:36:14.285Z</time></trkpt><trkpt lat="42.2580782" lon="14.1733989"><ele>346.0</ele><time>2026-05-01T13:36:15.28Z</time></trkpt><trkpt lat="42.2581673" lon="14.1733005"><ele>346.0</ele><time>2026-05-01T13:36:16.277Z</time></trkpt><trkpt lat="42.2582676" lon="14.1732043"><ele>346.0</ele><time>2026-05-01T13:36:17.291Z</time></trkpt><trkpt lat="42.2583747" lon="14.1731122"><ele>348.75</ele><time>2026-05-01T13:36:18.284Z</time></trkpt><trkpt lat="42.2584879" lon="14.1730562"><ele>351.5</ele><time>2026-05-01T13:36:19.274Z</time></trkpt><trkpt lat="42.2585986" lon="14.1730336"><ele>354.25</ele><time>2026-05-01T13:36:20.293Z</time></trkpt><trkpt lat="42.2587167" lon="14.1730381"><ele>357.0</ele><time>2026-05-01T13:36:21.277Z</time></trkpt><trkpt lat="42.2588331" lon="14.1730623"><ele>357.75</ele><time>2026-05-01T13:36:22.277Z</time></trkpt><trkpt lat="42.2589561" lon="14.1730686"><ele>358.5</ele><time>2026-05-01T13:36:23.29Z</time></trkpt><trkpt lat="42.2590803" lon="14.1730667"><ele>359.25</ele><time>2026-05-01T13:36:24.285Z</time></trkpt><trkpt lat="42.2591997" lon="14.1730648"><ele>360.0</ele><time>2026-05-01T13:36:25.277Z</time></trkpt><trkpt lat="42.2593179" lon="14.1730684"><ele>360.0</ele><time>2026-05-01T13:36:26.279Z</time></trkpt><trkpt lat="42.2594348" lon="14.1730753"><ele>360.0</ele><time>2026-05-01T13:36:27.281Z</time></trkpt><trkpt lat="42.2595374" lon="14.1730915"><ele>360.0</ele><time>2026-05-01T13:36:28.275Z</time></trkpt><trkpt lat="42.2596057" lon="14.1731109"><ele>360.0</ele><time>2026-05-01T13:36:29.279Z</time></trkpt><trkpt lat="42.2596829" lon="14.1731095"><ele>360.0</ele><time>2026-05-01T13:36:31.278Z</time></trkpt><trkpt lat="42.2596104" lon="14.1730569"><ele>360.0</ele><time>2026-05-01T13:36:35.279Z</time></trkpt><trkpt lat="42.2595006" lon="14.1730549"><ele>360.0</ele><time>2026-05-01T13:36:37.276Z</time></trkpt><trkpt lat="42.2594196" lon="14.1730542"><ele>360.0</ele><time>2026-05-01T13:36:38.277Z</time></trkpt><trkpt lat="42.2593236" lon="14.173046"><ele>360.0</ele><time>2026-05-01T13:36:39.275Z</time></trkpt><trkpt lat="42.2592225" lon="14.1730351"><ele>360.0</ele><time>2026-05-01T13:36:40.276Z</time></trkpt><trkpt lat="42.259115" lon="14.173028"><ele>360.0</ele><time>2026-05-01T13:36:41.287Z</time></trkpt><trkpt lat="42.2590102" lon="14.1730218"><ele>360.0</ele><time>2026-05-01T13:36:42.283Z</time></trkpt><trkpt lat="42.2589186" lon="14.1730142"><ele>360.0</ele><time>2026-05-01T13:36:43.289Z</time></trkpt><trkpt lat="42.2588321" lon="14.173008"><ele>360.0</ele><time>2026-05-01T13:36:44.27Z</time></trkpt><trkpt lat="42.258755" lon="14.1730034"><ele>360.0</ele><time>2026-05-01T13:36:45.28Z</time></trkpt><trkpt lat="42.2586814" lon="14.1730025"><ele>360.0</ele><time>2026-05-01T13:36:46.279Z</time></trkpt><trkpt lat="42.2586106" lon="14.1730012"><ele>359.4</ele><time>2026-05-01T13:36:47.273Z</time></trkpt><trkpt lat="42.2585412" lon="14.1729996"><ele>358.8</ele><time>2026-05-01T13:36:48.272Z</time></trkpt><trkpt lat="42.2584609" lon="14.1730206"><ele>358.20000000000005</ele><time>2026-05-01T13:36:50.274Z</time></trkpt><trkpt lat="42.2584478" lon="14.1729088"><ele>357.6</ele><time>2026-05-01T13:36:57.287Z</time></trkpt><trkpt lat="42.2585279" lon="14.1727958"><ele>357.0</ele><time>2026-05-01T13:36:59.276Z</time></trkpt><trkpt lat="42.2586279" lon="14.1726861"><ele>357.0</ele><time>2026-05-01T13:37:01.3Z</time></trkpt><trkpt lat="42.2587183" lon="14.1725583"><ele>357.0</ele><time>2026-05-01T13:37:03.279Z</time></trkpt><trkpt lat="42.2587665" lon="14.1724898"><ele>357.0</ele><time>2026-05-01T13:37:04.282Z</time></trkpt><trkpt lat="42.258815" lon="14.1724157"><ele>357.0</ele><time>2026-05-01T13:37:05.288Z</time></trkpt><trkpt lat="42.2588722" lon="14.1723495"><ele>357.0</ele><time>2026-05-01T13:37:06.282Z</time></trkpt><trkpt lat="42.2589302" lon="14.1722852"><ele>357.0</ele><time>2026-05-01T13:37:07.287Z</time></trkpt><trkpt lat="42.258983" lon="14.1722143"><ele>359.2857142857143</ele><time>2026-05-01T13:37:08.278Z</time></trkpt><trkpt lat="42.2590344" lon="14.1721446"><ele>361.57142857142856</ele><time>2026-05-01T13:37:09.293Z</time></trkpt><trkpt lat="42.2590919" lon="14.1720831"><ele>363.8571428571429</ele><time>2026-05-01T13:37:10.278Z</time></trkpt><trkpt lat="42.2591496" lon="14.1720217"><ele>366.1428571428571</ele><time>2026-05-01T13:37:11.292Z</time></trkpt><trkpt lat="42.2592078" lon="14.1719598"><ele>368.42857142857144</ele><time>2026-05-01T13:37:12.3Z</time></trkpt><trkpt lat="42.2592668" lon="14.1719003"><ele>370.7142857142857</ele><time>2026-05-01T13:37:13.287Z</time></trkpt><trkpt lat="42.2593279" lon="14.1718348"><ele>373.0</ele><time>2026-05-01T13:37:14.28Z</time></trkpt><trkpt lat="42.2593933" lon="14.1717617"><ele>373.0</ele><time>2026-05-01T13:37:15.267Z</time></trkpt><trkpt lat="42.2594537" lon="14.1716786"><ele>373.0</ele><time>2026-05-01T13:37:16.284Z</time></trkpt><trkpt lat="42.2595063" lon="14.1715726"><ele>373.0</ele><time>2026-05-01T13:37:17.279Z</time></trkpt><trkpt lat="42.2595486" lon="14.1714691"><ele>373.0</ele><time>2026-05-01T13:37:18.271Z</time></trkpt><trkpt lat="42.2595903" lon="14.17139"><ele>373.0</ele><time>2026-05-01T13:37:19.282Z</time></trkpt><trkpt lat="42.2596369" lon="14.1713078"><ele>373.0</ele><time>2026-05-01T13:37:21.288Z</time></trkpt><trkpt lat="42.2596721" lon="14.1712192"><ele>372.4</ele><time>2026-05-01T13:37:23.281Z</time></trkpt><trkpt lat="42.2597629" lon="14.171113"><ele>371.79999999999995</ele><time>2026-05-01T13:37:25.288Z</time></trkpt><trkpt lat="42.2598412" lon="14.1710352"><ele>371.2</ele><time>2026-05-01T13:37:26.287Z</time></trkpt><trkpt lat="42.2599271" lon="14.170952"><ele>370.6</ele><time>2026-05-01T13:37:27.283Z</time></trkpt><trkpt lat="42.2600144" lon="14.1708644"><ele>370.0</ele><time>2026-05-01T13:37:28.275Z</time></trkpt><trkpt lat="42.2601031" lon="14.1707769"><ele>369.4</ele><time>2026-05-01T13:37:29.28Z</time></trkpt><trkpt lat="42.2601908" lon="14.1706892"><ele>368.8</ele><time>2026-05-01T13:37:30.289Z</time></trkpt><trkpt lat="42.2602727" lon="14.1706029"><ele>368.20000000000005</ele><time>2026-05-01T13:37:31.273Z</time></trkpt><trkpt lat="42.2603579" lon="14.1705168"><ele>367.6</ele><time>2026-05-01T13:37:32.273Z</time></trkpt><trkpt lat="42.2604422" lon="14.1704354"><ele>367.0</ele><time>2026-05-01T13:37:33.282Z</time></trkpt><trkpt lat="42.2605299" lon="14.1703535"><ele>367.0</ele><time>2026-05-01T13:37:34.273Z</time></trkpt><trkpt lat="42.2606114" lon="14.1702614"><ele>367.0</ele><time>2026-05-01T13:37:35.275Z</time></trkpt><trkpt lat="42.2606825" lon="14.1701714"><ele>367.0</ele><time>2026-05-01T13:37:36.276Z</time></trkpt><trkpt lat="42.2607544" lon="14.1700875"><ele>367.0</ele><time>2026-05-01T13:37:37.281Z</time></trkpt><trkpt lat="42.2608255" lon="14.1700003"><ele>367.0</ele><time>2026-05-01T13:37:38.278Z</time></trkpt><trkpt lat="42.2608833" lon="14.1699278"><ele>365.2857142857143</ele><time>2026-05-01T13:37:39.287Z</time></trkpt><trkpt lat="42.2609316" lon="14.1698622"><ele>363.5714285714286</ele><time>2026-05-01T13:37:40.269Z</time></trkpt><trkpt lat="42.2609659" lon="14.1697859"><ele>361.8571428571429</ele><time>2026-05-01T13:37:41.29Z</time></trkpt><trkpt lat="42.2609942" lon="14.1696921"><ele>360.1428571428571</ele><time>2026-05-01T13:37:42.28Z</time></trkpt><trkpt lat="42.2610045" lon="14.1695897"><ele>358.42857142857144</ele><time>2026-05-01T13:37:43.278Z</time></trkpt><trkpt lat="42.2610162" lon="14.1694916"><ele>356.7142857142857</ele><time>2026-05-01T13:37:44.277Z</time></trkpt><trkpt lat="42.261023" lon="14.1693867"><ele>355.0</ele><time>2026-05-01T13:37:45.275Z</time></trkpt><trkpt lat="42.2610346" lon="14.1692861"><ele>353.8333333333333</ele><time>2026-05-01T13:37:46.284Z</time></trkpt><trkpt lat="42.2610428" lon="14.1691787"><ele>352.66666666666663</ele><time>2026-05-01T13:37:47.289Z</time></trkpt><trkpt lat="42.2610493" lon="14.1690699"><ele>351.5</ele><time>2026-05-01T13:37:48.273Z</time></trkpt><trkpt lat="42.2610431" lon="14.1689577"><ele>350.3333333333333</ele><time>2026-05-01T13:37:49.284Z</time></trkpt><trkpt lat="42.2610313" lon="14.1688444"><ele>349.1666666666667</ele><time>2026-05-01T13:37:50.265Z</time></trkpt><trkpt lat="42.2610162" lon="14.1687403"><ele>348.0</ele><time>2026-05-01T13:37:51.283Z</time></trkpt><trkpt lat="42.2610107" lon="14.1686255"><ele>347.1666666666667</ele><time>2026-05-01T13:37:52.282Z</time></trkpt><trkpt lat="42.2610249" lon="14.1685069"><ele>346.3333333333333</ele><time>2026-05-01T13:37:53.286Z</time></trkpt><trkpt lat="42.2610518" lon="14.1683815"><ele>345.5</ele><time>2026-05-01T13:37:54.281Z</time></trkpt><trkpt lat="42.2610804" lon="14.1682656"><ele>344.66666666666663</ele><time>2026-05-01T13:37:55.284Z</time></trkpt><trkpt lat="42.2611028" lon="14.1681662"><ele>343.8333333333333</ele><time>2026-05-01T13:37:56.275Z</time></trkpt><trkpt lat="42.2611212" lon="14.1680825"><ele>343.0</ele><time>2026-05-01T13:37:57.288Z</time></trkpt><trkpt lat="42.2611513" lon="14.1679279"><ele>341.7142857142857</ele><time>2026-05-01T13:37:59.286Z</time></trkpt><trkpt lat="42.2611611" lon="14.1678428"><ele>340.42857142857144</ele><time>2026-05-01T13:38:00.274Z</time></trkpt><trkpt lat="42.2611614" lon="14.1677444"><ele>339.1428571428571</ele><time>2026-05-01T13:38:01.285Z</time></trkpt><trkpt lat="42.2611581" lon="14.1676452"><ele>337.8571428571429</ele><time>2026-05-01T13:38:02.284Z</time></trkpt><trkpt lat="42.2611584" lon="14.1675421"><ele>336.57142857142856</ele><time>2026-05-01T13:38:03.289Z</time></trkpt><trkpt lat="42.2611513" lon="14.1674367"><ele>335.2857142857143</ele><time>2026-05-01T13:38:04.271Z</time></trkpt><trkpt lat="42.2611438" lon="14.1673271"><ele>334.0</ele><time>2026-05-01T13:38:05.287Z</time></trkpt><trkpt lat="42.2611396" lon="14.1672223"><ele>331.0</ele><time>2026-05-01T13:38:06.283Z</time></trkpt><trkpt lat="42.2611416" lon="14.1670819"><ele>328.0</ele><time>2026-05-01T13:38:08.278Z</time></trkpt><trkpt lat="42.2612204" lon="14.1669735"><ele>325.0</ele><time>2026-05-01T13:38:10.269Z</time></trkpt><trkpt lat="42.2613457" lon="14.166998"><ele>322.0</ele><time>2026-05-01T13:38:12.271Z</time></trkpt><trkpt lat="42.261395" lon="14.1670552"><ele>319.0</ele><time>2026-05-01T13:38:13.286Z</time></trkpt><trkpt lat="42.2614417" lon="14.167119"><ele>318.66666666666663</ele><time>2026-05-01T13:38:14.27Z</time></trkpt><trkpt lat="42.2615079" lon="14.1671716"><ele>318.3333333333333</ele><time>2026-05-01T13:38:15.285Z</time></trkpt><trkpt lat="42.2615774" lon="14.1672274"><ele>318.0</ele><time>2026-05-01T13:38:16.279Z</time></trkpt><trkpt lat="42.2616482" lon="14.1672893"><ele>317.6666666666667</ele><time>2026-05-01T13:38:17.285Z</time></trkpt><trkpt lat="42.2617172" lon="14.1673595"><ele>317.33333333333337</ele><time>2026-05-01T13:38:18.267Z</time></trkpt><trkpt lat="42.2617824" lon="14.1674367"><ele>317.0</ele><time>2026-05-01T13:38:19.276Z</time></trkpt><trkpt lat="42.2618445" lon="14.1675014"><ele>317.0</ele><time>2026-05-01T13:38:20.285Z</time></trkpt><trkpt lat="42.2618997" lon="14.1675656"><ele>317.0</ele><time>2026-05-01T13:38:21.287Z</time></trkpt><trkpt lat="42.2619535" lon="14.167623"><ele>317.0</ele><time>2026-05-01T13:38:22.272Z</time></trkpt><trkpt lat="42.2620353" lon="14.1677055"><ele>317.0</ele><time>2026-05-01T13:38:24.282Z</time></trkpt><trkpt lat="42.2621208" lon="14.1677301"><ele>317.0</ele><time>2026-05-01T13:38:26.28Z</time></trkpt><trkpt lat="42.2622374" lon="14.1677074"><ele>317.0</ele><time>2026-05-01T13:38:28.285Z</time></trkpt><trkpt lat="42.2623088" lon="14.1676849"><ele>312.5</ele><time>2026-05-01T13:38:29.281Z</time></trkpt><trkpt lat="42.262381" lon="14.1676682"><ele>308.0</ele><time>2026-05-01T13:38:30.275Z</time></trkpt><trkpt lat="42.2624568" lon="14.1676537"><ele>303.5</ele><time>2026-05-01T13:38:31.288Z</time></trkpt><trkpt lat="42.2625236" lon="14.1676437"><ele>299.0</ele><time>2026-05-01T13:38:32.277Z</time></trkpt><trkpt lat="42.2625935" lon="14.167645"><ele>294.5</ele><time>2026-05-01T13:38:33.294Z</time></trkpt><trkpt lat="42.262668" lon="14.1676817"><ele>290.0</ele><time>2026-05-01T13:38:34.285Z</time></trkpt><trkpt lat="42.2627454" lon="14.1677305"><ele>290.0</ele><time>2026-05-01T13:38:35.29Z</time></trkpt><trkpt lat="42.2628176" lon="14.1677858"><ele>290.0</ele><time>2026-05-01T13:38:36.278Z</time></trkpt><trkpt lat="42.2628938" lon="14.1678425"><ele>290.0</ele><time>2026-05-01T13:38:37.278Z</time></trkpt><trkpt lat="42.2629753" lon="14.1678983"><ele>290.0</ele><time>2026-05-01T13:38:38.268Z</time></trkpt><trkpt lat="42.2630634" lon="14.167957"><ele>290.0</ele><time>2026-05-01T13:38:39.286Z</time></trkpt><trkpt lat="42.2631529" lon="14.1680227"><ele>287.8</ele><time>2026-05-01T13:38:40.278Z</time></trkpt><trkpt lat="42.2632479" lon="14.1680937"><ele>285.6</ele><time>2026-05-01T13:38:41.283Z</time></trkpt><trkpt lat="42.2633437" lon="14.1681624"><ele>283.4</ele><time>2026-05-01T13:38:42.276Z</time></trkpt><trkpt lat="42.2634366" lon="14.1682359"><ele>281.2</ele><time>2026-05-01T13:38:43.29Z</time></trkpt><trkpt lat="42.2635259" lon="14.1683076"><ele>279.0</ele><time>2026-05-01T13:38:44.277Z</time></trkpt><trkpt lat="42.2636179" lon="14.1683641"><ele>279.0</ele><time>2026-05-01T13:38:45.277Z</time></trkpt><trkpt lat="42.2637133" lon="14.1684021"><ele>279.0</ele><time>2026-05-01T13:38:46.272Z</time></trkpt><trkpt lat="42.2638031" lon="14.1684245"><ele>279.0</ele><time>2026-05-01T13:38:47.276Z</time></trkpt><trkpt lat="42.263883" lon="14.1684383"><ele>279.0</ele><time>2026-05-01T13:38:48.276Z</time></trkpt><trkpt lat="42.2639624" lon="14.168435"><ele>279.0</ele><time>2026-05-01T13:38:49.278Z</time></trkpt><trkpt lat="42.2640384" lon="14.1684171"><ele>279.0</ele><time>2026-05-01T13:38:50.274Z</time></trkpt><trkpt lat="42.2641042" lon="14.1683984"><ele>275.59999999999997</ele><time>2026-05-01T13:38:51.286Z</time></trkpt><trkpt lat="42.2642092" lon="14.168351"><ele>272.2</ele><time>2026-05-01T13:38:53.283Z</time></trkpt><trkpt lat="42.2642867" lon="14.1682755"><ele>268.79999999999995</ele><time>2026-05-01T13:38:55.288Z</time></trkpt><trkpt lat="42.2643427" lon="14.1681672"><ele>265.4</ele><time>2026-05-01T13:38:57.282Z</time></trkpt><trkpt lat="42.2644017" lon="14.1680204"><ele>262.0</ele><time>2026-05-01T13:38:59.282Z</time></trkpt><trkpt lat="42.2644366" lon="14.1679407"><ele>260.5</ele><time>2026-05-01T13:39:00.278Z</time></trkpt><trkpt lat="42.2644684" lon="14.1678652"><ele>259.0</ele><time>2026-05-01T13:39:01.287Z</time></trkpt><trkpt lat="42.2645025" lon="14.1677903"><ele>257.5</ele><time>2026-05-01T13:39:02.282Z</time></trkpt><trkpt lat="42.2645341" lon="14.167714"><ele>256.0</ele><time>2026-05-01T13:39:03.287Z</time></trkpt><trkpt lat="42.2646044" lon="14.1675657"><ele>254.49999999999997</ele><time>2026-05-01T13:39:05.285Z</time></trkpt><trkpt lat="42.2646461" lon="14.1674825"><ele>253.0</ele><time>2026-05-01T13:39:06.279Z</time></trkpt><trkpt lat="42.2646907" lon="14.1674102"><ele>249.49999999999997</ele><time>2026-05-01T13:39:07.279Z</time></trkpt><trkpt lat="42.2647513" lon="14.1673585"><ele>246.0</ele><time>2026-05-01T13:39:08.297Z</time></trkpt><trkpt lat="42.264819" lon="14.1673332"><ele>242.5</ele><time>2026-05-01T13:39:09.285Z</time></trkpt><trkpt lat="42.2648883" lon="14.1673194"><ele>239.0</ele><time>2026-05-01T13:39:10.284Z</time></trkpt><trkpt lat="42.2649892" lon="14.1672699"><ele>235.49999999999997</ele><time>2026-05-01T13:39:12.279Z</time></trkpt><trkpt lat="42.2650755" lon="14.1671848"><ele>232.0</ele><time>2026-05-01T13:39:14.28Z</time></trkpt><trkpt lat="42.2651556" lon="14.1670709"><ele>230.83333333333331</ele><time>2026-05-01T13:39:16.277Z</time></trkpt><trkpt lat="42.2652156" lon="14.1670005"><ele>229.66666666666666</ele><time>2026-05-01T13:39:17.281Z</time></trkpt><trkpt lat="42.2652756" lon="14.1669335"><ele>228.5</ele><time>2026-05-01T13:39:18.277Z</time></trkpt><trkpt lat="42.2653306" lon="14.1668611"><ele>227.33333333333331</ele><time>2026-05-01T13:39:19.29Z</time></trkpt><trkpt lat="42.2653884" lon="14.1667712"><ele>226.16666666666666</ele><time>2026-05-01T13:39:20.282Z</time></trkpt><trkpt lat="42.2654464" lon="14.1666854"><ele>225.0</ele><time>2026-05-01T13:39:21.281Z</time></trkpt><trkpt lat="42.2655062" lon="14.1665994"><ele>222.16666666666666</ele><time>2026-05-01T13:39:22.285Z</time></trkpt><trkpt lat="42.2655566" lon="14.1665211"><ele>219.33333333333331</ele><time>2026-05-01T13:39:23.285Z</time></trkpt><trkpt lat="42.2656026" lon="14.1664596"><ele>216.5</ele><time>2026-05-01T13:39:24.288Z</time></trkpt><trkpt lat="42.2656716" lon="14.1663665"><ele>213.66666666666666</ele><time>2026-05-01T13:39:26.272Z</time></trkpt><trkpt lat="42.2657365" lon="14.1663047"><ele>210.83333333333331</ele><time>2026-05-01T13:39:29.288Z</time></trkpt><trkpt lat="42.265791" lon="14.166224"><ele>208.0</ele><time>2026-05-01T13:39:31.289Z</time></trkpt><trkpt lat="42.2658457" lon="14.1661287"><ele>208.0</ele><time>2026-05-01T13:39:33.294Z</time></trkpt><trkpt lat="42.2658888" lon="14.1660165"><ele>208.0</ele><time>2026-05-01T13:39:35.29Z</time></trkpt><trkpt lat="42.2659294" lon="14.1658894"><ele>208.0</ele><time>2026-05-01T13:39:37.286Z</time></trkpt><trkpt lat="42.2659617" lon="14.1657509"><ele>208.0</ele><time>2026-05-01T13:39:39.284Z</time></trkpt><trkpt lat="42.2659974" lon="14.1656387"><ele>208.0</ele><time>2026-05-01T13:39:41.281Z</time></trkpt><trkpt lat="42.2660896" lon="14.1655843"><ele>208.0</ele><time>2026-05-01T13:39:44.283Z</time></trkpt><trkpt lat="42.2661623" lon="14.1656534"><ele>208.0</ele><time>2026-05-01T13:39:46.277Z</time></trkpt><trkpt lat="42.2662093" lon="14.1657825"><ele>208.0</ele><time>2026-05-01T13:39:48.272Z</time></trkpt><trkpt lat="42.2662424" lon="14.165934"><ele>208.0</ele><time>2026-05-01T13:39:50.293Z</time></trkpt><trkpt lat="42.2662618" lon="14.1660189"><ele>208.0</ele><time>2026-05-01T13:39:51.278Z</time></trkpt><trkpt lat="42.2662867" lon="14.1661124"><ele>208.0</ele><time>2026-05-01T13:39:52.284Z</time></trkpt><trkpt lat="42.2663111" lon="14.1662135"><ele>208.0</ele><time>2026-05-01T13:39:53.279Z</time></trkpt><trkpt lat="42.2663303" lon="14.1663121"><ele>208.0</ele><time>2026-05-01T13:39:54.287Z</time></trkpt><trkpt lat="42.2663495" lon="14.1663982"><ele>208.0</ele><time>2026-05-01T13:39:55.287Z</time></trkpt><trkpt lat="42.2663745" lon="14.1664815"><ele>208.0</ele><time>2026-05-01T13:39:56.29Z</time></trkpt><trkpt lat="42.2664048" lon="14.1665734"><ele>208.0</ele><time>2026-05-01T13:39:57.285Z</time></trkpt><trkpt lat="42.2664426" lon="14.1666739"><ele>208.0</ele><time>2026-05-01T13:39:58.272Z</time></trkpt><trkpt lat="42.2664913" lon="14.1667777"><ele>207.66666666666666</ele><time>2026-05-01T13:39:59.285Z</time></trkpt><trkpt lat="42.2665392" lon="14.1668817"><ele>207.33333333333331</ele><time>2026-05-01T13:40:00.282Z</time></trkpt><trkpt lat="42.2665832" lon="14.1669788"><ele>207.0</ele><time>2026-05-01T13:40:01.29Z</time></trkpt><trkpt lat="42.2666273" lon="14.1670807"><ele>206.66666666666669</ele><time>2026-05-01T13:40:02.288Z</time></trkpt><trkpt lat="42.2666684" lon="14.1671769"><ele>206.33333333333334</ele><time>2026-05-01T13:40:03.281Z</time></trkpt><trkpt lat="42.266708" lon="14.1672695"><ele>206.0</ele><time>2026-05-01T13:40:04.283Z</time></trkpt><trkpt lat="42.2667441" lon="14.1673652"><ele>206.00000000000003</ele><time>2026-05-01T13:40:05.261Z</time></trkpt><trkpt lat="42.2667809" lon="14.1674625"><ele>206.0</ele><time>2026-05-01T13:40:06.285Z</time></trkpt><trkpt lat="42.2668185" lon="14.1675615"><ele>206.0</ele><time>2026-05-01T13:40:07.303Z</time></trkpt><trkpt lat="42.2668627" lon="14.1676609"><ele>206.0</ele><time>2026-05-01T13:40:08.303Z</time></trkpt><trkpt lat="42.2669107" lon="14.1677583"><ele>206.00000000000003</ele><time>2026-05-01T13:40:09.294Z</time></trkpt><trkpt lat="42.2669577" lon="14.1678469"><ele>206.0</ele><time>2026-05-01T13:40:10.278Z</time></trkpt><trkpt lat="42.2670083" lon="14.1679374"><ele>206.00000000000003</ele><time>2026-05-01T13:40:11.295Z</time></trkpt><trkpt lat="42.2670571" lon="14.1680225"><ele>206.0</ele><time>2026-05-01T13:40:12.283Z</time></trkpt><trkpt lat="42.2671106" lon="14.1681033"><ele>206.0</ele><time>2026-05-01T13:40:13.29Z</time></trkpt><trkpt lat="42.2671699" lon="14.1681797"><ele>206.0</ele><time>2026-05-01T13:40:14.27Z</time></trkpt><trkpt lat="42.2672298" lon="14.168258"><ele>206.00000000000003</ele><time>2026-05-01T13:40:15.283Z</time></trkpt><trkpt lat="42.2672893" lon="14.1683266"><ele>206.0</ele><time>2026-05-01T13:40:16.271Z</time></trkpt><trkpt lat="42.2673338" lon="14.1684058"><ele>202.66666666666669</ele><time>2026-05-01T13:40:17.263Z</time></trkpt><trkpt lat="42.2673831" lon="14.1684843"><ele>199.33333333333334</ele><time>2026-05-01T13:40:18.273Z</time></trkpt><trkpt lat="42.2674302" lon="14.1685653"><ele>196.0</ele><time>2026-05-01T13:40:19.275Z</time></trkpt><trkpt lat="42.2674798" lon="14.1686474"><ele>192.66666666666669</ele><time>2026-05-01T13:40:20.28Z</time></trkpt><trkpt lat="42.267532" lon="14.1687123"><ele>189.33333333333334</ele><time>2026-05-01T13:40:21.271Z</time></trkpt><trkpt lat="42.2676372" lon="14.1687555"><ele>186.0</ele><time>2026-05-01T13:40:23.305Z</time></trkpt><trkpt lat="42.2676877" lon="14.1686933"><ele>186.0</ele><time>2026-05-01T13:40:26.28Z</time></trkpt><trkpt lat="42.2676861" lon="14.1685707"><ele>186.0</ele><time>2026-05-01T13:40:29.297Z</time></trkpt><trkpt lat="42.2676847" lon="14.168402"><ele>186.0</ele><time>2026-05-01T13:40:31.288Z</time></trkpt><trkpt lat="42.2676904" lon="14.1683074"><ele>186.0</ele><time>2026-05-01T13:40:32.282Z</time></trkpt><trkpt lat="42.2677025" lon="14.1682119"><ele>186.0</ele><time>2026-05-01T13:40:33.295Z</time></trkpt><trkpt lat="42.2677185" lon="14.1680574"><ele>185.33333333333334</ele><time>2026-05-01T13:40:35.282Z</time></trkpt><trkpt lat="42.2677186" lon="14.1679655"><ele>184.66666666666666</ele><time>2026-05-01T13:40:37.289Z</time></trkpt><trkpt lat="42.2677225" lon="14.1678698"><ele>184.0</ele><time>2026-05-01T13:40:39.283Z</time></trkpt><trkpt lat="42.2677213" lon="14.1677126"><ele>183.33333333333331</ele><time>2026-05-01T13:40:41.278Z</time></trkpt><trkpt lat="42.2677144" lon="14.1676225"><ele>182.66666666666666</ele><time>2026-05-01T13:40:42.274Z</time></trkpt><trkpt lat="42.2677055" lon="14.1675263"><ele>182.0</ele><time>2026-05-01T13:40:43.284Z</time></trkpt><trkpt lat="42.2677011" lon="14.1674282"><ele>181.16666666666666</ele><time>2026-05-01T13:40:44.278Z</time></trkpt><trkpt lat="42.2677004" lon="14.1673222"><ele>180.33333333333331</ele><time>2026-05-01T13:40:45.287Z</time></trkpt><trkpt lat="42.2676926" lon="14.1672175"><ele>179.5</ele><time>2026-05-01T13:40:46.292Z</time></trkpt><trkpt lat="42.2676876" lon="14.1671131"><ele>178.66666666666666</ele><time>2026-05-01T13:40:47.29Z</time></trkpt><trkpt lat="42.2676823" lon="14.1670114"><ele>177.83333333333334</ele><time>2026-05-01T13:40:48.281Z</time></trkpt><trkpt lat="42.2676785" lon="14.1669174"><ele>177.0</ele><time>2026-05-01T13:40:49.287Z</time></trkpt><trkpt lat="42.2676789" lon="14.1668205"><ele>177.0</ele><time>2026-05-01T13:40:50.275Z</time></trkpt><trkpt lat="42.2676746" lon="14.1667353"><ele>177.0</ele><time>2026-05-01T13:40:51.281Z</time></trkpt><trkpt lat="42.2676788" lon="14.1665793"><ele>177.0</ele><time>2026-05-01T13:40:53.296Z</time></trkpt><trkpt lat="42.2676933" lon="14.1664894"><ele>177.0</ele><time>2026-05-01T13:40:54.279Z</time></trkpt><trkpt lat="42.2677037" lon="14.166397"><ele>177.0</ele><time>2026-05-01T13:40:55.275Z</time></trkpt><trkpt lat="42.2677203" lon="14.1663072"><ele>177.0</ele><time>2026-05-01T13:40:56.269Z</time></trkpt><trkpt lat="42.2677453" lon="14.1662218"><ele>176.71428571428572</ele><time>2026-05-01T13:40:57.279Z</time></trkpt><trkpt lat="42.2677822" lon="14.1661349"><ele>176.42857142857142</ele><time>2026-05-01T13:40:58.268Z</time></trkpt><trkpt lat="42.2678281" lon="14.1660675"><ele>176.14285714285714</ele><time>2026-05-01T13:40:59.268Z</time></trkpt><trkpt lat="42.2678827" lon="14.1660139"><ele>175.85714285714286</ele><time>2026-05-01T13:41:00.281Z</time></trkpt><trkpt lat="42.2679374" lon="14.1659642"><ele>175.57142857142856</ele><time>2026-05-01T13:41:01.285Z</time></trkpt><trkpt lat="42.2679915" lon="14.16592"><ele>175.28571428571428</ele><time>2026-05-01T13:41:02.283Z</time></trkpt><trkpt lat="42.2680455" lon="14.1658688"><ele>175.0</ele><time>2026-05-01T13:41:03.282Z</time></trkpt><trkpt lat="42.2681296" lon="14.1657297"><ele>174.0</ele><time>2026-05-01T13:41:05.277Z</time></trkpt><trkpt lat="42.2681556" lon="14.1656501"><ele>173.0</ele><time>2026-05-01T13:41:06.28Z</time></trkpt><trkpt lat="42.2681482" lon="14.1654988"><ele>172.0</ele><time>2026-05-01T13:41:08.278Z</time></trkpt><trkpt lat="42.2681282" lon="14.1653391"><ele>171.0</ele><time>2026-05-01T13:41:10.284Z</time></trkpt><trkpt lat="42.2681041" lon="14.1651714"><ele>170.0</ele><time>2026-05-01T13:41:12.28Z</time></trkpt><trkpt lat="42.268093" lon="14.1650133"><ele>168.16666666666666</ele><time>2026-05-01T13:41:14.286Z</time></trkpt><trkpt lat="42.268085" lon="14.1648596"><ele>166.33333333333331</ele><time>2026-05-01T13:41:16.285Z</time></trkpt><trkpt lat="42.2680803" lon="14.1647562"><ele>164.5</ele><time>2026-05-01T13:41:17.28Z</time></trkpt><trkpt lat="42.2680762" lon="14.1646525"><ele>162.66666666666666</ele><time>2026-05-01T13:41:18.276Z</time></trkpt><trkpt lat="42.2680728" lon="14.1645532"><ele>160.83333333333334</ele><time>2026-05-01T13:41:19.285Z</time></trkpt><trkpt lat="42.2680678" lon="14.1644597"><ele>159.0</ele><time>2026-05-01T13:41:20.287Z</time></trkpt><trkpt lat="42.2680632" lon="14.1643682"><ele>159.0</ele><time>2026-05-01T13:41:21.284Z</time></trkpt><trkpt lat="42.2680583" lon="14.16428"><ele>159.0</ele><time>2026-05-01T13:41:22.278Z</time></trkpt><trkpt lat="42.2680474" lon="14.1641111"><ele>159.0</ele><time>2026-05-01T13:41:24.279Z</time></trkpt><trkpt lat="42.2680464" lon="14.1640212"><ele>159.0</ele><time>2026-05-01T13:41:25.277Z</time></trkpt><trkpt lat="42.2680433" lon="14.1639318"><ele>159.0</ele><time>2026-05-01T13:41:26.264Z</time></trkpt><trkpt lat="42.2680448" lon="14.1638409"><ele>159.0</ele><time>2026-05-01T13:41:27.278Z</time></trkpt><trkpt lat="42.2680549" lon="14.1637567"><ele>156.4</ele><time>2026-05-01T13:41:28.275Z</time></trkpt><trkpt lat="42.2680706" lon="14.1636721"><ele>153.8</ele><time>2026-05-01T13:41:29.296Z</time></trkpt><trkpt lat="42.268098" lon="14.1635122"><ele>151.2</ele><time>2026-05-01T13:41:31.278Z</time></trkpt><trkpt lat="42.2681363" lon="14.1633676"><ele>148.6</ele><time>2026-05-01T13:41:33.298Z</time></trkpt><trkpt lat="42.2681868" lon="14.1632187"><ele>146.0</ele><time>2026-05-01T13:41:35.283Z</time></trkpt><trkpt lat="42.2682197" lon="14.1631407"><ele>146.0</ele><time>2026-05-01T13:41:36.274Z</time></trkpt><trkpt lat="42.2682565" lon="14.1630667"><ele>146.0</ele><time>2026-05-01T13:41:37.281Z</time></trkpt><trkpt lat="42.2683009" lon="14.1629745"><ele>146.0</ele><time>2026-05-01T13:41:38.268Z</time></trkpt><trkpt lat="42.2683469" lon="14.162878"><ele>146.0</ele><time>2026-05-01T13:41:39.273Z</time></trkpt><trkpt lat="42.2683902" lon="14.1627789"><ele>146.0</ele><time>2026-05-01T13:41:40.29Z</time></trkpt><trkpt lat="42.2684354" lon="14.1626798"><ele>146.0</ele><time>2026-05-01T13:41:41.275Z</time></trkpt><trkpt lat="42.2684838" lon="14.1625784"><ele>146.0</ele><time>2026-05-01T13:41:42.285Z</time></trkpt><trkpt lat="42.2685396" lon="14.1624756"><ele>146.0</ele><time>2026-05-01T13:41:43.28Z</time></trkpt><trkpt lat="42.2686009" lon="14.1623928"><ele>146.0</ele><time>2026-05-01T13:41:44.273Z</time></trkpt><trkpt lat="42.2686578" lon="14.1623385"><ele>146.0</ele><time>2026-05-01T13:41:45.279Z</time></trkpt><trkpt lat="42.2687214" lon="14.1623073"><ele>146.0</ele><time>2026-05-01T13:41:46.275Z</time></trkpt><trkpt lat="42.2687955" lon="14.1622962"><ele>146.0</ele><time>2026-05-01T13:41:47.287Z</time></trkpt><trkpt lat="42.2688725" lon="14.1622973"><ele>148.0</ele><time>2026-05-01T13:41:48.27Z</time></trkpt><trkpt lat="42.2689511" lon="14.1623053"><ele>150.0</ele><time>2026-05-01T13:41:49.289Z</time></trkpt><trkpt lat="42.2690583" lon="14.1623114"><ele>152.0</ele><time>2026-05-01T13:41:51.284Z</time></trkpt><trkpt lat="42.269143" lon="14.1622929"><ele>154.0</ele><time>2026-05-01T13:41:53.266Z</time></trkpt><trkpt lat="42.2692168" lon="14.1621959"><ele>156.0</ele><time>2026-05-01T13:41:55.269Z</time></trkpt><trkpt lat="42.2692536" lon="14.1620227"><ele>156.0</ele><time>2026-05-01T13:41:57.279Z</time></trkpt><trkpt lat="42.2692379" lon="14.1618463"><ele>156.0</ele><time>2026-05-01T13:41:59.273Z</time></trkpt><trkpt lat="42.2692274" lon="14.1617565"><ele>156.0</ele><time>2026-05-01T13:42:00.285Z</time></trkpt><trkpt lat="42.2692194" lon="14.161669"><ele>156.0</ele><time>2026-05-01T13:42:01.279Z</time></trkpt><trkpt lat="42.2692058" lon="14.1615785"><ele>156.0</ele><time>2026-05-01T13:42:02.277Z</time></trkpt><trkpt lat="42.269188" lon="14.1614164"><ele>157.4</ele><time>2026-05-01T13:42:04.277Z</time></trkpt><trkpt lat="42.269177" lon="14.1612941"><ele>158.8</ele><time>2026-05-01T13:42:06.276Z</time></trkpt><trkpt lat="42.2691731" lon="14.1611966"><ele>160.20000000000002</ele><time>2026-05-01T13:42:12.27Z</time></trkpt><trkpt lat="42.2691562" lon="14.1610565"><ele>161.6</ele><time>2026-05-01T13:42:14.268Z</time></trkpt><trkpt lat="42.2691195" lon="14.1608961"><ele>163.0</ele><time>2026-05-01T13:42:16.284Z</time></trkpt><trkpt lat="42.269019" lon="14.1608128"><ele>163.0</ele><time>2026-05-01T13:42:18.268Z</time></trkpt><trkpt lat="42.268949" lon="14.160788"><ele>163.0</ele><time>2026-05-01T13:42:19.267Z</time></trkpt><trkpt lat="42.2688686" lon="14.1607813"><ele>163.0</ele><time>2026-05-01T13:42:20.27Z</time></trkpt><trkpt lat="42.2687874" lon="14.1607834"><ele>163.0</ele><time>2026-05-01T13:42:21.278Z</time></trkpt><trkpt lat="42.2687006" lon="14.1607908"><ele>163.0</ele><time>2026-05-01T13:42:22.277Z</time></trkpt><trkpt lat="42.2686129" lon="14.1608021"><ele>163.0</ele><time>2026-05-01T13:42:23.278Z</time></trkpt><trkpt lat="42.2685344" lon="14.1608295"><ele>164.5</ele><time>2026-05-01T13:42:24.269Z</time></trkpt><trkpt lat="42.2684714" lon="14.1608565"><ele>166.0</ele><time>2026-05-01T13:42:25.269Z</time></trkpt><trkpt lat="42.2683533" lon="14.1608661"><ele>167.5</ele><time>2026-05-01T13:42:27.274Z</time></trkpt><trkpt lat="42.2682894" lon="14.160868"><ele>169.0</ele><time>2026-05-01T13:42:28.27Z</time></trkpt><trkpt lat="42.2682258" lon="14.1608873"><ele>170.5</ele><time>2026-05-01T13:42:29.268Z</time></trkpt><trkpt lat="42.2681666" lon="14.1609199"><ele>172.0</ele><time>2026-05-01T13:42:30.272Z</time></trkpt><trkpt lat="42.268056" lon="14.1609571"><ele>172.0</ele><time>2026-05-01T13:42:32.273Z</time></trkpt><trkpt lat="42.2679241" lon="14.1609653"><ele>172.0</ele><time>2026-05-01T13:42:34.265Z</time></trkpt><trkpt lat="42.2678455" lon="14.1609629"><ele>172.0</ele><time>2026-05-01T13:42:35.278Z</time></trkpt><trkpt lat="42.2677724" lon="14.1609484"><ele>172.0</ele><time>2026-05-01T13:42:36.273Z</time></trkpt><trkpt lat="42.2677094" lon="14.1609315"><ele>172.0</ele><time>2026-05-01T13:42:37.276Z</time></trkpt><trkpt lat="42.2676224" lon="14.160865"><ele>172.0</ele><time>2026-05-01T13:42:39.271Z</time></trkpt><trkpt lat="42.2676139" lon="14.1607671"><ele>175.39999999999998</ele><time>2026-05-01T13:42:41.276Z</time></trkpt><trkpt lat="42.2676908" lon="14.1606238"><ele>178.79999999999998</ele><time>2026-05-01T13:42:43.287Z</time></trkpt><trkpt lat="42.2677449" lon="14.160567"><ele>182.2</ele><time>2026-05-01T13:42:44.271Z</time></trkpt><trkpt lat="42.2678098" lon="14.160501"><ele>185.6</ele><time>2026-05-01T13:42:45.279Z</time></trkpt><trkpt lat="42.2678741" lon="14.1604161"><ele>189.0</ele><time>2026-05-01T13:42:46.264Z</time></trkpt><trkpt lat="42.267937" lon="14.1603465"><ele>189.0</ele><time>2026-05-01T13:42:47.284Z</time></trkpt><trkpt lat="42.2680028" lon="14.1602714"><ele>189.0</ele><time>2026-05-01T13:42:48.27Z</time></trkpt><trkpt lat="42.268057" lon="14.1601854"><ele>189.0</ele><time>2026-05-01T13:42:49.281Z</time></trkpt><trkpt lat="42.2681035" lon="14.1600944"><ele>189.0</ele><time>2026-05-01T13:42:50.273Z</time></trkpt><trkpt lat="42.268155" lon="14.1599987"><ele>189.0</ele><time>2026-05-01T13:42:51.28Z</time></trkpt><trkpt lat="42.2682049" lon="14.1599093"><ele>189.0</ele><time>2026-05-01T13:42:52.274Z</time></trkpt><trkpt lat="42.268251" lon="14.1598103"><ele>191.16666666666666</ele><time>2026-05-01T13:42:53.292Z</time></trkpt><trkpt lat="42.2682984" lon="14.1597096"><ele>193.33333333333331</ele><time>2026-05-01T13:42:54.273Z</time></trkpt><trkpt lat="42.2683387" lon="14.1596116"><ele>195.5</ele><time>2026-05-01T13:42:55.285Z</time></trkpt><trkpt lat="42.2683665" lon="14.1595178"><ele>197.66666666666666</ele><time>2026-05-01T13:42:56.28Z</time></trkpt><trkpt lat="42.2683865" lon="14.1594171"><ele>199.83333333333331</ele><time>2026-05-01T13:42:57.282Z</time></trkpt><trkpt lat="42.2684013" lon="14.1593182"><ele>202.0</ele><time>2026-05-01T13:42:58.274Z</time></trkpt><trkpt lat="42.2684043" lon="14.1592091"><ele>202.0</ele><time>2026-05-01T13:42:59.276Z</time></trkpt><trkpt lat="42.2683921" lon="14.1590993"><ele>202.0</ele><time>2026-05-01T13:43:00.273Z</time></trkpt><trkpt lat="42.2683681" lon="14.1589824"><ele>202.0</ele><time>2026-05-01T13:43:01.28Z</time></trkpt><trkpt lat="42.2683479" lon="14.1588637"><ele>202.0</ele><time>2026-05-01T13:43:02.283Z</time></trkpt><trkpt lat="42.2683294" lon="14.1587421"><ele>202.0</ele><time>2026-05-01T13:43:03.281Z</time></trkpt><trkpt lat="42.2683138" lon="14.1586102"><ele>203.83333333333331</ele><time>2026-05-01T13:43:04.29Z</time></trkpt><trkpt lat="42.268305" lon="14.1584914"><ele>205.66666666666666</ele><time>2026-05-01T13:43:05.277Z</time></trkpt><trkpt lat="42.2682995" lon="14.1583758"><ele>207.5</ele><time>2026-05-01T13:43:06.273Z</time></trkpt><trkpt lat="42.2683015" lon="14.158255"><ele>209.33333333333331</ele><time>2026-05-01T13:43:07.28Z</time></trkpt><trkpt lat="42.2683094" lon="14.1581456"><ele>211.16666666666666</ele><time>2026-05-01T13:43:08.276Z</time></trkpt><trkpt lat="42.2683189" lon="14.1580377"><ele>213.0</ele><time>2026-05-01T13:43:09.289Z</time></trkpt><trkpt lat="42.2683246" lon="14.1579334"><ele>214.5</ele><time>2026-05-01T13:43:10.288Z</time></trkpt><trkpt lat="42.268334" lon="14.1578369"><ele>216.0</ele><time>2026-05-01T13:43:11.285Z</time></trkpt><trkpt lat="42.2683544" lon="14.1576778"><ele>217.5</ele><time>2026-05-01T13:43:13.273Z</time></trkpt><trkpt lat="42.2683892" lon="14.1575998"><ele>219.0</ele><time>2026-05-01T13:43:14.276Z</time></trkpt><trkpt lat="42.2684263" lon="14.1575129"><ele>220.5</ele><time>2026-05-01T13:43:15.273Z</time></trkpt><trkpt lat="42.2684613" lon="14.1574178"><ele>222.0</ele><time>2026-05-01T13:43:16.271Z</time></trkpt><trkpt lat="42.2684961" lon="14.1573255"><ele>225.2</ele><time>2026-05-01T13:43:17.288Z</time></trkpt><trkpt lat="42.2685752" lon="14.1572173"><ele>228.39999999999998</ele><time>2026-05-01T13:43:19.279Z</time></trkpt><trkpt lat="42.2686803" lon="14.1571789"><ele>231.60000000000002</ele><time>2026-05-01T13:43:21.285Z</time></trkpt><trkpt lat="42.2687539" lon="14.1571804"><ele>234.8</ele><time>2026-05-01T13:43:22.275Z</time></trkpt><trkpt lat="42.2688296" lon="14.1571899"><ele>238.0</ele><time>2026-05-01T13:43:23.276Z</time></trkpt><trkpt lat="42.2689088" lon="14.1572099"><ele>238.16666666666666</ele><time>2026-05-01T13:43:24.271Z</time></trkpt><trkpt lat="42.268988" lon="14.1572293"><ele>238.33333333333331</ele><time>2026-05-01T13:43:25.286Z</time></trkpt><trkpt lat="42.2690765" lon="14.157249"><ele>238.5</ele><time>2026-05-01T13:43:26.279Z</time></trkpt><trkpt lat="42.2691672" lon="14.1572588"><ele>238.66666666666669</ele><time>2026-05-01T13:43:27.269Z</time></trkpt><trkpt lat="42.269256" lon="14.1572682"><ele>238.83333333333334</ele><time>2026-05-01T13:43:28.262Z</time></trkpt><trkpt lat="42.269336" lon="14.1572813"><ele>239.0</ele><time>2026-05-01T13:43:29.303Z</time></trkpt><trkpt lat="42.2694582" lon="14.1573083"><ele>239.0</ele><time>2026-05-01T13:43:31.285Z</time></trkpt><trkpt lat="42.2695653" lon="14.1573063"><ele>238.99999999999997</ele><time>2026-05-01T13:43:33.285Z</time></trkpt><trkpt lat="42.2696816" lon="14.1572265"><ele>238.99999999999997</ele><time>2026-05-01T13:43:35.293Z</time></trkpt><trkpt lat="42.2697508" lon="14.1571645"><ele>239.0</ele><time>2026-05-01T13:43:36.283Z</time></trkpt><trkpt lat="42.2698184" lon="14.1570889"><ele>239.0</ele><time>2026-05-01T13:43:37.284Z</time></trkpt><trkpt lat="42.2698874" lon="14.1570046"><ele>238.39999999999998</ele><time>2026-05-01T13:43:38.277Z</time></trkpt><trkpt lat="42.2699471" lon="14.1569026"><ele>237.79999999999998</ele><time>2026-05-01T13:43:39.281Z</time></trkpt><trkpt lat="42.2699904" lon="14.1567845"><ele>237.20000000000002</ele><time>2026-05-01T13:43:40.276Z</time></trkpt><trkpt lat="42.270019" lon="14.1566646"><ele>236.60000000000002</ele><time>2026-05-01T13:43:41.274Z</time></trkpt><trkpt lat="42.2700447" lon="14.1565365"><ele>236.0</ele><time>2026-05-01T13:43:42.287Z</time></trkpt><trkpt lat="42.2700672" lon="14.1564114"><ele>237.8</ele><time>2026-05-01T13:43:43.28Z</time></trkpt><trkpt lat="42.270096" lon="14.1562891"><ele>239.60000000000002</ele><time>2026-05-01T13:43:44.282Z</time></trkpt><trkpt lat="42.2701331" lon="14.1561668"><ele>241.4</ele><time>2026-05-01T13:43:45.293Z</time></trkpt><trkpt lat="42.2701713" lon="14.1560551"><ele>243.2</ele><time>2026-05-01T13:43:46.287Z</time></trkpt><trkpt lat="42.270219" lon="14.1559441"><ele>245.0</ele><time>2026-05-01T13:43:47.307Z</time></trkpt><trkpt lat="42.2702649" lon="14.155837"><ele>245.00000000000003</ele><time>2026-05-01T13:43:48.272Z</time></trkpt><trkpt lat="42.2702961" lon="14.1557364"><ele>245.0</ele><time>2026-05-01T13:43:49.282Z</time></trkpt><trkpt lat="42.2703039" lon="14.1556393"><ele>245.0</ele><time>2026-05-01T13:43:50.289Z</time></trkpt><trkpt lat="42.2702802" lon="14.1555591"><ele>245.0</ele><time>2026-05-01T13:43:51.286Z</time></trkpt><trkpt lat="42.2702202" lon="14.1554977"><ele>245.00000000000003</ele><time>2026-05-01T13:43:53.277Z</time></trkpt><trkpt lat="42.2701615" lon="14.1553937"><ele>245.0</ele><time>2026-05-01T13:43:56.281Z</time></trkpt><trkpt lat="42.2700945" lon="14.1553051"><ele>246.16666666666669</ele><time>2026-05-01T13:43:58.279Z</time></trkpt><trkpt lat="42.2700379" lon="14.1552015"><ele>247.33333333333334</ele><time>2026-05-01T13:44:00.28Z</time></trkpt><trkpt lat="42.2699831" lon="14.1551178"><ele>248.5</ele><time>2026-05-01T13:44:02.275Z</time></trkpt><trkpt lat="42.2699493" lon="14.1550348"><ele>249.66666666666669</ele><time>2026-05-01T13:44:04.278Z</time></trkpt><trkpt lat="42.2699141" lon="14.1549502"><ele>250.83333333333334</ele><time>2026-05-01T13:44:06.27Z</time></trkpt><trkpt lat="42.269945" lon="14.1548581"><ele>252.0</ele><time>2026-05-01T13:44:08.266Z</time></trkpt><trkpt lat="42.2699889" lon="14.1547832"><ele>254.0</ele><time>2026-05-01T13:44:09.285Z</time></trkpt><trkpt lat="42.2700323" lon="14.1547043"><ele>256.0</ele><time>2026-05-01T13:44:10.28Z</time></trkpt><trkpt lat="42.2700786" lon="14.154612"><ele>258.0</ele><time>2026-05-01T13:44:11.285Z</time></trkpt><trkpt lat="42.2701269" lon="14.1545117"><ele>260.0</ele><time>2026-05-01T13:44:12.29Z</time></trkpt><trkpt lat="42.2701779" lon="14.1544093"><ele>262.0</ele><time>2026-05-01T13:44:13.294Z</time></trkpt><trkpt lat="42.2702339" lon="14.1543147"><ele>264.0</ele><time>2026-05-01T13:44:14.261Z</time></trkpt><trkpt lat="42.2702815" lon="14.1542298"><ele>264.0</ele><time>2026-05-01T13:44:15.279Z</time></trkpt><trkpt lat="42.2703211" lon="14.1541461"><ele>264.0</ele><time>2026-05-01T13:44:16.272Z</time></trkpt><trkpt lat="42.270371" lon="14.1540536"><ele>264.0</ele><time>2026-05-01T13:44:17.285Z</time></trkpt><trkpt lat="42.2704332" lon="14.1539631"><ele>264.0</ele><time>2026-05-01T13:44:18.262Z</time></trkpt><trkpt lat="42.2705023" lon="14.1538687"><ele>264.0</ele><time>2026-05-01T13:44:19.282Z</time></trkpt><trkpt lat="42.2705737" lon="14.153779"><ele>264.0</ele><time>2026-05-01T13:44:20.272Z</time></trkpt><trkpt lat="42.2706474" lon="14.1536873"><ele>265.0</ele><time>2026-05-01T13:44:21.281Z</time></trkpt><trkpt lat="42.2707092" lon="14.1536011"><ele>266.0</ele><time>2026-05-01T13:44:22.277Z</time></trkpt><trkpt lat="42.2707615" lon="14.1535266"><ele>267.0</ele><time>2026-05-01T13:44:23.282Z</time></trkpt><trkpt lat="42.2708191" lon="14.1534426"><ele>268.0</ele><time>2026-05-01T13:44:24.284Z</time></trkpt><trkpt lat="42.2708776" lon="14.1533537"><ele>269.0</ele><time>2026-05-01T13:44:25.277Z</time></trkpt><trkpt lat="42.2709354" lon="14.1532576"><ele>270.0</ele><time>2026-05-01T13:44:26.283Z</time></trkpt><trkpt lat="42.2709888" lon="14.1531601"><ele>271.5</ele><time>2026-05-01T13:44:27.279Z</time></trkpt><trkpt lat="42.2710297" lon="14.1530679"><ele>273.0</ele><time>2026-05-01T13:44:28.279Z</time></trkpt><trkpt lat="42.2710605" lon="14.1529787"><ele>274.5</ele><time>2026-05-01T13:44:29.277Z</time></trkpt><trkpt lat="42.2710843" lon="14.152897"><ele>276.0</ele><time>2026-05-01T13:44:30.268Z</time></trkpt><trkpt lat="42.2711059" lon="14.1527607"><ele>277.5</ele><time>2026-05-01T13:44:32.276Z</time></trkpt><trkpt lat="42.2711696" lon="14.1527364"><ele>279.0</ele><time>2026-05-01T13:44:44.28Z</time></trkpt><trkpt lat="42.2712394" lon="14.1527164"><ele>279.0</ele><time>2026-05-01T13:44:46.289Z</time></trkpt><trkpt lat="42.2713523" lon="14.1526992"><ele>279.0</ele><time>2026-05-01T13:44:48.279Z</time></trkpt><trkpt lat="42.271421" lon="14.152697"><ele>279.0</ele><time>2026-05-01T13:44:49.268Z</time></trkpt><trkpt lat="42.2714892" lon="14.1526956"><ele>279.0</ele><time>2026-05-01T13:44:50.28Z</time></trkpt><trkpt lat="42.2715602" lon="14.152685"><ele>279.0</ele><time>2026-05-01T13:44:51.289Z</time></trkpt><trkpt lat="42.2716305" lon="14.1526703"><ele>279.0</ele><time>2026-05-01T13:44:52.285Z</time></trkpt><trkpt lat="42.2716987" lon="14.1526608"><ele>276.2</ele><time>2026-05-01T13:44:53.294Z</time></trkpt><trkpt lat="42.2718092" lon="14.1526953"><ele>273.4</ele><time>2026-05-01T13:44:55.289Z</time></trkpt><trkpt lat="42.2718699" lon="14.1527309"><ele>270.6</ele><time>2026-05-01T13:44:56.274Z</time></trkpt><trkpt lat="42.2719659" lon="14.1528355"><ele>267.8</ele><time>2026-05-01T13:44:58.286Z</time></trkpt><trkpt lat="42.2720473" lon="14.1529536"><ele>265.0</ele><time>2026-05-01T13:45:00.284Z</time></trkpt><trkpt lat="42.2721176" lon="14.1530707"><ele>263.0</ele><time>2026-05-01T13:45:02.285Z</time></trkpt><trkpt lat="42.2721812" lon="14.1532071"><ele>261.0</ele><time>2026-05-01T13:45:04.279Z</time></trkpt><trkpt lat="42.2722598" lon="14.1533317"><ele>259.0</ele><time>2026-05-01T13:45:06.287Z</time></trkpt><trkpt lat="42.2723063" lon="14.1533933"><ele>257.0</ele><time>2026-05-01T13:45:07.283Z</time></trkpt><trkpt lat="42.2723947" lon="14.153505"><ele>255.0</ele><time>2026-05-01T13:45:09.273Z</time></trkpt><trkpt lat="42.2724882" lon="14.1536276"><ele>252.4</ele><time>2026-05-01T13:45:11.269Z</time></trkpt><trkpt lat="42.2725355" lon="14.1536949"><ele>249.8</ele><time>2026-05-01T13:45:12.292Z</time></trkpt><trkpt lat="42.2725781" lon="14.1537622"><ele>247.2</ele><time>2026-05-01T13:45:13.285Z</time></trkpt><trkpt lat="42.2726551" lon="14.1538737"><ele>244.6</ele><time>2026-05-01T13:45:15.277Z</time></trkpt><trkpt lat="42.2727526" lon="14.1539699"><ele>242.0</ele><time>2026-05-01T13:45:17.279Z</time></trkpt><trkpt lat="42.2728528" lon="14.1540574"><ele>239.39999999999998</ele><time>2026-05-01T13:45:19.286Z</time></trkpt><trkpt lat="42.2729058" lon="14.1541103"><ele>236.79999999999998</ele><time>2026-05-01T13:45:20.271Z</time></trkpt><trkpt lat="42.2729623" lon="14.1541496"><ele>234.2</ele><time>2026-05-01T13:45:21.291Z</time></trkpt><trkpt lat="42.2730633" lon="14.1542161"><ele>231.6</ele><time>2026-05-01T13:45:23.303Z</time></trkpt><trkpt lat="42.2731714" lon="14.1542783"><ele>229.0</ele><time>2026-05-01T13:45:25.278Z</time></trkpt><trkpt lat="42.2732791" lon="14.1543407"><ele>225.25</ele><time>2026-05-01T13:45:27.286Z</time></trkpt><trkpt lat="42.2733612" lon="14.154448"><ele>221.5</ele><time>2026-05-01T13:45:29.285Z</time></trkpt><trkpt lat="42.2734095" lon="14.1545961"><ele>217.75</ele><time>2026-05-01T13:45:31.291Z</time></trkpt><trkpt lat="42.2734488" lon="14.1547409"><ele>214.0</ele><time>2026-05-01T13:45:33.285Z</time></trkpt><trkpt lat="42.2734687" lon="14.1548822"><ele>211.0</ele><time>2026-05-01T13:45:35.282Z</time></trkpt><trkpt lat="42.2735027" lon="14.1550004"><ele>207.99999999999997</ele><time>2026-05-01T13:45:37.279Z</time></trkpt><trkpt lat="42.2735847" lon="14.1550898"><ele>205.0</ele><time>2026-05-01T13:45:39.297Z</time></trkpt><trkpt lat="42.2736895" lon="14.1551624"><ele>202.0</ele><time>2026-05-01T13:45:41.285Z</time></trkpt><trkpt lat="42.2737911" lon="14.1552165"><ele>199.0</ele><time>2026-05-01T13:45:43.288Z</time></trkpt><trkpt lat="42.2738676" lon="14.1553245"><ele>197.6</ele><time>2026-05-01T13:45:45.279Z</time></trkpt><trkpt lat="42.2739442" lon="14.1554642"><ele>196.2</ele><time>2026-05-01T13:45:47.283Z</time></trkpt><trkpt lat="42.2739872" lon="14.1555286"><ele>194.79999999999998</ele><time>2026-05-01T13:45:48.271Z</time></trkpt><trkpt lat="42.274075" lon="14.1556141"><ele>193.39999999999998</ele><time>2026-05-01T13:45:50.282Z</time></trkpt><trkpt lat="42.2741746" lon="14.1556638"><ele>192.0</ele><time>2026-05-01T13:45:52.279Z</time></trkpt><trkpt lat="42.274231" lon="14.1557472"><ele>190.8</ele><time>2026-05-01T13:45:54.28Z</time></trkpt><trkpt lat="42.2742601" lon="14.1558707"><ele>189.6</ele><time>2026-05-01T13:45:56.268Z</time></trkpt><trkpt lat="42.274283" lon="14.1559953"><ele>188.4</ele><time>2026-05-01T13:45:58.271Z</time></trkpt><trkpt lat="42.2743187" lon="14.1561204"><ele>187.20000000000002</ele><time>2026-05-01T13:46:00.273Z</time></trkpt><trkpt lat="42.2743674" lon="14.1562393"><ele>186.0</ele><time>2026-05-01T13:46:02.281Z</time></trkpt><trkpt lat="42.2744151" lon="14.1563476"><ele>186.0</ele><time>2026-05-01T13:46:04.267Z</time></trkpt><trkpt lat="42.2744485" lon="14.1564741"><ele>186.0</ele><time>2026-05-01T13:46:06.285Z</time></trkpt><trkpt lat="42.2744895" lon="14.1565541"><ele>186.0</ele><time>2026-05-01T13:46:08.28Z</time></trkpt><trkpt lat="42.2745688" lon="14.1566253"><ele>186.0</ele><time>2026-05-01T13:46:11.288Z</time></trkpt><trkpt lat="42.2746274" lon="14.1566874"><ele>186.0</ele><time>2026-05-01T13:46:13.277Z</time></trkpt><trkpt lat="42.2747176" lon="14.1566912"><ele>186.0</ele><time>2026-05-01T13:46:17.288Z</time></trkpt><trkpt lat="42.2747909" lon="14.1566441"><ele>184.0</ele><time>2026-05-01T13:46:20.273Z</time></trkpt><trkpt lat="42.274863" lon="14.1566107"><ele>182.0</ele><time>2026-05-01T13:46:22.28Z</time></trkpt><trkpt lat="42.2749367" lon="14.1566106"><ele>180.0</ele><time>2026-05-01T13:46:24.284Z</time></trkpt><trkpt lat="42.2750113" lon="14.1566056"><ele>178.0</ele><time>2026-05-01T13:46:27.285Z</time></trkpt><trkpt lat="42.2751025" lon="14.1565636"><ele>176.0</ele><time>2026-05-01T13:46:30.285Z</time></trkpt><trkpt lat="42.275162" lon="14.1564994"><ele>174.0</ele><time>2026-05-01T13:46:32.27Z</time></trkpt><trkpt lat="42.2752285" lon="14.1564459"><ele>174.0</ele><time>2026-05-01T13:46:34.265Z</time></trkpt><trkpt lat="42.2753079" lon="14.1564037"><ele>174.0</ele><time>2026-05-01T13:46:37.268Z</time></trkpt><trkpt lat="42.2753982" lon="14.1563687"><ele>174.0</ele><time>2026-05-01T13:46:39.282Z</time></trkpt><trkpt lat="42.2754621" lon="14.156387"><ele>174.0</ele><time>2026-05-01T13:46:42.278Z</time></trkpt><trkpt lat="42.2754999" lon="14.156473"><ele>174.0</ele><time>2026-05-01T13:46:45.277Z</time></trkpt><trkpt lat="42.2755559" lon="14.1565516"><ele>174.0</ele><time>2026-05-01T13:46:47.278Z</time></trkpt><trkpt lat="42.2755627" lon="14.156647"><ele>172.0</ele><time>2026-05-01T13:46:52.277Z</time></trkpt><trkpt lat="42.2755752" lon="14.1567387"><ele>170.0</ele><time>2026-05-01T13:47:09.249Z</time></trkpt><trkpt lat="42.2756188" lon="14.1568162"><ele>168.0</ele><time>2026-05-01T13:47:12.282Z</time></trkpt><trkpt lat="42.2756985" lon="14.156803"><ele>166.0</ele><time>2026-05-01T13:47:14.269Z</time></trkpt><trkpt lat="42.2757901" lon="14.1567252"><ele>164.0</ele><time>2026-05-01T13:47:16.275Z</time></trkpt><trkpt lat="42.2758419" lon="14.1566739"><ele>162.0</ele><time>2026-05-01T13:47:17.278Z</time></trkpt><trkpt lat="42.2758987" lon="14.1566129"><ele>162.66666666666666</ele><time>2026-05-01T13:47:18.285Z</time></trkpt><trkpt lat="42.2759639" lon="14.1565582"><ele>163.33333333333334</ele><time>2026-05-01T13:47:19.287Z</time></trkpt><trkpt lat="42.2760342" lon="14.1565005"><ele>164.0</ele><time>2026-05-01T13:47:20.263Z</time></trkpt><trkpt lat="42.2761103" lon="14.1564481"><ele>164.66666666666669</ele><time>2026-05-01T13:47:21.273Z</time></trkpt><trkpt lat="42.2761872" lon="14.1563984"><ele>165.33333333333334</ele><time>2026-05-01T13:47:22.258Z</time></trkpt><trkpt lat="42.2762633" lon="14.1563464"><ele>166.0</ele><time>2026-05-01T13:47:23.256Z</time></trkpt><trkpt lat="42.2763418" lon="14.1562902"><ele>166.0</ele><time>2026-05-01T13:47:24.255Z</time></trkpt><trkpt lat="42.2764246" lon="14.1562262"><ele>166.0</ele><time>2026-05-01T13:47:25.258Z</time></trkpt><trkpt lat="42.2765019" lon="14.1561658"><ele>166.0</ele><time>2026-05-01T13:47:26.259Z</time></trkpt><trkpt lat="42.2765726" lon="14.156111"><ele>166.0</ele><time>2026-05-01T13:47:27.302Z</time></trkpt><trkpt lat="42.2766489" lon="14.1560649"><ele>166.0</ele><time>2026-05-01T13:47:28.273Z</time></trkpt><trkpt lat="42.2767453" lon="14.1560264"><ele>163.5</ele><time>2026-05-01T13:47:29.268Z</time></trkpt><trkpt lat="42.2768467" lon="14.1559755"><ele>161.0</ele><time>2026-05-01T13:47:30.275Z</time></trkpt><trkpt lat="42.2769524" lon="14.1559254"><ele>158.5</ele><time>2026-05-01T13:47:31.265Z</time></trkpt><trkpt lat="42.2770604" lon="14.1558674"><ele>156.0</ele><time>2026-05-01T13:47:32.277Z</time></trkpt><trkpt lat="42.2771654" lon="14.1558062"><ele>156.0</ele><time>2026-05-01T13:47:33.279Z</time></trkpt><trkpt lat="42.277241" lon="14.1557539"><ele>156.0</ele><time>2026-05-01T13:47:34.276Z</time></trkpt><trkpt lat="42.2773367" lon="14.1556885"><ele>156.0</ele><time>2026-05-01T13:47:36.287Z</time></trkpt><trkpt lat="42.2774741" lon="14.1556174"><ele>156.0</ele><time>2026-05-01T13:47:38.273Z</time></trkpt><trkpt lat="42.2775613" lon="14.1555582"><ele>156.0</ele><time>2026-05-01T13:47:39.276Z</time></trkpt><trkpt lat="42.2776609" lon="14.1555063"><ele>156.0</ele><time>2026-05-01T13:47:40.273Z</time></trkpt><trkpt lat="42.2777683" lon="14.1554453"><ele>156.0</ele><time>2026-05-01T13:47:41.274Z</time></trkpt><trkpt lat="42.2778701" lon="14.1553803"><ele>156.0</ele><time>2026-05-01T13:47:42.278Z</time></trkpt><trkpt lat="42.2779608" lon="14.1553236"><ele>156.0</ele><time>2026-05-01T13:47:43.292Z</time></trkpt><trkpt lat="42.2780457" lon="14.1552696"><ele>156.0</ele><time>2026-05-01T13:47:44.275Z</time></trkpt><trkpt lat="42.2781384" lon="14.1552158"><ele>153.2</ele><time>2026-05-01T13:47:45.282Z</time></trkpt><trkpt lat="42.2782266" lon="14.1551681"><ele>150.39999999999998</ele><time>2026-05-01T13:47:46.282Z</time></trkpt><trkpt lat="42.2783183" lon="14.1551297"><ele>147.6</ele><time>2026-05-01T13:47:47.28Z</time></trkpt><trkpt lat="42.2784021" lon="14.1550904"><ele>144.79999999999998</ele><time>2026-05-01T13:47:48.277Z</time></trkpt><trkpt lat="42.2784856" lon="14.15505"><ele>142.0</ele><time>2026-05-01T13:47:49.271Z</time></trkpt><trkpt lat="42.2785658" lon="14.1550035"><ele>142.0</ele><time>2026-05-01T13:47:50.291Z</time></trkpt><trkpt lat="42.2786452" lon="14.1549552"><ele>142.0</ele><time>2026-05-01T13:47:51.276Z</time></trkpt><trkpt lat="42.2787274" lon="14.1548972"><ele>142.0</ele><time>2026-05-01T13:47:52.278Z</time></trkpt><trkpt lat="42.2787985" lon="14.1548397"><ele>142.0</ele><time>2026-05-01T13:47:53.294Z</time></trkpt><trkpt lat="42.278875" lon="14.1547786"><ele>142.0</ele><time>2026-05-01T13:47:54.277Z</time></trkpt><trkpt lat="42.2789573" lon="14.1547181"><ele>142.0</ele><time>2026-05-01T13:47:55.283Z</time></trkpt><trkpt lat="42.2790523" lon="14.154652"><ele>141.79999999999998</ele><time>2026-05-01T13:47:56.275Z</time></trkpt><trkpt lat="42.2791545" lon="14.1545859"><ele>141.6</ele><time>2026-05-01T13:47:57.28Z</time></trkpt><trkpt lat="42.2792595" lon="14.1545144"><ele>141.39999999999998</ele><time>2026-05-01T13:47:58.281Z</time></trkpt><trkpt lat="42.2793597" lon="14.1544486"><ele>141.2</ele><time>2026-05-01T13:47:59.285Z</time></trkpt><trkpt lat="42.2794543" lon="14.1543939"><ele>141.0</ele><time>2026-05-01T13:48:00.286Z</time></trkpt><trkpt lat="42.2795361" lon="14.154342"><ele>141.0</ele><time>2026-05-01T13:48:01.278Z</time></trkpt><trkpt lat="42.2796131" lon="14.1542994"><ele>141.0</ele><time>2026-05-01T13:48:02.291Z</time></trkpt><trkpt lat="42.2796937" lon="14.1542569"><ele>141.0</ele><time>2026-05-01T13:48:03.273Z</time></trkpt><trkpt lat="42.279791" lon="14.1542114"><ele>141.0</ele><time>2026-05-01T13:48:04.284Z</time></trkpt><trkpt lat="42.2798927" lon="14.1541505"><ele>141.0</ele><time>2026-05-01T13:48:05.287Z</time></trkpt><trkpt lat="42.2799975" lon="14.1540834"><ele>141.4</ele><time>2026-05-01T13:48:06.272Z</time></trkpt><trkpt lat="42.2801033" lon="14.1540249"><ele>141.8</ele><time>2026-05-01T13:48:07.282Z</time></trkpt><trkpt lat="42.2802066" lon="14.1539659"><ele>142.20000000000002</ele><time>2026-05-01T13:48:08.268Z</time></trkpt><trkpt lat="42.2803113" lon="14.1539036"><ele>142.6</ele><time>2026-05-01T13:48:09.287Z</time></trkpt><trkpt lat="42.2804004" lon="14.1538539"><ele>143.0</ele><time>2026-05-01T13:48:10.276Z</time></trkpt><trkpt lat="42.2804913" lon="14.1538017"><ele>143.0</ele><time>2026-05-01T13:48:11.285Z</time></trkpt><trkpt lat="42.2805913" lon="14.1537537"><ele>143.0</ele><time>2026-05-01T13:48:12.281Z</time></trkpt><trkpt lat="42.2806917" lon="14.1537101"><ele>143.0</ele><time>2026-05-01T13:48:13.286Z</time></trkpt><trkpt lat="42.2807967" lon="14.1536699"><ele>143.0</ele><time>2026-05-01T13:48:14.287Z</time></trkpt><trkpt lat="42.2808927" lon="14.1536257"><ele>143.0</ele><time>2026-05-01T13:48:15.281Z</time></trkpt><trkpt lat="42.2809768" lon="14.1535883"><ele>141.33333333333331</ele><time>2026-05-01T13:48:16.285Z</time></trkpt><trkpt lat="42.2810518" lon="14.153561"><ele>139.66666666666666</ele><time>2026-05-01T13:48:17.286Z</time></trkpt><trkpt lat="42.2811224" lon="14.1535443"><ele>138.0</ele><time>2026-05-01T13:48:18.28Z</time></trkpt><trkpt lat="42.2811911" lon="14.1535342"><ele>136.33333333333334</ele><time>2026-05-01T13:48:19.28Z</time></trkpt><trkpt lat="42.2813158" lon="14.1534988"><ele>134.66666666666669</ele><time>2026-05-01T13:48:21.287Z</time></trkpt><trkpt lat="42.2813776" lon="14.1534655"><ele>133.0</ele><time>2026-05-01T13:48:22.281Z</time></trkpt><trkpt lat="42.2814382" lon="14.1534245"><ele>130.8</ele><time>2026-05-01T13:48:23.283Z</time></trkpt><trkpt lat="42.2814903" lon="14.1533686"><ele>128.60000000000002</ele><time>2026-05-01T13:48:24.274Z</time></trkpt><trkpt lat="42.2815511" lon="14.1532864"><ele>126.39999999999999</ele><time>2026-05-01T13:48:25.277Z</time></trkpt><trkpt lat="42.2816329" lon="14.1531931"><ele>124.19999999999999</ele><time>2026-05-01T13:48:26.275Z</time></trkpt><trkpt lat="42.2817303" lon="14.1531349"><ele>122.0</ele><time>2026-05-01T13:48:27.277Z</time></trkpt><trkpt lat="42.2818306" lon="14.1530862"><ele>121.6</ele><time>2026-05-01T13:48:28.284Z</time></trkpt><trkpt lat="42.2819335" lon="14.1530445"><ele>121.19999999999999</ele><time>2026-05-01T13:48:29.281Z</time></trkpt><trkpt lat="42.2820301" lon="14.1530092"><ele>120.8</ele><time>2026-05-01T13:48:30.276Z</time></trkpt><trkpt lat="42.2821215" lon="14.1529838"><ele>120.4</ele><time>2026-05-01T13:48:31.281Z</time></trkpt><trkpt lat="42.2822161" lon="14.1529582"><ele>120.0</ele><time>2026-05-01T13:48:32.272Z</time></trkpt><trkpt lat="42.2823053" lon="14.1529427"><ele>119.5</ele><time>2026-05-01T13:48:33.283Z</time></trkpt><trkpt lat="42.2823745" lon="14.1529458"><ele>119.0</ele><time>2026-05-01T13:48:34.273Z</time></trkpt><trkpt lat="42.2824523" lon="14.1529486"><ele>118.5</ele><time>2026-05-01T13:48:36.271Z</time></trkpt><trkpt lat="42.282515" lon="14.1529085"><ele>118.0</ele><time>2026-05-01T13:48:43.284Z</time></trkpt><trkpt lat="42.2825187" lon="14.1528003"><ele>117.5</ele><time>2026-05-01T13:48:47.281Z</time></trkpt><trkpt lat="42.2824906" lon="14.1527232"><ele>117.0</ele><time>2026-05-01T13:48:54.265Z</time></trkpt><trkpt lat="42.2824747" lon="14.1525957"><ele>117.0</ele><time>2026-05-01T13:48:57.293Z</time></trkpt><trkpt lat="42.2824484" lon="14.1524498"><ele>116.99999999999999</ele><time>2026-05-01T13:48:59.282Z</time></trkpt><trkpt lat="42.2824002" lon="14.1523109"><ele>116.99999999999999</ele><time>2026-05-01T13:49:01.292Z</time></trkpt><trkpt lat="42.2823499" lon="14.1521974"><ele>117.0</ele><time>2026-05-01T13:49:03.289Z</time></trkpt><trkpt lat="42.2823992" lon="14.1521285"><ele>117.0</ele><time>2026-05-01T13:49:07.276Z</time></trkpt><trkpt lat="42.2825082" lon="14.1521221"><ele>117.33333333333333</ele><time>2026-05-01T13:49:09.283Z</time></trkpt><trkpt lat="42.2825802" lon="14.1521354"><ele>117.66666666666666</ele><time>2026-05-01T13:49:10.279Z</time></trkpt><trkpt lat="42.2826649" lon="14.1521305"><ele>118.0</ele><time>2026-05-01T13:49:11.284Z</time></trkpt><trkpt lat="42.2827576" lon="14.1521374"><ele>118.33333333333333</ele><time>2026-05-01T13:49:12.29Z</time></trkpt><trkpt lat="42.2828542" lon="14.1521401"><ele>118.66666666666666</ele><time>2026-05-01T13:49:13.277Z</time></trkpt><trkpt lat="42.2829356" lon="14.1521243"><ele>119.0</ele><time>2026-05-01T13:49:14.283Z</time></trkpt><trkpt lat="42.2830071" lon="14.1520586"><ele>119.0</ele><time>2026-05-01T13:49:15.285Z</time></trkpt><trkpt lat="42.283055" lon="14.1519564"><ele>119.0</ele><time>2026-05-01T13:49:16.275Z</time></trkpt><trkpt lat="42.2830745" lon="14.1518289"><ele>119.0</ele><time>2026-05-01T13:49:17.29Z</time></trkpt><trkpt lat="42.2830911" lon="14.1516975"><ele>119.0</ele><time>2026-05-01T13:49:18.284Z</time></trkpt><trkpt lat="42.2831092" lon="14.1515659"><ele>119.0</ele><time>2026-05-01T13:49:19.285Z</time></trkpt><trkpt lat="42.2831306" lon="14.1514321"><ele>121.99999999999999</ele><time>2026-05-01T13:49:20.271Z</time></trkpt><trkpt lat="42.2831578" lon="14.1513189"><ele>125.0</ele><time>2026-05-01T13:49:21.277Z</time></trkpt><trkpt lat="42.2831835" lon="14.1512365"><ele>128.0</ele><time>2026-05-01T13:49:22.294Z</time></trkpt><trkpt lat="42.2832283" lon="14.15116"><ele>131.0</ele><time>2026-05-01T13:49:25.279Z</time></trkpt><trkpt lat="42.2832195" lon="14.1510688"><ele>134.0</ele><time>2026-05-01T13:49:28.277Z</time></trkpt><trkpt lat="42.2831551" lon="14.1510107"><ele>137.0</ele><time>2026-05-01T13:49:30.285Z</time></trkpt><trkpt lat="42.2831224" lon="14.150891"><ele>137.0</ele><time>2026-05-01T13:49:33.293Z</time></trkpt><trkpt lat="42.2831074" lon="14.1507725"><ele>137.0</ele><time>2026-05-01T13:49:35.291Z</time></trkpt><trkpt lat="42.2830716" lon="14.1506446"><ele>137.0</ele><time>2026-05-01T13:49:37.286Z</time></trkpt><trkpt lat="42.283034" lon="14.1505401"><ele>137.0</ele><time>2026-05-01T13:49:39.275Z</time></trkpt><trkpt lat="42.2829858" lon="14.1503943"><ele>137.0</ele><time>2026-05-01T13:49:41.273Z</time></trkpt><trkpt lat="42.2829503" lon="14.1502503"><ele>137.79999999999998</ele><time>2026-05-01T13:49:43.284Z</time></trkpt><trkpt lat="42.282935" lon="14.1501117"><ele>138.6</ele><time>2026-05-01T13:49:45.282Z</time></trkpt><trkpt lat="42.2829374" lon="14.1499488"><ele>139.39999999999998</ele><time>2026-05-01T13:49:47.284Z</time></trkpt><trkpt lat="42.2829485" lon="14.1497941"><ele>140.2</ele><time>2026-05-01T13:49:49.28Z</time></trkpt><trkpt lat="42.2829699" lon="14.1496662"><ele>141.0</ele><time>2026-05-01T13:49:51.277Z</time></trkpt><trkpt lat="42.2829558" lon="14.1495771"><ele>141.0</ele><time>2026-05-01T13:49:58.273Z</time></trkpt><trkpt lat="42.2829554" lon="14.1496931"><ele>141.0</ele><time>2026-05-01T13:50:35.254Z</time></trkpt><trkpt lat="42.2829361" lon="14.1498211"><ele>141.0</ele><time>2026-05-01T13:50:38.269Z</time></trkpt><trkpt lat="42.2829293" lon="14.1499734"><ele>141.0</ele><time>2026-05-01T13:50:40.27Z</time></trkpt><trkpt lat="42.2829307" lon="14.1501211"><ele>141.0</ele><time>2026-05-01T13:50:42.273Z</time></trkpt><trkpt lat="42.282941" lon="14.1502593"><ele>141.4</ele><time>2026-05-01T13:50:44.271Z</time></trkpt><trkpt lat="42.2829799" lon="14.1503974"><ele>141.8</ele><time>2026-05-01T13:50:46.271Z</time></trkpt><trkpt lat="42.2830416" lon="14.1505273"><ele>142.20000000000002</ele><time>2026-05-01T13:50:48.277Z</time></trkpt><trkpt lat="42.2830981" lon="14.15067"><ele>142.6</ele><time>2026-05-01T13:50:50.273Z</time></trkpt><trkpt lat="42.2831348" lon="14.1507945"><ele>143.0</ele><time>2026-05-01T13:50:52.271Z</time></trkpt><trkpt lat="42.2831429" lon="14.1509132"><ele>141.16666666666666</ele><time>2026-05-01T13:50:54.278Z</time></trkpt><trkpt lat="42.2830897" lon="14.1509596"><ele>139.33333333333331</ele><time>2026-05-01T13:50:57.277Z</time></trkpt><trkpt lat="42.2830153" lon="14.1509265"><ele>137.5</ele><time>2026-05-01T13:50:59.277Z</time></trkpt><trkpt lat="42.2829385" lon="14.1508666"><ele>135.66666666666666</ele><time>2026-05-01T13:51:13.338Z</time></trkpt><trkpt lat="42.2828736" lon="14.1508173"><ele>133.83333333333334</ele><time>2026-05-01T13:51:15.282Z</time></trkpt><trkpt lat="42.2827993" lon="14.15075"><ele>132.0</ele><time>2026-05-01T13:51:17.289Z</time></trkpt><trkpt lat="42.2827013" lon="14.1506344"><ele>132.0</ele><time>2026-05-01T13:51:19.29Z</time></trkpt><trkpt lat="42.282645" lon="14.1505675"><ele>132.0</ele><time>2026-05-01T13:51:20.268Z</time></trkpt><trkpt lat="42.2825895" lon="14.1504889"><ele>132.0</ele><time>2026-05-01T13:51:21.294Z</time></trkpt><trkpt lat="42.2825325" lon="14.1504"><ele>132.0</ele><time>2026-05-01T13:51:22.276Z</time></trkpt><trkpt lat="42.2824774" lon="14.1502971"><ele>132.0</ele><time>2026-05-01T13:51:23.315Z</time></trkpt><trkpt lat="42.2824164" lon="14.150186"><ele>132.0</ele><time>2026-05-01T13:51:24.272Z</time></trkpt><trkpt lat="42.2823554" lon="14.1500679"><ele>132.0</ele><time>2026-05-01T13:51:25.29Z</time></trkpt><trkpt lat="42.2822897" lon="14.1499414"><ele>132.0</ele><time>2026-05-01T13:51:26.264Z</time></trkpt><trkpt lat="42.282223" lon="14.1498151"><ele>132.0</ele><time>2026-05-01T13:51:27.28Z</time></trkpt><trkpt lat="42.2821569" lon="14.149681"><ele>132.0</ele><time>2026-05-01T13:51:28.296Z</time></trkpt><trkpt lat="42.282087" lon="14.1495444"><ele>131.0</ele><time>2026-05-01T13:51:29.282Z</time></trkpt><trkpt lat="42.2820127" lon="14.1494096"><ele>130.0</ele><time>2026-05-01T13:51:30.305Z</time></trkpt><trkpt lat="42.2819388" lon="14.1492582"><ele>129.0</ele><time>2026-05-01T13:51:31.3Z</time></trkpt><trkpt lat="42.2818633" lon="14.149109"><ele>128.0</ele><time>2026-05-01T13:51:32.282Z</time></trkpt><trkpt lat="42.2817866" lon="14.1489607"><ele>128.0</ele><time>2026-05-01T13:51:33.285Z</time></trkpt><trkpt lat="42.2817078" lon="14.1488073"><ele>128.0</ele><time>2026-05-01T13:51:34.284Z</time></trkpt><trkpt lat="42.2816306" lon="14.1486512"><ele>128.0</ele><time>2026-05-01T13:51:35.273Z</time></trkpt><trkpt lat="42.2815557" lon="14.1484915"><ele>128.0</ele><time>2026-05-01T13:51:36.285Z</time></trkpt><trkpt lat="42.2814854" lon="14.1483271"><ele>126.5</ele><time>2026-05-01T13:51:37.284Z</time></trkpt><trkpt lat="42.2814144" lon="14.1481757"><ele>125.0</ele><time>2026-05-01T13:51:38.291Z</time></trkpt><trkpt lat="42.2813504" lon="14.1480277"><ele>123.5</ele><time>2026-05-01T13:51:39.285Z</time></trkpt><trkpt lat="42.2812974" lon="14.1478964"><ele>122.0</ele><time>2026-05-01T13:51:40.284Z</time></trkpt><trkpt lat="42.2812513" lon="14.1477815"><ele>121.99999999999999</ele><time>2026-05-01T13:51:41.284Z</time></trkpt><trkpt lat="42.2812214" lon="14.1476932"><ele>122.0</ele><time>2026-05-01T13:51:42.287Z</time></trkpt><trkpt lat="42.2812365" lon="14.1475984"><ele>122.0</ele><time>2026-05-01T13:51:46.287Z</time></trkpt><trkpt lat="42.2813075" lon="14.1475412"><ele>122.0</ele><time>2026-05-01T13:51:48.284Z</time></trkpt><trkpt lat="42.2814" lon="14.147443"><ele>121.99999999999999</ele><time>2026-05-01T13:51:50.274Z</time></trkpt><trkpt lat="42.281476" lon="14.1473446"><ele>122.0</ele><time>2026-05-01T13:51:52.273Z</time></trkpt><trkpt lat="42.281539" lon="14.1472177"><ele>123.49999999999999</ele><time>2026-05-01T13:51:54.277Z</time></trkpt><trkpt lat="42.2815714" lon="14.1471366"><ele>125.0</ele><time>2026-05-01T13:51:55.28Z</time></trkpt><trkpt lat="42.2816044" lon="14.1470498"><ele>126.5</ele><time>2026-05-01T13:51:56.28Z</time></trkpt><trkpt lat="42.2816188" lon="14.1469575"><ele>128.0</ele><time>2026-05-01T13:51:57.278Z</time></trkpt><trkpt lat="42.2816114" lon="14.1468622"><ele>129.5</ele><time>2026-05-01T13:51:58.279Z</time></trkpt><trkpt lat="42.2815871" lon="14.1467169"><ele>131.0</ele><time>2026-05-01T13:52:00.297Z</time></trkpt><trkpt lat="42.2815678" lon="14.1465448"><ele>131.83333333333331</ele><time>2026-05-01T13:52:02.272Z</time></trkpt><trkpt lat="42.28155" lon="14.1464441"><ele>132.66666666666666</ele><time>2026-05-01T13:52:03.298Z</time></trkpt><trkpt lat="42.2815278" lon="14.1463459"><ele>133.5</ele><time>2026-05-01T13:52:04.283Z</time></trkpt><trkpt lat="42.2815097" lon="14.1462439"><ele>134.33333333333334</ele><time>2026-05-01T13:52:05.289Z</time></trkpt><trkpt lat="42.2814924" lon="14.14614"><ele>135.16666666666669</ele><time>2026-05-01T13:52:06.285Z</time></trkpt><trkpt lat="42.2814726" lon="14.1460466"><ele>136.0</ele><time>2026-05-01T13:52:07.265Z</time></trkpt><trkpt lat="42.2814454" lon="14.1459593"><ele>135.42857142857142</ele><time>2026-05-01T13:52:08.293Z</time></trkpt><trkpt lat="42.281416" lon="14.1458705"><ele>134.85714285714286</ele><time>2026-05-01T13:52:09.299Z</time></trkpt><trkpt lat="42.2813877" lon="14.1457706"><ele>134.28571428571428</ele><time>2026-05-01T13:52:10.283Z</time></trkpt><trkpt lat="42.2813536" lon="14.1456774"><ele>133.71428571428572</ele><time>2026-05-01T13:52:11.299Z</time></trkpt><trkpt lat="42.2813121" lon="14.1455909"><ele>133.14285714285714</ele><time>2026-05-01T13:52:12.292Z</time></trkpt><trkpt lat="42.2812717" lon="14.1455097"><ele>132.57142857142856</ele><time>2026-05-01T13:52:13.298Z</time></trkpt><trkpt lat="42.2812387" lon="14.1454233"><ele>132.0</ele><time>2026-05-01T13:52:14.28Z</time></trkpt><trkpt lat="42.2812172" lon="14.1453281"><ele>133.66666666666666</ele><time>2026-05-01T13:52:15.282Z</time></trkpt><trkpt lat="42.2812147" lon="14.1452257"><ele>135.33333333333334</ele><time>2026-05-01T13:52:16.28Z</time></trkpt><trkpt lat="42.2812165" lon="14.1451197"><ele>137.0</ele><time>2026-05-01T13:52:17.31Z</time></trkpt><trkpt lat="42.2812202" lon="14.1450052"><ele>138.66666666666669</ele><time>2026-05-01T13:52:18.277Z</time></trkpt><trkpt lat="42.281229" lon="14.1448905"><ele>140.33333333333334</ele><time>2026-05-01T13:52:19.288Z</time></trkpt><trkpt lat="42.2812388" lon="14.1447799"><ele>142.0</ele><time>2026-05-01T13:52:20.292Z</time></trkpt><trkpt lat="42.2812506" lon="14.1446676"><ele>143.33333333333334</ele><time>2026-05-01T13:52:21.299Z</time></trkpt><trkpt lat="42.2812596" lon="14.1445551"><ele>144.66666666666669</ele><time>2026-05-01T13:52:22.287Z</time></trkpt><trkpt lat="42.2812682" lon="14.1444463"><ele>146.0</ele><time>2026-05-01T13:52:23.274Z</time></trkpt><trkpt lat="42.2812756" lon="14.1443433"><ele>147.33333333333334</ele><time>2026-05-01T13:52:24.281Z</time></trkpt><trkpt lat="42.2812831" lon="14.1442362"><ele>148.66666666666666</ele><time>2026-05-01T13:52:25.284Z</time></trkpt><trkpt lat="42.2812959" lon="14.1441304"><ele>150.0</ele><time>2026-05-01T13:52:26.283Z</time></trkpt><trkpt lat="42.2813114" lon="14.1440215"><ele>152.2</ele><time>2026-05-01T13:52:27.298Z</time></trkpt><trkpt lat="42.2813242" lon="14.1439189"><ele>154.4</ele><time>2026-05-01T13:52:28.281Z</time></trkpt><trkpt lat="42.2813355" lon="14.1438245"><ele>156.60000000000002</ele><time>2026-05-01T13:52:29.302Z</time></trkpt><trkpt lat="42.2813533" lon="14.1436776"><ele>158.8</ele><time>2026-05-01T13:52:31.289Z</time></trkpt><trkpt lat="42.2813468" lon="14.1435394"><ele>161.0</ele><time>2026-05-01T13:52:33.288Z</time></trkpt><trkpt lat="42.2813215" lon="14.143405"><ele>161.0</ele><time>2026-05-01T13:52:35.28Z</time></trkpt><trkpt lat="42.2812932" lon="14.14324"><ele>161.0</ele><time>2026-05-01T13:52:37.283Z</time></trkpt><trkpt lat="42.2812717" lon="14.1431537"><ele>161.0</ele><time>2026-05-01T13:52:38.282Z</time></trkpt><trkpt lat="42.2812428" lon="14.1429994"><ele>161.0</ele><time>2026-05-01T13:52:40.283Z</time></trkpt><trkpt lat="42.2812992" lon="14.142859"><ele>161.0</ele><time>2026-05-01T13:52:42.269Z</time></trkpt><trkpt lat="42.2813551" lon="14.1428068"><ele>162.5</ele><time>2026-05-01T13:52:43.279Z</time></trkpt><trkpt lat="42.2814105" lon="14.1427508"><ele>164.0</ele><time>2026-05-01T13:52:44.288Z</time></trkpt><trkpt lat="42.2814596" lon="14.1426908"><ele>165.5</ele><time>2026-05-01T13:52:45.292Z</time></trkpt><trkpt lat="42.2815124" lon="14.1426168"><ele>167.0</ele><time>2026-05-01T13:52:46.27Z</time></trkpt><trkpt lat="42.2815602" lon="14.1425505"><ele>168.5</ele><time>2026-05-01T13:52:47.304Z</time></trkpt><trkpt lat="42.2815799" lon="14.1424428"><ele>170.0</ele><time>2026-05-01T13:52:49.296Z</time></trkpt><trkpt lat="42.2814927" lon="14.142388"><ele>173.66666666666666</ele><time>2026-05-01T13:52:51.288Z</time></trkpt><trkpt lat="42.2813908" lon="14.1423432"><ele>177.33333333333331</ele><time>2026-05-01T13:52:53.294Z</time></trkpt><trkpt lat="42.281268" lon="14.1423094"><ele>181.0</ele><time>2026-05-01T13:52:55.299Z</time></trkpt><trkpt lat="42.281201" lon="14.1422886"><ele>184.66666666666666</ele><time>2026-05-01T13:52:56.272Z</time></trkpt><trkpt lat="42.2811327" lon="14.142251"><ele>188.33333333333334</ele><time>2026-05-01T13:52:57.29Z</time></trkpt><trkpt lat="42.2810706" lon="14.1422056"><ele>192.0</ele><time>2026-05-01T13:52:58.296Z</time></trkpt><trkpt lat="42.281015" lon="14.1421599"><ele>192.0</ele><time>2026-05-01T13:52:59.281Z</time></trkpt><trkpt lat="42.2809595" lon="14.1420381"><ele>192.0</ele><time>2026-05-01T13:53:01.279Z</time></trkpt><trkpt lat="42.2809466" lon="14.1419547"><ele>192.0</ele><time>2026-05-01T13:53:02.26Z</time></trkpt><trkpt lat="42.2809114" lon="14.1417969"><ele>192.0</ele><time>2026-05-01T13:53:04.275Z</time></trkpt><trkpt lat="42.280883" lon="14.1416371"><ele>192.0</ele><time>2026-05-01T13:53:06.288Z</time></trkpt><trkpt lat="42.2808635" lon="14.1414833"><ele>192.0</ele><time>2026-05-01T13:53:08.267Z</time></trkpt><trkpt lat="42.2808441" lon="14.1413442"><ele>192.0</ele><time>2026-05-01T13:53:10.289Z</time></trkpt><trkpt lat="42.280812" lon="14.1411915"><ele>192.0</ele><time>2026-05-01T13:53:12.285Z</time></trkpt><trkpt lat="42.2807826" lon="14.1410472"><ele>192.0</ele><time>2026-05-01T13:53:14.291Z</time></trkpt><trkpt lat="42.2808015" lon="14.1409584"><ele>192.0</ele><time>2026-05-01T13:53:17.282Z</time></trkpt><trkpt lat="42.2808859" lon="14.1409274"><ele>192.0</ele><time>2026-05-01T13:53:21.279Z</time></trkpt><trkpt lat="42.2809511" lon="14.1409014"><ele>192.0</ele><time>2026-05-01T13:53:24.284Z</time></trkpt><trkpt lat="42.2810121" lon="14.140842"><ele>192.0</ele><time>2026-05-01T13:53:44.292Z</time></trkpt><trkpt lat="42.2810912" lon="14.1407795"><ele>192.0</ele><time>2026-05-01T13:53:50.276Z</time></trkpt><trkpt lat="42.2811844" lon="14.1407476"><ele>192.0</ele><time>2026-05-01T13:53:52.283Z</time></trkpt><trkpt lat="42.2813093" lon="14.1406917"><ele>189.5</ele><time>2026-05-01T13:53:54.282Z</time></trkpt><trkpt lat="42.2813835" lon="14.1406569"><ele>187.0</ele><time>2026-05-01T13:53:55.299Z</time></trkpt><trkpt lat="42.28146" lon="14.1406167"><ele>184.5</ele><time>2026-05-01T13:53:56.283Z</time></trkpt><trkpt lat="42.2815401" lon="14.1405724"><ele>182.0</ele><time>2026-05-01T13:53:57.288Z</time></trkpt><trkpt lat="42.2816119" lon="14.1405162"><ele>179.5</ele><time>2026-05-01T13:53:58.276Z</time></trkpt><trkpt lat="42.2816786" lon="14.1404455"><ele>177.0</ele><time>2026-05-01T13:53:59.283Z</time></trkpt><trkpt lat="42.2817412" lon="14.1403717"><ele>182.33333333333334</ele><time>2026-05-01T13:54:00.286Z</time></trkpt><trkpt lat="42.2818072" lon="14.140299"><ele>187.66666666666669</ele><time>2026-05-01T13:54:01.277Z</time></trkpt><trkpt lat="42.2818748" lon="14.1402199"><ele>193.0</ele><time>2026-05-01T13:54:02.278Z</time></trkpt><trkpt lat="42.2819297" lon="14.1401358"><ele>198.33333333333334</ele><time>2026-05-01T13:54:03.31Z</time></trkpt><trkpt lat="42.2819703" lon="14.1400598"><ele>203.66666666666669</ele><time>2026-05-01T13:54:04.267Z</time></trkpt><trkpt lat="42.2820218" lon="14.1399995"><ele>209.0</ele><time>2026-05-01T13:54:05.289Z</time></trkpt><trkpt lat="42.2820824" lon="14.1399175"><ele>210.0</ele><time>2026-05-01T13:54:06.279Z</time></trkpt><trkpt lat="42.2821606" lon="14.1398192"><ele>211.0</ele><time>2026-05-01T13:54:07.272Z</time></trkpt><trkpt lat="42.2822515" lon="14.1397155"><ele>212.0</ele><time>2026-05-01T13:54:08.302Z</time></trkpt><trkpt lat="42.2823406" lon="14.1396149"><ele>213.0</ele><time>2026-05-01T13:54:09.28Z</time></trkpt><trkpt lat="42.2824328" lon="14.1395232"><ele>213.0</ele><time>2026-05-01T13:54:10.274Z</time></trkpt><trkpt lat="42.2825213" lon="14.1394114"><ele>213.0</ele><time>2026-05-01T13:54:11.289Z</time></trkpt><trkpt lat="42.2826165" lon="14.139287"><ele>213.0</ele><time>2026-05-01T13:54:12.267Z</time></trkpt><trkpt lat="42.2827144" lon="14.1391588"><ele>213.0</ele><time>2026-05-01T13:54:13.268Z</time></trkpt><trkpt lat="42.2828081" lon="14.1390182"><ele>214.0</ele><time>2026-05-01T13:54:14.283Z</time></trkpt><trkpt lat="42.2828932" lon="14.1388825"><ele>215.0</ele><time>2026-05-01T13:54:15.273Z</time></trkpt><trkpt lat="42.282981" lon="14.1387575"><ele>216.0</ele><time>2026-05-01T13:54:16.267Z</time></trkpt><trkpt lat="42.2830575" lon="14.1386451"><ele>217.0</ele><time>2026-05-01T13:54:17.301Z</time></trkpt><trkpt lat="42.2831267" lon="14.1385541"><ele>216.99999999999997</ele><time>2026-05-01T13:54:18.289Z</time></trkpt><trkpt lat="42.2831917" lon="14.1384766"><ele>217.0</ele><time>2026-05-01T13:54:19.278Z</time></trkpt><trkpt lat="42.2832568" lon="14.1384125"><ele>217.0</ele><time>2026-05-01T13:54:20.284Z</time></trkpt><trkpt lat="42.2833157" lon="14.1383644"><ele>217.0</ele><time>2026-05-01T13:54:21.284Z</time></trkpt><trkpt lat="42.2833409" lon="14.1382736"><ele>216.99999999999997</ele><time>2026-05-01T13:54:23.281Z</time></trkpt><trkpt lat="42.2832775" lon="14.1382339"><ele>217.0</ele><time>2026-05-01T13:54:25.288Z</time></trkpt><trkpt lat="42.2831657" lon="14.1381913"><ele>214.33333333333331</ele><time>2026-05-01T13:54:27.284Z</time></trkpt><trkpt lat="42.2830929" lon="14.1381665"><ele>211.66666666666666</ele><time>2026-05-01T13:54:28.278Z</time></trkpt><trkpt lat="42.2830177" lon="14.1381365"><ele>209.0</ele><time>2026-05-01T13:54:29.287Z</time></trkpt><trkpt lat="42.2829392" lon="14.1381175"><ele>206.33333333333331</ele><time>2026-05-01T13:54:30.285Z</time></trkpt><trkpt lat="42.2828681" lon="14.1381061"><ele>203.66666666666666</ele><time>2026-05-01T13:54:31.27Z</time></trkpt><trkpt lat="42.2827634" lon="14.1380961"><ele>201.0</ele><time>2026-05-01T13:54:33.271Z</time></trkpt><trkpt lat="42.2827196" lon="14.1380296"><ele>201.0</ele><time>2026-05-01T13:54:35.288Z</time></trkpt><trkpt lat="42.282746" lon="14.1379476"><ele>201.0</ele><time>2026-05-01T13:54:37.273Z</time></trkpt><trkpt lat="42.2828271" lon="14.1378541"><ele>201.0</ele><time>2026-05-01T13:54:39.282Z</time></trkpt><trkpt lat="42.2829073" lon="14.1377721"><ele>201.0</ele><time>2026-05-01T13:54:41.283Z</time></trkpt><trkpt lat="42.2829406" lon="14.1376727"><ele>201.0</ele><time>2026-05-01T13:54:43.293Z</time></trkpt><trkpt lat="42.2829458" lon="14.1375488"><ele>201.0</ele><time>2026-05-01T13:54:45.285Z</time></trkpt><trkpt lat="42.2829247" lon="14.1374304"><ele>202.0</ele><time>2026-05-01T13:54:47.284Z</time></trkpt><trkpt lat="42.2828932" lon="14.1373452"><ele>203.0</ele><time>2026-05-01T13:54:49.278Z</time></trkpt><trkpt lat="42.2828418" lon="14.1372327"><ele>204.0</ele><time>2026-05-01T13:54:51.28Z</time></trkpt><trkpt lat="42.2828046" lon="14.1370771"><ele>205.0</ele><time>2026-05-01T13:54:53.286Z</time></trkpt><trkpt lat="42.2827939" lon="14.1369903"><ele>206.0</ele><time>2026-05-01T13:54:54.288Z</time></trkpt><trkpt lat="42.2827863" lon="14.136901"><ele>207.0</ele><time>2026-05-01T13:54:55.282Z</time></trkpt><trkpt lat="42.2827802" lon="14.1368048"><ele>207.00000000000003</ele><time>2026-05-01T13:54:56.277Z</time></trkpt><trkpt lat="42.2827723" lon="14.1367112"><ele>207.0</ele><time>2026-05-01T13:54:57.278Z</time></trkpt><trkpt lat="42.2827605" lon="14.1366129"><ele>207.0</ele><time>2026-05-01T13:54:58.273Z</time></trkpt><trkpt lat="42.2827424" lon="14.1365127"><ele>207.0</ele><time>2026-05-01T13:54:59.288Z</time></trkpt><trkpt lat="42.2827196" lon="14.1364164"><ele>207.0</ele><time>2026-05-01T13:55:00.271Z</time></trkpt><trkpt lat="42.2826953" lon="14.1363215"><ele>207.00000000000003</ele><time>2026-05-01T13:55:01.274Z</time></trkpt><trkpt lat="42.2826685" lon="14.13624"><ele>207.0</ele><time>2026-05-01T13:55:02.281Z</time></trkpt><trkpt lat="42.2826031" lon="14.1360978"><ele>208.00000000000003</ele><time>2026-05-01T13:55:04.277Z</time></trkpt><trkpt lat="42.2825534" lon="14.1360324"><ele>209.0</ele><time>2026-05-01T13:55:05.285Z</time></trkpt><trkpt lat="42.2824988" lon="14.135964"><ele>210.0</ele><time>2026-05-01T13:55:06.282Z</time></trkpt><trkpt lat="42.282451" lon="14.1359023"><ele>211.0</ele><time>2026-05-01T13:55:07.281Z</time></trkpt><trkpt lat="42.2824102" lon="14.1358298"><ele>212.0</ele><time>2026-05-01T13:55:08.271Z</time></trkpt><trkpt lat="42.2823717" lon="14.1357478"><ele>213.00000000000003</ele><time>2026-05-01T13:55:09.283Z</time></trkpt><trkpt lat="42.2823345" lon="14.135663"><ele>214.0</ele><time>2026-05-01T13:55:10.271Z</time></trkpt><trkpt lat="42.2823037" lon="14.135578"><ele>212.39999999999998</ele><time>2026-05-01T13:55:11.276Z</time></trkpt><trkpt lat="42.2822757" lon="14.1354258"><ele>210.79999999999998</ele><time>2026-05-01T13:55:13.279Z</time></trkpt><trkpt lat="42.2822667" lon="14.1352523"><ele>209.2</ele><time>2026-05-01T13:55:15.276Z</time></trkpt><trkpt lat="42.2822565" lon="14.1351594"><ele>207.60000000000002</ele><time>2026-05-01T13:55:16.274Z</time></trkpt><trkpt lat="42.2822452" lon="14.1350662"><ele>206.0</ele><time>2026-05-01T13:55:17.28Z</time></trkpt><trkpt lat="42.2822331" lon="14.1349665"><ele>207.50000000000003</ele><time>2026-05-01T13:55:18.277Z</time></trkpt><trkpt lat="42.2822169" lon="14.1348631"><ele>209.0</ele><time>2026-05-01T13:55:19.279Z</time></trkpt><trkpt lat="42.2822015" lon="14.1347604"><ele>210.5</ele><time>2026-05-01T13:55:20.276Z</time></trkpt><trkpt lat="42.2821845" lon="14.1346539"><ele>212.0</ele><time>2026-05-01T13:55:21.28Z</time></trkpt><trkpt lat="42.2821707" lon="14.1345441"><ele>213.50000000000003</ele><time>2026-05-01T13:55:22.274Z</time></trkpt><trkpt lat="42.2821525" lon="14.134441"><ele>215.0</ele><time>2026-05-01T13:55:23.284Z</time></trkpt><trkpt lat="42.2821331" lon="14.1343386"><ele>215.00000000000003</ele><time>2026-05-01T13:55:24.27Z</time></trkpt><trkpt lat="42.2821143" lon="14.1342329"><ele>215.0</ele><time>2026-05-01T13:55:25.301Z</time></trkpt><trkpt lat="42.2820986" lon="14.1341207"><ele>215.0</ele><time>2026-05-01T13:55:26.277Z</time></trkpt><trkpt lat="42.2820808" lon="14.1340032"><ele>215.0</ele><time>2026-05-01T13:55:27.278Z</time></trkpt><trkpt lat="42.2820617" lon="14.1338785"><ele>215.00000000000003</ele><time>2026-05-01T13:55:28.271Z</time></trkpt><trkpt lat="42.2820456" lon="14.1337437"><ele>215.0</ele><time>2026-05-01T13:55:29.279Z</time></trkpt><trkpt lat="42.2820312" lon="14.1336111"><ele>216.0</ele><time>2026-05-01T13:55:30.279Z</time></trkpt><trkpt lat="42.282017" lon="14.1334803"><ele>217.0</ele><time>2026-05-01T13:55:31.283Z</time></trkpt><trkpt lat="42.2820058" lon="14.1333661"><ele>218.0</ele><time>2026-05-01T13:55:32.278Z</time></trkpt><trkpt lat="42.2819887" lon="14.1332774"><ele>219.0</ele><time>2026-05-01T13:55:33.285Z</time></trkpt><trkpt lat="42.2819115" lon="14.1331916"><ele>220.0</ele><time>2026-05-01T13:55:35.278Z</time></trkpt><trkpt lat="42.2817854" lon="14.1331436"><ele>220.66666666666666</ele><time>2026-05-01T13:55:37.304Z</time></trkpt><trkpt lat="42.2817216" lon="14.1331068"><ele>221.33333333333331</ele><time>2026-05-01T13:55:38.269Z</time></trkpt><trkpt lat="42.2816613" lon="14.1330534"><ele>222.0</ele><time>2026-05-01T13:55:39.284Z</time></trkpt><trkpt lat="42.281601" lon="14.1329983"><ele>222.66666666666669</ele><time>2026-05-01T13:55:40.275Z</time></trkpt><trkpt lat="42.2814848" lon="14.1329856"><ele>223.33333333333334</ele><time>2026-05-01T13:55:42.277Z</time></trkpt><trkpt lat="42.2814207" lon="14.1330045"><ele>224.0</ele><time>2026-05-01T13:55:43.285Z</time></trkpt><trkpt lat="42.2813403" lon="14.1330323"><ele>224.0</ele><time>2026-05-01T13:55:44.271Z</time></trkpt><trkpt lat="42.2812386" lon="14.1330657"><ele>223.99999999999997</ele><time>2026-05-01T13:55:45.279Z</time></trkpt><trkpt lat="42.2811483" lon="14.1331016"><ele>223.99999999999997</ele><time>2026-05-01T13:55:46.284Z</time></trkpt><trkpt lat="42.2810732" lon="14.1331369"><ele>224.0</ele><time>2026-05-01T13:55:47.276Z</time></trkpt><trkpt lat="42.2810008" lon="14.1331552"><ele>224.0</ele><time>2026-05-01T13:55:48.271Z</time></trkpt><trkpt lat="42.2808801" lon="14.1330728"><ele>224.0</ele><time>2026-05-01T13:55:50.282Z</time></trkpt><trkpt lat="42.2808096" lon="14.1329952"><ele>223.99999999999997</ele><time>2026-05-01T13:55:51.279Z</time></trkpt><trkpt lat="42.2807389" lon="14.1329097"><ele>223.99999999999997</ele><time>2026-05-01T13:55:52.284Z</time></trkpt><trkpt lat="42.2806663" lon="14.1328302"><ele>224.0</ele><time>2026-05-01T13:55:53.28Z</time></trkpt><trkpt lat="42.2805797" lon="14.1327737"><ele>224.0</ele><time>2026-05-01T13:55:54.278Z</time></trkpt><trkpt lat="42.2804852" lon="14.1327227"><ele>222.83333333333334</ele><time>2026-05-01T13:55:55.286Z</time></trkpt><trkpt lat="42.2803967" lon="14.1326709"><ele>221.66666666666669</ele><time>2026-05-01T13:55:56.27Z</time></trkpt><trkpt lat="42.2803071" lon="14.1326222"><ele>220.5</ele><time>2026-05-01T13:55:57.285Z</time></trkpt><trkpt lat="42.2802209" lon="14.1325795"><ele>219.33333333333331</ele><time>2026-05-01T13:55:58.301Z</time></trkpt><trkpt lat="42.2801447" lon="14.1325408"><ele>218.16666666666666</ele><time>2026-05-01T13:55:59.29Z</time></trkpt><trkpt lat="42.2800852" lon="14.1324995"><ele>217.0</ele><time>2026-05-01T13:56:00.281Z</time></trkpt><trkpt lat="42.2800235" lon="14.1324565"><ele>216.99999999999997</ele><time>2026-05-01T13:56:01.295Z</time></trkpt><trkpt lat="42.2799628" lon="14.1324191"><ele>217.0</ele><time>2026-05-01T13:56:02.285Z</time></trkpt><trkpt lat="42.2798707" lon="14.132329"><ele>217.0</ele><time>2026-05-01T13:56:04.275Z</time></trkpt><trkpt lat="42.2798548" lon="14.1322435"><ele>217.0</ele><time>2026-05-01T13:56:05.297Z</time></trkpt><trkpt lat="42.2798505" lon="14.1321408"><ele>216.99999999999997</ele><time>2026-05-01T13:56:06.281Z</time></trkpt><trkpt lat="42.2798349" lon="14.1320403"><ele>217.0</ele><time>2026-05-01T13:56:07.283Z</time></trkpt><trkpt lat="42.2798081" lon="14.1319444"><ele>217.99999999999997</ele><time>2026-05-01T13:56:08.297Z</time></trkpt><trkpt lat="42.2797799" lon="14.1318615"><ele>219.0</ele><time>2026-05-01T13:56:09.284Z</time></trkpt><trkpt lat="42.279758" lon="14.1317772"><ele>220.0</ele><time>2026-05-01T13:56:10.293Z</time></trkpt><trkpt lat="42.279735" lon="14.1316902"><ele>221.0</ele><time>2026-05-01T13:56:11.279Z</time></trkpt><trkpt lat="42.279706" lon="14.1315304"><ele>221.99999999999997</ele><time>2026-05-01T13:56:13.288Z</time></trkpt><trkpt lat="42.2797399" lon="14.1314462"><ele>223.0</ele><time>2026-05-01T13:56:16.281Z</time></trkpt><trkpt lat="42.2798412" lon="14.1314641"><ele>226.49999999999997</ele><time>2026-05-01T13:56:18.281Z</time></trkpt><trkpt lat="42.2799069" lon="14.1314904"><ele>230.0</ele><time>2026-05-01T13:56:19.293Z</time></trkpt><trkpt lat="42.2799801" lon="14.1315142"><ele>233.5</ele><time>2026-05-01T13:56:20.267Z</time></trkpt><trkpt lat="42.2800659" lon="14.1315253"><ele>237.0</ele><time>2026-05-01T13:56:21.295Z</time></trkpt><trkpt lat="42.2801601" lon="14.1315342"><ele>240.49999999999997</ele><time>2026-05-01T13:56:22.312Z</time></trkpt><trkpt lat="42.2802531" lon="14.1315324"><ele>244.0</ele><time>2026-05-01T13:56:23.294Z</time></trkpt><trkpt lat="42.2803523" lon="14.1315161"><ele>244.0</ele><time>2026-05-01T13:56:24.282Z</time></trkpt><trkpt lat="42.2804609" lon="14.1315014"><ele>243.99999999999997</ele><time>2026-05-01T13:56:25.273Z</time></trkpt><trkpt lat="42.2805672" lon="14.1314744"><ele>243.99999999999997</ele><time>2026-05-01T13:56:26.297Z</time></trkpt><trkpt lat="42.2806717" lon="14.1314235"><ele>244.0</ele><time>2026-05-01T13:56:27.296Z</time></trkpt><trkpt lat="42.2807646" lon="14.1313376"><ele>244.0</ele><time>2026-05-01T13:56:28.294Z</time></trkpt><trkpt lat="42.280828" lon="14.1312283"><ele>243.5</ele><time>2026-05-01T13:56:29.286Z</time></trkpt><trkpt lat="42.2808774" lon="14.1311014"><ele>243.0</ele><time>2026-05-01T13:56:30.291Z</time></trkpt><trkpt lat="42.2809195" lon="14.1309541"><ele>242.5</ele><time>2026-05-01T13:56:31.289Z</time></trkpt><trkpt lat="42.2809592" lon="14.1308045"><ele>242.0</ele><time>2026-05-01T13:56:32.282Z</time></trkpt><trkpt lat="42.2809959" lon="14.1306515"><ele>243.5</ele><time>2026-05-01T13:56:33.298Z</time></trkpt><trkpt lat="42.2810335" lon="14.1305013"><ele>245.0</ele><time>2026-05-01T13:56:34.287Z</time></trkpt><trkpt lat="42.2810591" lon="14.1303443"><ele>246.5</ele><time>2026-05-01T13:56:35.28Z</time></trkpt><trkpt lat="42.2810702" lon="14.1301934"><ele>248.0</ele><time>2026-05-01T13:56:36.286Z</time></trkpt><trkpt lat="42.2810511" lon="14.1300577"><ele>248.0</ele><time>2026-05-01T13:56:37.292Z</time></trkpt><trkpt lat="42.2809977" lon="14.1299575"><ele>248.0</ele><time>2026-05-01T13:56:38.286Z</time></trkpt><trkpt lat="42.2809244" lon="14.1298899"><ele>248.0</ele><time>2026-05-01T13:56:39.285Z</time></trkpt><trkpt lat="42.2808302" lon="14.1298751"><ele>248.0</ele><time>2026-05-01T13:56:40.275Z</time></trkpt><trkpt lat="42.2807425" lon="14.1299099"><ele>248.0</ele><time>2026-05-01T13:56:41.29Z</time></trkpt><trkpt lat="42.2806649" lon="14.130006"><ele>248.0</ele><time>2026-05-01T13:56:42.276Z</time></trkpt><trkpt lat="42.2806011" lon="14.1301103"><ele>248.0</ele><time>2026-05-01T13:56:43.279Z</time></trkpt><trkpt lat="42.280529" lon="14.1302238"><ele>248.0</ele><time>2026-05-01T13:56:44.276Z</time></trkpt><trkpt lat="42.2804511" lon="14.1303345"><ele>248.0</ele><time>2026-05-01T13:56:45.281Z</time></trkpt><trkpt lat="42.2803679" lon="14.1304365"><ele>248.0</ele><time>2026-05-01T13:56:46.277Z</time></trkpt><trkpt lat="42.2802667" lon="14.1305094"><ele>249.5</ele><time>2026-05-01T13:56:47.282Z</time></trkpt><trkpt lat="42.280148" lon="14.1305288"><ele>251.0</ele><time>2026-05-01T13:56:48.281Z</time></trkpt><trkpt lat="42.2800308" lon="14.1304948"><ele>252.5</ele><time>2026-05-01T13:56:49.282Z</time></trkpt><trkpt lat="42.2799101" lon="14.1304406"><ele>254.0</ele><time>2026-05-01T13:56:50.274Z</time></trkpt><trkpt lat="42.2797883" lon="14.1303824"><ele>253.5</ele><time>2026-05-01T13:56:51.268Z</time></trkpt><trkpt lat="42.2796673" lon="14.130314"><ele>253.0</ele><time>2026-05-01T13:56:52.293Z</time></trkpt><trkpt lat="42.2795431" lon="14.1302655"><ele>252.5</ele><time>2026-05-01T13:56:53.294Z</time></trkpt><trkpt lat="42.2794419" lon="14.1301893"><ele>252.0</ele><time>2026-05-01T13:56:54.284Z</time></trkpt><trkpt lat="42.2793586" lon="14.1301016"><ele>252.0</ele><time>2026-05-01T13:56:55.298Z</time></trkpt><trkpt lat="42.2793002" lon="14.1299711"><ele>252.0</ele><time>2026-05-01T13:56:56.279Z</time></trkpt><trkpt lat="42.2792812" lon="14.1298552"><ele>252.0</ele><time>2026-05-01T13:56:57.284Z</time></trkpt><trkpt lat="42.2792919" lon="14.129762"><ele>252.0</ele><time>2026-05-01T13:56:58.278Z</time></trkpt><trkpt lat="42.2793351" lon="14.1296841"><ele>252.0</ele><time>2026-05-01T13:56:59.276Z</time></trkpt><trkpt lat="42.2793871" lon="14.1296225"><ele>252.0</ele><time>2026-05-01T13:57:00.274Z</time></trkpt><trkpt lat="42.279459" lon="14.1295958"><ele>253.33333333333334</ele><time>2026-05-01T13:57:01.298Z</time></trkpt><trkpt lat="42.2795362" lon="14.1295909"><ele>254.66666666666669</ele><time>2026-05-01T13:57:02.282Z</time></trkpt><trkpt lat="42.2796115" lon="14.1295918"><ele>256.0</ele><time>2026-05-01T13:57:03.289Z</time></trkpt><trkpt lat="42.2796918" lon="14.1295832"><ele>257.33333333333337</ele><time>2026-05-01T13:57:04.273Z</time></trkpt><trkpt lat="42.2797687" lon="14.1295498"><ele>258.6666666666667</ele><time>2026-05-01T13:57:05.293Z</time></trkpt><trkpt lat="42.2798418" lon="14.1294967"><ele>260.0</ele><time>2026-05-01T13:57:06.296Z</time></trkpt><trkpt lat="42.2799031" lon="14.1294199"><ele>260.0</ele><time>2026-05-01T13:57:07.291Z</time></trkpt><trkpt lat="42.2799552" lon="14.1293152"><ele>260.0</ele><time>2026-05-01T13:57:08.28Z</time></trkpt><trkpt lat="42.2799997" lon="14.1291997"><ele>260.0</ele><time>2026-05-01T13:57:09.296Z</time></trkpt><trkpt lat="42.2800457" lon="14.1290784"><ele>260.0</ele><time>2026-05-01T13:57:10.284Z</time></trkpt><trkpt lat="42.2800945" lon="14.1289488"><ele>260.0</ele><time>2026-05-01T13:57:11.272Z</time></trkpt><trkpt lat="42.2801467" lon="14.1288202"><ele>262.2</ele><time>2026-05-01T13:57:12.273Z</time></trkpt><trkpt lat="42.2801969" lon="14.1286846"><ele>264.4</ele><time>2026-05-01T13:57:13.285Z</time></trkpt><trkpt lat="42.2802489" lon="14.1285533"><ele>266.6</ele><time>2026-05-01T13:57:14.266Z</time></trkpt><trkpt lat="42.280308" lon="14.1284258"><ele>268.8</ele><time>2026-05-01T13:57:15.282Z</time></trkpt><trkpt lat="42.2803891" lon="14.1283144"><ele>271.0</ele><time>2026-05-01T13:57:16.275Z</time></trkpt><trkpt lat="42.280486" lon="14.1282234"><ele>272.5</ele><time>2026-05-01T13:57:17.273Z</time></trkpt><trkpt lat="42.2805939" lon="14.1281493"><ele>274.0</ele><time>2026-05-01T13:57:18.294Z</time></trkpt><trkpt lat="42.2807046" lon="14.1280885"><ele>275.5</ele><time>2026-05-01T13:57:19.287Z</time></trkpt><trkpt lat="42.2808228" lon="14.1280412"><ele>277.0</ele><time>2026-05-01T13:57:20.284Z</time></trkpt><trkpt lat="42.2809343" lon="14.127981"><ele>277.0</ele><time>2026-05-01T13:57:21.283Z</time></trkpt><trkpt lat="42.2810153" lon="14.1278859"><ele>277.0</ele><time>2026-05-01T13:57:22.283Z</time></trkpt><trkpt lat="42.2810674" lon="14.1277753"><ele>277.0</ele><time>2026-05-01T13:57:23.282Z</time></trkpt><trkpt lat="42.2810841" lon="14.127647"><ele>277.0</ele><time>2026-05-01T13:57:24.264Z</time></trkpt><trkpt lat="42.2810702" lon="14.1275172"><ele>277.0</ele><time>2026-05-01T13:57:25.282Z</time></trkpt><trkpt lat="42.2810212" lon="14.1274082"><ele>279.2</ele><time>2026-05-01T13:57:26.274Z</time></trkpt><trkpt lat="42.2809447" lon="14.1273362"><ele>281.4</ele><time>2026-05-01T13:57:27.279Z</time></trkpt><trkpt lat="42.2808521" lon="14.127294"><ele>283.6</ele><time>2026-05-01T13:57:28.275Z</time></trkpt><trkpt lat="42.2807499" lon="14.1272969"><ele>285.8</ele><time>2026-05-01T13:57:29.277Z</time></trkpt><trkpt lat="42.2806405" lon="14.1273163"><ele>288.0</ele><time>2026-05-01T13:57:30.275Z</time></trkpt><trkpt lat="42.2805248" lon="14.127329"><ele>288.0</ele><time>2026-05-01T13:57:31.279Z</time></trkpt><trkpt lat="42.2803999" lon="14.1273448"><ele>288.0</ele><time>2026-05-01T13:57:32.275Z</time></trkpt><trkpt lat="42.280258" lon="14.1273611"><ele>288.0</ele><time>2026-05-01T13:57:33.27Z</time></trkpt><trkpt lat="42.2801166" lon="14.1273748"><ele>288.0</ele><time>2026-05-01T13:57:34.277Z</time></trkpt><trkpt lat="42.2799723" lon="14.1273857"><ele>286.5</ele><time>2026-05-01T13:57:35.276Z</time></trkpt><trkpt lat="42.2798251" lon="14.1274037"><ele>285.0</ele><time>2026-05-01T13:57:36.271Z</time></trkpt><trkpt lat="42.2796809" lon="14.1274177"><ele>283.5</ele><time>2026-05-01T13:57:37.281Z</time></trkpt><trkpt lat="42.2795296" lon="14.1274416"><ele>282.0</ele><time>2026-05-01T13:57:38.272Z</time></trkpt><trkpt lat="42.2793789" lon="14.1274552"><ele>282.0</ele><time>2026-05-01T13:57:39.284Z</time></trkpt><trkpt lat="42.279223" lon="14.1274738"><ele>282.0</ele><time>2026-05-01T13:57:40.277Z</time></trkpt><trkpt lat="42.2790712" lon="14.1274927"><ele>282.0</ele><time>2026-05-01T13:57:41.281Z</time></trkpt><trkpt lat="42.2789221" lon="14.1275122"><ele>282.5</ele><time>2026-05-01T13:57:42.269Z</time></trkpt><trkpt lat="42.2787799" lon="14.1275059"><ele>283.0</ele><time>2026-05-01T13:57:43.282Z</time></trkpt><trkpt lat="42.2786583" lon="14.1274703"><ele>283.5</ele><time>2026-05-01T13:57:44.28Z</time></trkpt><trkpt lat="42.2785621" lon="14.127386"><ele>284.0</ele><time>2026-05-01T13:57:45.276Z</time></trkpt><trkpt lat="42.2784879" lon="14.1272622"><ele>284.6666666666667</ele><time>2026-05-01T13:57:46.285Z</time></trkpt><trkpt lat="42.2784495" lon="14.1271432"><ele>285.33333333333337</ele><time>2026-05-01T13:57:47.279Z</time></trkpt><trkpt lat="42.2784345" lon="14.1270407"><ele>286.0</ele><time>2026-05-01T13:57:48.288Z</time></trkpt><trkpt lat="42.2784359" lon="14.126943"><ele>286.6666666666667</ele><time>2026-05-01T13:57:49.292Z</time></trkpt><trkpt lat="42.2784505" lon="14.1268504"><ele>287.3333333333333</ele><time>2026-05-01T13:57:50.276Z</time></trkpt><trkpt lat="42.2784847" lon="14.126762"><ele>288.0</ele><time>2026-05-01T13:57:51.277Z</time></trkpt><trkpt lat="42.2785315" lon="14.1266928"><ele>288.0</ele><time>2026-05-01T13:57:52.286Z</time></trkpt><trkpt lat="42.278625" lon="14.1266082"><ele>288.0</ele><time>2026-05-01T13:57:54.273Z</time></trkpt><trkpt lat="42.2787106" lon="14.1265657"><ele>288.0</ele><time>2026-05-01T13:57:56.287Z</time></trkpt><trkpt lat="42.2787842" lon="14.1265483"><ele>288.0</ele><time>2026-05-01T13:57:58.277Z</time></trkpt><trkpt lat="42.2787018" lon="14.1265116"><ele>288.0</ele><time>2026-05-01T13:58:03.28Z</time></trkpt><trkpt lat="42.2785849" lon="14.1265768"><ele>288.0</ele><time>2026-05-01T13:58:05.285Z</time></trkpt><trkpt lat="42.2785189" lon="14.1266358"><ele>288.0</ele><time>2026-05-01T13:58:06.276Z</time></trkpt><trkpt lat="42.2784641" lon="14.1267247"><ele>288.0</ele><time>2026-05-01T13:58:07.289Z</time></trkpt><trkpt lat="42.2784278" lon="14.1268247"><ele>288.0</ele><time>2026-05-01T13:58:08.271Z</time></trkpt><trkpt lat="42.27841" lon="14.126924"><ele>288.0</ele><time>2026-05-01T13:58:09.292Z</time></trkpt><trkpt lat="42.2784061" lon="14.1270184"><ele>288.0</ele><time>2026-05-01T13:58:10.275Z</time></trkpt><trkpt lat="42.2784146" lon="14.1271213"><ele>288.0</ele><time>2026-05-01T13:58:11.283Z</time></trkpt><trkpt lat="42.2784304" lon="14.1272053"><ele>288.0</ele><time>2026-05-01T13:58:12.279Z</time></trkpt><trkpt lat="42.2784805" lon="14.1273132"><ele>288.0</ele><time>2026-05-01T13:58:14.275Z</time></trkpt><trkpt lat="42.2785594" lon="14.1274162"><ele>288.0</ele><time>2026-05-01T13:58:16.279Z</time></trkpt><trkpt lat="42.2786591" lon="14.1274896"><ele>288.0</ele><time>2026-05-01T13:58:18.28Z</time></trkpt><trkpt lat="42.2787637" lon="14.1275238"><ele>287.3333333333333</ele><time>2026-05-01T13:58:20.28Z</time></trkpt><trkpt lat="42.2788296" lon="14.1275224"><ele>286.6666666666667</ele><time>2026-05-01T13:58:21.279Z</time></trkpt><trkpt lat="42.2789102" lon="14.1275214"><ele>286.0</ele><time>2026-05-01T13:58:22.267Z</time></trkpt><trkpt lat="42.2789918" lon="14.1275168"><ele>285.33333333333337</ele><time>2026-05-01T13:58:23.28Z</time></trkpt><trkpt lat="42.2790712" lon="14.1275113"><ele>284.6666666666667</ele><time>2026-05-01T13:58:24.276Z</time></trkpt><trkpt lat="42.2791476" lon="14.12751"><ele>284.0</ele><time>2026-05-01T13:58:25.279Z</time></trkpt><trkpt lat="42.2792211" lon="14.1274998"><ele>283.6666666666667</ele><time>2026-05-01T13:58:26.278Z</time></trkpt><trkpt lat="42.2792873" lon="14.1274921"><ele>283.33333333333337</ele><time>2026-05-01T13:58:27.283Z</time></trkpt><trkpt lat="42.279348" lon="14.1275267"><ele>283.0</ele><time>2026-05-01T13:58:29.283Z</time></trkpt><trkpt lat="42.2792857" lon="14.1276011"><ele>282.6666666666667</ele><time>2026-05-01T13:58:33.272Z</time></trkpt><trkpt lat="42.2791754" lon="14.1276254"><ele>282.3333333333333</ele><time>2026-05-01T13:58:35.287Z</time></trkpt><trkpt lat="42.2791002" lon="14.1276302"><ele>282.0</ele><time>2026-05-01T13:58:36.269Z</time></trkpt><trkpt lat="42.2790224" lon="14.127631"><ele>282.0</ele><time>2026-05-01T13:58:37.274Z</time></trkpt><trkpt lat="42.2789399" lon="14.1276312"><ele>282.0</ele><time>2026-05-01T13:58:38.292Z</time></trkpt><trkpt lat="42.2788553" lon="14.1276341"><ele>282.0</ele><time>2026-05-01T13:58:39.27Z</time></trkpt><trkpt lat="42.2787715" lon="14.1276328"><ele>282.0</ele><time>2026-05-01T13:58:40.278Z</time></trkpt><trkpt lat="42.278683" lon="14.1276273"><ele>282.0</ele><time>2026-05-01T13:58:41.285Z</time></trkpt><trkpt lat="42.2785921" lon="14.1276203"><ele>282.0</ele><time>2026-05-01T13:58:42.269Z</time></trkpt><trkpt lat="42.2784988" lon="14.1276131"><ele>282.4</ele><time>2026-05-01T13:58:43.278Z</time></trkpt><trkpt lat="42.278397" lon="14.1276045"><ele>282.79999999999995</ele><time>2026-05-01T13:58:44.286Z</time></trkpt><trkpt lat="42.278297" lon="14.127597"><ele>283.2</ele><time>2026-05-01T13:58:45.292Z</time></trkpt><trkpt lat="42.2781927" lon="14.127584"><ele>283.59999999999997</ele><time>2026-05-01T13:58:46.279Z</time></trkpt><trkpt lat="42.2780878" lon="14.1275623"><ele>284.0</ele><time>2026-05-01T13:58:47.278Z</time></trkpt><trkpt lat="42.2779921" lon="14.1275413"><ele>284.4</ele><time>2026-05-01T13:58:48.273Z</time></trkpt><trkpt lat="42.2779015" lon="14.1275086"><ele>284.79999999999995</ele><time>2026-05-01T13:58:49.276Z</time></trkpt><trkpt lat="42.2778121" lon="14.1274773"><ele>285.20000000000005</ele><time>2026-05-01T13:58:50.278Z</time></trkpt><trkpt lat="42.2777209" lon="14.1274398"><ele>285.6</ele><time>2026-05-01T13:58:51.276Z</time></trkpt><trkpt lat="42.2776334" lon="14.1273992"><ele>286.0</ele><time>2026-05-01T13:58:52.275Z</time></trkpt><trkpt lat="42.2775448" lon="14.1273657"><ele>287.6</ele><time>2026-05-01T13:58:53.278Z</time></trkpt><trkpt lat="42.277455" lon="14.1273486"><ele>289.20000000000005</ele><time>2026-05-01T13:58:54.27Z</time></trkpt><trkpt lat="42.2773616" lon="14.1273655"><ele>290.79999999999995</ele><time>2026-05-01T13:58:55.28Z</time></trkpt><trkpt lat="42.2772685" lon="14.1273844"><ele>292.4</ele><time>2026-05-01T13:58:56.28Z</time></trkpt><trkpt lat="42.277177" lon="14.1273927"><ele>294.0</ele><time>2026-05-01T13:58:57.279Z</time></trkpt><trkpt lat="42.2770885" lon="14.1273908"><ele>294.5</ele><time>2026-05-01T13:58:58.268Z</time></trkpt><trkpt lat="42.277014" lon="14.1273599"><ele>295.0</ele><time>2026-05-01T13:58:59.283Z</time></trkpt><trkpt lat="42.2769456" lon="14.1273252"><ele>295.5</ele><time>2026-05-01T13:59:00.281Z</time></trkpt><trkpt lat="42.2768682" lon="14.1272805"><ele>296.0</ele><time>2026-05-01T13:59:01.278Z</time></trkpt><trkpt lat="42.2767886" lon="14.1272452"><ele>296.5</ele><time>2026-05-01T13:59:02.284Z</time></trkpt><trkpt lat="42.2767117" lon="14.1272141"><ele>297.0</ele><time>2026-05-01T13:59:03.279Z</time></trkpt><trkpt lat="42.2766466" lon="14.1271888"><ele>297.0</ele><time>2026-05-01T13:59:04.272Z</time></trkpt><trkpt lat="42.2765419" lon="14.1272362"><ele>297.0</ele><time>2026-05-01T13:59:06.271Z</time></trkpt><trkpt lat="42.2764463" lon="14.1273515"><ele>297.0</ele><time>2026-05-01T13:59:08.275Z</time></trkpt><trkpt lat="42.2763936" lon="14.1274379"><ele>297.0</ele><time>2026-05-01T13:59:09.272Z</time></trkpt><trkpt lat="42.2763358" lon="14.1275358"><ele>297.0</ele><time>2026-05-01T13:59:10.282Z</time></trkpt><trkpt lat="42.2762753" lon="14.1276372"><ele>296.8</ele><time>2026-05-01T13:59:11.297Z</time></trkpt><trkpt lat="42.2762149" lon="14.1277324"><ele>296.6</ele><time>2026-05-01T13:59:12.287Z</time></trkpt><trkpt lat="42.2761487" lon="14.1278115"><ele>296.40000000000003</ele><time>2026-05-01T13:59:13.298Z</time></trkpt><trkpt lat="42.2760719" lon="14.1278796"><ele>296.2</ele><time>2026-05-01T13:59:14.287Z</time></trkpt><trkpt lat="42.2759882" lon="14.127932"><ele>296.0</ele><time>2026-05-01T13:59:15.279Z</time></trkpt><trkpt lat="42.2758976" lon="14.1279652"><ele>296.0</ele><time>2026-05-01T13:59:16.277Z</time></trkpt><trkpt lat="42.2757994" lon="14.1279912"><ele>296.0</ele><time>2026-05-01T13:59:17.281Z</time></trkpt><trkpt lat="42.2756982" lon="14.1280151"><ele>296.0</ele><time>2026-05-01T13:59:18.27Z</time></trkpt><trkpt lat="42.2755962" lon="14.1280451"><ele>296.0</ele><time>2026-05-01T13:59:19.282Z</time></trkpt><trkpt lat="42.2755041" lon="14.1280856"><ele>296.0</ele><time>2026-05-01T13:59:20.269Z</time></trkpt><trkpt lat="42.2754259" lon="14.1281424"><ele>296.6666666666667</ele><time>2026-05-01T13:59:21.28Z</time></trkpt><trkpt lat="42.275359" lon="14.1282045"><ele>297.33333333333337</ele><time>2026-05-01T13:59:22.289Z</time></trkpt><trkpt lat="42.2753009" lon="14.1282533"><ele>298.0</ele><time>2026-05-01T13:59:23.287Z</time></trkpt><trkpt lat="42.275226" lon="14.1282926"><ele>298.6666666666667</ele><time>2026-05-01T13:59:25.283Z</time></trkpt><trkpt lat="42.275166" lon="14.1282252"><ele>299.3333333333333</ele><time>2026-05-01T13:59:27.281Z</time></trkpt><trkpt lat="42.2751212" lon="14.1280757"><ele>300.0</ele><time>2026-05-01T13:59:29.277Z</time></trkpt><trkpt lat="42.2750981" lon="14.1279896"><ele>300.5</ele><time>2026-05-01T13:59:30.28Z</time></trkpt><trkpt lat="42.2750688" lon="14.1279003"><ele>301.0</ele><time>2026-05-01T13:59:31.262Z</time></trkpt><trkpt lat="42.27504" lon="14.1278"><ele>301.5</ele><time>2026-05-01T13:59:32.279Z</time></trkpt><trkpt lat="42.2750065" lon="14.1276953"><ele>302.0</ele><time>2026-05-01T13:59:33.269Z</time></trkpt><trkpt lat="42.2749699" lon="14.1275854"><ele>302.5</ele><time>2026-05-01T13:59:34.273Z</time></trkpt><trkpt lat="42.2749268" lon="14.1274668"><ele>303.0</ele><time>2026-05-01T13:59:35.282Z</time></trkpt><trkpt lat="42.2748827" lon="14.1273422"><ele>303.5</ele><time>2026-05-01T13:59:36.28Z</time></trkpt><trkpt lat="42.2748418" lon="14.127201"><ele>304.0</ele><time>2026-05-01T13:59:37.273Z</time></trkpt><trkpt lat="42.2747965" lon="14.1270559"><ele>304.5</ele><time>2026-05-01T13:59:38.299Z</time></trkpt><trkpt lat="42.2747533" lon="14.1269046"><ele>305.0</ele><time>2026-05-01T13:59:39.284Z</time></trkpt><trkpt lat="42.2747104" lon="14.1267529"><ele>303.5</ele><time>2026-05-01T13:59:40.286Z</time></trkpt><trkpt lat="42.2746759" lon="14.1265974"><ele>302.0</ele><time>2026-05-01T13:59:41.269Z</time></trkpt><trkpt lat="42.2746397" lon="14.1264389"><ele>300.5</ele><time>2026-05-01T13:59:42.284Z</time></trkpt><trkpt lat="42.2746201" lon="14.1262784"><ele>299.0</ele><time>2026-05-01T13:59:43.281Z</time></trkpt><trkpt lat="42.274627" lon="14.126126"><ele>297.25</ele><time>2026-05-01T13:59:44.288Z</time></trkpt><trkpt lat="42.2746505" lon="14.1259653"><ele>295.5</ele><time>2026-05-01T13:59:45.281Z</time></trkpt><trkpt lat="42.2746873" lon="14.1258028"><ele>293.75</ele><time>2026-05-01T13:59:46.258Z</time></trkpt><trkpt lat="42.2747335" lon="14.1256389"><ele>292.0</ele><time>2026-05-01T13:59:47.268Z</time></trkpt><trkpt lat="42.27478" lon="14.1254742"><ele>298.75</ele><time>2026-05-01T13:59:48.262Z</time></trkpt><trkpt lat="42.2748274" lon="14.1253144"><ele>305.5</ele><time>2026-05-01T13:59:49.278Z</time></trkpt><trkpt lat="42.2748696" lon="14.1251596"><ele>312.25</ele><time>2026-05-01T13:59:50.263Z</time></trkpt><trkpt lat="42.2749121" lon="14.1250191"><ele>319.0</ele><time>2026-05-01T13:59:51.282Z</time></trkpt><trkpt lat="42.2749571" lon="14.1248969"><ele>320.3333333333333</ele><time>2026-05-01T13:59:52.27Z</time></trkpt><trkpt lat="42.2749978" lon="14.1248029"><ele>321.66666666666663</ele><time>2026-05-01T13:59:53.284Z</time></trkpt><trkpt lat="42.2750389" lon="14.1247138"><ele>323.0</ele><time>2026-05-01T13:59:54.285Z</time></trkpt><trkpt lat="42.2750815" lon="14.1246211"><ele>324.3333333333333</ele><time>2026-05-01T13:59:55.293Z</time></trkpt><trkpt lat="42.2751219" lon="14.1245334"><ele>325.6666666666667</ele><time>2026-05-01T13:59:56.275Z</time></trkpt><trkpt lat="42.2751576" lon="14.1244436"><ele>327.0</ele><time>2026-05-01T13:59:57.295Z</time></trkpt><trkpt lat="42.2751958" lon="14.1243689"><ele>327.0</ele><time>2026-05-01T13:59:58.277Z</time></trkpt><trkpt lat="42.2752629" lon="14.1242941"><ele>327.0</ele><time>2026-05-01T14:00:00.271Z</time></trkpt><trkpt lat="42.2753716" lon="14.1242579"><ele>327.0</ele><time>2026-05-01T14:00:02.264Z</time></trkpt><trkpt lat="42.2754432" lon="14.1242467"><ele>327.0</ele><time>2026-05-01T14:00:03.289Z</time></trkpt><trkpt lat="42.2755203" lon="14.1242365"><ele>327.0</ele><time>2026-05-01T14:00:04.278Z</time></trkpt><trkpt lat="42.2755957" lon="14.1242327"><ele>327.0</ele><time>2026-05-01T14:00:05.292Z</time></trkpt><trkpt lat="42.2756604" lon="14.1242309"><ele>325.8</ele><time>2026-05-01T14:00:06.293Z</time></trkpt><trkpt lat="42.2757852" lon="14.1242258"><ele>324.6</ele><time>2026-05-01T14:00:08.28Z</time></trkpt><trkpt lat="42.2758499" lon="14.1242232"><ele>323.40000000000003</ele><time>2026-05-01T14:00:09.286Z</time></trkpt><trkpt lat="42.2759137" lon="14.1242217"><ele>322.20000000000005</ele><time>2026-05-01T14:00:10.276Z</time></trkpt><trkpt lat="42.2760319" lon="14.1241919"><ele>321.0</ele><time>2026-05-01T14:00:12.256Z</time></trkpt><trkpt lat="42.2761202" lon="14.1241529"><ele>320.99999999999994</ele><time>2026-05-01T14:00:14.279Z</time></trkpt><trkpt lat="42.276172" lon="14.1240916"><ele>321.0</ele><time>2026-05-01T14:00:20.271Z</time></trkpt><trkpt lat="42.2761902" lon="14.1239891"><ele>321.0</ele><time>2026-05-01T14:00:23.272Z</time></trkpt><trkpt lat="42.276186" lon="14.1238953"><ele>321.0</ele><time>2026-05-01T14:00:25.283Z</time></trkpt><trkpt lat="42.2761818" lon="14.1238085"><ele>321.0</ele><time>2026-05-01T14:00:27.278Z</time></trkpt><trkpt lat="42.2762051" lon="14.1237109"><ele>320.99999999999994</ele><time>2026-05-01T14:00:30.26Z</time></trkpt><trkpt lat="42.2761952" lon="14.1236185"><ele>321.0</ele><time>2026-05-01T14:00:33.275Z</time></trkpt><trkpt lat="42.2761548" lon="14.1235187"><ele>320.3333333333333</ele><time>2026-05-01T14:00:35.277Z</time></trkpt><trkpt lat="42.2761017" lon="14.1234496"><ele>319.6666666666667</ele><time>2026-05-01T14:00:38.283Z</time></trkpt><trkpt lat="42.2760054" lon="14.1233962"><ele>319.0</ele><time>2026-05-01T14:00:52.283Z</time></trkpt><trkpt lat="42.2758914" lon="14.1233577"><ele>318.33333333333337</ele><time>2026-05-01T14:00:54.278Z</time></trkpt><trkpt lat="42.2758274" lon="14.1233391"><ele>317.6666666666667</ele><time>2026-05-01T14:00:55.277Z</time></trkpt><trkpt lat="42.2757576" lon="14.1233146"><ele>317.0</ele><time>2026-05-01T14:00:56.269Z</time></trkpt><trkpt lat="42.275681" lon="14.123288"><ele>317.0</ele><time>2026-05-01T14:00:57.275Z</time></trkpt><trkpt lat="42.2756038" lon="14.1232675"><ele>317.0</ele><time>2026-05-01T14:00:58.269Z</time></trkpt><trkpt lat="42.2755213" lon="14.1232497"><ele>317.0</ele><time>2026-05-01T14:00:59.276Z</time></trkpt><trkpt lat="42.275441" lon="14.1232286"><ele>317.0</ele><time>2026-05-01T14:01:00.297Z</time></trkpt><trkpt lat="42.2753621" lon="14.1232069"><ele>317.0</ele><time>2026-05-01T14:01:01.289Z</time></trkpt><trkpt lat="42.2752861" lon="14.1231809"><ele>317.0</ele><time>2026-05-01T14:01:02.302Z</time></trkpt><trkpt lat="42.2752139" lon="14.1231613"><ele>316.5</ele><time>2026-05-01T14:01:03.283Z</time></trkpt><trkpt lat="42.2751375" lon="14.1231443"><ele>316.0</ele><time>2026-05-01T14:01:04.278Z</time></trkpt><trkpt lat="42.2750664" lon="14.1231258"><ele>315.5</ele><time>2026-05-01T14:01:05.278Z</time></trkpt><trkpt lat="42.2749593" lon="14.1231068"><ele>315.0</ele><time>2026-05-01T14:01:07.28Z</time></trkpt><trkpt lat="42.2748871" lon="14.1231136"><ele>314.5</ele><time>2026-05-01T14:01:09.292Z</time></trkpt><trkpt lat="42.2748095" lon="14.123153"><ele>314.0</ele><time>2026-05-01T14:01:14.26Z</time></trkpt><trkpt lat="42.2747337" lon="14.1231974"><ele>314.0</ele><time>2026-05-01T14:01:17.27Z</time></trkpt><trkpt lat="42.2748042" lon="14.1231427"><ele>314.0</ele><time>2026-05-01T14:11:38.261Z</time></trkpt><trkpt lat="42.2747426" lon="14.1230934"><ele>314.0</ele><time>2026-05-01T14:11:52.281Z</time></trkpt><trkpt lat="42.2746676" lon="14.1230797"><ele>314.0</ele><time>2026-05-01T14:11:54.273Z</time></trkpt><trkpt lat="42.27455" lon="14.1230634"><ele>314.0</ele><time>2026-05-01T14:11:56.273Z</time></trkpt><trkpt lat="42.2744887" lon="14.1230408"><ele>314.0</ele><time>2026-05-01T14:11:57.273Z</time></trkpt><trkpt lat="42.2744197" lon="14.1230039"><ele>315.0</ele><time>2026-05-01T14:11:58.274Z</time></trkpt><trkpt lat="42.2743426" lon="14.1229528"><ele>316.0</ele><time>2026-05-01T14:11:59.272Z</time></trkpt><trkpt lat="42.2742664" lon="14.1228991"><ele>317.0</ele><time>2026-05-01T14:12:00.265Z</time></trkpt><trkpt lat="42.2741966" lon="14.1228478"><ele>318.0</ele><time>2026-05-01T14:12:01.27Z</time></trkpt><trkpt lat="42.2741352" lon="14.1227998"><ele>319.0</ele><time>2026-05-01T14:12:02.269Z</time></trkpt><trkpt lat="42.2740804" lon="14.1227274"><ele>320.0</ele><time>2026-05-01T14:12:03.26Z</time></trkpt><trkpt lat="42.2740393" lon="14.1226426"><ele>320.0</ele><time>2026-05-01T14:12:04.271Z</time></trkpt><trkpt lat="42.2740117" lon="14.1225446"><ele>320.0</ele><time>2026-05-01T14:12:05.254Z</time></trkpt><trkpt lat="42.2739859" lon="14.1224547"><ele>320.0</ele><time>2026-05-01T14:12:06.248Z</time></trkpt><trkpt lat="42.2739189" lon="14.1223707"><ele>320.0</ele><time>2026-05-01T14:12:08.251Z</time></trkpt><trkpt lat="42.2738493" lon="14.1223072"><ele>320.0</ele><time>2026-05-01T14:12:13.262Z</time></trkpt><trkpt lat="42.2737825" lon="14.1222476"><ele>320.0</ele><time>2026-05-01T14:12:15.252Z</time></trkpt><trkpt lat="42.2737307" lon="14.1221755"><ele>316.2</ele><time>2026-05-01T14:12:17.251Z</time></trkpt><trkpt lat="42.2736873" lon="14.1220613"><ele>312.4</ele><time>2026-05-01T14:12:19.25Z</time></trkpt><trkpt lat="42.2736587" lon="14.1219066"><ele>308.6</ele><time>2026-05-01T14:12:21.26Z</time></trkpt><trkpt lat="42.2736384" lon="14.1218208"><ele>304.8</ele><time>2026-05-01T14:12:22.247Z</time></trkpt><trkpt lat="42.2735798" lon="14.1216743"><ele>301.0</ele><time>2026-05-01T14:12:24.254Z</time></trkpt><trkpt lat="42.2735293" lon="14.121602"><ele>300.5</ele><time>2026-05-01T14:12:25.273Z</time></trkpt><trkpt lat="42.2734741" lon="14.121533"><ele>300.0</ele><time>2026-05-01T14:12:26.272Z</time></trkpt><trkpt lat="42.2734185" lon="14.1214678"><ele>299.5</ele><time>2026-05-01T14:12:27.276Z</time></trkpt><trkpt lat="42.2733606" lon="14.1214177"><ele>299.0</ele><time>2026-05-01T14:12:28.273Z</time></trkpt><trkpt lat="42.2732768" lon="14.1213149"><ele>298.5</ele><time>2026-05-01T14:12:30.28Z</time></trkpt><trkpt lat="42.2732308" lon="14.1211744"><ele>298.0</ele><time>2026-05-01T14:12:32.264Z</time></trkpt><trkpt lat="42.2731788" lon="14.1210994"><ele>298.0</ele><time>2026-05-01T14:12:33.269Z</time></trkpt><trkpt lat="42.2731158" lon="14.1210328"><ele>298.0</ele><time>2026-05-01T14:12:34.277Z</time></trkpt><trkpt lat="42.2730382" lon="14.120984"><ele>298.0</ele><time>2026-05-01T14:12:35.263Z</time></trkpt><trkpt lat="42.2729609" lon="14.120934"><ele>298.0</ele><time>2026-05-01T14:12:36.263Z</time></trkpt><trkpt lat="42.2728886" lon="14.1208699"><ele>298.0</ele><time>2026-05-01T14:12:37.277Z</time></trkpt><trkpt lat="42.272816" lon="14.1208164"><ele>298.0</ele><time>2026-05-01T14:12:38.298Z</time></trkpt><trkpt lat="42.2727435" lon="14.120773"><ele>295.85714285714283</ele><time>2026-05-01T14:12:39.274Z</time></trkpt><trkpt lat="42.2726724" lon="14.1207307"><ele>293.71428571428567</ele><time>2026-05-01T14:12:40.273Z</time></trkpt><trkpt lat="42.2726115" lon="14.1206967"><ele>291.57142857142856</ele><time>2026-05-01T14:12:41.275Z</time></trkpt><trkpt lat="42.2725546" lon="14.1206557"><ele>289.42857142857144</ele><time>2026-05-01T14:12:42.267Z</time></trkpt><trkpt lat="42.2724984" lon="14.1206041"><ele>287.28571428571433</ele><time>2026-05-01T14:12:43.281Z</time></trkpt><trkpt lat="42.272433" lon="14.1205433"><ele>285.14285714285717</ele><time>2026-05-01T14:12:44.28Z</time></trkpt><trkpt lat="42.2723614" lon="14.1204812"><ele>283.0</ele><time>2026-05-01T14:12:45.269Z</time></trkpt><trkpt lat="42.2722883" lon="14.1204194"><ele>282.7142857142857</ele><time>2026-05-01T14:12:46.269Z</time></trkpt><trkpt lat="42.2722247" lon="14.1203691"><ele>282.42857142857144</ele><time>2026-05-01T14:12:47.273Z</time></trkpt><trkpt lat="42.2721672" lon="14.1203227"><ele>282.14285714285717</ele><time>2026-05-01T14:12:48.287Z</time></trkpt><trkpt lat="42.2721133" lon="14.1202681"><ele>281.8571428571429</ele><time>2026-05-01T14:12:49.271Z</time></trkpt><trkpt lat="42.2720587" lon="14.1202148"><ele>281.57142857142856</ele><time>2026-05-01T14:12:50.268Z</time></trkpt><trkpt lat="42.2719993" lon="14.1201588"><ele>281.28571428571433</ele><time>2026-05-01T14:12:51.27Z</time></trkpt><trkpt lat="42.271936" lon="14.1201048"><ele>281.0</ele><time>2026-05-01T14:12:52.265Z</time></trkpt><trkpt lat="42.2718727" lon="14.1200448"><ele>281.00000000000006</ele><time>2026-05-01T14:12:53.271Z</time></trkpt><trkpt lat="42.2718072" lon="14.1199893"><ele>281.0</ele><time>2026-05-01T14:12:54.264Z</time></trkpt><trkpt lat="42.2717394" lon="14.1199415"><ele>281.0</ele><time>2026-05-01T14:12:55.28Z</time></trkpt><trkpt lat="42.2716699" lon="14.1199043"><ele>281.0</ele><time>2026-05-01T14:12:56.266Z</time></trkpt><trkpt lat="42.2716053" lon="14.1198652"><ele>281.0</ele><time>2026-05-01T14:12:57.268Z</time></trkpt><trkpt lat="42.2715508" lon="14.1198122"><ele>281.00000000000006</ele><time>2026-05-01T14:12:58.267Z</time></trkpt><trkpt lat="42.2715016" lon="14.1197411"><ele>281.0</ele><time>2026-05-01T14:12:59.27Z</time></trkpt><trkpt lat="42.2714622" lon="14.1196498"><ele>280.40000000000003</ele><time>2026-05-01T14:13:00.278Z</time></trkpt><trkpt lat="42.2714252" lon="14.1195482"><ele>279.8</ele><time>2026-05-01T14:13:01.285Z</time></trkpt><trkpt lat="42.2713912" lon="14.1194309"><ele>279.20000000000005</ele><time>2026-05-01T14:13:02.281Z</time></trkpt><trkpt lat="42.2713564" lon="14.1193125"><ele>278.6</ele><time>2026-05-01T14:13:03.282Z</time></trkpt><trkpt lat="42.2713187" lon="14.1192003"><ele>278.0</ele><time>2026-05-01T14:13:04.265Z</time></trkpt><trkpt lat="42.2712764" lon="14.1190934"><ele>277.33333333333337</ele><time>2026-05-01T14:13:05.289Z</time></trkpt><trkpt lat="42.2712322" lon="14.1189898"><ele>276.6666666666667</ele><time>2026-05-01T14:13:06.283Z</time></trkpt><trkpt lat="42.2711806" lon="14.1189011"><ele>276.0</ele><time>2026-05-01T14:13:07.293Z</time></trkpt><trkpt lat="42.2711224" lon="14.1188396"><ele>275.3333333333333</ele><time>2026-05-01T14:13:08.268Z</time></trkpt><trkpt lat="42.2710633" lon="14.118798"><ele>274.66666666666663</ele><time>2026-05-01T14:13:09.274Z</time></trkpt><trkpt lat="42.2709711" lon="14.1187688"><ele>274.0</ele><time>2026-05-01T14:13:11.289Z</time></trkpt><trkpt lat="42.2708547" lon="14.1187675"><ele>274.0</ele><time>2026-05-01T14:13:13.286Z</time></trkpt><trkpt lat="42.2707712" lon="14.1187713"><ele>274.0</ele><time>2026-05-01T14:13:14.279Z</time></trkpt><trkpt lat="42.2706731" lon="14.1187642"><ele>274.0</ele><time>2026-05-01T14:13:15.283Z</time></trkpt><trkpt lat="42.2705679" lon="14.1187497"><ele>274.0</ele><time>2026-05-01T14:13:16.272Z</time></trkpt><trkpt lat="42.2704605" lon="14.1187227"><ele>274.0</ele><time>2026-05-01T14:13:17.28Z</time></trkpt><trkpt lat="42.2703498" lon="14.1186918"><ele>276.0</ele><time>2026-05-01T14:13:18.274Z</time></trkpt><trkpt lat="42.2702469" lon="14.1186384"><ele>278.0</ele><time>2026-05-01T14:13:19.3Z</time></trkpt><trkpt lat="42.2701366" lon="14.1185738"><ele>280.0</ele><time>2026-05-01T14:13:20.285Z</time></trkpt><trkpt lat="42.2700255" lon="14.1185122"><ele>282.0</ele><time>2026-05-01T14:13:21.281Z</time></trkpt><trkpt lat="42.2699335" lon="14.1184588"><ele>282.0</ele><time>2026-05-01T14:13:22.263Z</time></trkpt><trkpt lat="42.2698723" lon="14.1184162"><ele>282.0</ele><time>2026-05-01T14:13:23.271Z</time></trkpt><trkpt lat="42.2698202" lon="14.1183605"><ele>282.0</ele><time>2026-05-01T14:13:24.264Z</time></trkpt><trkpt lat="42.269769" lon="14.1183095"><ele>282.0</ele><time>2026-05-01T14:13:25.274Z</time></trkpt><trkpt lat="42.2696629" lon="14.1182292"><ele>282.0</ele><time>2026-05-01T14:13:27.273Z</time></trkpt><trkpt lat="42.2696063" lon="14.1181652"><ele>282.0</ele><time>2026-05-01T14:13:28.295Z</time></trkpt><trkpt lat="42.2695486" lon="14.1180897"><ele>279.4</ele><time>2026-05-01T14:13:29.279Z</time></trkpt><trkpt lat="42.2694934" lon="14.1180001"><ele>276.79999999999995</ele><time>2026-05-01T14:13:30.271Z</time></trkpt><trkpt lat="42.2694441" lon="14.1179012"><ele>274.2</ele><time>2026-05-01T14:13:31.273Z</time></trkpt><trkpt lat="42.2694072" lon="14.1177871"><ele>271.59999999999997</ele><time>2026-05-01T14:13:32.279Z</time></trkpt><trkpt lat="42.2693892" lon="14.1176659"><ele>269.0</ele><time>2026-05-01T14:13:33.265Z</time></trkpt><trkpt lat="42.2693966" lon="14.117518"><ele>267.0</ele><time>2026-05-01T14:13:34.255Z</time></trkpt><trkpt lat="42.2694294" lon="14.1173698"><ele>265.0</ele><time>2026-05-01T14:13:35.257Z</time></trkpt><trkpt lat="42.2694866" lon="14.1172346"><ele>263.0</ele><time>2026-05-01T14:13:36.278Z</time></trkpt><trkpt lat="42.2695346" lon="14.1171175"><ele>261.0</ele><time>2026-05-01T14:13:37.275Z</time></trkpt><trkpt lat="42.2695681" lon="14.1170109"><ele>259.0</ele><time>2026-05-01T14:13:38.274Z</time></trkpt><trkpt lat="42.2695826" lon="14.1168932"><ele>259.0</ele><time>2026-05-01T14:13:39.289Z</time></trkpt><trkpt lat="42.2695866" lon="14.1167429"><ele>259.0</ele><time>2026-05-01T14:13:40.269Z</time></trkpt><trkpt lat="42.2695846" lon="14.1165702"><ele>259.0</ele><time>2026-05-01T14:13:41.28Z</time></trkpt><trkpt lat="42.2695842" lon="14.1164018"><ele>259.0</ele><time>2026-05-01T14:13:42.271Z</time></trkpt><trkpt lat="42.2695851" lon="14.1162523"><ele>257.8</ele><time>2026-05-01T14:13:43.287Z</time></trkpt><trkpt lat="42.2695802" lon="14.1161201"><ele>256.59999999999997</ele><time>2026-05-01T14:13:44.274Z</time></trkpt><trkpt lat="42.2695545" lon="14.1159987"><ele>255.4</ele><time>2026-05-01T14:13:45.273Z</time></trkpt><trkpt lat="42.2695202" lon="14.1158759"><ele>254.2</ele><time>2026-05-01T14:13:46.268Z</time></trkpt><trkpt lat="42.2694671" lon="14.1157748"><ele>253.0</ele><time>2026-05-01T14:13:47.273Z</time></trkpt><trkpt lat="42.2693874" lon="14.1156979"><ele>251.8</ele><time>2026-05-01T14:13:48.267Z</time></trkpt><trkpt lat="42.2692977" lon="14.115632"><ele>250.60000000000002</ele><time>2026-05-01T14:13:49.286Z</time></trkpt><trkpt lat="42.2692168" lon="14.1155687"><ele>249.39999999999998</ele><time>2026-05-01T14:13:50.278Z</time></trkpt><trkpt lat="42.2691552" lon="14.1154989"><ele>248.2</ele><time>2026-05-01T14:13:51.275Z</time></trkpt><trkpt lat="42.2691026" lon="14.1154033"><ele>247.0</ele><time>2026-05-01T14:13:52.266Z</time></trkpt><trkpt lat="42.2690534" lon="14.1152823"><ele>247.0</ele><time>2026-05-01T14:13:53.269Z</time></trkpt><trkpt lat="42.2690068" lon="14.1151729"><ele>247.0</ele><time>2026-05-01T14:13:54.274Z</time></trkpt><trkpt lat="42.2689797" lon="14.1150883"><ele>247.0</ele><time>2026-05-01T14:13:55.267Z</time></trkpt><trkpt lat="42.2689516" lon="14.1149476"><ele>247.0</ele><time>2026-05-01T14:13:57.261Z</time></trkpt><trkpt lat="42.2688882" lon="14.1147939"><ele>247.0</ele><time>2026-05-01T14:13:59.265Z</time></trkpt><trkpt lat="42.268855" lon="14.1147063"><ele>243.99999999999997</ele><time>2026-05-01T14:14:00.256Z</time></trkpt><trkpt lat="42.2688281" lon="14.1146141"><ele>241.0</ele><time>2026-05-01T14:14:01.259Z</time></trkpt><trkpt lat="42.2688137" lon="14.1145082"><ele>238.0</ele><time>2026-05-01T14:14:02.272Z</time></trkpt><trkpt lat="42.2688004" lon="14.1144134"><ele>235.0</ele><time>2026-05-01T14:14:03.266Z</time></trkpt><trkpt lat="42.2687887" lon="14.1143134"><ele>231.99999999999997</ele><time>2026-05-01T14:14:04.269Z</time></trkpt><trkpt lat="42.2687633" lon="14.1141977"><ele>229.0</ele><time>2026-05-01T14:14:05.277Z</time></trkpt><trkpt lat="42.2687335" lon="14.1140728"><ele>229.0</ele><time>2026-05-01T14:14:06.288Z</time></trkpt><trkpt lat="42.2686915" lon="14.113968"><ele>228.99999999999997</ele><time>2026-05-01T14:14:07.274Z</time></trkpt><trkpt lat="42.2686191" lon="14.1138957"><ele>228.99999999999997</ele><time>2026-05-01T14:14:08.282Z</time></trkpt><trkpt lat="42.2685128" lon="14.1138217"><ele>229.0</ele><time>2026-05-01T14:14:09.286Z</time></trkpt><trkpt lat="42.2684044" lon="14.113729"><ele>229.0</ele><time>2026-05-01T14:14:10.272Z</time></trkpt><trkpt lat="42.2683021" lon="14.1136465"><ele>229.0</ele><time>2026-05-01T14:14:11.277Z</time></trkpt><trkpt lat="42.2682057" lon="14.1135884"><ele>228.99999999999997</ele><time>2026-05-01T14:14:12.282Z</time></trkpt><trkpt lat="42.2681174" lon="14.1135258"><ele>228.99999999999997</ele><time>2026-05-01T14:14:13.266Z</time></trkpt><trkpt lat="42.268034" lon="14.113426"><ele>229.0</ele><time>2026-05-01T14:14:14.282Z</time></trkpt><trkpt lat="42.2679508" lon="14.1132947"><ele>229.0</ele><time>2026-05-01T14:14:15.284Z</time></trkpt><trkpt lat="42.267876" lon="14.1131654"><ele>229.79999999999998</ele><time>2026-05-01T14:14:16.264Z</time></trkpt><trkpt lat="42.2678205" lon="14.1130439"><ele>230.59999999999997</ele><time>2026-05-01T14:14:17.27Z</time></trkpt><trkpt lat="42.2677712" lon="14.1129257"><ele>231.4</ele><time>2026-05-01T14:14:18.283Z</time></trkpt><trkpt lat="42.2676971" lon="14.1128204"><ele>232.2</ele><time>2026-05-01T14:14:19.256Z</time></trkpt><trkpt lat="42.2676056" lon="14.1127022"><ele>233.0</ele><time>2026-05-01T14:14:20.287Z</time></trkpt><trkpt lat="42.2675134" lon="14.1125994"><ele>233.0</ele><time>2026-05-01T14:14:21.288Z</time></trkpt><trkpt lat="42.2674446" lon="14.112498"><ele>233.0</ele><time>2026-05-01T14:14:22.278Z</time></trkpt><trkpt lat="42.2673982" lon="14.1123538"><ele>233.0</ele><time>2026-05-01T14:14:23.282Z</time></trkpt><trkpt lat="42.2673623" lon="14.1121895"><ele>233.0</ele><time>2026-05-01T14:14:24.278Z</time></trkpt><trkpt lat="42.2673273" lon="14.1120248"><ele>232.0</ele><time>2026-05-01T14:14:25.273Z</time></trkpt><trkpt lat="42.2672914" lon="14.1118744"><ele>231.0</ele><time>2026-05-01T14:14:26.273Z</time></trkpt><trkpt lat="42.2672516" lon="14.1117192"><ele>230.0</ele><time>2026-05-01T14:14:27.279Z</time></trkpt><trkpt lat="42.2672099" lon="14.1115612"><ele>229.0</ele><time>2026-05-01T14:14:28.292Z</time></trkpt><trkpt lat="42.2671684" lon="14.1114213"><ele>232.75</ele><time>2026-05-01T14:14:29.271Z</time></trkpt><trkpt lat="42.2671249" lon="14.1112771"><ele>236.5</ele><time>2026-05-01T14:14:30.269Z</time></trkpt><trkpt lat="42.2670679" lon="14.1111214"><ele>240.25</ele><time>2026-05-01T14:14:31.272Z</time></trkpt><trkpt lat="42.2670112" lon="14.1109616"><ele>244.0</ele><time>2026-05-01T14:14:32.275Z</time></trkpt><trkpt lat="42.2669684" lon="14.1108196"><ele>244.6</ele><time>2026-05-01T14:14:33.274Z</time></trkpt><trkpt lat="42.2669314" lon="14.1107057"><ele>245.2</ele><time>2026-05-01T14:14:34.267Z</time></trkpt><trkpt lat="42.2668968" lon="14.1105882"><ele>245.79999999999998</ele><time>2026-05-01T14:14:35.286Z</time></trkpt><trkpt lat="42.2668611" lon="14.110453"><ele>246.39999999999998</ele><time>2026-05-01T14:14:36.278Z</time></trkpt><trkpt lat="42.2668359" lon="14.1103118"><ele>247.0</ele><time>2026-05-01T14:14:37.28Z</time></trkpt><trkpt lat="42.2668144" lon="14.1101657"><ele>246.99999999999997</ele><time>2026-05-01T14:14:38.258Z</time></trkpt><trkpt lat="42.2667957" lon="14.1100155"><ele>247.0</ele><time>2026-05-01T14:14:39.284Z</time></trkpt><trkpt lat="42.2667641" lon="14.1098786"><ele>247.0</ele><time>2026-05-01T14:14:40.279Z</time></trkpt><trkpt lat="42.2667304" lon="14.1097766"><ele>247.0</ele><time>2026-05-01T14:14:41.283Z</time></trkpt><trkpt lat="42.2666952" lon="14.109702"><ele>246.99999999999997</ele><time>2026-05-01T14:14:42.262Z</time></trkpt><trkpt lat="42.2666653" lon="14.1096142"><ele>247.0</ele><time>2026-05-01T14:14:43.278Z</time></trkpt><trkpt lat="42.2666232" lon="14.1095194"><ele>249.0</ele><time>2026-05-01T14:14:44.277Z</time></trkpt><trkpt lat="42.2665744" lon="14.1094081"><ele>251.0</ele><time>2026-05-01T14:14:45.276Z</time></trkpt><trkpt lat="42.2665233" lon="14.1092918"><ele>253.0</ele><time>2026-05-01T14:14:46.264Z</time></trkpt><trkpt lat="42.2664701" lon="14.109176"><ele>255.0</ele><time>2026-05-01T14:14:47.283Z</time></trkpt><trkpt lat="42.2664137" lon="14.1090626"><ele>257.0</ele><time>2026-05-01T14:14:48.271Z</time></trkpt><trkpt lat="42.2663529" lon="14.1089623"><ele>259.0</ele><time>2026-05-01T14:14:49.284Z</time></trkpt><trkpt lat="42.2662893" lon="14.1088648"><ele>261.0</ele><time>2026-05-01T14:14:50.272Z</time></trkpt><trkpt lat="42.2662261" lon="14.1087723"><ele>263.0</ele><time>2026-05-01T14:14:51.297Z</time></trkpt><trkpt lat="42.2661572" lon="14.1086679"><ele>265.0</ele><time>2026-05-01T14:14:52.27Z</time></trkpt><trkpt lat="42.2660822" lon="14.1085632"><ele>267.0</ele><time>2026-05-01T14:14:53.279Z</time></trkpt><trkpt lat="42.2660149" lon="14.1084565"><ele>267.0</ele><time>2026-05-01T14:14:54.277Z</time></trkpt><trkpt lat="42.2659455" lon="14.1083465"><ele>267.0</ele><time>2026-05-01T14:14:55.27Z</time></trkpt><trkpt lat="42.2658767" lon="14.1082296"><ele>267.0</ele><time>2026-05-01T14:14:56.269Z</time></trkpt><trkpt lat="42.2658205" lon="14.1080942"><ele>267.0</ele><time>2026-05-01T14:14:57.273Z</time></trkpt><trkpt lat="42.2657691" lon="14.1079562"><ele>267.0</ele><time>2026-05-01T14:14:58.267Z</time></trkpt><trkpt lat="42.2657239" lon="14.1078287"><ele>267.3333333333333</ele><time>2026-05-01T14:14:59.277Z</time></trkpt><trkpt lat="42.2656842" lon="14.1077299"><ele>267.6666666666667</ele><time>2026-05-01T14:15:00.273Z</time></trkpt><trkpt lat="42.265656" lon="14.1076505"><ele>268.0</ele><time>2026-05-01T14:15:01.282Z</time></trkpt><trkpt lat="42.265606" lon="14.1075454"><ele>268.33333333333337</ele><time>2026-05-01T14:15:03.271Z</time></trkpt><trkpt lat="42.2655645" lon="14.1074674"><ele>268.6666666666667</ele><time>2026-05-01T14:15:05.28Z</time></trkpt><trkpt lat="42.2655409" lon="14.1073583"><ele>269.0</ele><time>2026-05-01T14:15:08.288Z</time></trkpt><trkpt lat="42.2655283" lon="14.107229"><ele>269.1666666666667</ele><time>2026-05-01T14:15:57.279Z</time></trkpt><trkpt lat="42.2654671" lon="14.107145"><ele>269.33333333333337</ele><time>2026-05-01T14:16:00.298Z</time></trkpt><trkpt lat="42.2654006" lon="14.1071345"><ele>269.5</ele><time>2026-05-01T14:16:21.257Z</time></trkpt><trkpt lat="42.2653598" lon="14.1070577"><ele>269.6666666666667</ele><time>2026-05-01T14:16:26.254Z</time></trkpt><trkpt lat="42.2653585" lon="14.1069626"><ele>269.8333333333333</ele><time>2026-05-01T14:16:30.265Z</time></trkpt><trkpt lat="42.2654178" lon="14.1068699"><ele>270.0</ele><time>2026-05-01T14:16:33.291Z</time></trkpt><trkpt lat="42.2654677" lon="14.1067684"><ele>270.0</ele><time>2026-05-01T14:16:35.267Z</time></trkpt><trkpt lat="42.265529" lon="14.1066354"><ele>270.0</ele><time>2026-05-01T14:16:37.265Z</time></trkpt><trkpt lat="42.2655989" lon="14.10651"><ele>270.0</ele><time>2026-05-01T14:16:39.286Z</time></trkpt><trkpt lat="42.2656779" lon="14.1064412"><ele>270.0</ele><time>2026-05-01T14:16:41.269Z</time></trkpt><trkpt lat="42.2657604" lon="14.1063918"><ele>270.0</ele><time>2026-05-01T14:16:43.254Z</time></trkpt><trkpt lat="42.2658596" lon="14.1063239"><ele>265.0</ele><time>2026-05-01T14:16:45.279Z</time></trkpt><trkpt lat="42.2659504" lon="14.1062459"><ele>260.0</ele><time>2026-05-01T14:16:47.276Z</time></trkpt><trkpt lat="42.266034" lon="14.1061447"><ele>255.0</ele><time>2026-05-01T14:16:49.265Z</time></trkpt><trkpt lat="42.2660945" lon="14.1060363"><ele>250.0</ele><time>2026-05-01T14:16:51.252Z</time></trkpt><trkpt lat="42.2661496" lon="14.1059178"><ele>245.0</ele><time>2026-05-01T14:16:53.26Z</time></trkpt><trkpt lat="42.2661867" lon="14.1058057"><ele>241.16666666666669</ele><time>2026-05-01T14:16:55.295Z</time></trkpt><trkpt lat="42.2662083" lon="14.1057004"><ele>237.33333333333334</ele><time>2026-05-01T14:16:57.289Z</time></trkpt><trkpt lat="42.26623" lon="14.1055921"><ele>233.5</ele><time>2026-05-01T14:16:59.257Z</time></trkpt><trkpt lat="42.266253" lon="14.1054791"><ele>229.66666666666669</ele><time>2026-05-01T14:17:02.294Z</time></trkpt><trkpt lat="42.266267" lon="14.1053932"><ele>225.83333333333334</ele><time>2026-05-01T14:17:04.268Z</time></trkpt><trkpt lat="42.2662922" lon="14.10527"><ele>222.0</ele><time>2026-05-01T14:17:07.291Z</time></trkpt><trkpt lat="42.2663271" lon="14.105151"><ele>222.0</ele><time>2026-05-01T14:17:10.275Z</time></trkpt><trkpt lat="42.2663975" lon="14.1050184"><ele>222.0</ele><time>2026-05-01T14:17:12.285Z</time></trkpt><trkpt lat="42.2664974" lon="14.1049092"><ele>222.0</ele><time>2026-05-01T14:17:14.263Z</time></trkpt><trkpt lat="42.2665626" lon="14.1048482"><ele>222.0</ele><time>2026-05-01T14:17:15.27Z</time></trkpt><trkpt lat="42.2666346" lon="14.1048025"><ele>222.0</ele><time>2026-05-01T14:17:16.276Z</time></trkpt><trkpt lat="42.2667128" lon="14.1047613"><ele>219.33333333333334</ele><time>2026-05-01T14:17:17.278Z</time></trkpt><trkpt lat="42.2667928" lon="14.1047439"><ele>216.66666666666669</ele><time>2026-05-01T14:17:18.274Z</time></trkpt><trkpt lat="42.2668806" lon="14.104736"><ele>214.0</ele><time>2026-05-01T14:17:19.264Z</time></trkpt><trkpt lat="42.2669645" lon="14.1047253"><ele>211.33333333333334</ele><time>2026-05-01T14:17:20.263Z</time></trkpt><trkpt lat="42.2670485" lon="14.1047127"><ele>208.66666666666669</ele><time>2026-05-01T14:17:21.27Z</time></trkpt><trkpt lat="42.2671357" lon="14.1046971"><ele>206.0</ele><time>2026-05-01T14:17:22.275Z</time></trkpt><trkpt lat="42.2672273" lon="14.1046762"><ele>206.60000000000002</ele><time>2026-05-01T14:17:23.27Z</time></trkpt><trkpt lat="42.2673152" lon="14.1046501"><ele>207.2</ele><time>2026-05-01T14:17:24.276Z</time></trkpt><trkpt lat="42.2674072" lon="14.1046258"><ele>207.8</ele><time>2026-05-01T14:17:25.272Z</time></trkpt><trkpt lat="42.2675104" lon="14.1046046"><ele>208.39999999999998</ele><time>2026-05-01T14:17:26.277Z</time></trkpt><trkpt lat="42.2676268" lon="14.1045909"><ele>209.0</ele><time>2026-05-01T14:17:27.276Z</time></trkpt><trkpt lat="42.2677485" lon="14.1045712"><ele>209.0</ele><time>2026-05-01T14:17:28.271Z</time></trkpt><trkpt lat="42.2678708" lon="14.1045546"><ele>209.0</ele><time>2026-05-01T14:17:29.276Z</time></trkpt><trkpt lat="42.2679862" lon="14.1045372"><ele>209.0</ele><time>2026-05-01T14:17:30.264Z</time></trkpt><trkpt lat="42.268107" lon="14.1045135"><ele>209.0</ele><time>2026-05-01T14:17:31.288Z</time></trkpt><trkpt lat="42.2682304" lon="14.104484"><ele>210.0</ele><time>2026-05-01T14:17:32.285Z</time></trkpt><trkpt lat="42.26835" lon="14.1044419"><ele>211.0</ele><time>2026-05-01T14:17:33.284Z</time></trkpt><trkpt lat="42.2684417" lon="14.1044167"><ele>211.99999999999997</ele><time>2026-05-01T14:17:34.276Z</time></trkpt><trkpt lat="42.268506" lon="14.1044007"><ele>213.0</ele><time>2026-05-01T14:17:35.286Z</time></trkpt><trkpt lat="42.2686161" lon="14.1043919"><ele>214.0</ele><time>2026-05-01T14:17:37.279Z</time></trkpt><trkpt lat="42.2686866" lon="14.1044067"><ele>214.0</ele><time>2026-05-01T14:17:38.28Z</time></trkpt><trkpt lat="42.2687666" lon="14.1044244"><ele>213.99999999999997</ele><time>2026-05-01T14:17:39.28Z</time></trkpt><trkpt lat="42.268856" lon="14.1044425"><ele>213.99999999999997</ele><time>2026-05-01T14:17:40.27Z</time></trkpt><trkpt lat="42.2689483" lon="14.1044659"><ele>214.0</ele><time>2026-05-01T14:17:41.276Z</time></trkpt><trkpt lat="42.2690409" lon="14.1044945"><ele>214.0</ele><time>2026-05-01T14:17:42.285Z</time></trkpt><trkpt lat="42.269136" lon="14.104516"><ele>213.79999999999998</ele><time>2026-05-01T14:17:43.292Z</time></trkpt><trkpt lat="42.2692158" lon="14.1045374"><ele>213.59999999999997</ele><time>2026-05-01T14:17:44.279Z</time></trkpt><trkpt lat="42.2692977" lon="14.1045756"><ele>213.4</ele><time>2026-05-01T14:17:45.272Z</time></trkpt><trkpt lat="42.269398" lon="14.1046103"><ele>213.2</ele><time>2026-05-01T14:17:46.255Z</time></trkpt><trkpt lat="42.269502" lon="14.1046259"><ele>213.0</ele><time>2026-05-01T14:17:47.269Z</time></trkpt><trkpt lat="42.2696073" lon="14.1046147"><ele>213.0</ele><time>2026-05-01T14:17:48.284Z</time></trkpt><trkpt lat="42.269711" lon="14.1045853"><ele>213.0</ele><time>2026-05-01T14:17:49.268Z</time></trkpt><trkpt lat="42.2698012" lon="14.104583"><ele>213.0</ele><time>2026-05-01T14:17:50.279Z</time></trkpt><trkpt lat="42.2698984" lon="14.1045886"><ele>213.0</ele><time>2026-05-01T14:17:51.28Z</time></trkpt><trkpt lat="42.2699951" lon="14.1045955"><ele>213.0</ele><time>2026-05-01T14:17:52.279Z</time></trkpt><trkpt lat="42.2700904" lon="14.1046072"><ele>214.0</ele><time>2026-05-01T14:17:53.272Z</time></trkpt><trkpt lat="42.2701863" lon="14.1046181"><ele>215.0</ele><time>2026-05-01T14:17:54.268Z</time></trkpt><trkpt lat="42.2702853" lon="14.1046256"><ele>216.0</ele><time>2026-05-01T14:17:55.279Z</time></trkpt><trkpt lat="42.2703804" lon="14.1046255"><ele>217.0</ele><time>2026-05-01T14:17:56.277Z</time></trkpt><trkpt lat="42.2704738" lon="14.1046218"><ele>218.0</ele><time>2026-05-01T14:17:57.28Z</time></trkpt><trkpt lat="42.2705605" lon="14.1046145"><ele>217.66666666666669</ele><time>2026-05-01T14:17:58.272Z</time></trkpt><trkpt lat="42.2706374" lon="14.1046039"><ele>217.33333333333334</ele><time>2026-05-01T14:17:59.278Z</time></trkpt><trkpt lat="42.27071" lon="14.1045922"><ele>217.0</ele><time>2026-05-01T14:18:00.278Z</time></trkpt><trkpt lat="42.2707948" lon="14.1045765"><ele>216.66666666666669</ele><time>2026-05-01T14:18:01.28Z</time></trkpt><trkpt lat="42.2708841" lon="14.1045584"><ele>216.33333333333334</ele><time>2026-05-01T14:18:02.283Z</time></trkpt><trkpt lat="42.2709843" lon="14.1045318"><ele>216.0</ele><time>2026-05-01T14:18:03.302Z</time></trkpt><trkpt lat="42.2711003" lon="14.1044955"><ele>216.0</ele><time>2026-05-01T14:18:04.276Z</time></trkpt><trkpt lat="42.2712262" lon="14.1044657"><ele>216.0</ele><time>2026-05-01T14:18:05.28Z</time></trkpt><trkpt lat="42.2713559" lon="14.1044416"><ele>216.0</ele><time>2026-05-01T14:18:06.28Z</time></trkpt><trkpt lat="42.2714715" lon="14.1044347"><ele>216.0</ele><time>2026-05-01T14:18:07.291Z</time></trkpt><trkpt lat="42.2715696" lon="14.1044332"><ele>214.60000000000002</ele><time>2026-05-01T14:18:08.28Z</time></trkpt><trkpt lat="42.2716507" lon="14.1043957"><ele>213.20000000000002</ele><time>2026-05-01T14:18:09.282Z</time></trkpt><trkpt lat="42.2717437" lon="14.104323"><ele>211.8</ele><time>2026-05-01T14:18:10.287Z</time></trkpt><trkpt lat="42.2718384" lon="14.1042304"><ele>210.39999999999998</ele><time>2026-05-01T14:18:11.277Z</time></trkpt><trkpt lat="42.271921" lon="14.1041228"><ele>209.0</ele><time>2026-05-01T14:18:12.271Z</time></trkpt><trkpt lat="42.2719878" lon="14.1040096"><ele>206.66666666666669</ele><time>2026-05-01T14:18:13.289Z</time></trkpt><trkpt lat="42.2720388" lon="14.1039065"><ele>204.33333333333334</ele><time>2026-05-01T14:18:14.278Z</time></trkpt><trkpt lat="42.272069" lon="14.1038121"><ele>202.0</ele><time>2026-05-01T14:18:15.272Z</time></trkpt><trkpt lat="42.2720875" lon="14.1037307"><ele>199.66666666666669</ele><time>2026-05-01T14:18:16.271Z</time></trkpt><trkpt lat="42.272122" lon="14.1035981"><ele>197.33333333333334</ele><time>2026-05-01T14:18:18.288Z</time></trkpt><trkpt lat="42.2721492" lon="14.1035196"><ele>195.0</ele><time>2026-05-01T14:18:34.276Z</time></trkpt><trkpt lat="42.2721781" lon="14.1034068"><ele>195.0</ele><time>2026-05-01T14:18:38.284Z</time></trkpt><trkpt lat="42.272182" lon="14.1032875"><ele>195.0</ele><time>2026-05-01T14:18:40.276Z</time></trkpt><trkpt lat="42.2721919" lon="14.1031961"><ele>195.0</ele><time>2026-05-01T14:18:41.28Z</time></trkpt><trkpt lat="42.2722018" lon="14.1030998"><ele>195.0</ele><time>2026-05-01T14:18:42.275Z</time></trkpt><trkpt lat="42.272208" lon="14.1030101"><ele>195.0</ele><time>2026-05-01T14:18:43.285Z</time></trkpt><trkpt lat="42.2722315" lon="14.1028476"><ele>195.0</ele><time>2026-05-01T14:18:45.291Z</time></trkpt><trkpt lat="42.2722603" lon="14.1027693"><ele>194.5</ele><time>2026-05-01T14:18:46.268Z</time></trkpt><trkpt lat="42.2723033" lon="14.1026994"><ele>194.0</ele><time>2026-05-01T14:18:47.282Z</time></trkpt><trkpt lat="42.2723586" lon="14.1026391"><ele>193.5</ele><time>2026-05-01T14:18:48.274Z</time></trkpt><trkpt lat="42.2724318" lon="14.1025808"><ele>193.0</ele><time>2026-05-01T14:18:49.278Z</time></trkpt><trkpt lat="42.2725132" lon="14.1025114"><ele>192.5</ele><time>2026-05-01T14:18:50.279Z</time></trkpt><trkpt lat="42.2725934" lon="14.1024369"><ele>192.0</ele><time>2026-05-01T14:18:51.275Z</time></trkpt><trkpt lat="42.2726743" lon="14.1023606"><ele>192.0</ele><time>2026-05-01T14:18:52.276Z</time></trkpt><trkpt lat="42.2727487" lon="14.1022728"><ele>192.0</ele><time>2026-05-01T14:18:53.272Z</time></trkpt><trkpt lat="42.2728037" lon="14.1021688"><ele>192.0</ele><time>2026-05-01T14:18:54.271Z</time></trkpt><trkpt lat="42.2728472" lon="14.1020498"><ele>192.0</ele><time>2026-05-01T14:18:55.272Z</time></trkpt><trkpt lat="42.2728734" lon="14.1019265"><ele>192.0</ele><time>2026-05-01T14:18:56.279Z</time></trkpt><trkpt lat="42.27291" lon="14.1017998"><ele>192.0</ele><time>2026-05-01T14:18:57.309Z</time></trkpt><trkpt lat="42.2729527" lon="14.1016897"><ele>192.0</ele><time>2026-05-01T14:18:58.265Z</time></trkpt><trkpt lat="42.273002" lon="14.1016002"><ele>192.0</ele><time>2026-05-01T14:18:59.275Z</time></trkpt><trkpt lat="42.2730628" lon="14.1015275"><ele>192.0</ele><time>2026-05-01T14:19:00.272Z</time></trkpt><trkpt lat="42.2731377" lon="14.1014716"><ele>192.0</ele><time>2026-05-01T14:19:01.281Z</time></trkpt><trkpt lat="42.2732182" lon="14.101447"><ele>192.0</ele><time>2026-05-01T14:19:02.274Z</time></trkpt><trkpt lat="42.2733046" lon="14.1014607"><ele>191.75</ele><time>2026-05-01T14:19:03.291Z</time></trkpt><trkpt lat="42.2734024" lon="14.1014921"><ele>191.5</ele><time>2026-05-01T14:19:04.285Z</time></trkpt><trkpt lat="42.2735157" lon="14.1015385"><ele>191.25</ele><time>2026-05-01T14:19:05.271Z</time></trkpt><trkpt lat="42.2736395" lon="14.1015845"><ele>191.0</ele><time>2026-05-01T14:19:06.274Z</time></trkpt><trkpt lat="42.2737604" lon="14.101637"><ele>189.5</ele><time>2026-05-01T14:19:07.26Z</time></trkpt><trkpt lat="42.2738809" lon="14.1016901"><ele>188.0</ele><time>2026-05-01T14:19:08.265Z</time></trkpt><trkpt lat="42.2739958" lon="14.1017368"><ele>186.5</ele><time>2026-05-01T14:19:09.266Z</time></trkpt><trkpt lat="42.2741106" lon="14.1017674"><ele>185.0</ele><time>2026-05-01T14:19:10.267Z</time></trkpt><trkpt lat="42.2742266" lon="14.1017825"><ele>185.0</ele><time>2026-05-01T14:19:11.279Z</time></trkpt><trkpt lat="42.2743367" lon="14.1017696"><ele>185.0</ele><time>2026-05-01T14:19:12.272Z</time></trkpt><trkpt lat="42.2744419" lon="14.1017375"><ele>185.0</ele><time>2026-05-01T14:19:13.28Z</time></trkpt><trkpt lat="42.2745369" lon="14.1016825"><ele>185.0</ele><time>2026-05-01T14:19:14.267Z</time></trkpt><trkpt lat="42.2746277" lon="14.1016146"><ele>185.0</ele><time>2026-05-01T14:19:15.273Z</time></trkpt><trkpt lat="42.2747191" lon="14.1015212"><ele>183.8</ele><time>2026-05-01T14:19:16.274Z</time></trkpt><trkpt lat="42.2748013" lon="14.1014176"><ele>182.6</ele><time>2026-05-01T14:19:17.265Z</time></trkpt><trkpt lat="42.2748685" lon="14.101309"><ele>181.39999999999998</ele><time>2026-05-01T14:19:18.257Z</time></trkpt><trkpt lat="42.274923" lon="14.1011888"><ele>180.2</ele><time>2026-05-01T14:19:19.289Z</time></trkpt><trkpt lat="42.2749698" lon="14.1010437"><ele>179.0</ele><time>2026-05-01T14:19:20.286Z</time></trkpt><trkpt lat="42.2750232" lon="14.1008965"><ele>177.75</ele><time>2026-05-01T14:19:21.272Z</time></trkpt><trkpt lat="42.2750839" lon="14.1007433"><ele>176.5</ele><time>2026-05-01T14:19:22.272Z</time></trkpt><trkpt lat="42.2751467" lon="14.1005897"><ele>175.25</ele><time>2026-05-01T14:19:23.28Z</time></trkpt><trkpt lat="42.2752139" lon="14.1004313"><ele>174.0</ele><time>2026-05-01T14:19:24.273Z</time></trkpt><trkpt lat="42.2752811" lon="14.1002772"><ele>174.0</ele><time>2026-05-01T14:19:25.281Z</time></trkpt><trkpt lat="42.2753467" lon="14.1001199"><ele>174.0</ele><time>2026-05-01T14:19:26.275Z</time></trkpt><trkpt lat="42.2754074" lon="14.0999604"><ele>174.0</ele><time>2026-05-01T14:19:27.275Z</time></trkpt><trkpt lat="42.2754581" lon="14.099799"><ele>174.0</ele><time>2026-05-01T14:19:28.267Z</time></trkpt><trkpt lat="42.2754946" lon="14.0996338"><ele>174.25</ele><time>2026-05-01T14:19:29.286Z</time></trkpt><trkpt lat="42.2755049" lon="14.0994624"><ele>174.5</ele><time>2026-05-01T14:19:30.274Z</time></trkpt><trkpt lat="42.2754921" lon="14.0992881"><ele>174.75</ele><time>2026-05-01T14:19:31.285Z</time></trkpt><trkpt lat="42.2754665" lon="14.0991158"><ele>175.0</ele><time>2026-05-01T14:19:32.273Z</time></trkpt><trkpt lat="42.2754354" lon="14.0989502"><ele>176.25</ele><time>2026-05-01T14:19:33.289Z</time></trkpt><trkpt lat="42.275409" lon="14.0987823"><ele>177.5</ele><time>2026-05-01T14:19:34.276Z</time></trkpt><trkpt lat="42.2753844" lon="14.0986132"><ele>178.75</ele><time>2026-05-01T14:19:35.28Z</time></trkpt><trkpt lat="42.2753626" lon="14.0984447"><ele>180.0</ele><time>2026-05-01T14:19:36.272Z</time></trkpt><trkpt lat="42.2753393" lon="14.0982737"><ele>180.0</ele><time>2026-05-01T14:19:37.289Z</time></trkpt><trkpt lat="42.2753214" lon="14.0981052"><ele>180.0</ele><time>2026-05-01T14:19:38.274Z</time></trkpt><trkpt lat="42.2753098" lon="14.0979388"><ele>180.0</ele><time>2026-05-01T14:19:39.282Z</time></trkpt><trkpt lat="42.2753093" lon="14.0977753"><ele>180.0</ele><time>2026-05-01T14:19:40.271Z</time></trkpt><trkpt lat="42.2753188" lon="14.0976214"><ele>180.0</ele><time>2026-05-01T14:19:41.282Z</time></trkpt><trkpt lat="42.2753313" lon="14.0974774"><ele>180.0</ele><time>2026-05-01T14:19:42.293Z</time></trkpt><trkpt lat="42.2753467" lon="14.0973367"><ele>180.0</ele><time>2026-05-01T14:19:43.272Z</time></trkpt><trkpt lat="42.2753651" lon="14.0971921"><ele>180.0</ele><time>2026-05-01T14:19:44.276Z</time></trkpt><trkpt lat="42.2753794" lon="14.0970427"><ele>180.0</ele><time>2026-05-01T14:19:45.287Z</time></trkpt><trkpt lat="42.2753933" lon="14.0968866"><ele>178.75</ele><time>2026-05-01T14:19:46.294Z</time></trkpt><trkpt lat="42.2754096" lon="14.0967236"><ele>177.5</ele><time>2026-05-01T14:19:47.27Z</time></trkpt><trkpt lat="42.2754239" lon="14.0965537"><ele>176.25</ele><time>2026-05-01T14:19:48.289Z</time></trkpt><trkpt lat="42.2754419" lon="14.0963857"><ele>175.0</ele><time>2026-05-01T14:19:49.273Z</time></trkpt><trkpt lat="42.2754584" lon="14.0962191"><ele>173.25</ele><time>2026-05-01T14:19:50.277Z</time></trkpt><trkpt lat="42.2754775" lon="14.0960548"><ele>171.5</ele><time>2026-05-01T14:19:51.272Z</time></trkpt><trkpt lat="42.2755003" lon="14.095892"><ele>169.75</ele><time>2026-05-01T14:19:52.282Z</time></trkpt><trkpt lat="42.2755351" lon="14.095756"><ele>168.0</ele><time>2026-05-01T14:19:53.268Z</time></trkpt><trkpt lat="42.2755649" lon="14.0956235"><ele>167.4</ele><time>2026-05-01T14:19:54.272Z</time></trkpt><trkpt lat="42.2755847" lon="14.0954939"><ele>166.8</ele><time>2026-05-01T14:19:55.27Z</time></trkpt><trkpt lat="42.2755935" lon="14.0953766"><ele>166.2</ele><time>2026-05-01T14:19:56.272Z</time></trkpt><trkpt lat="42.2756003" lon="14.0952842"><ele>165.6</ele><time>2026-05-01T14:19:57.283Z</time></trkpt><trkpt lat="42.2756699" lon="14.0951448"><ele>165.0</ele><time>2026-05-01T14:19:59.274Z</time></trkpt><trkpt lat="42.2757471" lon="14.095102"><ele>165.0</ele><time>2026-05-01T14:20:00.273Z</time></trkpt><trkpt lat="42.2758409" lon="14.0950604"><ele>165.0</ele><time>2026-05-01T14:20:01.289Z</time></trkpt><trkpt lat="42.27595" lon="14.0950085"><ele>165.0</ele><time>2026-05-01T14:20:02.299Z</time></trkpt><trkpt lat="42.2760632" lon="14.0949507"><ele>165.0</ele><time>2026-05-01T14:20:03.287Z</time></trkpt><trkpt lat="42.2761754" lon="14.0948919"><ele>162.8</ele><time>2026-05-01T14:20:04.289Z</time></trkpt><trkpt lat="42.2762819" lon="14.094832"><ele>160.6</ele><time>2026-05-01T14:20:05.278Z</time></trkpt><trkpt lat="42.2763819" lon="14.0947713"><ele>158.4</ele><time>2026-05-01T14:20:06.27Z</time></trkpt><trkpt lat="42.2764748" lon="14.0947144"><ele>156.2</ele><time>2026-05-01T14:20:07.289Z</time></trkpt><trkpt lat="42.2765531" lon="14.0946673"><ele>154.0</ele><time>2026-05-01T14:20:08.267Z</time></trkpt><trkpt lat="42.2766201" lon="14.0946184"><ele>154.0</ele><time>2026-05-01T14:20:09.283Z</time></trkpt><trkpt lat="42.2766779" lon="14.0945633"><ele>154.0</ele><time>2026-05-01T14:20:10.275Z</time></trkpt><trkpt lat="42.2767394" lon="14.0944915"><ele>154.0</ele><time>2026-05-01T14:20:11.274Z</time></trkpt><trkpt lat="42.2767948" lon="14.0944061"><ele>154.0</ele><time>2026-05-01T14:20:12.283Z</time></trkpt><trkpt lat="42.276835" lon="14.0943078"><ele>154.0</ele><time>2026-05-01T14:20:13.289Z</time></trkpt><trkpt lat="42.2768644" lon="14.0941945"><ele>154.0</ele><time>2026-05-01T14:20:14.296Z</time></trkpt><trkpt lat="42.2768908" lon="14.0940623"><ele>151.75</ele><time>2026-05-01T14:20:15.289Z</time></trkpt><trkpt lat="42.276914" lon="14.0939171"><ele>149.5</ele><time>2026-05-01T14:20:16.282Z</time></trkpt><trkpt lat="42.276941" lon="14.0937657"><ele>147.25</ele><time>2026-05-01T14:20:17.262Z</time></trkpt><trkpt lat="42.2769712" lon="14.0936144"><ele>145.0</ele><time>2026-05-01T14:20:18.261Z</time></trkpt><trkpt lat="42.2769991" lon="14.093469"><ele>145.0</ele><time>2026-05-01T14:20:19.272Z</time></trkpt><trkpt lat="42.2770299" lon="14.0933285"><ele>145.0</ele><time>2026-05-01T14:20:20.272Z</time></trkpt><trkpt lat="42.2770571" lon="14.0931986"><ele>145.0</ele><time>2026-05-01T14:20:21.293Z</time></trkpt><trkpt lat="42.2770787" lon="14.093081"><ele>145.0</ele><time>2026-05-01T14:20:22.271Z</time></trkpt><trkpt lat="42.2771022" lon="14.0929636"><ele>145.0</ele><time>2026-05-01T14:20:23.291Z</time></trkpt><trkpt lat="42.2771227" lon="14.0928347"><ele>143.2</ele><time>2026-05-01T14:20:24.284Z</time></trkpt><trkpt lat="42.2771367" lon="14.0926949"><ele>141.4</ele><time>2026-05-01T14:20:25.283Z</time></trkpt><trkpt lat="42.2771433" lon="14.0925468"><ele>139.6</ele><time>2026-05-01T14:20:26.275Z</time></trkpt><trkpt lat="42.2771451" lon="14.0923914"><ele>137.8</ele><time>2026-05-01T14:20:27.28Z</time></trkpt><trkpt lat="42.277145" lon="14.0922325"><ele>136.0</ele><time>2026-05-01T14:20:28.297Z</time></trkpt><trkpt lat="42.2771479" lon="14.0920784"><ele>134.2</ele><time>2026-05-01T14:20:29.275Z</time></trkpt><trkpt lat="42.277151" lon="14.0919223"><ele>132.39999999999998</ele><time>2026-05-01T14:20:30.275Z</time></trkpt><trkpt lat="42.2771554" lon="14.0917699"><ele>130.6</ele><time>2026-05-01T14:20:31.273Z</time></trkpt><trkpt lat="42.2771654" lon="14.09163"><ele>128.79999999999998</ele><time>2026-05-01T14:20:32.264Z</time></trkpt><trkpt lat="42.2771848" lon="14.09149"><ele>127.0</ele><time>2026-05-01T14:20:33.279Z</time></trkpt><trkpt lat="42.2772139" lon="14.0913578"><ele>128.2</ele><time>2026-05-01T14:20:34.28Z</time></trkpt><trkpt lat="42.2772546" lon="14.0912311"><ele>129.39999999999998</ele><time>2026-05-01T14:20:35.288Z</time></trkpt><trkpt lat="42.2772996" lon="14.0911249"><ele>130.60000000000002</ele><time>2026-05-01T14:20:36.281Z</time></trkpt><trkpt lat="42.2773614" lon="14.0910508"><ele>131.8</ele><time>2026-05-01T14:20:37.277Z</time></trkpt><trkpt lat="42.2774383" lon="14.091014"><ele>133.0</ele><time>2026-05-01T14:20:38.273Z</time></trkpt><trkpt lat="42.2775363" lon="14.0910317"><ele>133.0</ele><time>2026-05-01T14:20:39.282Z</time></trkpt><trkpt lat="42.2776335" lon="14.0910927"><ele>133.0</ele><time>2026-05-01T14:20:40.268Z</time></trkpt><trkpt lat="42.2777234" lon="14.091168"><ele>133.0</ele><time>2026-05-01T14:20:41.273Z</time></trkpt><trkpt lat="42.2778072" lon="14.0912246"><ele>133.0</ele><time>2026-05-01T14:20:42.279Z</time></trkpt><trkpt lat="42.2778803" lon="14.0912617"><ele>133.0</ele><time>2026-05-01T14:20:43.27Z</time></trkpt><trkpt lat="42.2779491" lon="14.0912614"><ele>133.0</ele><time>2026-05-01T14:20:44.271Z</time></trkpt><trkpt lat="42.2780093" lon="14.0912189"><ele>133.0</ele><time>2026-05-01T14:20:45.28Z</time></trkpt><trkpt lat="42.2780505" lon="14.0911432"><ele>133.0</ele><time>2026-05-01T14:20:46.267Z</time></trkpt><trkpt lat="42.2780591" lon="14.0910302"><ele>133.0</ele><time>2026-05-01T14:20:47.278Z</time></trkpt><trkpt lat="42.2780426" lon="14.0909061"><ele>133.0</ele><time>2026-05-01T14:20:48.273Z</time></trkpt><trkpt lat="42.2780225" lon="14.0907957"><ele>133.0</ele><time>2026-05-01T14:20:49.273Z</time></trkpt><trkpt lat="42.278005" lon="14.0907016"><ele>131.0</ele><time>2026-05-01T14:20:50.287Z</time></trkpt><trkpt lat="42.2780092" lon="14.0905831"><ele>129.0</ele><time>2026-05-01T14:20:52.272Z</time></trkpt><trkpt lat="42.2780765" lon="14.0905885"><ele>127.0</ele><time>2026-05-01T14:20:54.271Z</time></trkpt><trkpt lat="42.2781333" lon="14.0906782"><ele>125.0</ele><time>2026-05-01T14:20:56.263Z</time></trkpt><trkpt lat="42.2781849" lon="14.0908358"><ele>123.00000000000001</ele><time>2026-05-01T14:20:58.253Z</time></trkpt><trkpt lat="42.2782093" lon="14.0909207"><ele>121.0</ele><time>2026-05-01T14:20:59.282Z</time></trkpt><trkpt lat="42.2782621" lon="14.0910328"><ele>120.8</ele><time>2026-05-01T14:21:01.304Z</time></trkpt><trkpt lat="42.2782941" lon="14.091199"><ele>120.6</ele><time>2026-05-01T14:21:03.282Z</time></trkpt><trkpt lat="42.2783276" lon="14.0913135"><ele>120.4</ele><time>2026-05-01T14:21:04.275Z</time></trkpt><trkpt lat="42.2783625" lon="14.0914442"><ele>120.2</ele><time>2026-05-01T14:21:05.264Z</time></trkpt><trkpt lat="42.2783966" lon="14.091589"><ele>120.0</ele><time>2026-05-01T14:21:06.277Z</time></trkpt><trkpt lat="42.2784269" lon="14.0917448"><ele>121.0</ele><time>2026-05-01T14:21:07.271Z</time></trkpt><trkpt lat="42.2784623" lon="14.0919136"><ele>122.0</ele><time>2026-05-01T14:21:08.28Z</time></trkpt><trkpt lat="42.2784938" lon="14.0920854"><ele>123.0</ele><time>2026-05-01T14:21:09.285Z</time></trkpt><trkpt lat="42.2785153" lon="14.0922517"><ele>124.0</ele><time>2026-05-01T14:21:10.277Z</time></trkpt><trkpt lat="42.2785251" lon="14.0924076"><ele>124.2</ele><time>2026-05-01T14:21:11.279Z</time></trkpt><trkpt lat="42.2785381" lon="14.0925556"><ele>124.4</ele><time>2026-05-01T14:21:12.269Z</time></trkpt><trkpt lat="42.2785664" lon="14.0927038"><ele>124.6</ele><time>2026-05-01T14:21:13.277Z</time></trkpt><trkpt lat="42.2786084" lon="14.0928486"><ele>124.8</ele><time>2026-05-01T14:21:14.278Z</time></trkpt><trkpt lat="42.2786591" lon="14.0929729"><ele>125.0</ele><time>2026-05-01T14:21:15.272Z</time></trkpt><trkpt lat="42.2787181" lon="14.0930741"><ele>125.0</ele><time>2026-05-01T14:21:16.265Z</time></trkpt><trkpt lat="42.2787912" lon="14.0931545"><ele>125.0</ele><time>2026-05-01T14:21:17.271Z</time></trkpt><trkpt lat="42.2788691" lon="14.0931972"><ele>125.0</ele><time>2026-05-01T14:21:18.267Z</time></trkpt><trkpt lat="42.2789552" lon="14.0932118"><ele>125.0</ele><time>2026-05-01T14:21:19.271Z</time></trkpt><trkpt lat="42.2790485" lon="14.0931916"><ele>125.0</ele><time>2026-05-01T14:21:20.257Z</time></trkpt><trkpt lat="42.279148" lon="14.0931537"><ele>123.2</ele><time>2026-05-01T14:21:21.283Z</time></trkpt><trkpt lat="42.2792524" lon="14.0931328"><ele>121.4</ele><time>2026-05-01T14:21:22.286Z</time></trkpt><trkpt lat="42.2793533" lon="14.0931402"><ele>119.6</ele><time>2026-05-01T14:21:23.289Z</time></trkpt><trkpt lat="42.2794364" lon="14.0931812"><ele>117.8</ele><time>2026-05-01T14:21:24.277Z</time></trkpt><trkpt lat="42.2795158" lon="14.0932508"><ele>116.0</ele><time>2026-05-01T14:21:25.275Z</time></trkpt><trkpt lat="42.2795977" lon="14.0933637"><ele>116.0</ele><time>2026-05-01T14:21:26.283Z</time></trkpt><trkpt lat="42.2796801" lon="14.0934807"><ele>116.0</ele><time>2026-05-01T14:21:27.275Z</time></trkpt><trkpt lat="42.2797628" lon="14.0935968"><ele>116.0</ele><time>2026-05-01T14:21:28.275Z</time></trkpt><trkpt lat="42.2798462" lon="14.0937082"><ele>116.0</ele><time>2026-05-01T14:21:29.289Z</time></trkpt><trkpt lat="42.2799358" lon="14.0938059"><ele>113.49999999999999</ele><time>2026-05-01T14:21:30.278Z</time></trkpt><trkpt lat="42.2800216" lon="14.0938895"><ele>111.0</ele><time>2026-05-01T14:21:31.271Z</time></trkpt><trkpt lat="42.2800875" lon="14.0939638"><ele>108.5</ele><time>2026-05-01T14:21:32.272Z</time></trkpt><trkpt lat="42.2801269" lon="14.0940587"><ele>106.0</ele><time>2026-05-01T14:21:33.268Z</time></trkpt><trkpt lat="42.2801417" lon="14.0941735"><ele>103.49999999999999</ele><time>2026-05-01T14:21:34.269Z</time></trkpt><trkpt lat="42.2801409" lon="14.0942874"><ele>101.0</ele><time>2026-05-01T14:21:35.265Z</time></trkpt><trkpt lat="42.2801379" lon="14.0944063"><ele>100.8</ele><time>2026-05-01T14:21:36.268Z</time></trkpt><trkpt lat="42.2801357" lon="14.0945328"><ele>100.6</ele><time>2026-05-01T14:21:37.273Z</time></trkpt><trkpt lat="42.2801393" lon="14.0946558"><ele>100.4</ele><time>2026-05-01T14:21:38.274Z</time></trkpt><trkpt lat="42.2801476" lon="14.0947825"><ele>100.2</ele><time>2026-05-01T14:21:39.273Z</time></trkpt><trkpt lat="42.2801581" lon="14.0949182"><ele>100.0</ele><time>2026-05-01T14:21:40.279Z</time></trkpt><trkpt lat="42.2801671" lon="14.0950641"><ele>99.5</ele><time>2026-05-01T14:21:41.278Z</time></trkpt><trkpt lat="42.2801737" lon="14.0952179"><ele>99.0</ele><time>2026-05-01T14:21:42.285Z</time></trkpt><trkpt lat="42.2801818" lon="14.0953766"><ele>98.5</ele><time>2026-05-01T14:21:43.283Z</time></trkpt><trkpt lat="42.2801949" lon="14.09554"><ele>98.0</ele><time>2026-05-01T14:21:44.275Z</time></trkpt><trkpt lat="42.2802112" lon="14.0957108"><ele>98.5</ele><time>2026-05-01T14:21:45.286Z</time></trkpt><trkpt lat="42.2802301" lon="14.095881"><ele>99.0</ele><time>2026-05-01T14:21:46.271Z</time></trkpt><trkpt lat="42.2802487" lon="14.0960573"><ele>99.5</ele><time>2026-05-01T14:21:47.281Z</time></trkpt><trkpt lat="42.2802712" lon="14.0962382"><ele>100.0</ele><time>2026-05-01T14:21:48.271Z</time></trkpt><trkpt lat="42.2803031" lon="14.0964179"><ele>100.75</ele><time>2026-05-01T14:21:49.29Z</time></trkpt><trkpt lat="42.2803421" lon="14.0965892"><ele>101.5</ele><time>2026-05-01T14:21:50.28Z</time></trkpt><trkpt lat="42.2803822" lon="14.0967561"><ele>102.25</ele><time>2026-05-01T14:21:51.274Z</time></trkpt><trkpt lat="42.2804195" lon="14.0969184"><ele>103.0</ele><time>2026-05-01T14:21:52.28Z</time></trkpt><trkpt lat="42.2804445" lon="14.0970808"><ele>103.0</ele><time>2026-05-01T14:21:53.276Z</time></trkpt><trkpt lat="42.2804571" lon="14.0972481"><ele>103.0</ele><time>2026-05-01T14:21:54.28Z</time></trkpt><trkpt lat="42.2804627" lon="14.0974241"><ele>103.0</ele><time>2026-05-01T14:21:55.299Z</time></trkpt><trkpt lat="42.2804791" lon="14.0976124"><ele>103.0</ele><time>2026-05-01T14:21:56.283Z</time></trkpt><trkpt lat="42.2805105" lon="14.097815"><ele>103.0</ele><time>2026-05-01T14:21:57.278Z</time></trkpt><trkpt lat="42.2805464" lon="14.0980216"><ele>103.0</ele><time>2026-05-01T14:21:58.273Z</time></trkpt><trkpt lat="42.2805855" lon="14.0982345"><ele>103.0</ele><time>2026-05-01T14:21:59.28Z</time></trkpt><trkpt lat="42.280627" lon="14.0984456"><ele>105.33333333333334</ele><time>2026-05-01T14:22:00.267Z</time></trkpt><trkpt lat="42.2806735" lon="14.0986567"><ele>107.66666666666666</ele><time>2026-05-01T14:22:01.285Z</time></trkpt><trkpt lat="42.2807175" lon="14.0988616"><ele>110.0</ele><time>2026-05-01T14:22:02.272Z</time></trkpt><trkpt lat="42.2807565" lon="14.0990525"><ele>111.75</ele><time>2026-05-01T14:22:03.29Z</time></trkpt><trkpt lat="42.2807921" lon="14.0992258"><ele>113.5</ele><time>2026-05-01T14:22:04.27Z</time></trkpt><trkpt lat="42.2808287" lon="14.0993887"><ele>115.25</ele><time>2026-05-01T14:22:05.279Z</time></trkpt><trkpt lat="42.2808621" lon="14.0995278"><ele>117.0</ele><time>2026-05-01T14:22:06.272Z</time></trkpt><trkpt lat="42.280892" lon="14.0996485"><ele>117.0</ele><time>2026-05-01T14:22:07.28Z</time></trkpt><trkpt lat="42.2809232" lon="14.0997639"><ele>117.0</ele><time>2026-05-01T14:22:08.28Z</time></trkpt><trkpt lat="42.2809519" lon="14.0998673"><ele>117.0</ele><time>2026-05-01T14:22:09.272Z</time></trkpt><trkpt lat="42.2809797" lon="14.0999642"><ele>117.0</ele><time>2026-05-01T14:22:10.274Z</time></trkpt><trkpt lat="42.2810128" lon="14.1000505"><ele>117.0</ele><time>2026-05-01T14:22:11.274Z</time></trkpt><trkpt lat="42.2810723" lon="14.1001708"><ele>117.0</ele><time>2026-05-01T14:22:13.27Z</time></trkpt><trkpt lat="42.2811099" lon="14.1002411"><ele>118.39999999999999</ele><time>2026-05-01T14:22:14.277Z</time></trkpt><trkpt lat="42.281162" lon="14.1003451"><ele>119.79999999999998</ele><time>2026-05-01T14:22:15.277Z</time></trkpt><trkpt lat="42.281221" lon="14.1004647"><ele>121.2</ele><time>2026-05-01T14:22:16.269Z</time></trkpt><trkpt lat="42.2812887" lon="14.1005819"><ele>122.6</ele><time>2026-05-01T14:22:17.275Z</time></trkpt><trkpt lat="42.2813517" lon="14.1006965"><ele>124.0</ele><time>2026-05-01T14:22:18.269Z</time></trkpt><trkpt lat="42.2814185" lon="14.1008159"><ele>124.0</ele><time>2026-05-01T14:22:19.281Z</time></trkpt><trkpt lat="42.2814813" lon="14.1009375"><ele>124.0</ele><time>2026-05-01T14:22:20.272Z</time></trkpt><trkpt lat="42.2815438" lon="14.1010697"><ele>124.0</ele><time>2026-05-01T14:22:21.286Z</time></trkpt><trkpt lat="42.2816026" lon="14.1012141"><ele>124.0</ele><time>2026-05-01T14:22:22.268Z</time></trkpt><trkpt lat="42.2816653" lon="14.1013659"><ele>124.0</ele><time>2026-05-01T14:22:23.274Z</time></trkpt><trkpt lat="42.2817327" lon="14.1015187"><ele>124.0</ele><time>2026-05-01T14:22:24.269Z</time></trkpt><trkpt lat="42.2818026" lon="14.1016672"><ele>124.0</ele><time>2026-05-01T14:22:25.269Z</time></trkpt><trkpt lat="42.2818632" lon="14.1018054"><ele>124.0</ele><time>2026-05-01T14:22:26.27Z</time></trkpt><trkpt lat="42.2819219" lon="14.1019408"><ele>126.25</ele><time>2026-05-01T14:22:27.265Z</time></trkpt><trkpt lat="42.2819819" lon="14.1020816"><ele>128.5</ele><time>2026-05-01T14:22:28.271Z</time></trkpt><trkpt lat="42.2820442" lon="14.1022249"><ele>130.75</ele><time>2026-05-01T14:22:29.261Z</time></trkpt><trkpt lat="42.2821061" lon="14.1023677"><ele>133.0</ele><time>2026-05-01T14:22:30.267Z</time></trkpt><trkpt lat="42.2821648" lon="14.102509"><ele>135.25</ele><time>2026-05-01T14:22:31.279Z</time></trkpt><trkpt lat="42.2822218" lon="14.1026369"><ele>137.5</ele><time>2026-05-01T14:22:32.271Z</time></trkpt><trkpt lat="42.2822806" lon="14.1027643"><ele>139.75</ele><time>2026-05-01T14:22:33.272Z</time></trkpt><trkpt lat="42.2823438" lon="14.1029037"><ele>142.0</ele><time>2026-05-01T14:22:34.273Z</time></trkpt><trkpt lat="42.282406" lon="14.1030524"><ele>138.75</ele><time>2026-05-01T14:22:35.27Z</time></trkpt><trkpt lat="42.2824729" lon="14.1032092"><ele>135.5</ele><time>2026-05-01T14:22:36.285Z</time></trkpt><trkpt lat="42.2825401" lon="14.1033658"><ele>132.25</ele><time>2026-05-01T14:22:37.271Z</time></trkpt><trkpt lat="42.2826044" lon="14.1035264"><ele>129.0</ele><time>2026-05-01T14:22:38.273Z</time></trkpt><trkpt lat="42.2826614" lon="14.1036773"><ele>129.0</ele><time>2026-05-01T14:22:39.265Z</time></trkpt><trkpt lat="42.2827151" lon="14.1038136"><ele>129.0</ele><time>2026-05-01T14:22:40.271Z</time></trkpt><trkpt lat="42.2827641" lon="14.1039344"><ele>129.0</ele><time>2026-05-01T14:22:41.271Z</time></trkpt><trkpt lat="42.2828045" lon="14.1040401"><ele>129.0</ele><time>2026-05-01T14:22:42.271Z</time></trkpt><trkpt lat="42.2828417" lon="14.1041341"><ele>129.0</ele><time>2026-05-01T14:22:43.267Z</time></trkpt><trkpt lat="42.2828775" lon="14.1042382"><ele>130.16666666666666</ele><time>2026-05-01T14:22:44.269Z</time></trkpt><trkpt lat="42.2829104" lon="14.1043399"><ele>131.33333333333334</ele><time>2026-05-01T14:22:45.269Z</time></trkpt><trkpt lat="42.2829436" lon="14.1044387"><ele>132.5</ele><time>2026-05-01T14:22:46.272Z</time></trkpt><trkpt lat="42.2829811" lon="14.1045565"><ele>133.66666666666669</ele><time>2026-05-01T14:22:47.273Z</time></trkpt><trkpt lat="42.283021" lon="14.1046721"><ele>134.83333333333334</ele><time>2026-05-01T14:22:48.271Z</time></trkpt><trkpt lat="42.2830612" lon="14.1047838"><ele>136.0</ele><time>2026-05-01T14:22:49.276Z</time></trkpt><trkpt lat="42.2831048" lon="14.1048965"><ele>133.2</ele><time>2026-05-01T14:22:50.264Z</time></trkpt><trkpt lat="42.2831497" lon="14.1050106"><ele>130.39999999999998</ele><time>2026-05-01T14:22:51.275Z</time></trkpt><trkpt lat="42.2831982" lon="14.1051291"><ele>127.6</ele><time>2026-05-01T14:22:52.264Z</time></trkpt><trkpt lat="42.2832503" lon="14.1052511"><ele>124.8</ele><time>2026-05-01T14:22:53.282Z</time></trkpt><trkpt lat="42.2832921" lon="14.105382"><ele>122.0</ele><time>2026-05-01T14:22:54.264Z</time></trkpt><trkpt lat="42.2833357" lon="14.1055167"><ele>122.0</ele><time>2026-05-01T14:22:55.272Z</time></trkpt><trkpt lat="42.2833793" lon="14.1056424"><ele>121.99999999999999</ele><time>2026-05-01T14:22:56.265Z</time></trkpt><trkpt lat="42.2834237" lon="14.1057616"><ele>121.99999999999999</ele><time>2026-05-01T14:22:57.277Z</time></trkpt><trkpt lat="42.2834651" lon="14.1058773"><ele>122.0</ele><time>2026-05-01T14:22:58.274Z</time></trkpt><trkpt lat="42.2835072" lon="14.1059904"><ele>122.0</ele><time>2026-05-01T14:22:59.276Z</time></trkpt><trkpt lat="42.2835543" lon="14.1061005"><ele>123.19999999999999</ele><time>2026-05-01T14:23:00.269Z</time></trkpt><trkpt lat="42.2835987" lon="14.1062104"><ele>124.39999999999999</ele><time>2026-05-01T14:23:01.277Z</time></trkpt><trkpt lat="42.2836426" lon="14.1063255"><ele>125.60000000000001</ele><time>2026-05-01T14:23:02.276Z</time></trkpt><trkpt lat="42.2836867" lon="14.1064571"><ele>126.80000000000001</ele><time>2026-05-01T14:23:03.269Z</time></trkpt><trkpt lat="42.2837311" lon="14.106602"><ele>128.0</ele><time>2026-05-01T14:23:04.255Z</time></trkpt><trkpt lat="42.2837802" lon="14.1067411"><ele>127.0</ele><time>2026-05-01T14:23:05.276Z</time></trkpt><trkpt lat="42.28382" lon="14.1068697"><ele>126.00000000000001</ele><time>2026-05-01T14:23:06.28Z</time></trkpt><trkpt lat="42.283858" lon="14.1069969"><ele>125.00000000000001</ele><time>2026-05-01T14:23:07.278Z</time></trkpt><trkpt lat="42.2838963" lon="14.1071258"><ele>124.0</ele><time>2026-05-01T14:23:08.288Z</time></trkpt><trkpt lat="42.2839325" lon="14.1072444"><ele>123.0</ele><time>2026-05-01T14:23:09.271Z</time></trkpt><trkpt lat="42.2839669" lon="14.1073599"><ele>124.2</ele><time>2026-05-01T14:23:10.277Z</time></trkpt><trkpt lat="42.2840034" lon="14.1074757"><ele>125.4</ele><time>2026-05-01T14:23:11.275Z</time></trkpt><trkpt lat="42.2840377" lon="14.1075885"><ele>126.60000000000001</ele><time>2026-05-01T14:23:12.267Z</time></trkpt><trkpt lat="42.2840718" lon="14.1077043"><ele>127.80000000000001</ele><time>2026-05-01T14:23:13.272Z</time></trkpt><trkpt lat="42.2841072" lon="14.1078225"><ele>129.0</ele><time>2026-05-01T14:23:14.267Z</time></trkpt><trkpt lat="42.2841462" lon="14.1079446"><ele>129.0</ele><time>2026-05-01T14:23:15.276Z</time></trkpt><trkpt lat="42.2841888" lon="14.1080674"><ele>129.0</ele><time>2026-05-01T14:23:16.266Z</time></trkpt><trkpt lat="42.2842286" lon="14.1081829"><ele>129.0</ele><time>2026-05-01T14:23:17.276Z</time></trkpt><trkpt lat="42.2842594" lon="14.108282"><ele>129.0</ele><time>2026-05-01T14:23:18.261Z</time></trkpt><trkpt lat="42.2842865" lon="14.1083769"><ele>129.0</ele><time>2026-05-01T14:23:19.271Z</time></trkpt><trkpt lat="42.2843161" lon="14.1084665"><ele>129.0</ele><time>2026-05-01T14:23:20.28Z</time></trkpt><trkpt lat="42.2843498" lon="14.1085524"><ele>129.5</ele><time>2026-05-01T14:23:21.251Z</time></trkpt><trkpt lat="42.2844067" lon="14.1086904"><ele>130.0</ele><time>2026-05-01T14:23:23.268Z</time></trkpt><trkpt lat="42.2844309" lon="14.1087803"><ele>130.5</ele><time>2026-05-01T14:23:24.266Z</time></trkpt><trkpt lat="42.2844562" lon="14.1088761"><ele>131.0</ele><time>2026-05-01T14:23:25.271Z</time></trkpt><trkpt lat="42.2844849" lon="14.1089677"><ele>131.5</ele><time>2026-05-01T14:23:26.27Z</time></trkpt><trkpt lat="42.2845172" lon="14.1090521"><ele>132.0</ele><time>2026-05-01T14:23:27.279Z</time></trkpt><trkpt lat="42.2845491" lon="14.1091303"><ele>132.83333333333334</ele><time>2026-05-01T14:23:28.266Z</time></trkpt><trkpt lat="42.284586" lon="14.1092241"><ele>133.66666666666666</ele><time>2026-05-01T14:23:29.287Z</time></trkpt><trkpt lat="42.2846246" lon="14.1093331"><ele>134.5</ele><time>2026-05-01T14:23:30.259Z</time></trkpt><trkpt lat="42.2846608" lon="14.1094437"><ele>135.33333333333331</ele><time>2026-05-01T14:23:31.284Z</time></trkpt><trkpt lat="42.2847006" lon="14.1095553"><ele>136.16666666666666</ele><time>2026-05-01T14:23:32.266Z</time></trkpt><trkpt lat="42.2847471" lon="14.1096699"><ele>137.0</ele><time>2026-05-01T14:23:33.27Z</time></trkpt><trkpt lat="42.2847981" lon="14.1097905"><ele>135.0</ele><time>2026-05-01T14:23:34.272Z</time></trkpt><trkpt lat="42.2848483" lon="14.1099178"><ele>133.0</ele><time>2026-05-01T14:23:35.271Z</time></trkpt><trkpt lat="42.2849004" lon="14.1100528"><ele>131.0</ele><time>2026-05-01T14:23:36.272Z</time></trkpt><trkpt lat="42.2849463" lon="14.110191"><ele>129.0</ele><time>2026-05-01T14:23:37.288Z</time></trkpt><trkpt lat="42.2849917" lon="14.1103332"><ele>127.0</ele><time>2026-05-01T14:23:38.266Z</time></trkpt><trkpt lat="42.2850329" lon="14.1104738"><ele>127.0</ele><time>2026-05-01T14:23:39.262Z</time></trkpt><trkpt lat="42.2850744" lon="14.110613"><ele>126.99999999999999</ele><time>2026-05-01T14:23:40.273Z</time></trkpt><trkpt lat="42.2851127" lon="14.1107533"><ele>126.99999999999999</ele><time>2026-05-01T14:23:41.275Z</time></trkpt><trkpt lat="42.2851506" lon="14.1108913"><ele>127.0</ele><time>2026-05-01T14:23:42.278Z</time></trkpt><trkpt lat="42.2851895" lon="14.1110357"><ele>127.0</ele><time>2026-05-01T14:23:43.283Z</time></trkpt><trkpt lat="42.2852244" lon="14.1111814"><ele>128.6</ele><time>2026-05-01T14:23:44.275Z</time></trkpt><trkpt lat="42.285256" lon="14.1113264"><ele>130.2</ele><time>2026-05-01T14:23:45.274Z</time></trkpt><trkpt lat="42.28529" lon="14.1114647"><ele>131.8</ele><time>2026-05-01T14:23:46.273Z</time></trkpt><trkpt lat="42.285324" lon="14.1115967"><ele>133.4</ele><time>2026-05-01T14:23:47.266Z</time></trkpt><trkpt lat="42.2853526" lon="14.111706"><ele>135.0</ele><time>2026-05-01T14:23:48.266Z</time></trkpt><trkpt lat="42.2853785" lon="14.1117871"><ele>135.8</ele><time>2026-05-01T14:23:49.266Z</time></trkpt><trkpt lat="42.2854122" lon="14.1119423"><ele>136.6</ele><time>2026-05-01T14:23:51.274Z</time></trkpt><trkpt lat="42.2854497" lon="14.1120289"><ele>137.4</ele><time>2026-05-01T14:23:52.275Z</time></trkpt><trkpt lat="42.2855049" lon="14.1121263"><ele>138.2</ele><time>2026-05-01T14:23:53.276Z</time></trkpt><trkpt lat="42.2855701" lon="14.1122194"><ele>139.0</ele><time>2026-05-01T14:23:54.255Z</time></trkpt><trkpt lat="42.2856398" lon="14.1123255"><ele>137.2</ele><time>2026-05-01T14:23:55.268Z</time></trkpt><trkpt lat="42.2857082" lon="14.1124373"><ele>135.4</ele><time>2026-05-01T14:23:56.267Z</time></trkpt><trkpt lat="42.2857787" lon="14.1125441"><ele>133.6</ele><time>2026-05-01T14:23:57.269Z</time></trkpt><trkpt lat="42.285851" lon="14.1126525"><ele>131.8</ele><time>2026-05-01T14:23:58.261Z</time></trkpt><trkpt lat="42.285923" lon="14.112762"><ele>130.0</ele><time>2026-05-01T14:23:59.279Z</time></trkpt><trkpt lat="42.2859963" lon="14.1128703"><ele>130.0</ele><time>2026-05-01T14:24:00.279Z</time></trkpt><trkpt lat="42.2860664" lon="14.1129772"><ele>130.0</ele><time>2026-05-01T14:24:01.267Z</time></trkpt><trkpt lat="42.2861271" lon="14.113086"><ele>130.0</ele><time>2026-05-01T14:24:02.265Z</time></trkpt><trkpt lat="42.2861718" lon="14.1131817"><ele>130.0</ele><time>2026-05-01T14:24:03.288Z</time></trkpt><trkpt lat="42.2862071" lon="14.1132786"><ele>130.0</ele><time>2026-05-01T14:24:04.266Z</time></trkpt><trkpt lat="42.2862371" lon="14.1133916"><ele>131.8</ele><time>2026-05-01T14:24:05.269Z</time></trkpt><trkpt lat="42.2862557" lon="14.1135288"><ele>133.6</ele><time>2026-05-01T14:24:06.267Z</time></trkpt><trkpt lat="42.2862697" lon="14.1136652"><ele>135.4</ele><time>2026-05-01T14:24:07.27Z</time></trkpt><trkpt lat="42.2862824" lon="14.1137939"><ele>137.2</ele><time>2026-05-01T14:24:08.274Z</time></trkpt><trkpt lat="42.2862946" lon="14.1139238"><ele>139.0</ele><time>2026-05-01T14:24:09.271Z</time></trkpt><trkpt lat="42.2863025" lon="14.1140541"><ele>140.0</ele><time>2026-05-01T14:24:10.273Z</time></trkpt><trkpt lat="42.2863107" lon="14.1141928"><ele>141.0</ele><time>2026-05-01T14:24:11.263Z</time></trkpt><trkpt lat="42.2863236" lon="14.1143243"><ele>142.0</ele><time>2026-05-01T14:24:12.278Z</time></trkpt><trkpt lat="42.2863363" lon="14.1144545"><ele>143.0</ele><time>2026-05-01T14:24:13.274Z</time></trkpt><trkpt lat="42.2863508" lon="14.1145862"><ele>144.0</ele><time>2026-05-01T14:24:14.274Z</time></trkpt><trkpt lat="42.2863646" lon="14.1147261"><ele>144.0</ele><time>2026-05-01T14:24:15.271Z</time></trkpt><trkpt lat="42.2863722" lon="14.1148488"><ele>144.0</ele><time>2026-05-01T14:24:16.267Z</time></trkpt><trkpt lat="42.2863903" lon="14.1149576"><ele>144.0</ele><time>2026-05-01T14:24:17.277Z</time></trkpt><trkpt lat="42.2864135" lon="14.1150752"><ele>144.0</ele><time>2026-05-01T14:24:18.273Z</time></trkpt><trkpt lat="42.2864366" lon="14.1152036"><ele>144.0</ele><time>2026-05-01T14:24:19.269Z</time></trkpt><trkpt lat="42.286462" lon="14.1153324"><ele>142.83333333333334</ele><time>2026-05-01T14:24:20.266Z</time></trkpt><trkpt lat="42.2864949" lon="14.1154525"><ele>141.66666666666666</ele><time>2026-05-01T14:24:21.277Z</time></trkpt><trkpt lat="42.2865244" lon="14.1155564"><ele>140.5</ele><time>2026-05-01T14:24:22.27Z</time></trkpt><trkpt lat="42.2865443" lon="14.1156547"><ele>139.33333333333331</ele><time>2026-05-01T14:24:23.277Z</time></trkpt><trkpt lat="42.2865367" lon="14.1158058"><ele>138.16666666666666</ele><time>2026-05-01T14:24:25.267Z</time></trkpt><trkpt lat="42.2865221" lon="14.11589"><ele>137.0</ele><time>2026-05-01T14:24:27.252Z</time></trkpt><trkpt lat="42.2865083" lon="14.1159731"><ele>137.0</ele><time>2026-05-01T14:24:29.277Z</time></trkpt><trkpt lat="42.286476" lon="14.11605"><ele>137.0</ele><time>2026-05-01T14:24:50.261Z</time></trkpt><trkpt lat="42.2864316" lon="14.1161718"><ele>137.0</ele><time>2026-05-01T14:24:52.263Z</time></trkpt><trkpt lat="42.2863516" lon="14.1163141"><ele>137.0</ele><time>2026-05-01T14:24:54.264Z</time></trkpt><trkpt lat="42.2863032" lon="14.1163924"><ele>137.0</ele><time>2026-05-01T14:24:55.27Z</time></trkpt><trkpt lat="42.2862606" lon="14.1164637"><ele>137.0</ele><time>2026-05-01T14:24:56.267Z</time></trkpt><trkpt lat="42.2862047" lon="14.1165944"><ele>139.4</ele><time>2026-05-01T14:24:58.281Z</time></trkpt><trkpt lat="42.2861632" lon="14.1167426"><ele>141.79999999999998</ele><time>2026-05-01T14:25:00.276Z</time></trkpt><trkpt lat="42.2861457" lon="14.1168443"><ele>144.2</ele><time>2026-05-01T14:25:01.286Z</time></trkpt><trkpt lat="42.2861406" lon="14.1169558"><ele>146.6</ele><time>2026-05-01T14:25:02.287Z</time></trkpt><trkpt lat="42.286135" lon="14.1170783"><ele>149.0</ele><time>2026-05-01T14:25:03.269Z</time></trkpt><trkpt lat="42.2861301" lon="14.1172037"><ele>149.0</ele><time>2026-05-01T14:25:04.286Z</time></trkpt><trkpt lat="42.2861271" lon="14.1173386"><ele>149.0</ele><time>2026-05-01T14:25:05.281Z</time></trkpt><trkpt lat="42.286117" lon="14.1174712"><ele>149.0</ele><time>2026-05-01T14:25:06.293Z</time></trkpt><trkpt lat="42.2861083" lon="14.1176019"><ele>149.0</ele><time>2026-05-01T14:25:07.278Z</time></trkpt><trkpt lat="42.2860949" lon="14.1177305"><ele>149.0</ele><time>2026-05-01T14:25:08.277Z</time></trkpt><trkpt lat="42.2860741" lon="14.1178628"><ele>149.4</ele><time>2026-05-01T14:25:09.271Z</time></trkpt><trkpt lat="42.2860486" lon="14.117987"><ele>149.8</ele><time>2026-05-01T14:25:10.28Z</time></trkpt><trkpt lat="42.2860109" lon="14.1181013"><ele>150.2</ele><time>2026-05-01T14:25:11.276Z</time></trkpt><trkpt lat="42.2859738" lon="14.118219"><ele>150.6</ele><time>2026-05-01T14:25:12.276Z</time></trkpt><trkpt lat="42.2859407" lon="14.1183389"><ele>151.0</ele><time>2026-05-01T14:25:13.269Z</time></trkpt><trkpt lat="42.2859178" lon="14.1184612"><ele>151.57142857142858</ele><time>2026-05-01T14:25:14.26Z</time></trkpt><trkpt lat="42.2858907" lon="14.118564"><ele>152.14285714285714</ele><time>2026-05-01T14:25:15.266Z</time></trkpt><trkpt lat="42.2858681" lon="14.1186484"><ele>152.71428571428572</ele><time>2026-05-01T14:25:16.269Z</time></trkpt><trkpt lat="42.2858576" lon="14.1187359"><ele>153.28571428571428</ele><time>2026-05-01T14:25:17.261Z</time></trkpt><trkpt lat="42.2858504" lon="14.1188318"><ele>153.85714285714286</ele><time>2026-05-01T14:25:18.257Z</time></trkpt><trkpt lat="42.2858383" lon="14.118917"><ele>154.42857142857144</ele><time>2026-05-01T14:25:19.276Z</time></trkpt><trkpt lat="42.2858126" lon="14.1190163"><ele>155.0</ele><time>2026-05-01T14:25:20.266Z</time></trkpt><trkpt lat="42.2857817" lon="14.1191079"><ele>155.83333333333331</ele><time>2026-05-01T14:25:21.266Z</time></trkpt><trkpt lat="42.2857435" lon="14.1191864"><ele>156.66666666666666</ele><time>2026-05-01T14:25:22.256Z</time></trkpt><trkpt lat="42.2856974" lon="14.1192623"><ele>157.5</ele><time>2026-05-01T14:25:23.265Z</time></trkpt><trkpt lat="42.2856437" lon="14.1193394"><ele>158.33333333333334</ele><time>2026-05-01T14:25:24.266Z</time></trkpt><trkpt lat="42.2855825" lon="14.1194138"><ele>159.16666666666669</ele><time>2026-05-01T14:25:25.263Z</time></trkpt><trkpt lat="42.2855176" lon="14.1194857"><ele>160.0</ele><time>2026-05-01T14:25:26.265Z</time></trkpt><trkpt lat="42.2854534" lon="14.1195576"><ele>162.0</ele><time>2026-05-01T14:25:27.264Z</time></trkpt><trkpt lat="42.2853847" lon="14.1196295"><ele>164.0</ele><time>2026-05-01T14:25:28.263Z</time></trkpt><trkpt lat="42.2853176" lon="14.1196965"><ele>166.0</ele><time>2026-05-01T14:25:29.269Z</time></trkpt><trkpt lat="42.2852495" lon="14.1197673"><ele>168.0</ele><time>2026-05-01T14:25:30.266Z</time></trkpt><trkpt lat="42.2851777" lon="14.1198272"><ele>170.0</ele><time>2026-05-01T14:25:31.287Z</time></trkpt><trkpt lat="42.2851004" lon="14.1198811"><ele>172.0</ele><time>2026-05-01T14:25:32.262Z</time></trkpt><trkpt lat="42.2850196" lon="14.1199463"><ele>172.0</ele><time>2026-05-01T14:25:33.27Z</time></trkpt><trkpt lat="42.284943" lon="14.1200094"><ele>172.0</ele><time>2026-05-01T14:25:34.283Z</time></trkpt><trkpt lat="42.2848757" lon="14.1200677"><ele>172.0</ele><time>2026-05-01T14:25:35.268Z</time></trkpt><trkpt lat="42.2848123" lon="14.1201208"><ele>172.0</ele><time>2026-05-01T14:25:36.269Z</time></trkpt><trkpt lat="42.2847478" lon="14.1201737"><ele>172.0</ele><time>2026-05-01T14:25:37.273Z</time></trkpt><trkpt lat="42.2846894" lon="14.1202199"><ele>172.0</ele><time>2026-05-01T14:25:38.281Z</time></trkpt><trkpt lat="42.2846116" lon="14.1203363"><ele>174.66666666666669</ele><time>2026-05-01T14:25:40.267Z</time></trkpt><trkpt lat="42.284546" lon="14.1204919"><ele>177.33333333333334</ele><time>2026-05-01T14:25:42.249Z</time></trkpt><trkpt lat="42.2845155" lon="14.1205867"><ele>180.0</ele><time>2026-05-01T14:25:43.277Z</time></trkpt><trkpt lat="42.2844917" lon="14.1206853"><ele>182.66666666666666</ele><time>2026-05-01T14:25:44.276Z</time></trkpt><trkpt lat="42.2844701" lon="14.1207876"><ele>185.33333333333331</ele><time>2026-05-01T14:25:45.252Z</time></trkpt><trkpt lat="42.2844509" lon="14.1208862"><ele>188.0</ele><time>2026-05-01T14:25:46.259Z</time></trkpt><trkpt lat="42.2844372" lon="14.1209784"><ele>188.0</ele><time>2026-05-01T14:25:47.281Z</time></trkpt><trkpt lat="42.2844217" lon="14.1210712"><ele>188.0</ele><time>2026-05-01T14:25:48.271Z</time></trkpt><trkpt lat="42.2844153" lon="14.1211701"><ele>188.0</ele><time>2026-05-01T14:25:49.267Z</time></trkpt><trkpt lat="42.2844052" lon="14.1212718"><ele>188.0</ele><time>2026-05-01T14:25:50.28Z</time></trkpt><trkpt lat="42.2843965" lon="14.1213803"><ele>188.0</ele><time>2026-05-01T14:25:51.264Z</time></trkpt><trkpt lat="42.2843893" lon="14.1214782"><ele>188.0</ele><time>2026-05-01T14:25:52.27Z</time></trkpt><trkpt lat="42.2843772" lon="14.1215737"><ele>188.0</ele><time>2026-05-01T14:25:53.273Z</time></trkpt><trkpt lat="42.2843623" lon="14.1216808"><ele>188.14285714285714</ele><time>2026-05-01T14:25:54.264Z</time></trkpt><trkpt lat="42.2843419" lon="14.1217968"><ele>188.28571428571428</ele><time>2026-05-01T14:25:55.245Z</time></trkpt><trkpt lat="42.2843145" lon="14.1218917"><ele>188.42857142857144</ele><time>2026-05-01T14:25:56.262Z</time></trkpt><trkpt lat="42.284279" lon="14.1219735"><ele>188.57142857142856</ele><time>2026-05-01T14:25:57.283Z</time></trkpt><trkpt lat="42.2842355" lon="14.1220387"><ele>188.71428571428572</ele><time>2026-05-01T14:25:58.265Z</time></trkpt><trkpt lat="42.2841778" lon="14.1220847"><ele>188.85714285714286</ele><time>2026-05-01T14:25:59.272Z</time></trkpt><trkpt lat="42.2841104" lon="14.122118"><ele>189.0</ele><time>2026-05-01T14:26:00.264Z</time></trkpt><trkpt lat="42.2840314" lon="14.1221406"><ele>189.0</ele><time>2026-05-01T14:26:01.278Z</time></trkpt><trkpt lat="42.2839545" lon="14.1221434"><ele>189.0</ele><time>2026-05-01T14:26:02.279Z</time></trkpt><trkpt lat="42.2838902" lon="14.1221176"><ele>189.0</ele><time>2026-05-01T14:26:03.266Z</time></trkpt><trkpt lat="42.2838365" lon="14.1220653"><ele>189.0</ele><time>2026-05-01T14:26:04.264Z</time></trkpt><trkpt lat="42.283783" lon="14.1220037"><ele>189.0</ele><time>2026-05-01T14:26:05.269Z</time></trkpt><trkpt lat="42.2836995" lon="14.1218846"><ele>189.0</ele><time>2026-05-01T14:26:07.271Z</time></trkpt><trkpt lat="42.2836337" lon="14.1217523"><ele>193.33333333333334</ele><time>2026-05-01T14:26:09.274Z</time></trkpt><trkpt lat="42.2835924" lon="14.1216865"><ele>197.66666666666669</ele><time>2026-05-01T14:26:10.264Z</time></trkpt><trkpt lat="42.283549" lon="14.121622"><ele>202.0</ele><time>2026-05-01T14:26:11.269Z</time></trkpt><trkpt lat="42.2834689" lon="14.1214956"><ele>206.33333333333334</ele><time>2026-05-01T14:26:13.265Z</time></trkpt><trkpt lat="42.2834256" lon="14.1214185"><ele>210.66666666666669</ele><time>2026-05-01T14:26:14.274Z</time></trkpt><trkpt lat="42.2833875" lon="14.1213296"><ele>215.0</ele><time>2026-05-01T14:26:15.265Z</time></trkpt><trkpt lat="42.2833486" lon="14.12124"><ele>215.00000000000003</ele><time>2026-05-01T14:26:16.269Z</time></trkpt><trkpt lat="42.2833063" lon="14.1211473"><ele>215.0</ele><time>2026-05-01T14:26:17.275Z</time></trkpt><trkpt lat="42.2832647" lon="14.1210616"><ele>215.0</ele><time>2026-05-01T14:26:18.27Z</time></trkpt><trkpt lat="42.2832326" lon="14.1209796"><ele>215.0</ele><time>2026-05-01T14:26:19.261Z</time></trkpt><trkpt lat="42.2831885" lon="14.1208055"><ele>215.00000000000003</ele><time>2026-05-01T14:26:21.283Z</time></trkpt><trkpt lat="42.2831578" lon="14.120709"><ele>215.0</ele><time>2026-05-01T14:26:22.247Z</time></trkpt><trkpt lat="42.2831275" lon="14.1205887"><ele>219.0</ele><time>2026-05-01T14:26:23.256Z</time></trkpt><trkpt lat="42.28309" lon="14.1204665"><ele>223.0</ele><time>2026-05-01T14:26:24.252Z</time></trkpt><trkpt lat="42.283056" lon="14.1203432"><ele>227.0</ele><time>2026-05-01T14:26:25.262Z</time></trkpt><trkpt lat="42.28302" lon="14.1202185"><ele>231.0</ele><time>2026-05-01T14:26:26.265Z</time></trkpt><trkpt lat="42.2829806" lon="14.1200838"><ele>235.0</ele><time>2026-05-01T14:26:27.279Z</time></trkpt><trkpt lat="42.282944" lon="14.1199476"><ele>234.0</ele><time>2026-05-01T14:26:28.264Z</time></trkpt><trkpt lat="42.2829095" lon="14.11981"><ele>233.0</ele><time>2026-05-01T14:26:29.282Z</time></trkpt><trkpt lat="42.2828707" lon="14.1196733"><ele>232.0</ele><time>2026-05-01T14:26:30.273Z</time></trkpt><trkpt lat="42.2828334" lon="14.1195394"><ele>231.0</ele><time>2026-05-01T14:26:31.269Z</time></trkpt><trkpt lat="42.2827957" lon="14.1194041"><ele>230.0</ele><time>2026-05-01T14:26:32.261Z</time></trkpt><trkpt lat="42.2827559" lon="14.119261"><ele>230.0</ele><time>2026-05-01T14:26:33.267Z</time></trkpt><trkpt lat="42.282713" lon="14.1191201"><ele>230.0</ele><time>2026-05-01T14:26:34.268Z</time></trkpt><trkpt lat="42.2826695" lon="14.1189728"><ele>230.0</ele><time>2026-05-01T14:26:35.272Z</time></trkpt><trkpt lat="42.2826266" lon="14.1188313"><ele>230.0</ele><time>2026-05-01T14:26:36.264Z</time></trkpt><trkpt lat="42.2825939" lon="14.1187308"><ele>230.0</ele><time>2026-05-01T14:26:37.269Z</time></trkpt><trkpt lat="42.2825601" lon="14.1186305"><ele>229.33333333333334</ele><time>2026-05-01T14:26:39.269Z</time></trkpt><trkpt lat="42.2825308" lon="14.1185482"><ele>228.66666666666669</ele><time>2026-05-01T14:26:43.285Z</time></trkpt><trkpt lat="42.2824841" lon="14.1183917"><ele>228.0</ele><time>2026-05-01T14:26:45.272Z</time></trkpt><trkpt lat="42.2824567" lon="14.1182955"><ele>227.33333333333331</ele><time>2026-05-01T14:26:46.279Z</time></trkpt><trkpt lat="42.2824207" lon="14.1181951"><ele>226.66666666666666</ele><time>2026-05-01T14:26:47.276Z</time></trkpt><trkpt lat="42.2823805" lon="14.1180921"><ele>226.0</ele><time>2026-05-01T14:26:48.286Z</time></trkpt><trkpt lat="42.2823327" lon="14.1179914"><ele>225.49999999999997</ele><time>2026-05-01T14:26:49.269Z</time></trkpt><trkpt lat="42.2822861" lon="14.1178864"><ele>225.0</ele><time>2026-05-01T14:26:50.273Z</time></trkpt><trkpt lat="42.2822381" lon="14.117799"><ele>224.5</ele><time>2026-05-01T14:26:51.267Z</time></trkpt><trkpt lat="42.2821941" lon="14.1177246"><ele>224.0</ele><time>2026-05-01T14:26:52.272Z</time></trkpt><trkpt lat="42.282122" lon="14.1176152"><ele>223.49999999999997</ele><time>2026-05-01T14:26:54.271Z</time></trkpt><trkpt lat="42.282056" lon="14.117572"><ele>223.0</ele><time>2026-05-01T14:26:57.27Z</time></trkpt><trkpt lat="42.2820255" lon="14.1176965"><ele>222.99999999999997</ele><time>2026-05-01T14:27:00.267Z</time></trkpt><trkpt lat="42.2820256" lon="14.1178514"><ele>223.0</ele><time>2026-05-01T14:27:02.269Z</time></trkpt><trkpt lat="42.2820246" lon="14.117947"><ele>223.0</ele><time>2026-05-01T14:27:03.29Z</time></trkpt><trkpt lat="42.2820229" lon="14.1180497"><ele>223.0</ele><time>2026-05-01T14:27:04.277Z</time></trkpt><trkpt lat="42.2820173" lon="14.1181659"><ele>222.99999999999997</ele><time>2026-05-01T14:27:05.284Z</time></trkpt><trkpt lat="42.282013" lon="14.1182873"><ele>223.0</ele><time>2026-05-01T14:27:06.281Z</time></trkpt><trkpt lat="42.282004" lon="14.118416"><ele>224.0</ele><time>2026-05-01T14:27:07.279Z</time></trkpt><trkpt lat="42.2819928" lon="14.1185464"><ele>225.0</ele><time>2026-05-01T14:27:08.264Z</time></trkpt><trkpt lat="42.281976" lon="14.1186824"><ele>226.0</ele><time>2026-05-01T14:27:09.28Z</time></trkpt><trkpt lat="42.2819602" lon="14.118822"><ele>227.0</ele><time>2026-05-01T14:27:10.288Z</time></trkpt><trkpt lat="42.281942" lon="14.1189681"><ele>228.0</ele><time>2026-05-01T14:27:11.281Z</time></trkpt><trkpt lat="42.2819226" lon="14.1191213"><ele>230.0</ele><time>2026-05-01T14:27:12.268Z</time></trkpt><trkpt lat="42.2819034" lon="14.1192798"><ele>232.0</ele><time>2026-05-01T14:27:13.276Z</time></trkpt><trkpt lat="42.2818905" lon="14.1194423"><ele>234.0</ele><time>2026-05-01T14:27:14.288Z</time></trkpt><trkpt lat="42.2818861" lon="14.1196077"><ele>236.0</ele><time>2026-05-01T14:27:15.282Z</time></trkpt><trkpt lat="42.2819003" lon="14.1197758"><ele>237.5</ele><time>2026-05-01T14:27:16.27Z</time></trkpt><trkpt lat="42.2819259" lon="14.1199475"><ele>239.0</ele><time>2026-05-01T14:27:17.271Z</time></trkpt><trkpt lat="42.2819615" lon="14.1201194"><ele>240.5</ele><time>2026-05-01T14:27:18.265Z</time></trkpt><trkpt lat="42.2820037" lon="14.120289"><ele>242.0</ele><time>2026-05-01T14:27:19.279Z</time></trkpt><trkpt lat="42.2820484" lon="14.1204501"><ele>242.0</ele><time>2026-05-01T14:27:20.271Z</time></trkpt><trkpt lat="42.2820802" lon="14.1206117"><ele>242.0</ele><time>2026-05-01T14:27:21.277Z</time></trkpt><trkpt lat="42.2820932" lon="14.1207806"><ele>242.0</ele><time>2026-05-01T14:27:22.27Z</time></trkpt><trkpt lat="42.2820921" lon="14.1209561"><ele>242.0</ele><time>2026-05-01T14:27:23.279Z</time></trkpt><trkpt lat="42.2820814" lon="14.1211338"><ele>243.5</ele><time>2026-05-01T14:27:24.264Z</time></trkpt><trkpt lat="42.2820651" lon="14.1213103"><ele>245.0</ele><time>2026-05-01T14:27:25.28Z</time></trkpt><trkpt lat="42.2820418" lon="14.1214792"><ele>246.5</ele><time>2026-05-01T14:27:26.281Z</time></trkpt><trkpt lat="42.2820098" lon="14.1216337"><ele>248.0</ele><time>2026-05-01T14:27:27.277Z</time></trkpt><trkpt lat="42.2819895" lon="14.1217907"><ele>249.0</ele><time>2026-05-01T14:27:28.287Z</time></trkpt><trkpt lat="42.2819913" lon="14.1219491"><ele>250.0</ele><time>2026-05-01T14:27:29.276Z</time></trkpt><trkpt lat="42.2820079" lon="14.1221048"><ele>251.0</ele><time>2026-05-01T14:27:30.278Z</time></trkpt><trkpt lat="42.2820345" lon="14.1222593"><ele>252.0</ele><time>2026-05-01T14:27:31.279Z</time></trkpt><trkpt lat="42.2820632" lon="14.122416"><ele>253.75</ele><time>2026-05-01T14:27:32.265Z</time></trkpt><trkpt lat="42.2820881" lon="14.1225783"><ele>255.5</ele><time>2026-05-01T14:27:33.274Z</time></trkpt><trkpt lat="42.2821091" lon="14.1227453"><ele>257.25</ele><time>2026-05-01T14:27:34.269Z</time></trkpt><trkpt lat="42.2821211" lon="14.1229176"><ele>259.0</ele><time>2026-05-01T14:27:35.277Z</time></trkpt><trkpt lat="42.2821282" lon="14.1230932"><ele>262.0</ele><time>2026-05-01T14:27:36.272Z</time></trkpt><trkpt lat="42.2821336" lon="14.1232709"><ele>265.0</ele><time>2026-05-01T14:27:37.284Z</time></trkpt><trkpt lat="42.2821429" lon="14.1234468"><ele>268.0</ele><time>2026-05-01T14:27:38.296Z</time></trkpt><trkpt lat="42.2821507" lon="14.1236177"><ele>271.0</ele><time>2026-05-01T14:27:39.281Z</time></trkpt><trkpt lat="42.2821564" lon="14.1237909"><ele>271.0</ele><time>2026-05-01T14:27:40.271Z</time></trkpt><trkpt lat="42.2821581" lon="14.1239663"><ele>271.0</ele><time>2026-05-01T14:27:41.281Z</time></trkpt><trkpt lat="42.2821606" lon="14.1241338"><ele>271.0</ele><time>2026-05-01T14:27:42.272Z</time></trkpt><trkpt lat="42.2821643" lon="14.1242985"><ele>271.0</ele><time>2026-05-01T14:27:43.281Z</time></trkpt><trkpt lat="42.2821708" lon="14.12446"><ele>273.0</ele><time>2026-05-01T14:27:44.281Z</time></trkpt><trkpt lat="42.2821851" lon="14.1246231"><ele>275.0</ele><time>2026-05-01T14:27:45.27Z</time></trkpt><trkpt lat="42.2822012" lon="14.1247855"><ele>277.0</ele><time>2026-05-01T14:27:46.267Z</time></trkpt><trkpt lat="42.2822189" lon="14.1249507"><ele>279.0</ele><time>2026-05-01T14:27:47.264Z</time></trkpt><trkpt lat="42.2822342" lon="14.1251162"><ele>279.5</ele><time>2026-05-01T14:27:48.267Z</time></trkpt><trkpt lat="42.2822513" lon="14.1252793"><ele>280.0</ele><time>2026-05-01T14:27:49.278Z</time></trkpt><trkpt lat="42.2822697" lon="14.1254449"><ele>280.5</ele><time>2026-05-01T14:27:50.271Z</time></trkpt><trkpt lat="42.2822864" lon="14.1256129"><ele>281.0</ele><time>2026-05-01T14:27:51.269Z</time></trkpt><trkpt lat="42.2823024" lon="14.1257827"><ele>283.0</ele><time>2026-05-01T14:27:52.276Z</time></trkpt><trkpt lat="42.2823189" lon="14.1259532"><ele>285.0</ele><time>2026-05-01T14:27:53.288Z</time></trkpt><trkpt lat="42.2823387" lon="14.1261212"><ele>287.0</ele><time>2026-05-01T14:27:54.267Z</time></trkpt><trkpt lat="42.2823718" lon="14.1262852"><ele>289.0</ele><time>2026-05-01T14:27:55.279Z</time></trkpt><trkpt lat="42.2824147" lon="14.1264382"><ele>291.2</ele><time>2026-05-01T14:27:56.262Z</time></trkpt><trkpt lat="42.2824668" lon="14.1265772"><ele>293.4</ele><time>2026-05-01T14:27:57.271Z</time></trkpt><trkpt lat="42.2825184" lon="14.1267035"><ele>295.6</ele><time>2026-05-01T14:27:58.274Z</time></trkpt><trkpt lat="42.2825682" lon="14.1268212"><ele>297.8</ele><time>2026-05-01T14:27:59.275Z</time></trkpt><trkpt lat="42.2826078" lon="14.12692"><ele>300.0</ele><time>2026-05-01T14:28:00.278Z</time></trkpt><trkpt lat="42.2826434" lon="14.1270305"><ele>300.0</ele><time>2026-05-01T14:28:02.292Z</time></trkpt><trkpt lat="42.2826868" lon="14.1271408"><ele>300.0</ele><time>2026-05-01T14:28:04.262Z</time></trkpt><trkpt lat="42.2827233" lon="14.1272183"><ele>300.0</ele><time>2026-05-01T14:28:05.276Z</time></trkpt><trkpt lat="42.2827727" lon="14.1272992"><ele>300.0</ele><time>2026-05-01T14:28:06.251Z</time></trkpt><trkpt lat="42.2828309" lon="14.1273916"><ele>300.0</ele><time>2026-05-01T14:28:07.269Z</time></trkpt><trkpt lat="42.2828891" lon="14.1274944"><ele>300.0</ele><time>2026-05-01T14:28:08.278Z</time></trkpt><trkpt lat="42.2829495" lon="14.1276039"><ele>300.2</ele><time>2026-05-01T14:28:09.274Z</time></trkpt><trkpt lat="42.2830108" lon="14.1277206"><ele>300.4</ele><time>2026-05-01T14:28:10.271Z</time></trkpt><trkpt lat="42.2830756" lon="14.127842"><ele>300.6</ele><time>2026-05-01T14:28:11.278Z</time></trkpt><trkpt lat="42.2831404" lon="14.1279605"><ele>300.8</ele><time>2026-05-01T14:28:12.273Z</time></trkpt><trkpt lat="42.2832016" lon="14.128067"><ele>301.0</ele><time>2026-05-01T14:28:13.274Z</time></trkpt><trkpt lat="42.2832563" lon="14.1281617"><ele>301.2</ele><time>2026-05-01T14:28:14.277Z</time></trkpt><trkpt lat="42.2833102" lon="14.1282514"><ele>301.40000000000003</ele><time>2026-05-01T14:28:15.281Z</time></trkpt><trkpt lat="42.2833674" lon="14.1283454"><ele>301.6</ele><time>2026-05-01T14:28:16.277Z</time></trkpt><trkpt lat="42.2834287" lon="14.1284421"><ele>301.8</ele><time>2026-05-01T14:28:17.273Z</time></trkpt><trkpt lat="42.2835054" lon="14.1285344"><ele>302.0</ele><time>2026-05-01T14:28:18.269Z</time></trkpt><trkpt lat="42.2835917" lon="14.1286121"><ele>302.0</ele><time>2026-05-01T14:28:19.289Z</time></trkpt><trkpt lat="42.2836858" lon="14.128668"><ele>302.0</ele><time>2026-05-01T14:28:20.262Z</time></trkpt><trkpt lat="42.2837917" lon="14.1286956"><ele>302.0</ele><time>2026-05-01T14:28:21.27Z</time></trkpt><trkpt lat="42.2839019" lon="14.128699"><ele>302.0</ele><time>2026-05-01T14:28:22.304Z</time></trkpt><trkpt lat="42.2840083" lon="14.1287016"><ele>302.0</ele><time>2026-05-01T14:28:23.282Z</time></trkpt><trkpt lat="42.2841137" lon="14.1287186"><ele>302.5</ele><time>2026-05-01T14:28:24.272Z</time></trkpt><trkpt lat="42.2842192" lon="14.1287561"><ele>303.0</ele><time>2026-05-01T14:28:25.27Z</time></trkpt><trkpt lat="42.2843196" lon="14.1288135"><ele>303.5</ele><time>2026-05-01T14:28:26.28Z</time></trkpt><trkpt lat="42.2844224" lon="14.1288973"><ele>304.0</ele><time>2026-05-01T14:28:27.28Z</time></trkpt><trkpt lat="42.2845223" lon="14.1289985"><ele>303.5</ele><time>2026-05-01T14:28:28.269Z</time></trkpt><trkpt lat="42.2846243" lon="14.1291065"><ele>303.0</ele><time>2026-05-01T14:28:29.284Z</time></trkpt><trkpt lat="42.2847205" lon="14.1292124"><ele>302.5</ele><time>2026-05-01T14:28:30.273Z</time></trkpt><trkpt lat="42.2848225" lon="14.1293204"><ele>302.0</ele><time>2026-05-01T14:28:31.281Z</time></trkpt><trkpt lat="42.2849256" lon="14.129432"><ele>302.0</ele><time>2026-05-01T14:28:32.284Z</time></trkpt><trkpt lat="42.2850266" lon="14.129548"><ele>302.0</ele><time>2026-05-01T14:28:33.269Z</time></trkpt><trkpt lat="42.2851287" lon="14.1296716"><ele>302.0</ele><time>2026-05-01T14:28:34.283Z</time></trkpt><trkpt lat="42.2852253" lon="14.1298037"><ele>302.0</ele><time>2026-05-01T14:28:35.284Z</time></trkpt><trkpt lat="42.2853195" lon="14.129942"><ele>303.25</ele><time>2026-05-01T14:28:36.287Z</time></trkpt><trkpt lat="42.2854158" lon="14.1300827"><ele>304.5</ele><time>2026-05-01T14:28:37.273Z</time></trkpt><trkpt lat="42.2855108" lon="14.1302336"><ele>305.75</ele><time>2026-05-01T14:28:38.276Z</time></trkpt><trkpt lat="42.2856004" lon="14.1303931"><ele>307.0</ele><time>2026-05-01T14:28:39.275Z</time></trkpt><trkpt lat="42.2856828" lon="14.1305645"><ele>304.0</ele><time>2026-05-01T14:28:40.275Z</time></trkpt><trkpt lat="42.2857616" lon="14.1307428"><ele>301.0</ele><time>2026-05-01T14:28:41.288Z</time></trkpt><trkpt lat="42.2858427" lon="14.1309135"><ele>298.0</ele><time>2026-05-01T14:28:42.271Z</time></trkpt><trkpt lat="42.2859284" lon="14.1310782"><ele>298.0</ele><time>2026-05-01T14:28:43.28Z</time></trkpt><trkpt lat="42.2860169" lon="14.1312305"><ele>298.0</ele><time>2026-05-01T14:28:44.265Z</time></trkpt><trkpt lat="42.2861108" lon="14.1313723"><ele>298.0</ele><time>2026-05-01T14:28:45.268Z</time></trkpt><trkpt lat="42.2862048" lon="14.1315104"><ele>298.0</ele><time>2026-05-01T14:28:46.278Z</time></trkpt><trkpt lat="42.2862936" lon="14.131645"><ele>299.0</ele><time>2026-05-01T14:28:47.282Z</time></trkpt><trkpt lat="42.2863781" lon="14.1317819"><ele>300.0</ele><time>2026-05-01T14:28:48.271Z</time></trkpt><trkpt lat="42.2864586" lon="14.131919"><ele>301.0</ele><time>2026-05-01T14:28:49.285Z</time></trkpt><trkpt lat="42.2865314" lon="14.1320479"><ele>302.0</ele><time>2026-05-01T14:28:50.271Z</time></trkpt><trkpt lat="42.2865967" lon="14.1321769"><ele>299.5</ele><time>2026-05-01T14:28:51.27Z</time></trkpt><trkpt lat="42.286656" lon="14.1323111"><ele>297.0</ele><time>2026-05-01T14:28:52.272Z</time></trkpt><trkpt lat="42.2867022" lon="14.1324574"><ele>294.5</ele><time>2026-05-01T14:28:53.274Z</time></trkpt><trkpt lat="42.2867359" lon="14.1326182"><ele>292.0</ele><time>2026-05-01T14:28:54.275Z</time></trkpt><trkpt lat="42.2867672" lon="14.1327831"><ele>292.0</ele><time>2026-05-01T14:28:55.276Z</time></trkpt><trkpt lat="42.2867995" lon="14.1329479"><ele>292.0</ele><time>2026-05-01T14:28:56.281Z</time></trkpt><trkpt lat="42.2868356" lon="14.1331029"><ele>292.0</ele><time>2026-05-01T14:28:57.34Z</time></trkpt><trkpt lat="42.2868743" lon="14.1332335"><ele>292.0</ele><time>2026-05-01T14:28:58.28Z</time></trkpt><trkpt lat="42.2869328" lon="14.1333305"><ele>292.0</ele><time>2026-05-01T14:28:59.282Z</time></trkpt><trkpt lat="42.2870085" lon="14.1333861"><ele>291.4</ele><time>2026-05-01T14:29:00.281Z</time></trkpt><trkpt lat="42.2870963" lon="14.1334244"><ele>290.79999999999995</ele><time>2026-05-01T14:29:01.281Z</time></trkpt><trkpt lat="42.2871924" lon="14.1334562"><ele>290.2</ele><time>2026-05-01T14:29:02.281Z</time></trkpt><trkpt lat="42.2872945" lon="14.1334917"><ele>289.59999999999997</ele><time>2026-05-01T14:29:03.283Z</time></trkpt><trkpt lat="42.287403" lon="14.1335342"><ele>289.0</ele><time>2026-05-01T14:29:04.283Z</time></trkpt><trkpt lat="42.2875123" lon="14.1335764"><ele>289.0</ele><time>2026-05-01T14:29:05.287Z</time></trkpt><trkpt lat="42.2876171" lon="14.1336182"><ele>289.0</ele><time>2026-05-01T14:29:06.269Z</time></trkpt><trkpt lat="42.2877224" lon="14.1336625"><ele>289.0</ele><time>2026-05-01T14:29:07.289Z</time></trkpt><trkpt lat="42.2878264" lon="14.13371"><ele>289.0</ele><time>2026-05-01T14:29:08.289Z</time></trkpt><trkpt lat="42.2879251" lon="14.1337766"><ele>289.0</ele><time>2026-05-01T14:29:09.287Z</time></trkpt><trkpt lat="42.2880099" lon="14.1338703"><ele>289.0</ele><time>2026-05-01T14:29:10.281Z</time></trkpt><trkpt lat="42.2880823" lon="14.1339856"><ele>289.0</ele><time>2026-05-01T14:29:11.251Z</time></trkpt><trkpt lat="42.2881495" lon="14.1341144"><ele>289.0</ele><time>2026-05-01T14:29:12.263Z</time></trkpt><trkpt lat="42.2882167" lon="14.1342423"><ele>289.0</ele><time>2026-05-01T14:29:13.295Z</time></trkpt><trkpt lat="42.2882868" lon="14.1343693"><ele>291.25</ele><time>2026-05-01T14:29:14.272Z</time></trkpt><trkpt lat="42.2883625" lon="14.1344964"><ele>293.5</ele><time>2026-05-01T14:29:15.284Z</time></trkpt><trkpt lat="42.2884441" lon="14.1346176"><ele>295.75</ele><time>2026-05-01T14:29:16.275Z</time></trkpt><trkpt lat="42.2885332" lon="14.134726"><ele>298.0</ele><time>2026-05-01T14:29:17.268Z</time></trkpt><trkpt lat="42.2886369" lon="14.1348123"><ele>297.5</ele><time>2026-05-01T14:29:18.287Z</time></trkpt><trkpt lat="42.2887445" lon="14.1348898"><ele>297.0</ele><time>2026-05-01T14:29:19.262Z</time></trkpt><trkpt lat="42.2888566" lon="14.1349718"><ele>296.5</ele><time>2026-05-01T14:29:20.284Z</time></trkpt><trkpt lat="42.2889593" lon="14.1350712"><ele>296.0</ele><time>2026-05-01T14:29:21.27Z</time></trkpt><trkpt lat="42.2890606" lon="14.1351766"><ele>299.5</ele><time>2026-05-01T14:29:22.275Z</time></trkpt><trkpt lat="42.2891637" lon="14.1352844"><ele>303.0</ele><time>2026-05-01T14:29:23.271Z</time></trkpt><trkpt lat="42.2892673" lon="14.1353903"><ele>306.5</ele><time>2026-05-01T14:29:24.279Z</time></trkpt><trkpt lat="42.2893734" lon="14.1354927"><ele>310.0</ele><time>2026-05-01T14:29:25.267Z</time></trkpt><trkpt lat="42.2894856" lon="14.1355929"><ele>310.0</ele><time>2026-05-01T14:29:26.28Z</time></trkpt><trkpt lat="42.2895983" lon="14.1356796"><ele>310.0</ele><time>2026-05-01T14:29:27.285Z</time></trkpt><trkpt lat="42.289717" lon="14.135749"><ele>310.0</ele><time>2026-05-01T14:29:28.274Z</time></trkpt><trkpt lat="42.2898431" lon="14.1357941"><ele>310.0</ele><time>2026-05-01T14:29:29.272Z</time></trkpt><trkpt lat="42.2899717" lon="14.1358276"><ele>310.25</ele><time>2026-05-01T14:29:30.273Z</time></trkpt><trkpt lat="42.2900959" lon="14.1358625"><ele>310.5</ele><time>2026-05-01T14:29:31.275Z</time></trkpt><trkpt lat="42.2902177" lon="14.1359023"><ele>310.75</ele><time>2026-05-01T14:29:32.27Z</time></trkpt><trkpt lat="42.2903365" lon="14.1359415"><ele>311.0</ele><time>2026-05-01T14:29:33.284Z</time></trkpt><trkpt lat="42.2904517" lon="14.1359803"><ele>311.0</ele><time>2026-05-01T14:29:34.271Z</time></trkpt><trkpt lat="42.2905652" lon="14.1360141"><ele>311.0</ele><time>2026-05-01T14:29:35.274Z</time></trkpt><trkpt lat="42.290676" lon="14.1360502"><ele>311.0</ele><time>2026-05-01T14:29:36.274Z</time></trkpt><trkpt lat="42.2907878" lon="14.1360832"><ele>311.0</ele><time>2026-05-01T14:29:37.285Z</time></trkpt><trkpt lat="42.2908872" lon="14.1361125"><ele>311.0</ele><time>2026-05-01T14:29:38.278Z</time></trkpt><trkpt lat="42.290984" lon="14.1361304"><ele>311.33333333333337</ele><time>2026-05-01T14:29:39.271Z</time></trkpt><trkpt lat="42.291074" lon="14.1361304"><ele>311.6666666666667</ele><time>2026-05-01T14:29:40.286Z</time></trkpt><trkpt lat="42.291151" lon="14.136107"><ele>312.0</ele><time>2026-05-01T14:29:41.279Z</time></trkpt><trkpt lat="42.2912215" lon="14.1360683"><ele>312.3333333333333</ele><time>2026-05-01T14:29:42.27Z</time></trkpt><trkpt lat="42.29129" lon="14.1360294"><ele>312.66666666666663</ele><time>2026-05-01T14:29:43.28Z</time></trkpt><trkpt lat="42.2913901" lon="14.135998"><ele>313.0</ele><time>2026-05-01T14:29:45.279Z</time></trkpt><trkpt lat="42.291468" lon="14.1359364"><ele>313.0</ele><time>2026-05-01T14:29:47.267Z</time></trkpt><trkpt lat="42.2914675" lon="14.1358453"><ele>313.0</ele><time>2026-05-01T14:29:49.282Z</time></trkpt><trkpt lat="42.2914763" lon="14.135741"><ele>313.0</ele><time>2026-05-01T14:29:54.281Z</time></trkpt><trkpt lat="42.2915199" lon="14.1356661"><ele>313.0</ele><time>2026-05-01T14:29:56.272Z</time></trkpt><trkpt lat="42.291582" lon="14.1355601"><ele>313.0</ele><time>2026-05-01T14:29:58.262Z</time></trkpt><trkpt lat="42.2916409" lon="14.135469"><ele>313.0</ele><time>2026-05-01T14:30:00.283Z</time></trkpt><trkpt lat="42.2917256" lon="14.1354182"><ele>312.16666666666663</ele><time>2026-05-01T14:30:03.281Z</time></trkpt><trkpt lat="42.2916555" lon="14.1354266"><ele>311.3333333333333</ele><time>2026-05-01T14:30:08.267Z</time></trkpt><trkpt lat="42.2916058" lon="14.1355298"><ele>310.5</ele><time>2026-05-01T14:30:10.265Z</time></trkpt><trkpt lat="42.2915479" lon="14.1356359"><ele>309.6666666666667</ele><time>2026-05-01T14:30:12.266Z</time></trkpt><trkpt lat="42.2914796" lon="14.1357202"><ele>308.83333333333337</ele><time>2026-05-01T14:30:14.273Z</time></trkpt><trkpt lat="42.2913922" lon="14.1357056"><ele>308.0</ele><time>2026-05-01T14:30:17.275Z</time></trkpt><trkpt lat="42.2913379" lon="14.1356409"><ele>312.0</ele><time>2026-05-01T14:30:19.268Z</time></trkpt><trkpt lat="42.2912791" lon="14.1355794"><ele>316.0</ele><time>2026-05-01T14:30:23.278Z</time></trkpt><trkpt lat="42.2911857" lon="14.1354436"><ele>320.0</ele><time>2026-05-01T14:30:29.276Z</time></trkpt><trkpt lat="42.2911287" lon="14.1352925"><ele>324.0</ele><time>2026-05-01T14:30:31.276Z</time></trkpt><trkpt lat="42.291096" lon="14.1352146"><ele>328.0</ele><time>2026-05-01T14:30:32.279Z</time></trkpt><trkpt lat="42.2910413" lon="14.1350818"><ele>328.0</ele><time>2026-05-01T14:30:34.281Z</time></trkpt><trkpt lat="42.2909973" lon="14.1349544"><ele>328.0</ele><time>2026-05-01T14:30:36.273Z</time></trkpt><trkpt lat="42.2909508" lon="14.134826"><ele>328.0</ele><time>2026-05-01T14:30:38.278Z</time></trkpt><trkpt lat="42.2909254" lon="14.1347365"><ele>328.0</ele><time>2026-05-01T14:30:40.272Z</time></trkpt><trkpt lat="42.2909292" lon="14.1346431"><ele>328.0</ele><time>2026-05-01T14:30:43.275Z</time></trkpt><trkpt lat="42.2909076" lon="14.1345449"><ele>328.0</ele><time>2026-05-01T14:30:46.28Z</time></trkpt><trkpt lat="42.290879" lon="14.1344589"><ele>326.59999999999997</ele><time>2026-05-01T14:30:49.274Z</time></trkpt><trkpt lat="42.2908261" lon="14.1343954"><ele>325.2</ele><time>2026-05-01T14:30:51.268Z</time></trkpt><trkpt lat="42.2907697" lon="14.1342835"><ele>323.8</ele><time>2026-05-01T14:30:53.277Z</time></trkpt><trkpt lat="42.2907026" lon="14.1341378"><ele>322.4</ele><time>2026-05-01T14:30:55.271Z</time></trkpt><trkpt lat="42.2906489" lon="14.1340602"><ele>321.0</ele><time>2026-05-01T14:30:56.277Z</time></trkpt><trkpt lat="42.2905803" lon="14.1340011"><ele>320.6</ele><time>2026-05-01T14:30:57.269Z</time></trkpt><trkpt lat="42.2905017" lon="14.1339495"><ele>320.20000000000005</ele><time>2026-05-01T14:30:58.261Z</time></trkpt><trkpt lat="42.2904074" lon="14.1339098"><ele>319.79999999999995</ele><time>2026-05-01T14:30:59.274Z</time></trkpt><trkpt lat="42.2903086" lon="14.1338684"><ele>319.4</ele><time>2026-05-01T14:31:00.264Z</time></trkpt><trkpt lat="42.2902102" lon="14.1338128"><ele>319.0</ele><time>2026-05-01T14:31:01.267Z</time></trkpt><trkpt lat="42.2901173" lon="14.1337477"><ele>319.0</ele><time>2026-05-01T14:31:02.274Z</time></trkpt><trkpt lat="42.2900385" lon="14.1336531"><ele>319.0</ele><time>2026-05-01T14:31:03.282Z</time></trkpt><trkpt lat="42.289972" lon="14.1335334"><ele>319.0</ele><time>2026-05-01T14:31:04.266Z</time></trkpt><trkpt lat="42.2899131" lon="14.1334065"><ele>319.0</ele><time>2026-05-01T14:31:05.289Z</time></trkpt><trkpt lat="42.289861" lon="14.1332876"><ele>319.0</ele><time>2026-05-01T14:31:06.275Z</time></trkpt><trkpt lat="42.2898041" lon="14.1331896"><ele>318.0</ele><time>2026-05-01T14:31:07.281Z</time></trkpt><trkpt lat="42.2897413" lon="14.1331139"><ele>317.0</ele><time>2026-05-01T14:31:08.261Z</time></trkpt><trkpt lat="42.2896819" lon="14.1330527"><ele>316.0</ele><time>2026-05-01T14:31:09.264Z</time></trkpt><trkpt lat="42.2896182" lon="14.132945"><ele>315.0</ele><time>2026-05-01T14:31:11.285Z</time></trkpt><trkpt lat="42.2896134" lon="14.1328424"><ele>314.0</ele><time>2026-05-01T14:31:14.278Z</time></trkpt><trkpt lat="42.2896236" lon="14.1326891"><ele>314.0</ele><time>2026-05-01T14:31:16.273Z</time></trkpt><trkpt lat="42.289636" lon="14.1325907"><ele>314.0</ele><time>2026-05-01T14:31:17.288Z</time></trkpt><trkpt lat="42.2896512" lon="14.1324799"><ele>314.0</ele><time>2026-05-01T14:31:18.279Z</time></trkpt><trkpt lat="42.2896682" lon="14.1323658"><ele>314.0</ele><time>2026-05-01T14:31:19.281Z</time></trkpt><trkpt lat="42.2896934" lon="14.132257"><ele>314.0</ele><time>2026-05-01T14:31:20.274Z</time></trkpt><trkpt lat="42.2897199" lon="14.1321575"><ele>314.0</ele><time>2026-05-01T14:31:21.279Z</time></trkpt><trkpt lat="42.2897484" lon="14.132062"><ele>313.1666666666667</ele><time>2026-05-01T14:31:22.273Z</time></trkpt><trkpt lat="42.2897797" lon="14.1319705"><ele>312.33333333333337</ele><time>2026-05-01T14:31:23.281Z</time></trkpt><trkpt lat="42.2898197" lon="14.13188"><ele>311.5</ele><time>2026-05-01T14:31:24.286Z</time></trkpt><trkpt lat="42.2898621" lon="14.1317894"><ele>310.6666666666667</ele><time>2026-05-01T14:31:25.285Z</time></trkpt><trkpt lat="42.2899035" lon="14.1317065"><ele>309.8333333333333</ele><time>2026-05-01T14:31:26.28Z</time></trkpt><trkpt lat="42.2899403" lon="14.1316297"><ele>309.0</ele><time>2026-05-01T14:31:27.277Z</time></trkpt><trkpt lat="42.2900043" lon="14.1315046"><ele>305.8</ele><time>2026-05-01T14:31:29.273Z</time></trkpt><trkpt lat="42.290058" lon="14.1314082"><ele>302.59999999999997</ele><time>2026-05-01T14:31:31.273Z</time></trkpt><trkpt lat="42.2901086" lon="14.1313134"><ele>299.4</ele><time>2026-05-01T14:31:33.277Z</time></trkpt><trkpt lat="42.2901432" lon="14.1312147"><ele>296.2</ele><time>2026-05-01T14:31:35.273Z</time></trkpt><trkpt lat="42.2901758" lon="14.1311039"><ele>293.0</ele><time>2026-05-01T14:31:37.279Z</time></trkpt><trkpt lat="42.2902104" lon="14.1309685"><ele>293.0</ele><time>2026-05-01T14:31:39.271Z</time></trkpt><trkpt lat="42.2902474" lon="14.1308056"><ele>293.0</ele><time>2026-05-01T14:31:41.274Z</time></trkpt><trkpt lat="42.2902636" lon="14.1307185"><ele>293.0</ele><time>2026-05-01T14:31:42.271Z</time></trkpt><trkpt lat="42.2902831" lon="14.1306326"><ele>293.0</ele><time>2026-05-01T14:31:43.277Z</time></trkpt><trkpt lat="42.2903047" lon="14.1305416"><ele>293.0</ele><time>2026-05-01T14:31:44.262Z</time></trkpt><trkpt lat="42.2903276" lon="14.1304524"><ele>293.0</ele><time>2026-05-01T14:31:45.268Z</time></trkpt><trkpt lat="42.2903455" lon="14.1303671"><ele>290.71428571428567</ele><time>2026-05-01T14:31:46.273Z</time></trkpt><trkpt lat="42.2903602" lon="14.1302806"><ele>288.42857142857144</ele><time>2026-05-01T14:31:47.279Z</time></trkpt><trkpt lat="42.2903748" lon="14.1301897"><ele>286.1428571428571</ele><time>2026-05-01T14:31:48.274Z</time></trkpt><trkpt lat="42.2903827" lon="14.1300982"><ele>283.85714285714283</ele><time>2026-05-01T14:31:49.269Z</time></trkpt><trkpt lat="42.2903882" lon="14.1300062"><ele>281.57142857142856</ele><time>2026-05-01T14:31:50.272Z</time></trkpt><trkpt lat="42.2903886" lon="14.1299134"><ele>279.2857142857143</ele><time>2026-05-01T14:31:51.278Z</time></trkpt><trkpt lat="42.2903846" lon="14.1298188"><ele>277.0</ele><time>2026-05-01T14:31:52.273Z</time></trkpt><trkpt lat="42.2903791" lon="14.1297174"><ele>275.85714285714283</ele><time>2026-05-01T14:31:53.265Z</time></trkpt><trkpt lat="42.2903708" lon="14.1296227"><ele>274.71428571428567</ele><time>2026-05-01T14:31:54.287Z</time></trkpt><trkpt lat="42.2903611" lon="14.1295293"><ele>273.57142857142856</ele><time>2026-05-01T14:31:55.275Z</time></trkpt><trkpt lat="42.2903549" lon="14.1294354"><ele>272.42857142857144</ele><time>2026-05-01T14:31:56.248Z</time></trkpt><trkpt lat="42.2903453" lon="14.1293417"><ele>271.28571428571433</ele><time>2026-05-01T14:31:57.269Z</time></trkpt><trkpt lat="42.2903383" lon="14.1292422"><ele>270.14285714285717</ele><time>2026-05-01T14:31:58.264Z</time></trkpt><trkpt lat="42.2903449" lon="14.1291426"><ele>269.0</ele><time>2026-05-01T14:31:59.269Z</time></trkpt><trkpt lat="42.2903501" lon="14.1290474"><ele>265.6666666666667</ele><time>2026-05-01T14:32:00.273Z</time></trkpt><trkpt lat="42.2903546" lon="14.1289548"><ele>262.33333333333337</ele><time>2026-05-01T14:32:01.272Z</time></trkpt><trkpt lat="42.2903653" lon="14.1288547"><ele>259.0</ele><time>2026-05-01T14:32:02.273Z</time></trkpt><trkpt lat="42.2903768" lon="14.1287504"><ele>255.66666666666669</ele><time>2026-05-01T14:32:03.26Z</time></trkpt><trkpt lat="42.2903942" lon="14.1286399"><ele>252.33333333333334</ele><time>2026-05-01T14:32:04.264Z</time></trkpt><trkpt lat="42.2904051" lon="14.1285218"><ele>249.0</ele><time>2026-05-01T14:32:05.259Z</time></trkpt><trkpt lat="42.2904204" lon="14.1284012"><ele>249.0</ele><time>2026-05-01T14:32:06.295Z</time></trkpt><trkpt lat="42.2904343" lon="14.1282756"><ele>249.0</ele><time>2026-05-01T14:32:07.279Z</time></trkpt><trkpt lat="42.2904516" lon="14.1281446"><ele>249.0</ele><time>2026-05-01T14:32:08.272Z</time></trkpt><trkpt lat="42.2904705" lon="14.1280249"><ele>249.0</ele><time>2026-05-01T14:32:09.272Z</time></trkpt><trkpt lat="42.2904868" lon="14.1279144"><ele>249.0</ele><time>2026-05-01T14:32:10.27Z</time></trkpt><trkpt lat="42.2905009" lon="14.1278079"><ele>249.0</ele><time>2026-05-01T14:32:11.269Z</time></trkpt><trkpt lat="42.2905123" lon="14.1277032"><ele>245.5</ele><time>2026-05-01T14:32:12.265Z</time></trkpt><trkpt lat="42.290525" lon="14.1275979"><ele>242.0</ele><time>2026-05-01T14:32:13.268Z</time></trkpt><trkpt lat="42.2905414" lon="14.1274924"><ele>238.5</ele><time>2026-05-01T14:32:14.268Z</time></trkpt><trkpt lat="42.2905607" lon="14.1273826"><ele>235.0</ele><time>2026-05-01T14:32:15.273Z</time></trkpt><trkpt lat="42.2905787" lon="14.127268"><ele>231.5</ele><time>2026-05-01T14:32:16.269Z</time></trkpt><trkpt lat="42.290598" lon="14.1271586"><ele>228.0</ele><time>2026-05-01T14:32:17.274Z</time></trkpt><trkpt lat="42.2906141" lon="14.1270488"><ele>227.33333333333334</ele><time>2026-05-01T14:32:18.265Z</time></trkpt><trkpt lat="42.290626" lon="14.126937"><ele>226.66666666666669</ele><time>2026-05-01T14:32:19.281Z</time></trkpt><trkpt lat="42.2906342" lon="14.126829"><ele>226.0</ele><time>2026-05-01T14:32:20.264Z</time></trkpt><trkpt lat="42.2906331" lon="14.1267255"><ele>225.33333333333334</ele><time>2026-05-01T14:32:21.277Z</time></trkpt><trkpt lat="42.2906278" lon="14.1266222"><ele>224.66666666666669</ele><time>2026-05-01T14:32:22.279Z</time></trkpt><trkpt lat="42.2906172" lon="14.1265202"><ele>224.0</ele><time>2026-05-01T14:32:23.274Z</time></trkpt><trkpt lat="42.2906016" lon="14.1264214"><ele>220.33333333333334</ele><time>2026-05-01T14:32:24.279Z</time></trkpt><trkpt lat="42.2905858" lon="14.1263234"><ele>216.66666666666669</ele><time>2026-05-01T14:32:25.275Z</time></trkpt><trkpt lat="42.2905677" lon="14.1262254"><ele>213.0</ele><time>2026-05-01T14:32:26.275Z</time></trkpt><trkpt lat="42.2905536" lon="14.126129"><ele>209.33333333333331</ele><time>2026-05-01T14:32:27.273Z</time></trkpt><trkpt lat="42.2905449" lon="14.1260388"><ele>205.66666666666666</ele><time>2026-05-01T14:32:28.269Z</time></trkpt><trkpt lat="42.29054" lon="14.1258898"><ele>202.0</ele><time>2026-05-01T14:32:30.272Z</time></trkpt><trkpt lat="42.2905353" lon="14.1257671"><ele>201.49999999999997</ele><time>2026-05-01T14:32:32.276Z</time></trkpt><trkpt lat="42.2905205" lon="14.1256539"><ele>201.0</ele><time>2026-05-01T14:32:34.277Z</time></trkpt><trkpt lat="42.2905071" lon="14.1255622"><ele>200.5</ele><time>2026-05-01T14:32:36.271Z</time></trkpt><trkpt lat="42.2904946" lon="14.125467"><ele>200.0</ele><time>2026-05-01T14:32:38.269Z</time></trkpt><trkpt lat="42.2904874" lon="14.1253561"><ele>199.49999999999997</ele><time>2026-05-01T14:32:41.277Z</time></trkpt><trkpt lat="42.2904916" lon="14.1252383"><ele>199.0</ele><time>2026-05-01T14:32:44.279Z</time></trkpt><trkpt lat="42.2904943" lon="14.1251353"><ele>198.99999999999997</ele><time>2026-05-01T14:32:47.281Z</time></trkpt><trkpt lat="42.2905003" lon="14.1250152"><ele>199.0</ele><time>2026-05-01T14:32:50.282Z</time></trkpt><trkpt lat="42.2905236" lon="14.1249205"><ele>199.0</ele><time>2026-05-01T14:32:53.277Z</time></trkpt><trkpt lat="42.2905693" lon="14.1248337"><ele>199.0</ele><time>2026-05-01T14:32:56.265Z</time></trkpt><trkpt lat="42.2906185" lon="14.1247314"><ele>198.99999999999997</ele><time>2026-05-01T14:32:59.285Z</time></trkpt><trkpt lat="42.2906538" lon="14.1246541"><ele>199.0</ele><time>2026-05-01T14:33:01.289Z</time></trkpt><trkpt lat="42.2907018" lon="14.1245527"><ele>198.16666666666666</ele><time>2026-05-01T14:33:04.256Z</time></trkpt><trkpt lat="42.2907345" lon="14.1244786"><ele>197.33333333333331</ele><time>2026-05-01T14:33:06.29Z</time></trkpt><trkpt lat="42.290784" lon="14.1243756"><ele>196.5</ele><time>2026-05-01T14:33:09.269Z</time></trkpt><trkpt lat="42.2908295" lon="14.1242662"><ele>195.66666666666669</ele><time>2026-05-01T14:33:12.269Z</time></trkpt><trkpt lat="42.2908678" lon="14.1241605"><ele>194.83333333333334</ele><time>2026-05-01T14:33:15.268Z</time></trkpt><trkpt lat="42.2908988" lon="14.1240644"><ele>194.0</ele><time>2026-05-01T14:33:18.271Z</time></trkpt><trkpt lat="42.2909212" lon="14.1239616"><ele>191.00000000000003</ele><time>2026-05-01T14:33:21.279Z</time></trkpt><trkpt lat="42.2909439" lon="14.12384"><ele>188.0</ele><time>2026-05-01T14:33:24.26Z</time></trkpt><trkpt lat="42.2909642" lon="14.1237511"><ele>185.0</ele><time>2026-05-01T14:33:26.271Z</time></trkpt><trkpt lat="42.2909732" lon="14.1236582"><ele>182.0</ele><time>2026-05-01T14:33:28.27Z</time></trkpt><trkpt lat="42.2909671" lon="14.123555"><ele>179.0</ele><time>2026-05-01T14:33:30.273Z</time></trkpt><trkpt lat="42.2909407" lon="14.1234434"><ele>176.0</ele><time>2026-05-01T14:33:32.27Z</time></trkpt><trkpt lat="42.2909078" lon="14.1233482"><ele>176.0</ele><time>2026-05-01T14:33:34.28Z</time></trkpt><trkpt lat="42.2908747" lon="14.1232488"><ele>176.0</ele><time>2026-05-01T14:33:36.266Z</time></trkpt><trkpt lat="42.2908462" lon="14.1231615"><ele>176.0</ele><time>2026-05-01T14:33:38.286Z</time></trkpt><trkpt lat="42.2908158" lon="14.1230522"><ele>176.0</ele><time>2026-05-01T14:33:41.269Z</time></trkpt><trkpt lat="42.2907922" lon="14.1229724"><ele>176.0</ele><time>2026-05-01T14:33:43.275Z</time></trkpt><trkpt lat="42.2907659" lon="14.122893"><ele>176.0</ele><time>2026-05-01T14:33:45.275Z</time></trkpt><trkpt lat="42.2907375" lon="14.1228147"><ele>176.0</ele><time>2026-05-01T14:33:49.273Z</time></trkpt><trkpt lat="42.2907022" lon="14.1227406"><ele>173.0</ele><time>2026-05-01T14:33:57.275Z</time></trkpt><trkpt lat="42.290684" lon="14.1226283"><ele>170.0</ele><time>2026-05-01T14:34:01.272Z</time></trkpt><trkpt lat="42.2907071" lon="14.122517"><ele>167.0</ele><time>2026-05-01T14:34:03.275Z</time></trkpt><trkpt lat="42.2907805" lon="14.1224086"><ele>164.0</ele><time>2026-05-01T14:34:05.29Z</time></trkpt><trkpt lat="42.2908863" lon="14.1223185"><ele>161.0</ele><time>2026-05-01T14:34:07.295Z</time></trkpt><trkpt lat="42.2909827" lon="14.1222389"><ele>161.0</ele><time>2026-05-01T14:34:09.277Z</time></trkpt><trkpt lat="42.2910222" lon="14.1221556"><ele>161.0</ele><time>2026-05-01T14:34:11.282Z</time></trkpt><trkpt lat="42.2910085" lon="14.1220423"><ele>161.0</ele><time>2026-05-01T14:34:13.285Z</time></trkpt><trkpt lat="42.2909891" lon="14.1219611"><ele>161.0</ele><time>2026-05-01T14:34:14.284Z</time></trkpt><trkpt lat="42.2910189" lon="14.1218226"><ele>161.0</ele><time>2026-05-01T14:34:16.277Z</time></trkpt><trkpt lat="42.2910822" lon="14.1216948"><ele>161.0</ele><time>2026-05-01T14:34:18.272Z</time></trkpt><trkpt lat="42.291118" lon="14.1216246"><ele>162.66666666666666</ele><time>2026-05-01T14:34:19.274Z</time></trkpt><trkpt lat="42.2911559" lon="14.1215471"><ele>164.33333333333331</ele><time>2026-05-01T14:34:20.315Z</time></trkpt><trkpt lat="42.2912007" lon="14.1214673"><ele>166.0</ele><time>2026-05-01T14:34:21.275Z</time></trkpt><trkpt lat="42.2912461" lon="14.1213769"><ele>167.66666666666666</ele><time>2026-05-01T14:34:22.266Z</time></trkpt><trkpt lat="42.2912932" lon="14.1212753"><ele>169.33333333333334</ele><time>2026-05-01T14:34:23.279Z</time></trkpt><trkpt lat="42.2913372" lon="14.1211771"><ele>171.0</ele><time>2026-05-01T14:34:24.276Z</time></trkpt><trkpt lat="42.2913777" lon="14.1210825"><ele>171.0</ele><time>2026-05-01T14:34:25.275Z</time></trkpt><trkpt lat="42.2914138" lon="14.1209967"><ele>171.0</ele><time>2026-05-01T14:34:26.289Z</time></trkpt><trkpt lat="42.2914546" lon="14.1209049"><ele>171.0</ele><time>2026-05-01T14:34:27.266Z</time></trkpt><trkpt lat="42.2914943" lon="14.1208141"><ele>171.0</ele><time>2026-05-01T14:34:28.264Z</time></trkpt><trkpt lat="42.2915423" lon="14.1207197"><ele>171.0</ele><time>2026-05-01T14:34:29.272Z</time></trkpt><trkpt lat="42.2915887" lon="14.1206193"><ele>171.0</ele><time>2026-05-01T14:34:30.274Z</time></trkpt><trkpt lat="42.2916324" lon="14.1205292"><ele>175.33333333333334</ele><time>2026-05-01T14:34:31.273Z</time></trkpt><trkpt lat="42.2916734" lon="14.1204474"><ele>179.66666666666669</ele><time>2026-05-01T14:34:32.281Z</time></trkpt><trkpt lat="42.2917133" lon="14.1203647"><ele>184.0</ele><time>2026-05-01T14:34:33.283Z</time></trkpt><trkpt lat="42.2917516" lon="14.1202863"><ele>188.33333333333334</ele><time>2026-05-01T14:34:34.263Z</time></trkpt><trkpt lat="42.2917886" lon="14.1202143"><ele>192.66666666666669</ele><time>2026-05-01T14:34:35.275Z</time></trkpt><trkpt lat="42.2918175" lon="14.1200676"><ele>197.0</ele><time>2026-05-01T14:34:37.285Z</time></trkpt><trkpt lat="42.2918101" lon="14.1199804"><ele>200.00000000000003</ele><time>2026-05-01T14:34:38.266Z</time></trkpt><trkpt lat="42.2918027" lon="14.1198923"><ele>203.0</ele><time>2026-05-01T14:34:39.277Z</time></trkpt><trkpt lat="42.2917887" lon="14.119727"><ele>206.0</ele><time>2026-05-01T14:34:41.276Z</time></trkpt><trkpt lat="42.2917723" lon="14.1196302"><ele>209.0</ele><time>2026-05-01T14:34:42.271Z</time></trkpt><trkpt lat="42.2917444" lon="14.1195487"><ele>212.00000000000003</ele><time>2026-05-01T14:34:43.272Z</time></trkpt><trkpt lat="42.29172" lon="14.1194474"><ele>215.0</ele><time>2026-05-01T14:34:45.281Z</time></trkpt><trkpt lat="42.2918054" lon="14.1194633"><ele>215.0</ele><time>2026-05-01T14:34:48.269Z</time></trkpt><trkpt lat="42.291906" lon="14.1195234"><ele>215.0</ele><time>2026-05-01T14:34:50.272Z</time></trkpt><trkpt lat="42.2920112" lon="14.1195177"><ele>215.0</ele><time>2026-05-01T14:34:52.274Z</time></trkpt><trkpt lat="42.292112" lon="14.1194744"><ele>215.0</ele><time>2026-05-01T14:34:54.277Z</time></trkpt><trkpt lat="42.2922175" lon="14.1194192"><ele>215.0</ele><time>2026-05-01T14:34:56.264Z</time></trkpt><trkpt lat="42.2923301" lon="14.1193456"><ele>218.0</ele><time>2026-05-01T14:34:58.281Z</time></trkpt><trkpt lat="42.2924377" lon="14.1192658"><ele>221.0</ele><time>2026-05-01T14:35:00.268Z</time></trkpt><trkpt lat="42.2925402" lon="14.1191915"><ele>224.0</ele><time>2026-05-01T14:35:02.264Z</time></trkpt><trkpt lat="42.2926352" lon="14.1190854"><ele>227.0</ele><time>2026-05-01T14:35:04.277Z</time></trkpt><trkpt lat="42.292684" lon="14.1190228"><ele>230.0</ele><time>2026-05-01T14:35:05.285Z</time></trkpt><trkpt lat="42.2927344" lon="14.1189598"><ele>232.83333333333334</ele><time>2026-05-01T14:35:06.272Z</time></trkpt><trkpt lat="42.2927908" lon="14.1188928"><ele>235.66666666666669</ele><time>2026-05-01T14:35:07.272Z</time></trkpt><trkpt lat="42.2928477" lon="14.1188304"><ele>238.5</ele><time>2026-05-01T14:35:08.275Z</time></trkpt><trkpt lat="42.2929119" lon="14.1187721"><ele>241.33333333333331</ele><time>2026-05-01T14:35:09.28Z</time></trkpt><trkpt lat="42.2929754" lon="14.1187194"><ele>244.16666666666666</ele><time>2026-05-01T14:35:10.286Z</time></trkpt><trkpt lat="42.2930354" lon="14.118668"><ele>247.0</ele><time>2026-05-01T14:35:11.28Z</time></trkpt><trkpt lat="42.2930574" lon="14.1185614"><ele>247.0</ele><time>2026-05-01T14:35:13.276Z</time></trkpt><trkpt lat="42.2930138" lon="14.1184116"><ele>247.0</ele><time>2026-05-01T14:35:15.279Z</time></trkpt><trkpt lat="42.292986" lon="14.118262"><ele>247.0</ele><time>2026-05-01T14:35:17.272Z</time></trkpt><trkpt lat="42.2929858" lon="14.118159"><ele>247.0</ele><time>2026-05-01T14:35:21.273Z</time></trkpt><trkpt lat="42.2930406" lon="14.1181084"><ele>247.0</ele><time>2026-05-01T14:35:31.275Z</time></trkpt><trkpt lat="42.2930968" lon="14.1181755"><ele>245.6</ele><time>2026-05-01T14:35:53.279Z</time></trkpt><trkpt lat="42.2931642" lon="14.1181889"><ele>244.2</ele><time>2026-05-01T14:35:56.265Z</time></trkpt><trkpt lat="42.2932651" lon="14.1181719"><ele>242.8</ele><time>2026-05-01T14:35:58.287Z</time></trkpt><trkpt lat="42.2933743" lon="14.1181126"><ele>241.4</ele><time>2026-05-01T14:36:00.256Z</time></trkpt><trkpt lat="42.293474" lon="14.1180604"><ele>240.0</ele><time>2026-05-01T14:36:02.26Z</time></trkpt><trkpt lat="42.293573" lon="14.1180053"><ele>240.0</ele><time>2026-05-01T14:36:04.268Z</time></trkpt><trkpt lat="42.2936833" lon="14.1179334"><ele>240.0</ele><time>2026-05-01T14:36:06.281Z</time></trkpt><trkpt lat="42.2936139" lon="14.1179294"><ele>240.0</ele><time>2026-05-01T14:36:15.276Z</time></trkpt><trkpt lat="42.2935585" lon="14.1179721"><ele>240.0</ele><time>2026-05-01T14:36:17.279Z</time></trkpt><trkpt lat="42.29348" lon="14.1180204"><ele>240.0</ele><time>2026-05-01T14:36:20.269Z</time></trkpt><trkpt lat="42.2933903" lon="14.1180698"><ele>240.0</ele><time>2026-05-01T14:36:23.268Z</time></trkpt><trkpt lat="42.2933231" lon="14.118104"><ele>240.0</ele><time>2026-05-01T14:36:25.269Z</time></trkpt><trkpt lat="42.293217" lon="14.1181536"><ele>240.0</ele><time>2026-05-01T14:36:28.258Z</time></trkpt><trkpt lat="42.2931277" lon="14.1181665"><ele>240.0</ele><time>2026-05-01T14:36:31.275Z</time></trkpt><trkpt lat="42.2930481" lon="14.1181484"><ele>240.0</ele><time>2026-05-01T14:36:34.275Z</time></trkpt><trkpt lat="42.2929796" lon="14.1181164"><ele>240.0</ele><time>2026-05-01T14:36:37.297Z</time></trkpt><trkpt lat="42.2929101" lon="14.1181016"><ele>240.0</ele><time>2026-05-01T14:36:41.265Z</time></trkpt><trkpt lat="42.2928108" lon="14.118074"><ele>240.28571428571428</ele><time>2026-05-01T14:37:45.258Z</time></trkpt><trkpt lat="42.292747" lon="14.1180527"><ele>240.57142857142856</ele><time>2026-05-01T14:37:46.247Z</time></trkpt><trkpt lat="42.2926759" lon="14.1180278"><ele>240.85714285714283</ele><time>2026-05-01T14:37:47.257Z</time></trkpt><trkpt lat="42.2925989" lon="14.1180007"><ele>241.14285714285714</ele><time>2026-05-01T14:37:48.242Z</time></trkpt><trkpt lat="42.29253" lon="14.1179729"><ele>241.4285714285714</ele><time>2026-05-01T14:37:49.266Z</time></trkpt><trkpt lat="42.29247" lon="14.1179342"><ele>241.7142857142857</ele><time>2026-05-01T14:37:50.255Z</time></trkpt><trkpt lat="42.2924164" lon="14.1178707"><ele>242.0</ele><time>2026-05-01T14:37:51.249Z</time></trkpt><trkpt lat="42.2923779" lon="14.1177953"><ele>242.00000000000003</ele><time>2026-05-01T14:37:52.259Z</time></trkpt><trkpt lat="42.2923635" lon="14.1177103"><ele>242.0</ele><time>2026-05-01T14:37:53.263Z</time></trkpt><trkpt lat="42.2924255" lon="14.1175707"><ele>242.0</ele><time>2026-05-01T14:37:55.257Z</time></trkpt><trkpt lat="42.2924887" lon="14.1175417"><ele>242.0</ele><time>2026-05-01T14:37:56.27Z</time></trkpt><trkpt lat="42.2925533" lon="14.1175492"><ele>242.00000000000003</ele><time>2026-05-01T14:37:57.258Z</time></trkpt><trkpt lat="42.2926323" lon="14.1175807"><ele>242.0</ele><time>2026-05-01T14:37:58.277Z</time></trkpt><trkpt lat="42.292721" lon="14.1176424"><ele>242.00000000000003</ele><time>2026-05-01T14:37:59.267Z</time></trkpt><trkpt lat="42.292815" lon="14.1177163"><ele>242.0</ele><time>2026-05-01T14:38:00.258Z</time></trkpt><trkpt lat="42.2929055" lon="14.1177846"><ele>242.0</ele><time>2026-05-01T14:38:01.248Z</time></trkpt><trkpt lat="42.2929936" lon="14.1178212"><ele>242.0</ele><time>2026-05-01T14:38:02.251Z</time></trkpt><trkpt lat="42.2930703" lon="14.1178184"><ele>242.00000000000003</ele><time>2026-05-01T14:38:03.265Z</time></trkpt><trkpt lat="42.2931261" lon="14.1177729"><ele>242.0</ele><time>2026-05-01T14:38:04.278Z</time></trkpt><trkpt lat="42.2931568" lon="14.1176912"><ele>242.00000000000003</ele><time>2026-05-01T14:38:05.249Z</time></trkpt><trkpt lat="42.2931442" lon="14.1176078"><ele>242.0</ele><time>2026-05-01T14:38:06.238Z</time></trkpt><trkpt lat="42.2930871" lon="14.1175313"><ele>242.0</ele><time>2026-05-01T14:38:07.267Z</time></trkpt><trkpt lat="42.293016" lon="14.1174653"><ele>242.0</ele><time>2026-05-01T14:38:08.239Z</time></trkpt><trkpt lat="42.2929387" lon="14.1173894"><ele>242.00000000000003</ele><time>2026-05-01T14:38:09.268Z</time></trkpt><trkpt lat="42.2928611" lon="14.1173066"><ele>242.0</ele><time>2026-05-01T14:38:10.246Z</time></trkpt><trkpt lat="42.2927817" lon="14.1172057"><ele>238.75</ele><time>2026-05-01T14:38:11.243Z</time></trkpt><trkpt lat="42.2926986" lon="14.1170834"><ele>235.5</ele><time>2026-05-01T14:38:12.259Z</time></trkpt><trkpt lat="42.2926295" lon="14.1169441"><ele>232.25</ele><time>2026-05-01T14:38:13.253Z</time></trkpt><trkpt lat="42.2925615" lon="14.1167965"><ele>229.0</ele><time>2026-05-01T14:38:14.281Z</time></trkpt><trkpt lat="42.2924894" lon="14.1166525"><ele>225.5</ele><time>2026-05-01T14:38:15.278Z</time></trkpt><trkpt lat="42.2924063" lon="14.1165132"><ele>222.0</ele><time>2026-05-01T14:38:16.246Z</time></trkpt><trkpt lat="42.2923134" lon="14.1163774"><ele>218.5</ele><time>2026-05-01T14:38:17.253Z</time></trkpt><trkpt lat="42.2922204" lon="14.1162459"><ele>215.0</ele><time>2026-05-01T14:38:18.272Z</time></trkpt><trkpt lat="42.2921147" lon="14.1161148"><ele>215.0</ele><time>2026-05-01T14:38:19.285Z</time></trkpt><trkpt lat="42.2920072" lon="14.1159836"><ele>215.0</ele><time>2026-05-01T14:38:20.268Z</time></trkpt><trkpt lat="42.2919015" lon="14.1158495"><ele>215.0</ele><time>2026-05-01T14:38:21.298Z</time></trkpt><trkpt lat="42.291796" lon="14.115704"><ele>215.0</ele><time>2026-05-01T14:38:22.272Z</time></trkpt><trkpt lat="42.2916952" lon="14.1155569"><ele>214.25</ele><time>2026-05-01T14:38:23.261Z</time></trkpt><trkpt lat="42.2915995" lon="14.1154053"><ele>213.5</ele><time>2026-05-01T14:38:24.315Z</time></trkpt><trkpt lat="42.2915083" lon="14.1152558"><ele>212.75</ele><time>2026-05-01T14:38:25.257Z</time></trkpt><trkpt lat="42.2914195" lon="14.1151065"><ele>212.0</ele><time>2026-05-01T14:38:26.264Z</time></trkpt><trkpt lat="42.2913415" lon="14.1149588"><ele>213.5</ele><time>2026-05-01T14:38:27.255Z</time></trkpt><trkpt lat="42.2912652" lon="14.1147981"><ele>215.0</ele><time>2026-05-01T14:38:28.261Z</time></trkpt><trkpt lat="42.2911913" lon="14.1146296"><ele>216.5</ele><time>2026-05-01T14:38:29.27Z</time></trkpt><trkpt lat="42.2911192" lon="14.1144562"><ele>218.0</ele><time>2026-05-01T14:38:30.265Z</time></trkpt><trkpt lat="42.2910487" lon="14.1142827"><ele>218.0</ele><time>2026-05-01T14:38:31.261Z</time></trkpt><trkpt lat="42.2909712" lon="14.1141139"><ele>218.0</ele><time>2026-05-01T14:38:32.278Z</time></trkpt><trkpt lat="42.2908891" lon="14.1139454"><ele>218.0</ele><time>2026-05-01T14:38:33.263Z</time></trkpt><trkpt lat="42.2908047" lon="14.1137741"><ele>218.0</ele><time>2026-05-01T14:38:34.262Z</time></trkpt><trkpt lat="42.2907224" lon="14.1136017"><ele>219.0</ele><time>2026-05-01T14:38:35.266Z</time></trkpt><trkpt lat="42.2906447" lon="14.1134249"><ele>220.0</ele><time>2026-05-01T14:38:36.253Z</time></trkpt><trkpt lat="42.2905725" lon="14.1132461"><ele>221.0</ele><time>2026-05-01T14:38:37.255Z</time></trkpt><trkpt lat="42.2905122" lon="14.1130621"><ele>220.5</ele><time>2026-05-01T14:38:38.263Z</time></trkpt><trkpt lat="42.2904581" lon="14.1128783"><ele>220.0</ele><time>2026-05-01T14:38:39.248Z</time></trkpt><trkpt lat="42.2904056" lon="14.1126839"><ele>219.5</ele><time>2026-05-01T14:38:40.277Z</time></trkpt><trkpt lat="42.2903579" lon="14.1124934"><ele>219.0</ele><time>2026-05-01T14:38:41.26Z</time></trkpt><trkpt lat="42.2902796" lon="14.1121207"><ele>219.0</ele><time>2026-05-01T14:38:43.253Z</time></trkpt><trkpt lat="42.2902461" lon="14.1119419"><ele>219.0</ele><time>2026-05-01T14:38:44.249Z</time></trkpt><trkpt lat="42.2902106" lon="14.1117648"><ele>219.0</ele><time>2026-05-01T14:38:45.261Z</time></trkpt><trkpt lat="42.2901781" lon="14.1115887"><ele>219.0</ele><time>2026-05-01T14:38:46.245Z</time></trkpt><trkpt lat="42.290152" lon="14.1114171"><ele>217.25</ele><time>2026-05-01T14:38:47.257Z</time></trkpt><trkpt lat="42.2901374" lon="14.1112495"><ele>215.5</ele><time>2026-05-01T14:38:48.256Z</time></trkpt><trkpt lat="42.2901431" lon="14.1110767"><ele>213.75</ele><time>2026-05-01T14:38:49.265Z</time></trkpt><trkpt lat="42.2901723" lon="14.1109075"><ele>212.0</ele><time>2026-05-01T14:38:50.269Z</time></trkpt><trkpt lat="42.2902186" lon="14.1107421"><ele>209.25</ele><time>2026-05-01T14:38:51.257Z</time></trkpt><trkpt lat="42.2902792" lon="14.1105868"><ele>206.5</ele><time>2026-05-01T14:38:52.265Z</time></trkpt><trkpt lat="42.2903427" lon="14.1104503"><ele>203.75</ele><time>2026-05-01T14:38:53.286Z</time></trkpt><trkpt lat="42.2904163" lon="14.1103407"><ele>201.0</ele><time>2026-05-01T14:38:54.273Z</time></trkpt><trkpt lat="42.2905114" lon="14.1102534"><ele>202.5</ele><time>2026-05-01T14:38:55.271Z</time></trkpt><trkpt lat="42.2906207" lon="14.1101691"><ele>204.0</ele><time>2026-05-01T14:38:56.25Z</time></trkpt><trkpt lat="42.2907401" lon="14.110076"><ele>205.5</ele><time>2026-05-01T14:38:57.256Z</time></trkpt><trkpt lat="42.2908569" lon="14.1099631"><ele>207.0</ele><time>2026-05-01T14:38:58.252Z</time></trkpt><trkpt lat="42.290976" lon="14.1098431"><ele>207.0</ele><time>2026-05-01T14:38:59.27Z</time></trkpt><trkpt lat="42.2910882" lon="14.1097147"><ele>207.0</ele><time>2026-05-01T14:39:00.27Z</time></trkpt><trkpt lat="42.2911946" lon="14.1095855"><ele>207.0</ele><time>2026-05-01T14:39:01.274Z</time></trkpt><trkpt lat="42.2912964" lon="14.1094596"><ele>207.0</ele><time>2026-05-01T14:39:02.271Z</time></trkpt><trkpt lat="42.2914014" lon="14.1093546"><ele>211.25</ele><time>2026-05-01T14:39:03.294Z</time></trkpt><trkpt lat="42.2915163" lon="14.1092545"><ele>215.5</ele><time>2026-05-01T14:39:04.27Z</time></trkpt><trkpt lat="42.2916391" lon="14.1091807"><ele>219.75</ele><time>2026-05-01T14:39:05.264Z</time></trkpt><trkpt lat="42.2917554" lon="14.1091081"><ele>224.0</ele><time>2026-05-01T14:39:06.278Z</time></trkpt><trkpt lat="42.2918696" lon="14.1090342"><ele>223.5</ele><time>2026-05-01T14:39:07.271Z</time></trkpt><trkpt lat="42.2919781" lon="14.1089564"><ele>223.0</ele><time>2026-05-01T14:39:08.281Z</time></trkpt><trkpt lat="42.2920801" lon="14.1088671"><ele>222.5</ele><time>2026-05-01T14:39:09.262Z</time></trkpt><trkpt lat="42.2921774" lon="14.1087628"><ele>222.0</ele><time>2026-05-01T14:39:10.269Z</time></trkpt><trkpt lat="42.2922671" lon="14.1086537"><ele>222.0</ele><time>2026-05-01T14:39:11.275Z</time></trkpt><trkpt lat="42.2923489" lon="14.108526"><ele>222.0</ele><time>2026-05-01T14:39:12.27Z</time></trkpt><trkpt lat="42.2924203" lon="14.1083794"><ele>222.0</ele><time>2026-05-01T14:39:13.281Z</time></trkpt><trkpt lat="42.2924837" lon="14.1082201"><ele>222.0</ele><time>2026-05-01T14:39:14.263Z</time></trkpt><trkpt lat="42.2925494" lon="14.1080585"><ele>223.25</ele><time>2026-05-01T14:39:15.277Z</time></trkpt><trkpt lat="42.292618" lon="14.1078951"><ele>224.5</ele><time>2026-05-01T14:39:16.267Z</time></trkpt><trkpt lat="42.2926848" lon="14.1077291"><ele>225.75</ele><time>2026-05-01T14:39:17.266Z</time></trkpt><trkpt lat="42.2927482" lon="14.1075608"><ele>227.0</ele><time>2026-05-01T14:39:18.272Z</time></trkpt><trkpt lat="42.2928134" lon="14.1073859"><ele>228.0</ele><time>2026-05-01T14:39:19.27Z</time></trkpt><trkpt lat="42.2928793" lon="14.1072069"><ele>229.0</ele><time>2026-05-01T14:39:20.272Z</time></trkpt><trkpt lat="42.2929448" lon="14.1070258"><ele>230.0</ele><time>2026-05-01T14:39:21.264Z</time></trkpt><trkpt lat="42.2930159" lon="14.1068424"><ele>230.0</ele><time>2026-05-01T14:39:22.272Z</time></trkpt><trkpt lat="42.2930838" lon="14.1066635"><ele>230.0</ele><time>2026-05-01T14:39:23.267Z</time></trkpt><trkpt lat="42.2931541" lon="14.1064813"><ele>230.0</ele><time>2026-05-01T14:39:24.273Z</time></trkpt><trkpt lat="42.2932291" lon="14.1063014"><ele>225.66666666666669</ele><time>2026-05-01T14:39:25.296Z</time></trkpt><trkpt lat="42.2933129" lon="14.1061272"><ele>221.33333333333331</ele><time>2026-05-01T14:39:26.267Z</time></trkpt><trkpt lat="42.2934067" lon="14.1059589"><ele>217.0</ele><time>2026-05-01T14:39:27.265Z</time></trkpt><trkpt lat="42.2935097" lon="14.1058045"><ele>218.0</ele><time>2026-05-01T14:39:28.266Z</time></trkpt><trkpt lat="42.2936179" lon="14.1056605"><ele>219.0</ele><time>2026-05-01T14:39:29.269Z</time></trkpt><trkpt lat="42.2937252" lon="14.1055123"><ele>220.0</ele><time>2026-05-01T14:39:30.279Z</time></trkpt><trkpt lat="42.2938266" lon="14.1053599"><ele>220.0</ele><time>2026-05-01T14:39:31.268Z</time></trkpt><trkpt lat="42.2939158" lon="14.105199"><ele>220.0</ele><time>2026-05-01T14:39:32.268Z</time></trkpt><trkpt lat="42.2940034" lon="14.1050331"><ele>220.0</ele><time>2026-05-01T14:39:33.274Z</time></trkpt><trkpt lat="42.2940873" lon="14.1048612"><ele>216.33333333333331</ele><time>2026-05-01T14:39:34.277Z</time></trkpt><trkpt lat="42.2941722" lon="14.1046933"><ele>212.66666666666669</ele><time>2026-05-01T14:39:35.27Z</time></trkpt><trkpt lat="42.2942567" lon="14.1045237"><ele>209.0</ele><time>2026-05-01T14:39:36.281Z</time></trkpt><trkpt lat="42.2943411" lon="14.1043513"><ele>209.0</ele><time>2026-05-01T14:39:37.276Z</time></trkpt><trkpt lat="42.2944294" lon="14.1041799"><ele>209.0</ele><time>2026-05-01T14:39:38.28Z</time></trkpt><trkpt lat="42.2945158" lon="14.1040049"><ele>209.0</ele><time>2026-05-01T14:39:39.273Z</time></trkpt><trkpt lat="42.2946023" lon="14.1038291"><ele>209.0</ele><time>2026-05-01T14:39:40.264Z</time></trkpt><trkpt lat="42.2946879" lon="14.1036569"><ele>209.0</ele><time>2026-05-01T14:39:41.272Z</time></trkpt><trkpt lat="42.2947693" lon="14.1034862"><ele>209.0</ele><time>2026-05-01T14:39:42.278Z</time></trkpt><trkpt lat="42.2948472" lon="14.1033186"><ele>207.75</ele><time>2026-05-01T14:39:43.267Z</time></trkpt><trkpt lat="42.2949262" lon="14.1031468"><ele>206.5</ele><time>2026-05-01T14:39:44.262Z</time></trkpt><trkpt lat="42.2950065" lon="14.1029752"><ele>205.25</ele><time>2026-05-01T14:39:45.275Z</time></trkpt><trkpt lat="42.2950909" lon="14.1028118"><ele>204.0</ele><time>2026-05-01T14:39:46.265Z</time></trkpt><trkpt lat="42.2951791" lon="14.1026524"><ele>204.0</ele><time>2026-05-01T14:39:47.274Z</time></trkpt><trkpt lat="42.2952742" lon="14.1024917"><ele>204.0</ele><time>2026-05-01T14:39:48.275Z</time></trkpt><trkpt lat="42.2953697" lon="14.1023384"><ele>204.0</ele><time>2026-05-01T14:39:49.273Z</time></trkpt><trkpt lat="42.2954688" lon="14.1021951"><ele>204.0</ele><time>2026-05-01T14:39:50.292Z</time></trkpt><trkpt lat="42.2955745" lon="14.102062"><ele>204.25</ele><time>2026-05-01T14:39:51.278Z</time></trkpt><trkpt lat="42.2956801" lon="14.1019355"><ele>204.5</ele><time>2026-05-01T14:39:52.282Z</time></trkpt><trkpt lat="42.2957891" lon="14.1018109"><ele>204.75</ele><time>2026-05-01T14:39:53.288Z</time></trkpt><trkpt lat="42.2958966" lon="14.1016822"><ele>205.0</ele><time>2026-05-01T14:39:54.278Z</time></trkpt><trkpt lat="42.2959938" lon="14.1015495"><ele>205.0</ele><time>2026-05-01T14:39:55.267Z</time></trkpt><trkpt lat="42.2960862" lon="14.1014183"><ele>205.0</ele><time>2026-05-01T14:39:56.281Z</time></trkpt><trkpt lat="42.2961771" lon="14.1012948"><ele>205.0</ele><time>2026-05-01T14:39:57.263Z</time></trkpt><trkpt lat="42.2962639" lon="14.1011697"><ele>205.0</ele><time>2026-05-01T14:39:58.26Z</time></trkpt><trkpt lat="42.2963477" lon="14.1010533"><ele>203.75</ele><time>2026-05-01T14:39:59.284Z</time></trkpt><trkpt lat="42.2964325" lon="14.1009428"><ele>202.5</ele><time>2026-05-01T14:40:00.285Z</time></trkpt><trkpt lat="42.2965204" lon="14.1008334"><ele>201.25</ele><time>2026-05-01T14:40:01.264Z</time></trkpt><trkpt lat="42.296621" lon="14.1007286"><ele>200.0</ele><time>2026-05-01T14:40:02.257Z</time></trkpt><trkpt lat="42.2967265" lon="14.1006315"><ele>200.0</ele><time>2026-05-01T14:40:03.265Z</time></trkpt><trkpt lat="42.2968398" lon="14.1005352"><ele>200.0</ele><time>2026-05-01T14:40:04.267Z</time></trkpt><trkpt lat="42.2969495" lon="14.1004336"><ele>200.0</ele><time>2026-05-01T14:40:05.28Z</time></trkpt><trkpt lat="42.2970477" lon="14.1003243"><ele>200.0</ele><time>2026-05-01T14:40:06.273Z</time></trkpt><trkpt lat="42.2971355" lon="14.1002044"><ele>200.0</ele><time>2026-05-01T14:40:07.271Z</time></trkpt><trkpt lat="42.2972188" lon="14.1000857"><ele>200.0</ele><time>2026-05-01T14:40:08.281Z</time></trkpt><trkpt lat="42.2972986" lon="14.0999622"><ele>200.0</ele><time>2026-05-01T14:40:09.276Z</time></trkpt><trkpt lat="42.2973746" lon="14.0998346"><ele>200.0</ele><time>2026-05-01T14:40:10.259Z</time></trkpt><trkpt lat="42.297446" lon="14.0997025"><ele>196.0</ele><time>2026-05-01T14:40:11.281Z</time></trkpt><trkpt lat="42.2975095" lon="14.0995577"><ele>192.0</ele><time>2026-05-01T14:40:12.285Z</time></trkpt><trkpt lat="42.2975568" lon="14.0994064"><ele>188.0</ele><time>2026-05-01T14:40:13.276Z</time></trkpt><trkpt lat="42.2975908" lon="14.0992475"><ele>184.0</ele><time>2026-05-01T14:40:14.259Z</time></trkpt><trkpt lat="42.2976072" lon="14.0990886"><ele>182.75</ele><time>2026-05-01T14:40:15.274Z</time></trkpt><trkpt lat="42.2976137" lon="14.098925"><ele>181.5</ele><time>2026-05-01T14:40:16.272Z</time></trkpt><trkpt lat="42.2976119" lon="14.0987611"><ele>180.25</ele><time>2026-05-01T14:40:17.286Z</time></trkpt><trkpt lat="42.2976151" lon="14.0985948"><ele>179.0</ele><time>2026-05-01T14:40:18.27Z</time></trkpt><trkpt lat="42.2976189" lon="14.0984375"><ele>179.0</ele><time>2026-05-01T14:40:19.274Z</time></trkpt><trkpt lat="42.2976264" lon="14.0982811"><ele>179.0</ele><time>2026-05-01T14:40:20.282Z</time></trkpt><trkpt lat="42.2976403" lon="14.0981255"><ele>179.0</ele><time>2026-05-01T14:40:21.27Z</time></trkpt><trkpt lat="42.2976647" lon="14.0979681"><ele>179.0</ele><time>2026-05-01T14:40:22.253Z</time></trkpt><trkpt lat="42.2976973" lon="14.0978309"><ele>179.16666666666666</ele><time>2026-05-01T14:40:23.251Z</time></trkpt><trkpt lat="42.2977259" lon="14.097731"><ele>179.33333333333331</ele><time>2026-05-01T14:40:24.281Z</time></trkpt><trkpt lat="42.2977942" lon="14.09767"><ele>179.5</ele><time>2026-05-01T14:40:26.264Z</time></trkpt><trkpt lat="42.297788" lon="14.0978051"><ele>179.66666666666666</ele><time>2026-05-01T14:40:29.284Z</time></trkpt><trkpt lat="42.297789" lon="14.097892"><ele>179.83333333333334</ele><time>2026-05-01T14:40:30.277Z</time></trkpt><trkpt lat="42.2978127" lon="14.0979793"><ele>180.0</ele><time>2026-05-01T14:40:31.272Z</time></trkpt><trkpt lat="42.297868" lon="14.0980499"><ele>180.0</ele><time>2026-05-01T14:40:32.283Z</time></trkpt><trkpt lat="42.2979495" lon="14.098097"><ele>180.0</ele><time>2026-05-01T14:40:33.269Z</time></trkpt><trkpt lat="42.2980328" lon="14.0981347"><ele>180.0</ele><time>2026-05-01T14:40:34.269Z</time></trkpt><trkpt lat="42.2981065" lon="14.0981933"><ele>180.0</ele><time>2026-05-01T14:40:35.274Z</time></trkpt><trkpt lat="42.2981781" lon="14.0982652"><ele>180.0</ele><time>2026-05-01T14:40:36.281Z</time></trkpt><trkpt lat="42.2982385" lon="14.0983452"><ele>180.0</ele><time>2026-05-01T14:40:37.287Z</time></trkpt><trkpt lat="42.2983062" lon="14.0984213"><ele>176.0</ele><time>2026-05-01T14:40:38.29Z</time></trkpt><trkpt lat="42.2983945" lon="14.0984786"><ele>172.0</ele><time>2026-05-01T14:40:39.278Z</time></trkpt><trkpt lat="42.2984891" lon="14.0985319"><ele>168.0</ele><time>2026-05-01T14:40:40.263Z</time></trkpt><trkpt lat="42.2985838" lon="14.0985842"><ele>164.0</ele><time>2026-05-01T14:40:41.27Z</time></trkpt><trkpt lat="42.2986789" lon="14.09862"><ele>160.0</ele><time>2026-05-01T14:40:42.27Z</time></trkpt><trkpt lat="42.2987804" lon="14.0986454"><ele>160.0</ele><time>2026-05-01T14:40:43.264Z</time></trkpt><trkpt lat="42.2988863" lon="14.0986701"><ele>160.0</ele><time>2026-05-01T14:40:44.289Z</time></trkpt><trkpt lat="42.2989948" lon="14.0986948"><ele>160.0</ele><time>2026-05-01T14:40:45.269Z</time></trkpt><trkpt lat="42.2991086" lon="14.0987226"><ele>160.0</ele><time>2026-05-01T14:40:46.265Z</time></trkpt><trkpt lat="42.2992226" lon="14.0987488"><ele>160.0</ele><time>2026-05-01T14:40:47.276Z</time></trkpt><trkpt lat="42.2993389" lon="14.098771"><ele>154.75</ele><time>2026-05-01T14:40:48.279Z</time></trkpt><trkpt lat="42.2994583" lon="14.0987782"><ele>149.5</ele><time>2026-05-01T14:40:49.257Z</time></trkpt><trkpt lat="42.2995742" lon="14.098771"><ele>144.25</ele><time>2026-05-01T14:40:50.286Z</time></trkpt><trkpt lat="42.299688" lon="14.098755"><ele>139.0</ele><time>2026-05-01T14:40:51.27Z</time></trkpt><trkpt lat="42.2998016" lon="14.0987339"><ele>135.75</ele><time>2026-05-01T14:40:52.287Z</time></trkpt><trkpt lat="42.2999142" lon="14.0987062"><ele>132.5</ele><time>2026-05-01T14:40:53.251Z</time></trkpt><trkpt lat="42.3000215" lon="14.098676"><ele>129.25</ele><time>2026-05-01T14:40:54.256Z</time></trkpt><trkpt lat="42.3001332" lon="14.0986324"><ele>126.0</ele><time>2026-05-01T14:40:55.288Z</time></trkpt><trkpt lat="42.3002431" lon="14.0985765"><ele>126.0</ele><time>2026-05-01T14:40:56.259Z</time></trkpt><trkpt lat="42.3003536" lon="14.0985076"><ele>126.0</ele><time>2026-05-01T14:40:57.262Z</time></trkpt><trkpt lat="42.3004615" lon="14.0984257"><ele>126.0</ele><time>2026-05-01T14:40:58.275Z</time></trkpt><trkpt lat="42.3005572" lon="14.0983305"><ele>126.0</ele><time>2026-05-01T14:40:59.271Z</time></trkpt><trkpt lat="42.3006391" lon="14.0982253"><ele>122.25</ele><time>2026-05-01T14:41:00.268Z</time></trkpt><trkpt lat="42.3007255" lon="14.0981263"><ele>118.5</ele><time>2026-05-01T14:41:01.259Z</time></trkpt><trkpt lat="42.3008145" lon="14.0980297"><ele>114.75</ele><time>2026-05-01T14:41:02.256Z</time></trkpt><trkpt lat="42.3009193" lon="14.0979543"><ele>111.0</ele><time>2026-05-01T14:41:03.259Z</time></trkpt><trkpt lat="42.3010331" lon="14.0979017"><ele>111.0</ele><time>2026-05-01T14:41:04.277Z</time></trkpt><trkpt lat="42.301148" lon="14.0978587"><ele>111.0</ele><time>2026-05-01T14:41:05.273Z</time></trkpt><trkpt lat="42.3012627" lon="14.0978298"><ele>111.0</ele><time>2026-05-01T14:41:06.285Z</time></trkpt><trkpt lat="42.301369" lon="14.0978197"><ele>111.0</ele><time>2026-05-01T14:41:07.279Z</time></trkpt><trkpt lat="42.3014608" lon="14.0978206"><ele>111.0</ele><time>2026-05-01T14:41:08.271Z</time></trkpt><trkpt lat="42.3015322" lon="14.0978315"><ele>110.16666666666667</ele><time>2026-05-01T14:41:09.278Z</time></trkpt><trkpt lat="42.3016317" lon="14.0978204"><ele>109.33333333333334</ele><time>2026-05-01T14:41:11.273Z</time></trkpt><trkpt lat="42.3016824" lon="14.0977039"><ele>108.5</ele><time>2026-05-01T14:41:13.267Z</time></trkpt><trkpt lat="42.3016845" lon="14.09761"><ele>107.66666666666667</ele><time>2026-05-01T14:41:14.278Z</time></trkpt><trkpt lat="42.3016882" lon="14.0975002"><ele>106.83333333333334</ele><time>2026-05-01T14:41:15.289Z</time></trkpt><trkpt lat="42.3017037" lon="14.0973794"><ele>106.0</ele><time>2026-05-01T14:41:16.277Z</time></trkpt><trkpt lat="42.3017263" lon="14.0972474"><ele>105.75</ele><time>2026-05-01T14:41:17.277Z</time></trkpt><trkpt lat="42.3017519" lon="14.0970917"><ele>105.5</ele><time>2026-05-01T14:41:18.271Z</time></trkpt><trkpt lat="42.3017747" lon="14.0969242"><ele>105.25</ele><time>2026-05-01T14:41:19.28Z</time></trkpt><trkpt lat="42.3018016" lon="14.096748"><ele>105.0</ele><time>2026-05-01T14:41:20.284Z</time></trkpt><trkpt lat="42.3018297" lon="14.0965656"><ele>105.75</ele><time>2026-05-01T14:41:21.277Z</time></trkpt><trkpt lat="42.3018597" lon="14.0963806"><ele>106.5</ele><time>2026-05-01T14:41:22.268Z</time></trkpt><trkpt lat="42.3018919" lon="14.0961929"><ele>107.25</ele><time>2026-05-01T14:41:23.276Z</time></trkpt><trkpt lat="42.3019167" lon="14.0960002"><ele>108.0</ele><time>2026-05-01T14:41:24.267Z</time></trkpt><trkpt lat="42.3019416" lon="14.0957944"><ele>107.5</ele><time>2026-05-01T14:41:25.282Z</time></trkpt><trkpt lat="42.3019678" lon="14.0955878"><ele>107.0</ele><time>2026-05-01T14:41:26.272Z</time></trkpt><trkpt lat="42.3019935" lon="14.095389"><ele>106.5</ele><time>2026-05-01T14:41:27.272Z</time></trkpt><trkpt lat="42.3020145" lon="14.0952015"><ele>106.0</ele><time>2026-05-01T14:41:28.274Z</time></trkpt><trkpt lat="42.302037" lon="14.0950226"><ele>105.8</ele><time>2026-05-01T14:41:29.276Z</time></trkpt><trkpt lat="42.3020597" lon="14.0948645"><ele>105.6</ele><time>2026-05-01T14:41:30.275Z</time></trkpt><trkpt lat="42.3020727" lon="14.0947349"><ele>105.4</ele><time>2026-05-01T14:41:31.269Z</time></trkpt><trkpt lat="42.30206" lon="14.0946174"><ele>105.2</ele><time>2026-05-01T14:41:32.265Z</time></trkpt><trkpt lat="42.3020233" lon="14.0944933"><ele>105.0</ele><time>2026-05-01T14:41:33.28Z</time></trkpt><trkpt lat="42.3019818" lon="14.0943695"><ele>105.0</ele><time>2026-05-01T14:41:34.272Z</time></trkpt><trkpt lat="42.3019571" lon="14.0942372"><ele>105.0</ele><time>2026-05-01T14:41:35.281Z</time></trkpt><trkpt lat="42.3019451" lon="14.0941111"><ele>105.0</ele><time>2026-05-01T14:41:36.268Z</time></trkpt><trkpt lat="42.3019174" lon="14.0940076"><ele>105.0</ele><time>2026-05-01T14:41:37.274Z</time></trkpt><trkpt lat="42.301869" lon="14.0939212"><ele>105.0</ele><time>2026-05-01T14:41:38.281Z</time></trkpt><trkpt lat="42.3018079" lon="14.0938293"><ele>105.0</ele><time>2026-05-01T14:41:39.275Z</time></trkpt><trkpt lat="42.3017472" lon="14.0937311"><ele>105.16666666666667</ele><time>2026-05-01T14:41:40.273Z</time></trkpt><trkpt lat="42.3016952" lon="14.0936404"><ele>105.33333333333334</ele><time>2026-05-01T14:41:41.275Z</time></trkpt><trkpt lat="42.3016579" lon="14.0935465"><ele>105.5</ele><time>2026-05-01T14:41:42.271Z</time></trkpt><trkpt lat="42.3016597" lon="14.0934534"><ele>105.66666666666667</ele><time>2026-05-01T14:41:43.261Z</time></trkpt><trkpt lat="42.3017052" lon="14.0933651"><ele>105.83333333333334</ele><time>2026-05-01T14:41:44.273Z</time></trkpt><trkpt lat="42.3017749" lon="14.0933011"><ele>106.0</ele><time>2026-05-01T14:41:45.283Z</time></trkpt><trkpt lat="42.3018603" lon="14.0932632"><ele>107.8</ele><time>2026-05-01T14:41:46.263Z</time></trkpt><trkpt lat="42.3019556" lon="14.0932258"><ele>109.6</ele><time>2026-05-01T14:41:47.281Z</time></trkpt><trkpt lat="42.3020542" lon="14.0931785"><ele>111.4</ele><time>2026-05-01T14:41:48.267Z</time></trkpt><trkpt lat="42.3021611" lon="14.0931254"><ele>113.2</ele><time>2026-05-01T14:41:49.269Z</time></trkpt><trkpt lat="42.3022708" lon="14.093067"><ele>115.0</ele><time>2026-05-01T14:41:50.273Z</time></trkpt><trkpt lat="42.3023807" lon="14.0930045"><ele>115.0</ele><time>2026-05-01T14:41:51.269Z</time></trkpt><trkpt lat="42.302493" lon="14.0929389"><ele>115.0</ele><time>2026-05-01T14:41:52.274Z</time></trkpt><trkpt lat="42.3026042" lon="14.0928796"><ele>115.0</ele><time>2026-05-01T14:41:53.277Z</time></trkpt><trkpt lat="42.3027032" lon="14.0928297"><ele>115.0</ele><time>2026-05-01T14:41:54.274Z</time></trkpt><trkpt lat="42.3027943" lon="14.0927796"><ele>115.0</ele><time>2026-05-01T14:41:55.276Z</time></trkpt><trkpt lat="42.3028822" lon="14.0927073"><ele>115.0</ele><time>2026-05-01T14:41:56.28Z</time></trkpt><trkpt lat="42.302964" lon="14.0926065"><ele>115.0</ele><time>2026-05-01T14:41:57.277Z</time></trkpt><trkpt lat="42.3030432" lon="14.0924882"><ele>115.0</ele><time>2026-05-01T14:41:58.275Z</time></trkpt><trkpt lat="42.3031246" lon="14.0923648"><ele>115.0</ele><time>2026-05-01T14:41:59.26Z</time></trkpt><trkpt lat="42.3032157" lon="14.0922363"><ele>114.0</ele><time>2026-05-01T14:42:00.275Z</time></trkpt><trkpt lat="42.3033104" lon="14.0921087"><ele>113.0</ele><time>2026-05-01T14:42:01.275Z</time></trkpt><trkpt lat="42.3034135" lon="14.0919835"><ele>112.0</ele><time>2026-05-01T14:42:02.279Z</time></trkpt><trkpt lat="42.3035253" lon="14.091877"><ele>111.0</ele><time>2026-05-01T14:42:03.272Z</time></trkpt><trkpt lat="42.3036445" lon="14.0917921"><ele>111.0</ele><time>2026-05-01T14:42:04.261Z</time></trkpt><trkpt lat="42.3037747" lon="14.091719"><ele>111.0</ele><time>2026-05-01T14:42:05.284Z</time></trkpt><trkpt lat="42.3039126" lon="14.0916493"><ele>111.0</ele><time>2026-05-01T14:42:06.277Z</time></trkpt><trkpt lat="42.3040551" lon="14.0915744"><ele>111.0</ele><time>2026-05-01T14:42:07.273Z</time></trkpt><trkpt lat="42.3041969" lon="14.0914995"><ele>111.25</ele><time>2026-05-01T14:42:08.275Z</time></trkpt><trkpt lat="42.3043312" lon="14.0914286"><ele>111.5</ele><time>2026-05-01T14:42:09.273Z</time></trkpt><trkpt lat="42.3044669" lon="14.0913546"><ele>111.75</ele><time>2026-05-01T14:42:10.278Z</time></trkpt><trkpt lat="42.304604" lon="14.0912744"><ele>112.0</ele><time>2026-05-01T14:42:11.286Z</time></trkpt><trkpt lat="42.3047349" lon="14.0911948"><ele>109.0</ele><time>2026-05-01T14:42:12.296Z</time></trkpt><trkpt lat="42.3048583" lon="14.0911175"><ele>106.0</ele><time>2026-05-01T14:42:13.266Z</time></trkpt><trkpt lat="42.3049855" lon="14.0910375"><ele>103.0</ele><time>2026-05-01T14:42:14.289Z</time></trkpt><trkpt lat="42.3051129" lon="14.090959"><ele>100.0</ele><time>2026-05-01T14:42:15.275Z</time></trkpt><trkpt lat="42.3052428" lon="14.0908766"><ele>100.0</ele><time>2026-05-01T14:42:16.272Z</time></trkpt><trkpt lat="42.3053729" lon="14.0907933"><ele>100.0</ele><time>2026-05-01T14:42:17.274Z</time></trkpt><trkpt lat="42.3055025" lon="14.0907104"><ele>100.0</ele><time>2026-05-01T14:42:18.277Z</time></trkpt><trkpt lat="42.3056332" lon="14.0906335"><ele>100.0</ele><time>2026-05-01T14:42:19.279Z</time></trkpt><trkpt lat="42.3057617" lon="14.0905496"><ele>99.0</ele><time>2026-05-01T14:42:20.266Z</time></trkpt><trkpt lat="42.3058966" lon="14.09046"><ele>98.0</ele><time>2026-05-01T14:42:21.273Z</time></trkpt><trkpt lat="42.3060228" lon="14.0903683"><ele>97.0</ele><time>2026-05-01T14:42:22.288Z</time></trkpt><trkpt lat="42.306143" lon="14.0902701"><ele>96.0</ele><time>2026-05-01T14:42:23.28Z</time></trkpt><trkpt lat="42.3062541" lon="14.0901445"><ele>96.0</ele><time>2026-05-01T14:42:24.276Z</time></trkpt><trkpt lat="42.3063493" lon="14.090002"><ele>96.0</ele><time>2026-05-01T14:42:25.268Z</time></trkpt><trkpt lat="42.3064225" lon="14.0898399"><ele>96.0</ele><time>2026-05-01T14:42:26.277Z</time></trkpt><trkpt lat="42.306476" lon="14.0896741"><ele>96.0</ele><time>2026-05-01T14:42:27.277Z</time></trkpt><trkpt lat="42.3065312" lon="14.0895407"><ele>95.5</ele><time>2026-05-01T14:42:28.269Z</time></trkpt><trkpt lat="42.3065958" lon="14.0894435"><ele>95.0</ele><time>2026-05-01T14:42:29.283Z</time></trkpt><trkpt lat="42.3066685" lon="14.0893884"><ele>94.5</ele><time>2026-05-01T14:42:30.275Z</time></trkpt><trkpt lat="42.3067421" lon="14.0893701"><ele>94.0</ele><time>2026-05-01T14:42:31.269Z</time></trkpt><trkpt lat="42.3068136" lon="14.089383"><ele>93.5</ele><time>2026-05-01T14:42:32.26Z</time></trkpt><trkpt lat="42.3068881" lon="14.0894122"><ele>93.0</ele><time>2026-05-01T14:42:33.276Z</time></trkpt><trkpt lat="42.3069699" lon="14.0894562"><ele>93.0</ele><time>2026-05-01T14:42:34.275Z</time></trkpt><trkpt lat="42.3070563" lon="14.0895099"><ele>93.0</ele><time>2026-05-01T14:42:35.269Z</time></trkpt><trkpt lat="42.3071491" lon="14.089566"><ele>93.0</ele><time>2026-05-01T14:42:36.287Z</time></trkpt><trkpt lat="42.3072373" lon="14.0896064"><ele>93.0</ele><time>2026-05-01T14:42:37.274Z</time></trkpt><trkpt lat="42.3073237" lon="14.0896306"><ele>93.0</ele><time>2026-05-01T14:42:38.279Z</time></trkpt><trkpt lat="42.3074146" lon="14.0896393"><ele>92.80000000000001</ele><time>2026-05-01T14:42:39.276Z</time></trkpt><trkpt lat="42.3075007" lon="14.089646"><ele>92.6</ele><time>2026-05-01T14:42:40.274Z</time></trkpt><trkpt lat="42.3075882" lon="14.0896657"><ele>92.4</ele><time>2026-05-01T14:42:41.279Z</time></trkpt><trkpt lat="42.3076917" lon="14.0897024"><ele>92.19999999999999</ele><time>2026-05-01T14:42:42.259Z</time></trkpt><trkpt lat="42.3078083" lon="14.0897473"><ele>92.0</ele><time>2026-05-01T14:42:43.279Z</time></trkpt><trkpt lat="42.3079239" lon="14.0897868"><ele>92.0</ele><time>2026-05-01T14:42:44.268Z</time></trkpt><trkpt lat="42.3080418" lon="14.0898263"><ele>92.0</ele><time>2026-05-01T14:42:45.275Z</time></trkpt><trkpt lat="42.3081639" lon="14.0898673"><ele>92.0</ele><time>2026-05-01T14:42:46.274Z</time></trkpt><trkpt lat="42.3082919" lon="14.0899023"><ele>92.0</ele><time>2026-05-01T14:42:47.275Z</time></trkpt><trkpt lat="42.3084215" lon="14.0899451"><ele>90.0</ele><time>2026-05-01T14:42:48.26Z</time></trkpt><trkpt lat="42.3085514" lon="14.0899868"><ele>88.0</ele><time>2026-05-01T14:42:49.296Z</time></trkpt><trkpt lat="42.308663" lon="14.0900255"><ele>86.0</ele><time>2026-05-01T14:42:50.275Z</time></trkpt><trkpt lat="42.3087613" lon="14.0900624"><ele>84.0</ele><time>2026-05-01T14:42:51.279Z</time></trkpt><trkpt lat="42.3088391" lon="14.0900924"><ele>82.0</ele><time>2026-05-01T14:42:52.263Z</time></trkpt><trkpt lat="42.3089047" lon="14.0901136"><ele>81.33333333333333</ele><time>2026-05-01T14:42:53.27Z</time></trkpt><trkpt lat="42.30898" lon="14.0901262"><ele>80.66666666666666</ele><time>2026-05-01T14:43:03.279Z</time></trkpt><trkpt lat="42.3090429" lon="14.0901113"><ele>80.0</ele><time>2026-05-01T14:43:05.278Z</time></trkpt><trkpt lat="42.3091117" lon="14.0901609"><ele>79.33333333333333</ele><time>2026-05-01T14:43:08.249Z</time></trkpt><trkpt lat="42.309168" lon="14.0902626"><ele>78.66666666666667</ele><time>2026-05-01T14:43:10.28Z</time></trkpt><trkpt lat="42.3092215" lon="14.0904332"><ele>78.0</ele><time>2026-05-01T14:43:12.284Z</time></trkpt><trkpt lat="42.3092419" lon="14.0905287"><ele>78.0</ele><time>2026-05-01T14:43:13.288Z</time></trkpt><trkpt lat="42.3092565" lon="14.0906164"><ele>78.0</ele><time>2026-05-01T14:43:14.263Z</time></trkpt><trkpt lat="42.3092682" lon="14.0907002"><ele>78.0</ele><time>2026-05-01T14:43:15.27Z</time></trkpt><trkpt lat="42.3093221" lon="14.0908551"><ele>78.0</ele><time>2026-05-01T14:43:17.274Z</time></trkpt><trkpt lat="42.3093694" lon="14.0909155"><ele>78.0</ele><time>2026-05-01T14:43:18.271Z</time></trkpt><trkpt lat="42.3094278" lon="14.0909624"><ele>78.0</ele><time>2026-05-01T14:43:19.274Z</time></trkpt><trkpt lat="42.3094893" lon="14.0910056"><ele>77.71428571428572</ele><time>2026-05-01T14:43:20.272Z</time></trkpt><trkpt lat="42.3095415" lon="14.0910569"><ele>77.42857142857142</ele><time>2026-05-01T14:43:21.268Z</time></trkpt><trkpt lat="42.3095918" lon="14.0911236"><ele>77.14285714285714</ele><time>2026-05-01T14:43:22.281Z</time></trkpt><trkpt lat="42.3096415" lon="14.0911906"><ele>76.85714285714286</ele><time>2026-05-01T14:43:23.279Z</time></trkpt><trkpt lat="42.3096912" lon="14.0912588"><ele>76.57142857142858</ele><time>2026-05-01T14:43:24.273Z</time></trkpt><trkpt lat="42.3097438" lon="14.0913311"><ele>76.28571428571428</ele><time>2026-05-01T14:43:25.275Z</time></trkpt><trkpt lat="42.3097985" lon="14.0913999"><ele>76.0</ele><time>2026-05-01T14:43:26.267Z</time></trkpt><trkpt lat="42.3098462" lon="14.091468"><ele>76.83333333333333</ele><time>2026-05-01T14:43:27.264Z</time></trkpt><trkpt lat="42.3098915" lon="14.0915353"><ele>77.66666666666666</ele><time>2026-05-01T14:43:28.273Z</time></trkpt><trkpt lat="42.3099316" lon="14.0916115"><ele>78.5</ele><time>2026-05-01T14:43:29.276Z</time></trkpt><trkpt lat="42.3099757" lon="14.0916973"><ele>79.33333333333333</ele><time>2026-05-01T14:43:30.291Z</time></trkpt><trkpt lat="42.3100258" lon="14.0917878"><ele>80.16666666666667</ele><time>2026-05-01T14:43:31.274Z</time></trkpt><trkpt lat="42.3100781" lon="14.0918792"><ele>81.0</ele><time>2026-05-01T14:43:32.272Z</time></trkpt><trkpt lat="42.3101329" lon="14.0919707"><ele>81.83333333333333</ele><time>2026-05-01T14:43:33.266Z</time></trkpt><trkpt lat="42.3101864" lon="14.0920622"><ele>82.66666666666667</ele><time>2026-05-01T14:43:34.265Z</time></trkpt><trkpt lat="42.3102466" lon="14.0921466"><ele>83.5</ele><time>2026-05-01T14:43:35.276Z</time></trkpt><trkpt lat="42.3103039" lon="14.0922248"><ele>84.33333333333334</ele><time>2026-05-01T14:43:36.279Z</time></trkpt><trkpt lat="42.3103567" lon="14.0923003"><ele>85.16666666666667</ele><time>2026-05-01T14:43:37.285Z</time></trkpt><trkpt lat="42.310401" lon="14.0923827"><ele>86.0</ele><time>2026-05-01T14:43:38.268Z</time></trkpt><trkpt lat="42.3104472" lon="14.0924717"><ele>87.19999999999999</ele><time>2026-05-01T14:43:39.273Z</time></trkpt><trkpt lat="42.3105008" lon="14.0925652"><ele>88.39999999999999</ele><time>2026-05-01T14:43:40.268Z</time></trkpt><trkpt lat="42.3105616" lon="14.0926645"><ele>89.6</ele><time>2026-05-01T14:43:41.263Z</time></trkpt><trkpt lat="42.3106259" lon="14.0927615"><ele>90.8</ele><time>2026-05-01T14:43:42.259Z</time></trkpt><trkpt lat="42.310692" lon="14.0928634"><ele>92.0</ele><time>2026-05-01T14:43:43.283Z</time></trkpt><trkpt lat="42.3107601" lon="14.0929741"><ele>92.0</ele><time>2026-05-01T14:43:44.273Z</time></trkpt><trkpt lat="42.3108227" lon="14.0930748"><ele>92.0</ele><time>2026-05-01T14:43:45.269Z</time></trkpt><trkpt lat="42.3108841" lon="14.0931642"><ele>92.0</ele><time>2026-05-01T14:43:46.275Z</time></trkpt><trkpt lat="42.3109438" lon="14.0932571"><ele>92.0</ele><time>2026-05-01T14:43:47.263Z</time></trkpt><trkpt lat="42.3110005" lon="14.0933306"><ele>92.0</ele><time>2026-05-01T14:43:48.272Z</time></trkpt><trkpt lat="42.3110534" lon="14.0934006"><ele>92.0</ele><time>2026-05-01T14:43:49.276Z</time></trkpt><trkpt lat="42.311099" lon="14.09347"><ele>92.8</ele><time>2026-05-01T14:43:50.257Z</time></trkpt><trkpt lat="42.311143" lon="14.0935456"><ele>93.6</ele><time>2026-05-01T14:43:51.289Z</time></trkpt><trkpt lat="42.3112082" lon="14.0936631"><ele>94.39999999999999</ele><time>2026-05-01T14:43:53.272Z</time></trkpt><trkpt lat="42.3112811" lon="14.0937779"><ele>95.19999999999999</ele><time>2026-05-01T14:43:56.287Z</time></trkpt><trkpt lat="42.3113636" lon="14.0938701"><ele>96.0</ele><time>2026-05-01T14:43:58.28Z</time></trkpt><trkpt lat="42.3114376" lon="14.0938471"><ele>96.0</ele><time>2026-05-01T14:44:01.276Z</time></trkpt><trkpt lat="42.3114872" lon="14.0937422"><ele>96.0</ele><time>2026-05-01T14:44:03.299Z</time></trkpt><trkpt lat="42.3115252" lon="14.0936578"><ele>96.0</ele><time>2026-05-01T14:44:04.281Z</time></trkpt><trkpt lat="42.3115724" lon="14.0935497"><ele>96.0</ele><time>2026-05-01T14:44:05.281Z</time></trkpt><trkpt lat="42.3116293" lon="14.0934228"><ele>96.0</ele><time>2026-05-01T14:44:06.273Z</time></trkpt><trkpt lat="42.3117004" lon="14.0932871"><ele>95.0</ele><time>2026-05-01T14:44:07.291Z</time></trkpt><trkpt lat="42.311784" lon="14.093148"><ele>94.0</ele><time>2026-05-01T14:44:08.272Z</time></trkpt><trkpt lat="42.3118805" lon="14.092995"><ele>93.0</ele><time>2026-05-01T14:44:09.276Z</time></trkpt><trkpt lat="42.3119692" lon="14.092842"><ele>92.0</ele><time>2026-05-01T14:44:10.261Z</time></trkpt><trkpt lat="42.3120475" lon="14.0926937"><ele>92.0</ele><time>2026-05-01T14:44:11.28Z</time></trkpt><trkpt lat="42.3121191" lon="14.0925512"><ele>92.0</ele><time>2026-05-01T14:44:12.277Z</time></trkpt><trkpt lat="42.3121869" lon="14.092418"><ele>92.0</ele><time>2026-05-01T14:44:13.274Z</time></trkpt><trkpt lat="42.3122527" lon="14.0922924"><ele>92.0</ele><time>2026-05-01T14:44:14.286Z</time></trkpt><trkpt lat="42.3123202" lon="14.0921903"><ele>92.39999999999999</ele><time>2026-05-01T14:44:15.273Z</time></trkpt><trkpt lat="42.3123853" lon="14.0921025"><ele>92.8</ele><time>2026-05-01T14:44:16.278Z</time></trkpt><trkpt lat="42.3124568" lon="14.0920222"><ele>93.2</ele><time>2026-05-01T14:44:17.271Z</time></trkpt><trkpt lat="42.3125408" lon="14.0919431"><ele>93.6</ele><time>2026-05-01T14:44:18.276Z</time></trkpt><trkpt lat="42.3126415" lon="14.0918573"><ele>94.0</ele><time>2026-05-01T14:44:19.247Z</time></trkpt><trkpt lat="42.3127465" lon="14.0917745"><ele>94.0</ele><time>2026-05-01T14:44:20.247Z</time></trkpt><trkpt lat="42.3128466" lon="14.091686"><ele>94.0</ele><time>2026-05-01T14:44:21.299Z</time></trkpt><trkpt lat="42.3129318" lon="14.0915829"><ele>94.0</ele><time>2026-05-01T14:44:22.264Z</time></trkpt><trkpt lat="42.3129967" lon="14.0914573"><ele>94.0</ele><time>2026-05-01T14:44:23.279Z</time></trkpt><trkpt lat="42.3130421" lon="14.0913118"><ele>94.0</ele><time>2026-05-01T14:44:24.268Z</time></trkpt><trkpt lat="42.3130744" lon="14.0911347"><ele>94.0</ele><time>2026-05-01T14:44:25.278Z</time></trkpt><trkpt lat="42.3131049" lon="14.0909492"><ele>94.0</ele><time>2026-05-01T14:44:26.268Z</time></trkpt><trkpt lat="42.3131376" lon="14.0907683"><ele>94.0</ele><time>2026-05-01T14:44:27.272Z</time></trkpt><trkpt lat="42.3131684" lon="14.0905849"><ele>94.0</ele><time>2026-05-01T14:44:28.263Z</time></trkpt><trkpt lat="42.313199" lon="14.0903979"><ele>94.0</ele><time>2026-05-01T14:44:29.276Z</time></trkpt><trkpt lat="42.3132227" lon="14.090219"><ele>94.0</ele><time>2026-05-01T14:44:30.276Z</time></trkpt><trkpt lat="42.3132452" lon="14.0900403"><ele>94.0</ele><time>2026-05-01T14:44:31.276Z</time></trkpt><trkpt lat="42.3132737" lon="14.0898558"><ele>93.5</ele><time>2026-05-01T14:44:32.28Z</time></trkpt><trkpt lat="42.3133044" lon="14.0896704"><ele>93.0</ele><time>2026-05-01T14:44:33.268Z</time></trkpt><trkpt lat="42.3133445" lon="14.0894818"><ele>92.5</ele><time>2026-05-01T14:44:34.271Z</time></trkpt><trkpt lat="42.3133947" lon="14.0892883"><ele>92.0</ele><time>2026-05-01T14:44:35.276Z</time></trkpt><trkpt lat="42.3134548" lon="14.0890913"><ele>91.33333333333334</ele><time>2026-05-01T14:44:36.27Z</time></trkpt><trkpt lat="42.3135174" lon="14.0888938"><ele>90.66666666666667</ele><time>2026-05-01T14:44:37.283Z</time></trkpt><trkpt lat="42.3135848" lon="14.088704"><ele>90.0</ele><time>2026-05-01T14:44:38.27Z</time></trkpt><trkpt lat="42.3136642" lon="14.0885316"><ele>90.0</ele><time>2026-05-01T14:44:39.281Z</time></trkpt><trkpt lat="42.3137652" lon="14.08836"><ele>90.0</ele><time>2026-05-01T14:44:40.273Z</time></trkpt><trkpt lat="42.3138813" lon="14.0881858"><ele>90.0</ele><time>2026-05-01T14:44:41.279Z</time></trkpt><trkpt lat="42.3140131" lon="14.0880153"><ele>88.0</ele><time>2026-05-01T14:44:42.282Z</time></trkpt><trkpt lat="42.3141348" lon="14.0878483"><ele>86.0</ele><time>2026-05-01T14:44:43.277Z</time></trkpt><trkpt lat="42.3142487" lon="14.0876988"><ele>84.0</ele><time>2026-05-01T14:44:44.261Z</time></trkpt><trkpt lat="42.3143667" lon="14.0875418"><ele>83.33333333333333</ele><time>2026-05-01T14:44:45.271Z</time></trkpt><trkpt lat="42.3144847" lon="14.0873912"><ele>82.66666666666666</ele><time>2026-05-01T14:44:46.282Z</time></trkpt><trkpt lat="42.3145968" lon="14.087254"><ele>82.0</ele><time>2026-05-01T14:44:47.277Z</time></trkpt><trkpt lat="42.3147065" lon="14.0871285"><ele>81.25</ele><time>2026-05-01T14:44:48.268Z</time></trkpt><trkpt lat="42.3148289" lon="14.0870165"><ele>80.5</ele><time>2026-05-01T14:44:49.276Z</time></trkpt><trkpt lat="42.3149496" lon="14.0869147"><ele>79.75</ele><time>2026-05-01T14:44:50.265Z</time></trkpt><trkpt lat="42.3150672" lon="14.0868286"><ele>79.0</ele><time>2026-05-01T14:44:51.29Z</time></trkpt><trkpt lat="42.315182" lon="14.0867627"><ele>79.0</ele><time>2026-05-01T14:44:52.269Z</time></trkpt><trkpt lat="42.3152928" lon="14.0867252"><ele>79.0</ele><time>2026-05-01T14:44:53.28Z</time></trkpt><trkpt lat="42.3154168" lon="14.0867207"><ele>79.0</ele><time>2026-05-01T14:44:54.263Z</time></trkpt><trkpt lat="42.3155461" lon="14.0867326"><ele>79.0</ele><time>2026-05-01T14:44:55.273Z</time></trkpt><trkpt lat="42.3156865" lon="14.0867628"><ele>79.33333333333333</ele><time>2026-05-01T14:44:56.27Z</time></trkpt><trkpt lat="42.3158343" lon="14.0867892"><ele>79.66666666666667</ele><time>2026-05-01T14:44:57.271Z</time></trkpt><trkpt lat="42.3159872" lon="14.0868068"><ele>80.0</ele><time>2026-05-01T14:44:58.279Z</time></trkpt><trkpt lat="42.3161408" lon="14.0868198"><ele>80.0</ele><time>2026-05-01T14:44:59.277Z</time></trkpt><trkpt lat="42.3162871" lon="14.0868489"><ele>80.0</ele><time>2026-05-01T14:45:00.268Z</time></trkpt><trkpt lat="42.3164224" lon="14.0868927"><ele>80.0</ele><time>2026-05-01T14:45:01.268Z</time></trkpt><trkpt lat="42.3165601" lon="14.0869729"><ele>80.0</ele><time>2026-05-01T14:45:02.279Z</time></trkpt><trkpt lat="42.3167074" lon="14.0870733"><ele>79.0</ele><time>2026-05-01T14:45:03.26Z</time></trkpt><trkpt lat="42.3168702" lon="14.0871733"><ele>78.0</ele><time>2026-05-01T14:45:04.276Z</time></trkpt><trkpt lat="42.3170408" lon="14.0872695"><ele>77.0</ele><time>2026-05-01T14:45:05.271Z</time></trkpt><trkpt lat="42.3172031" lon="14.0873628"><ele>73.66666666666667</ele><time>2026-05-01T14:45:06.265Z</time></trkpt><trkpt lat="42.3173532" lon="14.0874539"><ele>70.33333333333333</ele><time>2026-05-01T14:45:07.273Z</time></trkpt><trkpt lat="42.3174872" lon="14.0875432"><ele>67.0</ele><time>2026-05-01T14:45:08.266Z</time></trkpt><trkpt lat="42.3176137" lon="14.0876331"><ele>67.0</ele><time>2026-05-01T14:45:09.281Z</time></trkpt><trkpt lat="42.3177298" lon="14.0877358"><ele>67.0</ele><time>2026-05-01T14:45:10.283Z</time></trkpt><trkpt lat="42.317827" lon="14.0878398"><ele>67.0</ele><time>2026-05-01T14:45:11.28Z</time></trkpt><trkpt lat="42.3179136" lon="14.0879471"><ele>67.0</ele><time>2026-05-01T14:45:12.289Z</time></trkpt><trkpt lat="42.3179946" lon="14.088059"><ele>66.4</ele><time>2026-05-01T14:45:13.275Z</time></trkpt><trkpt lat="42.3180684" lon="14.0881628"><ele>65.80000000000001</ele><time>2026-05-01T14:45:14.271Z</time></trkpt><trkpt lat="42.3181555" lon="14.0882396"><ele>65.2</ele><time>2026-05-01T14:45:15.277Z</time></trkpt><trkpt lat="42.3182458" lon="14.0882913"><ele>64.60000000000001</ele><time>2026-05-01T14:45:16.266Z</time></trkpt><trkpt lat="42.3183418" lon="14.0883148"><ele>64.0</ele><time>2026-05-01T14:45:17.282Z</time></trkpt><trkpt lat="42.3184312" lon="14.0883189"><ele>63.99999999999999</ele><time>2026-05-01T14:45:18.275Z</time></trkpt><trkpt lat="42.3185142" lon="14.088319"><ele>64.0</ele><time>2026-05-01T14:45:19.277Z</time></trkpt><trkpt lat="42.3186005" lon="14.0883363"><ele>64.0</ele><time>2026-05-01T14:45:20.266Z</time></trkpt><trkpt lat="42.3186907" lon="14.088367"><ele>64.0</ele><time>2026-05-01T14:45:21.275Z</time></trkpt><trkpt lat="42.318778" lon="14.0884088"><ele>63.99999999999999</ele><time>2026-05-01T14:45:22.278Z</time></trkpt><trkpt lat="42.3188612" lon="14.0884429"><ele>64.0</ele><time>2026-05-01T14:45:23.28Z</time></trkpt><trkpt lat="42.3189444" lon="14.088478"><ele>63.6</ele><time>2026-05-01T14:45:24.275Z</time></trkpt><trkpt lat="42.3190176" lon="14.0885097"><ele>63.2</ele><time>2026-05-01T14:45:25.289Z</time></trkpt><trkpt lat="42.3190836" lon="14.088536"><ele>62.800000000000004</ele><time>2026-05-01T14:45:26.27Z</time></trkpt><trkpt lat="42.3191869" lon="14.0885677"><ele>62.400000000000006</ele><time>2026-05-01T14:45:28.277Z</time></trkpt><trkpt lat="42.3192882" lon="14.088592"><ele>62.0</ele><time>2026-05-01T14:45:30.277Z</time></trkpt><trkpt lat="42.3193918" lon="14.088633"><ele>62.0</ele><time>2026-05-01T14:45:32.265Z</time></trkpt><trkpt lat="42.3194803" lon="14.0886608"><ele>62.0</ele><time>2026-05-01T14:45:34.277Z</time></trkpt><trkpt lat="42.3195341" lon="14.0885936"><ele>62.0</ele><time>2026-05-01T14:45:36.275Z</time></trkpt><trkpt lat="42.3196059" lon="14.0884495"><ele>62.0</ele><time>2026-05-01T14:45:38.273Z</time></trkpt><trkpt lat="42.3196496" lon="14.0883652"><ele>62.0</ele><time>2026-05-01T14:45:39.265Z</time></trkpt><trkpt lat="42.3196938" lon="14.0882597"><ele>61.833333333333336</ele><time>2026-05-01T14:45:40.271Z</time></trkpt><trkpt lat="42.3197435" lon="14.0881628"><ele>61.66666666666667</ele><time>2026-05-01T14:45:41.283Z</time></trkpt><trkpt lat="42.3197906" lon="14.0880778"><ele>61.5</ele><time>2026-05-01T14:45:42.262Z</time></trkpt><trkpt lat="42.3198386" lon="14.087984"><ele>61.33333333333333</ele><time>2026-05-01T14:45:43.283Z</time></trkpt><trkpt lat="42.3198871" lon="14.0878976"><ele>61.166666666666664</ele><time>2026-05-01T14:45:44.28Z</time></trkpt><trkpt lat="42.3199321" lon="14.0878176"><ele>61.0</ele><time>2026-05-01T14:45:45.277Z</time></trkpt><trkpt lat="42.319978" lon="14.0877315"><ele>60.99999999999999</ele><time>2026-05-01T14:45:46.27Z</time></trkpt><trkpt lat="42.320023" lon="14.0876511"><ele>61.0</ele><time>2026-05-01T14:45:47.285Z</time></trkpt><trkpt lat="42.3200659" lon="14.0875724"><ele>61.0</ele><time>2026-05-01T14:45:48.267Z</time></trkpt><trkpt lat="42.3201398" lon="14.0874625"><ele>61.0</ele><time>2026-05-01T14:45:50.271Z</time></trkpt><trkpt lat="42.3202073" lon="14.0874043"><ele>60.99999999999999</ele><time>2026-05-01T14:45:52.268Z</time></trkpt><trkpt lat="42.3202659" lon="14.087357"><ele>61.0</ele><time>2026-05-01T14:45:54.27Z</time></trkpt><trkpt lat="42.3203292" lon="14.0873377"><ele>61.0</ele><time>2026-05-01T14:46:00.27Z</time></trkpt><trkpt lat="42.3203892" lon="14.0874385"><ele>60.99999999999999</ele><time>2026-05-01T14:46:02.272Z</time></trkpt><trkpt lat="42.3204645" lon="14.0875814"><ele>60.99999999999999</ele><time>2026-05-01T14:46:04.297Z</time></trkpt><trkpt lat="42.3205035" lon="14.0876752"><ele>61.0</ele><time>2026-05-01T14:46:05.275Z</time></trkpt><trkpt lat="42.3205518" lon="14.0877698"><ele>61.0</ele><time>2026-05-01T14:46:06.265Z</time></trkpt><trkpt lat="42.3206024" lon="14.0878652"><ele>60.8</ele><time>2026-05-01T14:46:07.273Z</time></trkpt><trkpt lat="42.3206528" lon="14.0879755"><ele>60.599999999999994</ele><time>2026-05-01T14:46:08.272Z</time></trkpt><trkpt lat="42.3207105" lon="14.0880905"><ele>60.4</ele><time>2026-05-01T14:46:09.276Z</time></trkpt><trkpt lat="42.32077" lon="14.0882048"><ele>60.2</ele><time>2026-05-01T14:46:10.273Z</time></trkpt><trkpt lat="42.3208234" lon="14.0883271"><ele>60.0</ele><time>2026-05-01T14:46:11.292Z</time></trkpt><trkpt lat="42.320878" lon="14.0884465"><ele>60.0</ele><time>2026-05-01T14:46:12.281Z</time></trkpt><trkpt lat="42.3209326" lon="14.0885663"><ele>60.0</ele><time>2026-05-01T14:46:13.268Z</time></trkpt><trkpt lat="42.3209856" lon="14.0886812"><ele>60.0</ele><time>2026-05-01T14:46:14.303Z</time></trkpt><trkpt lat="42.3210454" lon="14.088796"><ele>60.0</ele><time>2026-05-01T14:46:15.28Z</time></trkpt><trkpt lat="42.3211026" lon="14.0889115"><ele>60.0</ele><time>2026-05-01T14:46:16.284Z</time></trkpt><trkpt lat="42.3211627" lon="14.0890261"><ele>59.8</ele><time>2026-05-01T14:46:17.276Z</time></trkpt><trkpt lat="42.3212184" lon="14.0891413"><ele>59.6</ele><time>2026-05-01T14:46:18.27Z</time></trkpt><trkpt lat="42.3212722" lon="14.0892581"><ele>59.400000000000006</ele><time>2026-05-01T14:46:19.268Z</time></trkpt><trkpt lat="42.3213262" lon="14.0893611"><ele>59.2</ele><time>2026-05-01T14:46:20.275Z</time></trkpt><trkpt lat="42.3213798" lon="14.0894655"><ele>59.0</ele><time>2026-05-01T14:46:21.272Z</time></trkpt><trkpt lat="42.321434" lon="14.0895727"><ele>59.0</ele><time>2026-05-01T14:46:22.268Z</time></trkpt><trkpt lat="42.3214889" lon="14.0896869"><ele>59.00000000000001</ele><time>2026-05-01T14:46:23.271Z</time></trkpt><trkpt lat="42.3215429" lon="14.0898017"><ele>59.00000000000001</ele><time>2026-05-01T14:46:24.265Z</time></trkpt><trkpt lat="42.3215916" lon="14.0899139"><ele>59.0</ele><time>2026-05-01T14:46:25.269Z</time></trkpt><trkpt lat="42.3216417" lon="14.0900102"><ele>59.0</ele><time>2026-05-01T14:46:26.271Z</time></trkpt><trkpt lat="42.3216838" lon="14.0901027"><ele>58.833333333333336</ele><time>2026-05-01T14:46:27.282Z</time></trkpt><trkpt lat="42.3217219" lon="14.0901916"><ele>58.66666666666667</ele><time>2026-05-01T14:46:28.279Z</time></trkpt><trkpt lat="42.3217583" lon="14.0902682"><ele>58.5</ele><time>2026-05-01T14:46:29.261Z</time></trkpt><trkpt lat="42.3218191" lon="14.0903945"><ele>58.33333333333333</ele><time>2026-05-01T14:46:31.284Z</time></trkpt><trkpt lat="42.3218597" lon="14.090479"><ele>58.166666666666664</ele><time>2026-05-01T14:46:34.267Z</time></trkpt><trkpt lat="42.3218981" lon="14.0905688"><ele>58.0</ele><time>2026-05-01T14:46:35.276Z</time></trkpt><trkpt lat="42.3219375" lon="14.0906497"><ele>57.99999999999999</ele><time>2026-05-01T14:46:36.266Z</time></trkpt><trkpt lat="42.3219727" lon="14.0907233"><ele>58.0</ele><time>2026-05-01T14:46:37.273Z</time></trkpt><trkpt lat="42.3220076" lon="14.0907966"><ele>58.0</ele><time>2026-05-01T14:46:38.276Z</time></trkpt><trkpt lat="42.3220496" lon="14.0908712"><ele>58.0</ele><time>2026-05-01T14:46:39.26Z</time></trkpt><trkpt lat="42.3220929" lon="14.0909567"><ele>57.99999999999999</ele><time>2026-05-01T14:46:40.266Z</time></trkpt><trkpt lat="42.3221368" lon="14.0910522"><ele>58.0</ele><time>2026-05-01T14:46:41.279Z</time></trkpt><trkpt lat="42.3221877" lon="14.0911583"><ele>58.2</ele><time>2026-05-01T14:46:42.259Z</time></trkpt><trkpt lat="42.3222421" lon="14.0912769"><ele>58.4</ele><time>2026-05-01T14:46:43.286Z</time></trkpt><trkpt lat="42.3222989" lon="14.0913955"><ele>58.60000000000001</ele><time>2026-05-01T14:46:44.269Z</time></trkpt><trkpt lat="42.3223573" lon="14.0915156"><ele>58.800000000000004</ele><time>2026-05-01T14:46:45.261Z</time></trkpt><trkpt lat="42.3224192" lon="14.091642"><ele>59.0</ele><time>2026-05-01T14:46:46.272Z</time></trkpt><trkpt lat="42.3224814" lon="14.0917728"><ele>59.0</ele><time>2026-05-01T14:46:47.269Z</time></trkpt><trkpt lat="42.3225455" lon="14.0919118"><ele>59.0</ele><time>2026-05-01T14:46:48.285Z</time></trkpt><trkpt lat="42.3226119" lon="14.092053"><ele>59.0</ele><time>2026-05-01T14:46:49.272Z</time></trkpt><trkpt lat="42.3226795" lon="14.0921995"><ele>59.0</ele><time>2026-05-01T14:46:50.269Z</time></trkpt><trkpt lat="42.3227523" lon="14.092347"><ele>58.75</ele><time>2026-05-01T14:46:51.268Z</time></trkpt><trkpt lat="42.3228264" lon="14.0924938"><ele>58.5</ele><time>2026-05-01T14:46:52.265Z</time></trkpt><trkpt lat="42.3229002" lon="14.0926453"><ele>58.25</ele><time>2026-05-01T14:46:53.274Z</time></trkpt><trkpt lat="42.3229736" lon="14.092798"><ele>58.0</ele><time>2026-05-01T14:46:54.262Z</time></trkpt><trkpt lat="42.3230474" lon="14.0929539"><ele>58.0</ele><time>2026-05-01T14:46:55.273Z</time></trkpt><trkpt lat="42.3231191" lon="14.0931091"><ele>58.0</ele><time>2026-05-01T14:46:56.252Z</time></trkpt><trkpt lat="42.3231934" lon="14.0932726"><ele>58.0</ele><time>2026-05-01T14:46:57.289Z</time></trkpt><trkpt lat="42.3232667" lon="14.0934319"><ele>58.0</ele><time>2026-05-01T14:46:58.276Z</time></trkpt><trkpt lat="42.3233378" lon="14.0935898"><ele>58.0</ele><time>2026-05-01T14:46:59.279Z</time></trkpt><trkpt lat="42.323411" lon="14.0937444"><ele>58.0</ele><time>2026-05-01T14:47:00.284Z</time></trkpt><trkpt lat="42.323482" lon="14.0939032"><ele>58.0</ele><time>2026-05-01T14:47:01.292Z</time></trkpt><trkpt lat="42.3235432" lon="14.0940566"><ele>58.0</ele><time>2026-05-01T14:47:02.271Z</time></trkpt><trkpt lat="42.3235914" lon="14.0942074"><ele>58.0</ele><time>2026-05-01T14:47:03.268Z</time></trkpt><trkpt lat="42.323629" lon="14.0943642"><ele>58.0</ele><time>2026-05-01T14:47:04.25Z</time></trkpt><trkpt lat="42.3236649" lon="14.0945312"><ele>58.0</ele><time>2026-05-01T14:47:05.265Z</time></trkpt><trkpt lat="42.3236973" lon="14.0947004"><ele>58.0</ele><time>2026-05-01T14:47:06.268Z</time></trkpt><trkpt lat="42.3237306" lon="14.0948674"><ele>58.25</ele><time>2026-05-01T14:47:07.272Z</time></trkpt><trkpt lat="42.3237668" lon="14.0950361"><ele>58.5</ele><time>2026-05-01T14:47:08.289Z</time></trkpt><trkpt lat="42.3238049" lon="14.0952079"><ele>58.75</ele><time>2026-05-01T14:47:09.285Z</time></trkpt><trkpt lat="42.32384" lon="14.0953827"><ele>59.0</ele><time>2026-05-01T14:47:10.264Z</time></trkpt><trkpt lat="42.3238769" lon="14.0955564"><ele>58.75</ele><time>2026-05-01T14:47:11.259Z</time></trkpt><trkpt lat="42.3239109" lon="14.0957278"><ele>58.5</ele><time>2026-05-01T14:47:12.253Z</time></trkpt><trkpt lat="42.3239461" lon="14.0959035"><ele>58.25</ele><time>2026-05-01T14:47:13.275Z</time></trkpt><trkpt lat="42.3239811" lon="14.0960804"><ele>58.0</ele><time>2026-05-01T14:47:14.261Z</time></trkpt><trkpt lat="42.324016" lon="14.096264"><ele>58.0</ele><time>2026-05-01T14:47:15.276Z</time></trkpt><trkpt lat="42.324053" lon="14.0964463"><ele>58.0</ele><time>2026-05-01T14:47:16.269Z</time></trkpt><trkpt lat="42.3240889" lon="14.0966346"><ele>58.0</ele><time>2026-05-01T14:47:17.273Z</time></trkpt><trkpt lat="42.324127" lon="14.0968175"><ele>58.0</ele><time>2026-05-01T14:47:18.265Z</time></trkpt><trkpt lat="42.3241646" lon="14.0970006"><ele>58.0</ele><time>2026-05-01T14:47:19.272Z</time></trkpt><trkpt lat="42.3242027" lon="14.0971809"><ele>58.0</ele><time>2026-05-01T14:47:20.274Z</time></trkpt><trkpt lat="42.3242418" lon="14.0973574"><ele>58.0</ele><time>2026-05-01T14:47:21.262Z</time></trkpt><trkpt lat="42.3242841" lon="14.0975361"><ele>58.0</ele><time>2026-05-01T14:47:22.256Z</time></trkpt><trkpt lat="42.3243327" lon="14.0977187"><ele>57.75</ele><time>2026-05-01T14:47:23.273Z</time></trkpt><trkpt lat="42.3243927" lon="14.097894"><ele>57.5</ele><time>2026-05-01T14:47:24.265Z</time></trkpt><trkpt lat="42.3244612" lon="14.0980615"><ele>57.25</ele><time>2026-05-01T14:47:25.265Z</time></trkpt><trkpt lat="42.3245421" lon="14.0982198"><ele>57.0</ele><time>2026-05-01T14:47:26.271Z</time></trkpt><trkpt lat="42.3246295" lon="14.0983713"><ele>57.75</ele><time>2026-05-01T14:47:27.274Z</time></trkpt><trkpt lat="42.3247207" lon="14.0985174"><ele>58.5</ele><time>2026-05-01T14:47:28.268Z</time></trkpt><trkpt lat="42.3248147" lon="14.0986651"><ele>59.25</ele><time>2026-05-01T14:47:29.27Z</time></trkpt><trkpt lat="42.3249084" lon="14.0988126"><ele>60.0</ele><time>2026-05-01T14:47:30.278Z</time></trkpt><trkpt lat="42.3250008" lon="14.0989597"><ele>59.0</ele><time>2026-05-01T14:47:31.275Z</time></trkpt><trkpt lat="42.3250904" lon="14.0991045"><ele>58.0</ele><time>2026-05-01T14:47:32.271Z</time></trkpt><trkpt lat="42.3251809" lon="14.099247"><ele>57.0</ele><time>2026-05-01T14:47:33.272Z</time></trkpt><trkpt lat="42.3252678" lon="14.0993861"><ele>56.0</ele><time>2026-05-01T14:47:34.27Z</time></trkpt><trkpt lat="42.3253527" lon="14.0995223"><ele>56.0</ele><time>2026-05-01T14:47:35.272Z</time></trkpt><trkpt lat="42.325437" lon="14.0996575"><ele>56.0</ele><time>2026-05-01T14:47:36.262Z</time></trkpt><trkpt lat="42.3255231" lon="14.0997879"><ele>56.0</ele><time>2026-05-01T14:47:37.266Z</time></trkpt><trkpt lat="42.3256036" lon="14.0999093"><ele>56.0</ele><time>2026-05-01T14:47:38.264Z</time></trkpt><trkpt lat="42.3256822" lon="14.1000321"><ele>55.4</ele><time>2026-05-01T14:47:39.284Z</time></trkpt><trkpt lat="42.3257593" lon="14.1001527"><ele>54.8</ele><time>2026-05-01T14:47:40.265Z</time></trkpt><trkpt lat="42.3258326" lon="14.1002719"><ele>54.199999999999996</ele><time>2026-05-01T14:47:41.275Z</time></trkpt><trkpt lat="42.3258969" lon="14.1003805"><ele>53.599999999999994</ele><time>2026-05-01T14:47:42.259Z</time></trkpt><trkpt lat="42.3259574" lon="14.1004858"><ele>53.0</ele><time>2026-05-01T14:47:43.272Z</time></trkpt><trkpt lat="42.3260079" lon="14.100584"><ele>53.00000000000001</ele><time>2026-05-01T14:47:44.269Z</time></trkpt><trkpt lat="42.3260549" lon="14.1006722"><ele>53.0</ele><time>2026-05-01T14:47:45.267Z</time></trkpt><trkpt lat="42.3260857" lon="14.1007532"><ele>53.0</ele><time>2026-05-01T14:47:46.273Z</time></trkpt><trkpt lat="42.3261245" lon="14.1008715"><ele>53.0</ele><time>2026-05-01T14:47:48.27Z</time></trkpt><trkpt lat="42.3261498" lon="14.1009814"><ele>53.00000000000001</ele><time>2026-05-01T14:47:51.273Z</time></trkpt><trkpt lat="42.3261668" lon="14.1011006"><ele>53.0</ele><time>2026-05-01T14:47:53.275Z</time></trkpt><trkpt lat="42.3262287" lon="14.1012177"><ele>53.285714285714285</ele><time>2026-05-01T14:47:55.28Z</time></trkpt><trkpt lat="42.3262873" lon="14.1012513"><ele>53.57142857142857</ele><time>2026-05-01T14:47:56.262Z</time></trkpt><trkpt lat="42.3263549" lon="14.1012761"><ele>53.857142857142854</ele><time>2026-05-01T14:47:57.269Z</time></trkpt><trkpt lat="42.3264232" lon="14.1013167"><ele>54.14285714285714</ele><time>2026-05-01T14:47:58.272Z</time></trkpt><trkpt lat="42.3264867" lon="14.101374"><ele>54.42857142857143</ele><time>2026-05-01T14:47:59.269Z</time></trkpt><trkpt lat="42.3265447" lon="14.1014461"><ele>54.71428571428571</ele><time>2026-05-01T14:48:00.269Z</time></trkpt><trkpt lat="42.3266015" lon="14.1015268"><ele>55.0</ele><time>2026-05-01T14:48:01.275Z</time></trkpt><trkpt lat="42.3266594" lon="14.1016109"><ele>55.0</ele><time>2026-05-01T14:48:02.272Z</time></trkpt><trkpt lat="42.3267192" lon="14.1017103"><ele>55.0</ele><time>2026-05-01T14:48:03.27Z</time></trkpt><trkpt lat="42.3267792" lon="14.1018098"><ele>55.0</ele><time>2026-05-01T14:48:04.265Z</time></trkpt><trkpt lat="42.3268391" lon="14.1019078"><ele>55.0</ele><time>2026-05-01T14:48:05.277Z</time></trkpt><trkpt lat="42.3269009" lon="14.1020077"><ele>55.0</ele><time>2026-05-01T14:48:06.278Z</time></trkpt><trkpt lat="42.3269641" lon="14.1021127"><ele>55.0</ele><time>2026-05-01T14:48:07.273Z</time></trkpt><trkpt lat="42.3270234" lon="14.1022201"><ele>55.0</ele><time>2026-05-01T14:48:08.273Z</time></trkpt><trkpt lat="42.3270807" lon="14.1023347"><ele>55.0</ele><time>2026-05-01T14:48:09.268Z</time></trkpt><trkpt lat="42.3271356" lon="14.1024543"><ele>55.0</ele><time>2026-05-01T14:48:10.272Z</time></trkpt><trkpt lat="42.3271876" lon="14.102582"><ele>55.0</ele><time>2026-05-01T14:48:11.28Z</time></trkpt><trkpt lat="42.3272365" lon="14.1027135"><ele>53.8</ele><time>2026-05-01T14:48:12.281Z</time></trkpt><trkpt lat="42.3272797" lon="14.1028436"><ele>52.6</ele><time>2026-05-01T14:48:13.269Z</time></trkpt><trkpt lat="42.32732" lon="14.1029743"><ele>51.400000000000006</ele><time>2026-05-01T14:48:14.274Z</time></trkpt><trkpt lat="42.3273604" lon="14.103107"><ele>50.2</ele><time>2026-05-01T14:48:15.282Z</time></trkpt><trkpt lat="42.3274035" lon="14.1032419"><ele>49.0</ele><time>2026-05-01T14:48:16.278Z</time></trkpt><trkpt lat="42.3274495" lon="14.1033775"><ele>49.0</ele><time>2026-05-01T14:48:17.276Z</time></trkpt><trkpt lat="42.3274951" lon="14.1035165"><ele>49.0</ele><time>2026-05-01T14:48:18.265Z</time></trkpt><trkpt lat="42.3275397" lon="14.1036599"><ele>49.0</ele><time>2026-05-01T14:48:19.277Z</time></trkpt><trkpt lat="42.3275854" lon="14.1038081"><ele>49.0</ele><time>2026-05-01T14:48:20.267Z</time></trkpt><trkpt lat="42.3276298" lon="14.1039563"><ele>48.5</ele><time>2026-05-01T14:48:21.268Z</time></trkpt><trkpt lat="42.3276798" lon="14.1040998"><ele>48.0</ele><time>2026-05-01T14:48:22.269Z</time></trkpt><trkpt lat="42.3277263" lon="14.1042444"><ele>47.5</ele><time>2026-05-01T14:48:23.274Z</time></trkpt><trkpt lat="42.3277714" lon="14.1043884"><ele>47.0</ele><time>2026-05-01T14:48:24.269Z</time></trkpt><trkpt lat="42.3278156" lon="14.1045295"><ele>47.0</ele><time>2026-05-01T14:48:25.271Z</time></trkpt><trkpt lat="42.3278598" lon="14.1046761"><ele>47.0</ele><time>2026-05-01T14:48:26.272Z</time></trkpt><trkpt lat="42.3279033" lon="14.1048238"><ele>47.0</ele><time>2026-05-01T14:48:27.279Z</time></trkpt><trkpt lat="42.3279488" lon="14.1049699"><ele>47.0</ele><time>2026-05-01T14:48:28.274Z</time></trkpt><trkpt lat="42.3279909" lon="14.1051126"><ele>46.75</ele><time>2026-05-01T14:48:29.27Z</time></trkpt><trkpt lat="42.3280363" lon="14.1052535"><ele>46.5</ele><time>2026-05-01T14:48:30.285Z</time></trkpt><trkpt lat="42.3280828" lon="14.1053943"><ele>46.25</ele><time>2026-05-01T14:48:31.27Z</time></trkpt><trkpt lat="42.3281297" lon="14.1055391"><ele>46.0</ele><time>2026-05-01T14:48:32.274Z</time></trkpt><trkpt lat="42.3281739" lon="14.1056846"><ele>46.0</ele><time>2026-05-01T14:48:33.28Z</time></trkpt><trkpt lat="42.3282197" lon="14.1058287"><ele>46.0</ele><time>2026-05-01T14:48:34.268Z</time></trkpt><trkpt lat="42.3282649" lon="14.1059719"><ele>46.0</ele><time>2026-05-01T14:48:35.28Z</time></trkpt><trkpt lat="42.3283079" lon="14.1061102"><ele>46.0</ele><time>2026-05-01T14:48:36.264Z</time></trkpt><trkpt lat="42.3283488" lon="14.1062528"><ele>46.0</ele><time>2026-05-01T14:48:37.274Z</time></trkpt><trkpt lat="42.3283887" lon="14.1063868"><ele>46.0</ele><time>2026-05-01T14:48:38.275Z</time></trkpt><trkpt lat="42.3284288" lon="14.1065066"><ele>46.0</ele><time>2026-05-01T14:48:39.288Z</time></trkpt><trkpt lat="42.3284657" lon="14.1066113"><ele>46.0</ele><time>2026-05-01T14:48:40.27Z</time></trkpt><trkpt lat="42.3285006" lon="14.1067099"><ele>46.0</ele><time>2026-05-01T14:48:41.274Z</time></trkpt><trkpt lat="42.328536" lon="14.1068191"><ele>46.0</ele><time>2026-05-01T14:48:42.283Z</time></trkpt><trkpt lat="42.3285742" lon="14.1069391"><ele>46.0</ele><time>2026-05-01T14:48:43.268Z</time></trkpt><trkpt lat="42.3286129" lon="14.1070656"><ele>46.0</ele><time>2026-05-01T14:48:44.278Z</time></trkpt><trkpt lat="42.3286491" lon="14.1071853"><ele>46.0</ele><time>2026-05-01T14:48:45.271Z</time></trkpt><trkpt lat="42.3286849" lon="14.107292"><ele>46.0</ele><time>2026-05-01T14:48:46.273Z</time></trkpt><trkpt lat="42.3287212" lon="14.1073986"><ele>46.0</ele><time>2026-05-01T14:48:47.284Z</time></trkpt><trkpt lat="42.3287546" lon="14.1075005"><ele>46.0</ele><time>2026-05-01T14:48:48.266Z</time></trkpt><trkpt lat="42.3287876" lon="14.1076061"><ele>46.0</ele><time>2026-05-01T14:48:49.293Z</time></trkpt><trkpt lat="42.3288209" lon="14.1077163"><ele>46.0</ele><time>2026-05-01T14:48:50.273Z</time></trkpt><trkpt lat="42.3288571" lon="14.1078296"><ele>46.0</ele><time>2026-05-01T14:48:51.284Z</time></trkpt><trkpt lat="42.3288932" lon="14.1079409"><ele>46.0</ele><time>2026-05-01T14:48:52.265Z</time></trkpt><trkpt lat="42.3289276" lon="14.1080541"><ele>45.0</ele><time>2026-05-01T14:48:53.271Z</time></trkpt><trkpt lat="42.328962" lon="14.1081717"><ele>44.0</ele><time>2026-05-01T14:48:54.273Z</time></trkpt><trkpt lat="42.3289993" lon="14.10829"><ele>43.0</ele><time>2026-05-01T14:48:55.272Z</time></trkpt><trkpt lat="42.3290333" lon="14.1084103"><ele>42.0</ele><time>2026-05-01T14:48:56.266Z</time></trkpt><trkpt lat="42.3290652" lon="14.1085382"><ele>41.0</ele><time>2026-05-01T14:48:57.273Z</time></trkpt><trkpt lat="42.3291013" lon="14.1086661"><ele>41.0</ele><time>2026-05-01T14:48:58.277Z</time></trkpt><trkpt lat="42.3291429" lon="14.1087945"><ele>41.0</ele><time>2026-05-01T14:48:59.274Z</time></trkpt><trkpt lat="42.3291871" lon="14.1089244"><ele>41.0</ele><time>2026-05-01T14:49:00.262Z</time></trkpt><trkpt lat="42.3292291" lon="14.1090618"><ele>41.0</ele><time>2026-05-01T14:49:01.275Z</time></trkpt><trkpt lat="42.3292725" lon="14.109199"><ele>41.0</ele><time>2026-05-01T14:49:02.278Z</time></trkpt><trkpt lat="42.3293167" lon="14.1093467"><ele>41.5</ele><time>2026-05-01T14:49:03.288Z</time></trkpt><trkpt lat="42.3293627" lon="14.1094967"><ele>42.0</ele><time>2026-05-01T14:49:04.257Z</time></trkpt><trkpt lat="42.32941" lon="14.1096481"><ele>42.5</ele><time>2026-05-01T14:49:05.27Z</time></trkpt><trkpt lat="42.3294589" lon="14.1097989"><ele>43.0</ele><time>2026-05-01T14:49:06.277Z</time></trkpt><trkpt lat="42.3295101" lon="14.1099534"><ele>43.25</ele><time>2026-05-01T14:49:07.276Z</time></trkpt><trkpt lat="42.3295615" lon="14.1101068"><ele>43.5</ele><time>2026-05-01T14:49:08.273Z</time></trkpt><trkpt lat="42.3296143" lon="14.1102573"><ele>43.75</ele><time>2026-05-01T14:49:09.266Z</time></trkpt><trkpt lat="42.3296596" lon="14.1104031"><ele>44.0</ele><time>2026-05-01T14:49:10.272Z</time></trkpt><trkpt lat="42.3297035" lon="14.1105504"><ele>43.6</ele><time>2026-05-01T14:49:11.267Z</time></trkpt><trkpt lat="42.3297513" lon="14.1106912"><ele>43.2</ele><time>2026-05-01T14:49:12.262Z</time></trkpt><trkpt lat="42.3297897" lon="14.1108247"><ele>42.800000000000004</ele><time>2026-05-01T14:49:13.266Z</time></trkpt><trkpt lat="42.3298321" lon="14.1109535"><ele>42.400000000000006</ele><time>2026-05-01T14:49:14.274Z</time></trkpt><trkpt lat="42.3298762" lon="14.1110859"><ele>42.0</ele><time>2026-05-01T14:49:15.273Z</time></trkpt><trkpt lat="42.3299227" lon="14.1112243"><ele>42.0</ele><time>2026-05-01T14:49:16.268Z</time></trkpt><trkpt lat="42.3299733" lon="14.1113645"><ele>42.0</ele><time>2026-05-01T14:49:17.283Z</time></trkpt><trkpt lat="42.3300239" lon="14.1115076"><ele>42.0</ele><time>2026-05-01T14:49:18.281Z</time></trkpt><trkpt lat="42.3300719" lon="14.1116572"><ele>42.0</ele><time>2026-05-01T14:49:19.277Z</time></trkpt><trkpt lat="42.3301161" lon="14.1118053"><ele>42.25</ele><time>2026-05-01T14:49:20.274Z</time></trkpt><trkpt lat="42.3301587" lon="14.1119492"><ele>42.5</ele><time>2026-05-01T14:49:21.28Z</time></trkpt><trkpt lat="42.3302012" lon="14.1120896"><ele>42.75</ele><time>2026-05-01T14:49:22.271Z</time></trkpt><trkpt lat="42.3302447" lon="14.112234"><ele>43.0</ele><time>2026-05-01T14:49:23.272Z</time></trkpt><trkpt lat="42.3302916" lon="14.1123784"><ele>43.0</ele><time>2026-05-01T14:49:24.263Z</time></trkpt><trkpt lat="42.3303361" lon="14.1125236"><ele>43.0</ele><time>2026-05-01T14:49:25.27Z</time></trkpt><trkpt lat="42.3303733" lon="14.1126568"><ele>43.0</ele><time>2026-05-01T14:49:26.276Z</time></trkpt><trkpt lat="42.3304008" lon="14.1127768"><ele>43.0</ele><time>2026-05-01T14:49:27.275Z</time></trkpt><trkpt lat="42.3304221" lon="14.1128828"><ele>43.0</ele><time>2026-05-01T14:49:28.26Z</time></trkpt><trkpt lat="42.3304313" lon="14.1129772"><ele>43.00000000000001</ele><time>2026-05-01T14:49:29.276Z</time></trkpt><trkpt lat="42.3304331" lon="14.1130653"><ele>43.0</ele><time>2026-05-01T14:49:30.283Z</time></trkpt><trkpt lat="42.3304416" lon="14.113152"><ele>43.0</ele><time>2026-05-01T14:49:31.269Z</time></trkpt><trkpt lat="42.3304717" lon="14.1132427"><ele>43.0</ele><time>2026-05-01T14:49:32.266Z</time></trkpt><trkpt lat="42.3305226" lon="14.1133107"><ele>43.0</ele><time>2026-05-01T14:49:33.272Z</time></trkpt><trkpt lat="42.3305728" lon="14.1133654"><ele>43.00000000000001</ele><time>2026-05-01T14:49:34.276Z</time></trkpt><trkpt lat="42.3306172" lon="14.113431"><ele>43.0</ele><time>2026-05-01T14:49:35.283Z</time></trkpt><trkpt lat="42.3306494" lon="14.1135238"><ele>42.0</ele><time>2026-05-01T14:49:36.279Z</time></trkpt><trkpt lat="42.3306755" lon="14.1136335"><ele>41.0</ele><time>2026-05-01T14:49:37.277Z</time></trkpt><trkpt lat="42.330708" lon="14.1137452"><ele>40.0</ele><time>2026-05-01T14:49:38.269Z</time></trkpt><trkpt lat="42.3307451" lon="14.1138609"><ele>39.0</ele><time>2026-05-01T14:49:39.27Z</time></trkpt><trkpt lat="42.3307839" lon="14.1139805"><ele>38.0</ele><time>2026-05-01T14:49:40.271Z</time></trkpt><trkpt lat="42.3308231" lon="14.1141056"><ele>38.0</ele><time>2026-05-01T14:49:41.274Z</time></trkpt><trkpt lat="42.330863" lon="14.1142315"><ele>38.0</ele><time>2026-05-01T14:49:42.271Z</time></trkpt><trkpt lat="42.3309011" lon="14.1143606"><ele>38.0</ele><time>2026-05-01T14:49:43.282Z</time></trkpt><trkpt lat="42.3309411" lon="14.1144867"><ele>38.0</ele><time>2026-05-01T14:49:44.26Z</time></trkpt><trkpt lat="42.3309854" lon="14.1146165"><ele>38.0</ele><time>2026-05-01T14:49:45.28Z</time></trkpt><trkpt lat="42.3310271" lon="14.1147492"><ele>38.0</ele><time>2026-05-01T14:49:46.267Z</time></trkpt><trkpt lat="42.331069" lon="14.1148904"><ele>38.0</ele><time>2026-05-01T14:49:47.287Z</time></trkpt><trkpt lat="42.3311111" lon="14.1150252"><ele>38.0</ele><time>2026-05-01T14:49:48.273Z</time></trkpt><trkpt lat="42.3311524" lon="14.1151596"><ele>38.0</ele><time>2026-05-01T14:49:49.277Z</time></trkpt><trkpt lat="42.3311944" lon="14.1152914"><ele>38.0</ele><time>2026-05-01T14:49:50.277Z</time></trkpt><trkpt lat="42.3312329" lon="14.1154217"><ele>38.0</ele><time>2026-05-01T14:49:51.276Z</time></trkpt><trkpt lat="42.3312689" lon="14.115547"><ele>38.0</ele><time>2026-05-01T14:49:52.269Z</time></trkpt><trkpt lat="42.3313052" lon="14.1156673"><ele>38.0</ele><time>2026-05-01T14:49:53.27Z</time></trkpt><trkpt lat="42.3313441" lon="14.1157881"><ele>38.0</ele><time>2026-05-01T14:49:54.268Z</time></trkpt><trkpt lat="42.3313841" lon="14.1159116"><ele>38.0</ele><time>2026-05-01T14:49:55.267Z</time></trkpt><trkpt lat="42.3314223" lon="14.1160361"><ele>38.0</ele><time>2026-05-01T14:49:56.281Z</time></trkpt><trkpt lat="42.3314593" lon="14.1161592"><ele>38.0</ele><time>2026-05-01T14:49:57.273Z</time></trkpt><trkpt lat="42.3314986" lon="14.116287"><ele>38.0</ele><time>2026-05-01T14:49:58.266Z</time></trkpt><trkpt lat="42.3315425" lon="14.116418"><ele>38.0</ele><time>2026-05-01T14:49:59.28Z</time></trkpt><trkpt lat="42.3315847" lon="14.1165512"><ele>38.0</ele><time>2026-05-01T14:50:00.278Z</time></trkpt><trkpt lat="42.3316295" lon="14.1166857"><ele>38.0</ele><time>2026-05-01T14:50:01.278Z</time></trkpt><trkpt lat="42.3316708" lon="14.1168184"><ele>38.0</ele><time>2026-05-01T14:50:02.257Z</time></trkpt><trkpt lat="42.3317123" lon="14.1169526"><ele>38.0</ele><time>2026-05-01T14:50:03.276Z</time></trkpt><trkpt lat="42.3317532" lon="14.1170818"><ele>38.0</ele><time>2026-05-01T14:50:04.272Z</time></trkpt><trkpt lat="42.3317946" lon="14.1172109"><ele>38.0</ele><time>2026-05-01T14:50:05.275Z</time></trkpt><trkpt lat="42.3318376" lon="14.1173413"><ele>38.4</ele><time>2026-05-01T14:50:06.265Z</time></trkpt><trkpt lat="42.3318811" lon="14.1174748"><ele>38.8</ele><time>2026-05-01T14:50:07.287Z</time></trkpt><trkpt lat="42.331922" lon="14.1176131"><ele>39.2</ele><time>2026-05-01T14:50:08.285Z</time></trkpt><trkpt lat="42.3319648" lon="14.1177506"><ele>39.6</ele><time>2026-05-01T14:50:09.282Z</time></trkpt><trkpt lat="42.3320102" lon="14.1178852"><ele>40.0</ele><time>2026-05-01T14:50:10.276Z</time></trkpt><trkpt lat="42.3320548" lon="14.1180211"><ele>40.0</ele><time>2026-05-01T14:50:11.277Z</time></trkpt><trkpt lat="42.3320972" lon="14.118154"><ele>40.0</ele><time>2026-05-01T14:50:12.275Z</time></trkpt><trkpt lat="42.3321384" lon="14.1182828"><ele>40.0</ele><time>2026-05-01T14:50:13.276Z</time></trkpt><trkpt lat="42.3321765" lon="14.1184046"><ele>40.0</ele><time>2026-05-01T14:50:14.279Z</time></trkpt><trkpt lat="42.3322153" lon="14.1185296"><ele>40.0</ele><time>2026-05-01T14:50:15.262Z</time></trkpt><trkpt lat="42.3322571" lon="14.1186549"><ele>39.6</ele><time>2026-05-01T14:50:16.245Z</time></trkpt><trkpt lat="42.3322985" lon="14.1187837"><ele>39.2</ele><time>2026-05-01T14:50:17.276Z</time></trkpt><trkpt lat="42.3323394" lon="14.1189079"><ele>38.8</ele><time>2026-05-01T14:50:18.267Z</time></trkpt><trkpt lat="42.3323815" lon="14.1190336"><ele>38.4</ele><time>2026-05-01T14:50:19.283Z</time></trkpt><trkpt lat="42.3324228" lon="14.1191618"><ele>38.0</ele><time>2026-05-01T14:50:20.272Z</time></trkpt><trkpt lat="42.3324621" lon="14.119293"><ele>37.8</ele><time>2026-05-01T14:50:21.276Z</time></trkpt><trkpt lat="42.332504" lon="14.1194284"><ele>37.599999999999994</ele><time>2026-05-01T14:50:22.265Z</time></trkpt><trkpt lat="42.332548" lon="14.1195618"><ele>37.400000000000006</ele><time>2026-05-01T14:50:23.27Z</time></trkpt><trkpt lat="42.3325924" lon="14.1196974"><ele>37.2</ele><time>2026-05-01T14:50:24.272Z</time></trkpt><trkpt lat="42.3326307" lon="14.1198404"><ele>37.0</ele><time>2026-05-01T14:50:25.276Z</time></trkpt><trkpt lat="42.3326664" lon="14.1199841"><ele>37.75</ele><time>2026-05-01T14:50:26.279Z</time></trkpt><trkpt lat="42.332704" lon="14.1201302"><ele>38.5</ele><time>2026-05-01T14:50:27.273Z</time></trkpt><trkpt lat="42.3327493" lon="14.1202741"><ele>39.25</ele><time>2026-05-01T14:50:28.268Z</time></trkpt><trkpt lat="42.3327969" lon="14.1204155"><ele>40.0</ele><time>2026-05-01T14:50:29.279Z</time></trkpt><trkpt lat="42.3328437" lon="14.1205572"><ele>40.0</ele><time>2026-05-01T14:50:30.295Z</time></trkpt><trkpt lat="42.3328894" lon="14.1206936"><ele>40.0</ele><time>2026-05-01T14:50:31.268Z</time></trkpt><trkpt lat="42.3329313" lon="14.1208317"><ele>40.0</ele><time>2026-05-01T14:50:32.276Z</time></trkpt><trkpt lat="42.3329769" lon="14.1209708"><ele>40.0</ele><time>2026-05-01T14:50:33.264Z</time></trkpt><trkpt lat="42.3330195" lon="14.1211085"><ele>40.0</ele><time>2026-05-01T14:50:34.278Z</time></trkpt><trkpt lat="42.3330614" lon="14.1212413"><ele>40.4</ele><time>2026-05-01T14:50:35.274Z</time></trkpt><trkpt lat="42.3331033" lon="14.1213737"><ele>40.8</ele><time>2026-05-01T14:50:36.272Z</time></trkpt><trkpt lat="42.333145" lon="14.1215043"><ele>41.2</ele><time>2026-05-01T14:50:37.277Z</time></trkpt><trkpt lat="42.3331869" lon="14.1216266"><ele>41.6</ele><time>2026-05-01T14:50:38.275Z</time></trkpt><trkpt lat="42.3332267" lon="14.1217477"><ele>42.0</ele><time>2026-05-01T14:50:39.282Z</time></trkpt><trkpt lat="42.3332659" lon="14.1218685"><ele>42.0</ele><time>2026-05-01T14:50:40.278Z</time></trkpt><trkpt lat="42.3333059" lon="14.1219925"><ele>42.0</ele><time>2026-05-01T14:50:41.268Z</time></trkpt><trkpt lat="42.3333491" lon="14.1221177"><ele>42.0</ele><time>2026-05-01T14:50:42.267Z</time></trkpt><trkpt lat="42.3333909" lon="14.1222434"><ele>42.0</ele><time>2026-05-01T14:50:43.268Z</time></trkpt><trkpt lat="42.3334317" lon="14.1223692"><ele>42.0</ele><time>2026-05-01T14:50:44.277Z</time></trkpt><trkpt lat="42.3334748" lon="14.1225054"><ele>42.5</ele><time>2026-05-01T14:50:45.273Z</time></trkpt><trkpt lat="42.3335186" lon="14.1226463"><ele>43.0</ele><time>2026-05-01T14:50:46.274Z</time></trkpt><trkpt lat="42.3335634" lon="14.1227859"><ele>43.5</ele><time>2026-05-01T14:50:47.287Z</time></trkpt><trkpt lat="42.3336111" lon="14.1229316"><ele>44.0</ele><time>2026-05-01T14:50:48.278Z</time></trkpt><trkpt lat="42.3336585" lon="14.1230778"><ele>43.75</ele><time>2026-05-01T14:50:49.248Z</time></trkpt><trkpt lat="42.333708" lon="14.1232342"><ele>43.5</ele><time>2026-05-01T14:50:50.279Z</time></trkpt><trkpt lat="42.333756" lon="14.1233974"><ele>43.25</ele><time>2026-05-01T14:50:51.272Z</time></trkpt><trkpt lat="42.3338042" lon="14.1235577"><ele>43.0</ele><time>2026-05-01T14:50:52.268Z</time></trkpt><trkpt lat="42.3338537" lon="14.1237212"><ele>42.75</ele><time>2026-05-01T14:50:53.27Z</time></trkpt><trkpt lat="42.3339057" lon="14.1238835"><ele>42.5</ele><time>2026-05-01T14:50:54.274Z</time></trkpt><trkpt lat="42.3339523" lon="14.1240405"><ele>42.25</ele><time>2026-05-01T14:50:55.268Z</time></trkpt><trkpt lat="42.3339999" lon="14.1241902"><ele>42.0</ele><time>2026-05-01T14:50:56.263Z</time></trkpt><trkpt lat="42.3340479" lon="14.1243386"><ele>41.75</ele><time>2026-05-01T14:50:57.275Z</time></trkpt><trkpt lat="42.3340931" lon="14.1244899"><ele>41.5</ele><time>2026-05-01T14:50:58.28Z</time></trkpt><trkpt lat="42.3341392" lon="14.1246386"><ele>41.25</ele><time>2026-05-01T14:50:59.265Z</time></trkpt><trkpt lat="42.3341856" lon="14.1247885"><ele>41.0</ele><time>2026-05-01T14:51:00.298Z</time></trkpt><trkpt lat="42.3342288" lon="14.1249266"><ele>41.4</ele><time>2026-05-01T14:51:01.27Z</time></trkpt><trkpt lat="42.3342726" lon="14.1250581"><ele>41.8</ele><time>2026-05-01T14:51:02.281Z</time></trkpt><trkpt lat="42.3343146" lon="14.1251916"><ele>42.199999999999996</ele><time>2026-05-01T14:51:03.288Z</time></trkpt><trkpt lat="42.334357" lon="14.1253241"><ele>42.599999999999994</ele><time>2026-05-01T14:51:04.271Z</time></trkpt><trkpt lat="42.3344005" lon="14.1254587"><ele>43.0</ele><time>2026-05-01T14:51:05.268Z</time></trkpt><trkpt lat="42.3344441" lon="14.1255932"><ele>43.4</ele><time>2026-05-01T14:51:06.268Z</time></trkpt><trkpt lat="42.3344866" lon="14.125729"><ele>43.8</ele><time>2026-05-01T14:51:07.272Z</time></trkpt><trkpt lat="42.3345294" lon="14.1258635"><ele>44.2</ele><time>2026-05-01T14:51:08.27Z</time></trkpt><trkpt lat="42.3345707" lon="14.1259946"><ele>44.6</ele><time>2026-05-01T14:51:09.274Z</time></trkpt><trkpt lat="42.3346101" lon="14.1261206"><ele>45.0</ele><time>2026-05-01T14:51:10.282Z</time></trkpt><trkpt lat="42.3346506" lon="14.1262431"><ele>45.0</ele><time>2026-05-01T14:51:11.277Z</time></trkpt><trkpt lat="42.3346903" lon="14.1263715"><ele>45.0</ele><time>2026-05-01T14:51:12.272Z</time></trkpt><trkpt lat="42.334729" lon="14.1265016"><ele>45.0</ele><time>2026-05-01T14:51:13.268Z</time></trkpt><trkpt lat="42.334769" lon="14.1266314"><ele>45.0</ele><time>2026-05-01T14:51:14.264Z</time></trkpt><trkpt lat="42.334811" lon="14.1267633"><ele>45.0</ele><time>2026-05-01T14:51:15.275Z</time></trkpt><trkpt lat="42.3348501" lon="14.126893"><ele>45.2</ele><time>2026-05-01T14:51:16.267Z</time></trkpt><trkpt lat="42.3348939" lon="14.1270277"><ele>45.4</ele><time>2026-05-01T14:51:17.28Z</time></trkpt><trkpt lat="42.3349432" lon="14.1271637"><ele>45.599999999999994</ele><time>2026-05-01T14:51:18.275Z</time></trkpt><trkpt lat="42.3349886" lon="14.1272976"><ele>45.8</ele><time>2026-05-01T14:51:19.269Z</time></trkpt><trkpt lat="42.3350281" lon="14.1274279"><ele>46.0</ele><time>2026-05-01T14:51:20.263Z</time></trkpt><trkpt lat="42.3350687" lon="14.1275654"><ele>46.4</ele><time>2026-05-01T14:51:21.27Z</time></trkpt><trkpt lat="42.3351069" lon="14.1277022"><ele>46.8</ele><time>2026-05-01T14:51:22.272Z</time></trkpt><trkpt lat="42.3351464" lon="14.1278372"><ele>47.199999999999996</ele><time>2026-05-01T14:51:23.282Z</time></trkpt><trkpt lat="42.3351859" lon="14.1279676"><ele>47.599999999999994</ele><time>2026-05-01T14:51:24.277Z</time></trkpt><trkpt lat="42.3352255" lon="14.1280958"><ele>48.0</ele><time>2026-05-01T14:51:25.28Z</time></trkpt><trkpt lat="42.3352635" lon="14.1282219"><ele>48.2</ele><time>2026-05-01T14:51:26.277Z</time></trkpt><trkpt lat="42.3352984" lon="14.1283502"><ele>48.4</ele><time>2026-05-01T14:51:27.265Z</time></trkpt><trkpt lat="42.3353387" lon="14.1284796"><ele>48.6</ele><time>2026-05-01T14:51:28.264Z</time></trkpt><trkpt lat="42.3353852" lon="14.1286066"><ele>48.800000000000004</ele><time>2026-05-01T14:51:29.275Z</time></trkpt><trkpt lat="42.3354269" lon="14.1287321"><ele>49.0</ele><time>2026-05-01T14:51:30.274Z</time></trkpt><trkpt lat="42.3354688" lon="14.1288615"><ele>49.0</ele><time>2026-05-01T14:51:31.27Z</time></trkpt><trkpt lat="42.3355128" lon="14.1289915"><ele>49.0</ele><time>2026-05-01T14:51:32.289Z</time></trkpt><trkpt lat="42.3355539" lon="14.129124"><ele>49.0</ele><time>2026-05-01T14:51:33.276Z</time></trkpt><trkpt lat="42.335594" lon="14.1292532"><ele>49.0</ele><time>2026-05-01T14:51:34.269Z</time></trkpt><trkpt lat="42.3356336" lon="14.1293801"><ele>49.0</ele><time>2026-05-01T14:51:35.266Z</time></trkpt><trkpt lat="42.3356757" lon="14.1295105"><ele>49.2</ele><time>2026-05-01T14:51:36.268Z</time></trkpt><trkpt lat="42.3357161" lon="14.1296446"><ele>49.400000000000006</ele><time>2026-05-01T14:51:37.277Z</time></trkpt><trkpt lat="42.3357599" lon="14.1297723"><ele>49.6</ele><time>2026-05-01T14:51:38.259Z</time></trkpt><trkpt lat="42.3358012" lon="14.1299048"><ele>49.8</ele><time>2026-05-01T14:51:39.282Z</time></trkpt><trkpt lat="42.3358399" lon="14.1300386"><ele>50.0</ele><time>2026-05-01T14:51:40.269Z</time></trkpt><trkpt lat="42.335884" lon="14.130177"><ele>50.4</ele><time>2026-05-01T14:51:41.268Z</time></trkpt><trkpt lat="42.335927" lon="14.1303148"><ele>50.8</ele><time>2026-05-01T14:51:42.275Z</time></trkpt><trkpt lat="42.335968" lon="14.1304544"><ele>51.2</ele><time>2026-05-01T14:51:43.283Z</time></trkpt><trkpt lat="42.3360148" lon="14.130593"><ele>51.6</ele><time>2026-05-01T14:51:44.273Z</time></trkpt><trkpt lat="42.3360619" lon="14.1307353"><ele>52.0</ele><time>2026-05-01T14:51:45.266Z</time></trkpt><trkpt lat="42.3361067" lon="14.1308799"><ele>52.0</ele><time>2026-05-01T14:51:46.284Z</time></trkpt><trkpt lat="42.3361495" lon="14.1310288"><ele>52.0</ele><time>2026-05-01T14:51:47.269Z</time></trkpt><trkpt lat="42.3361953" lon="14.1311766"><ele>52.0</ele><time>2026-05-01T14:51:48.272Z</time></trkpt><trkpt lat="42.3362431" lon="14.1313266"><ele>52.0</ele><time>2026-05-01T14:51:49.275Z</time></trkpt><trkpt lat="42.3362958" lon="14.1314791"><ele>52.0</ele><time>2026-05-01T14:51:50.278Z</time></trkpt><trkpt lat="42.3363423" lon="14.1316377"><ele>52.0</ele><time>2026-05-01T14:51:51.28Z</time></trkpt><trkpt lat="42.3363931" lon="14.1317927"><ele>52.0</ele><time>2026-05-01T14:51:52.274Z</time></trkpt><trkpt lat="42.336456" lon="14.1319392"><ele>52.0</ele><time>2026-05-01T14:51:53.275Z</time></trkpt><trkpt lat="42.3365243" lon="14.1320882"><ele>52.0</ele><time>2026-05-01T14:51:54.254Z</time></trkpt><trkpt lat="42.3366049" lon="14.1322327"><ele>52.0</ele><time>2026-05-01T14:51:55.249Z</time></trkpt><trkpt lat="42.3366951" lon="14.1323564"><ele>52.0</ele><time>2026-05-01T14:51:56.246Z</time></trkpt><trkpt lat="42.3367894" lon="14.1324715"><ele>52.0</ele><time>2026-05-01T14:51:57.245Z</time></trkpt><trkpt lat="42.3368848" lon="14.1325721"><ele>52.5</ele><time>2026-05-01T14:51:58.288Z</time></trkpt><trkpt lat="42.3369855" lon="14.1326624"><ele>53.0</ele><time>2026-05-01T14:51:59.261Z</time></trkpt><trkpt lat="42.3370921" lon="14.1327412"><ele>53.5</ele><time>2026-05-01T14:52:00.278Z</time></trkpt><trkpt lat="42.3372026" lon="14.1328086"><ele>54.0</ele><time>2026-05-01T14:52:01.276Z</time></trkpt><trkpt lat="42.3373197" lon="14.1328597"><ele>54.25</ele><time>2026-05-01T14:52:02.262Z</time></trkpt><trkpt lat="42.3374227" lon="14.1329066"><ele>54.5</ele><time>2026-05-01T14:52:03.271Z</time></trkpt><trkpt lat="42.3375286" lon="14.1329575"><ele>54.75</ele><time>2026-05-01T14:52:04.262Z</time></trkpt><trkpt lat="42.3376388" lon="14.1329982"><ele>55.0</ele><time>2026-05-01T14:52:05.261Z</time></trkpt><trkpt lat="42.3377562" lon="14.1330289"><ele>55.0</ele><time>2026-05-01T14:52:06.255Z</time></trkpt><trkpt lat="42.3378684" lon="14.1330571"><ele>55.0</ele><time>2026-05-01T14:52:07.277Z</time></trkpt><trkpt lat="42.337983" lon="14.1330835"><ele>55.0</ele><time>2026-05-01T14:52:08.271Z</time></trkpt><trkpt lat="42.3381004" lon="14.1331171"><ele>55.0</ele><time>2026-05-01T14:52:09.27Z</time></trkpt><trkpt lat="42.3382193" lon="14.1331515"><ele>55.0</ele><time>2026-05-01T14:52:10.275Z</time></trkpt><trkpt lat="42.3383305" lon="14.1331863"><ele>55.0</ele><time>2026-05-01T14:52:11.268Z</time></trkpt><trkpt lat="42.3384349" lon="14.1332197"><ele>55.0</ele><time>2026-05-01T14:52:12.274Z</time></trkpt><trkpt lat="42.3385431" lon="14.1332625"><ele>55.0</ele><time>2026-05-01T14:52:13.268Z</time></trkpt><trkpt lat="42.3386507" lon="14.1332997"><ele>55.0</ele><time>2026-05-01T14:52:14.261Z</time></trkpt><trkpt lat="42.3387639" lon="14.1333322"><ele>55.0</ele><time>2026-05-01T14:52:15.275Z</time></trkpt><trkpt lat="42.3388746" lon="14.1333647"><ele>55.0</ele><time>2026-05-01T14:52:16.274Z</time></trkpt><trkpt lat="42.3389863" lon="14.1333975"><ele>55.0</ele><time>2026-05-01T14:52:17.275Z</time></trkpt><trkpt lat="42.3390991" lon="14.1334257"><ele>55.0</ele><time>2026-05-01T14:52:18.278Z</time></trkpt><trkpt lat="42.3392093" lon="14.1334589"><ele>55.0</ele><time>2026-05-01T14:52:19.277Z</time></trkpt><trkpt lat="42.3393154" lon="14.1334903"><ele>55.0</ele><time>2026-05-01T14:52:20.267Z</time></trkpt><trkpt lat="42.3394204" lon="14.1335234"><ele>55.0</ele><time>2026-05-01T14:52:21.284Z</time></trkpt><trkpt lat="42.3395228" lon="14.1335552"><ele>55.0</ele><time>2026-05-01T14:52:22.273Z</time></trkpt><trkpt lat="42.3396305" lon="14.1335796"><ele>55.0</ele><time>2026-05-01T14:52:23.273Z</time></trkpt><trkpt lat="42.3397325" lon="14.1336133"><ele>55.0</ele><time>2026-05-01T14:52:24.269Z</time></trkpt><trkpt lat="42.3398333" lon="14.1336448"><ele>55.0</ele><time>2026-05-01T14:52:25.27Z</time></trkpt><trkpt lat="42.3399299" lon="14.1336786"><ele>55.0</ele><time>2026-05-01T14:52:26.268Z</time></trkpt><trkpt lat="42.3400278" lon="14.1337085"><ele>55.0</ele><time>2026-05-01T14:52:27.28Z</time></trkpt><trkpt lat="42.340118" lon="14.1337344"><ele>55.0</ele><time>2026-05-01T14:52:28.283Z</time></trkpt><trkpt lat="42.3402024" lon="14.1337651"><ele>54.99999999999999</ele><time>2026-05-01T14:52:29.271Z</time></trkpt><trkpt lat="42.3402819" lon="14.1337927"><ele>55.0</ele><time>2026-05-01T14:52:30.259Z</time></trkpt><trkpt lat="42.340352" lon="14.1338246"><ele>55.0</ele><time>2026-05-01T14:52:31.287Z</time></trkpt><trkpt lat="42.3404127" lon="14.1338648"><ele>55.0</ele><time>2026-05-01T14:52:32.267Z</time></trkpt><trkpt lat="42.3405132" lon="14.1339635"><ele>54.99999999999999</ele><time>2026-05-01T14:52:34.263Z</time></trkpt><trkpt lat="42.3405742" lon="14.1339981"><ele>55.0</ele><time>2026-05-01T14:52:35.27Z</time></trkpt><trkpt lat="42.3406846" lon="14.1339509"><ele>54.666666666666664</ele><time>2026-05-01T14:52:37.267Z</time></trkpt><trkpt lat="42.3407152" lon="14.1337823"><ele>54.33333333333333</ele><time>2026-05-01T14:52:39.278Z</time></trkpt><trkpt lat="42.3406863" lon="14.1336882"><ele>54.0</ele><time>2026-05-01T14:52:40.277Z</time></trkpt><trkpt lat="42.3406598" lon="14.1336029"><ele>53.66666666666667</ele><time>2026-05-01T14:52:41.28Z</time></trkpt><trkpt lat="42.340681" lon="14.1334979"><ele>53.333333333333336</ele><time>2026-05-01T14:52:42.276Z</time></trkpt><trkpt lat="42.3407134" lon="14.1333902"><ele>53.0</ele><time>2026-05-01T14:52:43.265Z</time></trkpt><trkpt lat="42.3407519" lon="14.1332853"><ele>52.599999999999994</ele><time>2026-05-01T14:52:44.268Z</time></trkpt><trkpt lat="42.3408059" lon="14.1331884"><ele>52.199999999999996</ele><time>2026-05-01T14:52:45.273Z</time></trkpt><trkpt lat="42.3408752" lon="14.1330815"><ele>51.8</ele><time>2026-05-01T14:52:46.264Z</time></trkpt><trkpt lat="42.3409408" lon="14.1329674"><ele>51.4</ele><time>2026-05-01T14:52:47.265Z</time></trkpt><trkpt lat="42.341006" lon="14.1328511"><ele>51.0</ele><time>2026-05-01T14:52:48.269Z</time></trkpt><trkpt lat="42.3410797" lon="14.132731"><ele>51.0</ele><time>2026-05-01T14:52:49.267Z</time></trkpt><trkpt lat="42.3411635" lon="14.1326091"><ele>51.0</ele><time>2026-05-01T14:52:50.264Z</time></trkpt><trkpt lat="42.341252" lon="14.1324895"><ele>51.0</ele><time>2026-05-01T14:52:51.268Z</time></trkpt><trkpt lat="42.341332" lon="14.1323613"><ele>51.0</ele><time>2026-05-01T14:52:52.265Z</time></trkpt><trkpt lat="42.341408" lon="14.1322302"><ele>50.25</ele><time>2026-05-01T14:52:53.274Z</time></trkpt><trkpt lat="42.3414734" lon="14.132085"><ele>49.5</ele><time>2026-05-01T14:52:54.271Z</time></trkpt><trkpt lat="42.3415281" lon="14.1319369"><ele>48.75</ele><time>2026-05-01T14:52:55.27Z</time></trkpt><trkpt lat="42.341575" lon="14.1317913"><ele>48.0</ele><time>2026-05-01T14:52:56.27Z</time></trkpt><trkpt lat="42.3416189" lon="14.1316555"><ele>47.8</ele><time>2026-05-01T14:52:57.27Z</time></trkpt><trkpt lat="42.3416598" lon="14.1315289"><ele>47.599999999999994</ele><time>2026-05-01T14:52:58.257Z</time></trkpt><trkpt lat="42.3417012" lon="14.1314031"><ele>47.400000000000006</ele><time>2026-05-01T14:52:59.267Z</time></trkpt><trkpt lat="42.3417428" lon="14.1312879"><ele>47.2</ele><time>2026-05-01T14:53:00.267Z</time></trkpt><trkpt lat="42.3417933" lon="14.1311671"><ele>47.0</ele><time>2026-05-01T14:53:01.26Z</time></trkpt><trkpt lat="42.3418348" lon="14.1310485"><ele>47.0</ele><time>2026-05-01T14:53:02.251Z</time></trkpt><trkpt lat="42.3418686" lon="14.1309107"><ele>47.0</ele><time>2026-05-01T14:53:03.271Z</time></trkpt><trkpt lat="42.3418983" lon="14.1307503"><ele>47.0</ele><time>2026-05-01T14:53:04.272Z</time></trkpt><trkpt lat="42.3419315" lon="14.130593"><ele>47.0</ele><time>2026-05-01T14:53:05.265Z</time></trkpt><trkpt lat="42.3419642" lon="14.1304382"><ele>46.8</ele><time>2026-05-01T14:53:06.264Z</time></trkpt><trkpt lat="42.3419927" lon="14.1302848"><ele>46.6</ele><time>2026-05-01T14:53:07.266Z</time></trkpt><trkpt lat="42.3420207" lon="14.1301392"><ele>46.4</ele><time>2026-05-01T14:53:08.25Z</time></trkpt><trkpt lat="42.3420345" lon="14.130007"><ele>46.199999999999996</ele><time>2026-05-01T14:53:09.267Z</time></trkpt><trkpt lat="42.3420468" lon="14.1298892"><ele>46.0</ele><time>2026-05-01T14:53:10.262Z</time></trkpt><trkpt lat="42.3420589" lon="14.1297896"><ele>45.66666666666667</ele><time>2026-05-01T14:53:11.273Z</time></trkpt><trkpt lat="42.3420876" lon="14.129696"><ele>45.333333333333336</ele><time>2026-05-01T14:53:12.265Z</time></trkpt><trkpt lat="42.3421315" lon="14.1296022"><ele>45.0</ele><time>2026-05-01T14:53:13.266Z</time></trkpt><trkpt lat="42.3421641" lon="14.129499"><ele>44.666666666666664</ele><time>2026-05-01T14:53:14.263Z</time></trkpt><trkpt lat="42.3421737" lon="14.1293904"><ele>44.33333333333333</ele><time>2026-05-01T14:53:15.262Z</time></trkpt><trkpt lat="42.3421524" lon="14.1292769"><ele>44.0</ele><time>2026-05-01T14:53:16.26Z</time></trkpt><trkpt lat="42.3420974" lon="14.1291968"><ele>44.0</ele><time>2026-05-01T14:53:17.27Z</time></trkpt><trkpt lat="42.3420188" lon="14.1291394"><ele>44.0</ele><time>2026-05-01T14:53:18.27Z</time></trkpt><trkpt lat="42.3419429" lon="14.1290601"><ele>44.0</ele><time>2026-05-01T14:53:19.27Z</time></trkpt><trkpt lat="42.3418869" lon="14.1289235"><ele>44.0</ele><time>2026-05-01T14:53:20.271Z</time></trkpt><trkpt lat="42.3418503" lon="14.128778"><ele>44.0</ele><time>2026-05-01T14:53:21.262Z</time></trkpt><trkpt lat="42.3418186" lon="14.1286071"><ele>42.75</ele><time>2026-05-01T14:53:22.265Z</time></trkpt><trkpt lat="42.3417802" lon="14.1284302"><ele>41.5</ele><time>2026-05-01T14:53:23.258Z</time></trkpt><trkpt lat="42.3417384" lon="14.1282436"><ele>40.25</ele><time>2026-05-01T14:53:24.267Z</time></trkpt><trkpt lat="42.3417017" lon="14.1280576"><ele>39.0</ele><time>2026-05-01T14:53:25.265Z</time></trkpt><trkpt lat="42.3416743" lon="14.1278684"><ele>38.5</ele><time>2026-05-01T14:53:26.272Z</time></trkpt><trkpt lat="42.3416443" lon="14.1276752"><ele>38.0</ele><time>2026-05-01T14:53:27.268Z</time></trkpt><trkpt lat="42.3416169" lon="14.1274797"><ele>37.5</ele><time>2026-05-01T14:53:28.268Z</time></trkpt><trkpt lat="42.3415846" lon="14.1272836"><ele>37.0</ele><time>2026-05-01T14:53:29.278Z</time></trkpt><trkpt lat="42.3415503" lon="14.1270911"><ele>36.333333333333336</ele><time>2026-05-01T14:53:30.262Z</time></trkpt><trkpt lat="42.3415158" lon="14.1268934"><ele>35.666666666666664</ele><time>2026-05-01T14:53:31.27Z</time></trkpt><trkpt lat="42.3414806" lon="14.1266958"><ele>35.0</ele><time>2026-05-01T14:53:32.266Z</time></trkpt><trkpt lat="42.3414461" lon="14.126489"><ele>35.0</ele><time>2026-05-01T14:53:33.266Z</time></trkpt><trkpt lat="42.3414134" lon="14.1262846"><ele>35.0</ele><time>2026-05-01T14:53:34.288Z</time></trkpt><trkpt lat="42.3413804" lon="14.1260782"><ele>35.0</ele><time>2026-05-01T14:53:35.266Z</time></trkpt><trkpt lat="42.3413443" lon="14.1258719"><ele>34.666666666666664</ele><time>2026-05-01T14:53:36.281Z</time></trkpt><trkpt lat="42.3413094" lon="14.1256606"><ele>34.333333333333336</ele><time>2026-05-01T14:53:37.257Z</time></trkpt><trkpt lat="42.3412712" lon="14.1254509"><ele>34.0</ele><time>2026-05-01T14:53:38.272Z</time></trkpt><trkpt lat="42.3412336" lon="14.1252298"><ele>34.0</ele><time>2026-05-01T14:53:39.268Z</time></trkpt><trkpt lat="42.3411981" lon="14.1250084"><ele>34.0</ele><time>2026-05-01T14:53:40.277Z</time></trkpt><trkpt lat="42.3411603" lon="14.1247883"><ele>34.0</ele><time>2026-05-01T14:53:41.266Z</time></trkpt><trkpt lat="42.3411223" lon="14.1245697"><ele>34.333333333333336</ele><time>2026-05-01T14:53:42.267Z</time></trkpt><trkpt lat="42.3410832" lon="14.1243465"><ele>34.666666666666664</ele><time>2026-05-01T14:53:43.262Z</time></trkpt><trkpt lat="42.3410442" lon="14.1241275"><ele>35.0</ele><time>2026-05-01T14:53:44.274Z</time></trkpt><trkpt lat="42.3410078" lon="14.1239049"><ele>35.0</ele><time>2026-05-01T14:53:45.267Z</time></trkpt><trkpt lat="42.3409703" lon="14.1236804"><ele>35.0</ele><time>2026-05-01T14:53:46.265Z</time></trkpt><trkpt lat="42.3409328" lon="14.1234531"><ele>35.0</ele><time>2026-05-01T14:53:47.267Z</time></trkpt><trkpt lat="42.3408943" lon="14.1232225"><ele>35.0</ele><time>2026-05-01T14:53:48.269Z</time></trkpt><trkpt lat="42.3408545" lon="14.1229968"><ele>35.0</ele><time>2026-05-01T14:53:49.274Z</time></trkpt><trkpt lat="42.3408185" lon="14.1227822"><ele>35.0</ele><time>2026-05-01T14:53:50.279Z</time></trkpt><trkpt lat="42.3407933" lon="14.1225933"><ele>35.0</ele><time>2026-05-01T14:53:51.276Z</time></trkpt><trkpt lat="42.3407848" lon="14.1224141"><ele>35.0</ele><time>2026-05-01T14:53:52.28Z</time></trkpt><trkpt lat="42.3407916" lon="14.1222435"><ele>35.0</ele><time>2026-05-01T14:53:53.287Z</time></trkpt><trkpt lat="42.3408085" lon="14.1220844"><ele>35.0</ele><time>2026-05-01T14:53:54.269Z</time></trkpt><trkpt lat="42.3408355" lon="14.1219354"><ele>34.8</ele><time>2026-05-01T14:53:55.271Z</time></trkpt><trkpt lat="42.3408788" lon="14.1218057"><ele>34.6</ele><time>2026-05-01T14:53:56.275Z</time></trkpt><trkpt lat="42.340929" lon="14.1217069"><ele>34.4</ele><time>2026-05-01T14:53:57.275Z</time></trkpt><trkpt lat="42.3409969" lon="14.1216374"><ele>34.2</ele><time>2026-05-01T14:53:58.268Z</time></trkpt><trkpt lat="42.3410748" lon="14.121583"><ele>34.0</ele><time>2026-05-01T14:53:59.268Z</time></trkpt><trkpt lat="42.3411458" lon="14.1215123"><ele>33.2</ele><time>2026-05-01T14:54:00.273Z</time></trkpt><trkpt lat="42.3412075" lon="14.1214234"><ele>32.4</ele><time>2026-05-01T14:54:01.272Z</time></trkpt><trkpt lat="42.3412185" lon="14.1212755"><ele>31.6</ele><time>2026-05-01T14:54:02.272Z</time></trkpt><trkpt lat="42.3412134" lon="14.1211085"><ele>30.8</ele><time>2026-05-01T14:54:03.266Z</time></trkpt><trkpt lat="42.3412374" lon="14.1209563"><ele>30.0</ele><time>2026-05-01T14:54:04.28Z</time></trkpt><trkpt lat="42.3413" lon="14.1208226"><ele>30.0</ele><time>2026-05-01T14:54:05.271Z</time></trkpt><trkpt lat="42.3413818" lon="14.1206949"><ele>30.0</ele><time>2026-05-01T14:54:06.285Z</time></trkpt><trkpt lat="42.3414638" lon="14.120557"><ele>30.0</ele><time>2026-05-01T14:54:07.271Z</time></trkpt><trkpt lat="42.3415414" lon="14.1204058"><ele>30.0</ele><time>2026-05-01T14:54:08.262Z</time></trkpt><trkpt lat="42.3416259" lon="14.1202486"><ele>30.25</ele><time>2026-05-01T14:54:09.27Z</time></trkpt><trkpt lat="42.3417188" lon="14.1200953"><ele>30.5</ele><time>2026-05-01T14:54:10.265Z</time></trkpt><trkpt lat="42.3418092" lon="14.1199372"><ele>30.75</ele><time>2026-05-01T14:54:11.274Z</time></trkpt><trkpt lat="42.3418978" lon="14.119773"><ele>31.0</ele><time>2026-05-01T14:54:12.238Z</time></trkpt><trkpt lat="42.3419868" lon="14.119599"><ele>31.0</ele><time>2026-05-01T14:54:13.277Z</time></trkpt><trkpt lat="42.3420777" lon="14.1194292"><ele>31.0</ele><time>2026-05-01T14:54:14.257Z</time></trkpt><trkpt lat="42.3421754" lon="14.1192546"><ele>31.0</ele><time>2026-05-01T14:54:15.285Z</time></trkpt><trkpt lat="42.3422664" lon="14.1190781"><ele>31.666666666666668</ele><time>2026-05-01T14:54:16.268Z</time></trkpt><trkpt lat="42.3423545" lon="14.1188894"><ele>32.333333333333336</ele><time>2026-05-01T14:54:17.289Z</time></trkpt><trkpt lat="42.3424327" lon="14.1186944"><ele>33.0</ele><time>2026-05-01T14:54:18.266Z</time></trkpt><trkpt lat="42.3424967" lon="14.1184835"><ele>33.0</ele><time>2026-05-01T14:54:19.265Z</time></trkpt><trkpt lat="42.3425431" lon="14.1182709"><ele>33.0</ele><time>2026-05-01T14:54:20.269Z</time></trkpt><trkpt lat="42.342583" lon="14.1180534"><ele>33.0</ele><time>2026-05-01T14:54:21.27Z</time></trkpt><trkpt lat="42.3426259" lon="14.1178324"><ele>35.0</ele><time>2026-05-01T14:54:22.272Z</time></trkpt><trkpt lat="42.3426667" lon="14.1176153"><ele>37.0</ele><time>2026-05-01T14:54:23.267Z</time></trkpt><trkpt lat="42.3427059" lon="14.1173977"><ele>39.0</ele><time>2026-05-01T14:54:24.265Z</time></trkpt><trkpt lat="42.3427442" lon="14.1171827"><ele>41.0</ele><time>2026-05-01T14:54:25.278Z</time></trkpt><trkpt lat="42.342784" lon="14.1169774"><ele>43.0</ele><time>2026-05-01T14:54:26.26Z</time></trkpt><trkpt lat="42.3428242" lon="14.1167708"><ele>45.0</ele><time>2026-05-01T14:54:27.27Z</time></trkpt><trkpt lat="42.342858" lon="14.116563"><ele>45.333333333333336</ele><time>2026-05-01T14:54:28.266Z</time></trkpt><trkpt lat="42.342891" lon="14.1163572"><ele>45.66666666666667</ele><time>2026-05-01T14:54:29.27Z</time></trkpt><trkpt lat="42.3429292" lon="14.1161577"><ele>46.0</ele><time>2026-05-01T14:54:30.27Z</time></trkpt><trkpt lat="42.3429693" lon="14.1159524"><ele>46.0</ele><time>2026-05-01T14:54:31.275Z</time></trkpt><trkpt lat="42.3430066" lon="14.1157492"><ele>46.0</ele><time>2026-05-01T14:54:32.272Z</time></trkpt><trkpt lat="42.3430403" lon="14.1155507"><ele>46.0</ele><time>2026-05-01T14:54:33.247Z</time></trkpt><trkpt lat="42.3430748" lon="14.1153539"><ele>46.5</ele><time>2026-05-01T14:54:34.267Z</time></trkpt><trkpt lat="42.3431039" lon="14.1151656"><ele>47.0</ele><time>2026-05-01T14:54:35.267Z</time></trkpt><trkpt lat="42.3431309" lon="14.1149782"><ele>47.5</ele><time>2026-05-01T14:54:36.267Z</time></trkpt><trkpt lat="42.3431581" lon="14.1147895"><ele>48.0</ele><time>2026-05-01T14:54:37.258Z</time></trkpt><trkpt lat="42.343184" lon="14.1146022"><ele>48.0</ele><time>2026-05-01T14:54:38.268Z</time></trkpt><trkpt lat="42.3432092" lon="14.1144112"><ele>48.0</ele><time>2026-05-01T14:54:39.274Z</time></trkpt><trkpt lat="42.343234" lon="14.1142188"><ele>48.0</ele><time>2026-05-01T14:54:40.268Z</time></trkpt><trkpt lat="42.3432539" lon="14.1140276"><ele>48.0</ele><time>2026-05-01T14:54:41.267Z</time></trkpt><trkpt lat="42.3432778" lon="14.1138358"><ele>47.75</ele><time>2026-05-01T14:54:42.266Z</time></trkpt><trkpt lat="42.3433016" lon="14.1136427"><ele>47.5</ele><time>2026-05-01T14:54:43.27Z</time></trkpt><trkpt lat="42.3433269" lon="14.1134492"><ele>47.25</ele><time>2026-05-01T14:54:44.275Z</time></trkpt><trkpt lat="42.3433523" lon="14.113258"><ele>47.0</ele><time>2026-05-01T14:54:45.279Z</time></trkpt><trkpt lat="42.3433792" lon="14.1130685"><ele>47.0</ele><time>2026-05-01T14:54:46.27Z</time></trkpt><trkpt lat="42.3434035" lon="14.1128804"><ele>47.0</ele><time>2026-05-01T14:54:47.268Z</time></trkpt><trkpt lat="42.3434313" lon="14.1126972"><ele>47.0</ele><time>2026-05-01T14:54:48.287Z</time></trkpt><trkpt lat="42.343453" lon="14.1125309"><ele>47.0</ele><time>2026-05-01T14:54:49.261Z</time></trkpt><trkpt lat="42.3434732" lon="14.1123715"><ele>47.0</ele><time>2026-05-01T14:54:50.283Z</time></trkpt><trkpt lat="42.3434923" lon="14.1122176"><ele>47.0</ele><time>2026-05-01T14:54:51.267Z</time></trkpt><trkpt lat="42.3435126" lon="14.1120673"><ele>47.0</ele><time>2026-05-01T14:54:52.267Z</time></trkpt><trkpt lat="42.3435314" lon="14.1119256"><ele>47.0</ele><time>2026-05-01T14:54:53.265Z</time></trkpt><trkpt lat="42.3435513" lon="14.1117886"><ele>47.0</ele><time>2026-05-01T14:54:54.266Z</time></trkpt><trkpt lat="42.3435726" lon="14.1116641"><ele>47.14285714285714</ele><time>2026-05-01T14:54:55.269Z</time></trkpt><trkpt lat="42.3436009" lon="14.111562"><ele>47.285714285714285</ele><time>2026-05-01T14:54:56.287Z</time></trkpt><trkpt lat="42.3436476" lon="14.1114817"><ele>47.42857142857143</ele><time>2026-05-01T14:54:57.251Z</time></trkpt><trkpt lat="42.3437125" lon="14.1114466"><ele>47.57142857142857</ele><time>2026-05-01T14:54:58.271Z</time></trkpt><trkpt lat="42.3437778" lon="14.1114569"><ele>47.714285714285715</ele><time>2026-05-01T14:54:59.261Z</time></trkpt><trkpt lat="42.3438423" lon="14.1115009"><ele>47.857142857142854</ele><time>2026-05-01T14:55:00.269Z</time></trkpt><trkpt lat="42.3439098" lon="14.1115568"><ele>48.0</ele><time>2026-05-01T14:55:01.266Z</time></trkpt><trkpt lat="42.3439842" lon="14.1116153"><ele>48.0</ele><time>2026-05-01T14:55:02.291Z</time></trkpt><trkpt lat="42.3440632" lon="14.1116702"><ele>48.0</ele><time>2026-05-01T14:55:03.269Z</time></trkpt><trkpt lat="42.3441497" lon="14.1117259"><ele>48.0</ele><time>2026-05-01T14:55:04.288Z</time></trkpt><trkpt lat="42.344238" lon="14.1117829"><ele>48.0</ele><time>2026-05-01T14:55:05.279Z</time></trkpt><trkpt lat="42.3443272" lon="14.1118432"><ele>48.0</ele><time>2026-05-01T14:55:06.244Z</time></trkpt><trkpt lat="42.3444239" lon="14.1119059"><ele>48.0</ele><time>2026-05-01T14:55:07.274Z</time></trkpt><trkpt lat="42.3445237" lon="14.1119658"><ele>48.0</ele><time>2026-05-01T14:55:08.272Z</time></trkpt><trkpt lat="42.3446165" lon="14.1120248"><ele>48.0</ele><time>2026-05-01T14:55:09.262Z</time></trkpt><trkpt lat="42.3447254" lon="14.1120952"><ele>48.0</ele><time>2026-05-01T14:55:10.278Z</time></trkpt><trkpt lat="42.3448319" lon="14.112166"><ele>47.599999999999994</ele><time>2026-05-01T14:55:11.269Z</time></trkpt><trkpt lat="42.3449318" lon="14.1122301"><ele>47.199999999999996</ele><time>2026-05-01T14:55:12.271Z</time></trkpt><trkpt lat="42.3450302" lon="14.1122949"><ele>46.8</ele><time>2026-05-01T14:55:13.288Z</time></trkpt><trkpt lat="42.3451338" lon="14.1123482"><ele>46.4</ele><time>2026-05-01T14:55:14.27Z</time></trkpt><trkpt lat="42.3452384" lon="14.1123975"><ele>46.0</ele><time>2026-05-01T14:55:15.264Z</time></trkpt><trkpt lat="42.3453513" lon="14.1124415"><ele>46.0</ele><time>2026-05-01T14:55:16.268Z</time></trkpt><trkpt lat="42.3454704" lon="14.1124776"><ele>46.0</ele><time>2026-05-01T14:55:17.282Z</time></trkpt><trkpt lat="42.3455917" lon="14.1125093"><ele>46.0</ele><time>2026-05-01T14:55:18.254Z</time></trkpt><trkpt lat="42.3457202" lon="14.1125427"><ele>46.0</ele><time>2026-05-01T14:55:19.277Z</time></trkpt><trkpt lat="42.3458441" lon="14.1125824"><ele>46.0</ele><time>2026-05-01T14:55:20.271Z</time></trkpt><trkpt lat="42.3459672" lon="14.1126246"><ele>46.0</ele><time>2026-05-01T14:55:21.28Z</time></trkpt><trkpt lat="42.346089" lon="14.1126634"><ele>46.0</ele><time>2026-05-01T14:55:22.271Z</time></trkpt><trkpt lat="42.3462095" lon="14.1127056"><ele>46.0</ele><time>2026-05-01T14:55:23.27Z</time></trkpt><trkpt lat="42.3463292" lon="14.1127538"><ele>45.5</ele><time>2026-05-01T14:55:24.267Z</time></trkpt><trkpt lat="42.3464488" lon="14.1128146"><ele>45.0</ele><time>2026-05-01T14:55:25.266Z</time></trkpt><trkpt lat="42.3465718" lon="14.1128738"><ele>44.5</ele><time>2026-05-01T14:55:26.268Z</time></trkpt><trkpt lat="42.3466943" lon="14.1129337"><ele>44.0</ele><time>2026-05-01T14:55:27.267Z</time></trkpt><trkpt lat="42.3468153" lon="14.1129867"><ele>44.0</ele><time>2026-05-01T14:55:28.263Z</time></trkpt><trkpt lat="42.3469352" lon="14.1130455"><ele>44.0</ele><time>2026-05-01T14:55:29.271Z</time></trkpt><trkpt lat="42.3470512" lon="14.1131041"><ele>44.0</ele><time>2026-05-01T14:55:30.281Z</time></trkpt><trkpt lat="42.3471733" lon="14.1131643"><ele>44.0</ele><time>2026-05-01T14:55:31.274Z</time></trkpt><trkpt lat="42.3472934" lon="14.1132253"><ele>44.25</ele><time>2026-05-01T14:55:32.271Z</time></trkpt><trkpt lat="42.3474142" lon="14.1132813"><ele>44.5</ele><time>2026-05-01T14:55:33.269Z</time></trkpt><trkpt lat="42.3475343" lon="14.1133413"><ele>44.75</ele><time>2026-05-01T14:55:34.268Z</time></trkpt><trkpt lat="42.3476522" lon="14.1133984"><ele>45.0</ele><time>2026-05-01T14:55:35.276Z</time></trkpt><trkpt lat="42.3477687" lon="14.1134588"><ele>45.0</ele><time>2026-05-01T14:55:36.256Z</time></trkpt><trkpt lat="42.3478886" lon="14.113516"><ele>45.0</ele><time>2026-05-01T14:55:37.277Z</time></trkpt><trkpt lat="42.3480054" lon="14.1135682"><ele>45.0</ele><time>2026-05-01T14:55:38.27Z</time></trkpt><trkpt lat="42.3481225" lon="14.1136101"><ele>45.0</ele><time>2026-05-01T14:55:39.269Z</time></trkpt><trkpt lat="42.3482361" lon="14.1136392"><ele>45.0</ele><time>2026-05-01T14:55:40.275Z</time></trkpt><trkpt lat="42.3483537" lon="14.1136528"><ele>45.0</ele><time>2026-05-01T14:55:41.265Z</time></trkpt><trkpt lat="42.3484719" lon="14.1136309"><ele>45.0</ele><time>2026-05-01T14:55:42.267Z</time></trkpt><trkpt lat="42.3485978" lon="14.1135716"><ele>45.0</ele><time>2026-05-01T14:55:43.275Z</time></trkpt><trkpt lat="42.3487163" lon="14.1134973"><ele>45.0</ele><time>2026-05-01T14:55:44.255Z</time></trkpt><trkpt lat="42.3488337" lon="14.1134277"><ele>45.0</ele><time>2026-05-01T14:55:45.265Z</time></trkpt><trkpt lat="42.3489534" lon="14.1133546"><ele>45.0</ele><time>2026-05-01T14:55:46.269Z</time></trkpt><trkpt lat="42.3490721" lon="14.113282"><ele>45.0</ele><time>2026-05-01T14:55:47.276Z</time></trkpt><trkpt lat="42.3491911" lon="14.1132006"><ele>44.0</ele><time>2026-05-01T14:55:48.263Z</time></trkpt><trkpt lat="42.3493111" lon="14.1131141"><ele>43.0</ele><time>2026-05-01T14:55:49.279Z</time></trkpt><trkpt lat="42.3494276" lon="14.1130326"><ele>42.0</ele><time>2026-05-01T14:55:50.269Z</time></trkpt><trkpt lat="42.34954" lon="14.1129546"><ele>41.0</ele><time>2026-05-01T14:55:51.281Z</time></trkpt><trkpt lat="42.3496484" lon="14.1128787"><ele>41.75</ele><time>2026-05-01T14:55:52.261Z</time></trkpt><trkpt lat="42.3497592" lon="14.1127987"><ele>42.5</ele><time>2026-05-01T14:55:53.275Z</time></trkpt><trkpt lat="42.3498765" lon="14.1127172"><ele>43.25</ele><time>2026-05-01T14:55:54.277Z</time></trkpt><trkpt lat="42.3499972" lon="14.1126543"><ele>44.0</ele><time>2026-05-01T14:55:55.277Z</time></trkpt><trkpt lat="42.3501243" lon="14.1125999"><ele>44.0</ele><time>2026-05-01T14:55:56.263Z</time></trkpt><trkpt lat="42.3502578" lon="14.1125575"><ele>44.0</ele><time>2026-05-01T14:55:57.267Z</time></trkpt><trkpt lat="42.3503968" lon="14.1125273"><ele>44.0</ele><time>2026-05-01T14:55:58.272Z</time></trkpt><trkpt lat="42.3505367" lon="14.112509"><ele>44.0</ele><time>2026-05-01T14:55:59.269Z</time></trkpt><trkpt lat="42.3506806" lon="14.1125141"><ele>44.0</ele><time>2026-05-01T14:56:00.268Z</time></trkpt><trkpt lat="42.3508188" lon="14.1125354"><ele>44.0</ele><time>2026-05-01T14:56:01.263Z</time></trkpt><trkpt lat="42.3509589" lon="14.1125685"><ele>44.0</ele><time>2026-05-01T14:56:02.266Z</time></trkpt><trkpt lat="42.3510989" lon="14.1126138"><ele>44.0</ele><time>2026-05-01T14:56:03.268Z</time></trkpt><trkpt lat="42.3512476" lon="14.1126635"><ele>42.666666666666664</ele><time>2026-05-01T14:56:04.279Z</time></trkpt><trkpt lat="42.3514015" lon="14.1127211"><ele>41.333333333333336</ele><time>2026-05-01T14:56:05.268Z</time></trkpt><trkpt lat="42.3515527" lon="14.1127855"><ele>40.0</ele><time>2026-05-01T14:56:06.252Z</time></trkpt><trkpt lat="42.3517074" lon="14.1128534"><ele>40.0</ele><time>2026-05-01T14:56:07.293Z</time></trkpt><trkpt lat="42.3518631" lon="14.1129212"><ele>40.0</ele><time>2026-05-01T14:56:08.281Z</time></trkpt><trkpt lat="42.3520224" lon="14.112986"><ele>40.0</ele><time>2026-05-01T14:56:09.276Z</time></trkpt><trkpt lat="42.3521871" lon="14.1130528"><ele>38.333333333333336</ele><time>2026-05-01T14:56:10.27Z</time></trkpt><trkpt lat="42.3523635" lon="14.1131178"><ele>36.666666666666664</ele><time>2026-05-01T14:56:11.265Z</time></trkpt><trkpt lat="42.3525491" lon="14.1131752"><ele>35.0</ele><time>2026-05-01T14:56:12.268Z</time></trkpt><trkpt lat="42.3527307" lon="14.1132344"><ele>35.0</ele><time>2026-05-01T14:56:13.271Z</time></trkpt><trkpt lat="42.3529136" lon="14.1133098"><ele>35.0</ele><time>2026-05-01T14:56:14.28Z</time></trkpt><trkpt lat="42.3530984" lon="14.1133925"><ele>35.0</ele><time>2026-05-01T14:56:15.265Z</time></trkpt><trkpt lat="42.3532898" lon="14.1134752"><ele>35.0</ele><time>2026-05-01T14:56:16.271Z</time></trkpt><trkpt lat="42.3534778" lon="14.1135588"><ele>35.0</ele><time>2026-05-01T14:56:17.273Z</time></trkpt><trkpt lat="42.3536651" lon="14.1136396"><ele>35.0</ele><time>2026-05-01T14:56:18.264Z</time></trkpt><trkpt lat="42.353855" lon="14.1137205"><ele>35.33333333333333</ele><time>2026-05-01T14:56:19.29Z</time></trkpt><trkpt lat="42.3540398" lon="14.1137954"><ele>35.666666666666664</ele><time>2026-05-01T14:56:20.267Z</time></trkpt><trkpt lat="42.3542287" lon="14.1138695"><ele>36.0</ele><time>2026-05-01T14:56:21.269Z</time></trkpt><trkpt lat="42.354415" lon="14.1139445"><ele>36.0</ele><time>2026-05-01T14:56:22.253Z</time></trkpt><trkpt lat="42.3546021" lon="14.1140214"><ele>36.0</ele><time>2026-05-01T14:56:23.283Z</time></trkpt><trkpt lat="42.3547841" lon="14.1140977"><ele>36.0</ele><time>2026-05-01T14:56:24.277Z</time></trkpt><trkpt lat="42.3549697" lon="14.1141756"><ele>36.333333333333336</ele><time>2026-05-01T14:56:25.287Z</time></trkpt><trkpt lat="42.3551496" lon="14.1142519"><ele>36.66666666666667</ele><time>2026-05-01T14:56:26.268Z</time></trkpt><trkpt lat="42.355335" lon="14.1143236"><ele>37.0</ele><time>2026-05-01T14:56:27.28Z</time></trkpt><trkpt lat="42.3555211" lon="14.1143966"><ele>40.333333333333336</ele><time>2026-05-01T14:56:28.26Z</time></trkpt><trkpt lat="42.3557079" lon="14.1144671"><ele>43.666666666666664</ele><time>2026-05-01T14:56:29.265Z</time></trkpt><trkpt lat="42.3558951" lon="14.1145366"><ele>47.0</ele><time>2026-05-01T14:56:30.265Z</time></trkpt><trkpt lat="42.3560855" lon="14.1146087"><ele>47.0</ele><time>2026-05-01T14:56:31.272Z</time></trkpt><trkpt lat="42.3562742" lon="14.1146842"><ele>47.0</ele><time>2026-05-01T14:56:32.263Z</time></trkpt><trkpt lat="42.3564656" lon="14.1147601"><ele>47.0</ele><time>2026-05-01T14:56:33.278Z</time></trkpt><trkpt lat="42.3566551" lon="14.1148361"><ele>45.0</ele><time>2026-05-01T14:56:34.278Z</time></trkpt><trkpt lat="42.3568405" lon="14.1149113"><ele>43.0</ele><time>2026-05-01T14:56:35.264Z</time></trkpt><trkpt lat="42.3570272" lon="14.1149856"><ele>41.0</ele><time>2026-05-01T14:56:36.264Z</time></trkpt><trkpt lat="42.357213" lon="14.1150609"><ele>41.0</ele><time>2026-05-01T14:56:37.266Z</time></trkpt><trkpt lat="42.3573981" lon="14.1151341"><ele>41.0</ele><time>2026-05-01T14:56:38.276Z</time></trkpt><trkpt lat="42.3575814" lon="14.1152067"><ele>41.0</ele><time>2026-05-01T14:56:39.263Z</time></trkpt><trkpt lat="42.3577704" lon="14.1152798"><ele>41.0</ele><time>2026-05-01T14:56:40.265Z</time></trkpt><trkpt lat="42.357961" lon="14.1153565"><ele>41.0</ele><time>2026-05-01T14:56:41.282Z</time></trkpt><trkpt lat="42.3581484" lon="14.1154341"><ele>41.0</ele><time>2026-05-01T14:56:42.262Z</time></trkpt><trkpt lat="42.3583416" lon="14.1155143"><ele>41.0</ele><time>2026-05-01T14:56:43.263Z</time></trkpt><trkpt lat="42.3585362" lon="14.1155965"><ele>41.0</ele><time>2026-05-01T14:56:44.266Z</time></trkpt><trkpt lat="42.3587306" lon="14.1156765"><ele>41.0</ele><time>2026-05-01T14:56:45.263Z</time></trkpt><trkpt lat="42.3589251" lon="14.1157597"><ele>39.33333333333333</ele><time>2026-05-01T14:56:46.265Z</time></trkpt><trkpt lat="42.3591213" lon="14.1158379"><ele>37.666666666666664</ele><time>2026-05-01T14:56:47.263Z</time></trkpt><trkpt lat="42.3593198" lon="14.1159148"><ele>36.0</ele><time>2026-05-01T14:56:48.262Z</time></trkpt><trkpt lat="42.3595169" lon="14.1160007"><ele>36.333333333333336</ele><time>2026-05-01T14:56:49.266Z</time></trkpt><trkpt lat="42.3597124" lon="14.1160901"><ele>36.66666666666667</ele><time>2026-05-01T14:56:50.267Z</time></trkpt><trkpt lat="42.3599101" lon="14.1161792"><ele>37.0</ele><time>2026-05-01T14:56:51.265Z</time></trkpt><trkpt lat="42.3601072" lon="14.1162668"><ele>37.0</ele><time>2026-05-01T14:56:52.266Z</time></trkpt><trkpt lat="42.360305" lon="14.1163552"><ele>37.0</ele><time>2026-05-01T14:56:53.267Z</time></trkpt><trkpt lat="42.3604982" lon="14.1164482"><ele>37.0</ele><time>2026-05-01T14:56:54.267Z</time></trkpt><trkpt lat="42.3606879" lon="14.1165388"><ele>34.66666666666667</ele><time>2026-05-01T14:56:55.265Z</time></trkpt><trkpt lat="42.3608783" lon="14.1166258"><ele>32.333333333333336</ele><time>2026-05-01T14:56:56.264Z</time></trkpt><trkpt lat="42.3610694" lon="14.1167104"><ele>30.0</ele><time>2026-05-01T14:56:57.277Z</time></trkpt><trkpt lat="42.361255" lon="14.1167921"><ele>32.0</ele><time>2026-05-01T14:56:58.265Z</time></trkpt><trkpt lat="42.3614415" lon="14.1168738"><ele>34.0</ele><time>2026-05-01T14:56:59.284Z</time></trkpt><trkpt lat="42.3616221" lon="14.1169574"><ele>36.0</ele><time>2026-05-01T14:57:00.265Z</time></trkpt><trkpt lat="42.3618034" lon="14.1170418"><ele>36.0</ele><time>2026-05-01T14:57:01.27Z</time></trkpt><trkpt lat="42.3619821" lon="14.1171231"><ele>36.0</ele><time>2026-05-01T14:57:02.263Z</time></trkpt><trkpt lat="42.3621626" lon="14.1172014"><ele>36.0</ele><time>2026-05-01T14:57:03.275Z</time></trkpt><trkpt lat="42.3623417" lon="14.1172758"><ele>33.666666666666664</ele><time>2026-05-01T14:57:04.277Z</time></trkpt><trkpt lat="42.3625214" lon="14.1173385"><ele>31.333333333333332</ele><time>2026-05-01T14:57:05.268Z</time></trkpt><trkpt lat="42.3627035" lon="14.1173922"><ele>29.0</ele><time>2026-05-01T14:57:06.265Z</time></trkpt><trkpt lat="42.3628891" lon="14.1174322"><ele>29.666666666666664</ele><time>2026-05-01T14:57:07.269Z</time></trkpt><trkpt lat="42.363077" lon="14.1174471"><ele>30.333333333333336</ele><time>2026-05-01T14:57:08.281Z</time></trkpt><trkpt lat="42.3632642" lon="14.1174522"><ele>31.0</ele><time>2026-05-01T14:57:09.271Z</time></trkpt><trkpt lat="42.3634481" lon="14.1174541"><ele>31.0</ele><time>2026-05-01T14:57:10.26Z</time></trkpt><trkpt lat="42.3636346" lon="14.1174574"><ele>31.0</ele><time>2026-05-01T14:57:11.263Z</time></trkpt><trkpt lat="42.3638214" lon="14.1174626"><ele>31.0</ele><time>2026-05-01T14:57:12.274Z</time></trkpt><trkpt lat="42.3640053" lon="14.1174737"><ele>31.666666666666668</ele><time>2026-05-01T14:57:13.286Z</time></trkpt><trkpt lat="42.3641859" lon="14.1175002"><ele>32.333333333333336</ele><time>2026-05-01T14:57:14.261Z</time></trkpt><trkpt lat="42.3643703" lon="14.1175562"><ele>33.0</ele><time>2026-05-01T14:57:15.269Z</time></trkpt><trkpt lat="42.3645482" lon="14.1176364"><ele>32.666666666666664</ele><time>2026-05-01T14:57:16.258Z</time></trkpt><trkpt lat="42.3647238" lon="14.1177392"><ele>32.33333333333333</ele><time>2026-05-01T14:57:17.272Z</time></trkpt><trkpt lat="42.3648978" lon="14.1178473"><ele>32.0</ele><time>2026-05-01T14:57:18.263Z</time></trkpt><trkpt lat="42.3650725" lon="14.1179611"><ele>32.0</ele><time>2026-05-01T14:57:19.271Z</time></trkpt><trkpt lat="42.3652459" lon="14.1180776"><ele>32.0</ele><time>2026-05-01T14:57:20.266Z</time></trkpt><trkpt lat="42.3654134" lon="14.1181959"><ele>32.0</ele><time>2026-05-01T14:57:21.265Z</time></trkpt><trkpt lat="42.3655805" lon="14.1183173"><ele>30.666666666666664</ele><time>2026-05-01T14:57:22.27Z</time></trkpt><trkpt lat="42.3657484" lon="14.1184375"><ele>29.333333333333336</ele><time>2026-05-01T14:57:23.282Z</time></trkpt><trkpt lat="42.3659102" lon="14.1185541"><ele>28.0</ele><time>2026-05-01T14:57:24.277Z</time></trkpt><trkpt lat="42.3660685" lon="14.1186625"><ele>28.0</ele><time>2026-05-01T14:57:25.264Z</time></trkpt><trkpt lat="42.3662252" lon="14.1187716"><ele>28.0</ele><time>2026-05-01T14:57:26.283Z</time></trkpt><trkpt lat="42.3663781" lon="14.1188767"><ele>28.0</ele><time>2026-05-01T14:57:27.269Z</time></trkpt><trkpt lat="42.3665269" lon="14.1189782"><ele>27.666666666666668</ele><time>2026-05-01T14:57:28.262Z</time></trkpt><trkpt lat="42.3666761" lon="14.1190801"><ele>27.333333333333336</ele><time>2026-05-01T14:57:29.262Z</time></trkpt><trkpt lat="42.366824" lon="14.1191825"><ele>27.0</ele><time>2026-05-01T14:57:30.263Z</time></trkpt><trkpt lat="42.3669711" lon="14.119289"><ele>27.0</ele><time>2026-05-01T14:57:31.266Z</time></trkpt><trkpt lat="42.3671175" lon="14.1194002"><ele>27.0</ele><time>2026-05-01T14:57:32.277Z</time></trkpt><trkpt lat="42.3672663" lon="14.1195046"><ele>27.0</ele><time>2026-05-01T14:57:33.269Z</time></trkpt><trkpt lat="42.3674173" lon="14.1196096"><ele>27.333333333333336</ele><time>2026-05-01T14:57:34.283Z</time></trkpt><trkpt lat="42.3675695" lon="14.1197144"><ele>27.666666666666668</ele><time>2026-05-01T14:57:35.271Z</time></trkpt><trkpt lat="42.3677254" lon="14.1198178"><ele>28.0</ele><time>2026-05-01T14:57:36.28Z</time></trkpt><trkpt lat="42.3678767" lon="14.1199219"><ele>28.333333333333336</ele><time>2026-05-01T14:57:37.272Z</time></trkpt><trkpt lat="42.3680278" lon="14.1200237"><ele>28.666666666666664</ele><time>2026-05-01T14:57:38.27Z</time></trkpt><trkpt lat="42.3681765" lon="14.1201185"><ele>29.0</ele><time>2026-05-01T14:57:39.266Z</time></trkpt><trkpt lat="42.3683322" lon="14.1201912"><ele>29.0</ele><time>2026-05-01T14:57:40.263Z</time></trkpt><trkpt lat="42.3684918" lon="14.1202405"><ele>29.0</ele><time>2026-05-01T14:57:41.273Z</time></trkpt><trkpt lat="42.3686554" lon="14.120272"><ele>29.0</ele><time>2026-05-01T14:57:42.273Z</time></trkpt><trkpt lat="42.3688191" lon="14.1202949"><ele>31.666666666666664</ele><time>2026-05-01T14:57:43.272Z</time></trkpt><trkpt lat="42.3689833" lon="14.1203135"><ele>34.333333333333336</ele><time>2026-05-01T14:57:44.268Z</time></trkpt><trkpt lat="42.369152" lon="14.1203366"><ele>37.0</ele><time>2026-05-01T14:57:45.277Z</time></trkpt><trkpt lat="42.3693182" lon="14.1203581"><ele>37.0</ele><time>2026-05-01T14:57:46.252Z</time></trkpt><trkpt lat="42.369489" lon="14.1203856"><ele>37.0</ele><time>2026-05-01T14:57:47.255Z</time></trkpt><trkpt lat="42.3696602" lon="14.120409"><ele>37.0</ele><time>2026-05-01T14:57:48.261Z</time></trkpt><trkpt lat="42.3698345" lon="14.1204287"><ele>37.0</ele><time>2026-05-01T14:57:49.279Z</time></trkpt><trkpt lat="42.3700046" lon="14.1204461"><ele>37.0</ele><time>2026-05-01T14:57:50.256Z</time></trkpt><trkpt lat="42.3701772" lon="14.1204675"><ele>37.0</ele><time>2026-05-01T14:57:51.275Z</time></trkpt><trkpt lat="42.370348" lon="14.1204931"><ele>37.0</ele><time>2026-05-01T14:57:52.267Z</time></trkpt><trkpt lat="42.3705196" lon="14.1205264"><ele>37.0</ele><time>2026-05-01T14:57:53.275Z</time></trkpt><trkpt lat="42.3706915" lon="14.1205667"><ele>37.0</ele><time>2026-05-01T14:57:54.267Z</time></trkpt><trkpt lat="42.3708621" lon="14.1206136"><ele>37.333333333333336</ele><time>2026-05-01T14:57:55.268Z</time></trkpt><trkpt lat="42.3710299" lon="14.1206716"><ele>37.666666666666664</ele><time>2026-05-01T14:57:56.281Z</time></trkpt><trkpt lat="42.3711933" lon="14.1207369"><ele>38.0</ele><time>2026-05-01T14:57:57.252Z</time></trkpt><trkpt lat="42.3713543" lon="14.1208057"><ele>36.33333333333333</ele><time>2026-05-01T14:57:58.276Z</time></trkpt><trkpt lat="42.3715112" lon="14.1208662"><ele>34.666666666666664</ele><time>2026-05-01T14:57:59.266Z</time></trkpt><trkpt lat="42.3716654" lon="14.1209329"><ele>33.0</ele><time>2026-05-01T14:58:00.282Z</time></trkpt><trkpt lat="42.3718155" lon="14.1210005"><ele>33.0</ele><time>2026-05-01T14:58:01.276Z</time></trkpt><trkpt lat="42.3719588" lon="14.121077"><ele>33.0</ele><time>2026-05-01T14:58:02.281Z</time></trkpt><trkpt lat="42.3720957" lon="14.1211564"><ele>33.0</ele><time>2026-05-01T14:58:03.272Z</time></trkpt><trkpt lat="42.3722237" lon="14.1212515"><ele>33.0</ele><time>2026-05-01T14:58:04.268Z</time></trkpt><trkpt lat="42.3723458" lon="14.1213593"><ele>33.333333333333336</ele><time>2026-05-01T14:58:05.257Z</time></trkpt><trkpt lat="42.3724693" lon="14.121473"><ele>33.66666666666667</ele><time>2026-05-01T14:58:06.275Z</time></trkpt><trkpt lat="42.3725971" lon="14.1215859"><ele>34.0</ele><time>2026-05-01T14:58:07.273Z</time></trkpt><trkpt lat="42.3727367" lon="14.1216898"><ele>34.0</ele><time>2026-05-01T14:58:08.269Z</time></trkpt><trkpt lat="42.3728716" lon="14.1217936"><ele>34.0</ele><time>2026-05-01T14:58:09.276Z</time></trkpt><trkpt lat="42.372997" lon="14.1218865"><ele>34.0</ele><time>2026-05-01T14:58:10.276Z</time></trkpt><trkpt lat="42.3731118" lon="14.1219733"><ele>34.0</ele><time>2026-05-01T14:58:11.277Z</time></trkpt><trkpt lat="42.3732185" lon="14.1220517"><ele>35.4</ele><time>2026-05-01T14:58:12.274Z</time></trkpt><trkpt lat="42.3733204" lon="14.1221202"><ele>36.8</ele><time>2026-05-01T14:58:13.267Z</time></trkpt><trkpt lat="42.3734118" lon="14.1221907"><ele>38.199999999999996</ele><time>2026-05-01T14:58:14.269Z</time></trkpt><trkpt lat="42.3734958" lon="14.1222583"><ele>39.599999999999994</ele><time>2026-05-01T14:58:15.271Z</time></trkpt><trkpt lat="42.3735721" lon="14.1223211"><ele>41.0</ele><time>2026-05-01T14:58:16.289Z</time></trkpt><trkpt lat="42.3736431" lon="14.1223726"><ele>41.0</ele><time>2026-05-01T14:58:17.27Z</time></trkpt><trkpt lat="42.3737098" lon="14.1224176"><ele>41.0</ele><time>2026-05-01T14:58:18.269Z</time></trkpt><trkpt lat="42.3737723" lon="14.1224645"><ele>41.0</ele><time>2026-05-01T14:58:19.283Z</time></trkpt><trkpt lat="42.3738296" lon="14.1225105"><ele>41.0</ele><time>2026-05-01T14:58:20.264Z</time></trkpt><trkpt lat="42.3738866" lon="14.1225563"><ele>41.0</ele><time>2026-05-01T14:58:21.263Z</time></trkpt><trkpt lat="42.3739895" lon="14.1226361"><ele>41.0</ele><time>2026-05-01T14:58:23.275Z</time></trkpt><trkpt lat="42.3740589" lon="14.122693"><ele>41.0</ele><time>2026-05-01T14:58:25.27Z</time></trkpt><trkpt lat="42.374142" lon="14.1227487"><ele>41.0</ele><time>2026-05-01T14:59:11.268Z</time></trkpt><trkpt lat="42.3742302" lon="14.1228278"><ele>41.0</ele><time>2026-05-01T14:59:12.275Z</time></trkpt><trkpt lat="42.3743485" lon="14.1229175"><ele>41.0</ele><time>2026-05-01T14:59:13.272Z</time></trkpt><trkpt lat="42.374481" lon="14.1230235"><ele>41.0</ele><time>2026-05-01T14:59:14.272Z</time></trkpt><trkpt lat="42.3746304" lon="14.1231414"><ele>41.0</ele><time>2026-05-01T14:59:15.27Z</time></trkpt><trkpt lat="42.3747884" lon="14.1232652"><ele>41.0</ele><time>2026-05-01T14:59:16.273Z</time></trkpt><trkpt lat="42.3749427" lon="14.123384"><ele>40.33333333333333</ele><time>2026-05-01T14:59:17.277Z</time></trkpt><trkpt lat="42.3750826" lon="14.1234995"><ele>39.666666666666664</ele><time>2026-05-01T14:59:18.271Z</time></trkpt><trkpt lat="42.375215" lon="14.1235984"><ele>39.0</ele><time>2026-05-01T14:59:19.275Z</time></trkpt><trkpt lat="42.3753318" lon="14.1236907"><ele>39.0</ele><time>2026-05-01T14:59:20.27Z</time></trkpt><trkpt lat="42.3754398" lon="14.1237703"><ele>39.0</ele><time>2026-05-01T14:59:21.271Z</time></trkpt><trkpt lat="42.3755401" lon="14.1238445"><ele>39.0</ele><time>2026-05-01T14:59:22.27Z</time></trkpt><trkpt lat="42.375635" lon="14.1239177"><ele>39.0</ele><time>2026-05-01T14:59:23.268Z</time></trkpt><trkpt lat="42.3757369" lon="14.1239761"><ele>38.8</ele><time>2026-05-01T14:59:24.273Z</time></trkpt><trkpt lat="42.3758494" lon="14.1240205"><ele>38.599999999999994</ele><time>2026-05-01T14:59:25.27Z</time></trkpt><trkpt lat="42.3759619" lon="14.1240476"><ele>38.4</ele><time>2026-05-01T14:59:26.264Z</time></trkpt><trkpt lat="42.3760657" lon="14.1240748"><ele>38.199999999999996</ele><time>2026-05-01T14:59:27.247Z</time></trkpt><trkpt lat="42.3761549" lon="14.1241049"><ele>38.0</ele><time>2026-05-01T14:59:28.25Z</time></trkpt><trkpt lat="42.3762194" lon="14.1241412"><ele>38.0</ele><time>2026-05-01T14:59:29.263Z</time></trkpt><trkpt lat="42.3762793" lon="14.124193"><ele>38.0</ele><time>2026-05-01T14:59:30.275Z</time></trkpt><trkpt lat="42.3763245" lon="14.1242718"><ele>38.0</ele><time>2026-05-01T14:59:31.282Z</time></trkpt><trkpt lat="42.3763567" lon="14.1243607"><ele>38.0</ele><time>2026-05-01T14:59:32.27Z</time></trkpt><trkpt lat="42.3763882" lon="14.1244417"><ele>38.0</ele><time>2026-05-01T14:59:33.272Z</time></trkpt><trkpt lat="42.3764344" lon="14.1245079"><ele>38.0</ele><time>2026-05-01T14:59:34.252Z</time></trkpt><trkpt lat="42.3765487" lon="14.1245532"><ele>37.8</ele><time>2026-05-01T14:59:36.283Z</time></trkpt><trkpt lat="42.3766429" lon="14.1244411"><ele>37.599999999999994</ele><time>2026-05-01T14:59:38.263Z</time></trkpt><trkpt lat="42.3766785" lon="14.1243439"><ele>37.400000000000006</ele><time>2026-05-01T14:59:39.278Z</time></trkpt><trkpt lat="42.3767225" lon="14.1242389"><ele>37.2</ele><time>2026-05-01T14:59:40.269Z</time></trkpt><trkpt lat="42.3767865" lon="14.1241433"><ele>37.0</ele><time>2026-05-01T14:59:41.278Z</time></trkpt><trkpt lat="42.3768636" lon="14.1240539"><ele>38.400000000000006</ele><time>2026-05-01T14:59:42.266Z</time></trkpt><trkpt lat="42.3769388" lon="14.1239447"><ele>39.800000000000004</ele><time>2026-05-01T14:59:43.277Z</time></trkpt><trkpt lat="42.3770078" lon="14.1238249"><ele>41.2</ele><time>2026-05-01T14:59:44.27Z</time></trkpt><trkpt lat="42.3770724" lon="14.1237019"><ele>42.6</ele><time>2026-05-01T14:59:45.277Z</time></trkpt><trkpt lat="42.3771441" lon="14.1235825"><ele>44.0</ele><time>2026-05-01T14:59:46.278Z</time></trkpt><trkpt lat="42.3772318" lon="14.1234922"><ele>44.5</ele><time>2026-05-01T14:59:47.274Z</time></trkpt><trkpt lat="42.377339" lon="14.1234268"><ele>45.0</ele><time>2026-05-01T14:59:48.267Z</time></trkpt><trkpt lat="42.3774572" lon="14.1234062"><ele>45.5</ele><time>2026-05-01T14:59:49.263Z</time></trkpt><trkpt lat="42.3775746" lon="14.1234244"><ele>46.0</ele><time>2026-05-01T14:59:50.272Z</time></trkpt><trkpt lat="42.3777025" lon="14.1234535"><ele>46.0</ele><time>2026-05-01T14:59:51.279Z</time></trkpt><trkpt lat="42.3778344" lon="14.1234731"><ele>46.0</ele><time>2026-05-01T14:59:52.286Z</time></trkpt><trkpt lat="42.3779681" lon="14.1234933"><ele>46.0</ele><time>2026-05-01T14:59:53.265Z</time></trkpt><trkpt lat="42.3781051" lon="14.1235192"><ele>46.0</ele><time>2026-05-01T14:59:54.28Z</time></trkpt><trkpt lat="42.3782437" lon="14.1235353"><ele>48.25</ele><time>2026-05-01T14:59:55.275Z</time></trkpt><trkpt lat="42.3783799" lon="14.123555"><ele>50.5</ele><time>2026-05-01T14:59:56.263Z</time></trkpt><trkpt lat="42.3785207" lon="14.1235799"><ele>52.75</ele><time>2026-05-01T14:59:57.278Z</time></trkpt><trkpt lat="42.3786647" lon="14.1236029"><ele>55.0</ele><time>2026-05-01T14:59:58.259Z</time></trkpt><trkpt lat="42.3788089" lon="14.1236234"><ele>56.0</ele><time>2026-05-01T14:59:59.275Z</time></trkpt><trkpt lat="42.3789438" lon="14.1236485"><ele>57.0</ele><time>2026-05-01T15:00:00.276Z</time></trkpt><trkpt lat="42.3790709" lon="14.1236745"><ele>58.0</ele><time>2026-05-01T15:00:01.272Z</time></trkpt><trkpt lat="42.37919" lon="14.1237031"><ele>59.0</ele><time>2026-05-01T15:00:02.267Z</time></trkpt><trkpt lat="42.3792949" lon="14.1237398"><ele>59.00000000000001</ele><time>2026-05-01T15:00:03.267Z</time></trkpt><trkpt lat="42.3793801" lon="14.1237944"><ele>59.0</ele><time>2026-05-01T15:00:04.269Z</time></trkpt><trkpt lat="42.3794604" lon="14.1238554"><ele>59.0</ele><time>2026-05-01T15:00:05.288Z</time></trkpt><trkpt lat="42.3795312" lon="14.1239324"><ele>59.0</ele><time>2026-05-01T15:00:06.266Z</time></trkpt><trkpt lat="42.3795907" lon="14.1240007"><ele>59.00000000000001</ele><time>2026-05-01T15:00:07.261Z</time></trkpt><trkpt lat="42.3796609" lon="14.1240761"><ele>59.0</ele><time>2026-05-01T15:00:08.258Z</time></trkpt><trkpt lat="42.3797545" lon="14.1241595"><ele>57.25</ele><time>2026-05-01T15:00:09.27Z</time></trkpt><trkpt lat="42.379849" lon="14.1242454"><ele>55.5</ele><time>2026-05-01T15:00:10.266Z</time></trkpt><trkpt lat="42.3799499" lon="14.1243351"><ele>53.75</ele><time>2026-05-01T15:00:11.264Z</time></trkpt><trkpt lat="42.3800577" lon="14.1244193"><ele>52.0</ele><time>2026-05-01T15:00:12.262Z</time></trkpt><trkpt lat="42.3801778" lon="14.1245019"><ele>52.0</ele><time>2026-05-01T15:00:13.255Z</time></trkpt><trkpt lat="42.3803014" lon="14.1245902"><ele>52.0</ele><time>2026-05-01T15:00:14.263Z</time></trkpt><trkpt lat="42.3804266" lon="14.1246838"><ele>52.0</ele><time>2026-05-01T15:00:15.265Z</time></trkpt><trkpt lat="42.3805566" lon="14.1247772"><ele>52.0</ele><time>2026-05-01T15:00:16.265Z</time></trkpt><trkpt lat="42.3806915" lon="14.1248744"><ele>50.666666666666664</ele><time>2026-05-01T15:00:17.273Z</time></trkpt><trkpt lat="42.3808291" lon="14.1249754"><ele>49.33333333333333</ele><time>2026-05-01T15:00:18.264Z</time></trkpt><trkpt lat="42.3809701" lon="14.1250783"><ele>48.0</ele><time>2026-05-01T15:00:19.267Z</time></trkpt><trkpt lat="42.381113" lon="14.1251767"><ele>48.0</ele><time>2026-05-01T15:00:20.274Z</time></trkpt><trkpt lat="42.3812595" lon="14.1252717"><ele>48.0</ele><time>2026-05-01T15:00:21.262Z</time></trkpt><trkpt lat="42.3814103" lon="14.1253732"><ele>48.0</ele><time>2026-05-01T15:00:22.274Z</time></trkpt><trkpt lat="42.381559" lon="14.1254778"><ele>46.666666666666664</ele><time>2026-05-01T15:00:23.276Z</time></trkpt><trkpt lat="42.3817024" lon="14.1255909"><ele>45.33333333333333</ele><time>2026-05-01T15:00:24.269Z</time></trkpt><trkpt lat="42.3818426" lon="14.1257089"><ele>44.0</ele><time>2026-05-01T15:00:25.281Z</time></trkpt><trkpt lat="42.3819801" lon="14.1258283"><ele>44.0</ele><time>2026-05-01T15:00:26.267Z</time></trkpt><trkpt lat="42.3821111" lon="14.1259531"><ele>44.0</ele><time>2026-05-01T15:00:27.276Z</time></trkpt><trkpt lat="42.3822409" lon="14.1260802"><ele>44.0</ele><time>2026-05-01T15:00:28.254Z</time></trkpt><trkpt lat="42.382368" lon="14.1261921"><ele>47.0</ele><time>2026-05-01T15:00:29.266Z</time></trkpt><trkpt lat="42.3825034" lon="14.1262804"><ele>50.0</ele><time>2026-05-01T15:00:30.269Z</time></trkpt><trkpt lat="42.3826476" lon="14.1263417"><ele>53.0</ele><time>2026-05-01T15:00:31.277Z</time></trkpt><trkpt lat="42.3827989" lon="14.1263877"><ele>53.0</ele><time>2026-05-01T15:00:32.258Z</time></trkpt><trkpt lat="42.3829506" lon="14.1264132"><ele>53.0</ele><time>2026-05-01T15:00:33.271Z</time></trkpt><trkpt lat="42.3830979" lon="14.126418"><ele>53.0</ele><time>2026-05-01T15:00:34.275Z</time></trkpt><trkpt lat="42.3832259" lon="14.1264206"><ele>53.0</ele><time>2026-05-01T15:00:35.26Z</time></trkpt><trkpt lat="42.3833342" lon="14.1264376"><ele>53.0</ele><time>2026-05-01T15:00:36.272Z</time></trkpt><trkpt lat="42.3834404" lon="14.1264658"><ele>53.0</ele><time>2026-05-01T15:00:37.272Z</time></trkpt><trkpt lat="42.3835453" lon="14.126516"><ele>53.0</ele><time>2026-05-01T15:00:38.267Z</time></trkpt><trkpt lat="42.3836573" lon="14.1265849"><ele>53.0</ele><time>2026-05-01T15:00:39.28Z</time></trkpt><trkpt lat="42.3837876" lon="14.1266582"><ele>49.333333333333336</ele><time>2026-05-01T15:00:40.262Z</time></trkpt><trkpt lat="42.3839223" lon="14.126736"><ele>45.66666666666667</ele><time>2026-05-01T15:00:41.265Z</time></trkpt><trkpt lat="42.3840647" lon="14.1268102"><ele>42.0</ele><time>2026-05-01T15:00:42.262Z</time></trkpt><trkpt lat="42.3842091" lon="14.1268816"><ele>42.0</ele><time>2026-05-01T15:00:43.264Z</time></trkpt><trkpt lat="42.3843536" lon="14.1269424"><ele>42.0</ele><time>2026-05-01T15:00:44.257Z</time></trkpt><trkpt lat="42.3845022" lon="14.1269937"><ele>42.0</ele><time>2026-05-01T15:00:45.266Z</time></trkpt><trkpt lat="42.3846422" lon="14.1270501"><ele>42.75</ele><time>2026-05-01T15:00:46.269Z</time></trkpt><trkpt lat="42.3847816" lon="14.1270995"><ele>43.5</ele><time>2026-05-01T15:00:47.264Z</time></trkpt><trkpt lat="42.3849188" lon="14.1271614"><ele>44.25</ele><time>2026-05-01T15:00:48.272Z</time></trkpt><trkpt lat="42.3850496" lon="14.127251"><ele>45.0</ele><time>2026-05-01T15:00:49.265Z</time></trkpt><trkpt lat="42.3851724" lon="14.1273662"><ele>42.0</ele><time>2026-05-01T15:00:50.267Z</time></trkpt><trkpt lat="42.3852955" lon="14.1274897"><ele>39.0</ele><time>2026-05-01T15:00:51.259Z</time></trkpt><trkpt lat="42.3854195" lon="14.1276337"><ele>36.0</ele><time>2026-05-01T15:00:52.269Z</time></trkpt><trkpt lat="42.3855433" lon="14.1277731"><ele>36.0</ele><time>2026-05-01T15:00:53.278Z</time></trkpt><trkpt lat="42.3856722" lon="14.1279046"><ele>36.0</ele><time>2026-05-01T15:00:54.258Z</time></trkpt><trkpt lat="42.3858075" lon="14.1280339"><ele>36.0</ele><time>2026-05-01T15:00:55.285Z</time></trkpt><trkpt lat="42.3859438" lon="14.1281584"><ele>35.666666666666664</ele><time>2026-05-01T15:00:56.265Z</time></trkpt><trkpt lat="42.3860772" lon="14.1282869"><ele>35.33333333333333</ele><time>2026-05-01T15:00:57.264Z</time></trkpt><trkpt lat="42.3861954" lon="14.1284129"><ele>35.0</ele><time>2026-05-01T15:00:58.275Z</time></trkpt><trkpt lat="42.3862959" lon="14.1285475"><ele>35.5</ele><time>2026-05-01T15:00:59.272Z</time></trkpt><trkpt lat="42.3863826" lon="14.1286864"><ele>36.0</ele><time>2026-05-01T15:01:00.254Z</time></trkpt><trkpt lat="42.3864732" lon="14.1288264"><ele>36.5</ele><time>2026-05-01T15:01:01.275Z</time></trkpt><trkpt lat="42.3865584" lon="14.1289722"><ele>37.0</ele><time>2026-05-01T15:01:02.269Z</time></trkpt><trkpt lat="42.3866438" lon="14.1291128"><ele>36.0</ele><time>2026-05-01T15:01:03.266Z</time></trkpt><trkpt lat="42.3867307" lon="14.1292334"><ele>35.0</ele><time>2026-05-01T15:01:04.281Z</time></trkpt><trkpt lat="42.3868155" lon="14.129349"><ele>34.0</ele><time>2026-05-01T15:01:05.27Z</time></trkpt><trkpt lat="42.3869038" lon="14.1294568"><ele>33.0</ele><time>2026-05-01T15:01:06.266Z</time></trkpt><trkpt lat="42.38699" lon="14.1295505"><ele>33.0</ele><time>2026-05-01T15:01:07.263Z</time></trkpt><trkpt lat="42.3870734" lon="14.1296358"><ele>33.0</ele><time>2026-05-01T15:01:08.264Z</time></trkpt><trkpt lat="42.3871561" lon="14.1297204"><ele>33.0</ele><time>2026-05-01T15:01:09.282Z</time></trkpt><trkpt lat="42.3872419" lon="14.1298036"><ele>33.0</ele><time>2026-05-01T15:01:10.266Z</time></trkpt><trkpt lat="42.3873306" lon="14.1298875"><ele>33.0</ele><time>2026-05-01T15:01:11.271Z</time></trkpt><trkpt lat="42.3874236" lon="14.1299742"><ele>32.8</ele><time>2026-05-01T15:01:12.267Z</time></trkpt><trkpt lat="42.387514" lon="14.1300611"><ele>32.599999999999994</ele><time>2026-05-01T15:01:13.263Z</time></trkpt><trkpt lat="42.387599" lon="14.1301468"><ele>32.400000000000006</ele><time>2026-05-01T15:01:14.273Z</time></trkpt><trkpt lat="42.3876775" lon="14.1302358"><ele>32.2</ele><time>2026-05-01T15:01:15.269Z</time></trkpt><trkpt lat="42.387752" lon="14.1303136"><ele>32.0</ele><time>2026-05-01T15:01:16.257Z</time></trkpt><trkpt lat="42.3878163" lon="14.1303771"><ele>31.999999999999996</ele><time>2026-05-01T15:01:17.271Z</time></trkpt><trkpt lat="42.3878748" lon="14.130425"><ele>32.0</ele><time>2026-05-01T15:01:18.263Z</time></trkpt><trkpt lat="42.3879649" lon="14.1304882"><ele>32.0</ele><time>2026-05-01T15:01:20.267Z</time></trkpt><trkpt lat="42.3880325" lon="14.1305229"><ele>32.0</ele><time>2026-05-01T15:01:29.279Z</time></trkpt><trkpt lat="42.3880962" lon="14.130551"><ele>31.999999999999996</ele><time>2026-05-01T15:01:33.257Z</time></trkpt><trkpt lat="42.388212" lon="14.1306002"><ele>32.0</ele><time>2026-05-01T15:01:37.268Z</time></trkpt><trkpt lat="42.3882827" lon="14.1306427"><ele>32.0</ele><time>2026-05-01T15:01:38.262Z</time></trkpt><trkpt lat="42.388357" lon="14.1306797"><ele>32.0</ele><time>2026-05-01T15:01:39.273Z</time></trkpt><trkpt lat="42.3884419" lon="14.1307224"><ele>32.0</ele><time>2026-05-01T15:01:40.26Z</time></trkpt><trkpt lat="42.3885264" lon="14.1307732"><ele>32.0</ele><time>2026-05-01T15:01:41.266Z</time></trkpt><trkpt lat="42.38861" lon="14.1308308"><ele>32.0</ele><time>2026-05-01T15:01:42.281Z</time></trkpt><trkpt lat="42.3886942" lon="14.130892"><ele>31.999999999999996</ele><time>2026-05-01T15:01:43.254Z</time></trkpt><trkpt lat="42.3887808" lon="14.130947"><ele>32.0</ele><time>2026-05-01T15:01:44.268Z</time></trkpt><trkpt lat="42.3888664" lon="14.130999"><ele>32.0</ele><time>2026-05-01T15:01:45.255Z</time></trkpt><trkpt lat="42.3889435" lon="14.1310505"><ele>32.0</ele><time>2026-05-01T15:01:46.267Z</time></trkpt><trkpt lat="42.3890182" lon="14.131094"><ele>31.999999999999996</ele><time>2026-05-01T15:01:47.271Z</time></trkpt><trkpt lat="42.3890908" lon="14.1311444"><ele>32.0</ele><time>2026-05-01T15:01:48.267Z</time></trkpt><trkpt lat="42.3891678" lon="14.1312016"><ele>32.2</ele><time>2026-05-01T15:01:49.271Z</time></trkpt><trkpt lat="42.3892491" lon="14.1312608"><ele>32.400000000000006</ele><time>2026-05-01T15:01:50.277Z</time></trkpt><trkpt lat="42.3893338" lon="14.1313264"><ele>32.599999999999994</ele><time>2026-05-01T15:01:51.255Z</time></trkpt><trkpt lat="42.3894174" lon="14.1313974"><ele>32.8</ele><time>2026-05-01T15:01:52.261Z</time></trkpt><trkpt lat="42.3895002" lon="14.1314728"><ele>33.0</ele><time>2026-05-01T15:01:53.262Z</time></trkpt><trkpt lat="42.3895822" lon="14.1315474"><ele>32.8</ele><time>2026-05-01T15:01:54.268Z</time></trkpt><trkpt lat="42.3896645" lon="14.131621"><ele>32.599999999999994</ele><time>2026-05-01T15:01:55.282Z</time></trkpt><trkpt lat="42.389751" lon="14.1316983"><ele>32.400000000000006</ele><time>2026-05-01T15:01:56.261Z</time></trkpt><trkpt lat="42.3898374" lon="14.131774"><ele>32.2</ele><time>2026-05-01T15:01:57.258Z</time></trkpt><trkpt lat="42.3899304" lon="14.131849"><ele>32.0</ele><time>2026-05-01T15:01:58.256Z</time></trkpt><trkpt lat="42.3900212" lon="14.1319315"><ele>31.75</ele><time>2026-05-01T15:01:59.269Z</time></trkpt><trkpt lat="42.3901164" lon="14.132012"><ele>31.5</ele><time>2026-05-01T15:02:00.264Z</time></trkpt><trkpt lat="42.3902137" lon="14.1320946"><ele>31.25</ele><time>2026-05-01T15:02:01.259Z</time></trkpt><trkpt lat="42.3903108" lon="14.1321769"><ele>31.0</ele><time>2026-05-01T15:02:02.266Z</time></trkpt><trkpt lat="42.3904083" lon="14.1322636"><ele>31.0</ele><time>2026-05-01T15:02:03.257Z</time></trkpt><trkpt lat="42.3905056" lon="14.1323535"><ele>31.0</ele><time>2026-05-01T15:02:04.283Z</time></trkpt><trkpt lat="42.3906019" lon="14.1324442"><ele>31.0</ele><time>2026-05-01T15:02:05.275Z</time></trkpt><trkpt lat="42.390697" lon="14.132532"><ele>31.0</ele><time>2026-05-01T15:02:06.272Z</time></trkpt><trkpt lat="42.390793" lon="14.132618"><ele>30.8</ele><time>2026-05-01T15:02:07.296Z</time></trkpt><trkpt lat="42.390888" lon="14.1327062"><ele>30.6</ele><time>2026-05-01T15:02:08.272Z</time></trkpt><trkpt lat="42.3909826" lon="14.1327892"><ele>30.4</ele><time>2026-05-01T15:02:09.27Z</time></trkpt><trkpt lat="42.391077" lon="14.1328677"><ele>30.2</ele><time>2026-05-01T15:02:10.268Z</time></trkpt><trkpt lat="42.3911683" lon="14.1329492"><ele>30.0</ele><time>2026-05-01T15:02:11.269Z</time></trkpt><trkpt lat="42.391263" lon="14.1330309"><ele>30.0</ele><time>2026-05-01T15:02:12.273Z</time></trkpt><trkpt lat="42.391352" lon="14.1331088"><ele>30.0</ele><time>2026-05-01T15:02:13.26Z</time></trkpt><trkpt lat="42.3914408" lon="14.1331875"><ele>30.0</ele><time>2026-05-01T15:02:14.275Z</time></trkpt><trkpt lat="42.3915323" lon="14.1332674"><ele>30.0</ele><time>2026-05-01T15:02:15.271Z</time></trkpt><trkpt lat="42.3916208" lon="14.1333521"><ele>30.0</ele><time>2026-05-01T15:02:16.279Z</time></trkpt><trkpt lat="42.3917065" lon="14.1334297"><ele>30.0</ele><time>2026-05-01T15:02:17.271Z</time></trkpt><trkpt lat="42.3917884" lon="14.133508"><ele>30.0</ele><time>2026-05-01T15:02:18.265Z</time></trkpt><trkpt lat="42.3918671" lon="14.1335819"><ele>30.0</ele><time>2026-05-01T15:02:19.267Z</time></trkpt><trkpt lat="42.3919456" lon="14.1336538"><ele>30.0</ele><time>2026-05-01T15:02:20.251Z</time></trkpt><trkpt lat="42.3920194" lon="14.1337382"><ele>30.0</ele><time>2026-05-01T15:02:21.27Z</time></trkpt><trkpt lat="42.3920934" lon="14.1338135"><ele>30.0</ele><time>2026-05-01T15:02:22.259Z</time></trkpt><trkpt lat="42.392168" lon="14.1338812"><ele>30.0</ele><time>2026-05-01T15:02:23.262Z</time></trkpt><trkpt lat="42.3922482" lon="14.1339469"><ele>30.0</ele><time>2026-05-01T15:02:24.248Z</time></trkpt><trkpt lat="42.3923314" lon="14.1340151"><ele>30.0</ele><time>2026-05-01T15:02:25.254Z</time></trkpt><trkpt lat="42.3924152" lon="14.1340818"><ele>30.0</ele><time>2026-05-01T15:02:26.24Z</time></trkpt><trkpt lat="42.3924945" lon="14.1341465"><ele>29.8</ele><time>2026-05-01T15:02:27.248Z</time></trkpt><trkpt lat="42.3925742" lon="14.134207"><ele>29.6</ele><time>2026-05-01T15:02:28.242Z</time></trkpt><trkpt lat="42.3926612" lon="14.1342679"><ele>29.4</ele><time>2026-05-01T15:02:29.246Z</time></trkpt><trkpt lat="42.3927492" lon="14.134333"><ele>29.2</ele><time>2026-05-01T15:02:30.25Z</time></trkpt><trkpt lat="42.3928359" lon="14.1344076"><ele>29.0</ele><time>2026-05-01T15:02:31.252Z</time></trkpt><trkpt lat="42.3929442" lon="14.1344996"><ele>29.25</ele><time>2026-05-01T15:02:32.252Z</time></trkpt><trkpt lat="42.3930585" lon="14.1346183"><ele>29.5</ele><time>2026-05-01T15:02:33.26Z</time></trkpt><trkpt lat="42.39317" lon="14.1347149"><ele>29.75</ele><time>2026-05-01T15:02:34.256Z</time></trkpt><trkpt lat="42.3932767" lon="14.1348119"><ele>30.0</ele><time>2026-05-01T15:02:35.263Z</time></trkpt><trkpt lat="42.3933764" lon="14.1349044"><ele>29.25</ele><time>2026-05-01T15:02:36.261Z</time></trkpt><trkpt lat="42.3934711" lon="14.1349967"><ele>28.5</ele><time>2026-05-01T15:02:37.273Z</time></trkpt><trkpt lat="42.3935674" lon="14.135085"><ele>27.75</ele><time>2026-05-01T15:02:38.261Z</time></trkpt><trkpt lat="42.3936677" lon="14.1351707"><ele>27.0</ele><time>2026-05-01T15:02:39.271Z</time></trkpt><trkpt lat="42.3937692" lon="14.135257"><ele>27.75</ele><time>2026-05-01T15:02:40.262Z</time></trkpt><trkpt lat="42.3938703" lon="14.1353437"><ele>28.5</ele><time>2026-05-01T15:02:41.263Z</time></trkpt><trkpt lat="42.393969" lon="14.1354203"><ele>29.25</ele><time>2026-05-01T15:02:42.259Z</time></trkpt><trkpt lat="42.3940649" lon="14.1355084"><ele>30.0</ele><time>2026-05-01T15:02:43.265Z</time></trkpt><trkpt lat="42.3941578" lon="14.1355957"><ele>30.0</ele><time>2026-05-01T15:02:44.266Z</time></trkpt><trkpt lat="42.3942446" lon="14.1356789"><ele>30.0</ele><time>2026-05-01T15:02:45.271Z</time></trkpt><trkpt lat="42.3943353" lon="14.1357622"><ele>30.0</ele><time>2026-05-01T15:02:46.268Z</time></trkpt><trkpt lat="42.3944291" lon="14.1358533"><ele>30.0</ele><time>2026-05-01T15:02:47.27Z</time></trkpt><trkpt lat="42.3945206" lon="14.1359395"><ele>30.0</ele><time>2026-05-01T15:02:48.271Z</time></trkpt><trkpt lat="42.3946084" lon="14.1360199"><ele>29.8</ele><time>2026-05-01T15:02:49.286Z</time></trkpt><trkpt lat="42.3946932" lon="14.1360974"><ele>29.6</ele><time>2026-05-01T15:02:50.265Z</time></trkpt><trkpt lat="42.3947755" lon="14.1361751"><ele>29.4</ele><time>2026-05-01T15:02:51.254Z</time></trkpt><trkpt lat="42.3948552" lon="14.136249"><ele>29.2</ele><time>2026-05-01T15:02:52.263Z</time></trkpt><trkpt lat="42.3949352" lon="14.1363213"><ele>29.0</ele><time>2026-05-01T15:02:53.277Z</time></trkpt><trkpt lat="42.3950153" lon="14.136396"><ele>29.0</ele><time>2026-05-01T15:02:54.273Z</time></trkpt><trkpt lat="42.3950986" lon="14.1364718"><ele>29.0</ele><time>2026-05-01T15:02:55.25Z</time></trkpt><trkpt lat="42.3951828" lon="14.1365442"><ele>29.0</ele><time>2026-05-01T15:02:56.251Z</time></trkpt><trkpt lat="42.3952676" lon="14.1366197"><ele>29.0</ele><time>2026-05-01T15:02:57.254Z</time></trkpt><trkpt lat="42.3953508" lon="14.1366933"><ele>29.0</ele><time>2026-05-01T15:02:58.269Z</time></trkpt><trkpt lat="42.3954344" lon="14.1367648"><ele>28.4</ele><time>2026-05-01T15:02:59.269Z</time></trkpt><trkpt lat="42.3955164" lon="14.1368344"><ele>27.799999999999997</ele><time>2026-05-01T15:03:00.252Z</time></trkpt><trkpt lat="42.3956004" lon="14.136903"><ele>27.200000000000003</ele><time>2026-05-01T15:03:01.257Z</time></trkpt><trkpt lat="42.3956869" lon="14.136977"><ele>26.6</ele><time>2026-05-01T15:03:02.275Z</time></trkpt><trkpt lat="42.3957686" lon="14.1370486"><ele>26.0</ele><time>2026-05-01T15:03:03.271Z</time></trkpt><trkpt lat="42.3958513" lon="14.1371218"><ele>26.0</ele><time>2026-05-01T15:03:04.245Z</time></trkpt><trkpt lat="42.3959317" lon="14.1371986"><ele>26.0</ele><time>2026-05-01T15:03:05.276Z</time></trkpt><trkpt lat="42.3960107" lon="14.1372734"><ele>26.0</ele><time>2026-05-01T15:03:06.265Z</time></trkpt><trkpt lat="42.3960923" lon="14.1373445"><ele>26.0</ele><time>2026-05-01T15:03:07.271Z</time></trkpt><trkpt lat="42.3961737" lon="14.1374111"><ele>26.0</ele><time>2026-05-01T15:03:08.271Z</time></trkpt><trkpt lat="42.3962536" lon="14.1374875"><ele>26.200000000000003</ele><time>2026-05-01T15:03:09.275Z</time></trkpt><trkpt lat="42.3963323" lon="14.1375564"><ele>26.400000000000002</ele><time>2026-05-01T15:03:10.272Z</time></trkpt><trkpt lat="42.396408" lon="14.1376238"><ele>26.6</ele><time>2026-05-01T15:03:11.276Z</time></trkpt><trkpt lat="42.3964889" lon="14.1376935"><ele>26.8</ele><time>2026-05-01T15:03:12.272Z</time></trkpt><trkpt lat="42.3965744" lon="14.1377605"><ele>27.0</ele><time>2026-05-01T15:03:13.271Z</time></trkpt><trkpt lat="42.396669" lon="14.1378363"><ele>27.0</ele><time>2026-05-01T15:03:14.263Z</time></trkpt><trkpt lat="42.396777" lon="14.1379215"><ele>27.0</ele><time>2026-05-01T15:03:15.263Z</time></trkpt><trkpt lat="42.3968983" lon="14.1380084"><ele>27.0</ele><time>2026-05-01T15:03:16.268Z</time></trkpt><trkpt lat="42.3970169" lon="14.1381172"><ele>27.0</ele><time>2026-05-01T15:03:17.273Z</time></trkpt><trkpt lat="42.3971372" lon="14.138232"><ele>26.75</ele><time>2026-05-01T15:03:18.268Z</time></trkpt><trkpt lat="42.3972634" lon="14.1383509"><ele>26.5</ele><time>2026-05-01T15:03:19.276Z</time></trkpt><trkpt lat="42.3973832" lon="14.1384601"><ele>26.25</ele><time>2026-05-01T15:03:20.285Z</time></trkpt><trkpt lat="42.3974889" lon="14.1385606"><ele>26.0</ele><time>2026-05-01T15:03:21.277Z</time></trkpt><trkpt lat="42.3975887" lon="14.1386509"><ele>26.0</ele><time>2026-05-01T15:03:22.264Z</time></trkpt><trkpt lat="42.3976835" lon="14.138744"><ele>26.0</ele><time>2026-05-01T15:03:23.274Z</time></trkpt><trkpt lat="42.3977799" lon="14.1388317"><ele>26.0</ele><time>2026-05-01T15:03:24.269Z</time></trkpt><trkpt lat="42.39788" lon="14.1389226"><ele>26.0</ele><time>2026-05-01T15:03:25.255Z</time></trkpt><trkpt lat="42.3979886" lon="14.1390191"><ele>26.0</ele><time>2026-05-01T15:03:26.273Z</time></trkpt><trkpt lat="42.3981023" lon="14.1391158"><ele>26.0</ele><time>2026-05-01T15:03:27.26Z</time></trkpt><trkpt lat="42.3982279" lon="14.1392181"><ele>26.0</ele><time>2026-05-01T15:03:28.268Z</time></trkpt><trkpt lat="42.3983586" lon="14.1393264"><ele>26.0</ele><time>2026-05-01T15:03:29.279Z</time></trkpt><trkpt lat="42.3984906" lon="14.1394426"><ele>26.0</ele><time>2026-05-01T15:03:30.268Z</time></trkpt><trkpt lat="42.3986278" lon="14.139572"><ele>26.0</ele><time>2026-05-01T15:03:31.275Z</time></trkpt><trkpt lat="42.398766" lon="14.1397058"><ele>26.0</ele><time>2026-05-01T15:03:32.267Z</time></trkpt><trkpt lat="42.398913" lon="14.1398416"><ele>25.666666666666664</ele><time>2026-05-01T15:03:33.269Z</time></trkpt><trkpt lat="42.3990706" lon="14.1399796"><ele>25.333333333333336</ele><time>2026-05-01T15:03:34.274Z</time></trkpt><trkpt lat="42.3992341" lon="14.140119"><ele>25.0</ele><time>2026-05-01T15:03:35.275Z</time></trkpt><trkpt lat="42.399395" lon="14.1402578"><ele>25.0</ele><time>2026-05-01T15:03:36.274Z</time></trkpt><trkpt lat="42.3995487" lon="14.1403964"><ele>25.0</ele><time>2026-05-01T15:03:37.249Z</time></trkpt><trkpt lat="42.3996888" lon="14.1405242"><ele>25.0</ele><time>2026-05-01T15:03:38.275Z</time></trkpt><trkpt lat="42.3998039" lon="14.1406372"><ele>25.25</ele><time>2026-05-01T15:03:39.263Z</time></trkpt><trkpt lat="42.3999097" lon="14.1407442"><ele>25.5</ele><time>2026-05-01T15:03:40.263Z</time></trkpt><trkpt lat="42.4000144" lon="14.1408424"><ele>25.75</ele><time>2026-05-01T15:03:41.26Z</time></trkpt><trkpt lat="42.4001002" lon="14.1409227"><ele>26.0</ele><time>2026-05-01T15:03:42.27Z</time></trkpt><trkpt lat="42.4001798" lon="14.1409932"><ele>26.0</ele><time>2026-05-01T15:03:43.267Z</time></trkpt><trkpt lat="42.4002583" lon="14.1410618"><ele>26.0</ele><time>2026-05-01T15:03:44.258Z</time></trkpt><trkpt lat="42.4003363" lon="14.1411298"><ele>26.0</ele><time>2026-05-01T15:03:45.289Z</time></trkpt><trkpt lat="42.4004146" lon="14.1411956"><ele>26.0</ele><time>2026-05-01T15:03:46.26Z</time></trkpt><trkpt lat="42.4004991" lon="14.1412728"><ele>26.0</ele><time>2026-05-01T15:03:47.278Z</time></trkpt><trkpt lat="42.4005892" lon="14.1413578"><ele>25.75</ele><time>2026-05-01T15:03:48.264Z</time></trkpt><trkpt lat="42.4006885" lon="14.1414433"><ele>25.5</ele><time>2026-05-01T15:03:49.289Z</time></trkpt><trkpt lat="42.4007874" lon="14.1415271"><ele>25.25</ele><time>2026-05-01T15:03:50.277Z</time></trkpt><trkpt lat="42.400884" lon="14.1416143"><ele>25.0</ele><time>2026-05-01T15:03:51.272Z</time></trkpt><trkpt lat="42.4009803" lon="14.1416994"><ele>25.0</ele><time>2026-05-01T15:03:52.265Z</time></trkpt><trkpt lat="42.401078" lon="14.1417807"><ele>25.0</ele><time>2026-05-01T15:03:53.272Z</time></trkpt><trkpt lat="42.4011719" lon="14.1418616"><ele>25.0</ele><time>2026-05-01T15:03:54.271Z</time></trkpt><trkpt lat="42.4012634" lon="14.1419425"><ele>25.0</ele><time>2026-05-01T15:03:55.262Z</time></trkpt><trkpt lat="42.4013513" lon="14.1420253"><ele>25.0</ele><time>2026-05-01T15:03:56.265Z</time></trkpt><trkpt lat="42.4014394" lon="14.1421065"><ele>25.0</ele><time>2026-05-01T15:03:57.276Z</time></trkpt><trkpt lat="42.4015273" lon="14.1421902"><ele>25.0</ele><time>2026-05-01T15:03:58.282Z</time></trkpt><trkpt lat="42.4016154" lon="14.1422724"><ele>25.0</ele><time>2026-05-01T15:03:59.262Z</time></trkpt><trkpt lat="42.401703" lon="14.142353"><ele>25.0</ele><time>2026-05-01T15:04:00.266Z</time></trkpt><trkpt lat="42.4017879" lon="14.1424322"><ele>25.0</ele><time>2026-05-01T15:04:01.268Z</time></trkpt><trkpt lat="42.4018756" lon="14.1425129"><ele>24.75</ele><time>2026-05-01T15:04:02.254Z</time></trkpt><trkpt lat="42.4019703" lon="14.1425936"><ele>24.5</ele><time>2026-05-01T15:04:03.285Z</time></trkpt><trkpt lat="42.4020719" lon="14.1426755"><ele>24.25</ele><time>2026-05-01T15:04:04.283Z</time></trkpt><trkpt lat="42.4021836" lon="14.1427584"><ele>24.0</ele><time>2026-05-01T15:04:05.279Z</time></trkpt><trkpt lat="42.4022994" lon="14.1428485"><ele>24.0</ele><time>2026-05-01T15:04:06.269Z</time></trkpt><trkpt lat="42.4024254" lon="14.1429538"><ele>24.0</ele><time>2026-05-01T15:04:07.27Z</time></trkpt><trkpt lat="42.402566" lon="14.1430804"><ele>24.0</ele><time>2026-05-01T15:04:08.271Z</time></trkpt><trkpt lat="42.4027135" lon="14.1432157"><ele>24.0</ele><time>2026-05-01T15:04:09.27Z</time></trkpt><trkpt lat="42.4028541" lon="14.1433489"><ele>24.0</ele><time>2026-05-01T15:04:10.245Z</time></trkpt><trkpt lat="42.4029911" lon="14.1434802"><ele>24.0</ele><time>2026-05-01T15:04:11.284Z</time></trkpt><trkpt lat="42.4031259" lon="14.1436035"><ele>24.0</ele><time>2026-05-01T15:04:12.272Z</time></trkpt><trkpt lat="42.4032611" lon="14.1437243"><ele>24.0</ele><time>2026-05-01T15:04:13.27Z</time></trkpt><trkpt lat="42.4033897" lon="14.1438401"><ele>24.0</ele><time>2026-05-01T15:04:14.263Z</time></trkpt><trkpt lat="42.4035179" lon="14.1439515"><ele>24.25</ele><time>2026-05-01T15:04:15.268Z</time></trkpt><trkpt lat="42.4036416" lon="14.1440692"><ele>24.5</ele><time>2026-05-01T15:04:16.263Z</time></trkpt><trkpt lat="42.4037642" lon="14.1441836"><ele>24.75</ele><time>2026-05-01T15:04:17.271Z</time></trkpt><trkpt lat="42.4038862" lon="14.1442972"><ele>25.0</ele><time>2026-05-01T15:04:18.277Z</time></trkpt><trkpt lat="42.4040082" lon="14.1444077"><ele>25.0</ele><time>2026-05-01T15:04:19.271Z</time></trkpt><trkpt lat="42.4041305" lon="14.144517"><ele>25.0</ele><time>2026-05-01T15:04:20.274Z</time></trkpt><trkpt lat="42.4042539" lon="14.1446284"><ele>25.0</ele><time>2026-05-01T15:04:21.269Z</time></trkpt><trkpt lat="42.4043805" lon="14.1447427"><ele>25.0</ele><time>2026-05-01T15:04:22.27Z</time></trkpt><trkpt lat="42.4045061" lon="14.1448553"><ele>25.25</ele><time>2026-05-01T15:04:23.268Z</time></trkpt><trkpt lat="42.4046325" lon="14.1449658"><ele>25.5</ele><time>2026-05-01T15:04:24.266Z</time></trkpt><trkpt lat="42.4047573" lon="14.1450759"><ele>25.75</ele><time>2026-05-01T15:04:25.268Z</time></trkpt><trkpt lat="42.4048782" lon="14.1451849"><ele>26.0</ele><time>2026-05-01T15:04:26.265Z</time></trkpt><trkpt lat="42.4049986" lon="14.1452932"><ele>25.25</ele><time>2026-05-01T15:04:27.247Z</time></trkpt><trkpt lat="42.4051091" lon="14.1453951"><ele>24.5</ele><time>2026-05-01T15:04:28.266Z</time></trkpt><trkpt lat="42.4052114" lon="14.1454852"><ele>23.75</ele><time>2026-05-01T15:04:29.278Z</time></trkpt><trkpt lat="42.4053053" lon="14.1455709"><ele>23.0</ele><time>2026-05-01T15:04:30.255Z</time></trkpt><trkpt lat="42.4053834" lon="14.1456555"><ele>22.833333333333336</ele><time>2026-05-01T15:04:31.269Z</time></trkpt><trkpt lat="42.4054337" lon="14.1457411"><ele>22.666666666666668</ele><time>2026-05-01T15:04:32.274Z</time></trkpt><trkpt lat="42.4054558" lon="14.145836"><ele>22.5</ele><time>2026-05-01T15:04:33.27Z</time></trkpt><trkpt lat="42.4054503" lon="14.1459456"><ele>22.333333333333332</ele><time>2026-05-01T15:04:34.271Z</time></trkpt><trkpt lat="42.4054565" lon="14.146043"><ele>22.166666666666664</ele><time>2026-05-01T15:04:35.269Z</time></trkpt><trkpt lat="42.4054999" lon="14.1461154"><ele>22.0</ele><time>2026-05-01T15:04:36.269Z</time></trkpt><trkpt lat="42.4055722" lon="14.1461386"><ele>22.0</ele><time>2026-05-01T15:04:37.287Z</time></trkpt><trkpt lat="42.4056492" lon="14.1461078"><ele>22.0</ele><time>2026-05-01T15:04:38.273Z</time></trkpt><trkpt lat="42.4057266" lon="14.1460563"><ele>22.0</ele><time>2026-05-01T15:04:39.264Z</time></trkpt><trkpt lat="42.4058058" lon="14.1460503"><ele>22.0</ele><time>2026-05-01T15:04:40.257Z</time></trkpt><trkpt lat="42.4058971" lon="14.1461144"><ele>22.0</ele><time>2026-05-01T15:04:41.267Z</time></trkpt><trkpt lat="42.4059891" lon="14.1462019"><ele>22.0</ele><time>2026-05-01T15:04:42.267Z</time></trkpt><trkpt lat="42.4060896" lon="14.1462948"><ele>22.0</ele><time>2026-05-01T15:04:43.269Z</time></trkpt><trkpt lat="42.4061938" lon="14.146388"><ele>22.0</ele><time>2026-05-01T15:04:44.257Z</time></trkpt><trkpt lat="42.4063048" lon="14.1464823"><ele>22.0</ele><time>2026-05-01T15:04:45.26Z</time></trkpt><trkpt lat="42.4064187" lon="14.1465808"><ele>22.0</ele><time>2026-05-01T15:04:46.267Z</time></trkpt><trkpt lat="42.4065347" lon="14.146679"><ele>22.0</ele><time>2026-05-01T15:04:47.247Z</time></trkpt><trkpt lat="42.4066529" lon="14.1467668"><ele>22.0</ele><time>2026-05-01T15:04:48.258Z</time></trkpt><trkpt lat="42.4067772" lon="14.1468485"><ele>22.0</ele><time>2026-05-01T15:04:49.269Z</time></trkpt><trkpt lat="42.4069061" lon="14.1469216"><ele>22.0</ele><time>2026-05-01T15:04:50.259Z</time></trkpt><trkpt lat="42.4070435" lon="14.1469835"><ele>22.0</ele><time>2026-05-01T15:04:51.273Z</time></trkpt><trkpt lat="42.4071896" lon="14.1470273"><ele>22.0</ele><time>2026-05-01T15:04:52.273Z</time></trkpt><trkpt lat="42.4073376" lon="14.1470655"><ele>22.0</ele><time>2026-05-01T15:04:53.266Z</time></trkpt><trkpt lat="42.4074908" lon="14.1471009"><ele>20.666666666666664</ele><time>2026-05-01T15:04:54.273Z</time></trkpt><trkpt lat="42.4076498" lon="14.1471307"><ele>19.333333333333332</ele><time>2026-05-01T15:04:55.264Z</time></trkpt><trkpt lat="42.4078157" lon="14.1471648"><ele>18.0</ele><time>2026-05-01T15:04:56.272Z</time></trkpt><trkpt lat="42.4079841" lon="14.1471965"><ele>17.666666666666668</ele><time>2026-05-01T15:04:57.269Z</time></trkpt><trkpt lat="42.4081526" lon="14.1472404"><ele>17.333333333333336</ele><time>2026-05-01T15:04:58.271Z</time></trkpt><trkpt lat="42.4083163" lon="14.1472965"><ele>17.0</ele><time>2026-05-01T15:04:59.27Z</time></trkpt><trkpt lat="42.4084785" lon="14.147368"><ele>17.0</ele><time>2026-05-01T15:05:00.267Z</time></trkpt><trkpt lat="42.4086361" lon="14.1474579"><ele>17.0</ele><time>2026-05-01T15:05:01.263Z</time></trkpt><trkpt lat="42.4087905" lon="14.1475527"><ele>17.0</ele><time>2026-05-01T15:05:02.265Z</time></trkpt><trkpt lat="42.408942" lon="14.1476602"><ele>17.0</ele><time>2026-05-01T15:05:03.266Z</time></trkpt><trkpt lat="42.4090905" lon="14.1477758"><ele>17.0</ele><time>2026-05-01T15:05:04.247Z</time></trkpt><trkpt lat="42.4092433" lon="14.1478972"><ele>17.0</ele><time>2026-05-01T15:05:05.267Z</time></trkpt><trkpt lat="42.4093963" lon="14.1480168"><ele>17.0</ele><time>2026-05-01T15:05:06.264Z</time></trkpt><trkpt lat="42.4095493" lon="14.1481402"><ele>17.0</ele><time>2026-05-01T15:05:07.272Z</time></trkpt><trkpt lat="42.4097027" lon="14.1482618"><ele>17.0</ele><time>2026-05-01T15:05:08.265Z</time></trkpt><trkpt lat="42.4098563" lon="14.1483839"><ele>17.666666666666668</ele><time>2026-05-01T15:05:09.269Z</time></trkpt><trkpt lat="42.4100142" lon="14.148506"><ele>18.333333333333332</ele><time>2026-05-01T15:05:10.273Z</time></trkpt><trkpt lat="42.4101737" lon="14.1486296"><ele>19.0</ele><time>2026-05-01T15:05:11.263Z</time></trkpt><trkpt lat="42.4103375" lon="14.1487561"><ele>19.0</ele><time>2026-05-01T15:05:12.265Z</time></trkpt><trkpt lat="42.4105024" lon="14.1488872"><ele>19.0</ele><time>2026-05-01T15:05:13.284Z</time></trkpt><trkpt lat="42.410665" lon="14.1490164"><ele>19.0</ele><time>2026-05-01T15:05:14.265Z</time></trkpt><trkpt lat="42.4108347" lon="14.1491455"><ele>19.666666666666664</ele><time>2026-05-01T15:05:15.274Z</time></trkpt><trkpt lat="42.4110009" lon="14.1492792"><ele>20.333333333333332</ele><time>2026-05-01T15:05:16.274Z</time></trkpt><trkpt lat="42.411166" lon="14.1494211"><ele>21.0</ele><time>2026-05-01T15:05:17.271Z</time></trkpt><trkpt lat="42.4113358" lon="14.1495579"><ele>21.0</ele><time>2026-05-01T15:05:18.27Z</time></trkpt><trkpt lat="42.4115091" lon="14.1496978"><ele>21.0</ele><time>2026-05-01T15:05:19.275Z</time></trkpt><trkpt lat="42.4116807" lon="14.1498346"><ele>21.0</ele><time>2026-05-01T15:05:20.282Z</time></trkpt><trkpt lat="42.4118543" lon="14.1499667"><ele>20.0</ele><time>2026-05-01T15:05:21.272Z</time></trkpt><trkpt lat="42.4120284" lon="14.1500992"><ele>19.0</ele><time>2026-05-01T15:05:22.265Z</time></trkpt><trkpt lat="42.4121978" lon="14.1502309"><ele>18.0</ele><time>2026-05-01T15:05:23.271Z</time></trkpt><trkpt lat="42.4123589" lon="14.1503554"><ele>17.0</ele><time>2026-05-01T15:05:24.272Z</time></trkpt><trkpt lat="42.4125108" lon="14.1504745"><ele>16.0</ele><time>2026-05-01T15:05:25.27Z</time></trkpt><trkpt lat="42.4126615" lon="14.1505961"><ele>15.0</ele><time>2026-05-01T15:05:26.273Z</time></trkpt><trkpt lat="42.4128052" lon="14.1507239"><ele>15.0</ele><time>2026-05-01T15:05:27.262Z</time></trkpt><trkpt lat="42.4129437" lon="14.1508544"><ele>15.0</ele><time>2026-05-01T15:05:28.265Z</time></trkpt><trkpt lat="42.4130775" lon="14.1509886"><ele>15.0</ele><time>2026-05-01T15:05:29.263Z</time></trkpt><trkpt lat="42.4132082" lon="14.1511242"><ele>15.0</ele><time>2026-05-01T15:05:30.258Z</time></trkpt><trkpt lat="42.4133368" lon="14.1512633"><ele>15.0</ele><time>2026-05-01T15:05:31.269Z</time></trkpt><trkpt lat="42.4134668" lon="14.151398"><ele>15.0</ele><time>2026-05-01T15:05:32.263Z</time></trkpt><trkpt lat="42.4136027" lon="14.1515224"><ele>15.333333333333332</ele><time>2026-05-01T15:05:33.273Z</time></trkpt><trkpt lat="42.4137426" lon="14.1516316"><ele>15.666666666666666</ele><time>2026-05-01T15:05:34.261Z</time></trkpt><trkpt lat="42.4138872" lon="14.1517332"><ele>16.0</ele><time>2026-05-01T15:05:35.267Z</time></trkpt><trkpt lat="42.4140353" lon="14.1518158"><ele>16.0</ele><time>2026-05-01T15:05:36.26Z</time></trkpt><trkpt lat="42.4141884" lon="14.1518877"><ele>16.0</ele><time>2026-05-01T15:05:37.268Z</time></trkpt><trkpt lat="42.4143456" lon="14.1519463"><ele>16.0</ele><time>2026-05-01T15:05:38.276Z</time></trkpt><trkpt lat="42.4145021" lon="14.1519942"><ele>15.666666666666666</ele><time>2026-05-01T15:05:39.273Z</time></trkpt><trkpt lat="42.4146582" lon="14.1520305"><ele>15.333333333333332</ele><time>2026-05-01T15:05:40.266Z</time></trkpt><trkpt lat="42.4148208" lon="14.1520545"><ele>15.0</ele><time>2026-05-01T15:05:41.266Z</time></trkpt><trkpt lat="42.4149846" lon="14.1520677"><ele>15.0</ele><time>2026-05-01T15:05:42.256Z</time></trkpt><trkpt lat="42.4151498" lon="14.1520803"><ele>15.0</ele><time>2026-05-01T15:05:43.265Z</time></trkpt><trkpt lat="42.4153122" lon="14.1520882"><ele>15.0</ele><time>2026-05-01T15:05:44.26Z</time></trkpt><trkpt lat="42.415476" lon="14.1520945"><ele>15.333333333333332</ele><time>2026-05-01T15:05:45.264Z</time></trkpt><trkpt lat="42.4156404" lon="14.1521067"><ele>15.666666666666666</ele><time>2026-05-01T15:05:46.265Z</time></trkpt><trkpt lat="42.4158025" lon="14.1521382"><ele>16.0</ele><time>2026-05-01T15:05:47.271Z</time></trkpt><trkpt lat="42.415959" lon="14.1521872"><ele>16.0</ele><time>2026-05-01T15:05:48.256Z</time></trkpt><trkpt lat="42.416109" lon="14.1522633"><ele>16.0</ele><time>2026-05-01T15:05:49.264Z</time></trkpt><trkpt lat="42.4162425" lon="14.1523571"><ele>16.0</ele><time>2026-05-01T15:05:50.267Z</time></trkpt><trkpt lat="42.4163576" lon="14.1524665"><ele>17.0</ele><time>2026-05-01T15:05:51.271Z</time></trkpt><trkpt lat="42.4164649" lon="14.1525962"><ele>18.0</ele><time>2026-05-01T15:05:52.254Z</time></trkpt><trkpt lat="42.4165692" lon="14.1527439"><ele>19.0</ele><time>2026-05-01T15:05:53.276Z</time></trkpt><trkpt lat="42.4166726" lon="14.152893"><ele>20.0</ele><time>2026-05-01T15:05:54.269Z</time></trkpt><trkpt lat="42.4167834" lon="14.1530414"><ele>20.0</ele><time>2026-05-01T15:05:55.264Z</time></trkpt><trkpt lat="42.4168921" lon="14.1531975"><ele>20.0</ele><time>2026-05-01T15:05:56.269Z</time></trkpt><trkpt lat="42.4170077" lon="14.1533536"><ele>20.0</ele><time>2026-05-01T15:05:57.276Z</time></trkpt><trkpt lat="42.4171218" lon="14.1535103"><ele>20.333333333333336</ele><time>2026-05-01T15:05:58.268Z</time></trkpt><trkpt lat="42.4172348" lon="14.1536651"><ele>20.666666666666668</ele><time>2026-05-01T15:05:59.27Z</time></trkpt><trkpt lat="42.4173482" lon="14.1538211"><ele>21.0</ele><time>2026-05-01T15:06:00.263Z</time></trkpt><trkpt lat="42.4174655" lon="14.1539763"><ele>20.333333333333332</ele><time>2026-05-01T15:06:01.284Z</time></trkpt><trkpt lat="42.4175819" lon="14.1541284"><ele>19.666666666666664</ele><time>2026-05-01T15:06:02.276Z</time></trkpt><trkpt lat="42.4176992" lon="14.1542834"><ele>19.0</ele><time>2026-05-01T15:06:03.272Z</time></trkpt><trkpt lat="42.4178157" lon="14.1544374"><ele>19.0</ele><time>2026-05-01T15:06:04.27Z</time></trkpt><trkpt lat="42.4179363" lon="14.1545956"><ele>19.0</ele><time>2026-05-01T15:06:05.269Z</time></trkpt><trkpt lat="42.4180513" lon="14.1547562"><ele>19.0</ele><time>2026-05-01T15:06:06.27Z</time></trkpt><trkpt lat="42.418168" lon="14.1549178"><ele>18.333333333333332</ele><time>2026-05-01T15:06:07.271Z</time></trkpt><trkpt lat="42.4182886" lon="14.1550847"><ele>17.666666666666668</ele><time>2026-05-01T15:06:08.303Z</time></trkpt><trkpt lat="42.4184061" lon="14.1552466"><ele>17.0</ele><time>2026-05-01T15:06:09.267Z</time></trkpt><trkpt lat="42.4185272" lon="14.1554134"><ele>17.0</ele><time>2026-05-01T15:06:10.271Z</time></trkpt><trkpt lat="42.4186466" lon="14.1555803"><ele>17.0</ele><time>2026-05-01T15:06:11.265Z</time></trkpt><trkpt lat="42.4187667" lon="14.1557495"><ele>17.0</ele><time>2026-05-01T15:06:12.271Z</time></trkpt><trkpt lat="42.4188845" lon="14.155914"><ele>19.0</ele><time>2026-05-01T15:06:13.269Z</time></trkpt><trkpt lat="42.4190023" lon="14.1560785"><ele>21.0</ele><time>2026-05-01T15:06:14.255Z</time></trkpt><trkpt lat="42.4191304" lon="14.1562327"><ele>23.0</ele><time>2026-05-01T15:06:15.273Z</time></trkpt><trkpt lat="42.4192693" lon="14.1563536"><ele>23.0</ele><time>2026-05-01T15:06:16.263Z</time></trkpt><trkpt lat="42.4194235" lon="14.1564432"><ele>23.0</ele><time>2026-05-01T15:06:17.267Z</time></trkpt><trkpt lat="42.4195793" lon="14.1565078"><ele>23.0</ele><time>2026-05-01T15:06:18.281Z</time></trkpt><trkpt lat="42.419735" lon="14.1565713"><ele>22.0</ele><time>2026-05-01T15:06:19.269Z</time></trkpt><trkpt lat="42.4198896" lon="14.1566364"><ele>21.0</ele><time>2026-05-01T15:06:20.273Z</time></trkpt><trkpt lat="42.4200469" lon="14.1567015"><ele>20.0</ele><time>2026-05-01T15:06:21.275Z</time></trkpt><trkpt lat="42.4202053" lon="14.1567744"><ele>20.0</ele><time>2026-05-01T15:06:22.277Z</time></trkpt><trkpt lat="42.4203627" lon="14.1568435"><ele>20.0</ele><time>2026-05-01T15:06:23.277Z</time></trkpt><trkpt lat="42.4205219" lon="14.1569105"><ele>20.0</ele><time>2026-05-01T15:06:24.272Z</time></trkpt><trkpt lat="42.4206838" lon="14.1569744"><ele>20.333333333333336</ele><time>2026-05-01T15:06:25.28Z</time></trkpt><trkpt lat="42.4208457" lon="14.1570326"><ele>20.666666666666668</ele><time>2026-05-01T15:06:26.263Z</time></trkpt><trkpt lat="42.421006" lon="14.1570975"><ele>21.0</ele><time>2026-05-01T15:06:27.277Z</time></trkpt><trkpt lat="42.4211616" lon="14.1571624"><ele>21.666666666666668</ele><time>2026-05-01T15:06:28.272Z</time></trkpt><trkpt lat="42.4213158" lon="14.1572293"><ele>22.333333333333336</ele><time>2026-05-01T15:06:29.272Z</time></trkpt><trkpt lat="42.4214672" lon="14.1572971"><ele>23.0</ele><time>2026-05-01T15:06:30.264Z</time></trkpt><trkpt lat="42.4216127" lon="14.157355"><ele>22.0</ele><time>2026-05-01T15:06:31.262Z</time></trkpt><trkpt lat="42.4217469" lon="14.1573989"><ele>21.0</ele><time>2026-05-01T15:06:32.258Z</time></trkpt><trkpt lat="42.4218709" lon="14.1574212"><ele>20.0</ele><time>2026-05-01T15:06:33.281Z</time></trkpt><trkpt lat="42.4219776" lon="14.1574261"><ele>19.0</ele><time>2026-05-01T15:06:34.261Z</time></trkpt><trkpt lat="42.4220724" lon="14.1574211"><ele>19.166666666666664</ele><time>2026-05-01T15:06:35.267Z</time></trkpt><trkpt lat="42.4221546" lon="14.1574109"><ele>19.333333333333332</ele><time>2026-05-01T15:06:36.265Z</time></trkpt><trkpt lat="42.422232" lon="14.1574228"><ele>19.5</ele><time>2026-05-01T15:06:37.274Z</time></trkpt><trkpt lat="42.4223137" lon="14.1574732"><ele>19.666666666666668</ele><time>2026-05-01T15:06:38.266Z</time></trkpt><trkpt lat="42.4224022" lon="14.1575245"><ele>19.833333333333336</ele><time>2026-05-01T15:06:39.262Z</time></trkpt><trkpt lat="42.422481" lon="14.1575689"><ele>20.0</ele><time>2026-05-01T15:06:40.262Z</time></trkpt><trkpt lat="42.42254" lon="14.1576078"><ele>20.0</ele><time>2026-05-01T15:06:41.267Z</time></trkpt><trkpt lat="42.4226348" lon="14.1576804"><ele>20.0</ele><time>2026-05-01T15:06:43.265Z</time></trkpt><trkpt lat="42.4227226" lon="14.1577516"><ele>20.0</ele><time>2026-05-01T15:06:45.267Z</time></trkpt><trkpt lat="42.4227999" lon="14.1578066"><ele>20.0</ele><time>2026-05-01T15:06:47.27Z</time></trkpt><trkpt lat="42.4228629" lon="14.1578259"><ele>20.0</ele><time>2026-05-01T15:06:50.266Z</time></trkpt><trkpt lat="42.4229506" lon="14.1578505"><ele>19.666666666666668</ele><time>2026-05-01T15:06:53.268Z</time></trkpt><trkpt lat="42.4230258" lon="14.1578851"><ele>19.333333333333336</ele><time>2026-05-01T15:06:55.258Z</time></trkpt><trkpt lat="42.4231245" lon="14.1579271"><ele>19.0</ele><time>2026-05-01T15:06:57.255Z</time></trkpt><trkpt lat="42.4231866" lon="14.1579558"><ele>18.666666666666668</ele><time>2026-05-01T15:06:58.253Z</time></trkpt><trkpt lat="42.4232603" lon="14.1579925"><ele>18.333333333333332</ele><time>2026-05-01T15:06:59.275Z</time></trkpt><trkpt lat="42.4233415" lon="14.1580299"><ele>18.0</ele><time>2026-05-01T15:07:00.263Z</time></trkpt><trkpt lat="42.423428" lon="14.1580678"><ele>18.0</ele><time>2026-05-01T15:07:01.257Z</time></trkpt><trkpt lat="42.4235216" lon="14.1581023"><ele>18.0</ele><time>2026-05-01T15:07:02.256Z</time></trkpt><trkpt lat="42.4236162" lon="14.1581399"><ele>18.0</ele><time>2026-05-01T15:07:03.254Z</time></trkpt><trkpt lat="42.4237193" lon="14.1581878"><ele>18.0</ele><time>2026-05-01T15:07:04.268Z</time></trkpt><trkpt lat="42.423823" lon="14.1582332"><ele>18.0</ele><time>2026-05-01T15:07:05.273Z</time></trkpt><trkpt lat="42.4239261" lon="14.1582802"><ele>17.8</ele><time>2026-05-01T15:07:06.257Z</time></trkpt><trkpt lat="42.4240212" lon="14.1583283"><ele>17.6</ele><time>2026-05-01T15:07:07.285Z</time></trkpt><trkpt lat="42.4241109" lon="14.1583712"><ele>17.4</ele><time>2026-05-01T15:07:08.263Z</time></trkpt><trkpt lat="42.4242023" lon="14.1584199"><ele>17.2</ele><time>2026-05-01T15:07:09.26Z</time></trkpt><trkpt lat="42.4242942" lon="14.1584621"><ele>17.0</ele><time>2026-05-01T15:07:10.259Z</time></trkpt><trkpt lat="42.4243896" lon="14.1585028"><ele>17.0</ele><time>2026-05-01T15:07:11.263Z</time></trkpt><trkpt lat="42.4244857" lon="14.158538"><ele>17.0</ele><time>2026-05-01T15:07:12.249Z</time></trkpt><trkpt lat="42.4245838" lon="14.1585796"><ele>17.0</ele><time>2026-05-01T15:07:13.264Z</time></trkpt><trkpt lat="42.4246811" lon="14.1586215"><ele>17.0</ele><time>2026-05-01T15:07:14.263Z</time></trkpt><trkpt lat="42.424781" lon="14.1586601"><ele>17.0</ele><time>2026-05-01T15:07:15.284Z</time></trkpt><trkpt lat="42.4248763" lon="14.1586993"><ele>17.2</ele><time>2026-05-01T15:07:16.264Z</time></trkpt><trkpt lat="42.4249712" lon="14.1587408"><ele>17.4</ele><time>2026-05-01T15:07:17.268Z</time></trkpt><trkpt lat="42.4250686" lon="14.158784"><ele>17.6</ele><time>2026-05-01T15:07:18.256Z</time></trkpt><trkpt lat="42.4251658" lon="14.1588285"><ele>17.8</ele><time>2026-05-01T15:07:19.28Z</time></trkpt><trkpt lat="42.4252594" lon="14.1588707"><ele>18.0</ele><time>2026-05-01T15:07:20.26Z</time></trkpt><trkpt lat="42.4253514" lon="14.1589092"><ele>18.0</ele><time>2026-05-01T15:07:21.264Z</time></trkpt><trkpt lat="42.4254408" lon="14.1589502"><ele>18.0</ele><time>2026-05-01T15:07:22.256Z</time></trkpt><trkpt lat="42.425534" lon="14.1589888"><ele>18.0</ele><time>2026-05-01T15:07:23.266Z</time></trkpt><trkpt lat="42.4256248" lon="14.159029"><ele>18.0</ele><time>2026-05-01T15:07:24.264Z</time></trkpt><trkpt lat="42.4257126" lon="14.1590719"><ele>18.0</ele><time>2026-05-01T15:07:25.273Z</time></trkpt><trkpt lat="42.425796" lon="14.159109"><ele>18.2</ele><time>2026-05-01T15:07:26.268Z</time></trkpt><trkpt lat="42.4258813" lon="14.1591573"><ele>18.4</ele><time>2026-05-01T15:07:27.27Z</time></trkpt><trkpt lat="42.4259672" lon="14.1592123"><ele>18.599999999999998</ele><time>2026-05-01T15:07:28.268Z</time></trkpt><trkpt lat="42.4260601" lon="14.1592688"><ele>18.8</ele><time>2026-05-01T15:07:29.273Z</time></trkpt><trkpt lat="42.4261532" lon="14.1593213"><ele>19.0</ele><time>2026-05-01T15:07:30.264Z</time></trkpt><trkpt lat="42.4262485" lon="14.1593808"><ele>19.2</ele><time>2026-05-01T15:07:31.27Z</time></trkpt><trkpt lat="42.4263442" lon="14.1594429"><ele>19.4</ele><time>2026-05-01T15:07:32.272Z</time></trkpt><trkpt lat="42.4264398" lon="14.1595046"><ele>19.6</ele><time>2026-05-01T15:07:33.254Z</time></trkpt><trkpt lat="42.4265314" lon="14.1595678"><ele>19.8</ele><time>2026-05-01T15:07:34.253Z</time></trkpt><trkpt lat="42.4266237" lon="14.1596352"><ele>20.0</ele><time>2026-05-01T15:07:35.251Z</time></trkpt><trkpt lat="42.4267164" lon="14.1597064"><ele>20.0</ele><time>2026-05-01T15:07:36.256Z</time></trkpt><trkpt lat="42.426815" lon="14.1597825"><ele>20.0</ele><time>2026-05-01T15:07:37.28Z</time></trkpt><trkpt lat="42.4269161" lon="14.1598573"><ele>20.0</ele><time>2026-05-01T15:07:38.253Z</time></trkpt><trkpt lat="42.4270075" lon="14.1599376"><ele>20.0</ele><time>2026-05-01T15:07:39.271Z</time></trkpt><trkpt lat="42.4270993" lon="14.1600142"><ele>20.0</ele><time>2026-05-01T15:07:40.263Z</time></trkpt><trkpt lat="42.4271899" lon="14.1600878"><ele>19.6</ele><time>2026-05-01T15:07:41.273Z</time></trkpt><trkpt lat="42.4272769" lon="14.1601649"><ele>19.2</ele><time>2026-05-01T15:07:42.263Z</time></trkpt><trkpt lat="42.4273639" lon="14.1602475"><ele>18.8</ele><time>2026-05-01T15:07:43.263Z</time></trkpt><trkpt lat="42.4274521" lon="14.1603283"><ele>18.4</ele><time>2026-05-01T15:07:44.267Z</time></trkpt><trkpt lat="42.4275409" lon="14.1604093"><ele>18.0</ele><time>2026-05-01T15:07:45.267Z</time></trkpt><trkpt lat="42.4276311" lon="14.1604937"><ele>18.0</ele><time>2026-05-01T15:07:46.267Z</time></trkpt><trkpt lat="42.4277237" lon="14.1605787"><ele>18.0</ele><time>2026-05-01T15:07:47.269Z</time></trkpt><trkpt lat="42.4278194" lon="14.1606656"><ele>18.0</ele><time>2026-05-01T15:07:48.271Z</time></trkpt><trkpt lat="42.427912" lon="14.1607587"><ele>18.0</ele><time>2026-05-01T15:07:49.279Z</time></trkpt><trkpt lat="42.428004" lon="14.1608527"><ele>17.8</ele><time>2026-05-01T15:07:50.262Z</time></trkpt><trkpt lat="42.4280941" lon="14.1609433"><ele>17.6</ele><time>2026-05-01T15:07:51.273Z</time></trkpt><trkpt lat="42.4281808" lon="14.161028"><ele>17.4</ele><time>2026-05-01T15:07:52.271Z</time></trkpt><trkpt lat="42.4282682" lon="14.1611086"><ele>17.2</ele><time>2026-05-01T15:07:53.261Z</time></trkpt><trkpt lat="42.4283569" lon="14.1611887"><ele>17.0</ele><time>2026-05-01T15:07:54.268Z</time></trkpt><trkpt lat="42.4284409" lon="14.1612683"><ele>17.0</ele><time>2026-05-01T15:07:55.265Z</time></trkpt><trkpt lat="42.4285245" lon="14.1613484"><ele>17.0</ele><time>2026-05-01T15:07:56.264Z</time></trkpt><trkpt lat="42.4286075" lon="14.1614286"><ele>17.0</ele><time>2026-05-01T15:07:57.267Z</time></trkpt><trkpt lat="42.4286874" lon="14.1615076"><ele>17.0</ele><time>2026-05-01T15:07:58.264Z</time></trkpt><trkpt lat="42.4287693" lon="14.1615839"><ele>17.0</ele><time>2026-05-01T15:07:59.259Z</time></trkpt><trkpt lat="42.4288485" lon="14.1616577"><ele>18.666666666666668</ele><time>2026-05-01T15:08:00.258Z</time></trkpt><trkpt lat="42.4289233" lon="14.1617393"><ele>20.333333333333336</ele><time>2026-05-01T15:08:01.262Z</time></trkpt><trkpt lat="42.4289993" lon="14.1618195"><ele>22.0</ele><time>2026-05-01T15:08:02.265Z</time></trkpt><trkpt lat="42.4290618" lon="14.1618817"><ele>23.666666666666668</ele><time>2026-05-01T15:08:03.263Z</time></trkpt><trkpt lat="42.4291251" lon="14.161942"><ele>25.333333333333332</ele><time>2026-05-01T15:08:05.286Z</time></trkpt><trkpt lat="42.4291848" lon="14.1619935"><ele>27.0</ele><time>2026-05-01T15:08:12.192Z</time></trkpt><trkpt lat="42.4292686" lon="14.1620783"><ele>27.0</ele><time>2026-05-01T15:08:13.267Z</time></trkpt><trkpt lat="42.4293296" lon="14.1621419"><ele>27.0</ele><time>2026-05-01T15:08:14.268Z</time></trkpt><trkpt lat="42.4293922" lon="14.1622061"><ele>27.0</ele><time>2026-05-01T15:08:15.258Z</time></trkpt><trkpt lat="42.4294589" lon="14.1622702"><ele>27.0</ele><time>2026-05-01T15:08:16.262Z</time></trkpt><trkpt lat="42.429533" lon="14.1623428"><ele>27.0</ele><time>2026-05-01T15:08:17.268Z</time></trkpt><trkpt lat="42.4296132" lon="14.1624204"><ele>27.0</ele><time>2026-05-01T15:08:18.265Z</time></trkpt><trkpt lat="42.4296991" lon="14.1624953"><ele>25.8</ele><time>2026-05-01T15:08:19.258Z</time></trkpt><trkpt lat="42.42979" lon="14.1625723"><ele>24.6</ele><time>2026-05-01T15:08:20.26Z</time></trkpt><trkpt lat="42.4298892" lon="14.1626404"><ele>23.400000000000002</ele><time>2026-05-01T15:08:21.255Z</time></trkpt><trkpt lat="42.4299938" lon="14.1626906"><ele>22.200000000000003</ele><time>2026-05-01T15:08:22.26Z</time></trkpt><trkpt lat="42.4300949" lon="14.1627263"><ele>21.0</ele><time>2026-05-01T15:08:23.264Z</time></trkpt><trkpt lat="42.4301866" lon="14.1627501"><ele>21.0</ele><time>2026-05-01T15:08:24.265Z</time></trkpt><trkpt lat="42.4302741" lon="14.1627618"><ele>21.0</ele><time>2026-05-01T15:08:25.273Z</time></trkpt><trkpt lat="42.4303496" lon="14.1627728"><ele>21.0</ele><time>2026-05-01T15:08:26.258Z</time></trkpt><trkpt lat="42.43045" lon="14.162786"><ele>21.0</ele><time>2026-05-01T15:08:28.277Z</time></trkpt><trkpt lat="42.4305285" lon="14.1627733"><ele>21.0</ele><time>2026-05-01T15:08:41.26Z</time></trkpt><trkpt lat="42.4305341" lon="14.1626747"><ele>21.0</ele><time>2026-05-01T15:08:51.263Z</time></trkpt><trkpt lat="42.4304721" lon="14.1626118"><ele>21.0</ele><time>2026-05-01T15:08:53.262Z</time></trkpt><trkpt lat="42.4304003" lon="14.1625378"><ele>21.0</ele><time>2026-05-01T15:08:55.266Z</time></trkpt><trkpt lat="42.430347" lon="14.1624389"><ele>21.0</ele><time>2026-05-01T15:08:57.262Z</time></trkpt><trkpt lat="42.4303509" lon="14.162327"><ele>21.0</ele><time>2026-05-01T15:08:59.267Z</time></trkpt><trkpt lat="42.430393" lon="14.1622265"><ele>21.0</ele><time>2026-05-01T15:09:01.272Z</time></trkpt><trkpt lat="42.4304406" lon="14.1621102"><ele>21.0</ele><time>2026-05-01T15:09:03.259Z</time></trkpt><trkpt lat="42.4304939" lon="14.1619849"><ele>21.4</ele><time>2026-05-01T15:09:05.278Z</time></trkpt><trkpt lat="42.430549" lon="14.1618545"><ele>21.8</ele><time>2026-05-01T15:09:07.264Z</time></trkpt><trkpt lat="42.43061" lon="14.1617018"><ele>22.2</ele><time>2026-05-01T15:09:09.267Z</time></trkpt><trkpt lat="42.4306474" lon="14.1616054"><ele>22.599999999999998</ele><time>2026-05-01T15:09:10.265Z</time></trkpt><trkpt lat="42.430688" lon="14.161507"><ele>23.0</ele><time>2026-05-01T15:09:11.26Z</time></trkpt><trkpt lat="42.4307262" lon="14.1614126"><ele>23.666666666666668</ele><time>2026-05-01T15:09:12.261Z</time></trkpt><trkpt lat="42.4307679" lon="14.16132"><ele>24.333333333333336</ele><time>2026-05-01T15:09:13.274Z</time></trkpt><trkpt lat="42.4308083" lon="14.1612324"><ele>25.0</ele><time>2026-05-01T15:09:14.275Z</time></trkpt><trkpt lat="42.4308524" lon="14.1611499"><ele>25.666666666666668</ele><time>2026-05-01T15:09:16.267Z</time></trkpt><trkpt lat="42.4308878" lon="14.161077"><ele>26.333333333333332</ele><time>2026-05-01T15:09:23.283Z</time></trkpt><trkpt lat="42.4309449" lon="14.1609097"><ele>27.0</ele><time>2026-05-01T15:09:25.274Z</time></trkpt><trkpt lat="42.4309865" lon="14.160805"><ele>27.0</ele><time>2026-05-01T15:09:26.269Z</time></trkpt><trkpt lat="42.4310312" lon="14.1606914"><ele>27.000000000000004</ele><time>2026-05-01T15:09:27.257Z</time></trkpt><trkpt lat="42.4310741" lon="14.1605709"><ele>27.000000000000004</ele><time>2026-05-01T15:09:28.273Z</time></trkpt><trkpt lat="42.4311238" lon="14.1604513"><ele>27.0</ele><time>2026-05-01T15:09:29.266Z</time></trkpt><trkpt lat="42.4311768" lon="14.1603261"><ele>27.0</ele><time>2026-05-01T15:09:30.266Z</time></trkpt><trkpt lat="42.4312329" lon="14.1602036"><ele>27.0</ele><time>2026-05-01T15:09:31.266Z</time></trkpt><trkpt lat="42.4312879" lon="14.1600721"><ele>27.000000000000004</ele><time>2026-05-01T15:09:32.261Z</time></trkpt><trkpt lat="42.4313439" lon="14.1599453"><ele>27.000000000000004</ele><time>2026-05-01T15:09:33.266Z</time></trkpt><trkpt lat="42.4313983" lon="14.1598155"><ele>27.0</ele><time>2026-05-01T15:09:34.258Z</time></trkpt><trkpt lat="42.4314493" lon="14.1596818"><ele>27.0</ele><time>2026-05-01T15:09:35.265Z</time></trkpt><trkpt lat="42.4315012" lon="14.1595553"><ele>28.0</ele><time>2026-05-01T15:09:36.261Z</time></trkpt><trkpt lat="42.4315522" lon="14.1594287"><ele>29.000000000000004</ele><time>2026-05-01T15:09:37.263Z</time></trkpt><trkpt lat="42.4316031" lon="14.1592992"><ele>30.000000000000004</ele><time>2026-05-01T15:09:38.263Z</time></trkpt><trkpt lat="42.4316517" lon="14.1591797"><ele>31.0</ele><time>2026-05-01T15:09:39.262Z</time></trkpt><trkpt lat="42.4317024" lon="14.1590651"><ele>32.0</ele><time>2026-05-01T15:09:40.262Z</time></trkpt><trkpt lat="42.4317498" lon="14.1589502"><ele>32.2</ele><time>2026-05-01T15:09:41.265Z</time></trkpt><trkpt lat="42.4317943" lon="14.1588331"><ele>32.400000000000006</ele><time>2026-05-01T15:09:42.266Z</time></trkpt><trkpt lat="42.4318374" lon="14.1587112"><ele>32.599999999999994</ele><time>2026-05-01T15:09:43.258Z</time></trkpt><trkpt lat="42.4318857" lon="14.158586"><ele>32.8</ele><time>2026-05-01T15:09:44.302Z</time></trkpt><trkpt lat="42.4319349" lon="14.158472"><ele>33.0</ele><time>2026-05-01T15:09:45.274Z</time></trkpt><trkpt lat="42.4319825" lon="14.158349"><ele>33.0</ele><time>2026-05-01T15:09:46.256Z</time></trkpt><trkpt lat="42.4320303" lon="14.1582266"><ele>33.0</ele><time>2026-05-01T15:09:47.275Z</time></trkpt><trkpt lat="42.4320798" lon="14.158106"><ele>33.0</ele><time>2026-05-01T15:09:48.264Z</time></trkpt><trkpt lat="42.4321285" lon="14.1579813"><ele>33.0</ele><time>2026-05-01T15:09:49.27Z</time></trkpt><trkpt lat="42.4321789" lon="14.1578656"><ele>33.0</ele><time>2026-05-01T15:09:50.27Z</time></trkpt><trkpt lat="42.4322247" lon="14.1577546"><ele>34.599999999999994</ele><time>2026-05-01T15:09:51.264Z</time></trkpt><trkpt lat="42.4322741" lon="14.1576404"><ele>36.199999999999996</ele><time>2026-05-01T15:09:52.26Z</time></trkpt><trkpt lat="42.4323296" lon="14.1575295"><ele>37.8</ele><time>2026-05-01T15:09:53.27Z</time></trkpt><trkpt lat="42.4323944" lon="14.157418"><ele>39.4</ele><time>2026-05-01T15:09:54.261Z</time></trkpt><trkpt lat="42.4324729" lon="14.1573066"><ele>41.0</ele><time>2026-05-01T15:09:55.268Z</time></trkpt><trkpt lat="42.4325634" lon="14.1572037"><ele>42.0</ele><time>2026-05-01T15:09:56.248Z</time></trkpt><trkpt lat="42.4326633" lon="14.157105"><ele>43.0</ele><time>2026-05-01T15:09:57.24Z</time></trkpt><trkpt lat="42.4327688" lon="14.1570088"><ele>44.0</ele><time>2026-05-01T15:09:58.263Z</time></trkpt><trkpt lat="42.4328739" lon="14.1569212"><ele>45.0</ele><time>2026-05-01T15:09:59.248Z</time></trkpt><trkpt lat="42.4329841" lon="14.1568347"><ele>46.25</ele><time>2026-05-01T15:10:00.259Z</time></trkpt><trkpt lat="42.4330932" lon="14.1567452"><ele>47.5</ele><time>2026-05-01T15:10:01.27Z</time></trkpt><trkpt lat="42.4332068" lon="14.1566565"><ele>48.75</ele><time>2026-05-01T15:10:02.257Z</time></trkpt><trkpt lat="42.433324" lon="14.1565622"><ele>50.0</ele><time>2026-05-01T15:10:03.267Z</time></trkpt><trkpt lat="42.4334419" lon="14.1564683"><ele>50.5</ele><time>2026-05-01T15:10:04.26Z</time></trkpt><trkpt lat="42.4335593" lon="14.1563637"><ele>51.0</ele><time>2026-05-01T15:10:05.273Z</time></trkpt><trkpt lat="42.4336844" lon="14.1562753"><ele>51.5</ele><time>2026-05-01T15:10:06.264Z</time></trkpt><trkpt lat="42.4338103" lon="14.1561871"><ele>52.0</ele><time>2026-05-01T15:10:07.262Z</time></trkpt><trkpt lat="42.4339355" lon="14.1560922"><ele>52.5</ele><time>2026-05-01T15:10:08.258Z</time></trkpt><trkpt lat="42.4340623" lon="14.1559973"><ele>53.0</ele><time>2026-05-01T15:10:09.284Z</time></trkpt><trkpt lat="42.4341884" lon="14.1559036"><ele>53.5</ele><time>2026-05-01T15:10:10.269Z</time></trkpt><trkpt lat="42.4343156" lon="14.1558102"><ele>54.0</ele><time>2026-05-01T15:10:11.262Z</time></trkpt><trkpt lat="42.4344434" lon="14.1557162"><ele>54.25</ele><time>2026-05-01T15:10:12.274Z</time></trkpt><trkpt lat="42.4345711" lon="14.1556249"><ele>54.5</ele><time>2026-05-01T15:10:13.271Z</time></trkpt><trkpt lat="42.4346973" lon="14.1555289"><ele>54.75</ele><time>2026-05-01T15:10:14.283Z</time></trkpt><trkpt lat="42.4348218" lon="14.1554344"><ele>55.0</ele><time>2026-05-01T15:10:15.264Z</time></trkpt><trkpt lat="42.4349494" lon="14.1553407"><ele>56.0</ele><time>2026-05-01T15:10:16.269Z</time></trkpt><trkpt lat="42.4350762" lon="14.1552445"><ele>57.0</ele><time>2026-05-01T15:10:17.271Z</time></trkpt><trkpt lat="42.4352041" lon="14.1551469"><ele>58.0</ele><time>2026-05-01T15:10:18.263Z</time></trkpt><trkpt lat="42.4353324" lon="14.1550482"><ele>59.0</ele><time>2026-05-01T15:10:19.274Z</time></trkpt><trkpt lat="42.4354615" lon="14.1549551"><ele>60.333333333333336</ele><time>2026-05-01T15:10:20.262Z</time></trkpt><trkpt lat="42.4355938" lon="14.1548605"><ele>61.66666666666667</ele><time>2026-05-01T15:10:21.281Z</time></trkpt><trkpt lat="42.4357275" lon="14.1547661"><ele>63.0</ele><time>2026-05-01T15:10:22.267Z</time></trkpt><trkpt lat="42.4358579" lon="14.1546609"><ele>63.0</ele><time>2026-05-01T15:10:23.27Z</time></trkpt><trkpt lat="42.4359867" lon="14.154553"><ele>63.0</ele><time>2026-05-01T15:10:24.261Z</time></trkpt><trkpt lat="42.4361169" lon="14.1544419"><ele>63.0</ele><time>2026-05-01T15:10:25.268Z</time></trkpt><trkpt lat="42.4362452" lon="14.1543352"><ele>63.33333333333333</ele><time>2026-05-01T15:10:26.248Z</time></trkpt><trkpt lat="42.4363737" lon="14.1542251"><ele>63.666666666666664</ele><time>2026-05-01T15:10:27.273Z</time></trkpt><trkpt lat="42.4364999" lon="14.1541152"><ele>64.0</ele><time>2026-05-01T15:10:28.26Z</time></trkpt><trkpt lat="42.4366276" lon="14.1540044"><ele>65.5</ele><time>2026-05-01T15:10:29.276Z</time></trkpt><trkpt lat="42.4367532" lon="14.1538968"><ele>67.0</ele><time>2026-05-01T15:10:30.266Z</time></trkpt><trkpt lat="42.4368788" lon="14.153791"><ele>68.5</ele><time>2026-05-01T15:10:31.271Z</time></trkpt><trkpt lat="42.4370055" lon="14.1536849"><ele>70.0</ele><time>2026-05-01T15:10:32.262Z</time></trkpt><trkpt lat="42.4371332" lon="14.1535787"><ele>69.75</ele><time>2026-05-01T15:10:33.269Z</time></trkpt><trkpt lat="42.4372616" lon="14.1534734"><ele>69.5</ele><time>2026-05-01T15:10:34.261Z</time></trkpt><trkpt lat="42.4373956" lon="14.1533792"><ele>69.25</ele><time>2026-05-01T15:10:35.269Z</time></trkpt><trkpt lat="42.4375318" lon="14.1533015"><ele>69.0</ele><time>2026-05-01T15:10:36.263Z</time></trkpt><trkpt lat="42.4376752" lon="14.15325"><ele>69.0</ele><time>2026-05-01T15:10:37.268Z</time></trkpt><trkpt lat="42.437824" lon="14.1532164"><ele>69.0</ele><time>2026-05-01T15:10:38.265Z</time></trkpt><trkpt lat="42.4379794" lon="14.1531858"><ele>69.0</ele><time>2026-05-01T15:10:39.295Z</time></trkpt><trkpt lat="42.438128" lon="14.1531391"><ele>67.0</ele><time>2026-05-01T15:10:40.26Z</time></trkpt><trkpt lat="42.4382753" lon="14.1530618"><ele>65.0</ele><time>2026-05-01T15:10:41.261Z</time></trkpt><trkpt lat="42.4384152" lon="14.1529637"><ele>63.0</ele><time>2026-05-01T15:10:42.269Z</time></trkpt><trkpt lat="42.4385458" lon="14.152844"><ele>63.0</ele><time>2026-05-01T15:10:43.274Z</time></trkpt><trkpt lat="42.4386676" lon="14.1527119"><ele>63.0</ele><time>2026-05-01T15:10:44.25Z</time></trkpt><trkpt lat="42.4387846" lon="14.1525754"><ele>63.0</ele><time>2026-05-01T15:10:45.261Z</time></trkpt><trkpt lat="42.4388948" lon="14.1524327"><ele>65.5</ele><time>2026-05-01T15:10:46.254Z</time></trkpt><trkpt lat="42.438998" lon="14.1522819"><ele>68.0</ele><time>2026-05-01T15:10:47.272Z</time></trkpt><trkpt lat="42.4390954" lon="14.1521374"><ele>70.5</ele><time>2026-05-01T15:10:48.262Z</time></trkpt><trkpt lat="42.4391896" lon="14.1519987"><ele>73.0</ele><time>2026-05-01T15:10:49.264Z</time></trkpt><trkpt lat="42.4392866" lon="14.1518704"><ele>73.0</ele><time>2026-05-01T15:10:50.265Z</time></trkpt><trkpt lat="42.439388" lon="14.1517528"><ele>73.0</ele><time>2026-05-01T15:10:51.256Z</time></trkpt><trkpt lat="42.4395037" lon="14.1516533"><ele>73.0</ele><time>2026-05-01T15:10:52.264Z</time></trkpt><trkpt lat="42.4396236" lon="14.1515717"><ele>73.0</ele><time>2026-05-01T15:10:53.258Z</time></trkpt><trkpt lat="42.4397514" lon="14.1515032"><ele>73.75</ele><time>2026-05-01T15:10:54.266Z</time></trkpt><trkpt lat="42.4398822" lon="14.1514405"><ele>74.5</ele><time>2026-05-01T15:10:55.26Z</time></trkpt><trkpt lat="42.4400135" lon="14.1513788"><ele>75.25</ele><time>2026-05-01T15:10:56.255Z</time></trkpt><trkpt lat="42.4401452" lon="14.1513099"><ele>76.0</ele><time>2026-05-01T15:10:57.277Z</time></trkpt><trkpt lat="42.440272" lon="14.1512297"><ele>76.0</ele><time>2026-05-01T15:10:58.257Z</time></trkpt><trkpt lat="42.4403977" lon="14.1511356"><ele>76.0</ele><time>2026-05-01T15:10:59.262Z</time></trkpt><trkpt lat="42.4405201" lon="14.1510381"><ele>76.0</ele><time>2026-05-01T15:11:00.261Z</time></trkpt><trkpt lat="42.440648" lon="14.1509472"><ele>76.0</ele><time>2026-05-01T15:11:01.27Z</time></trkpt><trkpt lat="42.4407827" lon="14.1508782"><ele>79.0</ele><time>2026-05-01T15:11:02.269Z</time></trkpt><trkpt lat="42.440925" lon="14.1508257"><ele>82.0</ele><time>2026-05-01T15:11:03.258Z</time></trkpt><trkpt lat="42.4410728" lon="14.1508021"><ele>85.0</ele><time>2026-05-01T15:11:04.269Z</time></trkpt><trkpt lat="42.441219" lon="14.150816"><ele>88.0</ele><time>2026-05-01T15:11:05.271Z</time></trkpt><trkpt lat="42.4413633" lon="14.1508679"><ele>89.0</ele><time>2026-05-01T15:11:06.254Z</time></trkpt><trkpt lat="42.441515" lon="14.1509309"><ele>90.0</ele><time>2026-05-01T15:11:07.261Z</time></trkpt><trkpt lat="42.4416728" lon="14.1509738"><ele>91.0</ele><time>2026-05-01T15:11:08.267Z</time></trkpt><trkpt lat="42.4418308" lon="14.1509808"><ele>91.0</ele><time>2026-05-01T15:11:09.266Z</time></trkpt><trkpt lat="42.4419858" lon="14.1509496"><ele>91.0</ele><time>2026-05-01T15:11:10.266Z</time></trkpt><trkpt lat="42.4421257" lon="14.1508864"><ele>91.0</ele><time>2026-05-01T15:11:11.254Z</time></trkpt><trkpt lat="42.442241" lon="14.1507922"><ele>91.0</ele><time>2026-05-01T15:11:12.248Z</time></trkpt><trkpt lat="42.4423217" lon="14.1506738"><ele>91.75</ele><time>2026-05-01T15:11:13.26Z</time></trkpt><trkpt lat="42.4423703" lon="14.1505389"><ele>92.5</ele><time>2026-05-01T15:11:14.255Z</time></trkpt><trkpt lat="42.4424072" lon="14.1503856"><ele>93.25</ele><time>2026-05-01T15:11:15.275Z</time></trkpt><trkpt lat="42.4424362" lon="14.1502285"><ele>94.0</ele><time>2026-05-01T15:11:16.26Z</time></trkpt><trkpt lat="42.4424634" lon="14.1500675"><ele>94.0</ele><time>2026-05-01T15:11:17.259Z</time></trkpt><trkpt lat="42.4424956" lon="14.149906"><ele>94.0</ele><time>2026-05-01T15:11:18.267Z</time></trkpt><trkpt lat="42.4425359" lon="14.1497428"><ele>94.0</ele><time>2026-05-01T15:11:19.263Z</time></trkpt><trkpt lat="42.4425776" lon="14.1495786"><ele>94.0</ele><time>2026-05-01T15:11:20.261Z</time></trkpt><trkpt lat="42.4426223" lon="14.1494143"><ele>95.0</ele><time>2026-05-01T15:11:21.265Z</time></trkpt><trkpt lat="42.4426727" lon="14.1492562"><ele>96.0</ele><time>2026-05-01T15:11:22.256Z</time></trkpt><trkpt lat="42.4427277" lon="14.1490975"><ele>97.0</ele><time>2026-05-01T15:11:23.263Z</time></trkpt><trkpt lat="42.4427877" lon="14.1489395"><ele>98.0</ele><time>2026-05-01T15:11:24.259Z</time></trkpt><trkpt lat="42.4428567" lon="14.1487872"><ele>99.5</ele><time>2026-05-01T15:11:25.266Z</time></trkpt><trkpt lat="42.442934" lon="14.1486507"><ele>101.0</ele><time>2026-05-01T15:11:26.261Z</time></trkpt><trkpt lat="42.4430146" lon="14.1485211"><ele>102.5</ele><time>2026-05-01T15:11:27.265Z</time></trkpt><trkpt lat="42.4431033" lon="14.1483936"><ele>104.0</ele><time>2026-05-01T15:11:28.254Z</time></trkpt><trkpt lat="42.4431945" lon="14.1482684"><ele>107.75</ele><time>2026-05-01T15:11:29.269Z</time></trkpt><trkpt lat="42.4432864" lon="14.1481444"><ele>111.5</ele><time>2026-05-01T15:11:30.244Z</time></trkpt><trkpt lat="42.4433787" lon="14.1480141"><ele>115.25</ele><time>2026-05-01T15:11:31.263Z</time></trkpt><trkpt lat="42.4434707" lon="14.147885"><ele>119.0</ele><time>2026-05-01T15:11:32.264Z</time></trkpt><trkpt lat="42.4435705" lon="14.1477587"><ele>119.0</ele><time>2026-05-01T15:11:33.263Z</time></trkpt><trkpt lat="42.44368" lon="14.1476546"><ele>119.0</ele><time>2026-05-01T15:11:34.261Z</time></trkpt><trkpt lat="42.4438035" lon="14.1475768"><ele>119.0</ele><time>2026-05-01T15:11:35.261Z</time></trkpt><trkpt lat="42.4439335" lon="14.1475145"><ele>119.0</ele><time>2026-05-01T15:11:36.267Z</time></trkpt><trkpt lat="42.4440611" lon="14.1474729"><ele>118.0</ele><time>2026-05-01T15:11:37.273Z</time></trkpt><trkpt lat="42.4441859" lon="14.1474404"><ele>117.0</ele><time>2026-05-01T15:11:38.269Z</time></trkpt><trkpt lat="42.4442926" lon="14.1474056"><ele>116.0</ele><time>2026-05-01T15:11:39.266Z</time></trkpt><trkpt lat="42.4443745" lon="14.1473539"><ele>115.0</ele><time>2026-05-01T15:11:40.265Z</time></trkpt><trkpt lat="42.4444361" lon="14.1472726"><ele>114.0</ele><time>2026-05-01T15:11:41.27Z</time></trkpt><trkpt lat="42.4444891" lon="14.14718"><ele>115.4</ele><time>2026-05-01T15:11:42.272Z</time></trkpt><trkpt lat="42.4445254" lon="14.1470952"><ele>116.80000000000001</ele><time>2026-05-01T15:11:43.266Z</time></trkpt><trkpt lat="42.4445591" lon="14.1470162"><ele>118.19999999999999</ele><time>2026-05-01T15:11:44.265Z</time></trkpt><trkpt lat="42.444618" lon="14.1468882"><ele>119.6</ele><time>2026-05-01T15:11:46.275Z</time></trkpt><trkpt lat="42.4447077" lon="14.1467548"><ele>121.0</ele><time>2026-05-01T15:11:48.267Z</time></trkpt><trkpt lat="42.4447583" lon="14.1466736"><ele>121.0</ele><time>2026-05-01T15:11:49.269Z</time></trkpt><trkpt lat="42.4448129" lon="14.1465811"><ele>121.0</ele><time>2026-05-01T15:11:50.267Z</time></trkpt><trkpt lat="42.444872" lon="14.146478"><ele>121.0</ele><time>2026-05-01T15:11:51.271Z</time></trkpt><trkpt lat="42.4449322" lon="14.146367"><ele>121.0</ele><time>2026-05-01T15:11:52.253Z</time></trkpt><trkpt lat="42.4449905" lon="14.1462571"><ele>121.0</ele><time>2026-05-01T15:11:53.264Z</time></trkpt><trkpt lat="42.445046" lon="14.1461491"><ele>122.0</ele><time>2026-05-01T15:11:54.272Z</time></trkpt><trkpt lat="42.4451031" lon="14.1460456"><ele>123.0</ele><time>2026-05-01T15:11:55.258Z</time></trkpt><trkpt lat="42.4451589" lon="14.1459427"><ele>124.0</ele><time>2026-05-01T15:11:56.258Z</time></trkpt><trkpt lat="42.4452154" lon="14.1458376"><ele>125.0</ele><time>2026-05-01T15:11:57.262Z</time></trkpt><trkpt lat="42.4452794" lon="14.1457273"><ele>126.0</ele><time>2026-05-01T15:11:58.255Z</time></trkpt><trkpt lat="42.4453473" lon="14.145616"><ele>124.5</ele><time>2026-05-01T15:11:59.265Z</time></trkpt><trkpt lat="42.4454221" lon="14.1455062"><ele>123.0</ele><time>2026-05-01T15:12:00.263Z</time></trkpt><trkpt lat="42.4455089" lon="14.1454026"><ele>121.5</ele><time>2026-05-01T15:12:01.27Z</time></trkpt><trkpt lat="42.4455967" lon="14.1452994"><ele>120.0</ele><time>2026-05-01T15:12:02.262Z</time></trkpt><trkpt lat="42.4456893" lon="14.1451983"><ele>120.0</ele><time>2026-05-01T15:12:03.248Z</time></trkpt><trkpt lat="42.4457784" lon="14.145108"><ele>120.0</ele><time>2026-05-01T15:12:04.27Z</time></trkpt><trkpt lat="42.4458682" lon="14.1450361"><ele>120.0</ele><time>2026-05-01T15:12:05.266Z</time></trkpt><trkpt lat="42.4459546" lon="14.1449732"><ele>120.0</ele><time>2026-05-01T15:12:06.261Z</time></trkpt><trkpt lat="42.4460393" lon="14.1449203"><ele>120.0</ele><time>2026-05-01T15:12:07.279Z</time></trkpt><trkpt lat="42.4461215" lon="14.1448638"><ele>120.2</ele><time>2026-05-01T15:12:08.266Z</time></trkpt><trkpt lat="42.4462091" lon="14.1448177"><ele>120.4</ele><time>2026-05-01T15:12:09.271Z</time></trkpt><trkpt lat="42.4463043" lon="14.1447759"><ele>120.6</ele><time>2026-05-01T15:12:10.255Z</time></trkpt><trkpt lat="42.4464073" lon="14.1447371"><ele>120.8</ele><time>2026-05-01T15:12:11.267Z</time></trkpt><trkpt lat="42.4465195" lon="14.1446956"><ele>121.0</ele><time>2026-05-01T15:12:12.257Z</time></trkpt><trkpt lat="42.4466428" lon="14.1446593"><ele>121.0</ele><time>2026-05-01T15:12:13.261Z</time></trkpt><trkpt lat="42.4467736" lon="14.1446197"><ele>121.0</ele><time>2026-05-01T15:12:14.264Z</time></trkpt><trkpt lat="42.4469138" lon="14.1445841"><ele>121.0</ele><time>2026-05-01T15:12:15.263Z</time></trkpt><trkpt lat="42.4470516" lon="14.1445447"><ele>121.0</ele><time>2026-05-01T15:12:16.268Z</time></trkpt><trkpt lat="42.4471786" lon="14.1445142"><ele>122.0</ele><time>2026-05-01T15:12:17.269Z</time></trkpt><trkpt lat="42.4472921" lon="14.1445194"><ele>123.0</ele><time>2026-05-01T15:12:18.265Z</time></trkpt><trkpt lat="42.4473977" lon="14.1445648"><ele>124.0</ele><time>2026-05-01T15:12:19.265Z</time></trkpt><trkpt lat="42.4474854" lon="14.1446446"><ele>125.0</ele><time>2026-05-01T15:12:20.259Z</time></trkpt><trkpt lat="42.4475346" lon="14.1447538"><ele>126.0</ele><time>2026-05-01T15:12:21.274Z</time></trkpt><trkpt lat="42.4475569" lon="14.1448989"><ele>126.25</ele><time>2026-05-01T15:12:22.258Z</time></trkpt><trkpt lat="42.4475566" lon="14.1450628"><ele>126.5</ele><time>2026-05-01T15:12:23.263Z</time></trkpt><trkpt lat="42.4475626" lon="14.1452265"><ele>126.75</ele><time>2026-05-01T15:12:24.266Z</time></trkpt><trkpt lat="42.4475668" lon="14.1454017"><ele>127.0</ele><time>2026-05-01T15:12:25.267Z</time></trkpt><trkpt lat="42.447577" lon="14.1455691"><ele>127.5</ele><time>2026-05-01T15:12:26.262Z</time></trkpt><trkpt lat="42.4476189" lon="14.1457198"><ele>128.0</ele><time>2026-05-01T15:12:27.262Z</time></trkpt><trkpt lat="42.4476821" lon="14.1458592"><ele>128.5</ele><time>2026-05-01T15:12:28.262Z</time></trkpt><trkpt lat="42.4477645" lon="14.1459866"><ele>129.0</ele><time>2026-05-01T15:12:29.281Z</time></trkpt><trkpt lat="42.447864" lon="14.1460969"><ele>132.25</ele><time>2026-05-01T15:12:30.253Z</time></trkpt><trkpt lat="42.4479763" lon="14.1461943"><ele>135.5</ele><time>2026-05-01T15:12:31.269Z</time></trkpt><trkpt lat="42.4480952" lon="14.1462785"><ele>138.75</ele><time>2026-05-01T15:12:32.275Z</time></trkpt><trkpt lat="42.4482259" lon="14.1463448"><ele>142.0</ele><time>2026-05-01T15:12:33.254Z</time></trkpt><trkpt lat="42.4483682" lon="14.1464034"><ele>142.0</ele><time>2026-05-01T15:12:34.249Z</time></trkpt><trkpt lat="42.4485172" lon="14.1464422"><ele>142.0</ele><time>2026-05-01T15:12:35.266Z</time></trkpt><trkpt lat="42.4486632" lon="14.1464427"><ele>142.0</ele><time>2026-05-01T15:12:36.259Z</time></trkpt><trkpt lat="42.4488113" lon="14.1464006"><ele>142.0</ele><time>2026-05-01T15:12:37.252Z</time></trkpt><trkpt lat="42.4489505" lon="14.1463277"><ele>142.5</ele><time>2026-05-01T15:12:38.267Z</time></trkpt><trkpt lat="42.4490674" lon="14.1462233"><ele>143.0</ele><time>2026-05-01T15:12:39.268Z</time></trkpt><trkpt lat="42.4491718" lon="14.1460855"><ele>143.5</ele><time>2026-05-01T15:12:40.254Z</time></trkpt><trkpt lat="42.4492582" lon="14.1459421"><ele>144.0</ele><time>2026-05-01T15:12:41.261Z</time></trkpt><trkpt lat="42.4493445" lon="14.1457915"><ele>147.33333333333334</ele><time>2026-05-01T15:12:42.284Z</time></trkpt><trkpt lat="42.4494326" lon="14.1456277"><ele>150.66666666666669</ele><time>2026-05-01T15:12:43.264Z</time></trkpt><trkpt lat="42.4495158" lon="14.1454567"><ele>154.0</ele><time>2026-05-01T15:12:44.276Z</time></trkpt><trkpt lat="42.4495934" lon="14.1452824"><ele>150.0</ele><time>2026-05-01T15:12:45.257Z</time></trkpt><trkpt lat="42.4496678" lon="14.1450986"><ele>146.0</ele><time>2026-05-01T15:12:46.26Z</time></trkpt><trkpt lat="42.4497349" lon="14.1449161"><ele>142.0</ele><time>2026-05-01T15:12:47.27Z</time></trkpt><trkpt lat="42.4498018" lon="14.1447251"><ele>142.0</ele><time>2026-05-01T15:12:48.258Z</time></trkpt><trkpt lat="42.4498576" lon="14.1445393"><ele>142.0</ele><time>2026-05-01T15:12:49.259Z</time></trkpt><trkpt lat="42.4499006" lon="14.1443583"><ele>142.0</ele><time>2026-05-01T15:12:50.261Z</time></trkpt><trkpt lat="42.4499277" lon="14.1441539"><ele>142.0</ele><time>2026-05-01T15:12:51.273Z</time></trkpt><trkpt lat="42.4499334" lon="14.143942"><ele>140.66666666666669</ele><time>2026-05-01T15:12:52.268Z</time></trkpt><trkpt lat="42.4499223" lon="14.1437191"><ele>139.33333333333334</ele><time>2026-05-01T15:12:53.265Z</time></trkpt><trkpt lat="42.4499094" lon="14.1435026"><ele>138.0</ele><time>2026-05-01T15:12:54.273Z</time></trkpt><trkpt lat="42.4498954" lon="14.1433077"><ele>137.75</ele><time>2026-05-01T15:12:55.262Z</time></trkpt><trkpt lat="42.4498767" lon="14.1431407"><ele>137.5</ele><time>2026-05-01T15:12:56.269Z</time></trkpt><trkpt lat="42.4498502" lon="14.1429837"><ele>137.25</ele><time>2026-05-01T15:12:57.259Z</time></trkpt><trkpt lat="42.4498006" lon="14.1428286"><ele>137.0</ele><time>2026-05-01T15:12:58.268Z</time></trkpt><trkpt lat="42.4497477" lon="14.1426647"><ele>137.0</ele><time>2026-05-01T15:12:59.262Z</time></trkpt><trkpt lat="42.4496904" lon="14.1425041"><ele>137.0</ele><time>2026-05-01T15:13:00.251Z</time></trkpt><trkpt lat="42.4496296" lon="14.1423436"><ele>137.0</ele><time>2026-05-01T15:13:01.272Z</time></trkpt><trkpt lat="42.4495767" lon="14.1422005"><ele>137.0</ele><time>2026-05-01T15:13:02.272Z</time></trkpt><trkpt lat="42.4495426" lon="14.1420697"><ele>137.6</ele><time>2026-05-01T15:13:03.271Z</time></trkpt><trkpt lat="42.449544" lon="14.1419371"><ele>138.2</ele><time>2026-05-01T15:13:04.242Z</time></trkpt><trkpt lat="42.4495777" lon="14.141833"><ele>138.8</ele><time>2026-05-01T15:13:05.257Z</time></trkpt><trkpt lat="42.449633" lon="14.1417452"><ele>139.4</ele><time>2026-05-01T15:13:06.256Z</time></trkpt><trkpt lat="42.4497065" lon="14.1416633"><ele>140.0</ele><time>2026-05-01T15:13:07.245Z</time></trkpt><trkpt lat="42.4497942" lon="14.1415913"><ele>141.25</ele><time>2026-05-01T15:13:08.238Z</time></trkpt><trkpt lat="42.4498948" lon="14.1415237"><ele>142.5</ele><time>2026-05-01T15:13:09.238Z</time></trkpt><trkpt lat="42.4500009" lon="14.1414581"><ele>143.75</ele><time>2026-05-01T15:13:10.237Z</time></trkpt><trkpt lat="42.4501058" lon="14.1414045"><ele>145.0</ele><time>2026-05-01T15:13:11.246Z</time></trkpt><trkpt lat="42.4502096" lon="14.1413585"><ele>145.0</ele><time>2026-05-01T15:13:12.256Z</time></trkpt><trkpt lat="42.4503088" lon="14.141316"><ele>145.0</ele><time>2026-05-01T15:13:13.247Z</time></trkpt><trkpt lat="42.4504027" lon="14.1412739"><ele>145.0</ele><time>2026-05-01T15:13:14.241Z</time></trkpt><trkpt lat="42.4504909" lon="14.141231"><ele>145.0</ele><time>2026-05-01T15:13:15.261Z</time></trkpt><trkpt lat="42.4505849" lon="14.1411945"><ele>145.0</ele><time>2026-05-01T15:13:16.243Z</time></trkpt><trkpt lat="42.450687" lon="14.1411605"><ele>146.0</ele><time>2026-05-01T15:13:17.272Z</time></trkpt><trkpt lat="42.4507922" lon="14.1411249"><ele>147.0</ele><time>2026-05-01T15:13:18.245Z</time></trkpt><trkpt lat="42.4508929" lon="14.1410981"><ele>148.0</ele><time>2026-05-01T15:13:19.237Z</time></trkpt><trkpt lat="42.4509939" lon="14.1410697"><ele>149.0</ele><time>2026-05-01T15:13:20.233Z</time></trkpt><trkpt lat="42.4510926" lon="14.1410381"><ele>150.0</ele><time>2026-05-01T15:13:21.239Z</time></trkpt><trkpt lat="42.4511883" lon="14.1410046"><ele>150.0</ele><time>2026-05-01T15:13:22.237Z</time></trkpt><trkpt lat="42.4512804" lon="14.1409729"><ele>150.0</ele><time>2026-05-01T15:13:23.254Z</time></trkpt><trkpt lat="42.4513723" lon="14.1409468"><ele>150.0</ele><time>2026-05-01T15:13:24.257Z</time></trkpt><trkpt lat="42.4514636" lon="14.140924"><ele>150.0</ele><time>2026-05-01T15:13:25.236Z</time></trkpt><trkpt lat="42.4515568" lon="14.1408978"><ele>150.0</ele><time>2026-05-01T15:13:26.245Z</time></trkpt><trkpt lat="42.4516507" lon="14.140875"><ele>150.2</ele><time>2026-05-01T15:13:27.237Z</time></trkpt><trkpt lat="42.451747" lon="14.1408553"><ele>150.4</ele><time>2026-05-01T15:13:28.232Z</time></trkpt><trkpt lat="42.4518469" lon="14.1408392"><ele>150.6</ele><time>2026-05-01T15:13:29.235Z</time></trkpt><trkpt lat="42.4519517" lon="14.1408189"><ele>150.8</ele><time>2026-05-01T15:13:30.232Z</time></trkpt><trkpt lat="42.45206" lon="14.1408012"><ele>151.0</ele><time>2026-05-01T15:13:31.241Z</time></trkpt><trkpt lat="42.4521709" lon="14.1407836"><ele>151.0</ele><time>2026-05-01T15:13:32.233Z</time></trkpt><trkpt lat="42.4522809" lon="14.1407618"><ele>151.0</ele><time>2026-05-01T15:13:33.258Z</time></trkpt><trkpt lat="42.452386" lon="14.1407435"><ele>151.0</ele><time>2026-05-01T15:13:34.235Z</time></trkpt><trkpt lat="42.4524869" lon="14.1407239"><ele>151.0</ele><time>2026-05-01T15:13:35.238Z</time></trkpt><trkpt lat="42.4525822" lon="14.1407028"><ele>151.0</ele><time>2026-05-01T15:13:36.249Z</time></trkpt><trkpt lat="42.4526767" lon="14.1406804"><ele>151.16666666666669</ele><time>2026-05-01T15:13:37.248Z</time></trkpt><trkpt lat="42.4527658" lon="14.1406566"><ele>151.33333333333334</ele><time>2026-05-01T15:13:38.24Z</time></trkpt><trkpt lat="42.4528453" lon="14.1406323"><ele>151.5</ele><time>2026-05-01T15:13:39.24Z</time></trkpt><trkpt lat="42.4529181" lon="14.1406105"><ele>151.66666666666666</ele><time>2026-05-01T15:13:40.238Z</time></trkpt><trkpt lat="42.4529888" lon="14.1405866"><ele>151.83333333333331</ele><time>2026-05-01T15:13:41.276Z</time></trkpt><trkpt lat="42.4530558" lon="14.1405568"><ele>152.0</ele><time>2026-05-01T15:13:42.245Z</time></trkpt><trkpt lat="42.453127" lon="14.1405144"><ele>155.39999999999998</ele><time>2026-05-01T15:13:43.259Z</time></trkpt><trkpt lat="42.4532025" lon="14.1404696"><ele>158.79999999999998</ele><time>2026-05-01T15:13:44.269Z</time></trkpt><trkpt lat="42.4532837" lon="14.1404188"><ele>162.2</ele><time>2026-05-01T15:13:45.262Z</time></trkpt><trkpt lat="42.4533741" lon="14.1403665"><ele>165.6</ele><time>2026-05-01T15:13:46.265Z</time></trkpt><trkpt lat="42.453462" lon="14.1403169"><ele>169.0</ele><time>2026-05-01T15:13:47.242Z</time></trkpt><trkpt lat="42.453552" lon="14.1402676"><ele>169.0</ele><time>2026-05-01T15:13:48.278Z</time></trkpt><trkpt lat="42.4536408" lon="14.1402192"><ele>169.0</ele><time>2026-05-01T15:13:49.29Z</time></trkpt><trkpt lat="42.4537255" lon="14.140172"><ele>169.0</ele><time>2026-05-01T15:13:50.251Z</time></trkpt><trkpt lat="42.4538085" lon="14.1401093"><ele>169.0</ele><time>2026-05-01T15:13:51.272Z</time></trkpt><trkpt lat="42.453883" lon="14.1400331"><ele>169.0</ele><time>2026-05-01T15:13:52.28Z</time></trkpt><trkpt lat="42.4539459" lon="14.1399371"><ele>170.0</ele><time>2026-05-01T15:13:53.268Z</time></trkpt><trkpt lat="42.454" lon="14.1398297"><ele>171.0</ele><time>2026-05-01T15:13:54.283Z</time></trkpt><trkpt lat="42.454051" lon="14.139722"><ele>172.0</ele><time>2026-05-01T15:13:55.27Z</time></trkpt><trkpt lat="42.4541037" lon="14.1396129"><ele>173.0</ele><time>2026-05-01T15:13:56.257Z</time></trkpt><trkpt lat="42.4541608" lon="14.1395067"><ele>174.0</ele><time>2026-05-01T15:13:57.294Z</time></trkpt><trkpt lat="42.4542176" lon="14.1393999"><ele>174.0</ele><time>2026-05-01T15:13:58.255Z</time></trkpt><trkpt lat="42.454274" lon="14.1392937"><ele>174.0</ele><time>2026-05-01T15:13:59.259Z</time></trkpt><trkpt lat="42.454328" lon="14.13919"><ele>174.0</ele><time>2026-05-01T15:14:00.261Z</time></trkpt><trkpt lat="42.4543788" lon="14.1390932"><ele>174.0</ele><time>2026-05-01T15:14:01.268Z</time></trkpt><trkpt lat="42.4544234" lon="14.1390104"><ele>174.0</ele><time>2026-05-01T15:14:02.25Z</time></trkpt><trkpt lat="42.454464" lon="14.1389322"><ele>174.0</ele><time>2026-05-01T15:14:03.266Z</time></trkpt><trkpt lat="42.4545018" lon="14.1388573"><ele>173.83333333333334</ele><time>2026-05-01T15:14:04.261Z</time></trkpt><trkpt lat="42.4545385" lon="14.1387829"><ele>173.66666666666666</ele><time>2026-05-01T15:14:05.253Z</time></trkpt><trkpt lat="42.4545771" lon="14.1387068"><ele>173.5</ele><time>2026-05-01T15:14:06.271Z</time></trkpt><trkpt lat="42.4546245" lon="14.1386273"><ele>173.33333333333331</ele><time>2026-05-01T15:14:07.281Z</time></trkpt><trkpt lat="42.4546749" lon="14.1385475"><ele>173.16666666666666</ele><time>2026-05-01T15:14:08.268Z</time></trkpt><trkpt lat="42.4547284" lon="14.1384647"><ele>173.0</ele><time>2026-05-01T15:14:09.261Z</time></trkpt><trkpt lat="42.4547884" lon="14.1383668"><ele>173.0</ele><time>2026-05-01T15:14:10.26Z</time></trkpt><trkpt lat="42.4548492" lon="14.1382588"><ele>173.0</ele><time>2026-05-01T15:14:11.256Z</time></trkpt><trkpt lat="42.4549098" lon="14.1381552"><ele>173.0</ele><time>2026-05-01T15:14:12.248Z</time></trkpt><trkpt lat="42.4549614" lon="14.1380544"><ele>173.0</ele><time>2026-05-01T15:14:13.258Z</time></trkpt><trkpt lat="42.4550071" lon="14.1379529"><ele>173.0</ele><time>2026-05-01T15:14:14.257Z</time></trkpt><trkpt lat="42.4550332" lon="14.1378551"><ele>173.0</ele><time>2026-05-01T15:14:15.268Z</time></trkpt><trkpt lat="42.4550444" lon="14.1377595"><ele>173.0</ele><time>2026-05-01T15:14:16.256Z</time></trkpt><trkpt lat="42.455051" lon="14.1376627"><ele>173.0</ele><time>2026-05-01T15:14:17.263Z</time></trkpt><trkpt lat="42.4550501" lon="14.1375741"><ele>173.0</ele><time>2026-05-01T15:14:18.241Z</time></trkpt><trkpt lat="42.4550435" lon="14.1374858"><ele>173.0</ele><time>2026-05-01T15:14:19.256Z</time></trkpt><trkpt lat="42.4550371" lon="14.137388"><ele>173.0</ele><time>2026-05-01T15:14:20.257Z</time></trkpt><trkpt lat="42.4550329" lon="14.137275"><ele>173.0</ele><time>2026-05-01T15:14:21.261Z</time></trkpt><trkpt lat="42.455029" lon="14.1371579"><ele>173.0</ele><time>2026-05-01T15:14:22.268Z</time></trkpt><trkpt lat="42.4550248" lon="14.1370354"><ele>173.0</ele><time>2026-05-01T15:14:23.263Z</time></trkpt><trkpt lat="42.4550244" lon="14.1369165"><ele>173.0</ele><time>2026-05-01T15:14:24.257Z</time></trkpt><trkpt lat="42.455025" lon="14.1368042"><ele>173.0</ele><time>2026-05-01T15:14:25.256Z</time></trkpt><trkpt lat="42.4550243" lon="14.1366936"><ele>173.0</ele><time>2026-05-01T15:14:26.261Z</time></trkpt><trkpt lat="42.4550302" lon="14.1365885"><ele>173.0</ele><time>2026-05-01T15:14:27.257Z</time></trkpt><trkpt lat="42.4550477" lon="14.1364972"><ele>174.16666666666666</ele><time>2026-05-01T15:14:28.265Z</time></trkpt><trkpt lat="42.4551371" lon="14.1364037"><ele>175.33333333333331</ele><time>2026-05-01T15:14:30.274Z</time></trkpt><trkpt lat="42.4552049" lon="14.1363789"><ele>176.5</ele><time>2026-05-01T15:14:31.272Z</time></trkpt><trkpt lat="42.4552793" lon="14.1363613"><ele>177.66666666666666</ele><time>2026-05-01T15:14:32.259Z</time></trkpt><trkpt lat="42.455355" lon="14.1363218"><ele>178.83333333333334</ele><time>2026-05-01T15:14:33.258Z</time></trkpt><trkpt lat="42.455429" lon="14.1362792"><ele>180.0</ele><time>2026-05-01T15:14:34.277Z</time></trkpt><trkpt lat="42.4555006" lon="14.1362284"><ele>180.0</ele><time>2026-05-01T15:14:35.261Z</time></trkpt><trkpt lat="42.4555704" lon="14.1361811"><ele>180.0</ele><time>2026-05-01T15:14:36.271Z</time></trkpt><trkpt lat="42.455642" lon="14.1361351"><ele>180.0</ele><time>2026-05-01T15:14:37.264Z</time></trkpt><trkpt lat="42.4557195" lon="14.1360848"><ele>180.0</ele><time>2026-05-01T15:14:38.244Z</time></trkpt><trkpt lat="42.4558068" lon="14.136028"><ele>180.0</ele><time>2026-05-01T15:14:39.256Z</time></trkpt><trkpt lat="42.4558897" lon="14.1359629"><ele>180.0</ele><time>2026-05-01T15:14:40.236Z</time></trkpt><trkpt lat="42.4559627" lon="14.1358773"><ele>180.0</ele><time>2026-05-01T15:14:41.263Z</time></trkpt><trkpt lat="42.4560261" lon="14.1357837"><ele>180.0</ele><time>2026-05-01T15:14:42.265Z</time></trkpt><trkpt lat="42.4560815" lon="14.1356839"><ele>180.0</ele><time>2026-05-01T15:14:43.248Z</time></trkpt><trkpt lat="42.4561302" lon="14.1355772"><ele>180.0</ele><time>2026-05-01T15:14:44.264Z</time></trkpt><trkpt lat="42.4561775" lon="14.1354615"><ele>180.0</ele><time>2026-05-01T15:14:45.255Z</time></trkpt><trkpt lat="42.4562189" lon="14.1353321"><ele>177.6</ele><time>2026-05-01T15:14:46.268Z</time></trkpt><trkpt lat="42.4562628" lon="14.1351968"><ele>175.2</ele><time>2026-05-01T15:14:47.272Z</time></trkpt><trkpt lat="42.4563087" lon="14.1350592"><ele>172.8</ele><time>2026-05-01T15:14:48.266Z</time></trkpt><trkpt lat="42.4563516" lon="14.1349237"><ele>170.4</ele><time>2026-05-01T15:14:49.245Z</time></trkpt><trkpt lat="42.4563932" lon="14.134787"><ele>168.0</ele><time>2026-05-01T15:14:50.271Z</time></trkpt><trkpt lat="42.4564381" lon="14.1346475"><ele>168.0</ele><time>2026-05-01T15:14:51.266Z</time></trkpt><trkpt lat="42.4564877" lon="14.1344965"><ele>168.0</ele><time>2026-05-01T15:14:52.271Z</time></trkpt><trkpt lat="42.4565397" lon="14.1343395"><ele>168.0</ele><time>2026-05-01T15:14:53.265Z</time></trkpt><trkpt lat="42.4565936" lon="14.1341744"><ele>168.0</ele><time>2026-05-01T15:14:54.261Z</time></trkpt><trkpt lat="42.4566457" lon="14.1340019"><ele>168.0</ele><time>2026-05-01T15:14:55.261Z</time></trkpt><trkpt lat="42.4566919" lon="14.133824"><ele>168.0</ele><time>2026-05-01T15:14:56.234Z</time></trkpt><trkpt lat="42.4567302" lon="14.1336415"><ele>168.0</ele><time>2026-05-01T15:14:57.251Z</time></trkpt><trkpt lat="42.4567599" lon="14.1334566"><ele>168.0</ele><time>2026-05-01T15:14:58.245Z</time></trkpt><trkpt lat="42.4567826" lon="14.1332865"><ele>167.5</ele><time>2026-05-01T15:14:59.257Z</time></trkpt><trkpt lat="42.4568032" lon="14.1331095"><ele>167.0</ele><time>2026-05-01T15:15:00.259Z</time></trkpt><trkpt lat="42.4568237" lon="14.1329443"><ele>166.5</ele><time>2026-05-01T15:15:01.261Z</time></trkpt><trkpt lat="42.4568503" lon="14.1327753"><ele>166.0</ele><time>2026-05-01T15:15:02.263Z</time></trkpt><trkpt lat="42.4568857" lon="14.1326008"><ele>166.0</ele><time>2026-05-01T15:15:03.259Z</time></trkpt><trkpt lat="42.4569337" lon="14.1324222"><ele>166.0</ele><time>2026-05-01T15:15:04.27Z</time></trkpt><trkpt lat="42.4569918" lon="14.1322406"><ele>166.0</ele><time>2026-05-01T15:15:05.27Z</time></trkpt><trkpt lat="42.4570593" lon="14.1320646"><ele>166.0</ele><time>2026-05-01T15:15:06.261Z</time></trkpt><trkpt lat="42.4571345" lon="14.1318886"><ele>164.0</ele><time>2026-05-01T15:15:07.254Z</time></trkpt><trkpt lat="42.4572128" lon="14.1317154"><ele>162.0</ele><time>2026-05-01T15:15:08.26Z</time></trkpt><trkpt lat="42.4572853" lon="14.1315344"><ele>160.0</ele><time>2026-05-01T15:15:09.255Z</time></trkpt><trkpt lat="42.4573586" lon="14.1313501"><ele>160.0</ele><time>2026-05-01T15:15:10.252Z</time></trkpt><trkpt lat="42.4574333" lon="14.1311653"><ele>160.0</ele><time>2026-05-01T15:15:11.261Z</time></trkpt><trkpt lat="42.4575136" lon="14.130995"><ele>160.0</ele><time>2026-05-01T15:15:12.273Z</time></trkpt><trkpt lat="42.4575984" lon="14.1308345"><ele>160.25</ele><time>2026-05-01T15:15:13.252Z</time></trkpt><trkpt lat="42.4576917" lon="14.1306799"><ele>160.5</ele><time>2026-05-01T15:15:14.236Z</time></trkpt><trkpt lat="42.4578006" lon="14.1305403"><ele>160.75</ele><time>2026-05-01T15:15:15.256Z</time></trkpt><trkpt lat="42.4579162" lon="14.1304146"><ele>161.0</ele><time>2026-05-01T15:15:16.253Z</time></trkpt><trkpt lat="42.4580327" lon="14.130297"><ele>160.75</ele><time>2026-05-01T15:15:17.268Z</time></trkpt><trkpt lat="42.4581506" lon="14.1301764"><ele>160.5</ele><time>2026-05-01T15:15:18.258Z</time></trkpt><trkpt lat="42.4582613" lon="14.1300446"><ele>160.25</ele><time>2026-05-01T15:15:19.273Z</time></trkpt><trkpt lat="42.4583634" lon="14.1299017"><ele>160.0</ele><time>2026-05-01T15:15:20.258Z</time></trkpt><trkpt lat="42.4584557" lon="14.1297452"><ele>160.0</ele><time>2026-05-01T15:15:21.253Z</time></trkpt><trkpt lat="42.4585387" lon="14.1295762"><ele>160.0</ele><time>2026-05-01T15:15:22.257Z</time></trkpt><trkpt lat="42.458607" lon="14.1293963"><ele>160.0</ele><time>2026-05-01T15:15:23.261Z</time></trkpt><trkpt lat="42.4586627" lon="14.1292101"><ele>160.0</ele><time>2026-05-01T15:15:24.272Z</time></trkpt><trkpt lat="42.458699" lon="14.1290149"><ele>158.75</ele><time>2026-05-01T15:15:25.268Z</time></trkpt><trkpt lat="42.4587146" lon="14.1288109"><ele>157.5</ele><time>2026-05-01T15:15:26.265Z</time></trkpt><trkpt lat="42.4587071" lon="14.1286139"><ele>156.25</ele><time>2026-05-01T15:15:27.262Z</time></trkpt><trkpt lat="42.458675" lon="14.1284188"><ele>155.0</ele><time>2026-05-01T15:15:28.256Z</time></trkpt><trkpt lat="42.4586264" lon="14.1282353"><ele>157.66666666666666</ele><time>2026-05-01T15:15:29.257Z</time></trkpt><trkpt lat="42.4585629" lon="14.1280469"><ele>160.33333333333334</ele><time>2026-05-01T15:15:30.255Z</time></trkpt><trkpt lat="42.4584977" lon="14.1278654"><ele>163.0</ele><time>2026-05-01T15:15:31.257Z</time></trkpt><trkpt lat="42.4584306" lon="14.127685"><ele>163.0</ele><time>2026-05-01T15:15:32.268Z</time></trkpt><trkpt lat="42.4583695" lon="14.1275188"><ele>163.0</ele><time>2026-05-01T15:15:33.261Z</time></trkpt><trkpt lat="42.4582998" lon="14.1273702"><ele>163.0</ele><time>2026-05-01T15:15:34.272Z</time></trkpt><trkpt lat="42.4582218" lon="14.1272426"><ele>163.0</ele><time>2026-05-01T15:15:35.285Z</time></trkpt><trkpt lat="42.4581267" lon="14.1271458"><ele>161.25</ele><time>2026-05-01T15:15:36.263Z</time></trkpt><trkpt lat="42.4580258" lon="14.1270529"><ele>159.5</ele><time>2026-05-01T15:15:37.27Z</time></trkpt><trkpt lat="42.4579338" lon="14.1269518"><ele>157.75</ele><time>2026-05-01T15:15:38.261Z</time></trkpt><trkpt lat="42.4578593" lon="14.1268289"><ele>156.0</ele><time>2026-05-01T15:15:39.257Z</time></trkpt><trkpt lat="42.457788" lon="14.1266948"><ele>158.75</ele><time>2026-05-01T15:15:40.256Z</time></trkpt><trkpt lat="42.4577174" lon="14.1265546"><ele>161.5</ele><time>2026-05-01T15:15:41.265Z</time></trkpt><trkpt lat="42.4576449" lon="14.1264107"><ele>164.25</ele><time>2026-05-01T15:15:42.258Z</time></trkpt><trkpt lat="42.4575756" lon="14.1262686"><ele>167.0</ele><time>2026-05-01T15:15:43.261Z</time></trkpt><trkpt lat="42.4575085" lon="14.1261245"><ele>167.0</ele><time>2026-05-01T15:15:44.258Z</time></trkpt><trkpt lat="42.4574469" lon="14.1259751"><ele>167.0</ele><time>2026-05-01T15:15:45.264Z</time></trkpt><trkpt lat="42.4573905" lon="14.1258233"><ele>167.0</ele><time>2026-05-01T15:15:46.268Z</time></trkpt><trkpt lat="42.4573395" lon="14.1256798"><ele>167.0</ele><time>2026-05-01T15:15:47.261Z</time></trkpt><trkpt lat="42.4573027" lon="14.1255305"><ele>168.75</ele><time>2026-05-01T15:15:48.259Z</time></trkpt><trkpt lat="42.4572717" lon="14.1253811"><ele>170.5</ele><time>2026-05-01T15:15:49.262Z</time></trkpt><trkpt lat="42.4572513" lon="14.1252374"><ele>172.25</ele><time>2026-05-01T15:15:50.263Z</time></trkpt><trkpt lat="42.4572401" lon="14.1250823"><ele>174.0</ele><time>2026-05-01T15:15:51.261Z</time></trkpt><trkpt lat="42.4572378" lon="14.1249226"><ele>173.25</ele><time>2026-05-01T15:15:52.266Z</time></trkpt><trkpt lat="42.4572462" lon="14.1247585"><ele>172.5</ele><time>2026-05-01T15:15:53.263Z</time></trkpt><trkpt lat="42.4572591" lon="14.124592"><ele>171.75</ele><time>2026-05-01T15:15:54.269Z</time></trkpt><trkpt lat="42.4572804" lon="14.1244157"><ele>171.0</ele><time>2026-05-01T15:15:55.264Z</time></trkpt><trkpt lat="42.4573161" lon="14.1242306"><ele>169.25</ele><time>2026-05-01T15:15:56.258Z</time></trkpt><trkpt lat="42.4573635" lon="14.1240512"><ele>167.5</ele><time>2026-05-01T15:15:57.264Z</time></trkpt><trkpt lat="42.4574164" lon="14.1238679"><ele>165.75</ele><time>2026-05-01T15:15:58.26Z</time></trkpt><trkpt lat="42.4574708" lon="14.1236727"><ele>164.0</ele><time>2026-05-01T15:15:59.267Z</time></trkpt><trkpt lat="42.4575304" lon="14.123471"><ele>164.0</ele><time>2026-05-01T15:16:00.264Z</time></trkpt><trkpt lat="42.4575914" lon="14.1232685"><ele>164.0</ele><time>2026-05-01T15:16:01.285Z</time></trkpt><trkpt lat="42.4576503" lon="14.1230655"><ele>164.0</ele><time>2026-05-01T15:16:02.263Z</time></trkpt><trkpt lat="42.4577051" lon="14.1228689"><ele>163.5</ele><time>2026-05-01T15:16:03.259Z</time></trkpt><trkpt lat="42.4577624" lon="14.1226856"><ele>163.0</ele><time>2026-05-01T15:16:04.271Z</time></trkpt><trkpt lat="42.4578201" lon="14.1225106"><ele>162.5</ele><time>2026-05-01T15:16:05.275Z</time></trkpt><trkpt lat="42.4578891" lon="14.1223407"><ele>162.0</ele><time>2026-05-01T15:16:06.276Z</time></trkpt><trkpt lat="42.4579709" lon="14.1221749"><ele>161.33333333333334</ele><time>2026-05-01T15:16:07.269Z</time></trkpt><trkpt lat="42.4580646" lon="14.1220144"><ele>160.66666666666669</ele><time>2026-05-01T15:16:08.269Z</time></trkpt><trkpt lat="42.4581675" lon="14.1218686"><ele>160.0</ele><time>2026-05-01T15:16:09.268Z</time></trkpt><trkpt lat="42.4582799" lon="14.1217306"><ele>160.0</ele><time>2026-05-01T15:16:10.267Z</time></trkpt><trkpt lat="42.4583975" lon="14.1215963"><ele>160.0</ele><time>2026-05-01T15:16:11.283Z</time></trkpt><trkpt lat="42.4585187" lon="14.121467"><ele>160.0</ele><time>2026-05-01T15:16:12.27Z</time></trkpt><trkpt lat="42.4586407" lon="14.1213385"><ele>160.0</ele><time>2026-05-01T15:16:13.258Z</time></trkpt><trkpt lat="42.4587592" lon="14.1212037"><ele>160.0</ele><time>2026-05-01T15:16:14.261Z</time></trkpt><trkpt lat="42.458882" lon="14.1210729"><ele>160.0</ele><time>2026-05-01T15:16:15.263Z</time></trkpt><trkpt lat="42.4589994" lon="14.1209491"><ele>160.0</ele><time>2026-05-01T15:16:16.267Z</time></trkpt><trkpt lat="42.4591095" lon="14.1208297"><ele>160.0</ele><time>2026-05-01T15:16:17.267Z</time></trkpt><trkpt lat="42.4592121" lon="14.1207197"><ele>160.0</ele><time>2026-05-01T15:16:18.256Z</time></trkpt><trkpt lat="42.4593209" lon="14.1206078"><ele>160.0</ele><time>2026-05-01T15:16:19.268Z</time></trkpt><trkpt lat="42.4594327" lon="14.1204951"><ele>160.0</ele><time>2026-05-01T15:16:20.26Z</time></trkpt><trkpt lat="42.4595348" lon="14.1203917"><ele>160.0</ele><time>2026-05-01T15:16:21.272Z</time></trkpt><trkpt lat="42.4596321" lon="14.1202955"><ele>160.0</ele><time>2026-05-01T15:16:22.264Z</time></trkpt><trkpt lat="42.4597263" lon="14.1202104"><ele>160.0</ele><time>2026-05-01T15:16:23.256Z</time></trkpt><trkpt lat="42.4597941" lon="14.1201468"><ele>160.0</ele><time>2026-05-01T15:16:24.263Z</time></trkpt><trkpt lat="42.4598852" lon="14.1200927"><ele>160.0</ele><time>2026-05-01T15:16:26.262Z</time></trkpt><trkpt lat="42.4600151" lon="14.120067"><ele>160.0</ele><time>2026-05-01T15:16:28.256Z</time></trkpt><trkpt lat="42.4600952" lon="14.1200429"><ele>160.0</ele><time>2026-05-01T15:16:29.263Z</time></trkpt><trkpt lat="42.4601815" lon="14.1200175"><ele>160.0</ele><time>2026-05-01T15:16:30.259Z</time></trkpt><trkpt lat="42.4602738" lon="14.1200136"><ele>160.0</ele><time>2026-05-01T15:16:31.248Z</time></trkpt><trkpt lat="42.4603729" lon="14.1200515"><ele>160.5</ele><time>2026-05-01T15:16:32.256Z</time></trkpt><trkpt lat="42.4604683" lon="14.1201039"><ele>161.0</ele><time>2026-05-01T15:16:33.256Z</time></trkpt><trkpt lat="42.4605754" lon="14.1201518"><ele>161.5</ele><time>2026-05-01T15:16:34.256Z</time></trkpt><trkpt lat="42.4606896" lon="14.1201931"><ele>162.0</ele><time>2026-05-01T15:16:35.278Z</time></trkpt><trkpt lat="42.4608145" lon="14.1202262"><ele>162.0</ele><time>2026-05-01T15:16:36.264Z</time></trkpt><trkpt lat="42.460942" lon="14.1202506"><ele>162.0</ele><time>2026-05-01T15:16:37.262Z</time></trkpt><trkpt lat="42.4610737" lon="14.1202782"><ele>162.0</ele><time>2026-05-01T15:16:38.252Z</time></trkpt><trkpt lat="42.4612101" lon="14.1203199"><ele>162.0</ele><time>2026-05-01T15:16:39.262Z</time></trkpt><trkpt lat="42.4613411" lon="14.1203836"><ele>163.75</ele><time>2026-05-01T15:16:40.257Z</time></trkpt><trkpt lat="42.4614717" lon="14.1204667"><ele>165.5</ele><time>2026-05-01T15:16:41.26Z</time></trkpt><trkpt lat="42.4615999" lon="14.1205692"><ele>167.25</ele><time>2026-05-01T15:16:42.258Z</time></trkpt><trkpt lat="42.4617296" lon="14.1206698"><ele>169.0</ele><time>2026-05-01T15:16:43.267Z</time></trkpt><trkpt lat="42.461867" lon="14.1207739"><ele>168.0</ele><time>2026-05-01T15:16:44.262Z</time></trkpt><trkpt lat="42.4620044" lon="14.1208745"><ele>167.0</ele><time>2026-05-01T15:16:45.257Z</time></trkpt><trkpt lat="42.4621415" lon="14.1209732"><ele>166.0</ele><time>2026-05-01T15:16:46.266Z</time></trkpt><trkpt lat="42.462281" lon="14.1210739"><ele>166.0</ele><time>2026-05-01T15:16:47.263Z</time></trkpt><trkpt lat="42.4624211" lon="14.1211757"><ele>166.0</ele><time>2026-05-01T15:16:48.248Z</time></trkpt><trkpt lat="42.4625619" lon="14.1212855"><ele>166.0</ele><time>2026-05-01T15:16:49.266Z</time></trkpt><trkpt lat="42.4626954" lon="14.1213898"><ele>166.0</ele><time>2026-05-01T15:16:50.25Z</time></trkpt><trkpt lat="42.4628266" lon="14.1214898"><ele>166.0</ele><time>2026-05-01T15:16:51.261Z</time></trkpt><trkpt lat="42.4629563" lon="14.1215864"><ele>166.0</ele><time>2026-05-01T15:16:52.256Z</time></trkpt><trkpt lat="42.4630796" lon="14.1216812"><ele>166.0</ele><time>2026-05-01T15:16:53.269Z</time></trkpt><trkpt lat="42.4631995" lon="14.1217708"><ele>163.25</ele><time>2026-05-01T15:16:54.243Z</time></trkpt><trkpt lat="42.4633213" lon="14.1218603"><ele>160.5</ele><time>2026-05-01T15:16:55.252Z</time></trkpt><trkpt lat="42.4634483" lon="14.1219494"><ele>157.75</ele><time>2026-05-01T15:16:56.244Z</time></trkpt><trkpt lat="42.4635706" lon="14.1220432"><ele>155.0</ele><time>2026-05-01T15:16:57.255Z</time></trkpt><trkpt lat="42.4636941" lon="14.1221416"><ele>153.66666666666666</ele><time>2026-05-01T15:16:58.263Z</time></trkpt><trkpt lat="42.4638109" lon="14.1222571"><ele>152.33333333333334</ele><time>2026-05-01T15:16:59.25Z</time></trkpt><trkpt lat="42.4639173" lon="14.1224054"><ele>151.0</ele><time>2026-05-01T15:17:00.239Z</time></trkpt><trkpt lat="42.4640069" lon="14.1225725"><ele>150.33333333333334</ele><time>2026-05-01T15:17:01.258Z</time></trkpt><trkpt lat="42.4640855" lon="14.1227513"><ele>149.66666666666666</ele><time>2026-05-01T15:17:02.255Z</time></trkpt><trkpt lat="42.4641593" lon="14.1229357"><ele>149.0</ele><time>2026-05-01T15:17:03.264Z</time></trkpt><trkpt lat="42.4642239" lon="14.1231288"><ele>149.0</ele><time>2026-05-01T15:17:04.246Z</time></trkpt><trkpt lat="42.4642811" lon="14.1233268"><ele>149.0</ele><time>2026-05-01T15:17:05.27Z</time></trkpt><trkpt lat="42.4643293" lon="14.123533"><ele>149.0</ele><time>2026-05-01T15:17:06.243Z</time></trkpt><trkpt lat="42.4643847" lon="14.1237332"><ele>149.0</ele><time>2026-05-01T15:17:07.249Z</time></trkpt><trkpt lat="42.4644557" lon="14.1239189"><ele>149.0</ele><time>2026-05-01T15:17:08.266Z</time></trkpt><trkpt lat="42.4645398" lon="14.1240851"><ele>149.0</ele><time>2026-05-01T15:17:09.26Z</time></trkpt><trkpt lat="42.4646328" lon="14.1242417"><ele>147.0</ele><time>2026-05-01T15:17:10.24Z</time></trkpt><trkpt lat="42.4647353" lon="14.1243857"><ele>145.0</ele><time>2026-05-01T15:17:11.238Z</time></trkpt><trkpt lat="42.4648428" lon="14.1245187"><ele>143.0</ele><time>2026-05-01T15:17:12.247Z</time></trkpt><trkpt lat="42.4649481" lon="14.1246496"><ele>141.0</ele><time>2026-05-01T15:17:13.255Z</time></trkpt><trkpt lat="42.4650477" lon="14.1247837"><ele>142.75</ele><time>2026-05-01T15:17:14.278Z</time></trkpt><trkpt lat="42.465137" lon="14.1249328"><ele>144.5</ele><time>2026-05-01T15:17:15.241Z</time></trkpt><trkpt lat="42.4652191" lon="14.1250871"><ele>146.25</ele><time>2026-05-01T15:17:16.264Z</time></trkpt><trkpt lat="42.4653033" lon="14.1252449"><ele>148.0</ele><time>2026-05-01T15:17:17.276Z</time></trkpt><trkpt lat="42.4653968" lon="14.1254013"><ele>146.33333333333334</ele><time>2026-05-01T15:17:18.262Z</time></trkpt><trkpt lat="42.4654986" lon="14.1255553"><ele>144.66666666666666</ele><time>2026-05-01T15:17:19.261Z</time></trkpt><trkpt lat="42.4656057" lon="14.1257069"><ele>143.0</ele><time>2026-05-01T15:17:20.257Z</time></trkpt><trkpt lat="42.4657182" lon="14.1258393"><ele>143.0</ele><time>2026-05-01T15:17:21.251Z</time></trkpt><trkpt lat="42.4658399" lon="14.1259497"><ele>143.0</ele><time>2026-05-01T15:17:22.259Z</time></trkpt><trkpt lat="42.4659718" lon="14.1260375"><ele>143.0</ele><time>2026-05-01T15:17:23.244Z</time></trkpt><trkpt lat="42.4661007" lon="14.1260962"><ele>143.0</ele><time>2026-05-01T15:17:24.242Z</time></trkpt><trkpt lat="42.4662268" lon="14.1261243"><ele>140.75</ele><time>2026-05-01T15:17:25.264Z</time></trkpt><trkpt lat="42.4663463" lon="14.1261453"><ele>138.5</ele><time>2026-05-01T15:17:26.257Z</time></trkpt><trkpt lat="42.4664647" lon="14.1261639"><ele>136.25</ele><time>2026-05-01T15:17:27.266Z</time></trkpt><trkpt lat="42.4665745" lon="14.1261968"><ele>134.0</ele><time>2026-05-01T15:17:28.258Z</time></trkpt><trkpt lat="42.4666792" lon="14.1262667"><ele>134.0</ele><time>2026-05-01T15:17:29.261Z</time></trkpt><trkpt lat="42.4667735" lon="14.1263657"><ele>134.0</ele><time>2026-05-01T15:17:30.271Z</time></trkpt><trkpt lat="42.4668514" lon="14.1264986"><ele>134.0</ele><time>2026-05-01T15:17:31.256Z</time></trkpt><trkpt lat="42.4669226" lon="14.126647"><ele>134.0</ele><time>2026-05-01T15:17:32.266Z</time></trkpt><trkpt lat="42.4670038" lon="14.1267948"><ele>134.25</ele><time>2026-05-01T15:17:33.265Z</time></trkpt><trkpt lat="42.4670832" lon="14.126949"><ele>134.5</ele><time>2026-05-01T15:17:34.268Z</time></trkpt><trkpt lat="42.4671585" lon="14.1271139"><ele>134.75</ele><time>2026-05-01T15:17:35.292Z</time></trkpt><trkpt lat="42.4672386" lon="14.1272768"><ele>135.0</ele><time>2026-05-01T15:17:36.268Z</time></trkpt><trkpt lat="42.4673106" lon="14.1274448"><ele>137.5</ele><time>2026-05-01T15:17:37.266Z</time></trkpt><trkpt lat="42.4673768" lon="14.1276132"><ele>140.0</ele><time>2026-05-01T15:17:38.26Z</time></trkpt><trkpt lat="42.4674372" lon="14.127786"><ele>142.5</ele><time>2026-05-01T15:17:39.258Z</time></trkpt><trkpt lat="42.4675009" lon="14.1279534"><ele>145.0</ele><time>2026-05-01T15:17:40.265Z</time></trkpt><trkpt lat="42.4675589" lon="14.1281185"><ele>145.5</ele><time>2026-05-01T15:17:41.26Z</time></trkpt><trkpt lat="42.4676181" lon="14.1282855"><ele>146.0</ele><time>2026-05-01T15:17:42.27Z</time></trkpt><trkpt lat="42.467678" lon="14.1284497"><ele>146.5</ele><time>2026-05-01T15:17:43.26Z</time></trkpt><trkpt lat="42.4677463" lon="14.1285935"><ele>147.0</ele><time>2026-05-01T15:17:44.26Z</time></trkpt><trkpt lat="42.4678302" lon="14.1286974"><ele>147.0</ele><time>2026-05-01T15:17:45.262Z</time></trkpt><trkpt lat="42.4679349" lon="14.1287735"><ele>147.0</ele><time>2026-05-01T15:17:46.259Z</time></trkpt><trkpt lat="42.4680549" lon="14.1288247"><ele>147.0</ele><time>2026-05-01T15:17:47.261Z</time></trkpt><trkpt lat="42.4681769" lon="14.1288592"><ele>147.0</ele><time>2026-05-01T15:17:48.264Z</time></trkpt><trkpt lat="42.4682995" lon="14.1288955"><ele>147.25</ele><time>2026-05-01T15:17:49.262Z</time></trkpt><trkpt lat="42.4684215" lon="14.1289405"><ele>147.5</ele><time>2026-05-01T15:17:50.261Z</time></trkpt><trkpt lat="42.4685443" lon="14.1289835"><ele>147.75</ele><time>2026-05-01T15:17:51.27Z</time></trkpt><trkpt lat="42.4686603" lon="14.1290266"><ele>148.0</ele><time>2026-05-01T15:17:52.273Z</time></trkpt><trkpt lat="42.4687715" lon="14.1290679"><ele>148.5</ele><time>2026-05-01T15:17:53.257Z</time></trkpt><trkpt lat="42.4688932" lon="14.1291053"><ele>149.0</ele><time>2026-05-01T15:17:54.266Z</time></trkpt><trkpt lat="42.4690163" lon="14.1291474"><ele>149.5</ele><time>2026-05-01T15:17:55.258Z</time></trkpt><trkpt lat="42.4691437" lon="14.129196"><ele>150.0</ele><time>2026-05-01T15:17:56.275Z</time></trkpt><trkpt lat="42.4692691" lon="14.1292637"><ele>150.0</ele><time>2026-05-01T15:17:57.273Z</time></trkpt><trkpt lat="42.4693835" lon="14.1293551"><ele>150.0</ele><time>2026-05-01T15:17:58.253Z</time></trkpt><trkpt lat="42.4694938" lon="14.1294621"><ele>150.0</ele><time>2026-05-01T15:17:59.268Z</time></trkpt><trkpt lat="42.4696026" lon="14.1295676"><ele>150.0</ele><time>2026-05-01T15:18:00.255Z</time></trkpt><trkpt lat="42.4697076" lon="14.1296844"><ele>150.0</ele><time>2026-05-01T15:18:01.267Z</time></trkpt><trkpt lat="42.4698089" lon="14.1298"><ele>150.0</ele><time>2026-05-01T15:18:02.261Z</time></trkpt><trkpt lat="42.4699113" lon="14.1299226"><ele>150.0</ele><time>2026-05-01T15:18:03.25Z</time></trkpt><trkpt lat="42.4700167" lon="14.1300499"><ele>150.0</ele><time>2026-05-01T15:18:04.273Z</time></trkpt><trkpt lat="42.4701232" lon="14.1301793"><ele>150.0</ele><time>2026-05-01T15:18:05.262Z</time></trkpt><trkpt lat="42.4702335" lon="14.1303136"><ele>150.0</ele><time>2026-05-01T15:18:06.266Z</time></trkpt><trkpt lat="42.4703453" lon="14.130448"><ele>150.0</ele><time>2026-05-01T15:18:07.269Z</time></trkpt><trkpt lat="42.4704575" lon="14.1305883"><ele>148.0</ele><time>2026-05-01T15:18:08.266Z</time></trkpt><trkpt lat="42.4705722" lon="14.1307257"><ele>146.0</ele><time>2026-05-01T15:18:09.274Z</time></trkpt><trkpt lat="42.470689" lon="14.1308651"><ele>144.0</ele><time>2026-05-01T15:18:10.259Z</time></trkpt><trkpt lat="42.4708058" lon="14.131006"><ele>144.0</ele><time>2026-05-01T15:18:11.266Z</time></trkpt><trkpt lat="42.4709165" lon="14.1311474"><ele>144.0</ele><time>2026-05-01T15:18:12.251Z</time></trkpt><trkpt lat="42.4710208" lon="14.1312815"><ele>144.0</ele><time>2026-05-01T15:18:13.275Z</time></trkpt><trkpt lat="42.471121" lon="14.1314102"><ele>144.0</ele><time>2026-05-01T15:18:14.24Z</time></trkpt><trkpt lat="42.4712254" lon="14.1315404"><ele>143.5</ele><time>2026-05-01T15:18:15.26Z</time></trkpt><trkpt lat="42.4713164" lon="14.131667"><ele>143.0</ele><time>2026-05-01T15:18:16.278Z</time></trkpt><trkpt lat="42.4713983" lon="14.131789"><ele>142.5</ele><time>2026-05-01T15:18:17.254Z</time></trkpt><trkpt lat="42.4714725" lon="14.1319327"><ele>142.0</ele><time>2026-05-01T15:18:18.262Z</time></trkpt><trkpt lat="42.4715185" lon="14.1320959"><ele>142.0</ele><time>2026-05-01T15:18:19.266Z</time></trkpt><trkpt lat="42.4715369" lon="14.1322732"><ele>142.0</ele><time>2026-05-01T15:18:20.269Z</time></trkpt><trkpt lat="42.4715391" lon="14.1324534"><ele>142.0</ele><time>2026-05-01T15:18:21.256Z</time></trkpt><trkpt lat="42.4715421" lon="14.1326345"><ele>142.0</ele><time>2026-05-01T15:18:22.265Z</time></trkpt><trkpt lat="42.4715694" lon="14.1328121"><ele>143.5</ele><time>2026-05-01T15:18:23.257Z</time></trkpt><trkpt lat="42.471619" lon="14.1329827"><ele>145.0</ele><time>2026-05-01T15:18:24.25Z</time></trkpt><trkpt lat="42.4716883" lon="14.1331439"><ele>146.5</ele><time>2026-05-01T15:18:25.267Z</time></trkpt><trkpt lat="42.4717751" lon="14.1332648"><ele>148.0</ele><time>2026-05-01T15:18:26.281Z</time></trkpt><trkpt lat="42.4718806" lon="14.1333437"><ele>148.0</ele><time>2026-05-01T15:18:27.319Z</time></trkpt><trkpt lat="42.4719931" lon="14.1333761"><ele>148.0</ele><time>2026-05-01T15:18:28.259Z</time></trkpt><trkpt lat="42.4721139" lon="14.1333778"><ele>148.0</ele><time>2026-05-01T15:18:29.26Z</time></trkpt><trkpt lat="42.4722352" lon="14.1333695"><ele>148.0</ele><time>2026-05-01T15:18:30.249Z</time></trkpt><trkpt lat="42.4723572" lon="14.1333732"><ele>150.5</ele><time>2026-05-01T15:18:31.258Z</time></trkpt><trkpt lat="42.4724726" lon="14.1334077"><ele>153.0</ele><time>2026-05-01T15:18:32.273Z</time></trkpt><trkpt lat="42.4725764" lon="14.1334875"><ele>155.5</ele><time>2026-05-01T15:18:33.27Z</time></trkpt><trkpt lat="42.4726657" lon="14.1335998"><ele>158.0</ele><time>2026-05-01T15:18:34.264Z</time></trkpt><trkpt lat="42.4727539" lon="14.1337174"><ele>158.0</ele><time>2026-05-01T15:18:35.28Z</time></trkpt><trkpt lat="42.4728452" lon="14.1338231"><ele>158.0</ele><time>2026-05-01T15:18:36.272Z</time></trkpt><trkpt lat="42.4729477" lon="14.1339042"><ele>158.0</ele><time>2026-05-01T15:18:37.277Z</time></trkpt><trkpt lat="42.4730523" lon="14.133976"><ele>158.0</ele><time>2026-05-01T15:18:38.268Z</time></trkpt><trkpt lat="42.4731534" lon="14.1340432"><ele>160.0</ele><time>2026-05-01T15:18:39.273Z</time></trkpt><trkpt lat="42.4732421" lon="14.1341186"><ele>162.0</ele><time>2026-05-01T15:18:40.264Z</time></trkpt><trkpt lat="42.4733312" lon="14.1342081"><ele>164.0</ele><time>2026-05-01T15:18:41.265Z</time></trkpt><trkpt lat="42.473416" lon="14.1343197"><ele>166.0</ele><time>2026-05-01T15:18:42.252Z</time></trkpt><trkpt lat="42.4734931" lon="14.1344431"><ele>166.0</ele><time>2026-05-01T15:18:43.272Z</time></trkpt><trkpt lat="42.4735466" lon="14.1345783"><ele>166.0</ele><time>2026-05-01T15:18:44.253Z</time></trkpt><trkpt lat="42.4735747" lon="14.134717"><ele>166.0</ele><time>2026-05-01T15:18:45.263Z</time></trkpt><trkpt lat="42.4735835" lon="14.1348603"><ele>166.0</ele><time>2026-05-01T15:18:46.262Z</time></trkpt><trkpt lat="42.4736055" lon="14.1350099"><ele>166.0</ele><time>2026-05-01T15:18:47.254Z</time></trkpt><trkpt lat="42.473624" lon="14.1351619"><ele>164.4</ele><time>2026-05-01T15:18:48.262Z</time></trkpt><trkpt lat="42.4736682" lon="14.1352995"><ele>162.8</ele><time>2026-05-01T15:18:49.266Z</time></trkpt><trkpt lat="42.4737261" lon="14.1354143"><ele>161.20000000000002</ele><time>2026-05-01T15:18:50.256Z</time></trkpt><trkpt lat="42.4738016" lon="14.1355"><ele>159.60000000000002</ele><time>2026-05-01T15:18:51.252Z</time></trkpt><trkpt lat="42.4739007" lon="14.1355618"><ele>158.0</ele><time>2026-05-01T15:18:52.267Z</time></trkpt><trkpt lat="42.4740112" lon="14.1356038"><ele>160.0</ele><time>2026-05-01T15:18:53.271Z</time></trkpt><trkpt lat="42.474129" lon="14.1356437"><ele>162.0</ele><time>2026-05-01T15:18:54.286Z</time></trkpt><trkpt lat="42.4742452" lon="14.1356975"><ele>164.0</ele><time>2026-05-01T15:18:55.259Z</time></trkpt><trkpt lat="42.4743609" lon="14.1357786"><ele>166.0</ele><time>2026-05-01T15:18:56.253Z</time></trkpt><trkpt lat="42.4744692" lon="14.1358855"><ele>166.0</ele><time>2026-05-01T15:18:57.262Z</time></trkpt><trkpt lat="42.4745762" lon="14.1359984"><ele>166.0</ele><time>2026-05-01T15:18:58.262Z</time></trkpt><trkpt lat="42.4746919" lon="14.1360898"><ele>166.0</ele><time>2026-05-01T15:18:59.267Z</time></trkpt><trkpt lat="42.4748136" lon="14.136146"><ele>166.0</ele><time>2026-05-01T15:19:00.259Z</time></trkpt><trkpt lat="42.4749339" lon="14.1361739"><ele>170.25</ele><time>2026-05-01T15:19:01.264Z</time></trkpt><trkpt lat="42.4750406" lon="14.1361968"><ele>174.5</ele><time>2026-05-01T15:19:02.265Z</time></trkpt><trkpt lat="42.4751431" lon="14.1362511"><ele>178.75</ele><time>2026-05-01T15:19:03.266Z</time></trkpt><trkpt lat="42.4752346" lon="14.1363455"><ele>183.0</ele><time>2026-05-01T15:19:04.258Z</time></trkpt><trkpt lat="42.4753053" lon="14.1364794"><ele>183.0</ele><time>2026-05-01T15:19:05.262Z</time></trkpt><trkpt lat="42.4753805" lon="14.1366185"><ele>183.0</ele><time>2026-05-01T15:19:06.257Z</time></trkpt><trkpt lat="42.4754696" lon="14.1367396"><ele>183.0</ele><time>2026-05-01T15:19:07.264Z</time></trkpt><trkpt lat="42.4755723" lon="14.1368386"><ele>183.0</ele><time>2026-05-01T15:19:08.26Z</time></trkpt><trkpt lat="42.4756933" lon="14.136913"><ele>183.0</ele><time>2026-05-01T15:19:09.271Z</time></trkpt><trkpt lat="42.475818" lon="14.1369814"><ele>183.0</ele><time>2026-05-01T15:19:10.253Z</time></trkpt><trkpt lat="42.4759419" lon="14.1370565"><ele>183.0</ele><time>2026-05-01T15:19:11.264Z</time></trkpt><trkpt lat="42.4760674" lon="14.1371339"><ele>183.0</ele><time>2026-05-01T15:19:12.266Z</time></trkpt><trkpt lat="42.4761938" lon="14.1372074"><ele>182.0</ele><time>2026-05-01T15:19:13.259Z</time></trkpt><trkpt lat="42.4763208" lon="14.1372761"><ele>181.0</ele><time>2026-05-01T15:19:14.263Z</time></trkpt><trkpt lat="42.4764463" lon="14.1373382"><ele>180.0</ele><time>2026-05-01T15:19:15.253Z</time></trkpt><trkpt lat="42.4765726" lon="14.1373883"><ele>179.0</ele><time>2026-05-01T15:19:16.267Z</time></trkpt><trkpt lat="42.476701" lon="14.1374208"><ele>179.0</ele><time>2026-05-01T15:19:17.264Z</time></trkpt><trkpt lat="42.4768301" lon="14.1374331"><ele>179.0</ele><time>2026-05-01T15:19:18.282Z</time></trkpt><trkpt lat="42.47696" lon="14.1374428"><ele>179.0</ele><time>2026-05-01T15:19:19.271Z</time></trkpt><trkpt lat="42.4770912" lon="14.1374564"><ele>179.0</ele><time>2026-05-01T15:19:20.273Z</time></trkpt><trkpt lat="42.4772243" lon="14.1374617"><ele>179.75</ele><time>2026-05-01T15:19:21.264Z</time></trkpt><trkpt lat="42.4773578" lon="14.1374491"><ele>180.5</ele><time>2026-05-01T15:19:22.257Z</time></trkpt><trkpt lat="42.4774891" lon="14.13742"><ele>181.25</ele><time>2026-05-01T15:19:23.26Z</time></trkpt><trkpt lat="42.4776132" lon="14.1373795"><ele>182.0</ele><time>2026-05-01T15:19:24.262Z</time></trkpt><trkpt lat="42.4777306" lon="14.1373286"><ele>180.0</ele><time>2026-05-01T15:19:25.258Z</time></trkpt><trkpt lat="42.4778495" lon="14.1372769"><ele>178.0</ele><time>2026-05-01T15:19:26.265Z</time></trkpt><trkpt lat="42.4779671" lon="14.1372223"><ele>176.0</ele><time>2026-05-01T15:19:27.265Z</time></trkpt><trkpt lat="42.4780779" lon="14.1371791"><ele>174.0</ele><time>2026-05-01T15:19:28.262Z</time></trkpt><trkpt lat="42.4781883" lon="14.1371631"><ele>172.5</ele><time>2026-05-01T15:19:29.265Z</time></trkpt><trkpt lat="42.4782992" lon="14.137176"><ele>171.0</ele><time>2026-05-01T15:19:30.263Z</time></trkpt><trkpt lat="42.4784086" lon="14.1372257"><ele>169.5</ele><time>2026-05-01T15:19:31.256Z</time></trkpt><trkpt lat="42.4785269" lon="14.1372797"><ele>168.0</ele><time>2026-05-01T15:19:32.278Z</time></trkpt><trkpt lat="42.4786472" lon="14.1373126"><ele>167.75</ele><time>2026-05-01T15:19:33.259Z</time></trkpt><trkpt lat="42.478772" lon="14.1373047"><ele>167.5</ele><time>2026-05-01T15:19:34.254Z</time></trkpt><trkpt lat="42.4788912" lon="14.1372577"><ele>167.25</ele><time>2026-05-01T15:19:35.263Z</time></trkpt><trkpt lat="42.4790036" lon="14.1372013"><ele>167.0</ele><time>2026-05-01T15:19:36.266Z</time></trkpt><trkpt lat="42.4791083" lon="14.1371335"><ele>167.0</ele><time>2026-05-01T15:19:37.268Z</time></trkpt><trkpt lat="42.4792011" lon="14.1370483"><ele>167.0</ele><time>2026-05-01T15:19:38.261Z</time></trkpt><trkpt lat="42.4792858" lon="14.1369407"><ele>167.0</ele><time>2026-05-01T15:19:39.287Z</time></trkpt><trkpt lat="42.4793594" lon="14.136817"><ele>167.0</ele><time>2026-05-01T15:19:40.25Z</time></trkpt><trkpt lat="42.4794275" lon="14.1366835"><ele>166.5</ele><time>2026-05-01T15:19:41.268Z</time></trkpt><trkpt lat="42.4794944" lon="14.136552"><ele>166.0</ele><time>2026-05-01T15:19:42.257Z</time></trkpt><trkpt lat="42.4795686" lon="14.1364336"><ele>165.5</ele><time>2026-05-01T15:19:43.28Z</time></trkpt><trkpt lat="42.4796474" lon="14.1363305"><ele>165.0</ele><time>2026-05-01T15:19:44.264Z</time></trkpt><trkpt lat="42.4797291" lon="14.1362301"><ele>165.0</ele><time>2026-05-01T15:19:45.248Z</time></trkpt><trkpt lat="42.4798105" lon="14.1361228"><ele>165.0</ele><time>2026-05-01T15:19:46.276Z</time></trkpt><trkpt lat="42.4798813" lon="14.1359949"><ele>165.0</ele><time>2026-05-01T15:19:47.266Z</time></trkpt><trkpt lat="42.479935" lon="14.1358548"><ele>165.0</ele><time>2026-05-01T15:19:48.262Z</time></trkpt><trkpt lat="42.479971" lon="14.1356968"><ele>163.4</ele><time>2026-05-01T15:19:49.273Z</time></trkpt><trkpt lat="42.4800009" lon="14.1355458"><ele>161.8</ele><time>2026-05-01T15:19:50.254Z</time></trkpt><trkpt lat="42.4800355" lon="14.135406"><ele>160.2</ele><time>2026-05-01T15:19:51.26Z</time></trkpt><trkpt lat="42.4800835" lon="14.1352787"><ele>158.6</ele><time>2026-05-01T15:19:52.251Z</time></trkpt><trkpt lat="42.4801526" lon="14.1351626"><ele>157.0</ele><time>2026-05-01T15:19:53.258Z</time></trkpt><trkpt lat="42.4802388" lon="14.1350559"><ele>157.0</ele><time>2026-05-01T15:19:54.259Z</time></trkpt><trkpt lat="42.4803342" lon="14.1349638"><ele>157.0</ele><time>2026-05-01T15:19:55.259Z</time></trkpt><trkpt lat="42.480434" lon="14.1348776"><ele>157.0</ele><time>2026-05-01T15:19:56.26Z</time></trkpt><trkpt lat="42.4805316" lon="14.1348069"><ele>157.0</ele><time>2026-05-01T15:19:57.259Z</time></trkpt><trkpt lat="42.4806364" lon="14.134769"><ele>157.2</ele><time>2026-05-01T15:19:58.267Z</time></trkpt><trkpt lat="42.480739" lon="14.1347796"><ele>157.39999999999998</ele><time>2026-05-01T15:19:59.251Z</time></trkpt><trkpt lat="42.4808354" lon="14.1348308"><ele>157.60000000000002</ele><time>2026-05-01T15:20:00.257Z</time></trkpt><trkpt lat="42.4809192" lon="14.1349154"><ele>157.8</ele><time>2026-05-01T15:20:01.256Z</time></trkpt><trkpt lat="42.4809997" lon="14.1350103"><ele>158.0</ele><time>2026-05-01T15:20:02.255Z</time></trkpt><trkpt lat="42.4810715" lon="14.1351215"><ele>158.0</ele><time>2026-05-01T15:20:03.262Z</time></trkpt><trkpt lat="42.4811293" lon="14.1352454"><ele>158.0</ele><time>2026-05-01T15:20:04.285Z</time></trkpt><trkpt lat="42.4811737" lon="14.1353838"><ele>158.0</ele><time>2026-05-01T15:20:05.258Z</time></trkpt><trkpt lat="42.4812152" lon="14.1355295"><ele>158.0</ele><time>2026-05-01T15:20:06.261Z</time></trkpt><trkpt lat="42.4812587" lon="14.1356814"><ele>155.25</ele><time>2026-05-01T15:20:07.272Z</time></trkpt><trkpt lat="42.4813072" lon="14.1358341"><ele>152.5</ele><time>2026-05-01T15:20:08.261Z</time></trkpt><trkpt lat="42.4813569" lon="14.135988"><ele>149.75</ele><time>2026-05-01T15:20:09.264Z</time></trkpt><trkpt lat="42.4814048" lon="14.1361357"><ele>147.0</ele><time>2026-05-01T15:20:10.266Z</time></trkpt><trkpt lat="42.4814543" lon="14.1362847"><ele>147.0</ele><time>2026-05-01T15:20:11.262Z</time></trkpt><trkpt lat="42.4815174" lon="14.1364204"><ele>147.0</ele><time>2026-05-01T15:20:12.259Z</time></trkpt><trkpt lat="42.4816036" lon="14.1365188"><ele>147.0</ele><time>2026-05-01T15:20:13.259Z</time></trkpt><trkpt lat="42.4817067" lon="14.1365627"><ele>147.0</ele><time>2026-05-01T15:20:14.259Z</time></trkpt><trkpt lat="42.4818147" lon="14.1365638"><ele>147.0</ele><time>2026-05-01T15:20:15.259Z</time></trkpt><trkpt lat="42.4819226" lon="14.1365209"><ele>147.0</ele><time>2026-05-01T15:20:16.264Z</time></trkpt><trkpt lat="42.4820166" lon="14.1364446"><ele>147.0</ele><time>2026-05-01T15:20:17.266Z</time></trkpt><trkpt lat="42.4820887" lon="14.1363266"><ele>147.0</ele><time>2026-05-01T15:20:18.259Z</time></trkpt><trkpt lat="42.4821417" lon="14.1361805"><ele>147.0</ele><time>2026-05-01T15:20:19.273Z</time></trkpt><trkpt lat="42.4821759" lon="14.1360187"><ele>145.75</ele><time>2026-05-01T15:20:20.27Z</time></trkpt><trkpt lat="42.4822044" lon="14.1358451"><ele>144.5</ele><time>2026-05-01T15:20:21.263Z</time></trkpt><trkpt lat="42.4822407" lon="14.1356715"><ele>143.25</ele><time>2026-05-01T15:20:22.269Z</time></trkpt><trkpt lat="42.4822806" lon="14.135492"><ele>142.0</ele><time>2026-05-01T15:20:23.271Z</time></trkpt><trkpt lat="42.4823207" lon="14.1353113"><ele>141.25</ele><time>2026-05-01T15:20:24.259Z</time></trkpt><trkpt lat="42.4823613" lon="14.1351252"><ele>140.5</ele><time>2026-05-01T15:20:25.264Z</time></trkpt><trkpt lat="42.482401" lon="14.1349363"><ele>139.75</ele><time>2026-05-01T15:20:26.264Z</time></trkpt><trkpt lat="42.4824413" lon="14.1347475"><ele>139.0</ele><time>2026-05-01T15:20:27.256Z</time></trkpt><trkpt lat="42.4824824" lon="14.1345569"><ele>138.5</ele><time>2026-05-01T15:20:28.259Z</time></trkpt><trkpt lat="42.4825218" lon="14.1343656"><ele>138.0</ele><time>2026-05-01T15:20:29.25Z</time></trkpt><trkpt lat="42.4825612" lon="14.1341829"><ele>137.5</ele><time>2026-05-01T15:20:30.259Z</time></trkpt><trkpt lat="42.482597" lon="14.1340087"><ele>137.0</ele><time>2026-05-01T15:20:31.264Z</time></trkpt><trkpt lat="42.4826357" lon="14.1338387"><ele>136.0</ele><time>2026-05-01T15:20:32.261Z</time></trkpt><trkpt lat="42.4826779" lon="14.1336783"><ele>135.0</ele><time>2026-05-01T15:20:33.26Z</time></trkpt><trkpt lat="42.4827236" lon="14.133527"><ele>134.0</ele><time>2026-05-01T15:20:34.253Z</time></trkpt><trkpt lat="42.4827908" lon="14.1333935"><ele>133.0</ele><time>2026-05-01T15:20:35.263Z</time></trkpt><trkpt lat="42.4828782" lon="14.1332887"><ele>132.0</ele><time>2026-05-01T15:20:36.255Z</time></trkpt><trkpt lat="42.4829869" lon="14.1332149"><ele>131.0</ele><time>2026-05-01T15:20:37.269Z</time></trkpt><trkpt lat="42.4831117" lon="14.1331573"><ele>130.0</ele><time>2026-05-01T15:20:38.262Z</time></trkpt><trkpt lat="42.4832453" lon="14.1330971"><ele>129.0</ele><time>2026-05-01T15:20:39.259Z</time></trkpt><trkpt lat="42.4833807" lon="14.1330298"><ele>129.0</ele><time>2026-05-01T15:20:40.253Z</time></trkpt><trkpt lat="42.4835203" lon="14.1329598"><ele>129.0</ele><time>2026-05-01T15:20:41.262Z</time></trkpt><trkpt lat="42.4836577" lon="14.1328939"><ele>129.0</ele><time>2026-05-01T15:20:42.256Z</time></trkpt><trkpt lat="42.4837947" lon="14.1328278"><ele>129.0</ele><time>2026-05-01T15:20:43.256Z</time></trkpt><trkpt lat="42.4839245" lon="14.132753"><ele>128.0</ele><time>2026-05-01T15:20:44.268Z</time></trkpt><trkpt lat="42.4840602" lon="14.1326726"><ele>127.0</ele><time>2026-05-01T15:20:45.261Z</time></trkpt><trkpt lat="42.4841921" lon="14.1326136"><ele>126.0</ele><time>2026-05-01T15:20:46.247Z</time></trkpt><trkpt lat="42.4843136" lon="14.1325559"><ele>125.0</ele><time>2026-05-01T15:20:47.28Z</time></trkpt><trkpt lat="42.4844326" lon="14.1325011"><ele>125.0</ele><time>2026-05-01T15:20:48.257Z</time></trkpt><trkpt lat="42.4845594" lon="14.1324451"><ele>125.0</ele><time>2026-05-01T15:20:49.26Z</time></trkpt><trkpt lat="42.4846843" lon="14.1323847"><ele>125.0</ele><time>2026-05-01T15:20:50.263Z</time></trkpt><trkpt lat="42.4848063" lon="14.1323288"><ele>125.0</ele><time>2026-05-01T15:20:51.265Z</time></trkpt><trkpt lat="42.4849244" lon="14.1322929"><ele>123.75</ele><time>2026-05-01T15:20:52.256Z</time></trkpt><trkpt lat="42.4850492" lon="14.1322895"><ele>122.5</ele><time>2026-05-01T15:20:53.261Z</time></trkpt><trkpt lat="42.4851742" lon="14.1323266"><ele>121.25</ele><time>2026-05-01T15:20:54.266Z</time></trkpt><trkpt lat="42.4852977" lon="14.132404"><ele>120.0</ele><time>2026-05-01T15:20:55.263Z</time></trkpt><trkpt lat="42.485407" lon="14.132504"><ele>119.5</ele><time>2026-05-01T15:20:56.26Z</time></trkpt><trkpt lat="42.4855083" lon="14.1326269"><ele>119.0</ele><time>2026-05-01T15:20:57.256Z</time></trkpt><trkpt lat="42.4856079" lon="14.1327558"><ele>118.5</ele><time>2026-05-01T15:20:58.263Z</time></trkpt><trkpt lat="42.4857104" lon="14.1328819"><ele>118.0</ele><time>2026-05-01T15:20:59.272Z</time></trkpt><trkpt lat="42.4858145" lon="14.1330053"><ele>118.0</ele><time>2026-05-01T15:21:00.263Z</time></trkpt><trkpt lat="42.48592" lon="14.1331286"><ele>118.0</ele><time>2026-05-01T15:21:01.274Z</time></trkpt><trkpt lat="42.4860274" lon="14.1332495"><ele>118.0</ele><time>2026-05-01T15:21:02.266Z</time></trkpt><trkpt lat="42.4861294" lon="14.1333683"><ele>118.0</ele><time>2026-05-01T15:21:03.264Z</time></trkpt><trkpt lat="42.4862204" lon="14.1334759"><ele>118.2</ele><time>2026-05-01T15:21:04.265Z</time></trkpt><trkpt lat="42.4863066" lon="14.1335826"><ele>118.4</ele><time>2026-05-01T15:21:05.262Z</time></trkpt><trkpt lat="42.4863926" lon="14.1336846"><ele>118.60000000000001</ele><time>2026-05-01T15:21:06.27Z</time></trkpt><trkpt lat="42.4864714" lon="14.1337774"><ele>118.80000000000001</ele><time>2026-05-01T15:21:07.265Z</time></trkpt><trkpt lat="42.4865452" lon="14.1338705"><ele>119.0</ele><time>2026-05-01T15:21:08.263Z</time></trkpt><trkpt lat="42.4866087" lon="14.1339778"><ele>118.5</ele><time>2026-05-01T15:21:09.268Z</time></trkpt><trkpt lat="42.486653" lon="14.1341025"><ele>118.0</ele><time>2026-05-01T15:21:10.274Z</time></trkpt><trkpt lat="42.4866826" lon="14.1342475"><ele>117.5</ele><time>2026-05-01T15:21:11.277Z</time></trkpt><trkpt lat="42.4867018" lon="14.1344097"><ele>117.0</ele><time>2026-05-01T15:21:12.268Z</time></trkpt><trkpt lat="42.4867264" lon="14.1345825"><ele>117.0</ele><time>2026-05-01T15:21:13.261Z</time></trkpt><trkpt lat="42.4867571" lon="14.1347645"><ele>117.0</ele><time>2026-05-01T15:21:14.262Z</time></trkpt><trkpt lat="42.4867894" lon="14.1349514"><ele>117.0</ele><time>2026-05-01T15:21:15.263Z</time></trkpt><trkpt lat="42.4868236" lon="14.1351416"><ele>117.0</ele><time>2026-05-01T15:21:16.254Z</time></trkpt><trkpt lat="42.4868524" lon="14.1353375"><ele>117.0</ele><time>2026-05-01T15:21:17.259Z</time></trkpt><trkpt lat="42.4868933" lon="14.1355332"><ele>117.0</ele><time>2026-05-01T15:21:18.252Z</time></trkpt><trkpt lat="42.4869408" lon="14.1357364"><ele>117.0</ele><time>2026-05-01T15:21:19.275Z</time></trkpt><trkpt lat="42.4869966" lon="14.1359302"><ele>116.66666666666666</ele><time>2026-05-01T15:21:20.261Z</time></trkpt><trkpt lat="42.4870658" lon="14.136119"><ele>116.33333333333333</ele><time>2026-05-01T15:21:21.263Z</time></trkpt><trkpt lat="42.487143" lon="14.1363067"><ele>116.0</ele><time>2026-05-01T15:21:22.256Z</time></trkpt><trkpt lat="42.4872251" lon="14.1364946"><ele>118.66666666666666</ele><time>2026-05-01T15:21:23.244Z</time></trkpt><trkpt lat="42.4873023" lon="14.1366853"><ele>121.33333333333334</ele><time>2026-05-01T15:21:24.242Z</time></trkpt><trkpt lat="42.4873724" lon="14.1368737"><ele>124.0</ele><time>2026-05-01T15:21:25.26Z</time></trkpt><trkpt lat="42.487435" lon="14.1370609"><ele>124.0</ele><time>2026-05-01T15:21:26.274Z</time></trkpt><trkpt lat="42.487494" lon="14.1372396"><ele>124.0</ele><time>2026-05-01T15:21:27.267Z</time></trkpt><trkpt lat="42.4875509" lon="14.1374076"><ele>124.0</ele><time>2026-05-01T15:21:28.266Z</time></trkpt><trkpt lat="42.487599" lon="14.1375706"><ele>124.0</ele><time>2026-05-01T15:21:29.261Z</time></trkpt><trkpt lat="42.4876324" lon="14.1377385"><ele>124.0</ele><time>2026-05-01T15:21:30.254Z</time></trkpt><trkpt lat="42.4876467" lon="14.1379159"><ele>124.0</ele><time>2026-05-01T15:21:31.244Z</time></trkpt><trkpt lat="42.4876366" lon="14.1381007"><ele>124.0</ele><time>2026-05-01T15:21:32.232Z</time></trkpt><trkpt lat="42.4876223" lon="14.1382894"><ele>124.0</ele><time>2026-05-01T15:21:33.256Z</time></trkpt><trkpt lat="42.4876215" lon="14.1384732"><ele>124.25</ele><time>2026-05-01T15:21:34.24Z</time></trkpt><trkpt lat="42.4876422" lon="14.1386478"><ele>124.5</ele><time>2026-05-01T15:21:35.266Z</time></trkpt><trkpt lat="42.4876922" lon="14.1388052"><ele>124.75</ele><time>2026-05-01T15:21:36.252Z</time></trkpt><trkpt lat="42.4877632" lon="14.1389552"><ele>125.0</ele><time>2026-05-01T15:21:37.26Z</time></trkpt><trkpt lat="42.4878554" lon="14.1390804"><ele>127.25</ele><time>2026-05-01T15:21:38.267Z</time></trkpt><trkpt lat="42.4879574" lon="14.1391939"><ele>129.5</ele><time>2026-05-01T15:21:39.267Z</time></trkpt><trkpt lat="42.4880727" lon="14.1392859"><ele>131.75</ele><time>2026-05-01T15:21:40.26Z</time></trkpt><trkpt lat="42.4881999" lon="14.1393358"><ele>134.0</ele><time>2026-05-01T15:21:41.26Z</time></trkpt><trkpt lat="42.4883328" lon="14.1393584"><ele>134.0</ele><time>2026-05-01T15:21:42.261Z</time></trkpt><trkpt lat="42.48846" lon="14.1393676"><ele>134.0</ele><time>2026-05-01T15:21:43.262Z</time></trkpt><trkpt lat="42.4885871" lon="14.1393705"><ele>134.0</ele><time>2026-05-01T15:21:44.255Z</time></trkpt><trkpt lat="42.4887114" lon="14.1393796"><ele>134.0</ele><time>2026-05-01T15:21:45.275Z</time></trkpt><trkpt lat="42.4888273" lon="14.1393895"><ele>134.5</ele><time>2026-05-01T15:21:46.276Z</time></trkpt><trkpt lat="42.4889287" lon="14.1394139"><ele>135.0</ele><time>2026-05-01T15:21:47.261Z</time></trkpt><trkpt lat="42.4890209" lon="14.1394501"><ele>135.5</ele><time>2026-05-01T15:21:48.257Z</time></trkpt><trkpt lat="42.4890904" lon="14.1395107"><ele>136.0</ele><time>2026-05-01T15:21:49.265Z</time></trkpt><trkpt lat="42.48915" lon="14.1395654"><ele>136.5</ele><time>2026-05-01T15:21:50.255Z</time></trkpt><trkpt lat="42.4892116" lon="14.1396086"><ele>137.0</ele><time>2026-05-01T15:21:51.247Z</time></trkpt><trkpt lat="42.4892831" lon="14.1396242"><ele>137.0</ele><time>2026-05-01T15:21:52.277Z</time></trkpt><trkpt lat="42.4893616" lon="14.1395907"><ele>137.0</ele><time>2026-05-01T15:21:53.238Z</time></trkpt><trkpt lat="42.4894291" lon="14.1395263"><ele>137.0</ele><time>2026-05-01T15:21:54.24Z</time></trkpt><trkpt lat="42.4895064" lon="14.1394774"><ele>137.0</ele><time>2026-05-01T15:21:55.241Z</time></trkpt><trkpt lat="42.4895948" lon="14.13946"><ele>137.0</ele><time>2026-05-01T15:21:56.251Z</time></trkpt><trkpt lat="42.4896972" lon="14.1394554"><ele>137.0</ele><time>2026-05-01T15:21:57.255Z</time></trkpt><trkpt lat="42.4897969" lon="14.139456"><ele>137.79999999999998</ele><time>2026-05-01T15:21:58.231Z</time></trkpt><trkpt lat="42.4899016" lon="14.1394549"><ele>138.6</ele><time>2026-05-01T15:21:59.246Z</time></trkpt><trkpt lat="42.4900104" lon="14.139456"><ele>139.39999999999998</ele><time>2026-05-01T15:22:00.228Z</time></trkpt><trkpt lat="42.4901019" lon="14.139457"><ele>140.2</ele><time>2026-05-01T15:22:01.242Z</time></trkpt><trkpt lat="42.4901764" lon="14.1394598"><ele>141.0</ele><time>2026-05-01T15:22:02.28Z</time></trkpt><trkpt lat="42.4902447" lon="14.1394812"><ele>141.0</ele><time>2026-05-01T15:22:03.236Z</time></trkpt><trkpt lat="42.4903195" lon="14.1394996"><ele>141.0</ele><time>2026-05-01T15:22:04.244Z</time></trkpt><trkpt lat="42.4904036" lon="14.1395125"><ele>141.0</ele><time>2026-05-01T15:22:05.237Z</time></trkpt><trkpt lat="42.4905007" lon="14.1395263"><ele>141.0</ele><time>2026-05-01T15:22:06.244Z</time></trkpt><trkpt lat="42.4906049" lon="14.1395404"><ele>141.0</ele><time>2026-05-01T15:22:07.265Z</time></trkpt><trkpt lat="42.4907002" lon="14.1395653"><ele>142.66666666666666</ele><time>2026-05-01T15:22:08.267Z</time></trkpt><trkpt lat="42.4907767" lon="14.1396034"><ele>144.33333333333334</ele><time>2026-05-01T15:22:09.278Z</time></trkpt><trkpt lat="42.4908258" lon="14.1396589"><ele>146.0</ele><time>2026-05-01T15:22:10.254Z</time></trkpt><trkpt lat="42.4908507" lon="14.1397416"><ele>147.66666666666669</ele><time>2026-05-01T15:22:11.278Z</time></trkpt><trkpt lat="42.4908625" lon="14.1398306"><ele>149.33333333333334</ele><time>2026-05-01T15:22:12.259Z</time></trkpt><trkpt lat="42.4908664" lon="14.1399565"><ele>151.0</ele><time>2026-05-01T15:22:13.267Z</time></trkpt><trkpt lat="42.4908702" lon="14.1400868"><ele>151.8</ele><time>2026-05-01T15:22:14.248Z</time></trkpt><trkpt lat="42.4908678" lon="14.1402228"><ele>152.6</ele><time>2026-05-01T15:22:15.265Z</time></trkpt><trkpt lat="42.4908715" lon="14.1403685"><ele>153.4</ele><time>2026-05-01T15:22:16.257Z</time></trkpt><trkpt lat="42.4908667" lon="14.1405103"><ele>154.2</ele><time>2026-05-01T15:22:17.257Z</time></trkpt><trkpt lat="42.4908748" lon="14.1406451"><ele>155.0</ele><time>2026-05-01T15:22:18.255Z</time></trkpt><trkpt lat="42.4909006" lon="14.140764"><ele>155.0</ele><time>2026-05-01T15:22:19.261Z</time></trkpt><trkpt lat="42.4909469" lon="14.1408525"><ele>155.0</ele><time>2026-05-01T15:22:20.257Z</time></trkpt><trkpt lat="42.4910144" lon="14.1408883"><ele>155.0</ele><time>2026-05-01T15:22:21.254Z</time></trkpt><trkpt lat="42.4910824" lon="14.1408476"><ele>155.0</ele><time>2026-05-01T15:22:22.249Z</time></trkpt><trkpt lat="42.4911373" lon="14.1407858"><ele>155.0</ele><time>2026-05-01T15:22:23.271Z</time></trkpt><trkpt lat="42.4911824" lon="14.1407196"><ele>155.0</ele><time>2026-05-01T15:22:24.253Z</time></trkpt><trkpt lat="42.4912524" lon="14.1406167"><ele>156.0</ele><time>2026-05-01T15:22:26.236Z</time></trkpt><trkpt lat="42.4912967" lon="14.1405427"><ele>157.0</ele><time>2026-05-01T15:22:28.238Z</time></trkpt><trkpt lat="42.4913519" lon="14.1404307"><ele>158.0</ele><time>2026-05-01T15:22:30.265Z</time></trkpt><trkpt lat="42.4914072" lon="14.1403472"><ele>159.0</ele><time>2026-05-01T15:22:32.239Z</time></trkpt><trkpt lat="42.4914788" lon="14.1403418"><ele>160.0</ele><time>2026-05-01T15:22:34.248Z</time></trkpt><trkpt lat="42.4915825" lon="14.1404366"><ele>161.0</ele><time>2026-05-01T15:22:36.236Z</time></trkpt><trkpt lat="42.4916217" lon="14.1405351"><ele>161.0</ele><time>2026-05-01T15:22:37.24Z</time></trkpt><trkpt lat="42.4916586" lon="14.1406549"><ele>161.0</ele><time>2026-05-01T15:22:38.236Z</time></trkpt><trkpt lat="42.4916863" lon="14.1407974"><ele>161.0</ele><time>2026-05-01T15:22:39.252Z</time></trkpt><trkpt lat="42.4917138" lon="14.1409384"><ele>161.0</ele><time>2026-05-01T15:22:40.265Z</time></trkpt><trkpt lat="42.4917463" lon="14.141079"><ele>161.0</ele><time>2026-05-01T15:22:41.248Z</time></trkpt><trkpt lat="42.4917672" lon="14.1412151"><ele>161.0</ele><time>2026-05-01T15:22:42.267Z</time></trkpt><trkpt lat="42.4917729" lon="14.1413512"><ele>161.0</ele><time>2026-05-01T15:22:43.256Z</time></trkpt><trkpt lat="42.4917678" lon="14.1415134"><ele>161.0</ele><time>2026-05-01T15:22:44.262Z</time></trkpt><trkpt lat="42.49174" lon="14.1416729"><ele>161.0</ele><time>2026-05-01T15:22:45.246Z</time></trkpt><trkpt lat="42.4916919" lon="14.1418212"><ele>161.0</ele><time>2026-05-01T15:22:46.254Z</time></trkpt><trkpt lat="42.4916369" lon="14.141959"><ele>161.0</ele><time>2026-05-01T15:22:47.257Z</time></trkpt><trkpt lat="42.4915918" lon="14.1420938"><ele>161.0</ele><time>2026-05-01T15:22:48.254Z</time></trkpt><trkpt lat="42.4915818" lon="14.1422334"><ele>161.0</ele><time>2026-05-01T15:22:49.265Z</time></trkpt><trkpt lat="42.4916144" lon="14.14237"><ele>161.0</ele><time>2026-05-01T15:22:50.267Z</time></trkpt><trkpt lat="42.4916803" lon="14.1425059"><ele>160.20000000000002</ele><time>2026-05-01T15:22:51.264Z</time></trkpt><trkpt lat="42.4917478" lon="14.1426274"><ele>159.4</ele><time>2026-05-01T15:22:52.247Z</time></trkpt><trkpt lat="42.4917989" lon="14.14275"><ele>158.6</ele><time>2026-05-01T15:22:53.243Z</time></trkpt><trkpt lat="42.4918279" lon="14.142872"><ele>157.8</ele><time>2026-05-01T15:22:54.251Z</time></trkpt><trkpt lat="42.491822" lon="14.1429901"><ele>157.0</ele><time>2026-05-01T15:22:55.256Z</time></trkpt><trkpt lat="42.4917658" lon="14.1430933"><ele>157.0</ele><time>2026-05-01T15:22:56.249Z</time></trkpt><trkpt lat="42.4916746" lon="14.1431943"><ele>157.0</ele><time>2026-05-01T15:22:57.261Z</time></trkpt><trkpt lat="42.4915881" lon="14.1432998"><ele>157.0</ele><time>2026-05-01T15:22:58.262Z</time></trkpt><trkpt lat="42.4915479" lon="14.1434284"><ele>157.0</ele><time>2026-05-01T15:22:59.264Z</time></trkpt><trkpt lat="42.4915475" lon="14.1435806"><ele>157.0</ele><time>2026-05-01T15:23:00.253Z</time></trkpt><trkpt lat="42.4915922" lon="14.1437367"><ele>157.0</ele><time>2026-05-01T15:23:01.256Z</time></trkpt><trkpt lat="42.4916621" lon="14.1438879"><ele>157.0</ele><time>2026-05-01T15:23:02.254Z</time></trkpt><trkpt lat="42.4917439" lon="14.1440361"><ele>157.0</ele><time>2026-05-01T15:23:03.257Z</time></trkpt><trkpt lat="42.4918444" lon="14.1441574"><ele>157.0</ele><time>2026-05-01T15:23:04.248Z</time></trkpt><trkpt lat="42.491966" lon="14.1442475"><ele>150.75</ele><time>2026-05-01T15:23:05.255Z</time></trkpt><trkpt lat="42.4921072" lon="14.1442942"><ele>144.5</ele><time>2026-05-01T15:23:06.254Z</time></trkpt><trkpt lat="42.4922567" lon="14.1443354"><ele>138.25</ele><time>2026-05-01T15:23:07.259Z</time></trkpt><trkpt lat="42.4924002" lon="14.1443861"><ele>132.0</ele><time>2026-05-01T15:23:08.255Z</time></trkpt><trkpt lat="42.4925365" lon="14.14445"><ele>132.0</ele><time>2026-05-01T15:23:09.259Z</time></trkpt><trkpt lat="42.492659" lon="14.1445103"><ele>132.0</ele><time>2026-05-01T15:23:10.258Z</time></trkpt><trkpt lat="42.4927762" lon="14.1445684"><ele>132.0</ele><time>2026-05-01T15:23:11.252Z</time></trkpt><trkpt lat="42.4928869" lon="14.1446312"><ele>132.0</ele><time>2026-05-01T15:23:12.257Z</time></trkpt><trkpt lat="42.4929847" lon="14.1447239"><ele>133.25</ele><time>2026-05-01T15:23:13.252Z</time></trkpt><trkpt lat="42.4930623" lon="14.1448618"><ele>134.5</ele><time>2026-05-01T15:23:14.243Z</time></trkpt><trkpt lat="42.4931463" lon="14.145024"><ele>135.75</ele><time>2026-05-01T15:23:15.264Z</time></trkpt><trkpt lat="42.4932365" lon="14.1451647"><ele>137.0</ele><time>2026-05-01T15:23:16.256Z</time></trkpt><trkpt lat="42.4933404" lon="14.1452709"><ele>137.0</ele><time>2026-05-01T15:23:17.26Z</time></trkpt><trkpt lat="42.49345" lon="14.1453299"><ele>137.0</ele><time>2026-05-01T15:23:18.248Z</time></trkpt><trkpt lat="42.4935689" lon="14.1453355"><ele>137.0</ele><time>2026-05-01T15:23:19.243Z</time></trkpt><trkpt lat="42.4936833" lon="14.1452889"><ele>137.0</ele><time>2026-05-01T15:23:20.238Z</time></trkpt><trkpt lat="42.4937893" lon="14.1452017"><ele>135.5</ele><time>2026-05-01T15:23:21.246Z</time></trkpt><trkpt lat="42.4938756" lon="14.1450965"><ele>134.0</ele><time>2026-05-01T15:23:22.243Z</time></trkpt><trkpt lat="42.4939362" lon="14.1449706"><ele>132.5</ele><time>2026-05-01T15:23:23.256Z</time></trkpt><trkpt lat="42.4939776" lon="14.144809"><ele>131.0</ele><time>2026-05-01T15:23:24.246Z</time></trkpt><trkpt lat="42.4940062" lon="14.1446301"><ele>127.75</ele><time>2026-05-01T15:23:25.249Z</time></trkpt><trkpt lat="42.4940369" lon="14.1444422"><ele>124.5</ele><time>2026-05-01T15:23:26.266Z</time></trkpt><trkpt lat="42.4940736" lon="14.1442631"><ele>121.25</ele><time>2026-05-01T15:23:27.253Z</time></trkpt><trkpt lat="42.4941225" lon="14.1441066"><ele>118.0</ele><time>2026-05-01T15:23:28.237Z</time></trkpt><trkpt lat="42.4941961" lon="14.1439812"><ele>114.5</ele><time>2026-05-01T15:23:29.246Z</time></trkpt><trkpt lat="42.494303" lon="14.1438935"><ele>111.0</ele><time>2026-05-01T15:23:30.251Z</time></trkpt><trkpt lat="42.4944277" lon="14.1438339"><ele>107.5</ele><time>2026-05-01T15:23:31.255Z</time></trkpt><trkpt lat="42.4945639" lon="14.1438098"><ele>104.0</ele><time>2026-05-01T15:23:32.26Z</time></trkpt><trkpt lat="42.4947019" lon="14.1438206"><ele>104.0</ele><time>2026-05-01T15:23:33.252Z</time></trkpt><trkpt lat="42.4948461" lon="14.1438527"><ele>104.0</ele><time>2026-05-01T15:23:34.264Z</time></trkpt><trkpt lat="42.4949883" lon="14.1438636"><ele>104.0</ele><time>2026-05-01T15:23:35.257Z</time></trkpt><trkpt lat="42.4951343" lon="14.1438467"><ele>104.0</ele><time>2026-05-01T15:23:36.253Z</time></trkpt><trkpt lat="42.4952877" lon="14.1438063"><ele>105.75</ele><time>2026-05-01T15:23:37.251Z</time></trkpt><trkpt lat="42.4954325" lon="14.1437554"><ele>107.5</ele><time>2026-05-01T15:23:38.26Z</time></trkpt><trkpt lat="42.495572" lon="14.1436949"><ele>109.25</ele><time>2026-05-01T15:23:39.239Z</time></trkpt><trkpt lat="42.4957038" lon="14.1436087"><ele>111.0</ele><time>2026-05-01T15:23:40.246Z</time></trkpt><trkpt lat="42.4958334" lon="14.1434957"><ele>111.0</ele><time>2026-05-01T15:23:41.261Z</time></trkpt><trkpt lat="42.4959568" lon="14.1433634"><ele>111.0</ele><time>2026-05-01T15:23:42.256Z</time></trkpt><trkpt lat="42.4960836" lon="14.1432343"><ele>111.0</ele><time>2026-05-01T15:23:43.253Z</time></trkpt><trkpt lat="42.496219" lon="14.143114"><ele>107.33333333333334</ele><time>2026-05-01T15:23:44.253Z</time></trkpt><trkpt lat="42.4963565" lon="14.1429969"><ele>103.66666666666667</ele><time>2026-05-01T15:23:45.239Z</time></trkpt><trkpt lat="42.4964981" lon="14.1428834"><ele>100.0</ele><time>2026-05-01T15:23:46.242Z</time></trkpt><trkpt lat="42.4966414" lon="14.1427662"><ele>100.0</ele><time>2026-05-01T15:23:47.277Z</time></trkpt><trkpt lat="42.4967725" lon="14.1426446"><ele>100.0</ele><time>2026-05-01T15:23:48.259Z</time></trkpt><trkpt lat="42.4968955" lon="14.1425199"><ele>100.0</ele><time>2026-05-01T15:23:49.255Z</time></trkpt><trkpt lat="42.4970105" lon="14.1423915"><ele>96.25</ele><time>2026-05-01T15:23:50.26Z</time></trkpt><trkpt lat="42.4971181" lon="14.142266"><ele>92.5</ele><time>2026-05-01T15:23:51.273Z</time></trkpt><trkpt lat="42.4972195" lon="14.1421454"><ele>88.75</ele><time>2026-05-01T15:23:52.278Z</time></trkpt><trkpt lat="42.4973063" lon="14.1420412"><ele>85.0</ele><time>2026-05-01T15:23:53.256Z</time></trkpt><trkpt lat="42.4973802" lon="14.1419726"><ele>85.0</ele><time>2026-05-01T15:23:54.262Z</time></trkpt><trkpt lat="42.4974533" lon="14.1419519"><ele>85.0</ele><time>2026-05-01T15:23:55.254Z</time></trkpt><trkpt lat="42.4975303" lon="14.1419884"><ele>85.0</ele><time>2026-05-01T15:23:56.27Z</time></trkpt><trkpt lat="42.4975874" lon="14.1420819"><ele>85.0</ele><time>2026-05-01T15:23:57.273Z</time></trkpt><trkpt lat="42.4976038" lon="14.1421846"><ele>85.0</ele><time>2026-05-01T15:23:58.253Z</time></trkpt><trkpt lat="42.497573" lon="14.1422885"><ele>85.0</ele><time>2026-05-01T15:23:59.256Z</time></trkpt><trkpt lat="42.497508" lon="14.1423899"><ele>85.25</ele><time>2026-05-01T15:24:00.258Z</time></trkpt><trkpt lat="42.4974295" lon="14.1425066"><ele>85.5</ele><time>2026-05-01T15:24:01.263Z</time></trkpt><trkpt lat="42.4973544" lon="14.1426539"><ele>85.75</ele><time>2026-05-01T15:24:02.248Z</time></trkpt><trkpt lat="42.4972728" lon="14.1428073"><ele>86.0</ele><time>2026-05-01T15:24:03.26Z</time></trkpt><trkpt lat="42.4971868" lon="14.1429591"><ele>86.0</ele><time>2026-05-01T15:24:04.25Z</time></trkpt><trkpt lat="42.4970981" lon="14.1431147"><ele>86.0</ele><time>2026-05-01T15:24:05.265Z</time></trkpt><trkpt lat="42.4970072" lon="14.1432713"><ele>86.0</ele><time>2026-05-01T15:24:06.246Z</time></trkpt><trkpt lat="42.4969112" lon="14.1434295"><ele>86.0</ele><time>2026-05-01T15:24:07.255Z</time></trkpt><trkpt lat="42.4968172" lon="14.1435875"><ele>85.0</ele><time>2026-05-01T15:24:08.251Z</time></trkpt><trkpt lat="42.4967205" lon="14.1437349"><ele>84.0</ele><time>2026-05-01T15:24:09.261Z</time></trkpt><trkpt lat="42.4966249" lon="14.1438695"><ele>83.0</ele><time>2026-05-01T15:24:10.259Z</time></trkpt><trkpt lat="42.4965358" lon="14.1439975"><ele>82.0</ele><time>2026-05-01T15:24:11.261Z</time></trkpt><trkpt lat="42.4964645" lon="14.1441351"><ele>82.0</ele><time>2026-05-01T15:24:12.279Z</time></trkpt><trkpt lat="42.4964226" lon="14.1442998"><ele>82.0</ele><time>2026-05-01T15:24:13.254Z</time></trkpt><trkpt lat="42.4964051" lon="14.1444779"><ele>82.0</ele><time>2026-05-01T15:24:14.26Z</time></trkpt><trkpt lat="42.4964141" lon="14.1446681"><ele>82.0</ele><time>2026-05-01T15:24:15.258Z</time></trkpt><trkpt lat="42.4964277" lon="14.1448521"><ele>84.5</ele><time>2026-05-01T15:24:16.262Z</time></trkpt><trkpt lat="42.496401" lon="14.1450133"><ele>87.0</ele><time>2026-05-01T15:24:17.256Z</time></trkpt><trkpt lat="42.4963476" lon="14.1451702"><ele>89.5</ele><time>2026-05-01T15:24:18.255Z</time></trkpt><trkpt lat="42.4962748" lon="14.1453097"><ele>92.0</ele><time>2026-05-01T15:24:19.252Z</time></trkpt><trkpt lat="42.496195" lon="14.145433"><ele>92.0</ele><time>2026-05-01T15:24:20.256Z</time></trkpt><trkpt lat="42.496142" lon="14.1455539"><ele>92.0</ele><time>2026-05-01T15:24:21.258Z</time></trkpt><trkpt lat="42.4961385" lon="14.1456915"><ele>92.0</ele><time>2026-05-01T15:24:22.253Z</time></trkpt><trkpt lat="42.4961666" lon="14.1458238"><ele>92.0</ele><time>2026-05-01T15:24:23.252Z</time></trkpt><trkpt lat="42.4962291" lon="14.1459361"><ele>92.0</ele><time>2026-05-01T15:24:24.246Z</time></trkpt><trkpt lat="42.4963172" lon="14.1460145"><ele>87.0</ele><time>2026-05-01T15:24:25.249Z</time></trkpt><trkpt lat="42.4964185" lon="14.1460609"><ele>82.0</ele><time>2026-05-01T15:24:26.262Z</time></trkpt><trkpt lat="42.4965235" lon="14.146035"><ele>77.0</ele><time>2026-05-01T15:24:27.244Z</time></trkpt><trkpt lat="42.4966165" lon="14.1459382"><ele>72.0</ele><time>2026-05-01T15:24:28.246Z</time></trkpt><trkpt lat="42.4966955" lon="14.1458014"><ele>71.5</ele><time>2026-05-01T15:24:29.251Z</time></trkpt><trkpt lat="42.4967412" lon="14.1456404"><ele>71.0</ele><time>2026-05-01T15:24:30.258Z</time></trkpt><trkpt lat="42.4967374" lon="14.145449"><ele>70.5</ele><time>2026-05-01T15:24:31.255Z</time></trkpt><trkpt lat="42.4967461" lon="14.1452656"><ele>70.0</ele><time>2026-05-01T15:24:32.245Z</time></trkpt><trkpt lat="42.4967918" lon="14.1450856"><ele>70.0</ele><time>2026-05-01T15:24:33.256Z</time></trkpt><trkpt lat="42.4968645" lon="14.1449255"><ele>70.0</ele><time>2026-05-01T15:24:34.27Z</time></trkpt><trkpt lat="42.4969511" lon="14.1447861"><ele>70.0</ele><time>2026-05-01T15:24:35.248Z</time></trkpt><trkpt lat="42.4970475" lon="14.1446615"><ele>70.0</ele><time>2026-05-01T15:24:36.266Z</time></trkpt><trkpt lat="42.4971609" lon="14.1445585"><ele>67.5</ele><time>2026-05-01T15:24:37.256Z</time></trkpt><trkpt lat="42.4972897" lon="14.1444755"><ele>65.0</ele><time>2026-05-01T15:24:38.266Z</time></trkpt><trkpt lat="42.497421" lon="14.1443955"><ele>62.5</ele><time>2026-05-01T15:24:39.253Z</time></trkpt><trkpt lat="42.4975434" lon="14.1442959"><ele>60.0</ele><time>2026-05-01T15:24:40.247Z</time></trkpt><trkpt lat="42.497656" lon="14.1441676"><ele>57.0</ele><time>2026-05-01T15:24:41.265Z</time></trkpt><trkpt lat="42.4977626" lon="14.1440168"><ele>54.0</ele><time>2026-05-01T15:24:42.267Z</time></trkpt><trkpt lat="42.4978681" lon="14.1438634"><ele>51.0</ele><time>2026-05-01T15:24:43.273Z</time></trkpt><trkpt lat="42.4979748" lon="14.1437076"><ele>51.0</ele><time>2026-05-01T15:24:44.256Z</time></trkpt><trkpt lat="42.4980788" lon="14.1435576"><ele>51.0</ele><time>2026-05-01T15:24:45.257Z</time></trkpt><trkpt lat="42.4981733" lon="14.1434111"><ele>51.0</ele><time>2026-05-01T15:24:46.25Z</time></trkpt><trkpt lat="42.4982566" lon="14.143265"><ele>51.0</ele><time>2026-05-01T15:24:47.238Z</time></trkpt><trkpt lat="42.4983384" lon="14.1431228"><ele>53.599999999999994</ele><time>2026-05-01T15:24:48.239Z</time></trkpt><trkpt lat="42.498416" lon="14.1429947"><ele>56.2</ele><time>2026-05-01T15:24:49.245Z</time></trkpt><trkpt lat="42.4984833" lon="14.1428844"><ele>58.800000000000004</ele><time>2026-05-01T15:24:50.245Z</time></trkpt><trkpt lat="42.4985452" lon="14.1427909"><ele>61.400000000000006</ele><time>2026-05-01T15:24:51.25Z</time></trkpt><trkpt lat="42.4985966" lon="14.1427305"><ele>64.0</ele><time>2026-05-01T15:24:52.243Z</time></trkpt><trkpt lat="42.4986766" lon="14.1426547"><ele>64.0</ele><time>2026-05-01T15:24:54.254Z</time></trkpt><trkpt lat="42.4987225" lon="14.1425841"><ele>64.0</ele><time>2026-05-01T15:24:55.258Z</time></trkpt><trkpt lat="42.4987697" lon="14.1424634"><ele>64.0</ele><time>2026-05-01T15:24:56.248Z</time></trkpt><trkpt lat="42.4988099" lon="14.1423063"><ele>64.0</ele><time>2026-05-01T15:24:57.26Z</time></trkpt><trkpt lat="42.4988659" lon="14.142153"><ele>64.0</ele><time>2026-05-01T15:24:58.249Z</time></trkpt><trkpt lat="42.4989333" lon="14.141994"><ele>61.0</ele><time>2026-05-01T15:24:59.265Z</time></trkpt><trkpt lat="42.4990027" lon="14.1418281"><ele>58.0</ele><time>2026-05-01T15:25:00.256Z</time></trkpt><trkpt lat="42.4990775" lon="14.1416757"><ele>55.0</ele><time>2026-05-01T15:25:01.261Z</time></trkpt><trkpt lat="42.499157" lon="14.1415347"><ele>52.0</ele><time>2026-05-01T15:25:02.259Z</time></trkpt><trkpt lat="42.4992463" lon="14.141405"><ele>52.0</ele><time>2026-05-01T15:25:03.273Z</time></trkpt><trkpt lat="42.4993415" lon="14.1412798"><ele>52.0</ele><time>2026-05-01T15:25:04.25Z</time></trkpt><trkpt lat="42.4994398" lon="14.1411631"><ele>52.0</ele><time>2026-05-01T15:25:05.248Z</time></trkpt><trkpt lat="42.4995383" lon="14.141059"><ele>52.0</ele><time>2026-05-01T15:25:06.254Z</time></trkpt><trkpt lat="42.4996357" lon="14.1409626"><ele>48.75</ele><time>2026-05-01T15:25:07.267Z</time></trkpt><trkpt lat="42.4997325" lon="14.1408636"><ele>45.5</ele><time>2026-05-01T15:25:08.26Z</time></trkpt><trkpt lat="42.4998312" lon="14.140756"><ele>42.25</ele><time>2026-05-01T15:25:09.289Z</time></trkpt><trkpt lat="42.4999225" lon="14.1406418"><ele>39.0</ele><time>2026-05-01T15:25:10.26Z</time></trkpt><trkpt lat="42.5000074" lon="14.1405201"><ele>39.0</ele><time>2026-05-01T15:25:11.257Z</time></trkpt><trkpt lat="42.5000878" lon="14.1403969"><ele>39.0</ele><time>2026-05-01T15:25:12.233Z</time></trkpt><trkpt lat="42.5001693" lon="14.1402714"><ele>39.0</ele><time>2026-05-01T15:25:13.265Z</time></trkpt><trkpt lat="42.5002466" lon="14.1401455"><ele>39.0</ele><time>2026-05-01T15:25:14.234Z</time></trkpt><trkpt lat="42.5003268" lon="14.1400185"><ele>39.0</ele><time>2026-05-01T15:25:15.272Z</time></trkpt><trkpt lat="42.500406" lon="14.1398975"><ele>39.0</ele><time>2026-05-01T15:25:16.27Z</time></trkpt><trkpt lat="42.5004861" lon="14.1397736"><ele>39.0</ele><time>2026-05-01T15:25:17.255Z</time></trkpt><trkpt lat="42.5005677" lon="14.1396414"><ele>39.0</ele><time>2026-05-01T15:25:18.26Z</time></trkpt><trkpt lat="42.5006449" lon="14.1395056"><ele>35.75</ele><time>2026-05-01T15:25:19.264Z</time></trkpt><trkpt lat="42.5007147" lon="14.1393718"><ele>32.5</ele><time>2026-05-01T15:25:20.256Z</time></trkpt><trkpt lat="42.5007831" lon="14.1392396"><ele>29.25</ele><time>2026-05-01T15:25:21.261Z</time></trkpt><trkpt lat="42.5008483" lon="14.1391002"><ele>26.0</ele><time>2026-05-01T15:25:22.249Z</time></trkpt><trkpt lat="42.5009154" lon="14.1389609"><ele>25.0</ele><time>2026-05-01T15:25:23.258Z</time></trkpt><trkpt lat="42.5009778" lon="14.1388274"><ele>24.0</ele><time>2026-05-01T15:25:24.259Z</time></trkpt><trkpt lat="42.5010352" lon="14.1387119"><ele>23.0</ele><time>2026-05-01T15:25:25.24Z</time></trkpt><trkpt lat="42.501077" lon="14.1386295"><ele>22.0</ele><time>2026-05-01T15:25:26.251Z</time></trkpt><trkpt lat="42.5011325" lon="14.1385169"><ele>21.0</ele><time>2026-05-01T15:25:28.237Z</time></trkpt><trkpt lat="42.5011717" lon="14.1384288"><ele>21.0</ele><time>2026-05-01T15:25:32.25Z</time></trkpt><trkpt lat="42.501219" lon="14.1383342"><ele>21.0</ele><time>2026-05-01T15:25:33.244Z</time></trkpt><trkpt lat="42.5012446" lon="14.138218"><ele>21.0</ele><time>2026-05-01T15:25:34.261Z</time></trkpt><trkpt lat="42.5012627" lon="14.138098"><ele>21.0</ele><time>2026-05-01T15:25:35.265Z</time></trkpt><trkpt lat="42.501285" lon="14.1379716"><ele>21.0</ele><time>2026-05-01T15:25:36.261Z</time></trkpt><trkpt lat="42.5013203" lon="14.1378375"><ele>19.75</ele><time>2026-05-01T15:25:37.265Z</time></trkpt><trkpt lat="42.50136" lon="14.1377011"><ele>18.5</ele><time>2026-05-01T15:25:38.249Z</time></trkpt><trkpt lat="42.5014042" lon="14.1375597"><ele>17.25</ele><time>2026-05-01T15:25:39.264Z</time></trkpt><trkpt lat="42.5014441" lon="14.1374065"><ele>16.0</ele><time>2026-05-01T15:25:40.274Z</time></trkpt><trkpt lat="42.5014871" lon="14.1372429"><ele>15.5</ele><time>2026-05-01T15:25:41.268Z</time></trkpt><trkpt lat="42.5015274" lon="14.1370705"><ele>15.0</ele><time>2026-05-01T15:25:42.237Z</time></trkpt><trkpt lat="42.5015694" lon="14.1368945"><ele>14.5</ele><time>2026-05-01T15:25:43.281Z</time></trkpt><trkpt lat="42.5016129" lon="14.1367276"><ele>14.0</ele><time>2026-05-01T15:25:44.255Z</time></trkpt><trkpt lat="42.5016517" lon="14.1365656"><ele>14.0</ele><time>2026-05-01T15:25:45.244Z</time></trkpt><trkpt lat="42.5016894" lon="14.1364125"><ele>14.0</ele><time>2026-05-01T15:25:46.235Z</time></trkpt><trkpt lat="42.5017254" lon="14.1362652"><ele>14.0</ele><time>2026-05-01T15:25:47.249Z</time></trkpt><trkpt lat="42.5017636" lon="14.1361249"><ele>14.0</ele><time>2026-05-01T15:25:48.263Z</time></trkpt><trkpt lat="42.5018046" lon="14.1359866"><ele>14.0</ele><time>2026-05-01T15:25:49.255Z</time></trkpt><trkpt lat="42.5018408" lon="14.135848"><ele>13.999999999999998</ele><time>2026-05-01T15:25:50.251Z</time></trkpt><trkpt lat="42.501875" lon="14.135712"><ele>13.999999999999998</ele><time>2026-05-01T15:25:51.259Z</time></trkpt><trkpt lat="42.5019059" lon="14.1355792"><ele>14.0</ele><time>2026-05-01T15:25:52.239Z</time></trkpt><trkpt lat="42.5019405" lon="14.1354515"><ele>14.0</ele><time>2026-05-01T15:25:53.239Z</time></trkpt><trkpt lat="42.5019769" lon="14.1353296"><ele>14.0</ele><time>2026-05-01T15:25:54.239Z</time></trkpt><trkpt lat="42.502013" lon="14.1352105"><ele>13.999999999999998</ele><time>2026-05-01T15:25:55.274Z</time></trkpt><trkpt lat="42.5020507" lon="14.1351045"><ele>13.999999999999998</ele><time>2026-05-01T15:25:56.245Z</time></trkpt><trkpt lat="42.5020862" lon="14.1350055"><ele>14.0</ele><time>2026-05-01T15:25:57.248Z</time></trkpt><trkpt lat="42.5021223" lon="14.1349211"><ele>14.0</ele><time>2026-05-01T15:25:58.234Z</time></trkpt><trkpt lat="42.5022061" lon="14.1348114"><ele>14.000000000000002</ele><time>2026-05-01T15:26:00.242Z</time></trkpt><trkpt lat="42.502292" lon="14.1347505"><ele>14.0</ele><time>2026-05-01T15:26:02.237Z</time></trkpt><trkpt lat="42.5024081" lon="14.1347327"><ele>14.0</ele><time>2026-05-01T15:26:04.247Z</time></trkpt><trkpt lat="42.5024734" lon="14.1347583"><ele>14.0</ele><time>2026-05-01T15:26:05.255Z</time></trkpt><trkpt lat="42.5025307" lon="14.1348066"><ele>14.000000000000002</ele><time>2026-05-01T15:26:06.241Z</time></trkpt><trkpt lat="42.5025921" lon="14.1348677"><ele>14.0</ele><time>2026-05-01T15:26:07.244Z</time></trkpt><trkpt lat="42.502656" lon="14.1349352"><ele>14.000000000000002</ele><time>2026-05-01T15:26:08.271Z</time></trkpt><trkpt lat="42.5027148" lon="14.134988"><ele>14.0</ele><time>2026-05-01T15:26:09.249Z</time></trkpt><trkpt lat="42.502772" lon="14.1350451"><ele>14.0</ele><time>2026-05-01T15:26:10.249Z</time></trkpt><trkpt lat="42.5028647" lon="14.1351412"><ele>14.0</ele><time>2026-05-01T15:26:12.265Z</time></trkpt><trkpt lat="42.5029282" lon="14.1352213"><ele>14.000000000000002</ele><time>2026-05-01T15:26:14.256Z</time></trkpt><trkpt lat="42.5029881" lon="14.1352819"><ele>14.0</ele><time>2026-05-01T15:26:16.24Z</time></trkpt><trkpt lat="42.5030639" lon="14.1352995"><ele>13.799999999999999</ele><time>2026-05-01T15:26:18.244Z</time></trkpt><trkpt lat="42.5031341" lon="14.1352056"><ele>13.599999999999998</ele><time>2026-05-01T15:26:20.268Z</time></trkpt><trkpt lat="42.5031857" lon="14.1350458"><ele>13.4</ele><time>2026-05-01T15:26:22.273Z</time></trkpt><trkpt lat="42.503215" lon="14.1349411"><ele>13.2</ele><time>2026-05-01T15:26:23.267Z</time></trkpt><trkpt lat="42.5032437" lon="14.1348459"><ele>13.0</ele><time>2026-05-01T15:26:24.253Z</time></trkpt><trkpt lat="42.5032743" lon="14.1347582"><ele>12.999999999999998</ele><time>2026-05-01T15:26:25.257Z</time></trkpt><trkpt lat="42.5032973" lon="14.1346555"><ele>13.0</ele><time>2026-05-01T15:26:26.25Z</time></trkpt><trkpt lat="42.5033203" lon="14.1345525"><ele>13.0</ele><time>2026-05-01T15:26:27.257Z</time></trkpt><trkpt lat="42.5033442" lon="14.1344398"><ele>13.0</ele><time>2026-05-01T15:26:28.268Z</time></trkpt><trkpt lat="42.5033684" lon="14.1343212"><ele>12.999999999999998</ele><time>2026-05-01T15:26:29.256Z</time></trkpt><trkpt lat="42.5033912" lon="14.1341977"><ele>13.0</ele><time>2026-05-01T15:26:30.259Z</time></trkpt><trkpt lat="42.5034167" lon="14.1340767"><ele>13.0</ele><time>2026-05-01T15:26:31.258Z</time></trkpt><trkpt lat="42.5034439" lon="14.1339531"><ele>13.0</ele><time>2026-05-01T15:26:32.258Z</time></trkpt><trkpt lat="42.503478" lon="14.1338473"><ele>13.0</ele><time>2026-05-01T15:26:33.256Z</time></trkpt><trkpt lat="42.5035291" lon="14.1337525"><ele>13.0</ele><time>2026-05-01T15:26:34.245Z</time></trkpt><trkpt lat="42.5035977" lon="14.1336624"><ele>13.0</ele><time>2026-05-01T15:26:35.269Z</time></trkpt><trkpt lat="42.5036813" lon="14.13356"><ele>13.0</ele><time>2026-05-01T15:26:36.25Z</time></trkpt><trkpt lat="42.503781" lon="14.1334681"><ele>13.0</ele><time>2026-05-01T15:26:37.256Z</time></trkpt><trkpt lat="42.5038797" lon="14.1333799"><ele>13.0</ele><time>2026-05-01T15:26:38.253Z</time></trkpt><trkpt lat="42.5039712" lon="14.1332909"><ele>13.0</ele><time>2026-05-01T15:26:39.263Z</time></trkpt><trkpt lat="42.5040652" lon="14.1332023"><ele>13.0</ele><time>2026-05-01T15:26:40.255Z</time></trkpt><trkpt lat="42.5041627" lon="14.1331107"><ele>13.0</ele><time>2026-05-01T15:26:41.256Z</time></trkpt><trkpt lat="42.5042626" lon="14.1330114"><ele>13.0</ele><time>2026-05-01T15:26:42.249Z</time></trkpt><trkpt lat="42.5043612" lon="14.132914"><ele>13.0</ele><time>2026-05-01T15:26:43.262Z</time></trkpt><trkpt lat="42.5044596" lon="14.1328276"><ele>13.0</ele><time>2026-05-01T15:26:44.264Z</time></trkpt><trkpt lat="42.5045573" lon="14.1327371"><ele>13.0</ele><time>2026-05-01T15:26:45.253Z</time></trkpt><trkpt lat="42.5046595" lon="14.1326424"><ele>13.0</ele><time>2026-05-01T15:26:46.264Z</time></trkpt><trkpt lat="42.5047551" lon="14.1325469"><ele>13.0</ele><time>2026-05-01T15:26:47.261Z</time></trkpt><trkpt lat="42.504856" lon="14.1324545"><ele>12.0</ele><time>2026-05-01T15:26:48.25Z</time></trkpt><trkpt lat="42.5049506" lon="14.1323695"><ele>11.0</ele><time>2026-05-01T15:26:49.256Z</time></trkpt><trkpt lat="42.5050484" lon="14.1322762"><ele>10.0</ele><time>2026-05-01T15:26:50.256Z</time></trkpt><trkpt lat="42.5051466" lon="14.132183"><ele>9.0</ele><time>2026-05-01T15:26:51.273Z</time></trkpt><trkpt lat="42.5052399" lon="14.1320957"><ele>9.0</ele><time>2026-05-01T15:26:52.263Z</time></trkpt><trkpt lat="42.5053408" lon="14.1320154"><ele>9.0</ele><time>2026-05-01T15:26:53.29Z</time></trkpt><trkpt lat="42.5054336" lon="14.1319322"><ele>9.0</ele><time>2026-05-01T15:26:54.253Z</time></trkpt><trkpt lat="42.5055204" lon="14.1318517"><ele>9.0</ele><time>2026-05-01T15:26:55.247Z</time></trkpt><trkpt lat="42.5056172" lon="14.131768"><ele>9.0</ele><time>2026-05-01T15:26:56.252Z</time></trkpt><trkpt lat="42.5057107" lon="14.1316828"><ele>9.0</ele><time>2026-05-01T15:26:57.26Z</time></trkpt><trkpt lat="42.5058055" lon="14.1315987"><ele>9.0</ele><time>2026-05-01T15:26:58.258Z</time></trkpt><trkpt lat="42.5058964" lon="14.1315111"><ele>9.0</ele><time>2026-05-01T15:26:59.255Z</time></trkpt><trkpt lat="42.5059879" lon="14.1314254"><ele>9.0</ele><time>2026-05-01T15:27:00.254Z</time></trkpt><trkpt lat="42.5060756" lon="14.1313476"><ele>9.0</ele><time>2026-05-01T15:27:01.259Z</time></trkpt><trkpt lat="42.5061648" lon="14.1312724"><ele>9.0</ele><time>2026-05-01T15:27:02.265Z</time></trkpt><trkpt lat="42.5062546" lon="14.1311953"><ele>9.0</ele><time>2026-05-01T15:27:03.259Z</time></trkpt><trkpt lat="42.5063421" lon="14.1311304"><ele>9.0</ele><time>2026-05-01T15:27:04.254Z</time></trkpt><trkpt lat="42.5064361" lon="14.1310706"><ele>9.0</ele><time>2026-05-01T15:27:05.241Z</time></trkpt><trkpt lat="42.50653" lon="14.1310162"><ele>9.0</ele><time>2026-05-01T15:27:06.248Z</time></trkpt><trkpt lat="42.5066272" lon="14.1309698"><ele>9.0</ele><time>2026-05-01T15:27:07.271Z</time></trkpt><trkpt lat="42.5067233" lon="14.1309243"><ele>9.0</ele><time>2026-05-01T15:27:08.255Z</time></trkpt><trkpt lat="42.5068216" lon="14.1308725"><ele>9.0</ele><time>2026-05-01T15:27:09.267Z</time></trkpt><trkpt lat="42.5069179" lon="14.130833"><ele>9.0</ele><time>2026-05-01T15:27:10.264Z</time></trkpt><trkpt lat="42.5070073" lon="14.1307926"><ele>9.0</ele><time>2026-05-01T15:27:11.253Z</time></trkpt><trkpt lat="42.5070988" lon="14.1307563"><ele>9.333333333333334</ele><time>2026-05-01T15:27:12.273Z</time></trkpt><trkpt lat="42.5071861" lon="14.1307253"><ele>9.666666666666666</ele><time>2026-05-01T15:27:13.247Z</time></trkpt><trkpt lat="42.507268" lon="14.1306985"><ele>10.0</ele><time>2026-05-01T15:27:14.263Z</time></trkpt><trkpt lat="42.5073393" lon="14.1306759"><ele>10.333333333333332</ele><time>2026-05-01T15:27:15.258Z</time></trkpt><trkpt lat="42.5074076" lon="14.1306564"><ele>10.666666666666666</ele><time>2026-05-01T15:27:16.252Z</time></trkpt><trkpt lat="42.5074733" lon="14.1306297"><ele>11.0</ele><time>2026-05-01T15:27:17.26Z</time></trkpt><trkpt lat="42.5075767" lon="14.1305833"><ele>11.166666666666666</ele><time>2026-05-01T15:27:19.252Z</time></trkpt><trkpt lat="42.5076735" lon="14.1305423"><ele>11.333333333333332</ele><time>2026-05-01T15:27:21.258Z</time></trkpt><trkpt lat="42.5077396" lon="14.1305155"><ele>11.5</ele><time>2026-05-01T15:27:22.256Z</time></trkpt><trkpt lat="42.5078104" lon="14.1304815"><ele>11.666666666666666</ele><time>2026-05-01T15:27:23.253Z</time></trkpt><trkpt lat="42.50788" lon="14.13044"><ele>11.833333333333334</ele><time>2026-05-01T15:27:24.258Z</time></trkpt><trkpt lat="42.5079521" lon="14.1303885"><ele>12.0</ele><time>2026-05-01T15:27:25.258Z</time></trkpt><trkpt lat="42.508029" lon="14.1303262"><ele>12.0</ele><time>2026-05-01T15:27:26.249Z</time></trkpt><trkpt lat="42.5081062" lon="14.1302662"><ele>12.0</ele><time>2026-05-01T15:27:27.258Z</time></trkpt><trkpt lat="42.5081886" lon="14.1302036"><ele>12.0</ele><time>2026-05-01T15:27:28.264Z</time></trkpt><trkpt lat="42.5082678" lon="14.1301373"><ele>12.0</ele><time>2026-05-01T15:27:29.258Z</time></trkpt><trkpt lat="42.508345" lon="14.1300691"><ele>12.0</ele><time>2026-05-01T15:27:30.253Z</time></trkpt><trkpt lat="42.5084184" lon="14.1300043"><ele>12.0</ele><time>2026-05-01T15:27:31.254Z</time></trkpt><trkpt lat="42.5084971" lon="14.1299385"><ele>12.0</ele><time>2026-05-01T15:27:32.251Z</time></trkpt><trkpt lat="42.5085732" lon="14.1298814"><ele>12.0</ele><time>2026-05-01T15:27:33.255Z</time></trkpt><trkpt lat="42.5086421" lon="14.1298294"><ele>12.0</ele><time>2026-05-01T15:27:34.254Z</time></trkpt><trkpt lat="42.508698" lon="14.1297862"><ele>12.0</ele><time>2026-05-01T15:27:35.262Z</time></trkpt><trkpt lat="42.5087695" lon="14.1297502"><ele>12.0</ele><time>2026-05-01T15:27:37.258Z</time></trkpt><trkpt lat="42.508866" lon="14.1297788"><ele>11.0</ele><time>2026-05-01T15:27:40.257Z</time></trkpt><trkpt lat="42.5089888" lon="14.1298198"><ele>10.0</ele><time>2026-05-01T15:27:42.26Z</time></trkpt><trkpt lat="42.5090551" lon="14.1298689"><ele>9.0</ele><time>2026-05-01T15:27:43.259Z</time></trkpt><trkpt lat="42.5091175" lon="14.1299339"><ele>8.0</ele><time>2026-05-01T15:27:44.267Z</time></trkpt><trkpt lat="42.5091845" lon="14.1300246"><ele>7.0</ele><time>2026-05-01T15:27:45.255Z</time></trkpt><trkpt lat="42.5092549" lon="14.1301268"><ele>7.0</ele><time>2026-05-01T15:27:46.255Z</time></trkpt><trkpt lat="42.5093279" lon="14.130233"><ele>7.0</ele><time>2026-05-01T15:27:47.257Z</time></trkpt><trkpt lat="42.5094025" lon="14.1303387"><ele>7.0</ele><time>2026-05-01T15:27:48.264Z</time></trkpt><trkpt lat="42.5094805" lon="14.1304523"><ele>7.0</ele><time>2026-05-01T15:27:49.272Z</time></trkpt><trkpt lat="42.5095625" lon="14.1305722"><ele>7.0</ele><time>2026-05-01T15:27:50.258Z</time></trkpt><trkpt lat="42.5096427" lon="14.130699"><ele>7.0</ele><time>2026-05-01T15:27:51.26Z</time></trkpt><trkpt lat="42.5097297" lon="14.1308292"><ele>7.0</ele><time>2026-05-01T15:27:52.257Z</time></trkpt><trkpt lat="42.509816" lon="14.1309634"><ele>7.0</ele><time>2026-05-01T15:27:53.266Z</time></trkpt><trkpt lat="42.5099014" lon="14.1310951"><ele>6.75</ele><time>2026-05-01T15:27:54.249Z</time></trkpt><trkpt lat="42.5099894" lon="14.1312346"><ele>6.5</ele><time>2026-05-01T15:27:55.263Z</time></trkpt><trkpt lat="42.5100816" lon="14.1313761"><ele>6.25</ele><time>2026-05-01T15:27:56.252Z</time></trkpt><trkpt lat="42.5101733" lon="14.1315256"><ele>6.0</ele><time>2026-05-01T15:27:57.272Z</time></trkpt><trkpt lat="42.5102595" lon="14.1316774"><ele>6.0</ele><time>2026-05-01T15:27:58.259Z</time></trkpt><trkpt lat="42.5103417" lon="14.1318324"><ele>6.0</ele><time>2026-05-01T15:27:59.261Z</time></trkpt><trkpt lat="42.5104276" lon="14.1319848"><ele>6.0</ele><time>2026-05-01T15:28:00.254Z</time></trkpt><trkpt lat="42.5105119" lon="14.1321374"><ele>6.0</ele><time>2026-05-01T15:28:01.273Z</time></trkpt><trkpt lat="42.5105937" lon="14.1322959"><ele>6.0</ele><time>2026-05-01T15:28:02.257Z</time></trkpt><trkpt lat="42.5106794" lon="14.132456"><ele>6.0</ele><time>2026-05-01T15:28:03.259Z</time></trkpt><trkpt lat="42.5107652" lon="14.132615"><ele>6.0</ele><time>2026-05-01T15:28:04.276Z</time></trkpt><trkpt lat="42.5108492" lon="14.1327755"><ele>6.0</ele><time>2026-05-01T15:28:05.262Z</time></trkpt><trkpt lat="42.510934" lon="14.1329337"><ele>6.0</ele><time>2026-05-01T15:28:06.26Z</time></trkpt><trkpt lat="42.5110182" lon="14.133087"><ele>6.0</ele><time>2026-05-01T15:28:07.257Z</time></trkpt><trkpt lat="42.5110956" lon="14.1332169"><ele>6.0</ele><time>2026-05-01T15:28:08.257Z</time></trkpt><trkpt lat="42.5111713" lon="14.1333323"><ele>6.0</ele><time>2026-05-01T15:28:09.259Z</time></trkpt><trkpt lat="42.511243" lon="14.1334547"><ele>5.75</ele><time>2026-05-01T15:28:10.26Z</time></trkpt><trkpt lat="42.5113166" lon="14.1335883"><ele>5.5</ele><time>2026-05-01T15:28:11.266Z</time></trkpt><trkpt lat="42.5113846" lon="14.1337246"><ele>5.25</ele><time>2026-05-01T15:28:12.241Z</time></trkpt><trkpt lat="42.5114519" lon="14.1338636"><ele>5.0</ele><time>2026-05-01T15:28:13.256Z</time></trkpt><trkpt lat="42.5115153" lon="14.1339994"><ele>5.0</ele><time>2026-05-01T15:28:14.256Z</time></trkpt><trkpt lat="42.5115785" lon="14.1341304"><ele>5.0</ele><time>2026-05-01T15:28:15.257Z</time></trkpt><trkpt lat="42.5116511" lon="14.1342519"><ele>5.0</ele><time>2026-05-01T15:28:16.26Z</time></trkpt><trkpt lat="42.5117344" lon="14.1343609"><ele>5.0</ele><time>2026-05-01T15:28:17.26Z</time></trkpt><trkpt lat="42.5118299" lon="14.13446"><ele>5.0</ele><time>2026-05-01T15:28:18.264Z</time></trkpt><trkpt lat="42.5119345" lon="14.1345466"><ele>5.0</ele><time>2026-05-01T15:28:19.257Z</time></trkpt><trkpt lat="42.5120431" lon="14.1346274"><ele>5.0</ele><time>2026-05-01T15:28:20.26Z</time></trkpt><trkpt lat="42.5121518" lon="14.1346998"><ele>5.0</ele><time>2026-05-01T15:28:21.26Z</time></trkpt><trkpt lat="42.5122647" lon="14.1347675"><ele>4.5</ele><time>2026-05-01T15:28:22.265Z</time></trkpt><trkpt lat="42.5123752" lon="14.1348427"><ele>4.0</ele><time>2026-05-01T15:28:23.26Z</time></trkpt><trkpt lat="42.5124881" lon="14.1349219"><ele>3.5</ele><time>2026-05-01T15:28:24.252Z</time></trkpt><trkpt lat="42.5126018" lon="14.1350019"><ele>3.0</ele><time>2026-05-01T15:28:25.259Z</time></trkpt><trkpt lat="42.5127128" lon="14.1350851"><ele>3.0</ele><time>2026-05-01T15:28:26.265Z</time></trkpt><trkpt lat="42.5128152" lon="14.1351768"><ele>3.0</ele><time>2026-05-01T15:28:27.258Z</time></trkpt><trkpt lat="42.5129095" lon="14.1352766"><ele>3.0</ele><time>2026-05-01T15:28:28.252Z</time></trkpt><trkpt lat="42.5129936" lon="14.1353883"><ele>3.0</ele><time>2026-05-01T15:28:29.264Z</time></trkpt><trkpt lat="42.5130695" lon="14.1355062"><ele>3.0</ele><time>2026-05-01T15:28:30.256Z</time></trkpt><trkpt lat="42.5131384" lon="14.1356351"><ele>3.0</ele><time>2026-05-01T15:28:31.258Z</time></trkpt><trkpt lat="42.5132003" lon="14.1357674"><ele>3.0</ele><time>2026-05-01T15:28:32.256Z</time></trkpt><trkpt lat="42.5132548" lon="14.1359039"><ele>3.0</ele><time>2026-05-01T15:28:33.262Z</time></trkpt><trkpt lat="42.5132999" lon="14.1360356"><ele>3.0</ele><time>2026-05-01T15:28:34.264Z</time></trkpt><trkpt lat="42.5133388" lon="14.1361666"><ele>3.0</ele><time>2026-05-01T15:28:35.264Z</time></trkpt><trkpt lat="42.513371" lon="14.1362992"><ele>3.0</ele><time>2026-05-01T15:28:36.254Z</time></trkpt><trkpt lat="42.5133996" lon="14.1364374"><ele>3.0</ele><time>2026-05-01T15:28:37.261Z</time></trkpt><trkpt lat="42.5134291" lon="14.1365699"><ele>3.0</ele><time>2026-05-01T15:28:38.257Z</time></trkpt><trkpt lat="42.51346" lon="14.1367011"><ele>3.2</ele><time>2026-05-01T15:28:39.258Z</time></trkpt><trkpt lat="42.5134996" lon="14.1368319"><ele>3.4</ele><time>2026-05-01T15:28:40.257Z</time></trkpt><trkpt lat="42.5135426" lon="14.1369495"><ele>3.6000000000000005</ele><time>2026-05-01T15:28:41.264Z</time></trkpt><trkpt lat="42.5135805" lon="14.1370471"><ele>3.8000000000000003</ele><time>2026-05-01T15:28:42.265Z</time></trkpt><trkpt lat="42.5136151" lon="14.1371337"><ele>4.0</ele><time>2026-05-01T15:28:43.253Z</time></trkpt><trkpt lat="42.5136639" lon="14.1372684"><ele>3.9999999999999996</ele><time>2026-05-01T15:28:45.267Z</time></trkpt><trkpt lat="42.5136936" lon="14.1373763"><ele>4.0</ele><time>2026-05-01T15:28:47.258Z</time></trkpt><trkpt lat="42.5137257" lon="14.1375025"><ele>4.0</ele><time>2026-05-01T15:28:49.264Z</time></trkpt><trkpt lat="42.5137406" lon="14.1375911"><ele>4.0</ele><time>2026-05-01T15:28:50.26Z</time></trkpt><trkpt lat="42.5137488" lon="14.1376875"><ele>3.9999999999999996</ele><time>2026-05-01T15:28:51.263Z</time></trkpt><trkpt lat="42.5137478" lon="14.1377777"><ele>4.0</ele><time>2026-05-01T15:28:52.255Z</time></trkpt><trkpt lat="42.5137066" lon="14.1379305"><ele>4.166666666666666</ele><time>2026-05-01T15:28:54.251Z</time></trkpt><trkpt lat="42.513664" lon="14.1380163"><ele>4.333333333333333</ele><time>2026-05-01T15:28:55.272Z</time></trkpt><trkpt lat="42.5136222" lon="14.1381162"><ele>4.5</ele><time>2026-05-01T15:28:56.263Z</time></trkpt><trkpt lat="42.5135852" lon="14.1382237"><ele>4.666666666666667</ele><time>2026-05-01T15:28:57.277Z</time></trkpt><trkpt lat="42.5135447" lon="14.1383396"><ele>4.833333333333334</ele><time>2026-05-01T15:28:58.262Z</time></trkpt><trkpt lat="42.5135011" lon="14.1384603"><ele>5.0</ele><time>2026-05-01T15:28:59.26Z</time></trkpt><trkpt lat="42.5134542" lon="14.1385819"><ele>5.0</ele><time>2026-05-01T15:29:00.255Z</time></trkpt><trkpt lat="42.5134034" lon="14.1387068"><ele>5.0</ele><time>2026-05-01T15:29:01.263Z</time></trkpt><trkpt lat="42.5133521" lon="14.1388297"><ele>5.0</ele><time>2026-05-01T15:29:02.263Z</time></trkpt><trkpt lat="42.5132994" lon="14.1389566"><ele>5.0</ele><time>2026-05-01T15:29:03.267Z</time></trkpt><trkpt lat="42.513246" lon="14.1390872"><ele>5.0</ele><time>2026-05-01T15:29:04.257Z</time></trkpt><trkpt lat="42.5131924" lon="14.1392214"><ele>5.5</ele><time>2026-05-01T15:29:05.27Z</time></trkpt><trkpt lat="42.5131389" lon="14.1393605"><ele>6.0</ele><time>2026-05-01T15:29:06.257Z</time></trkpt><trkpt lat="42.513085" lon="14.1395014"><ele>6.5</ele><time>2026-05-01T15:29:07.261Z</time></trkpt><trkpt lat="42.5130338" lon="14.1396462"><ele>7.0</ele><time>2026-05-01T15:29:08.257Z</time></trkpt><trkpt lat="42.5129785" lon="14.1397902"><ele>6.75</ele><time>2026-05-01T15:29:09.262Z</time></trkpt><trkpt lat="42.5129252" lon="14.139938"><ele>6.5</ele><time>2026-05-01T15:29:10.265Z</time></trkpt><trkpt lat="42.5128712" lon="14.1400885"><ele>6.25</ele><time>2026-05-01T15:29:11.26Z</time></trkpt><trkpt lat="42.512818" lon="14.1402371"><ele>6.0</ele><time>2026-05-01T15:29:12.263Z</time></trkpt><trkpt lat="42.5127685" lon="14.1403786"><ele>6.0</ele><time>2026-05-01T15:29:13.266Z</time></trkpt><trkpt lat="42.5127167" lon="14.1405151"><ele>6.0</ele><time>2026-05-01T15:29:14.254Z</time></trkpt><trkpt lat="42.5126611" lon="14.1406508"><ele>6.0</ele><time>2026-05-01T15:29:15.259Z</time></trkpt><trkpt lat="42.5126078" lon="14.140778"><ele>6.0</ele><time>2026-05-01T15:29:16.253Z</time></trkpt><trkpt lat="42.5125609" lon="14.1408993"><ele>6.0</ele><time>2026-05-01T15:29:17.258Z</time></trkpt><trkpt lat="42.5125146" lon="14.1410256"><ele>6.4</ele><time>2026-05-01T15:29:18.268Z</time></trkpt><trkpt lat="42.5124745" lon="14.1411406"><ele>6.8</ele><time>2026-05-01T15:29:19.261Z</time></trkpt><trkpt lat="42.5124459" lon="14.1412327"><ele>7.200000000000001</ele><time>2026-05-01T15:29:20.27Z</time></trkpt><trkpt lat="42.5124368" lon="14.1413835"><ele>7.6000000000000005</ele><time>2026-05-01T15:29:22.279Z</time></trkpt><trkpt lat="42.5125115" lon="14.1415021"><ele>8.0</ele><time>2026-05-01T15:29:24.256Z</time></trkpt><trkpt lat="42.5125708" lon="14.1415374"><ele>8.0</ele><time>2026-05-01T15:29:25.261Z</time></trkpt><trkpt lat="42.5127089" lon="14.1415198"><ele>8.0</ele><time>2026-05-01T15:29:27.254Z</time></trkpt><trkpt lat="42.5127851" lon="14.1414948"><ele>8.0</ele><time>2026-05-01T15:29:28.26Z</time></trkpt><trkpt lat="42.5128615" lon="14.1414774"><ele>8.0</ele><time>2026-05-01T15:29:29.253Z</time></trkpt><trkpt lat="42.5129469" lon="14.1414629"><ele>8.0</ele><time>2026-05-01T15:29:30.267Z</time></trkpt><trkpt lat="42.5130406" lon="14.1414585"><ele>7.6000000000000005</ele><time>2026-05-01T15:29:31.267Z</time></trkpt><trkpt lat="42.5131404" lon="14.1414648"><ele>7.200000000000001</ele><time>2026-05-01T15:29:32.258Z</time></trkpt><trkpt lat="42.5132458" lon="14.141477"><ele>6.8</ele><time>2026-05-01T15:29:33.253Z</time></trkpt><trkpt lat="42.5133511" lon="14.1415009"><ele>6.4</ele><time>2026-05-01T15:29:34.263Z</time></trkpt><trkpt lat="42.5134562" lon="14.1415373"><ele>6.0</ele><time>2026-05-01T15:29:35.262Z</time></trkpt><trkpt lat="42.5135644" lon="14.1415918"><ele>6.0</ele><time>2026-05-01T15:29:36.266Z</time></trkpt><trkpt lat="42.5136689" lon="14.1416634"><ele>6.0</ele><time>2026-05-01T15:29:37.256Z</time></trkpt><trkpt lat="42.5137678" lon="14.1417378"><ele>6.0</ele><time>2026-05-01T15:29:38.249Z</time></trkpt><trkpt lat="42.5138582" lon="14.1418075"><ele>6.0</ele><time>2026-05-01T15:29:39.261Z</time></trkpt><trkpt lat="42.5139468" lon="14.1418763"><ele>6.0</ele><time>2026-05-01T15:29:40.254Z</time></trkpt><trkpt lat="42.514031" lon="14.1419368"><ele>5.5</ele><time>2026-05-01T15:29:41.261Z</time></trkpt><trkpt lat="42.5140999" lon="14.1419855"><ele>5.0</ele><time>2026-05-01T15:29:42.252Z</time></trkpt><trkpt lat="42.5141545" lon="14.1420318"><ele>4.5</ele><time>2026-05-01T15:29:43.255Z</time></trkpt><trkpt lat="42.5142394" lon="14.142146"><ele>4.0</ele><time>2026-05-01T15:29:45.26Z</time></trkpt><trkpt lat="42.5142738" lon="14.1422262"><ele>3.5</ele><time>2026-05-01T15:29:46.258Z</time></trkpt><trkpt lat="42.5143019" lon="14.142324"><ele>3.0</ele><time>2026-05-01T15:29:47.257Z</time></trkpt><trkpt lat="42.5143381" lon="14.1424229"><ele>2.8333333333333335</ele><time>2026-05-01T15:29:48.263Z</time></trkpt><trkpt lat="42.5143938" lon="14.1424856"><ele>2.6666666666666665</ele><time>2026-05-01T15:29:49.246Z</time></trkpt><trkpt lat="42.5144645" lon="14.142498"><ele>2.5</ele><time>2026-05-01T15:29:50.248Z</time></trkpt><trkpt lat="42.5145408" lon="14.1424668"><ele>2.333333333333333</ele><time>2026-05-01T15:29:51.255Z</time></trkpt><trkpt lat="42.5146247" lon="14.1424229"><ele>2.1666666666666665</ele><time>2026-05-01T15:29:52.252Z</time></trkpt><trkpt lat="42.5147144" lon="14.1424171"><ele>2.0</ele><time>2026-05-01T15:29:53.255Z</time></trkpt><trkpt lat="42.5148034" lon="14.1424704"><ele>2.0</ele><time>2026-05-01T15:29:54.247Z</time></trkpt><trkpt lat="42.5148922" lon="14.1425519"><ele>2.0</ele><time>2026-05-01T15:29:55.263Z</time></trkpt><trkpt lat="42.5149863" lon="14.1426311"><ele>2.0</ele><time>2026-05-01T15:29:56.257Z</time></trkpt><trkpt lat="42.5150913" lon="14.1427082"><ele>2.0</ele><time>2026-05-01T15:29:57.249Z</time></trkpt><trkpt lat="42.5152043" lon="14.1427859"><ele>2.0</ele><time>2026-05-01T15:29:58.254Z</time></trkpt><trkpt lat="42.5153235" lon="14.1428647"><ele>2.0</ele><time>2026-05-01T15:29:59.238Z</time></trkpt><trkpt lat="42.5154456" lon="14.1429526"><ele>2.0</ele><time>2026-05-01T15:30:00.245Z</time></trkpt><trkpt lat="42.5155667" lon="14.1430383"><ele>2.0</ele><time>2026-05-01T15:30:01.253Z</time></trkpt><trkpt lat="42.5156912" lon="14.1431284"><ele>2.5</ele><time>2026-05-01T15:30:02.257Z</time></trkpt><trkpt lat="42.5158172" lon="14.1432236"><ele>3.0</ele><time>2026-05-01T15:30:03.251Z</time></trkpt><trkpt lat="42.5159449" lon="14.143317"><ele>3.5</ele><time>2026-05-01T15:30:04.255Z</time></trkpt><trkpt lat="42.5160784" lon="14.1434096"><ele>4.0</ele><time>2026-05-01T15:30:05.258Z</time></trkpt><trkpt lat="42.5162133" lon="14.1435068"><ele>4.666666666666666</ele><time>2026-05-01T15:30:06.25Z</time></trkpt><trkpt lat="42.5163496" lon="14.1436071"><ele>5.333333333333333</ele><time>2026-05-01T15:30:07.241Z</time></trkpt><trkpt lat="42.516483" lon="14.1437033"><ele>6.0</ele><time>2026-05-01T15:30:08.238Z</time></trkpt><trkpt lat="42.516614" lon="14.1438024"><ele>6.0</ele><time>2026-05-01T15:30:09.255Z</time></trkpt><trkpt lat="42.5167452" lon="14.1439008"><ele>6.0</ele><time>2026-05-01T15:30:10.269Z</time></trkpt><trkpt lat="42.5168729" lon="14.143998"><ele>6.0</ele><time>2026-05-01T15:30:11.249Z</time></trkpt><trkpt lat="42.5170053" lon="14.1440961"><ele>6.0</ele><time>2026-05-01T15:30:12.238Z</time></trkpt><trkpt lat="42.5171431" lon="14.1441943"><ele>5.25</ele><time>2026-05-01T15:30:13.265Z</time></trkpt><trkpt lat="42.5172786" lon="14.14429"><ele>4.5</ele><time>2026-05-01T15:30:14.257Z</time></trkpt><trkpt lat="42.5174111" lon="14.1443875"><ele>3.75</ele><time>2026-05-01T15:30:15.276Z</time></trkpt><trkpt lat="42.517539" lon="14.1444829"><ele>3.0</ele><time>2026-05-01T15:30:16.248Z</time></trkpt><trkpt lat="42.5176665" lon="14.1445778"><ele>3.0</ele><time>2026-05-01T15:30:17.254Z</time></trkpt><trkpt lat="42.5177913" lon="14.1446698"><ele>3.0</ele><time>2026-05-01T15:30:18.263Z</time></trkpt><trkpt lat="42.5179164" lon="14.1447592"><ele>3.0</ele><time>2026-05-01T15:30:19.265Z</time></trkpt><trkpt lat="42.5180418" lon="14.144848"><ele>3.0</ele><time>2026-05-01T15:30:20.257Z</time></trkpt><trkpt lat="42.5181668" lon="14.1449355"><ele>3.0</ele><time>2026-05-01T15:30:21.28Z</time></trkpt><trkpt lat="42.5182904" lon="14.1450216"><ele>3.0</ele><time>2026-05-01T15:30:22.277Z</time></trkpt><trkpt lat="42.5184149" lon="14.1451068"><ele>3.0</ele><time>2026-05-01T15:30:23.266Z</time></trkpt><trkpt lat="42.5185384" lon="14.1451925"><ele>3.0</ele><time>2026-05-01T15:30:24.257Z</time></trkpt><trkpt lat="42.5186586" lon="14.1452783"><ele>3.0</ele><time>2026-05-01T15:30:25.236Z</time></trkpt><trkpt lat="42.5187785" lon="14.1453652"><ele>3.0</ele><time>2026-05-01T15:30:26.26Z</time></trkpt><trkpt lat="42.5188894" lon="14.1454495"><ele>3.0</ele><time>2026-05-01T15:30:27.264Z</time></trkpt><trkpt lat="42.5189964" lon="14.1455269"><ele>3.0</ele><time>2026-05-01T15:30:28.233Z</time></trkpt><trkpt lat="42.5190966" lon="14.1455979"><ele>3.0</ele><time>2026-05-01T15:30:29.258Z</time></trkpt><trkpt lat="42.5191825" lon="14.1456565"><ele>3.0</ele><time>2026-05-01T15:30:30.257Z</time></trkpt><trkpt lat="42.5192624" lon="14.1457064"><ele>3.0</ele><time>2026-05-01T15:30:31.255Z</time></trkpt><trkpt lat="42.5193342" lon="14.1457502"><ele>3.0</ele><time>2026-05-01T15:30:32.255Z</time></trkpt><trkpt lat="42.5194302" lon="14.145827"><ele>3.0</ele><time>2026-05-01T15:30:34.252Z</time></trkpt><trkpt lat="42.5194968" lon="14.145899"><ele>3.2857142857142856</ele><time>2026-05-01T15:30:36.273Z</time></trkpt><trkpt lat="42.5195379" lon="14.1459745"><ele>3.571428571428571</ele><time>2026-05-01T15:30:40.252Z</time></trkpt><trkpt lat="42.5195654" lon="14.1460615"><ele>3.8571428571428568</ele><time>2026-05-01T15:30:47.248Z</time></trkpt><trkpt lat="42.5195366" lon="14.1461672"><ele>4.142857142857142</ele><time>2026-05-01T15:30:50.246Z</time></trkpt><trkpt lat="42.5194895" lon="14.146242"><ele>4.428571428571429</ele><time>2026-05-01T15:30:52.251Z</time></trkpt><trkpt lat="42.5194509" lon="14.1463428"><ele>4.714285714285714</ele><time>2026-05-01T15:30:55.234Z</time></trkpt><trkpt lat="42.5194084" lon="14.146413"><ele>5.0</ele><time>2026-05-01T15:30:58.236Z</time></trkpt><trkpt lat="42.5193676" lon="14.1464945"><ele>4.666666666666667</ele><time>2026-05-01T15:31:06.237Z</time></trkpt><trkpt lat="42.5193182" lon="14.1465625"><ele>4.333333333333334</ele><time>2026-05-01T15:31:09.301Z</time></trkpt><trkpt lat="42.519269" lon="14.1466224"><ele>4.0</ele><time>2026-05-01T15:31:13.236Z</time></trkpt><trkpt lat="42.5192091" lon="14.146677"><ele>3.666666666666667</ele><time>2026-05-01T15:31:21.252Z</time></trkpt><trkpt lat="42.5191545" lon="14.1467467"><ele>3.3333333333333335</ele><time>2026-05-01T15:31:25.253Z</time></trkpt><trkpt lat="42.5191049" lon="14.1468221"><ele>3.0</ele><time>2026-05-01T15:31:28.262Z</time></trkpt><trkpt lat="42.5190837" lon="14.1469612"><ele>3.0</ele><time>2026-05-01T15:31:31.23Z</time></trkpt><trkpt lat="42.5190961" lon="14.147087"><ele>3.0</ele><time>2026-05-01T15:31:33.252Z</time></trkpt><trkpt lat="42.5191721" lon="14.1471928"><ele>3.0</ele><time>2026-05-01T15:31:35.233Z</time></trkpt><trkpt lat="42.5192351" lon="14.1472301"><ele>3.0</ele><time>2026-05-01T15:31:36.259Z</time></trkpt><trkpt lat="42.5193137" lon="14.1472533"><ele>3.0</ele><time>2026-05-01T15:31:37.252Z</time></trkpt><trkpt lat="42.5194028" lon="14.1472876"><ele>3.0</ele><time>2026-05-01T15:31:38.242Z</time></trkpt><trkpt lat="42.5194657" lon="14.1473656"><ele>3.0</ele><time>2026-05-01T15:31:39.25Z</time></trkpt><trkpt lat="42.5195314" lon="14.1474355"><ele>3.0</ele><time>2026-05-01T15:31:40.246Z</time></trkpt><trkpt lat="42.5195902" lon="14.1475202"><ele>3.0</ele><time>2026-05-01T15:31:41.251Z</time></trkpt><trkpt lat="42.5196613" lon="14.1476194"><ele>3.0</ele><time>2026-05-01T15:31:42.251Z</time></trkpt><trkpt lat="42.519721" lon="14.1477229"><ele>3.0</ele><time>2026-05-01T15:31:43.258Z</time></trkpt><trkpt lat="42.5197814" lon="14.1478235"><ele>2.8</ele><time>2026-05-01T15:31:44.249Z</time></trkpt><trkpt lat="42.5198372" lon="14.1479289"><ele>2.5999999999999996</ele><time>2026-05-01T15:31:45.249Z</time></trkpt><trkpt lat="42.5198973" lon="14.1480276"><ele>2.4000000000000004</ele><time>2026-05-01T15:31:46.254Z</time></trkpt><trkpt lat="42.519948" lon="14.148136"><ele>2.2</ele><time>2026-05-01T15:31:47.272Z</time></trkpt><trkpt lat="42.5199935" lon="14.1482547"><ele>2.0</ele><time>2026-05-01T15:31:48.24Z</time></trkpt><trkpt lat="42.5200369" lon="14.14838"><ele>2.0</ele><time>2026-05-01T15:31:49.25Z</time></trkpt><trkpt lat="42.5200804" lon="14.1484999"><ele>2.0</ele><time>2026-05-01T15:31:50.261Z</time></trkpt><trkpt lat="42.5201227" lon="14.1486212"><ele>2.0</ele><time>2026-05-01T15:31:51.249Z</time></trkpt><trkpt lat="42.5201654" lon="14.1487496"><ele>2.0</ele><time>2026-05-01T15:31:52.253Z</time></trkpt><trkpt lat="42.5202081" lon="14.1488724"><ele>2.0</ele><time>2026-05-01T15:31:53.271Z</time></trkpt><trkpt lat="42.5202485" lon="14.1489872"><ele>1.9999999999999998</ele><time>2026-05-01T15:31:54.252Z</time></trkpt><trkpt lat="42.5202852" lon="14.149095"><ele>2.0</ele><time>2026-05-01T15:31:55.259Z</time></trkpt><trkpt lat="42.5203219" lon="14.1492032"><ele>2.0</ele><time>2026-05-01T15:31:56.252Z</time></trkpt><trkpt lat="42.5203602" lon="14.1493033"><ele>2.0</ele><time>2026-05-01T15:31:57.287Z</time></trkpt><trkpt lat="42.5203981" lon="14.1494035"><ele>1.9999999999999998</ele><time>2026-05-01T15:31:58.255Z</time></trkpt><trkpt lat="42.5204358" lon="14.1495034"><ele>2.0</ele><time>2026-05-01T15:31:59.269Z</time></trkpt><trkpt lat="42.5204722" lon="14.1496014"><ele>1.9999999999999998</ele><time>2026-05-01T15:32:00.257Z</time></trkpt><trkpt lat="42.5205053" lon="14.1497031"><ele>2.0</ele><time>2026-05-01T15:32:01.269Z</time></trkpt><trkpt lat="42.5205382" lon="14.1498043"><ele>2.0</ele><time>2026-05-01T15:32:02.247Z</time></trkpt><trkpt lat="42.5205706" lon="14.1499102"><ele>2.0</ele><time>2026-05-01T15:32:03.282Z</time></trkpt><trkpt lat="42.5205982" lon="14.1500159"><ele>1.9999999999999998</ele><time>2026-05-01T15:32:04.26Z</time></trkpt><trkpt lat="42.5206271" lon="14.1501136"><ele>2.0</ele><time>2026-05-01T15:32:05.236Z</time></trkpt><trkpt lat="42.5206566" lon="14.1502045"><ele>1.9999999999999998</ele><time>2026-05-01T15:32:06.25Z</time></trkpt><trkpt lat="42.5206822" lon="14.1502922"><ele>2.0</ele><time>2026-05-01T15:32:07.254Z</time></trkpt><trkpt lat="42.5207121" lon="14.1503786"><ele>2.0</ele><time>2026-05-01T15:32:08.259Z</time></trkpt><trkpt lat="42.5207444" lon="14.1504718"><ele>2.0</ele><time>2026-05-01T15:32:09.272Z</time></trkpt><trkpt lat="42.5207756" lon="14.150563"><ele>1.9999999999999998</ele><time>2026-05-01T15:32:10.27Z</time></trkpt><trkpt lat="42.5208192" lon="14.1507091"><ele>2.0</ele><time>2026-05-01T15:32:12.261Z</time></trkpt><trkpt lat="42.5208536" lon="14.1507993"><ele>1.9999999999999998</ele><time>2026-05-01T15:32:14.247Z</time></trkpt><trkpt lat="42.5208841" lon="14.1508812"><ele>2.0</ele><time>2026-05-01T15:32:18.257Z</time></trkpt><trkpt lat="42.5209194" lon="14.1509791"><ele>2.0</ele><time>2026-05-01T15:32:25.271Z</time></trkpt><trkpt lat="42.5209632" lon="14.1511143"><ele>2.0</ele><time>2026-05-01T15:32:27.269Z</time></trkpt><trkpt lat="42.5209943" lon="14.1512012"><ele>1.9999999999999998</ele><time>2026-05-01T15:32:28.253Z</time></trkpt><trkpt lat="42.5210282" lon="14.1512924"><ele>2.0</ele><time>2026-05-01T15:32:29.266Z</time></trkpt><trkpt lat="42.5210565" lon="14.1513851"><ele>1.9999999999999998</ele><time>2026-05-01T15:32:30.243Z</time></trkpt><trkpt lat="42.5210862" lon="14.1514727"><ele>2.0</ele><time>2026-05-01T15:32:31.257Z</time></trkpt><trkpt lat="42.52112" lon="14.1515604"><ele>2.0</ele><time>2026-05-01T15:32:32.256Z</time></trkpt><trkpt lat="42.5211489" lon="14.1516441"><ele>2.0</ele><time>2026-05-01T15:32:33.267Z</time></trkpt><trkpt lat="42.5211979" lon="14.1517891"><ele>1.9999999999999998</ele><time>2026-05-01T15:32:35.279Z</time></trkpt><trkpt lat="42.5212474" lon="14.1519202"><ele>2.0</ele><time>2026-05-01T15:32:37.279Z</time></trkpt><trkpt lat="42.5212904" lon="14.1520461"><ele>1.6666666666666665</ele><time>2026-05-01T15:32:39.264Z</time></trkpt><trkpt lat="42.5213325" lon="14.1521633"><ele>1.3333333333333333</ele><time>2026-05-01T15:32:41.265Z</time></trkpt><trkpt lat="42.5213814" lon="14.1523102"><ele>1.0</ele><time>2026-05-01T15:32:43.261Z</time></trkpt><trkpt lat="42.5214084" lon="14.1523968"><ele>0.6666666666666666</ele><time>2026-05-01T15:32:44.244Z</time></trkpt><trkpt lat="42.5214422" lon="14.1524853"><ele>0.3333333333333333</ele><time>2026-05-01T15:32:45.276Z</time></trkpt><trkpt lat="42.5214758" lon="14.1525813"><ele>0.0</ele><time>2026-05-01T15:32:46.272Z</time></trkpt><trkpt lat="42.5215125" lon="14.1526754"><ele>0.0</ele><time>2026-05-01T15:32:47.257Z</time></trkpt><trkpt lat="42.5215482" lon="14.1527762"><ele>0.0</ele><time>2026-05-01T15:32:48.26Z</time></trkpt><trkpt lat="42.5215799" lon="14.1528707"><ele>0.0</ele><time>2026-05-01T15:32:49.262Z</time></trkpt><trkpt lat="42.5216121" lon="14.1529491"><ele>0.0</ele><time>2026-05-01T15:32:50.268Z</time></trkpt><trkpt lat="42.5216631" lon="14.1530888"><ele>0.0</ele><time>2026-05-01T15:32:52.256Z</time></trkpt><trkpt lat="42.5217102" lon="14.1532261"><ele>0.0</ele><time>2026-05-01T15:32:54.272Z</time></trkpt><trkpt lat="42.5217587" lon="14.153361"><ele>0.0</ele><time>2026-05-01T15:32:56.259Z</time></trkpt><trkpt lat="42.5218042" lon="14.1534661"><ele>0.0</ele><time>2026-05-01T15:32:58.259Z</time></trkpt><trkpt lat="42.5218393" lon="14.1535597"><ele>0.0</ele><time>2026-05-01T15:33:01.255Z</time></trkpt><trkpt lat="42.5218826" lon="14.1536292"><ele>0.0</ele><time>2026-05-01T15:33:06.241Z</time></trkpt><trkpt lat="42.5219604" lon="14.1536243"><ele>0.0</ele><time>2026-05-01T15:33:09.262Z</time></trkpt><trkpt lat="42.5220539" lon="14.1535634"><ele>0.2857142857142857</ele><time>2026-05-01T15:33:11.265Z</time></trkpt><trkpt lat="42.5221141" lon="14.1535199"><ele>0.5714285714285714</ele><time>2026-05-01T15:33:12.259Z</time></trkpt><trkpt lat="42.5221762" lon="14.1534649"><ele>0.8571428571428571</ele><time>2026-05-01T15:33:13.279Z</time></trkpt><trkpt lat="42.5222632" lon="14.1533767"><ele>1.1428571428571428</ele><time>2026-05-01T15:33:15.266Z</time></trkpt><trkpt lat="42.522294" lon="14.1532961"><ele>1.4285714285714284</ele><time>2026-05-01T15:33:17.263Z</time></trkpt><trkpt lat="42.5222726" lon="14.1532129"><ele>1.7142857142857142</ele><time>2026-05-01T15:33:21.26Z</time></trkpt><trkpt lat="42.5222358" lon="14.1531383"><ele>2.0</ele><time>2026-05-01T15:33:36.237Z</time></trkpt><trkpt lat="42.5221857" lon="14.1530587"><ele>2.0</ele><time>2026-05-01T15:33:40.261Z</time></trkpt><trkpt lat="42.5221553" lon="14.1529645"><ele>1.9999999999999998</ele><time>2026-05-01T15:33:43.266Z</time></trkpt><trkpt lat="42.5221182" lon="14.1528785"><ele>2.0</ele><time>2026-05-01T15:33:46.269Z</time></trkpt><trkpt lat="42.5220859" lon="14.1527827"><ele>2.0</ele><time>2026-05-01T15:33:51.268Z</time></trkpt><trkpt lat="42.522048" lon="14.152693"><ele>1.9999999999999998</ele><time>2026-05-01T15:33:55.267Z</time></trkpt><trkpt lat="42.5220098" lon="14.1526019"><ele>2.0</ele><time>2026-05-01T15:33:59.262Z</time></trkpt><trkpt lat="42.5219644" lon="14.1525335"><ele>2.0</ele><time>2026-05-01T15:34:03.264Z</time></trkpt><trkpt lat="42.5219213" lon="14.1524572"><ele>1.6666666666666665</ele><time>2026-05-01T15:34:10.27Z</time></trkpt><trkpt lat="42.5218797" lon="14.1523776"><ele>1.3333333333333333</ele><time>2026-05-01T15:34:15.258Z</time></trkpt><trkpt lat="42.5218389" lon="14.1522817"><ele>1.0</ele><time>2026-05-01T15:34:18.263Z</time></trkpt><trkpt lat="42.5217773" lon="14.1522028"><ele>0.6666666666666666</ele><time>2026-05-01T15:34:21.266Z</time></trkpt><trkpt lat="42.5217347" lon="14.1521164"><ele>0.3333333333333333</ele><time>2026-05-01T15:34:38.253Z</time></trkpt><trkpt lat="42.5217258" lon="14.1520223"><ele>0.0</ele><time>2026-05-01T15:35:34.267Z</time></trkpt><trkpt lat="42.5217119" lon="14.1519347"><ele>0.0</ele><time>2026-05-01T15:35:40.259Z</time></trkpt><trkpt lat="42.5216388" lon="14.1519611"><ele>0.0</ele><time>2026-05-01T15:35:43.281Z</time></trkpt><trkpt lat="42.521568" lon="14.1520205"><ele>0.0</ele><time>2026-05-01T15:35:46.268Z</time></trkpt><trkpt lat="42.5214978" lon="14.1520558"><ele>0.0</ele><time>2026-05-01T15:35:51.255Z</time></trkpt><trkpt lat="42.5214284" lon="14.1520919"><ele>0.0</ele><time>2026-05-01T15:35:53.293Z</time></trkpt><trkpt lat="42.5213714" lon="14.1520538"><ele>0.0</ele><time>2026-05-01T15:35:57.245Z</time></trkpt><trkpt lat="42.5213126" lon="14.1519338"><ele>0.0</ele><time>2026-05-01T15:36:00.244Z</time></trkpt><trkpt lat="42.521299" lon="14.1518149"><ele>0.0</ele><time>2026-05-01T15:36:02.254Z</time></trkpt><trkpt lat="42.5213766" lon="14.1517145"><ele>0.0</ele><time>2026-05-01T15:36:04.231Z</time></trkpt><trkpt lat="42.5214373" lon="14.1516748"><ele>0.0</ele><time>2026-05-01T15:36:05.236Z</time></trkpt><trkpt lat="42.5214981" lon="14.1516378"><ele>0.0</ele><time>2026-05-01T15:36:06.228Z</time></trkpt><trkpt lat="42.5215608" lon="14.1515968"><ele>0.0</ele><time>2026-05-01T15:36:07.235Z</time></trkpt><trkpt lat="42.5216224" lon="14.151553"><ele>0.8</ele><time>2026-05-01T15:36:08.252Z</time></trkpt><trkpt lat="42.5217274" lon="14.1514805"><ele>1.6</ele><time>2026-05-01T15:36:10.244Z</time></trkpt><trkpt lat="42.5218035" lon="14.1513861"><ele>2.4000000000000004</ele><time>2026-05-01T15:36:12.261Z</time></trkpt><trkpt lat="42.5218192" lon="14.1512682"><ele>3.2</ele><time>2026-05-01T15:36:14.254Z</time></trkpt><trkpt lat="42.5217869" lon="14.1511641"><ele>4.0</ele><time>2026-05-01T15:36:16.258Z</time></trkpt><trkpt lat="42.5217508" lon="14.1510825"><ele>3.9999999999999996</ele><time>2026-05-01T15:36:18.252Z</time></trkpt><trkpt lat="42.5216937" lon="14.1510124"><ele>4.0</ele><time>2026-05-01T15:36:22.242Z</time></trkpt><trkpt lat="42.5216508" lon="14.1509206"><ele>4.0</ele><time>2026-05-01T15:36:25.269Z</time></trkpt><trkpt lat="42.5215938" lon="14.150865"><ele>4.0</ele><time>2026-05-01T15:36:27.263Z</time></trkpt><trkpt lat="42.5215077" lon="14.1509163"><ele>3.9999999999999996</ele><time>2026-05-01T15:36:29.258Z</time></trkpt><trkpt lat="42.5214121" lon="14.1510066"><ele>4.0</ele><time>2026-05-01T15:36:31.258Z</time></trkpt><trkpt lat="42.5213284" lon="14.1510811"><ele>4.0</ele><time>2026-05-01T15:36:33.257Z</time></trkpt><trkpt lat="42.5212668" lon="14.1511332"><ele>4.0</ele><time>2026-05-01T15:36:35.256Z</time></trkpt><trkpt lat="42.5212538" lon="14.1512209"><ele>4.0</ele><time>2026-05-01T15:36:38.258Z</time></trkpt><trkpt lat="42.5212938" lon="14.1512913"><ele>4.0</ele><time>2026-05-01T15:36:42.267Z</time></trkpt><trkpt lat="42.5213533" lon="14.1512486"><ele>4.0</ele><time>2026-05-01T15:36:47.259Z</time></trkpt></trkseg></trk></gpx>